<?xml version='1.0' encoding='UTF-8'?><gpx version="1.1" creator="JPX - https://github.com/jenetics/jpx" xmlns="http://www.topografix.com/GPX/1/1"><trk><trkseg><trkpt lat="42.92239417993784" lon="10.758206021983497"><ele>10.0</ele><time>2026-03-24T07:28:22Z</time></trkpt><trkpt lat="42.92253834260044" lon="10.758253048325347"><ele>10.0</ele><time>2026-03-24T07:28:30Z</time></trkpt><trkpt lat="42.92243998816155" lon="10.758220258471756"><ele>10.0</ele><time>2026-03-24T07:28:32Z</time></trkpt><trkpt lat="42.9225139349348" lon="10.758266479513273"><ele>10.0</ele><time>2026-03-24T07:30:26Z</time></trkpt><trkpt lat="42.922548058778695" lon="10.75835548507711"><ele>10.0</ele><time>2026-03-24T07:30:28Z</time></trkpt><trkpt lat="42.9225815774835" lon="10.758430991257226"><ele>10.0</ele><time>2026-03-24T07:30:30Z</time></trkpt><trkpt lat="42.922633081049064" lon="10.758531920478818"><ele>10.0</ele><time>2026-03-24T07:30:32Z</time></trkpt><trkpt lat="42.92269077286789" lon="10.75863750708294"><ele>10.0</ele><time>2026-03-24T07:30:35Z</time></trkpt><trkpt lat="42.922713300633475" lon="10.758784209338264"><ele>10.0</ele><time>2026-03-24T07:30:46Z</time></trkpt><trkpt lat="42.9227782623387" lon="10.758869893599174"><ele>10.0</ele><time>2026-03-24T07:30:48Z</time></trkpt><trkpt lat="42.92282711546744" lon="10.758956178286603"><ele>10.0</ele><time>2026-03-24T07:30:50Z</time></trkpt><trkpt lat="42.92287178729186" lon="10.759020305628008"><ele>10.0</ele><time>2026-03-24T07:30:54Z</time></trkpt><trkpt lat="42.92291502909389" lon="10.7591327096695"><ele>10.0</ele><time>2026-03-24T07:30:59Z</time></trkpt><trkpt lat="42.92286933682801" lon="10.75924345159343"><ele>10.0</ele><time>2026-03-24T07:31:02Z</time></trkpt><trkpt lat="42.92277032516667" lon="10.759324057411726"><ele>10.0</ele><time>2026-03-24T07:31:04Z</time></trkpt><trkpt lat="42.922688776545456" lon="10.759391354515628"><ele>9.833333333333334</ele><time>2026-03-24T07:31:06Z</time></trkpt><trkpt lat="42.922627490118096" lon="10.75944230902205"><ele>9.666666666666668</ele><time>2026-03-24T07:31:10Z</time></trkpt><trkpt lat="42.92256700374696" lon="10.759520124191164"><ele>9.5</ele><time>2026-03-24T07:31:12Z</time></trkpt><trkpt lat="42.92259491206837" lon="10.75960886668515"><ele>9.333333333333334</ele><time>2026-03-24T07:31:14Z</time></trkpt><trkpt lat="42.922646167543256" lon="10.759672229611494"><ele>9.166666666666666</ele><time>2026-03-24T07:31:15Z</time></trkpt><trkpt lat="42.922735010706226" lon="10.759752590946745"><ele>9.0</ele><time>2026-03-24T07:31:16Z</time></trkpt><trkpt lat="42.9228181771616" lon="10.759860500751685"><ele>9.0</ele><time>2026-03-24T07:31:17Z</time></trkpt><trkpt lat="42.92287565666892" lon="10.759970821038078"><ele>9.0</ele><time>2026-03-24T07:31:18Z</time></trkpt><trkpt lat="42.92293072204736" lon="10.760076720974514"><ele>9.0</ele><time>2026-03-24T07:31:19Z</time></trkpt><trkpt lat="42.922987271363105" lon="10.760176481104068"><ele>9.0</ele><time>2026-03-24T07:31:20Z</time></trkpt><trkpt lat="42.92302854072301" lon="10.760261405057829"><ele>9.0</ele><time>2026-03-24T07:31:21Z</time></trkpt><trkpt lat="42.923072321251674" lon="10.7603523967615"><ele>9.0</ele><time>2026-03-24T07:31:22Z</time></trkpt><trkpt lat="42.92311495692148" lon="10.760443826320339"><ele>9.0</ele><time>2026-03-24T07:31:23Z</time></trkpt><trkpt lat="42.92315532639272" lon="10.760527962127368"><ele>9.0</ele><time>2026-03-24T07:31:24Z</time></trkpt><trkpt lat="42.92321642820633" lon="10.760644811026285"><ele>9.0</ele><time>2026-03-24T07:31:26Z</time></trkpt><trkpt lat="42.923287146308255" lon="10.760787201071526"><ele>9.0</ele><time>2026-03-24T07:31:28Z</time></trkpt><trkpt lat="42.923349915621145" lon="10.760888166293647"><ele>9.0</ele><time>2026-03-24T07:31:29Z</time></trkpt><trkpt lat="42.92341591359938" lon="10.761052524748267"><ele>9.0</ele><time>2026-03-24T07:31:30Z</time></trkpt><trkpt lat="42.92349095974255" lon="10.761191120927709"><ele>9.0</ele><time>2026-03-24T07:31:31Z</time></trkpt><trkpt lat="42.92354325507207" lon="10.76131805446354"><ele>9.0</ele><time>2026-03-24T07:31:32Z</time></trkpt><trkpt lat="42.923607136650375" lon="10.761435730553897"><ele>9.0</ele><time>2026-03-24T07:31:33Z</time></trkpt><trkpt lat="42.923667124617026" lon="10.76155514970633"><ele>9.0</ele><time>2026-03-24T07:31:34Z</time></trkpt><trkpt lat="42.923726730463535" lon="10.761678989885581"><ele>9.0</ele><time>2026-03-24T07:31:35Z</time></trkpt><trkpt lat="42.9237804202662" lon="10.761787916860179"><ele>9.0</ele><time>2026-03-24T07:31:36Z</time></trkpt><trkpt lat="42.923836681843426" lon="10.761902244445894"><ele>9.0</ele><time>2026-03-24T07:31:37Z</time></trkpt><trkpt lat="42.923885979282154" lon="10.76200276078564"><ele>9.0</ele><time>2026-03-24T07:31:38Z</time></trkpt><trkpt lat="42.92393259393548" lon="10.762097006281596"><ele>9.0</ele><time>2026-03-24T07:31:39Z</time></trkpt><trkpt lat="42.923981409881456" lon="10.762196072935541"><ele>9.0</ele><time>2026-03-24T07:31:40Z</time></trkpt><trkpt lat="42.92402518815556" lon="10.762281627102425"><ele>9.0</ele><time>2026-03-24T07:31:41Z</time></trkpt><trkpt lat="42.924066776949296" lon="10.762377497864616"><ele>9.0</ele><time>2026-03-24T07:31:42Z</time></trkpt><trkpt lat="42.9241110295669" lon="10.762498658765619"><ele>9.0</ele><time>2026-03-24T07:31:43Z</time></trkpt><trkpt lat="42.92416167047642" lon="10.762613631924506"><ele>9.0</ele><time>2026-03-24T07:31:44Z</time></trkpt><trkpt lat="42.924227144767684" lon="10.762727533247665"><ele>8.8</ele><time>2026-03-24T07:31:45Z</time></trkpt><trkpt lat="42.924291772128235" lon="10.76284574476804"><ele>8.600000000000001</ele><time>2026-03-24T07:31:46Z</time></trkpt><trkpt lat="42.92434669150308" lon="10.762957272621819"><ele>8.4</ele><time>2026-03-24T07:31:47Z</time></trkpt><trkpt lat="42.92439947796574" lon="10.763064595619854"><ele>8.200000000000001</ele><time>2026-03-24T07:31:48Z</time></trkpt><trkpt lat="42.92444658334002" lon="10.763156484459152"><ele>8.0</ele><time>2026-03-24T07:31:49Z</time></trkpt><trkpt lat="42.92448962697377" lon="10.763237463885142"><ele>7.999999999999999</ele><time>2026-03-24T07:31:50Z</time></trkpt><trkpt lat="42.92453703804959" lon="10.763333158130523"><ele>8.0</ele><time>2026-03-24T07:31:51Z</time></trkpt><trkpt lat="42.9245859749402" lon="10.763443265719566"><ele>8.0</ele><time>2026-03-24T07:31:52Z</time></trkpt><trkpt lat="42.924628908499535" lon="10.763534549061712"><ele>8.0</ele><time>2026-03-24T07:31:53Z</time></trkpt><trkpt lat="42.92466831316852" lon="10.76361771911227"><ele>7.999999999999999</ele><time>2026-03-24T07:31:54Z</time></trkpt><trkpt lat="42.92469930065172" lon="10.76370726511861"><ele>8.0</ele><time>2026-03-24T07:31:55Z</time></trkpt><trkpt lat="42.924706197316944" lon="10.763845389591907"><ele>8.4</ele><time>2026-03-24T07:31:57Z</time></trkpt><trkpt lat="42.924670051432386" lon="10.763949742171478"><ele>8.8</ele><time>2026-03-24T07:31:59Z</time></trkpt><trkpt lat="42.92461140758272" lon="10.764061502761326"><ele>9.2</ele><time>2026-03-24T07:32:01Z</time></trkpt><trkpt lat="42.924619923042385" lon="10.76417201084122"><ele>9.6</ele><time>2026-03-24T07:32:03Z</time></trkpt><trkpt lat="42.92471183812236" lon="10.764211113540355"><ele>10.0</ele><time>2026-03-24T07:32:04Z</time></trkpt><trkpt lat="42.924789876796574" lon="10.764262932888565"><ele>10.0</ele><time>2026-03-24T07:32:05Z</time></trkpt><trkpt lat="42.9248751570945" lon="10.764337633439716"><ele>10.0</ele><time>2026-03-24T07:32:06Z</time></trkpt><trkpt lat="42.924950639719185" lon="10.764443631062857"><ele>10.0</ele><time>2026-03-24T07:32:07Z</time></trkpt><trkpt lat="42.9249923659182" lon="10.76454377199742"><ele>10.0</ele><time>2026-03-24T07:32:08Z</time></trkpt><trkpt lat="42.92499694687077" lon="10.76463636635824"><ele>10.0</ele><time>2026-03-24T07:32:09Z</time></trkpt><trkpt lat="42.92511862854777" lon="10.764675565001475"><ele>10.0</ele><time>2026-03-24T07:32:11Z</time></trkpt><trkpt lat="42.92518159276856" lon="10.764632519360974"><ele>10.0</ele><time>2026-03-24T07:32:12Z</time></trkpt><trkpt lat="42.92523332707178" lon="10.764542763623732"><ele>10.0</ele><time>2026-03-24T07:32:13Z</time></trkpt><trkpt lat="42.92528458709609" lon="10.764442592773332"><ele>10.0</ele><time>2026-03-24T07:32:14Z</time></trkpt><trkpt lat="42.92535864989652" lon="10.764376263095416"><ele>10.0</ele><time>2026-03-24T07:32:15Z</time></trkpt><trkpt lat="42.92545530050805" lon="10.764326782930159"><ele>10.0</ele><time>2026-03-24T07:32:16Z</time></trkpt><trkpt lat="42.925581812406044" lon="10.764305721940556"><ele>10.0</ele><time>2026-03-24T07:32:17Z</time></trkpt><trkpt lat="42.92573774204552" lon="10.764252567107409"><ele>10.0</ele><time>2026-03-24T07:32:18Z</time></trkpt><trkpt lat="42.925916634299824" lon="10.764194415313947"><ele>10.0</ele><time>2026-03-24T07:32:19Z</time></trkpt><trkpt lat="42.92610363473579" lon="10.764115961188445"><ele>10.0</ele><time>2026-03-24T07:32:20Z</time></trkpt><trkpt lat="42.92630588642261" lon="10.76405868048523"><ele>10.0</ele><time>2026-03-24T07:32:21Z</time></trkpt><trkpt lat="42.92652444996088" lon="10.763988630367079"><ele>10.0</ele><time>2026-03-24T07:32:22Z</time></trkpt><trkpt lat="42.92674194684875" lon="10.763919217448564"><ele>10.333333333333334</ele><time>2026-03-24T07:32:23Z</time></trkpt><trkpt lat="42.92693549374236" lon="10.763861888354352"><ele>10.666666666666666</ele><time>2026-03-24T07:32:24Z</time></trkpt><trkpt lat="42.92710047351437" lon="10.763838206796382"><ele>11.0</ele><time>2026-03-24T07:32:25Z</time></trkpt><trkpt lat="42.927250039749055" lon="10.76378194072369"><ele>11.0</ele><time>2026-03-24T07:32:26Z</time></trkpt><trkpt lat="42.92738108532309" lon="10.763732501755019"><ele>11.0</ele><time>2026-03-24T07:32:27Z</time></trkpt><trkpt lat="42.92753468694189" lon="10.763689185313135"><ele>11.0</ele><time>2026-03-24T07:32:28Z</time></trkpt><trkpt lat="42.927715345679815" lon="10.763652927354533"><ele>11.0</ele><time>2026-03-24T07:32:29Z</time></trkpt><trkpt lat="42.92791336131178" lon="10.763597156532752"><ele>11.0</ele><time>2026-03-24T07:32:30Z</time></trkpt><trkpt lat="42.92809410486051" lon="10.763534367270793"><ele>11.0</ele><time>2026-03-24T07:32:31Z</time></trkpt><trkpt lat="42.92826586800212" lon="10.763486776098027"><ele>10.5</ele><time>2026-03-24T07:32:32Z</time></trkpt><trkpt lat="42.92843160961062" lon="10.763437018142191"><ele>10.0</ele><time>2026-03-24T07:32:33Z</time></trkpt><trkpt lat="42.928569580802034" lon="10.76340189726073"><ele>9.5</ele><time>2026-03-24T07:32:34Z</time></trkpt><trkpt lat="42.92870018778893" lon="10.7634271920168"><ele>9.0</ele><time>2026-03-24T07:32:35Z</time></trkpt><trkpt lat="42.92882223414886" lon="10.763523959210177"><ele>9.25</ele><time>2026-03-24T07:32:36Z</time></trkpt><trkpt lat="42.92894820129355" lon="10.763620377289927"><ele>9.5</ele><time>2026-03-24T07:32:37Z</time></trkpt><trkpt lat="42.92908146778462" lon="10.76364188910103"><ele>9.75</ele><time>2026-03-24T07:32:38Z</time></trkpt><trkpt lat="42.92920520861959" lon="10.76357374538546"><ele>10.0</ele><time>2026-03-24T07:32:39Z</time></trkpt><trkpt lat="42.92930600740486" lon="10.763431254958627"><ele>10.333333333333334</ele><time>2026-03-24T07:32:40Z</time></trkpt><trkpt lat="42.929394871801705" lon="10.763258243889233"><ele>10.666666666666666</ele><time>2026-03-24T07:32:41Z</time></trkpt><trkpt lat="42.929506092584234" lon="10.763091464498546"><ele>11.0</ele><time>2026-03-24T07:32:42Z</time></trkpt><trkpt lat="42.92964090603777" lon="10.762993540215234"><ele>11.0</ele><time>2026-03-24T07:32:43Z</time></trkpt><trkpt lat="42.92983815504876" lon="10.76298695365765"><ele>11.0</ele><time>2026-03-24T07:32:44Z</time></trkpt><trkpt lat="42.93004242954412" lon="10.762944845415998"><ele>11.0</ele><time>2026-03-24T07:32:45Z</time></trkpt><trkpt lat="42.93026124939324" lon="10.762875004201764"><ele>11.5</ele><time>2026-03-24T07:32:46Z</time></trkpt><trkpt lat="42.930484186705606" lon="10.762804475059573"><ele>12.0</ele><time>2026-03-24T07:32:47Z</time></trkpt><trkpt lat="42.9307197787616" lon="10.762733808349115"><ele>12.5</ele><time>2026-03-24T07:32:48Z</time></trkpt><trkpt lat="42.93096366651913" lon="10.762644874765545"><ele>13.0</ele><time>2026-03-24T07:32:49Z</time></trkpt><trkpt lat="42.931221478008545" lon="10.762586452479034"><ele>13.0</ele><time>2026-03-24T07:32:50Z</time></trkpt><trkpt lat="42.93148286927569" lon="10.762511654517484"><ele>13.0</ele><time>2026-03-24T07:32:51Z</time></trkpt><trkpt lat="42.93173304023773" lon="10.762435809297127"><ele>14.0</ele><time>2026-03-24T07:32:52Z</time></trkpt><trkpt lat="42.931968470996246" lon="10.762363648097875"><ele>15.0</ele><time>2026-03-24T07:32:53Z</time></trkpt><trkpt lat="42.93219522340344" lon="10.762298289506228"><ele>15.0</ele><time>2026-03-24T07:32:54Z</time></trkpt><trkpt lat="42.932414352714225" lon="10.762242414161234"><ele>15.0</ele><time>2026-03-24T07:32:55Z</time></trkpt><trkpt lat="42.93261514575996" lon="10.762189643525135"><ele>15.0</ele><time>2026-03-24T07:32:56Z</time></trkpt><trkpt lat="42.93280042311553" lon="10.762140577347118"><ele>15.666666666666668</ele><time>2026-03-24T07:32:57Z</time></trkpt><trkpt lat="42.93297069580713" lon="10.762089384308364"><ele>16.333333333333336</ele><time>2026-03-24T07:32:58Z</time></trkpt><trkpt lat="42.93313076853563" lon="10.762042433140822"><ele>17.0</ele><time>2026-03-24T07:32:59Z</time></trkpt><trkpt lat="42.93326480730672" lon="10.762027717978082"><ele>17.25</ele><time>2026-03-24T07:33:00Z</time></trkpt><trkpt lat="42.93339427521088" lon="10.762073034330465"><ele>17.5</ele><time>2026-03-24T07:33:01Z</time></trkpt><trkpt lat="42.933506434073976" lon="10.762170875554961"><ele>17.75</ele><time>2026-03-24T07:33:02Z</time></trkpt><trkpt lat="42.933589007538274" lon="10.762308048561726"><ele>18.0</ele><time>2026-03-24T07:33:03Z</time></trkpt><trkpt lat="42.93363604530044" lon="10.7624631795502"><ele>18.0</ele><time>2026-03-24T07:33:04Z</time></trkpt><trkpt lat="42.93366942420938" lon="10.762630295862547"><ele>18.0</ele><time>2026-03-24T07:33:05Z</time></trkpt><trkpt lat="42.93372147286733" lon="10.762827804239414"><ele>18.0</ele><time>2026-03-24T07:33:06Z</time></trkpt><trkpt lat="42.933753385869025" lon="10.763078381372415"><ele>17.666666666666668</ele><time>2026-03-24T07:33:07Z</time></trkpt><trkpt lat="42.93381259925235" lon="10.763362500700435"><ele>17.333333333333336</ele><time>2026-03-24T07:33:08Z</time></trkpt><trkpt lat="42.93384922136011" lon="10.763669670590675"><ele>17.0</ele><time>2026-03-24T07:33:09Z</time></trkpt><trkpt lat="42.93388381897785" lon="10.763980999084296"><ele>17.0</ele><time>2026-03-24T07:33:10Z</time></trkpt><trkpt lat="42.933928813868825" lon="10.764301077385037"><ele>17.0</ele><time>2026-03-24T07:33:11Z</time></trkpt><trkpt lat="42.933979624069934" lon="10.76463915365599"><ele>18.0</ele><time>2026-03-24T07:33:12Z</time></trkpt><trkpt lat="42.93403101156504" lon="10.764982415492485"><ele>19.0</ele><time>2026-03-24T07:33:13Z</time></trkpt><trkpt lat="42.934081779689414" lon="10.765327206111314"><ele>19.5</ele><time>2026-03-24T07:33:14Z</time></trkpt><trkpt lat="42.934133971281284" lon="10.765676542901558"><ele>20.0</ele><time>2026-03-24T07:33:15Z</time></trkpt><trkpt lat="42.934190064347995" lon="10.766033994021145"><ele>21.0</ele><time>2026-03-24T07:33:16Z</time></trkpt><trkpt lat="42.93424817723007" lon="10.766397800227443"><ele>22.0</ele><time>2026-03-24T07:33:17Z</time></trkpt><trkpt lat="42.9343044807446" lon="10.766765279922442"><ele>22.0</ele><time>2026-03-24T07:33:18Z</time></trkpt><trkpt lat="42.93435897069567" lon="10.767137534030828"><ele>22.0</ele><time>2026-03-24T07:33:19Z</time></trkpt><trkpt lat="42.934417212728775" lon="10.76752371561648"><ele>22.0</ele><time>2026-03-24T07:33:20Z</time></trkpt><trkpt lat="42.934475400829434" lon="10.767905775120623"><ele>22.0</ele><time>2026-03-24T07:33:21Z</time></trkpt><trkpt lat="42.93453147685673" lon="10.76829249659314"><ele>22.5</ele><time>2026-03-24T07:33:22Z</time></trkpt><trkpt lat="42.93459147276141" lon="10.768690939136443"><ele>23.0</ele><time>2026-03-24T07:33:23Z</time></trkpt><trkpt lat="42.93465174210671" lon="10.76908533984475"><ele>24.5</ele><time>2026-03-24T07:33:24Z</time></trkpt><trkpt lat="42.934712782946576" lon="10.769468035153887"><ele>26.0</ele><time>2026-03-24T07:33:25Z</time></trkpt><trkpt lat="42.934770723813735" lon="10.769818664703099"><ele>26.0</ele><time>2026-03-24T07:33:26Z</time></trkpt><trkpt lat="42.934827758454524" lon="10.770163007043887"><ele>26.0</ele><time>2026-03-24T07:33:27Z</time></trkpt><trkpt lat="42.9348804341498" lon="10.77049771866081"><ele>25.0</ele><time>2026-03-24T07:33:28Z</time></trkpt><trkpt lat="42.93492624234326" lon="10.770812735223169"><ele>24.0</ele><time>2026-03-24T07:33:29Z</time></trkpt><trkpt lat="42.93496924517447" lon="10.771110363824425"><ele>23.666666666666668</ele><time>2026-03-24T07:33:30Z</time></trkpt><trkpt lat="42.93501178404617" lon="10.771389787559366"><ele>23.333333333333336</ele><time>2026-03-24T07:33:31Z</time></trkpt><trkpt lat="42.93505246341932" lon="10.771654462038317"><ele>23.0</ele><time>2026-03-24T07:33:32Z</time></trkpt><trkpt lat="42.93508932190741" lon="10.771909194143497"><ele>24.0</ele><time>2026-03-24T07:33:33Z</time></trkpt><trkpt lat="42.93512871462355" lon="10.772166848381529"><ele>25.0</ele><time>2026-03-24T07:33:34Z</time></trkpt><trkpt lat="42.9351652733927" lon="10.772410807921922"><ele>26.0</ele><time>2026-03-24T07:33:35Z</time></trkpt><trkpt lat="42.935203148047606" lon="10.77265806491655"><ele>25.333333333333332</ele><time>2026-03-24T07:33:36Z</time></trkpt><trkpt lat="42.93523743292042" lon="10.772866693552864"><ele>24.666666666666664</ele><time>2026-03-24T07:33:37Z</time></trkpt><trkpt lat="42.935269048000094" lon="10.773084897931234"><ele>24.0</ele><time>2026-03-24T07:33:38Z</time></trkpt><trkpt lat="42.935298283748516" lon="10.773279981527043"><ele>24.0</ele><time>2026-03-24T07:33:39Z</time></trkpt><trkpt lat="42.935324804878725" lon="10.773468489746325"><ele>24.0</ele><time>2026-03-24T07:33:40Z</time></trkpt><trkpt lat="42.935354068837036" lon="10.773663215332856"><ele>24.0</ele><time>2026-03-24T07:33:41Z</time></trkpt><trkpt lat="42.935383270111856" lon="10.773862229129819"><ele>24.0</ele><time>2026-03-24T07:33:42Z</time></trkpt><trkpt lat="42.93540619559955" lon="10.774044044091376"><ele>23.75</ele><time>2026-03-24T07:33:43Z</time></trkpt><trkpt lat="42.935429064639514" lon="10.774222592029162"><ele>23.5</ele><time>2026-03-24T07:33:44Z</time></trkpt><trkpt lat="42.93545317313534" lon="10.77438520059237"><ele>23.25</ele><time>2026-03-24T07:33:45Z</time></trkpt><trkpt lat="42.93547769075239" lon="10.774536034503807"><ele>23.0</ele><time>2026-03-24T07:33:46Z</time></trkpt><trkpt lat="42.93549973409262" lon="10.774694468504885"><ele>23.799999999999997</ele><time>2026-03-24T07:33:47Z</time></trkpt><trkpt lat="42.93549934715503" lon="10.77484470889899"><ele>24.6</ele><time>2026-03-24T07:33:48Z</time></trkpt><trkpt lat="42.93546931276504" lon="10.774961633546031"><ele>25.400000000000002</ele><time>2026-03-24T07:33:49Z</time></trkpt><trkpt lat="42.93543389666807" lon="10.775066772661496"><ele>26.200000000000003</ele><time>2026-03-24T07:33:50Z</time></trkpt><trkpt lat="42.93538531666343" lon="10.775136463611478"><ele>27.0</ele><time>2026-03-24T07:33:51Z</time></trkpt><trkpt lat="42.9353022818967" lon="10.775068171998923"><ele>26.5</ele><time>2026-03-24T07:33:52Z</time></trkpt><trkpt lat="42.93537588602794" lon="10.775217325180142"><ele>26.0</ele><time>2026-03-24T07:33:53Z</time></trkpt><trkpt lat="42.93539730253602" lon="10.775321376708488"><ele>25.5</ele><time>2026-03-24T07:34:22Z</time></trkpt><trkpt lat="42.93540243404427" lon="10.775426879348688"><ele>25.0</ele><time>2026-03-24T07:34:24Z</time></trkpt><trkpt lat="42.935199953386714" lon="10.775500573002772"><ele>25.0</ele><time>2026-03-24T07:34:25Z</time></trkpt><trkpt lat="42.93511259537786" lon="10.775446521201813"><ele>25.0</ele><time>2026-03-24T07:34:26Z</time></trkpt><trkpt lat="42.93505731687277" lon="10.77537002299434"><ele>25.0</ele><time>2026-03-24T07:34:27Z</time></trkpt><trkpt lat="42.93483515783916" lon="10.77539946153108"><ele>25.0</ele><time>2026-03-24T07:34:29Z</time></trkpt><trkpt lat="42.934776259386766" lon="10.77547724488463"><ele>25.2</ele><time>2026-03-24T07:34:31Z</time></trkpt><trkpt lat="42.9347301074723" lon="10.775538194713452"><ele>25.4</ele><time>2026-03-24T07:34:33Z</time></trkpt><trkpt lat="42.93468955981061" lon="10.775616303338932"><ele>25.6</ele><time>2026-03-24T07:34:57Z</time></trkpt><trkpt lat="42.93477929620156" lon="10.775734747230874"><ele>25.8</ele><time>2026-03-24T07:34:59Z</time></trkpt><trkpt lat="42.93483763035623" lon="10.775807257114113"><ele>26.0</ele><time>2026-03-24T07:35:00Z</time></trkpt><trkpt lat="42.93494272460429" lon="10.775899465243816"><ele>26.0</ele><time>2026-03-24T07:35:01Z</time></trkpt><trkpt lat="42.93504699935989" lon="10.775994495546277"><ele>26.0</ele><time>2026-03-24T07:35:02Z</time></trkpt><trkpt lat="42.93515104782098" lon="10.776106333498058"><ele>26.0</ele><time>2026-03-24T07:35:03Z</time></trkpt><trkpt lat="42.93528038929965" lon="10.776236629290135"><ele>26.0</ele><time>2026-03-24T07:35:04Z</time></trkpt><trkpt lat="42.935395904012026" lon="10.776354341396283"><ele>26.0</ele><time>2026-03-24T07:35:05Z</time></trkpt><trkpt lat="42.935486212516935" lon="10.776446309885552"><ele>26.0</ele><time>2026-03-24T07:35:06Z</time></trkpt><trkpt lat="42.93556295585675" lon="10.776527138249808"><ele>26.0</ele><time>2026-03-24T07:35:07Z</time></trkpt><trkpt lat="42.935660647597715" lon="10.776563663056729"><ele>26.0</ele><time>2026-03-24T07:35:08Z</time></trkpt><trkpt lat="42.935739486327876" lon="10.77659659550433"><ele>26.0</ele><time>2026-03-24T07:35:09Z</time></trkpt><trkpt lat="42.9358097461905" lon="10.77659495858646"><ele>26.0</ele><time>2026-03-24T07:35:10Z</time></trkpt><trkpt lat="42.9358567046869" lon="10.776825188305452"><ele>26.0</ele><time>2026-03-24T07:35:11Z</time></trkpt><trkpt lat="42.93591464484316" lon="10.77699319187508"><ele>26.0</ele><time>2026-03-24T07:35:12Z</time></trkpt><trkpt lat="42.93600919091512" lon="10.77708643423022"><ele>26.0</ele><time>2026-03-24T07:35:13Z</time></trkpt><trkpt lat="42.936100960776656" lon="10.777171562854543"><ele>26.0</ele><time>2026-03-24T07:35:14Z</time></trkpt><trkpt lat="42.935996451683984" lon="10.777480187751232"><ele>26.0</ele><time>2026-03-24T07:35:15Z</time></trkpt><trkpt lat="42.935995247121774" lon="10.77764309910433"><ele>26.0</ele><time>2026-03-24T07:35:16Z</time></trkpt><trkpt lat="42.93601196665915" lon="10.777789424392298"><ele>26.166666666666664</ele><time>2026-03-24T07:35:17Z</time></trkpt><trkpt lat="42.93600294632133" lon="10.777935639970607"><ele>26.333333333333332</ele><time>2026-03-24T07:35:18Z</time></trkpt><trkpt lat="42.93601122278699" lon="10.778065443125147"><ele>26.5</ele><time>2026-03-24T07:35:19Z</time></trkpt><trkpt lat="42.93602272268914" lon="10.778178811237451"><ele>26.666666666666664</ele><time>2026-03-24T07:35:20Z</time></trkpt><trkpt lat="42.93603860378745" lon="10.778267925608867"><ele>26.833333333333332</ele><time>2026-03-24T07:35:21Z</time></trkpt><trkpt lat="42.936058652246686" lon="10.778360397008798"><ele>27.0</ele><time>2026-03-24T07:35:23Z</time></trkpt><trkpt lat="42.93610830321587" lon="10.778435076884781"><ele>27.0</ele><time>2026-03-24T07:35:27Z</time></trkpt><trkpt lat="42.936174551214" lon="10.77836321028262"><ele>27.000000000000004</ele><time>2026-03-24T07:35:29Z</time></trkpt><trkpt lat="42.936240946626185" lon="10.778284523451"><ele>27.000000000000004</ele><time>2026-03-24T07:35:31Z</time></trkpt><trkpt lat="42.93615678785096" lon="10.778144242439684"><ele>27.0</ele><time>2026-03-24T07:35:33Z</time></trkpt><trkpt lat="42.936172071867546" lon="10.778045320828065"><ele>27.0</ele><time>2026-03-24T07:35:35Z</time></trkpt><trkpt lat="42.93627001419542" lon="10.778076813972548"><ele>27.0</ele><time>2026-03-24T07:38:21Z</time></trkpt><trkpt lat="42.93629234600537" lon="10.777995253717851"><ele>27.000000000000004</ele><time>2026-03-24T07:38:29Z</time></trkpt><trkpt lat="42.93622995048069" lon="10.778049680393888"><ele>27.000000000000004</ele><time>2026-03-24T07:39:02Z</time></trkpt><trkpt lat="42.936220299485846" lon="10.777947080981921"><ele>27.0</ele><time>2026-03-24T07:40:22Z</time></trkpt><trkpt lat="42.93617527480093" lon="10.77781682560171"><ele>27.0</ele><time>2026-03-24T07:41:26Z</time></trkpt><trkpt lat="42.936300651371944" lon="10.77774855147716"><ele>27.0</ele><time>2026-03-24T07:41:28Z</time></trkpt><trkpt lat="42.936394808462126" lon="10.77772368968271"><ele>27.000000000000004</ele><time>2026-03-24T07:41:29Z</time></trkpt><trkpt lat="42.936472927704614" lon="10.777699859516224"><ele>27.000000000000004</ele><time>2026-03-24T07:41:30Z</time></trkpt><trkpt lat="42.936572964959105" lon="10.777660550780151"><ele>27.0</ele><time>2026-03-24T07:41:32Z</time></trkpt><trkpt lat="42.93665852566297" lon="10.777674963219544"><ele>27.0</ele><time>2026-03-24T07:41:34Z</time></trkpt><trkpt lat="42.9367446337101" lon="10.777674963220699"><ele>26.8</ele><time>2026-03-24T07:41:36Z</time></trkpt><trkpt lat="42.93680568928914" lon="10.777644126325137"><ele>26.6</ele><time>2026-03-24T07:41:37Z</time></trkpt><trkpt lat="42.93687801594028" lon="10.777709667299012"><ele>26.400000000000002</ele><time>2026-03-24T07:41:38Z</time></trkpt><trkpt lat="42.93696309582935" lon="10.777819703532062"><ele>26.200000000000003</ele><time>2026-03-24T07:41:39Z</time></trkpt><trkpt lat="42.93705607706493" lon="10.77795804779034"><ele>26.0</ele><time>2026-03-24T07:41:40Z</time></trkpt><trkpt lat="42.93717096867044" lon="10.778112133001738"><ele>26.0</ele><time>2026-03-24T07:41:40.999Z</time></trkpt><trkpt lat="42.937291971663456" lon="10.778268327725574"><ele>26.0</ele><time>2026-03-24T07:41:41.999Z</time></trkpt><trkpt lat="42.937433774463685" lon="10.778451208688223"><ele>26.0</ele><time>2026-03-24T07:41:42.999Z</time></trkpt><trkpt lat="42.93757771830261" lon="10.778635637184363"><ele>26.333333333333332</ele><time>2026-03-24T07:41:43.999Z</time></trkpt><trkpt lat="42.937730634372855" lon="10.778817225352071"><ele>26.666666666666664</ele><time>2026-03-24T07:41:44.999Z</time></trkpt><trkpt lat="42.93788644631911" lon="10.778986789473773"><ele>27.0</ele><time>2026-03-24T07:41:45.999Z</time></trkpt><trkpt lat="42.938056801308235" lon="10.7791416629366"><ele>27.0</ele><time>2026-03-24T07:41:46.999Z</time></trkpt><trkpt lat="42.93824022142274" lon="10.779285379530695"><ele>27.0</ele><time>2026-03-24T07:41:47.999Z</time></trkpt><trkpt lat="42.93843251792669" lon="10.779424113211341"><ele>27.0</ele><time>2026-03-24T07:41:48.999Z</time></trkpt><trkpt lat="42.938632576283375" lon="10.779553981401627"><ele>28.0</ele><time>2026-03-24T07:41:49.999Z</time></trkpt><trkpt lat="42.93883784760089" lon="10.779668999629088"><ele>29.0</ele><time>2026-03-24T07:41:50.999Z</time></trkpt><trkpt lat="42.93905621829704" lon="10.779766374615793"><ele>29.5</ele><time>2026-03-24T07:41:51.999Z</time></trkpt><trkpt lat="42.939285692365054" lon="10.779846478558662"><ele>30.0</ele><time>2026-03-24T07:41:52.999Z</time></trkpt><trkpt lat="42.93952460172597" lon="10.779911741989272"><ele>30.0</ele><time>2026-03-24T07:41:53.999Z</time></trkpt><trkpt lat="42.939776422696" lon="10.779958136427584"><ele>30.0</ele><time>2026-03-24T07:41:54.999Z</time></trkpt><trkpt lat="42.94003332570978" lon="10.7799845060538"><ele>30.0</ele><time>2026-03-24T07:41:55.999Z</time></trkpt><trkpt lat="42.94030074964168" lon="10.779988990329775"><ele>30.0</ele><time>2026-03-24T07:41:56.999Z</time></trkpt><trkpt lat="42.94057498601581" lon="10.779979740049834"><ele>30.0</ele><time>2026-03-24T07:41:57.999Z</time></trkpt><trkpt lat="42.94084847498935" lon="10.779964087005062"><ele>30.0</ele><time>2026-03-24T07:41:58.999Z</time></trkpt><trkpt lat="42.941125536464085" lon="10.7799480478996"><ele>29.0</ele><time>2026-03-24T07:41:59.999Z</time></trkpt><trkpt lat="42.94140413704801" lon="10.779931753419788"><ele>28.0</ele><time>2026-03-24T07:42:00.999Z</time></trkpt><trkpt lat="42.941688091370956" lon="10.77991250164771"><ele>29.0</ele><time>2026-03-24T07:42:01.999Z</time></trkpt><trkpt lat="42.94197737307497" lon="10.779890868772084"><ele>30.0</ele><time>2026-03-24T07:42:02.999Z</time></trkpt><trkpt lat="42.94227050448506" lon="10.779866861681867"><ele>29.5</ele><time>2026-03-24T07:42:03.999Z</time></trkpt><trkpt lat="42.942562194185726" lon="10.779842713656935"><ele>29.0</ele><time>2026-03-24T07:42:04.999Z</time></trkpt><trkpt lat="42.942854943016144" lon="10.779825676243245"><ele>29.0</ele><time>2026-03-24T07:42:05.999Z</time></trkpt><trkpt lat="42.94314687027484" lon="10.779814969049268"><ele>29.0</ele><time>2026-03-24T07:42:06.999Z</time></trkpt><trkpt lat="42.94343360673937" lon="10.779818313362965"><ele>29.0</ele><time>2026-03-24T07:42:07.999Z</time></trkpt><trkpt lat="42.94372321887272" lon="10.779859303270966"><ele>29.0</ele><time>2026-03-24T07:42:08.999Z</time></trkpt><trkpt lat="42.94401598192152" lon="10.779935495723585"><ele>29.5</ele><time>2026-03-24T07:42:09.999Z</time></trkpt><trkpt lat="42.94430975105338" lon="10.780030834759"><ele>30.0</ele><time>2026-03-24T07:42:10.999Z</time></trkpt><trkpt lat="42.944598661670035" lon="10.780089087661791"><ele>30.0</ele><time>2026-03-24T07:42:11.999Z</time></trkpt><trkpt lat="42.94489684875328" lon="10.780151383807626"><ele>30.0</ele><time>2026-03-24T07:42:12.999Z</time></trkpt><trkpt lat="42.94519108820119" lon="10.780218980213212"><ele>30.0</ele><time>2026-03-24T07:42:13.999Z</time></trkpt><trkpt lat="42.94548703911149" lon="10.78028692216814"><ele>30.0</ele><time>2026-03-24T07:42:14.999Z</time></trkpt><trkpt lat="42.945774954661495" lon="10.78034966233316"><ele>30.5</ele><time>2026-03-24T07:42:15.999Z</time></trkpt><trkpt lat="42.94605065580561" lon="10.78040631958263"><ele>31.0</ele><time>2026-03-24T07:42:16.999Z</time></trkpt><trkpt lat="42.94631860960128" lon="10.780465309463262"><ele>31.0</ele><time>2026-03-24T07:42:17.999Z</time></trkpt><trkpt lat="42.94658264084284" lon="10.780524088700892"><ele>31.0</ele><time>2026-03-24T07:42:18.999Z</time></trkpt><trkpt lat="42.946838642131446" lon="10.780584473491745"><ele>30.5</ele><time>2026-03-24T07:42:19.999Z</time></trkpt><trkpt lat="42.94707952778836" lon="10.780642133279677"><ele>30.0</ele><time>2026-03-24T07:42:20.999Z</time></trkpt><trkpt lat="42.94730171148678" lon="10.780694214932337"><ele>30.0</ele><time>2026-03-24T07:42:21.999Z</time></trkpt><trkpt lat="42.94751480121728" lon="10.780738850789117"><ele>30.0</ele><time>2026-03-24T07:42:22.999Z</time></trkpt><trkpt lat="42.94774118679164" lon="10.780778573834656"><ele>30.0</ele><time>2026-03-24T07:42:23.999Z</time></trkpt><trkpt lat="42.94798391855876" lon="10.780832948251364"><ele>30.5</ele><time>2026-03-24T07:42:24.999Z</time></trkpt><trkpt lat="42.9482293319159" lon="10.780945217713537"><ele>31.0</ele><time>2026-03-24T07:42:25.999Z</time></trkpt><trkpt lat="42.948470370121136" lon="10.781064188560565"><ele>31.666666666666668</ele><time>2026-03-24T07:42:26.999Z</time></trkpt><trkpt lat="42.948686131580494" lon="10.781183370312522"><ele>32.333333333333336</ele><time>2026-03-24T07:42:27.999Z</time></trkpt><trkpt lat="42.94885977642219" lon="10.781346851108344"><ele>33.0</ele><time>2026-03-24T07:42:28.999Z</time></trkpt><trkpt lat="42.94903392792659" lon="10.781440414256245"><ele>33.0</ele><time>2026-03-24T07:42:29.999Z</time></trkpt><trkpt lat="42.94917447731614" lon="10.781706296310649"><ele>33.0</ele><time>2026-03-24T07:42:30.999Z</time></trkpt><trkpt lat="42.949336819945984" lon="10.781933278994343"><ele>32.0</ele><time>2026-03-24T07:42:31.999Z</time></trkpt><trkpt lat="42.94947725287649" lon="10.782213595843654"><ele>31.0</ele><time>2026-03-24T07:42:32.999Z</time></trkpt><trkpt lat="42.949598953558315" lon="10.782520358740843"><ele>29.5</ele><time>2026-03-24T07:42:33.999Z</time></trkpt><trkpt lat="42.94969540224321" lon="10.782851953175058"><ele>28.0</ele><time>2026-03-24T07:42:34.999Z</time></trkpt><trkpt lat="42.94977522461936" lon="10.783188031215266"><ele>28.0</ele><time>2026-03-24T07:42:35.999Z</time></trkpt><trkpt lat="42.94985595054428" lon="10.783512145532722"><ele>28.0</ele><time>2026-03-24T07:42:36.999Z</time></trkpt><trkpt lat="42.94994507061142" lon="10.783835786754908"><ele>28.5</ele><time>2026-03-24T07:42:37.999Z</time></trkpt><trkpt lat="42.950037673169305" lon="10.784177826348374"><ele>29.0</ele><time>2026-03-24T07:42:38.999Z</time></trkpt><trkpt lat="42.95013057712178" lon="10.784522138693545"><ele>27.5</ele><time>2026-03-24T07:42:39.999Z</time></trkpt><trkpt lat="42.95023289144914" lon="10.78487242110387"><ele>26.0</ele><time>2026-03-24T07:42:40.999Z</time></trkpt><trkpt lat="42.950332833391435" lon="10.785232918866178"><ele>26.0</ele><time>2026-03-24T07:42:41.999Z</time></trkpt><trkpt lat="42.95042001938184" lon="10.785596114213211"><ele>26.0</ele><time>2026-03-24T07:42:42.999Z</time></trkpt><trkpt lat="42.95050861226183" lon="10.785988737489681"><ele>25.5</ele><time>2026-03-24T07:42:43.999Z</time></trkpt><trkpt lat="42.95059796623235" lon="10.786373314139965"><ele>25.0</ele><time>2026-03-24T07:42:44.999Z</time></trkpt><trkpt lat="42.95068771208612" lon="10.786743463879812"><ele>25.0</ele><time>2026-03-24T07:42:45.999Z</time></trkpt><trkpt lat="42.95078446495063" lon="10.78711875010072"><ele>25.0</ele><time>2026-03-24T07:42:46.999Z</time></trkpt><trkpt lat="42.950890997481665" lon="10.787490522387285"><ele>24.0</ele><time>2026-03-24T07:42:47.999Z</time></trkpt><trkpt lat="42.9510192493" lon="10.787859440200199"><ele>23.0</ele><time>2026-03-24T07:42:48.999Z</time></trkpt><trkpt lat="42.951169949292584" lon="10.788217170063353"><ele>24.0</ele><time>2026-03-24T07:42:49.999Z</time></trkpt><trkpt lat="42.95134103127025" lon="10.788557041373963"><ele>25.0</ele><time>2026-03-24T07:42:50.999Z</time></trkpt><trkpt lat="42.95153567477866" lon="10.788876387656217"><ele>26.0</ele><time>2026-03-24T07:42:51.999Z</time></trkpt><trkpt lat="42.95174992305398" lon="10.789172392869485"><ele>27.0</ele><time>2026-03-24T07:42:52.999Z</time></trkpt><trkpt lat="42.95198705140532" lon="10.789444705384787"><ele>27.0</ele><time>2026-03-24T07:42:53.999Z</time></trkpt><trkpt lat="42.95223053216785" lon="10.789699982099036"><ele>27.0</ele><time>2026-03-24T07:42:54.999Z</time></trkpt><trkpt lat="42.952487104379216" lon="10.789939079910539"><ele>27.0</ele><time>2026-03-24T07:42:55.999Z</time></trkpt><trkpt lat="42.95275268724579" lon="10.79017183827767"><ele>27.0</ele><time>2026-03-24T07:42:56.999Z</time></trkpt><trkpt lat="42.953004590854476" lon="10.790410351006633"><ele>27.0</ele><time>2026-03-24T07:42:57.999Z</time></trkpt><trkpt lat="42.95324317247598" lon="10.79062791807893"><ele>27.0</ele><time>2026-03-24T07:42:58.999Z</time></trkpt><trkpt lat="42.953463579468284" lon="10.790833927526393"><ele>26.0</ele><time>2026-03-24T07:42:59.999Z</time></trkpt><trkpt lat="42.95366778668598" lon="10.791027807935215"><ele>25.0</ele><time>2026-03-24T07:43:00.999Z</time></trkpt><trkpt lat="42.95386306222369" lon="10.791217781974067"><ele>25.0</ele><time>2026-03-24T07:43:01.999Z</time></trkpt><trkpt lat="42.954042778745716" lon="10.791389012711441"><ele>25.0</ele><time>2026-03-24T07:43:02.999Z</time></trkpt><trkpt lat="42.954202539742504" lon="10.791536317225198"><ele>25.0</ele><time>2026-03-24T07:43:04Z</time></trkpt><trkpt lat="42.954334493551706" lon="10.791658506045756"><ele>25.8</ele><time>2026-03-24T07:43:05Z</time></trkpt><trkpt lat="42.9544537929348" lon="10.791769786500065"><ele>26.6</ele><time>2026-03-24T07:43:06Z</time></trkpt><trkpt lat="42.954558811392594" lon="10.791864177119757"><ele>27.4</ele><time>2026-03-24T07:43:07Z</time></trkpt><trkpt lat="42.954636764962665" lon="10.791937115935369"><ele>28.2</ele><time>2026-03-24T07:43:08Z</time></trkpt><trkpt lat="42.954704069751216" lon="10.792001282528505"><ele>29.0</ele><time>2026-03-24T07:43:09Z</time></trkpt><trkpt lat="42.954784450683874" lon="10.792074928285752"><ele>29.0</ele><time>2026-03-24T07:43:10Z</time></trkpt><trkpt lat="42.954896325250836" lon="10.79217548790529"><ele>29.0</ele><time>2026-03-24T07:43:11Z</time></trkpt><trkpt lat="42.95502736715109" lon="10.792283571941109"><ele>29.0</ele><time>2026-03-24T07:43:12Z</time></trkpt><trkpt lat="42.955189560567234" lon="10.792430555818765"><ele>30.0</ele><time>2026-03-24T07:43:13Z</time></trkpt><trkpt lat="42.95536212908886" lon="10.792586713083052"><ele>31.0</ele><time>2026-03-24T07:43:14Z</time></trkpt><trkpt lat="42.95554386095454" lon="10.792747601253708"><ele>32.0</ele><time>2026-03-24T07:43:15Z</time></trkpt><trkpt lat="42.95570538608035" lon="10.7929049546184"><ele>32.5</ele><time>2026-03-24T07:43:16Z</time></trkpt><trkpt lat="42.95589315446644" lon="10.79307492675736"><ele>33.0</ele><time>2026-03-24T07:43:17Z</time></trkpt><trkpt lat="42.95608296068452" lon="10.793249092247944"><ele>33.0</ele><time>2026-03-24T07:43:18Z</time></trkpt><trkpt lat="42.956280555540665" lon="10.793429318376493"><ele>33.0</ele><time>2026-03-24T07:43:19Z</time></trkpt><trkpt lat="42.95648349097363" lon="10.79361378178286"><ele>32.5</ele><time>2026-03-24T07:43:20Z</time></trkpt><trkpt lat="42.95668586638401" lon="10.79380302348749"><ele>32.0</ele><time>2026-03-24T07:43:21Z</time></trkpt><trkpt lat="42.95690312196325" lon="10.794013415785772"><ele>32.0</ele><time>2026-03-24T07:43:22Z</time></trkpt><trkpt lat="42.95712859197928" lon="10.794226079776562"><ele>32.0</ele><time>2026-03-24T07:43:23Z</time></trkpt><trkpt lat="42.95736034443155" lon="10.794445702929998"><ele>32.0</ele><time>2026-03-24T07:43:24Z</time></trkpt><trkpt lat="42.957608305345744" lon="10.794681602740514"><ele>32.0</ele><time>2026-03-24T07:43:25Z</time></trkpt><trkpt lat="42.957885683092385" lon="10.794941569876093"><ele>31.0</ele><time>2026-03-24T07:43:26Z</time></trkpt><trkpt lat="42.958168094510214" lon="10.795207084944515"><ele>30.0</ele><time>2026-03-24T07:43:27Z</time></trkpt><trkpt lat="42.95832544420305" lon="10.795347044623076"><ele>30.5</ele><time>2026-03-24T07:43:28Z</time></trkpt><trkpt lat="42.958569752103244" lon="10.795570042789334"><ele>31.0</ele><time>2026-03-24T07:43:29Z</time></trkpt><trkpt lat="42.958814881228754" lon="10.795795123432638"><ele>30.0</ele><time>2026-03-24T07:43:30Z</time></trkpt><trkpt lat="42.95906634781411" lon="10.79603054866329"><ele>29.0</ele><time>2026-03-24T07:43:31Z</time></trkpt><trkpt lat="42.95931174226406" lon="10.796268926228533"><ele>28.5</ele><time>2026-03-24T07:43:32Z</time></trkpt><trkpt lat="42.95956898631981" lon="10.796488933681802"><ele>28.0</ele><time>2026-03-24T07:43:33Z</time></trkpt><trkpt lat="42.95982846559836" lon="10.796725997614939"><ele>26.0</ele><time>2026-03-24T07:43:34Z</time></trkpt><trkpt lat="42.96008947655146" lon="10.796970103892798"><ele>24.0</ele><time>2026-03-24T07:43:35Z</time></trkpt><trkpt lat="42.96035596169537" lon="10.79721461419047"><ele>24.0</ele><time>2026-03-24T07:43:36Z</time></trkpt><trkpt lat="42.960625459795054" lon="10.797464650839975"><ele>24.0</ele><time>2026-03-24T07:43:37Z</time></trkpt><trkpt lat="42.960893202643184" lon="10.797713221682697"><ele>23.0</ele><time>2026-03-24T07:43:38Z</time></trkpt><trkpt lat="42.96116535180974" lon="10.79797159510882"><ele>22.0</ele><time>2026-03-24T07:43:39Z</time></trkpt><trkpt lat="42.96143098805847" lon="10.798219451380655"><ele>22.0</ele><time>2026-03-24T07:43:40Z</time></trkpt><trkpt lat="42.96169998329117" lon="10.798467599444082"><ele>22.0</ele><time>2026-03-24T07:43:41Z</time></trkpt><trkpt lat="42.96196846552363" lon="10.79871136588888"><ele>21.0</ele><time>2026-03-24T07:43:42Z</time></trkpt><trkpt lat="42.96224235008867" lon="10.798953547505954"><ele>20.0</ele><time>2026-03-24T07:43:43Z</time></trkpt><trkpt lat="42.96251441160175" lon="10.799187695163623"><ele>20.5</ele><time>2026-03-24T07:43:44Z</time></trkpt><trkpt lat="42.96278680283883" lon="10.799432636983564"><ele>21.0</ele><time>2026-03-24T07:43:45Z</time></trkpt><trkpt lat="42.96305220927013" lon="10.799678744030413"><ele>21.0</ele><time>2026-03-24T07:43:46Z</time></trkpt><trkpt lat="42.96332068677799" lon="10.79991737342513"><ele>21.0</ele><time>2026-03-24T07:43:47Z</time></trkpt><trkpt lat="42.963587722432166" lon="10.800158484538148"><ele>21.0</ele><time>2026-03-24T07:43:48Z</time></trkpt><trkpt lat="42.9638554449303" lon="10.800396343876463"><ele>21.0</ele><time>2026-03-24T07:43:49Z</time></trkpt><trkpt lat="42.964113747374" lon="10.800629264632505"><ele>21.0</ele><time>2026-03-24T07:43:50Z</time></trkpt><trkpt lat="42.9643789604563" lon="10.800866909240424"><ele>21.0</ele><time>2026-03-24T07:43:51Z</time></trkpt><trkpt lat="42.96464424566196" lon="10.801104170632023"><ele>21.0</ele><time>2026-03-24T07:43:52Z</time></trkpt><trkpt lat="42.96490550692645" lon="10.801346340279965"><ele>21.0</ele><time>2026-03-24T07:43:53Z</time></trkpt><trkpt lat="42.965164958237395" lon="10.801592461540931"><ele>21.0</ele><time>2026-03-24T07:43:54Z</time></trkpt><trkpt lat="42.96542900317326" lon="10.801836577292722"><ele>21.0</ele><time>2026-03-24T07:43:55Z</time></trkpt><trkpt lat="42.965693534278365" lon="10.802076786550568"><ele>21.0</ele><time>2026-03-24T07:43:56Z</time></trkpt><trkpt lat="42.96595611885321" lon="10.802313330874927"><ele>21.0</ele><time>2026-03-24T07:43:57Z</time></trkpt><trkpt lat="42.96621739072746" lon="10.802549569623181"><ele>21.0</ele><time>2026-03-24T07:43:58Z</time></trkpt><trkpt lat="42.966482537136585" lon="10.802785836860926"><ele>21.0</ele><time>2026-03-24T07:43:59Z</time></trkpt><trkpt lat="42.96674556319183" lon="10.80301674731939"><ele>21.5</ele><time>2026-03-24T07:44:00Z</time></trkpt><trkpt lat="42.96699310599935" lon="10.803247659851774"><ele>22.0</ele><time>2026-03-24T07:44:01Z</time></trkpt><trkpt lat="42.96722688096338" lon="10.80343887514099"><ele>22.0</ele><time>2026-03-24T07:44:02Z</time></trkpt><trkpt lat="42.967464040929315" lon="10.803642099719001"><ele>22.0</ele><time>2026-03-24T07:44:03Z</time></trkpt><trkpt lat="42.96771478641847" lon="10.80381992070345"><ele>22.0</ele><time>2026-03-24T07:44:04Z</time></trkpt><trkpt lat="42.967951759621734" lon="10.803947181763665"><ele>22.0</ele><time>2026-03-24T07:44:05Z</time></trkpt><trkpt lat="42.96817027949988" lon="10.804045705390333"><ele>22.666666666666664</ele><time>2026-03-24T07:44:06Z</time></trkpt><trkpt lat="42.968366690567166" lon="10.804125373874687"><ele>23.333333333333332</ele><time>2026-03-24T07:44:07Z</time></trkpt><trkpt lat="42.96855000833387" lon="10.804187147861212"><ele>24.0</ele><time>2026-03-24T07:44:08Z</time></trkpt><trkpt lat="42.96871426052929" lon="10.804246727859931"><ele>24.25</ele><time>2026-03-24T07:44:09Z</time></trkpt><trkpt lat="42.968852200745076" lon="10.80433441456663"><ele>24.5</ele><time>2026-03-24T07:44:10Z</time></trkpt><trkpt lat="42.9689521591535" lon="10.804462345828277"><ele>24.75</ele><time>2026-03-24T07:44:11Z</time></trkpt><trkpt lat="42.969042690649616" lon="10.804564149108215"><ele>25.0</ele><time>2026-03-24T07:44:12Z</time></trkpt><trkpt lat="42.96914243776986" lon="10.804580713766267"><ele>25.0</ele><time>2026-03-24T07:44:13Z</time></trkpt><trkpt lat="42.96922962089342" lon="10.804509140044242"><ele>25.0</ele><time>2026-03-24T07:44:14Z</time></trkpt><trkpt lat="42.96928525733311" lon="10.804386766481448"><ele>25.0</ele><time>2026-03-24T07:44:15Z</time></trkpt><trkpt lat="42.96931558318248" lon="10.80426657021991"><ele>25.0</ele><time>2026-03-24T07:44:16Z</time></trkpt><trkpt lat="42.96938646092216" lon="10.804160595441369"><ele>25.0</ele><time>2026-03-24T07:44:17Z</time></trkpt><trkpt lat="42.96949369208456" lon="10.80404386256723"><ele>25.0</ele><time>2026-03-24T07:44:18Z</time></trkpt><trkpt lat="42.96961012173259" lon="10.804073226208597"><ele>25.0</ele><time>2026-03-24T07:44:19Z</time></trkpt><trkpt lat="42.9697325082335" lon="10.804155899085085"><ele>25.0</ele><time>2026-03-24T07:44:20Z</time></trkpt><trkpt lat="42.96987070836473" lon="10.804288188166435"><ele>25.0</ele><time>2026-03-24T07:44:21Z</time></trkpt><trkpt lat="42.970015471188724" lon="10.804455020021873"><ele>24.666666666666668</ele><time>2026-03-24T07:44:22Z</time></trkpt><trkpt lat="42.97017996370453" lon="10.80461082841038"><ele>24.333333333333336</ele><time>2026-03-24T07:44:23Z</time></trkpt><trkpt lat="42.970387417221716" lon="10.804688426227157"><ele>24.0</ele><time>2026-03-24T07:44:24Z</time></trkpt><trkpt lat="42.97060279573261" lon="10.804679246565943"><ele>24.0</ele><time>2026-03-24T07:44:25Z</time></trkpt><trkpt lat="42.970838202452875" lon="10.80463380925229"><ele>24.0</ele><time>2026-03-24T07:44:26Z</time></trkpt><trkpt lat="42.97109040587287" lon="10.804584952513222"><ele>24.5</ele><time>2026-03-24T07:44:27Z</time></trkpt><trkpt lat="42.971383346395825" lon="10.804544481228737"><ele>25.0</ele><time>2026-03-24T07:44:28Z</time></trkpt><trkpt lat="42.97161621268641" lon="10.804500447694158"><ele>25.5</ele><time>2026-03-24T07:44:29Z</time></trkpt><trkpt lat="42.97187876509626" lon="10.804462497461884"><ele>26.0</ele><time>2026-03-24T07:44:30Z</time></trkpt><trkpt lat="42.97215318723563" lon="10.804423839746246"><ele>26.0</ele><time>2026-03-24T07:44:31Z</time></trkpt><trkpt lat="42.972432438839625" lon="10.804381201373602"><ele>26.0</ele><time>2026-03-24T07:44:32Z</time></trkpt><trkpt lat="42.97271771277852" lon="10.804337162129928"><ele>26.0</ele><time>2026-03-24T07:44:33Z</time></trkpt><trkpt lat="42.973002370617905" lon="10.804298886022"><ele>26.0</ele><time>2026-03-24T07:44:34Z</time></trkpt><trkpt lat="42.973292212048975" lon="10.804267027686077"><ele>26.5</ele><time>2026-03-24T07:44:35Z</time></trkpt><trkpt lat="42.9735806102248" lon="10.804228618627072"><ele>27.0</ele><time>2026-03-24T07:44:36Z</time></trkpt><trkpt lat="42.973870453439346" lon="10.804178864201399"><ele>27.0</ele><time>2026-03-24T07:44:37Z</time></trkpt><trkpt lat="42.97415170895443" lon="10.804138499827166"><ele>27.0</ele><time>2026-03-24T07:44:38Z</time></trkpt><trkpt lat="42.97443784683785" lon="10.80409913840823"><ele>27.0</ele><time>2026-03-24T07:44:39Z</time></trkpt><trkpt lat="42.9747217681926" lon="10.80406303167894"><ele>27.0</ele><time>2026-03-24T07:44:40Z</time></trkpt><trkpt lat="42.97501697122416" lon="10.804017684833351"><ele>28.0</ele><time>2026-03-24T07:44:41Z</time></trkpt><trkpt lat="42.97530410486915" lon="10.803976500229291"><ele>29.0</ele><time>2026-03-24T07:44:42Z</time></trkpt><trkpt lat="42.97560266347044" lon="10.803928363555949"><ele>28.5</ele><time>2026-03-24T07:44:43Z</time></trkpt><trkpt lat="42.975898209300645" lon="10.803885351567029"><ele>28.0</ele><time>2026-03-24T07:44:44Z</time></trkpt><trkpt lat="42.97619054759072" lon="10.803846119300506"><ele>28.0</ele><time>2026-03-24T07:44:45Z</time></trkpt><trkpt lat="42.97648490669642" lon="10.803800176911675"><ele>28.0</ele><time>2026-03-24T07:44:46Z</time></trkpt><trkpt lat="42.97677620355773" lon="10.803757618824521"><ele>29.0</ele><time>2026-03-24T07:44:47Z</time></trkpt><trkpt lat="42.97707304712672" lon="10.803714844528429"><ele>30.0</ele><time>2026-03-24T07:44:48Z</time></trkpt><trkpt lat="42.97736891396579" lon="10.803679894793655"><ele>29.5</ele><time>2026-03-24T07:44:49Z</time></trkpt><trkpt lat="42.9776687338346" lon="10.803639167946072"><ele>29.0</ele><time>2026-03-24T07:44:50Z</time></trkpt><trkpt lat="42.97796865719392" lon="10.8035948150912"><ele>29.0</ele><time>2026-03-24T07:44:51Z</time></trkpt><trkpt lat="42.97827310090864" lon="10.80354881370682"><ele>29.0</ele><time>2026-03-24T07:44:52Z</time></trkpt><trkpt lat="42.978580899316846" lon="10.803505634350726"><ele>30.5</ele><time>2026-03-24T07:44:53Z</time></trkpt><trkpt lat="42.97888753873197" lon="10.803460923604037"><ele>32.0</ele><time>2026-03-24T07:44:54Z</time></trkpt><trkpt lat="42.97919609021724" lon="10.803414471021789"><ele>32.0</ele><time>2026-03-24T07:44:55Z</time></trkpt><trkpt lat="42.979506940767465" lon="10.80336617615435"><ele>32.0</ele><time>2026-03-24T07:44:56Z</time></trkpt><trkpt lat="42.979814904934685" lon="10.803323159466444"><ele>33.5</ele><time>2026-03-24T07:44:57Z</time></trkpt><trkpt lat="42.9801244413003" lon="10.803280056714375"><ele>35.0</ele><time>2026-03-24T07:44:58Z</time></trkpt><trkpt lat="42.98043669367474" lon="10.803239980085804"><ele>35.0</ele><time>2026-03-24T07:44:59Z</time></trkpt><trkpt lat="42.98075036874236" lon="10.803193074676017"><ele>35.0</ele><time>2026-03-24T07:45:00Z</time></trkpt><trkpt lat="42.981064240405864" lon="10.803142041397741"><ele>35.5</ele><time>2026-03-24T07:45:01Z</time></trkpt><trkpt lat="42.98138063408184" lon="10.803100021578521"><ele>36.0</ele><time>2026-03-24T07:45:02Z</time></trkpt><trkpt lat="42.98170591487875" lon="10.803046440351329"><ele>36.0</ele><time>2026-03-24T07:45:03Z</time></trkpt><trkpt lat="42.982040728804094" lon="10.802969177034178"><ele>36.0</ele><time>2026-03-24T07:45:04Z</time></trkpt><trkpt lat="42.98233112160398" lon="10.802865493234673"><ele>35.5</ele><time>2026-03-24T07:45:05Z</time></trkpt><trkpt lat="42.982626830525255" lon="10.802716251029532"><ele>35.0</ele><time>2026-03-24T07:45:06Z</time></trkpt><trkpt lat="42.98290812610155" lon="10.802525404924424"><ele>35.0</ele><time>2026-03-24T07:45:07Z</time></trkpt><trkpt lat="42.98316552799311" lon="10.802299121981385"><ele>35.0</ele><time>2026-03-24T07:45:08Z</time></trkpt><trkpt lat="42.98340704970882" lon="10.802031067359746"><ele>35.0</ele><time>2026-03-24T07:45:09Z</time></trkpt><trkpt lat="42.983643360537755" lon="10.801753643334305"><ele>35.0</ele><time>2026-03-24T07:45:10Z</time></trkpt><trkpt lat="42.98387903076314" lon="10.801459311325777"><ele>35.0</ele><time>2026-03-24T07:45:11Z</time></trkpt><trkpt lat="42.98411712834537" lon="10.801171889474702"><ele>35.0</ele><time>2026-03-24T07:45:12Z</time></trkpt><trkpt lat="42.9843556439206" lon="10.800874987009552"><ele>35.0</ele><time>2026-03-24T07:45:13Z</time></trkpt><trkpt lat="42.98458944618055" lon="10.800607394170317"><ele>35.0</ele><time>2026-03-24T07:45:14Z</time></trkpt><trkpt lat="42.984812678370425" lon="10.800325681227019"><ele>36.0</ele><time>2026-03-24T07:45:15Z</time></trkpt><trkpt lat="42.985063018927825" lon="10.800018475947871"><ele>37.0</ele><time>2026-03-24T07:45:16Z</time></trkpt><trkpt lat="42.98529991648128" lon="10.799730267047764"><ele>37.0</ele><time>2026-03-24T07:45:17Z</time></trkpt><trkpt lat="42.9855400287099" lon="10.799453271540386"><ele>37.0</ele><time>2026-03-24T07:45:18Z</time></trkpt><trkpt lat="42.98579082022649" lon="10.799194736965445"><ele>37.0</ele><time>2026-03-24T07:45:19Z</time></trkpt><trkpt lat="42.9860618119889" lon="10.798987848537278"><ele>37.0</ele><time>2026-03-24T07:45:20Z</time></trkpt><trkpt lat="42.98635535701853" lon="10.798806286997264"><ele>37.0</ele><time>2026-03-24T07:45:21Z</time></trkpt><trkpt lat="42.98664047281785" lon="10.798668055429598"><ele>37.0</ele><time>2026-03-24T07:45:22Z</time></trkpt><trkpt lat="42.986897784461455" lon="10.798588524842502"><ele>38.0</ele><time>2026-03-24T07:45:23Z</time></trkpt><trkpt lat="42.987141053115224" lon="10.798554503054898"><ele>39.0</ele><time>2026-03-24T07:45:24Z</time></trkpt><trkpt lat="42.987385493281636" lon="10.79852798542457"><ele>38.0</ele><time>2026-03-24T07:45:25Z</time></trkpt><trkpt lat="42.9876303950025" lon="10.79851822893181"><ele>37.0</ele><time>2026-03-24T07:45:26Z</time></trkpt><trkpt lat="42.9879010220099" lon="10.798507562604861"><ele>37.0</ele><time>2026-03-24T07:45:27Z</time></trkpt><trkpt lat="42.98817071869236" lon="10.798502656738197"><ele>37.0</ele><time>2026-03-24T07:45:28Z</time></trkpt><trkpt lat="42.988435434507934" lon="10.798495739665524"><ele>38.5</ele><time>2026-03-24T07:45:29Z</time></trkpt><trkpt lat="42.98869357883463" lon="10.798485391143753"><ele>40.0</ele><time>2026-03-24T07:45:30Z</time></trkpt><trkpt lat="42.988952325117" lon="10.798473565321784"><ele>41.0</ele><time>2026-03-24T07:45:31Z</time></trkpt><trkpt lat="42.98920575821396" lon="10.798459767072295"><ele>42.0</ele><time>2026-03-24T07:45:32Z</time></trkpt><trkpt lat="42.98945550058341" lon="10.798446747903784"><ele>42.0</ele><time>2026-03-24T07:45:33Z</time></trkpt><trkpt lat="42.989707512757136" lon="10.798432795450424"><ele>42.0</ele><time>2026-03-24T07:45:34Z</time></trkpt><trkpt lat="42.98996650063604" lon="10.798417717096692"><ele>42.0</ele><time>2026-03-24T07:45:35Z</time></trkpt><trkpt lat="42.99023098786222" lon="10.798406394013167"><ele>42.0</ele><time>2026-03-24T07:45:36Z</time></trkpt><trkpt lat="42.99050598770053" lon="10.79840074260588"><ele>42.0</ele><time>2026-03-24T07:45:37Z</time></trkpt><trkpt lat="42.990784504914814" lon="10.798392747641634"><ele>42.0</ele><time>2026-03-24T07:45:38Z</time></trkpt><trkpt lat="42.99106553689291" lon="10.798361919333704"><ele>42.0</ele><time>2026-03-24T07:45:39Z</time></trkpt><trkpt lat="42.99133715763776" lon="10.798298258079306"><ele>42.0</ele><time>2026-03-24T07:45:40Z</time></trkpt><trkpt lat="42.9916146516212" lon="10.798198094476223"><ele>42.0</ele><time>2026-03-24T07:45:41Z</time></trkpt><trkpt lat="42.99188615620228" lon="10.798068262593018"><ele>42.0</ele><time>2026-03-24T07:45:42Z</time></trkpt><trkpt lat="42.99215404326409" lon="10.797897392345268"><ele>42.0</ele><time>2026-03-24T07:45:43Z</time></trkpt><trkpt lat="42.99240629178192" lon="10.797689609613926"><ele>42.0</ele><time>2026-03-24T07:45:44Z</time></trkpt><trkpt lat="42.99264028773167" lon="10.797446190684628"><ele>41.0</ele><time>2026-03-24T07:45:45Z</time></trkpt><trkpt lat="42.99285706390919" lon="10.7971762498883"><ele>40.0</ele><time>2026-03-24T07:45:46Z</time></trkpt><trkpt lat="42.99305390225261" lon="10.796882779389572"><ele>41.5</ele><time>2026-03-24T07:45:47Z</time></trkpt><trkpt lat="42.99326405276953" lon="10.796589857746884"><ele>43.0</ele><time>2026-03-24T07:45:48Z</time></trkpt><trkpt lat="42.99349168285614" lon="10.796313881018582"><ele>43.0</ele><time>2026-03-24T07:45:49Z</time></trkpt><trkpt lat="42.99374209937191" lon="10.796072504442188"><ele>43.0</ele><time>2026-03-24T07:45:50Z</time></trkpt><trkpt lat="42.99401304648424" lon="10.795859003895721"><ele>43.5</ele><time>2026-03-24T07:45:51Z</time></trkpt><trkpt lat="42.994292230752706" lon="10.795676123764283"><ele>44.0</ele><time>2026-03-24T07:45:52Z</time></trkpt><trkpt lat="42.99458695727945" lon="10.795524503023625"><ele>44.0</ele><time>2026-03-24T07:45:53Z</time></trkpt><trkpt lat="42.99488521305002" lon="10.795367531783493"><ele>44.0</ele><time>2026-03-24T07:45:54Z</time></trkpt><trkpt lat="42.995198448584574" lon="10.795191802364695"><ele>46.5</ele><time>2026-03-24T07:45:55Z</time></trkpt><trkpt lat="42.99554218025994" lon="10.795014484796909"><ele>49.0</ele><time>2026-03-24T07:45:56Z</time></trkpt><trkpt lat="42.9957908290367" lon="10.79483506816193"><ele>47.0</ele><time>2026-03-24T07:45:57Z</time></trkpt><trkpt lat="42.99609300459939" lon="10.794658939248425"><ele>45.0</ele><time>2026-03-24T07:45:58Z</time></trkpt><trkpt lat="42.99639891804271" lon="10.794481575517418"><ele>47.0</ele><time>2026-03-24T07:45:59Z</time></trkpt><trkpt lat="42.996702947631874" lon="10.794303120536249"><ele>49.0</ele><time>2026-03-24T07:46:00Z</time></trkpt><trkpt lat="42.997011085994956" lon="10.794119586446977"><ele>49.0</ele><time>2026-03-24T07:46:01Z</time></trkpt><trkpt lat="42.99732272855719" lon="10.793938173633876"><ele>49.0</ele><time>2026-03-24T07:46:02Z</time></trkpt><trkpt lat="42.997625885884865" lon="10.793764520529237"><ele>48.0</ele><time>2026-03-24T07:46:03Z</time></trkpt><trkpt lat="42.99790247000529" lon="10.793608279742378"><ele>47.0</ele><time>2026-03-24T07:46:04Z</time></trkpt><trkpt lat="42.998173754083325" lon="10.793447040887763"><ele>47.5</ele><time>2026-03-24T07:46:05Z</time></trkpt><trkpt lat="42.99843134599021" lon="10.793302568987132"><ele>48.0</ele><time>2026-03-24T07:46:06Z</time></trkpt><trkpt lat="42.998668190894925" lon="10.793163946471157"><ele>48.0</ele><time>2026-03-24T07:46:07Z</time></trkpt><trkpt lat="42.99889246047945" lon="10.793024978491546"><ele>48.0</ele><time>2026-03-24T07:46:08Z</time></trkpt><trkpt lat="42.99912136828118" lon="10.792893327187258"><ele>47.666666666666664</ele><time>2026-03-24T07:46:09Z</time></trkpt><trkpt lat="42.99932286000088" lon="10.792783527364056"><ele>47.33333333333333</ele><time>2026-03-24T07:46:10Z</time></trkpt><trkpt lat="42.99949552320709" lon="10.792676626012073"><ele>47.0</ele><time>2026-03-24T07:46:11Z</time></trkpt><trkpt lat="42.99964900782339" lon="10.792575616698858"><ele>48.5</ele><time>2026-03-24T07:46:12Z</time></trkpt><trkpt lat="42.9997763360509" lon="10.792517808936012"><ele>50.0</ele><time>2026-03-24T07:46:13Z</time></trkpt><trkpt lat="42.99989237106366" lon="10.79248696942492"><ele>51.5</ele><time>2026-03-24T07:46:14Z</time></trkpt><trkpt lat="42.99999566623484" lon="10.792499042674384"><ele>53.0</ele><time>2026-03-24T07:46:15Z</time></trkpt><trkpt lat="43.000074595443856" lon="10.792611746618803"><ele>51.5</ele><time>2026-03-24T07:46:16Z</time></trkpt><trkpt lat="43.00010044126126" lon="10.792779998792335"><ele>50.0</ele><time>2026-03-24T07:46:17Z</time></trkpt><trkpt lat="43.00018179591329" lon="10.792966977878805"><ele>48.5</ele><time>2026-03-24T07:46:18Z</time></trkpt><trkpt lat="43.00028569487633" lon="10.793138383580997"><ele>47.0</ele><time>2026-03-24T07:46:19Z</time></trkpt><trkpt lat="43.00043397133569" lon="10.793263103192848"><ele>47.0</ele><time>2026-03-24T07:46:20Z</time></trkpt><trkpt lat="43.0006076739155" lon="10.793279958272498"><ele>47.0</ele><time>2026-03-24T07:46:21Z</time></trkpt><trkpt lat="43.00079146970194" lon="10.79319463338972"><ele>47.0</ele><time>2026-03-24T07:46:22Z</time></trkpt><trkpt lat="43.000973097091745" lon="10.7930344748481"><ele>48.0</ele><time>2026-03-24T07:46:23Z</time></trkpt><trkpt lat="43.00116691961481" lon="10.792855332177586"><ele>49.0</ele><time>2026-03-24T07:46:24Z</time></trkpt><trkpt lat="43.001381149397744" lon="10.79267323334191"><ele>49.5</ele><time>2026-03-24T07:46:25Z</time></trkpt><trkpt lat="43.001593758571985" lon="10.792481780218614"><ele>50.0</ele><time>2026-03-24T07:46:26Z</time></trkpt><trkpt lat="43.00180183988301" lon="10.792245653954474"><ele>50.0</ele><time>2026-03-24T07:46:27Z</time></trkpt><trkpt lat="43.001996468444666" lon="10.791974720133762"><ele>50.0</ele><time>2026-03-24T07:46:28Z</time></trkpt><trkpt lat="43.00216404006985" lon="10.791667722809006"><ele>51.5</ele><time>2026-03-24T07:46:29Z</time></trkpt><trkpt lat="43.002312377911714" lon="10.79132382977283"><ele>53.0</ele><time>2026-03-24T07:46:30Z</time></trkpt><trkpt lat="43.00243015477119" lon="10.79095269873628"><ele>53.0</ele><time>2026-03-24T07:46:31Z</time></trkpt><trkpt lat="43.00250296374365" lon="10.79055750050277"><ele>53.0</ele><time>2026-03-24T07:46:32Z</time></trkpt><trkpt lat="43.002529664388206" lon="10.790145165803779"><ele>53.0</ele><time>2026-03-24T07:46:33Z</time></trkpt><trkpt lat="43.002527194713835" lon="10.789713988872395"><ele>53.0</ele><time>2026-03-24T07:46:34Z</time></trkpt><trkpt lat="43.00251305478242" lon="10.78927686897286"><ele>52.5</ele><time>2026-03-24T07:46:35Z</time></trkpt><trkpt lat="43.00250285198261" lon="10.788836920263655"><ele>52.0</ele><time>2026-03-24T07:46:36Z</time></trkpt><trkpt lat="43.002498365782095" lon="10.788393630460302"><ele>54.0</ele><time>2026-03-24T07:46:37Z</time></trkpt><trkpt lat="43.00249329698846" lon="10.78794481516565"><ele>56.0</ele><time>2026-03-24T07:46:38Z</time></trkpt><trkpt lat="43.00249426965216" lon="10.787498248368454"><ele>56.0</ele><time>2026-03-24T07:46:39Z</time></trkpt><trkpt lat="43.00249022968223" lon="10.787046478915752"><ele>56.0</ele><time>2026-03-24T07:46:40Z</time></trkpt><trkpt lat="43.002483493959566" lon="10.786588599109532"><ele>55.5</ele><time>2026-03-24T07:46:41Z</time></trkpt><trkpt lat="43.0024809557972" lon="10.78612560983706"><ele>55.0</ele><time>2026-03-24T07:46:42Z</time></trkpt><trkpt lat="43.00247774248171" lon="10.785661737049729"><ele>55.0</ele><time>2026-03-24T07:46:43Z</time></trkpt><trkpt lat="43.00247706460882" lon="10.785197478034346"><ele>55.0</ele><time>2026-03-24T07:46:44Z</time></trkpt><trkpt lat="43.00247865574635" lon="10.784734724160295"><ele>55.5</ele><time>2026-03-24T07:46:45Z</time></trkpt><trkpt lat="43.002480463372756" lon="10.78428083149152"><ele>56.0</ele><time>2026-03-24T07:46:46Z</time></trkpt><trkpt lat="43.00248457886658" lon="10.783839964110634"><ele>57.0</ele><time>2026-03-24T07:46:47Z</time></trkpt><trkpt lat="43.00248708180086" lon="10.78343982702943"><ele>58.0</ele><time>2026-03-24T07:46:48Z</time></trkpt><trkpt lat="43.002500171153194" lon="10.783036963565815"><ele>59.5</ele><time>2026-03-24T07:46:49Z</time></trkpt><trkpt lat="43.002538417868394" lon="10.78262586846008"><ele>61.0</ele><time>2026-03-24T07:46:50Z</time></trkpt><trkpt lat="43.002601543297594" lon="10.782217338266019"><ele>60.0</ele><time>2026-03-24T07:46:51Z</time></trkpt><trkpt lat="43.002712852308875" lon="10.781827566148023"><ele>59.0</ele><time>2026-03-24T07:46:52Z</time></trkpt><trkpt lat="43.002833019758" lon="10.78146762106449"><ele>59.0</ele><time>2026-03-24T07:46:53Z</time></trkpt><trkpt lat="43.00296080241543" lon="10.781098435806253"><ele>59.0</ele><time>2026-03-24T07:46:54Z</time></trkpt><trkpt lat="43.00312694539165" lon="10.780760683124665"><ele>59.5</ele><time>2026-03-24T07:46:55Z</time></trkpt><trkpt lat="43.00330278531259" lon="10.78045753609019"><ele>60.0</ele><time>2026-03-24T07:46:56Z</time></trkpt><trkpt lat="43.003501742201365" lon="10.780212504014164"><ele>61.0</ele><time>2026-03-24T07:46:57Z</time></trkpt><trkpt lat="43.003705573559046" lon="10.77997071549712"><ele>62.0</ele><time>2026-03-24T07:46:58Z</time></trkpt><trkpt lat="43.00392504593273" lon="10.779736240928559"><ele>62.0</ele><time>2026-03-24T07:46:59Z</time></trkpt><trkpt lat="43.00418120491951" lon="10.779524717767643"><ele>62.0</ele><time>2026-03-24T07:47:00Z</time></trkpt><trkpt lat="43.00446558785173" lon="10.779317129097393"><ele>62.0</ele><time>2026-03-24T07:47:01Z</time></trkpt><trkpt lat="43.00471507869367" lon="10.779136897734888"><ele>62.0</ele><time>2026-03-24T07:47:02Z</time></trkpt><trkpt lat="43.004988731185286" lon="10.778930500224355"><ele>65.0</ele><time>2026-03-24T07:47:03Z</time></trkpt><trkpt lat="43.00526224036895" lon="10.77872854342816"><ele>68.0</ele><time>2026-03-24T07:47:04Z</time></trkpt><trkpt lat="43.005530977491304" lon="10.778538324818111"><ele>65.5</ele><time>2026-03-24T07:47:05Z</time></trkpt><trkpt lat="43.00579916925179" lon="10.77835130593878"><ele>63.0</ele><time>2026-03-24T07:47:06Z</time></trkpt><trkpt lat="43.00607121993299" lon="10.778153631977332"><ele>63.0</ele><time>2026-03-24T07:47:07Z</time></trkpt><trkpt lat="43.006341173298985" lon="10.777955083540343"><ele>63.0</ele><time>2026-03-24T07:47:08Z</time></trkpt><trkpt lat="43.006609091655676" lon="10.777762099821318"><ele>63.0</ele><time>2026-03-24T07:47:09Z</time></trkpt><trkpt lat="43.00687246803106" lon="10.777570208235295"><ele>63.0</ele><time>2026-03-24T07:47:10Z</time></trkpt><trkpt lat="43.00712897947408" lon="10.777383178250581"><ele>63.0</ele><time>2026-03-24T07:47:11Z</time></trkpt><trkpt lat="43.00739072987938" lon="10.777192422873654"><ele>63.0</ele><time>2026-03-24T07:47:12Z</time></trkpt><trkpt lat="43.00764195135524" lon="10.777008972758436"><ele>62.5</ele><time>2026-03-24T07:47:13Z</time></trkpt><trkpt lat="43.00789868599513" lon="10.776816435768776"><ele>62.0</ele><time>2026-03-24T07:47:14Z</time></trkpt><trkpt lat="43.00814233464068" lon="10.776622296626456"><ele>65.5</ele><time>2026-03-24T07:47:15Z</time></trkpt><trkpt lat="43.0083776009525" lon="10.776394757419892"><ele>69.0</ele><time>2026-03-24T07:47:16Z</time></trkpt><trkpt lat="43.00858648580158" lon="10.776137260163537"><ele>66.0</ele><time>2026-03-24T07:47:17Z</time></trkpt><trkpt lat="43.008776714283854" lon="10.775841007669184"><ele>63.0</ele><time>2026-03-24T07:47:18Z</time></trkpt><trkpt lat="43.008956838443346" lon="10.775519138007466"><ele>63.0</ele><time>2026-03-24T07:47:19Z</time></trkpt><trkpt lat="43.00910318167073" lon="10.77517950037969"><ele>63.0</ele><time>2026-03-24T07:47:20Z</time></trkpt><trkpt lat="43.009232446843484" lon="10.774812741569884"><ele>63.0</ele><time>2026-03-24T07:47:21Z</time></trkpt><trkpt lat="43.009328051033684" lon="10.774434920811016"><ele>63.0</ele><time>2026-03-24T07:47:22Z</time></trkpt><trkpt lat="43.00940395434609" lon="10.774040287029916"><ele>63.0</ele><time>2026-03-24T07:47:23Z</time></trkpt><trkpt lat="43.00944649895595" lon="10.773633742747784"><ele>63.0</ele><time>2026-03-24T07:47:24Z</time></trkpt><trkpt lat="43.009489282532364" lon="10.773219602111118"><ele>62.0</ele><time>2026-03-24T07:47:25Z</time></trkpt><trkpt lat="43.00954449338674" lon="10.772840650239031"><ele>61.0</ele><time>2026-03-24T07:47:26Z</time></trkpt><trkpt lat="43.00960998154317" lon="10.772477969449199"><ele>63.5</ele><time>2026-03-24T07:47:27Z</time></trkpt><trkpt lat="43.00967066525903" lon="10.772125693913107"><ele>66.0</ele><time>2026-03-24T07:47:28Z</time></trkpt><trkpt lat="43.00972025987711" lon="10.771788245359858"><ele>66.5</ele><time>2026-03-24T07:47:29Z</time></trkpt><trkpt lat="43.009765129397394" lon="10.771461525305478"><ele>67.0</ele><time>2026-03-24T07:47:30Z</time></trkpt><trkpt lat="43.00981084135174" lon="10.77114821766965"><ele>67.0</ele><time>2026-03-24T07:47:31Z</time></trkpt><trkpt lat="43.00986357475647" lon="10.77082688551807"><ele>67.0</ele><time>2026-03-24T07:47:32Z</time></trkpt><trkpt lat="43.009940740895495" lon="10.770497803133997"><ele>67.5</ele><time>2026-03-24T07:47:33Z</time></trkpt><trkpt lat="43.01004083962256" lon="10.770167446953536"><ele>68.0</ele><time>2026-03-24T07:47:34Z</time></trkpt><trkpt lat="43.010154199384964" lon="10.769843708074735"><ele>68.0</ele><time>2026-03-24T07:47:35Z</time></trkpt><trkpt lat="43.010281076946654" lon="10.769541582101745"><ele>68.0</ele><time>2026-03-24T07:47:36Z</time></trkpt><trkpt lat="43.01042834811171" lon="10.769231065645878"><ele>68.0</ele><time>2026-03-24T07:47:37Z</time></trkpt><trkpt lat="43.01058993944965" lon="10.768907072217209"><ele>68.0</ele><time>2026-03-24T07:47:38Z</time></trkpt><trkpt lat="43.01076443865831" lon="10.768575903958634"><ele>68.5</ele><time>2026-03-24T07:47:39Z</time></trkpt><trkpt lat="43.010944506204055" lon="10.768233625732735"><ele>69.0</ele><time>2026-03-24T07:47:40Z</time></trkpt><trkpt lat="43.01112452178335" lon="10.767885187465401"><ele>69.0</ele><time>2026-03-24T07:47:41Z</time></trkpt><trkpt lat="43.011309627846664" lon="10.76752912910425"><ele>69.0</ele><time>2026-03-24T07:47:42Z</time></trkpt><trkpt lat="43.01149742451312" lon="10.76717424469507"><ele>71.0</ele><time>2026-03-24T07:47:43Z</time></trkpt><trkpt lat="43.01168880744377" lon="10.766824098804546"><ele>73.0</ele><time>2026-03-24T07:47:44Z</time></trkpt><trkpt lat="43.011883501659604" lon="10.766461862759497"><ele>73.0</ele><time>2026-03-24T07:47:45Z</time></trkpt><trkpt lat="43.01207062269116" lon="10.76609889514036"><ele>73.0</ele><time>2026-03-24T07:47:46Z</time></trkpt><trkpt lat="43.012260055835185" lon="10.765727444034278"><ele>74.0</ele><time>2026-03-24T07:47:47Z</time></trkpt><trkpt lat="43.01245150974064" lon="10.765356993454226"><ele>75.0</ele><time>2026-03-24T07:47:48Z</time></trkpt><trkpt lat="43.012646524671624" lon="10.764989127699375"><ele>76.5</ele><time>2026-03-24T07:47:49Z</time></trkpt><trkpt lat="43.012843719883875" lon="10.764612711099295"><ele>78.0</ele><time>2026-03-24T07:47:50Z</time></trkpt><trkpt lat="43.01303661629509" lon="10.764249055116275"><ele>78.5</ele><time>2026-03-24T07:47:51Z</time></trkpt><trkpt lat="43.01321555406699" lon="10.7639090629774"><ele>79.0</ele><time>2026-03-24T07:47:52Z</time></trkpt><trkpt lat="43.01337717538022" lon="10.763603027595572"><ele>80.0</ele><time>2026-03-24T07:47:53Z</time></trkpt><trkpt lat="43.013534996794185" lon="10.763294244010494"><ele>81.0</ele><time>2026-03-24T07:47:54Z</time></trkpt><trkpt lat="43.01366085277064" lon="10.76298676424418"><ele>80.5</ele><time>2026-03-24T07:47:55Z</time></trkpt><trkpt lat="43.013735236061315" lon="10.762651653156029"><ele>80.0</ele><time>2026-03-24T07:47:56Z</time></trkpt><trkpt lat="43.01378616145063" lon="10.762281380559038"><ele>80.0</ele><time>2026-03-24T07:47:57Z</time></trkpt><trkpt lat="43.013823581575814" lon="10.761914530813897"><ele>80.0</ele><time>2026-03-24T07:47:58Z</time></trkpt><trkpt lat="43.01388794658884" lon="10.761602304927509"><ele>80.0</ele><time>2026-03-24T07:47:59Z</time></trkpt><trkpt lat="43.01398296639021" lon="10.761346157259723"><ele>80.0</ele><time>2026-03-24T07:48:00Z</time></trkpt><trkpt lat="43.014118025866615" lon="10.761158473585198"><ele>80.0</ele><time>2026-03-24T07:48:01Z</time></trkpt><trkpt lat="43.0142916928397" lon="10.760993799680831"><ele>82.33333333333334</ele><time>2026-03-24T07:48:02Z</time></trkpt><trkpt lat="43.01448214935492" lon="10.760823045287458"><ele>84.66666666666667</ele><time>2026-03-24T07:48:03Z</time></trkpt><trkpt lat="43.0146561883266" lon="10.76066746454364"><ele>87.0</ele><time>2026-03-24T07:48:04Z</time></trkpt><trkpt lat="43.01485796892356" lon="10.760575143020596"><ele>91.0</ele><time>2026-03-24T07:48:05Z</time></trkpt><trkpt lat="43.015081897431024" lon="10.76055411212288"><ele>95.0</ele><time>2026-03-24T07:48:06Z</time></trkpt><trkpt lat="43.01534217075291" lon="10.760575781054786"><ele>95.0</ele><time>2026-03-24T07:48:07Z</time></trkpt><trkpt lat="43.01561991862383" lon="10.760575227830472"><ele>95.0</ele><time>2026-03-24T07:48:08Z</time></trkpt><trkpt lat="43.015837877412814" lon="10.760583625013002"><ele>96.5</ele><time>2026-03-24T07:48:09Z</time></trkpt><trkpt lat="43.01610905442457" lon="10.760587845180778"><ele>98.0</ele><time>2026-03-24T07:48:10Z</time></trkpt><trkpt lat="43.01639180337128" lon="10.760587661514414"><ele>98.0</ele><time>2026-03-24T07:48:11Z</time></trkpt><trkpt lat="43.01665040511019" lon="10.760588712446157"><ele>98.0</ele><time>2026-03-24T07:48:12Z</time></trkpt><trkpt lat="43.0168851061639" lon="10.760587617350206"><ele>101.0</ele><time>2026-03-24T07:48:13Z</time></trkpt><trkpt lat="43.01712156894217" lon="10.760561028083542"><ele>104.0</ele><time>2026-03-24T07:48:14Z</time></trkpt><trkpt lat="43.01733393603255" lon="10.760458985738607"><ele>103.5</ele><time>2026-03-24T07:48:15Z</time></trkpt><trkpt lat="43.017547550200895" lon="10.760290175538291"><ele>103.0</ele><time>2026-03-24T07:48:16Z</time></trkpt><trkpt lat="43.01777083299946" lon="10.760103642302813"><ele>101.5</ele><time>2026-03-24T07:48:17Z</time></trkpt><trkpt lat="43.01801164924876" lon="10.759916809820956"><ele>100.0</ele><time>2026-03-24T07:48:18Z</time></trkpt><trkpt lat="43.01826690632491" lon="10.759785881453245"><ele>97.0</ele><time>2026-03-24T07:48:19Z</time></trkpt><trkpt lat="43.018504294974946" lon="10.759666620032078"><ele>94.0</ele><time>2026-03-24T07:48:20Z</time></trkpt><trkpt lat="43.01870608700629" lon="10.759504686567846"><ele>94.0</ele><time>2026-03-24T07:48:21Z</time></trkpt><trkpt lat="43.01889301863772" lon="10.759288620264591"><ele>94.0</ele><time>2026-03-24T07:48:22Z</time></trkpt><trkpt lat="43.01906916765043" lon="10.759020415563866"><ele>95.0</ele><time>2026-03-24T07:48:23Z</time></trkpt><trkpt lat="43.01924225539298" lon="10.758727049825847"><ele>96.0</ele><time>2026-03-24T07:48:24Z</time></trkpt><trkpt lat="43.01942529400473" lon="10.75843377427725"><ele>93.0</ele><time>2026-03-24T07:48:25Z</time></trkpt><trkpt lat="43.019605432322706" lon="10.758161875358752"><ele>90.0</ele><time>2026-03-24T07:48:26Z</time></trkpt><trkpt lat="43.01979017776081" lon="10.757896965802411"><ele>89.0</ele><time>2026-03-24T07:48:27Z</time></trkpt><trkpt lat="43.020004944548575" lon="10.757647837435755"><ele>88.0</ele><time>2026-03-24T07:48:28Z</time></trkpt><trkpt lat="43.02025590063686" lon="10.757419465946157"><ele>88.0</ele><time>2026-03-24T07:48:29Z</time></trkpt><trkpt lat="43.020518798152935" lon="10.75719114620607"><ele>88.0</ele><time>2026-03-24T07:48:30Z</time></trkpt><trkpt lat="43.02078860908113" lon="10.756947865118413"><ele>85.0</ele><time>2026-03-24T07:48:31Z</time></trkpt><trkpt lat="43.0210612229553" lon="10.75669896590375"><ele>82.0</ele><time>2026-03-24T07:48:32Z</time></trkpt><trkpt lat="43.021339597036494" lon="10.756445950710264"><ele>82.0</ele><time>2026-03-24T07:48:33Z</time></trkpt><trkpt lat="43.02161696056908" lon="10.756190429496685"><ele>82.0</ele><time>2026-03-24T07:48:34Z</time></trkpt><trkpt lat="43.02190037105742" lon="10.755931394162118"><ele>81.5</ele><time>2026-03-24T07:48:35Z</time></trkpt><trkpt lat="43.02217958541695" lon="10.755672382400126"><ele>81.0</ele><time>2026-03-24T07:48:36Z</time></trkpt><trkpt lat="43.02243191615928" lon="10.75543890522332"><ele>80.5</ele><time>2026-03-24T07:48:37Z</time></trkpt><trkpt lat="43.02266267722449" lon="10.755228260559024"><ele>80.0</ele><time>2026-03-24T07:48:38Z</time></trkpt><trkpt lat="43.0228919049592" lon="10.755024196236272"><ele>80.0</ele><time>2026-03-24T07:48:39Z</time></trkpt><trkpt lat="43.02311459892883" lon="10.754846604404655"><ele>80.0</ele><time>2026-03-24T07:48:40Z</time></trkpt><trkpt lat="43.02335799504122" lon="10.754734067326833"><ele>83.0</ele><time>2026-03-24T07:48:41Z</time></trkpt><trkpt lat="43.02363360023014" lon="10.75469369557581"><ele>86.0</ele><time>2026-03-24T07:48:42Z</time></trkpt><trkpt lat="43.02392069262866" lon="10.75465817973501"><ele>87.5</ele><time>2026-03-24T07:48:43Z</time></trkpt><trkpt lat="43.02422330760235" lon="10.75460800069526"><ele>89.0</ele><time>2026-03-24T07:48:44Z</time></trkpt><trkpt lat="43.024508936869445" lon="10.754545124147057"><ele>89.0</ele><time>2026-03-24T07:48:45Z</time></trkpt><trkpt lat="43.024782202287255" lon="10.754478462477831"><ele>89.0</ele><time>2026-03-24T07:48:46Z</time></trkpt><trkpt lat="43.02502853621397" lon="10.754405347654671"><ele>85.33333333333334</ele><time>2026-03-24T07:48:47Z</time></trkpt><trkpt lat="43.02522189591542" lon="10.754271375307987"><ele>81.66666666666667</ele><time>2026-03-24T07:48:48Z</time></trkpt><trkpt lat="43.025408578508525" lon="10.754088235855304"><ele>78.0</ele><time>2026-03-24T07:48:49Z</time></trkpt><trkpt lat="43.025589138775544" lon="10.753862184680104"><ele>78.0</ele><time>2026-03-24T07:48:50Z</time></trkpt><trkpt lat="43.02579772967828" lon="10.753646666402648"><ele>78.0</ele><time>2026-03-24T07:48:51Z</time></trkpt><trkpt lat="43.026035815055266" lon="10.753468905010566"><ele>76.5</ele><time>2026-03-24T07:48:52Z</time></trkpt><trkpt lat="43.02629447608537" lon="10.753317009337843"><ele>75.0</ele><time>2026-03-24T07:48:53Z</time></trkpt><trkpt lat="43.0265507898184" lon="10.753159168602608"><ele>79.0</ele><time>2026-03-24T07:48:54Z</time></trkpt><trkpt lat="43.02680446965983" lon="10.752991973419459"><ele>83.0</ele><time>2026-03-24T07:48:55Z</time></trkpt><trkpt lat="43.02705568567169" lon="10.752804770948691"><ele>78.5</ele><time>2026-03-24T07:48:56Z</time></trkpt><trkpt lat="43.02735111017962" lon="10.752634247872317"><ele>74.0</ele><time>2026-03-24T07:48:57Z</time></trkpt><trkpt lat="43.027624042198035" lon="10.752461767347413"><ele>74.0</ele><time>2026-03-24T07:48:58Z</time></trkpt><trkpt lat="43.02790378235896" lon="10.752294620629824"><ele>74.0</ele><time>2026-03-24T07:48:59Z</time></trkpt><trkpt lat="43.02819101467104" lon="10.752126928094663"><ele>73.5</ele><time>2026-03-24T07:49:00Z</time></trkpt><trkpt lat="43.02848347075919" lon="10.75195282810728"><ele>73.0</ele><time>2026-03-24T07:49:01Z</time></trkpt><trkpt lat="43.02878052587019" lon="10.751777970955278"><ele>73.0</ele><time>2026-03-24T07:49:02Z</time></trkpt><trkpt lat="43.02907036833565" lon="10.751612363853237"><ele>73.0</ele><time>2026-03-24T07:49:03Z</time></trkpt><trkpt lat="43.02933624860978" lon="10.75145077399934"><ele>73.5</ele><time>2026-03-24T07:49:04Z</time></trkpt><trkpt lat="43.02959295026665" lon="10.751282351974952"><ele>74.0</ele><time>2026-03-24T07:49:05Z</time></trkpt><trkpt lat="43.02986153290782" lon="10.751118118573121"><ele>72.0</ele><time>2026-03-24T07:49:06Z</time></trkpt><trkpt lat="43.03013769238798" lon="10.750953589518957"><ele>70.0</ele><time>2026-03-24T07:49:07Z</time></trkpt><trkpt lat="43.03041654118283" lon="10.750787498316566"><ele>70.0</ele><time>2026-03-24T07:49:08Z</time></trkpt><trkpt lat="43.030699889864465" lon="10.75062326289635"><ele>70.0</ele><time>2026-03-24T07:49:09Z</time></trkpt><trkpt lat="43.0309910523211" lon="10.750464206744704"><ele>69.0</ele><time>2026-03-24T07:49:10Z</time></trkpt><trkpt lat="43.031291198646706" lon="10.750322662728161"><ele>68.0</ele><time>2026-03-24T07:49:11Z</time></trkpt><trkpt lat="43.03159471865975" lon="10.750196712031654"><ele>67.5</ele><time>2026-03-24T07:49:12Z</time></trkpt><trkpt lat="43.031905942092166" lon="10.750086133231973"><ele>67.0</ele><time>2026-03-24T07:49:13Z</time></trkpt><trkpt lat="43.03220487876177" lon="10.74998026184043"><ele>68.0</ele><time>2026-03-24T07:49:14Z</time></trkpt><trkpt lat="43.032486641982175" lon="10.749855808951702"><ele>69.0</ele><time>2026-03-24T07:49:15Z</time></trkpt><trkpt lat="43.03284454680356" lon="10.74974346863691"><ele>69.0</ele><time>2026-03-24T07:49:16Z</time></trkpt><trkpt lat="43.03316203685876" lon="10.749620229749448"><ele>69.0</ele><time>2026-03-24T07:49:17Z</time></trkpt><trkpt lat="43.03347634607229" lon="10.749501504915838"><ele>70.5</ele><time>2026-03-24T07:49:18Z</time></trkpt><trkpt lat="43.033766507137834" lon="10.749393794391153"><ele>72.0</ele><time>2026-03-24T07:49:19Z</time></trkpt><trkpt lat="43.03403948071714" lon="10.749286301240765"><ele>68.5</ele><time>2026-03-24T07:49:20Z</time></trkpt><trkpt lat="43.0342892603381" lon="10.749173418842565"><ele>65.0</ele><time>2026-03-24T07:49:21Z</time></trkpt><trkpt lat="43.034518324194906" lon="10.74901168825076"><ele>65.0</ele><time>2026-03-24T07:49:22Z</time></trkpt><trkpt lat="43.03472320427484" lon="10.748800740870443"><ele>65.0</ele><time>2026-03-24T07:49:23Z</time></trkpt><trkpt lat="43.03491964023542" lon="10.748545124242078"><ele>64.5</ele><time>2026-03-24T07:49:24Z</time></trkpt><trkpt lat="43.035127859517424" lon="10.748292769149648"><ele>64.0</ele><time>2026-03-24T07:49:25Z</time></trkpt><trkpt lat="43.03533714490959" lon="10.748062335373394"><ele>64.0</ele><time>2026-03-24T07:49:26Z</time></trkpt><trkpt lat="43.03553155739399" lon="10.747847270773253"><ele>64.0</ele><time>2026-03-24T07:49:27Z</time></trkpt><trkpt lat="43.03572133910628" lon="10.747660618041044"><ele>63.5</ele><time>2026-03-24T07:49:28Z</time></trkpt><trkpt lat="43.03593078220154" lon="10.74752539795501"><ele>63.0</ele><time>2026-03-24T07:49:29Z</time></trkpt><trkpt lat="43.03616093875673" lon="10.747437277797966"><ele>63.0</ele><time>2026-03-24T07:49:30Z</time></trkpt><trkpt lat="43.03640985613599" lon="10.747353763471208"><ele>63.0</ele><time>2026-03-24T07:49:31Z</time></trkpt><trkpt lat="43.036636773012" lon="10.747201497859416"><ele>63.5</ele><time>2026-03-24T07:49:32Z</time></trkpt><trkpt lat="43.036856584657045" lon="10.746994851904207"><ele>64.0</ele><time>2026-03-24T07:49:33Z</time></trkpt><trkpt lat="43.037087071200276" lon="10.746775674887974"><ele>64.0</ele><time>2026-03-24T07:49:34Z</time></trkpt><trkpt lat="43.037325791806815" lon="10.746557324004153"><ele>64.0</ele><time>2026-03-24T07:49:35Z</time></trkpt><trkpt lat="43.03757372166376" lon="10.7463347629579"><ele>65.0</ele><time>2026-03-24T07:49:36Z</time></trkpt><trkpt lat="43.037824911363465" lon="10.746111393709112"><ele>66.0</ele><time>2026-03-24T07:49:37Z</time></trkpt><trkpt lat="43.03808222915031" lon="10.745888002235082"><ele>65.5</ele><time>2026-03-24T07:49:38Z</time></trkpt><trkpt lat="43.03831987221444" lon="10.745680355014079"><ele>65.0</ele><time>2026-03-24T07:49:39Z</time></trkpt><trkpt lat="43.03855296366245" lon="10.745476308565145"><ele>65.0</ele><time>2026-03-24T07:49:40Z</time></trkpt><trkpt lat="43.03877579244526" lon="10.745259021820312"><ele>65.0</ele><time>2026-03-24T07:49:41Z</time></trkpt><trkpt lat="43.03897003936848" lon="10.745010351654678"><ele>63.5</ele><time>2026-03-24T07:49:42Z</time></trkpt><trkpt lat="43.03914765604897" lon="10.744725801258427"><ele>62.0</ele><time>2026-03-24T07:49:43Z</time></trkpt><trkpt lat="43.03930563182004" lon="10.744458539141142"><ele>61.5</ele><time>2026-03-24T07:49:44Z</time></trkpt><trkpt lat="43.0394495074543" lon="10.744199219412398"><ele>61.0</ele><time>2026-03-24T07:49:45Z</time></trkpt><trkpt lat="43.03955306509298" lon="10.743902790392282"><ele>61.0</ele><time>2026-03-24T07:49:46Z</time></trkpt><trkpt lat="43.03959508209295" lon="10.743573215718575"><ele>61.0</ele><time>2026-03-24T07:49:47Z</time></trkpt><trkpt lat="43.03962053332273" lon="10.743219779172419"><ele>61.0</ele><time>2026-03-24T07:49:48Z</time></trkpt><trkpt lat="43.03969489334629" lon="10.74286354937127"><ele>61.0</ele><time>2026-03-24T07:49:49Z</time></trkpt><trkpt lat="43.03981347709912" lon="10.742522263559085"><ele>61.5</ele><time>2026-03-24T07:49:50Z</time></trkpt><trkpt lat="43.03995209810753" lon="10.74226166221497"><ele>62.0</ele><time>2026-03-24T07:49:51Z</time></trkpt><trkpt lat="43.04012361332585" lon="10.742060820029852"><ele>61.0</ele><time>2026-03-24T07:49:52Z</time></trkpt><trkpt lat="43.04031306879846" lon="10.741880355056438"><ele>60.0</ele><time>2026-03-24T07:49:53Z</time></trkpt><trkpt lat="43.04052880011656" lon="10.74172899890423"><ele>60.0</ele><time>2026-03-24T07:49:54Z</time></trkpt><trkpt lat="43.040784089487396" lon="10.741610390301291"><ele>60.0</ele><time>2026-03-24T07:49:55Z</time></trkpt><trkpt lat="43.041052554416886" lon="10.741516037888815"><ele>60.5</ele><time>2026-03-24T07:49:56Z</time></trkpt><trkpt lat="43.04132852742294" lon="10.741414675535768"><ele>61.0</ele><time>2026-03-24T07:49:57Z</time></trkpt><trkpt lat="43.04161131083922" lon="10.741295862669723"><ele>61.0</ele><time>2026-03-24T07:49:58Z</time></trkpt><trkpt lat="43.041874441202005" lon="10.741181719188662"><ele>61.0</ele><time>2026-03-24T07:49:59Z</time></trkpt><trkpt lat="43.04213139621527" lon="10.741050309155394"><ele>60.0</ele><time>2026-03-24T07:50:00Z</time></trkpt><trkpt lat="43.04237256373086" lon="10.74086859020458"><ele>59.0</ele><time>2026-03-24T07:50:01Z</time></trkpt><trkpt lat="43.04259308310877" lon="10.740634609078992"><ele>58.5</ele><time>2026-03-24T07:50:02Z</time></trkpt><trkpt lat="43.042804148838485" lon="10.740371154036486"><ele>58.0</ele><time>2026-03-24T07:50:03Z</time></trkpt><trkpt lat="43.04300828185583" lon="10.740087061308163"><ele>57.5</ele><time>2026-03-24T07:50:04Z</time></trkpt><trkpt lat="43.04318652411371" lon="10.739836264461152"><ele>57.0</ele><time>2026-03-24T07:50:05Z</time></trkpt><trkpt lat="43.04335764778547" lon="10.739599711625452"><ele>55.0</ele><time>2026-03-24T07:50:06Z</time></trkpt><trkpt lat="43.04352116864989" lon="10.739339315032076"><ele>53.0</ele><time>2026-03-24T07:50:07Z</time></trkpt><trkpt lat="43.043671725404316" lon="10.739027570117203"><ele>53.0</ele><time>2026-03-24T07:50:08Z</time></trkpt><trkpt lat="43.04379661548016" lon="10.738665836783197"><ele>53.0</ele><time>2026-03-24T07:50:09Z</time></trkpt><trkpt lat="43.043935778882" lon="10.738260668380898"><ele>52.0</ele><time>2026-03-24T07:50:10Z</time></trkpt><trkpt lat="43.04403011635416" lon="10.737903023929137"><ele>51.0</ele><time>2026-03-24T07:50:11Z</time></trkpt><trkpt lat="43.044153412533504" lon="10.737513623768788"><ele>51.0</ele><time>2026-03-24T07:50:12Z</time></trkpt><trkpt lat="43.044284260673024" lon="10.737121317253017"><ele>51.0</ele><time>2026-03-24T07:50:13Z</time></trkpt><trkpt lat="43.04442373036039" lon="10.736716645246338"><ele>50.0</ele><time>2026-03-24T07:50:14Z</time></trkpt><trkpt lat="43.0445606292608" lon="10.736308824392854"><ele>49.0</ele><time>2026-03-24T07:50:15Z</time></trkpt><trkpt lat="43.04469495659966" lon="10.73589633998405"><ele>49.0</ele><time>2026-03-24T07:50:16Z</time></trkpt><trkpt lat="43.04483170049884" lon="10.735473804570912"><ele>49.0</ele><time>2026-03-24T07:50:17Z</time></trkpt><trkpt lat="43.04497243940617" lon="10.735046446780498"><ele>48.5</ele><time>2026-03-24T07:50:18Z</time></trkpt><trkpt lat="43.04511502287019" lon="10.734617964570099"><ele>48.0</ele><time>2026-03-24T07:50:19Z</time></trkpt><trkpt lat="43.04524915759439" lon="10.734182623361969"><ele>48.0</ele><time>2026-03-24T07:50:20Z</time></trkpt><trkpt lat="43.045350777490505" lon="10.733739918703739"><ele>48.0</ele><time>2026-03-24T07:50:21Z</time></trkpt><trkpt lat="43.04540297385532" lon="10.733336397467339"><ele>47.0</ele><time>2026-03-24T07:50:22Z</time></trkpt><trkpt lat="43.04543521359717" lon="10.732956868859487"><ele>46.0</ele><time>2026-03-24T07:50:23Z</time></trkpt><trkpt lat="43.04548357588825" lon="10.73262102034208"><ele>45.0</ele><time>2026-03-24T07:50:24Z</time></trkpt><trkpt lat="43.04557189242139" lon="10.732312099323586"><ele>44.0</ele><time>2026-03-24T07:50:25Z</time></trkpt><trkpt lat="43.045715677618205" lon="10.73203785065857"><ele>44.5</ele><time>2026-03-24T07:50:26Z</time></trkpt><trkpt lat="43.04589653165457" lon="10.731770457244687"><ele>45.0</ele><time>2026-03-24T07:50:27Z</time></trkpt><trkpt lat="43.04607853905972" lon="10.731481572296163"><ele>45.0</ele><time>2026-03-24T07:50:28Z</time></trkpt><trkpt lat="43.04624979953839" lon="10.73118238447011"><ele>45.0</ele><time>2026-03-24T07:50:29Z</time></trkpt><trkpt lat="43.04639252865201" lon="10.73093290355155"><ele>45.0</ele><time>2026-03-24T07:50:30Z</time></trkpt><trkpt lat="43.046516780822536" lon="10.730723025810075"><ele>45.0</ele><time>2026-03-24T07:50:31Z</time></trkpt><trkpt lat="43.04670476342498" lon="10.730388174346205"><ele>45.5</ele><time>2026-03-24T07:50:32Z</time></trkpt><trkpt lat="43.04689425951283" lon="10.7301995837481"><ele>46.0</ele><time>2026-03-24T07:50:33Z</time></trkpt><trkpt lat="43.04713109406984" lon="10.730075281064341"><ele>46.0</ele><time>2026-03-24T07:50:34Z</time></trkpt><trkpt lat="43.04738778628635" lon="10.729968577006916"><ele>46.0</ele><time>2026-03-24T07:50:35Z</time></trkpt><trkpt lat="43.047642934519466" lon="10.729833867601709"><ele>48.5</ele><time>2026-03-24T07:50:36Z</time></trkpt><trkpt lat="43.04790164366828" lon="10.729686951797788"><ele>51.0</ele><time>2026-03-24T07:50:37Z</time></trkpt><trkpt lat="43.04815222738615" lon="10.729532618173877"><ele>50.5</ele><time>2026-03-24T07:50:38Z</time></trkpt><trkpt lat="43.048375331106165" lon="10.729363324269876"><ele>50.0</ele><time>2026-03-24T07:50:39Z</time></trkpt><trkpt lat="43.04857993712041" lon="10.729113743725883"><ele>50.0</ele><time>2026-03-24T07:50:40Z</time></trkpt><trkpt lat="43.048772049612275" lon="10.728832730733915"><ele>50.0</ele><time>2026-03-24T07:50:41Z</time></trkpt><trkpt lat="43.048949015388935" lon="10.728524864229952"><ele>49.0</ele><time>2026-03-24T07:50:42Z</time></trkpt><trkpt lat="43.049097660495946" lon="10.728167359072192"><ele>48.0</ele><time>2026-03-24T07:50:43Z</time></trkpt><trkpt lat="43.049240520389404" lon="10.727793962749352"><ele>46.0</ele><time>2026-03-24T07:50:44Z</time></trkpt><trkpt lat="43.04938819292574" lon="10.727413366683981"><ele>44.0</ele><time>2026-03-24T07:50:45Z</time></trkpt><trkpt lat="43.04954528361265" lon="10.727034882284734"><ele>42.5</ele><time>2026-03-24T07:50:46Z</time></trkpt><trkpt lat="43.04969971575392" lon="10.726669396033182"><ele>41.0</ele><time>2026-03-24T07:50:47Z</time></trkpt><trkpt lat="43.049850010376645" lon="10.726307415649922"><ele>40.5</ele><time>2026-03-24T07:50:48Z</time></trkpt><trkpt lat="43.04998260838601" lon="10.725961130897625"><ele>40.0</ele><time>2026-03-24T07:50:49Z</time></trkpt><trkpt lat="43.05013747127322" lon="10.725632074339567"><ele>40.0</ele><time>2026-03-24T07:50:50Z</time></trkpt><trkpt lat="43.05034297662535" lon="10.72534692674227"><ele>40.0</ele><time>2026-03-24T07:50:51Z</time></trkpt><trkpt lat="43.05058825105985" lon="10.725105691905544"><ele>41.5</ele><time>2026-03-24T07:50:52Z</time></trkpt><trkpt lat="43.050849706224696" lon="10.724880642144448"><ele>43.0</ele><time>2026-03-24T07:50:53Z</time></trkpt><trkpt lat="43.05111421928673" lon="10.724653951035403"><ele>43.0</ele><time>2026-03-24T07:50:54Z</time></trkpt><trkpt lat="43.05137797788437" lon="10.72441166243648"><ele>43.0</ele><time>2026-03-24T07:50:55Z</time></trkpt><trkpt lat="43.05164401485436" lon="10.72416609998007"><ele>44.5</ele><time>2026-03-24T07:50:56Z</time></trkpt><trkpt lat="43.051909096834784" lon="10.723915275861904"><ele>46.0</ele><time>2026-03-24T07:50:57Z</time></trkpt><trkpt lat="43.05217249186378" lon="10.72365978100636"><ele>46.5</ele><time>2026-03-24T07:50:58Z</time></trkpt><trkpt lat="43.05243385425403" lon="10.723401830506013"><ele>47.0</ele><time>2026-03-24T07:50:59Z</time></trkpt><trkpt lat="43.05270103926391" lon="10.723150534984313"><ele>47.5</ele><time>2026-03-24T07:51:00Z</time></trkpt><trkpt lat="43.052978929330564" lon="10.722907362932595"><ele>48.0</ele><time>2026-03-24T07:51:01Z</time></trkpt><trkpt lat="43.05327211752863" lon="10.72269346165752"><ele>49.0</ele><time>2026-03-24T07:51:02Z</time></trkpt><trkpt lat="43.053577908707254" lon="10.722532815489352"><ele>50.0</ele><time>2026-03-24T07:51:03Z</time></trkpt><trkpt lat="43.053896518133925" lon="10.722401930524155"><ele>49.0</ele><time>2026-03-24T07:51:04Z</time></trkpt><trkpt lat="43.054193444727964" lon="10.722271700339604"><ele>48.0</ele><time>2026-03-24T07:51:05Z</time></trkpt><trkpt lat="43.05445728654585" lon="10.7221540588705"><ele>48.0</ele><time>2026-03-24T07:51:06Z</time></trkpt><trkpt lat="43.054706751822394" lon="10.722049156417661"><ele>48.0</ele><time>2026-03-24T07:51:07Z</time></trkpt><trkpt lat="43.05494630046874" lon="10.721958291732177"><ele>50.0</ele><time>2026-03-24T07:51:08Z</time></trkpt><trkpt lat="43.055210122900164" lon="10.7219108631078"><ele>52.0</ele><time>2026-03-24T07:51:09Z</time></trkpt><trkpt lat="43.055479426389944" lon="10.721943537529297"><ele>52.0</ele><time>2026-03-24T07:51:10Z</time></trkpt><trkpt lat="43.05575260737093" lon="10.72198656948463"><ele>52.0</ele><time>2026-03-24T07:51:11Z</time></trkpt><trkpt lat="43.05601966898562" lon="10.722140784636222"><ele>53.0</ele><time>2026-03-24T07:51:12Z</time></trkpt><trkpt lat="43.056311680705235" lon="10.722264028402472"><ele>54.0</ele><time>2026-03-24T07:51:13Z</time></trkpt><trkpt lat="43.05660177130763" lon="10.722392039541724"><ele>54.5</ele><time>2026-03-24T07:51:14Z</time></trkpt><trkpt lat="43.0569043595327" lon="10.7224884147558"><ele>55.0</ele><time>2026-03-24T07:51:15Z</time></trkpt><trkpt lat="43.05720103662695" lon="10.722585205161147"><ele>53.0</ele><time>2026-03-24T07:51:16Z</time></trkpt><trkpt lat="43.05749781862204" lon="10.722682508768042"><ele>51.0</ele><time>2026-03-24T07:51:17Z</time></trkpt><trkpt lat="43.057803495635106" lon="10.722783874146293"><ele>51.0</ele><time>2026-03-24T07:51:18Z</time></trkpt><trkpt lat="43.058108920848014" lon="10.722885073369415"><ele>51.0</ele><time>2026-03-24T07:51:19Z</time></trkpt><trkpt lat="43.058418576087654" lon="10.722982153086058"><ele>48.5</ele><time>2026-03-24T07:51:20Z</time></trkpt><trkpt lat="43.05872857211582" lon="10.72308247900126"><ele>46.0</ele><time>2026-03-24T07:51:21Z</time></trkpt><trkpt lat="43.05903694087892" lon="10.723181893943718"><ele>45.0</ele><time>2026-03-24T07:51:22Z</time></trkpt><trkpt lat="43.05934245681379" lon="10.7232821614371"><ele>44.0</ele><time>2026-03-24T07:51:23Z</time></trkpt><trkpt lat="43.059647131721384" lon="10.723383484866147"><ele>44.0</ele><time>2026-03-24T07:51:24Z</time></trkpt><trkpt lat="43.05994806560838" lon="10.723484709285636"><ele>44.0</ele><time>2026-03-24T07:51:25Z</time></trkpt><trkpt lat="43.06025172568526" lon="10.723578844703187"><ele>44.5</ele><time>2026-03-24T07:51:26Z</time></trkpt><trkpt lat="43.060560734602916" lon="10.723676153286643"><ele>45.0</ele><time>2026-03-24T07:51:27Z</time></trkpt><trkpt lat="43.060877127222426" lon="10.723779422706738"><ele>45.0</ele><time>2026-03-24T07:51:28Z</time></trkpt><trkpt lat="43.06121444682836" lon="10.723890640721148"><ele>45.0</ele><time>2026-03-24T07:51:29Z</time></trkpt><trkpt lat="43.061484012229684" lon="10.723978486862594"><ele>44.5</ele><time>2026-03-24T07:51:30Z</time></trkpt><trkpt lat="43.061742368436526" lon="10.724062429123169"><ele>44.0</ele><time>2026-03-24T07:51:31Z</time></trkpt><trkpt lat="43.062131543892136" lon="10.724064977063092"><ele>44.5</ele><time>2026-03-24T07:51:32Z</time></trkpt><trkpt lat="43.062449831116325" lon="10.724037005704032"><ele>45.0</ele><time>2026-03-24T07:51:33Z</time></trkpt><trkpt lat="43.06276645861455" lon="10.723963301959612"><ele>45.0</ele><time>2026-03-24T07:51:34Z</time></trkpt><trkpt lat="43.06309418673077" lon="10.72389380354441"><ele>45.0</ele><time>2026-03-24T07:51:35Z</time></trkpt><trkpt lat="43.06341977555436" lon="10.723828925680236"><ele>45.5</ele><time>2026-03-24T07:51:36Z</time></trkpt><trkpt lat="43.06374866913026" lon="10.723769925820605"><ele>46.0</ele><time>2026-03-24T07:51:37Z</time></trkpt><trkpt lat="43.064078172921604" lon="10.723721121867435"><ele>45.0</ele><time>2026-03-24T07:51:38Z</time></trkpt><trkpt lat="43.06441672763438" lon="10.723675786128494"><ele>44.0</ele><time>2026-03-24T07:51:39Z</time></trkpt><trkpt lat="43.06475675674183" lon="10.723621433162958"><ele>44.5</ele><time>2026-03-24T07:51:40Z</time></trkpt><trkpt lat="43.065094782206835" lon="10.723569573616562"><ele>45.0</ele><time>2026-03-24T07:51:41Z</time></trkpt><trkpt lat="43.06543177260976" lon="10.723509503115597"><ele>45.0</ele><time>2026-03-24T07:51:42Z</time></trkpt><trkpt lat="43.0657377289535" lon="10.72346040630097"><ele>45.0</ele><time>2026-03-24T07:51:43Z</time></trkpt><trkpt lat="43.06602394196808" lon="10.723419366836591"><ele>45.0</ele><time>2026-03-24T07:51:44Z</time></trkpt><trkpt lat="43.06630217541234" lon="10.723364775432177"><ele>45.0</ele><time>2026-03-24T07:51:45Z</time></trkpt><trkpt lat="43.06657067358255" lon="10.723264227167556"><ele>45.0</ele><time>2026-03-24T07:51:46Z</time></trkpt><trkpt lat="43.066806595810284" lon="10.723116369482094"><ele>45.0</ele><time>2026-03-24T07:51:47Z</time></trkpt><trkpt lat="43.067011970972345" lon="10.722925710374152"><ele>45.0</ele><time>2026-03-24T07:51:48Z</time></trkpt><trkpt lat="43.06719486956712" lon="10.722760258193635"><ele>45.0</ele><time>2026-03-24T07:51:49Z</time></trkpt><trkpt lat="43.0673824399671" lon="10.722616058795063"><ele>45.0</ele><time>2026-03-24T07:51:50Z</time></trkpt><trkpt lat="43.06756411445996" lon="10.722522950377048"><ele>45.333333333333336</ele><time>2026-03-24T07:51:51Z</time></trkpt><trkpt lat="43.067742290690745" lon="10.722346833373305"><ele>45.66666666666667</ele><time>2026-03-24T07:51:52Z</time></trkpt><trkpt lat="43.06791921122884" lon="10.722150023116981"><ele>46.0</ele><time>2026-03-24T07:51:53Z</time></trkpt><trkpt lat="43.06808932950524" lon="10.721901320950915"><ele>45.5</ele><time>2026-03-24T07:51:54Z</time></trkpt><trkpt lat="43.06822553819465" lon="10.721591054731995"><ele>45.0</ele><time>2026-03-24T07:51:55Z</time></trkpt><trkpt lat="43.06836539994613" lon="10.721249421022383"><ele>44.5</ele><time>2026-03-24T07:51:56Z</time></trkpt><trkpt lat="43.06850289330471" lon="10.72088325572313"><ele>44.0</ele><time>2026-03-24T07:51:57Z</time></trkpt><trkpt lat="43.0686728459769" lon="10.720535254036816"><ele>44.0</ele><time>2026-03-24T07:51:58Z</time></trkpt><trkpt lat="43.068841331859495" lon="10.720172491699334"><ele>44.0</ele><time>2026-03-24T07:51:59Z</time></trkpt><trkpt lat="43.06901348288575" lon="10.719802958920091"><ele>44.0</ele><time>2026-03-24T07:52:00Z</time></trkpt><trkpt lat="43.069181930789064" lon="10.719417181113805"><ele>44.0</ele><time>2026-03-24T07:52:01Z</time></trkpt><trkpt lat="43.06936420635952" lon="10.719056421561914"><ele>44.0</ele><time>2026-03-24T07:52:02Z</time></trkpt><trkpt lat="43.06954082387336" lon="10.718677204029744"><ele>44.0</ele><time>2026-03-24T07:52:03Z</time></trkpt><trkpt lat="43.069718375748835" lon="10.71828508015943"><ele>44.0</ele><time>2026-03-24T07:52:04Z</time></trkpt><trkpt lat="43.06989575481951" lon="10.717899592940656"><ele>44.0</ele><time>2026-03-24T07:52:05Z</time></trkpt><trkpt lat="43.07007296531591" lon="10.717513501307584"><ele>44.0</ele><time>2026-03-24T07:52:06Z</time></trkpt><trkpt lat="43.07025450081372" lon="10.717119932274171"><ele>44.0</ele><time>2026-03-24T07:52:07Z</time></trkpt><trkpt lat="43.07043001408946" lon="10.716740191536138"><ele>44.0</ele><time>2026-03-24T07:52:08Z</time></trkpt><trkpt lat="43.070589941862146" lon="10.716406755796614"><ele>44.0</ele><time>2026-03-24T07:52:09Z</time></trkpt><trkpt lat="43.07073441734329" lon="10.716097649737064"><ele>44.0</ele><time>2026-03-24T07:52:10Z</time></trkpt><trkpt lat="43.07087415936809" lon="10.71580452777039"><ele>44.0</ele><time>2026-03-24T07:52:11Z</time></trkpt><trkpt lat="43.07100800557307" lon="10.715521306575983"><ele>44.0</ele><time>2026-03-24T07:52:12Z</time></trkpt><trkpt lat="43.071133893684724" lon="10.715249811990084"><ele>44.0</ele><time>2026-03-24T07:52:13Z</time></trkpt><trkpt lat="43.07124353485722" lon="10.71501072119402"><ele>44.0</ele><time>2026-03-24T07:52:14Z</time></trkpt><trkpt lat="43.07134642212394" lon="10.714791665056397"><ele>44.0</ele><time>2026-03-24T07:52:15Z</time></trkpt><trkpt lat="43.07143062973403" lon="10.714598910724465"><ele>44.0</ele><time>2026-03-24T07:52:16Z</time></trkpt><trkpt lat="43.071504587662055" lon="10.714451465877511"><ele>44.0</ele><time>2026-03-24T07:52:17Z</time></trkpt><trkpt lat="43.07157353559254" lon="10.714339574979212"><ele>44.0</ele><time>2026-03-24T07:52:18Z</time></trkpt><trkpt lat="43.071650011327655" lon="10.71425644690816"><ele>44.0</ele><time>2026-03-24T07:52:19Z</time></trkpt><trkpt lat="43.07174047347375" lon="10.71427748481213"><ele>44.0</ele><time>2026-03-24T07:52:20Z</time></trkpt><trkpt lat="43.07180539439009" lon="10.714235782881008"><ele>44.0</ele><time>2026-03-24T07:52:21Z</time></trkpt><trkpt lat="43.07192108545122" lon="10.714208829968024"><ele>44.0</ele><time>2026-03-24T07:52:23Z</time></trkpt><trkpt lat="43.07207471059035" lon="10.714706546842137"><ele>44.0</ele><time>2026-03-24T07:52:24Z</time></trkpt><trkpt lat="43.07221321104623" lon="10.714883710231238"><ele>44.0</ele><time>2026-03-24T07:52:25Z</time></trkpt><trkpt lat="43.07237089798988" lon="10.71505692943507"><ele>44.0</ele><time>2026-03-24T07:52:26Z</time></trkpt><trkpt lat="43.07254734513556" lon="10.715262816295773"><ele>44.5</ele><time>2026-03-24T07:52:27Z</time></trkpt><trkpt lat="43.072739060347345" lon="10.715495132409325"><ele>45.0</ele><time>2026-03-24T07:52:28Z</time></trkpt><trkpt lat="43.0729317834901" lon="10.71575342282542"><ele>45.0</ele><time>2026-03-24T07:52:29Z</time></trkpt><trkpt lat="43.07313001401876" lon="10.716019983485422"><ele>45.0</ele><time>2026-03-24T07:52:30Z</time></trkpt><trkpt lat="43.07334789311087" lon="10.71628831490027"><ele>45.0</ele><time>2026-03-24T07:52:31Z</time></trkpt><trkpt lat="43.07357375884278" lon="10.71656343590367"><ele>45.0</ele><time>2026-03-24T07:52:32Z</time></trkpt><trkpt lat="43.073801890171175" lon="10.716844329675233"><ele>45.0</ele><time>2026-03-24T07:52:33Z</time></trkpt><trkpt lat="43.07403203496443" lon="10.71713198901949"><ele>45.0</ele><time>2026-03-24T07:52:34Z</time></trkpt><trkpt lat="43.07426350954101" lon="10.717421988340087"><ele>45.0</ele><time>2026-03-24T07:52:35Z</time></trkpt><trkpt lat="43.07450006398293" lon="10.717720767504288"><ele>45.0</ele><time>2026-03-24T07:52:36Z</time></trkpt><trkpt lat="43.07474191813561" lon="10.718022248588591"><ele>45.5</ele><time>2026-03-24T07:52:37Z</time></trkpt><trkpt lat="43.074985795198096" lon="10.718319931563368"><ele>46.0</ele><time>2026-03-24T07:52:38Z</time></trkpt><trkpt lat="43.07522777159855" lon="10.718618152667066"><ele>46.0</ele><time>2026-03-24T07:52:39Z</time></trkpt><trkpt lat="43.07547399618453" lon="10.7189259227706"><ele>46.0</ele><time>2026-03-24T07:52:40Z</time></trkpt><trkpt lat="43.07572267409827" lon="10.71923637807492"><ele>46.5</ele><time>2026-03-24T07:52:41Z</time></trkpt><trkpt lat="43.07597351325969" lon="10.719544925257221"><ele>47.0</ele><time>2026-03-24T07:52:42Z</time></trkpt><trkpt lat="43.076223810429795" lon="10.719856772378721"><ele>47.0</ele><time>2026-03-24T07:52:43Z</time></trkpt><trkpt lat="43.07647274447963" lon="10.720168392648413"><ele>47.0</ele><time>2026-03-24T07:52:44Z</time></trkpt><trkpt lat="43.076726287236006" lon="10.720484257775553"><ele>47.0</ele><time>2026-03-24T07:52:45Z</time></trkpt><trkpt lat="43.07697701690658" lon="10.720796279416087"><ele>47.0</ele><time>2026-03-24T07:52:46Z</time></trkpt><trkpt lat="43.07722925608732" lon="10.72111129620686"><ele>46.5</ele><time>2026-03-24T07:52:47Z</time></trkpt><trkpt lat="43.07747942218684" lon="10.721422252731873"><ele>46.0</ele><time>2026-03-24T07:52:48Z</time></trkpt><trkpt lat="43.07773079001058" lon="10.721735149929405"><ele>46.5</ele><time>2026-03-24T07:52:49Z</time></trkpt><trkpt lat="43.077981711259426" lon="10.722048941625406"><ele>47.0</ele><time>2026-03-24T07:52:50Z</time></trkpt><trkpt lat="43.07823139360912" lon="10.722363451790574"><ele>47.0</ele><time>2026-03-24T07:52:51Z</time></trkpt><trkpt lat="43.0784821935186" lon="10.722675921202137"><ele>47.0</ele><time>2026-03-24T07:52:52Z</time></trkpt><trkpt lat="43.0787352794054" lon="10.722988919815284"><ele>47.0</ele><time>2026-03-24T07:52:53Z</time></trkpt><trkpt lat="43.078987942993024" lon="10.723305897594807"><ele>47.0</ele><time>2026-03-24T07:52:54Z</time></trkpt><trkpt lat="43.07924055679399" lon="10.723627812806205"><ele>47.5</ele><time>2026-03-24T07:52:55Z</time></trkpt><trkpt lat="43.079496543765444" lon="10.72394603301853"><ele>48.0</ele><time>2026-03-24T07:52:56Z</time></trkpt><trkpt lat="43.079752910798376" lon="10.724262011877645"><ele>48.0</ele><time>2026-03-24T07:52:57Z</time></trkpt><trkpt lat="43.08000760035791" lon="10.724583098015534"><ele>48.0</ele><time>2026-03-24T07:52:58Z</time></trkpt><trkpt lat="43.0802617813772" lon="10.724900733808097"><ele>48.0</ele><time>2026-03-24T07:52:59Z</time></trkpt><trkpt lat="43.08051680070793" lon="10.725216395137764"><ele>48.0</ele><time>2026-03-24T07:53:00Z</time></trkpt><trkpt lat="43.08077449278278" lon="10.72553602220564"><ele>48.5</ele><time>2026-03-24T07:53:01Z</time></trkpt><trkpt lat="43.081030000382064" lon="10.72585046352888"><ele>49.0</ele><time>2026-03-24T07:53:02Z</time></trkpt><trkpt lat="43.081282610408145" lon="10.72616833434074"><ele>49.0</ele><time>2026-03-24T07:53:03Z</time></trkpt><trkpt lat="43.08153880568177" lon="10.726491683055581"><ele>49.0</ele><time>2026-03-24T07:53:04Z</time></trkpt><trkpt lat="43.08179858556058" lon="10.726810147828356"><ele>48.5</ele><time>2026-03-24T07:53:05Z</time></trkpt><trkpt lat="43.08205679865287" lon="10.727129231534008"><ele>48.0</ele><time>2026-03-24T07:53:06Z</time></trkpt><trkpt lat="43.082306774616896" lon="10.727449706218692"><ele>49.0</ele><time>2026-03-24T07:53:07Z</time></trkpt><trkpt lat="43.082553744218735" lon="10.727757644573513"><ele>50.0</ele><time>2026-03-24T07:53:08Z</time></trkpt><trkpt lat="43.08277973306725" lon="10.728038230010103"><ele>50.0</ele><time>2026-03-24T07:53:09Z</time></trkpt><trkpt lat="43.08298341387025" lon="10.728294623095776"><ele>50.0</ele><time>2026-03-24T07:53:10Z</time></trkpt><trkpt lat="43.083169593309385" lon="10.728520996764566"><ele>51.0</ele><time>2026-03-24T07:53:11Z</time></trkpt><trkpt lat="43.08334116413468" lon="10.728737250083038"><ele>52.0</ele><time>2026-03-24T07:53:12Z</time></trkpt><trkpt lat="43.0835141809068" lon="10.728939921856595"><ele>52.0</ele><time>2026-03-24T07:53:13Z</time></trkpt><trkpt lat="43.083703641013756" lon="10.729087320451905"><ele>52.0</ele><time>2026-03-24T07:53:14Z</time></trkpt><trkpt lat="43.08392268711229" lon="10.729163928235012"><ele>52.0</ele><time>2026-03-24T07:53:15Z</time></trkpt><trkpt lat="43.0841662351722" lon="10.729187114405029"><ele>52.5</ele><time>2026-03-24T07:53:16Z</time></trkpt><trkpt lat="43.084431740640554" lon="10.729231027363895"><ele>53.0</ele><time>2026-03-24T07:53:17Z</time></trkpt><trkpt lat="43.08469666973994" lon="10.72929380728684"><ele>53.0</ele><time>2026-03-24T07:53:18Z</time></trkpt><trkpt lat="43.08497746978171" lon="10.729359670022285"><ele>53.0</ele><time>2026-03-24T07:53:19Z</time></trkpt><trkpt lat="43.08526513142901" lon="10.729421106652373"><ele>54.0</ele><time>2026-03-24T07:53:20Z</time></trkpt><trkpt lat="43.085560305146224" lon="10.72947600787701"><ele>55.0</ele><time>2026-03-24T07:53:21Z</time></trkpt><trkpt lat="43.08585695035805" lon="10.729538985402911"><ele>56.0</ele><time>2026-03-24T07:53:22Z</time></trkpt><trkpt lat="43.086160900922906" lon="10.72960983841169"><ele>57.0</ele><time>2026-03-24T07:53:23Z</time></trkpt><trkpt lat="43.086471089745345" lon="10.729677301708206"><ele>56.5</ele><time>2026-03-24T07:53:24Z</time></trkpt><trkpt lat="43.08678313003669" lon="10.729743627696442"><ele>56.0</ele><time>2026-03-24T07:53:25Z</time></trkpt><trkpt lat="43.08708470289616" lon="10.729809414182547"><ele>56.0</ele><time>2026-03-24T07:53:26Z</time></trkpt><trkpt lat="43.087361249855775" lon="10.729876048774006"><ele>56.0</ele><time>2026-03-24T07:53:27Z</time></trkpt><trkpt lat="43.08762141599398" lon="10.729925008336991"><ele>56.0</ele><time>2026-03-24T07:53:28Z</time></trkpt><trkpt lat="43.08788089431829" lon="10.729931921274195"><ele>56.0</ele><time>2026-03-24T07:53:29Z</time></trkpt><trkpt lat="43.088140119379865" lon="10.729858575996149"><ele>56.0</ele><time>2026-03-24T07:53:30Z</time></trkpt><trkpt lat="43.0884053958988" lon="10.729759166384698"><ele>56.0</ele><time>2026-03-24T07:53:31Z</time></trkpt><trkpt lat="43.08869292079389" lon="10.729674583853132"><ele>56.0</ele><time>2026-03-24T07:53:32Z</time></trkpt><trkpt lat="43.08898858477767" lon="10.729603212148414"><ele>56.0</ele><time>2026-03-24T07:53:33Z</time></trkpt><trkpt lat="43.089284918854" lon="10.729530283166431"><ele>56.0</ele><time>2026-03-24T07:53:34Z</time></trkpt><trkpt lat="43.08959110229111" lon="10.729449979396236"><ele>56.0</ele><time>2026-03-24T07:53:35Z</time></trkpt><trkpt lat="43.08990154420893" lon="10.729365699991467"><ele>57.0</ele><time>2026-03-24T07:53:36Z</time></trkpt><trkpt lat="43.09021721387982" lon="10.729277889764319"><ele>58.0</ele><time>2026-03-24T07:53:37Z</time></trkpt><trkpt lat="43.0905313051443" lon="10.729191480808737"><ele>59.0</ele><time>2026-03-24T07:53:38Z</time></trkpt><trkpt lat="43.09085720820983" lon="10.729105591467759"><ele>60.0</ele><time>2026-03-24T07:53:39Z</time></trkpt><trkpt lat="43.09117606507959" lon="10.72902349172888"><ele>60.0</ele><time>2026-03-24T07:53:40Z</time></trkpt><trkpt lat="43.091499830953" lon="10.728936151413263"><ele>60.0</ele><time>2026-03-24T07:53:41Z</time></trkpt><trkpt lat="43.09183027317127" lon="10.72884819148576"><ele>60.0</ele><time>2026-03-24T07:53:42Z</time></trkpt><trkpt lat="43.092161424700194" lon="10.728762994946683"><ele>60.0</ele><time>2026-03-24T07:53:43Z</time></trkpt><trkpt lat="43.09249266850897" lon="10.728674047401856"><ele>60.0</ele><time>2026-03-24T07:53:44Z</time></trkpt><trkpt lat="43.092826536849486" lon="10.728584726646861"><ele>60.0</ele><time>2026-03-24T07:53:45Z</time></trkpt><trkpt lat="43.09315991505959" lon="10.728495539990213"><ele>61.5</ele><time>2026-03-24T07:53:46Z</time></trkpt><trkpt lat="43.09349397802744" lon="10.728408689224755"><ele>63.0</ele><time>2026-03-24T07:53:47Z</time></trkpt><trkpt lat="43.09382698191408" lon="10.72831400421475"><ele>61.5</ele><time>2026-03-24T07:53:48Z</time></trkpt><trkpt lat="43.09415883412939" lon="10.72820308685581"><ele>60.0</ele><time>2026-03-24T07:53:49Z</time></trkpt><trkpt lat="43.0944835094663" lon="10.728051723118169"><ele>60.0</ele><time>2026-03-24T07:53:50Z</time></trkpt><trkpt lat="43.09480614919815" lon="10.727892282763316"><ele>60.0</ele><time>2026-03-24T07:53:51Z</time></trkpt><trkpt lat="43.09513263397232" lon="10.72774040702731"><ele>59.0</ele><time>2026-03-24T07:53:52Z</time></trkpt><trkpt lat="43.09545764696597" lon="10.727595664852702"><ele>58.0</ele><time>2026-03-24T07:53:53Z</time></trkpt><trkpt lat="43.09578236644688" lon="10.72744309171948"><ele>60.0</ele><time>2026-03-24T07:53:54Z</time></trkpt><trkpt lat="43.09610918702585" lon="10.727293632177629"><ele>62.0</ele><time>2026-03-24T07:53:55Z</time></trkpt><trkpt lat="43.096436654823634" lon="10.727146810235517"><ele>62.0</ele><time>2026-03-24T07:53:56Z</time></trkpt><trkpt lat="43.0967654958384" lon="10.72699688405516"><ele>62.0</ele><time>2026-03-24T07:53:57Z</time></trkpt><trkpt lat="43.09709420865302" lon="10.726848282270506"><ele>61.5</ele><time>2026-03-24T07:53:58Z</time></trkpt><trkpt lat="43.09742653092458" lon="10.726699522941884"><ele>61.0</ele><time>2026-03-24T07:53:59Z</time></trkpt><trkpt lat="43.09775282224963" lon="10.726549058887317"><ele>61.0</ele><time>2026-03-24T07:54:00Z</time></trkpt><trkpt lat="43.09807169996789" lon="10.72640115072994"><ele>61.0</ele><time>2026-03-24T07:54:01Z</time></trkpt><trkpt lat="43.098365638532165" lon="10.726269460924236"><ele>61.5</ele><time>2026-03-24T07:54:02Z</time></trkpt><trkpt lat="43.0986435958665" lon="10.726135416484864"><ele>62.0</ele><time>2026-03-24T07:54:03Z</time></trkpt><trkpt lat="43.098925091230484" lon="10.72602130096086"><ele>65.0</ele><time>2026-03-24T07:54:04Z</time></trkpt><trkpt lat="43.099223131176494" lon="10.725997246809905"><ele>68.0</ele><time>2026-03-24T07:54:05Z</time></trkpt><trkpt lat="43.09953102165068" lon="10.725999677922289"><ele>68.0</ele><time>2026-03-24T07:54:06Z</time></trkpt><trkpt lat="43.099845668263704" lon="10.726007253824665"><ele>68.0</ele><time>2026-03-24T07:54:07Z</time></trkpt><trkpt lat="43.10016311775269" lon="10.726033374370298"><ele>67.5</ele><time>2026-03-24T07:54:08Z</time></trkpt><trkpt lat="43.10048980411418" lon="10.726039580792476"><ele>67.0</ele><time>2026-03-24T07:54:09Z</time></trkpt><trkpt lat="43.10083733363667" lon="10.726038067546266"><ele>67.0</ele><time>2026-03-24T07:54:10Z</time></trkpt><trkpt lat="43.10114549855055" lon="10.726013337100772"><ele>67.0</ele><time>2026-03-24T07:54:11Z</time></trkpt><trkpt lat="43.101480923006754" lon="10.725998271481656"><ele>66.5</ele><time>2026-03-24T07:54:12Z</time></trkpt><trkpt lat="43.101819119867116" lon="10.725988017811472"><ele>66.0</ele><time>2026-03-24T07:54:13Z</time></trkpt><trkpt lat="43.1021588182247" lon="10.725977762056088"><ele>66.5</ele><time>2026-03-24T07:54:14Z</time></trkpt><trkpt lat="43.10250193032425" lon="10.725965654246924"><ele>67.0</ele><time>2026-03-24T07:54:15Z</time></trkpt><trkpt lat="43.10283993031577" lon="10.725949914467547"><ele>67.0</ele><time>2026-03-24T07:54:16Z</time></trkpt><trkpt lat="43.10314454430055" lon="10.72592931196387"><ele>67.0</ele><time>2026-03-24T07:54:17Z</time></trkpt><trkpt lat="43.103434118526934" lon="10.725909670061357"><ele>67.5</ele><time>2026-03-24T07:54:18Z</time></trkpt><trkpt lat="43.10373750370828" lon="10.725936215065126"><ele>68.0</ele><time>2026-03-24T07:54:19Z</time></trkpt><trkpt lat="43.10404600718855" lon="10.725974731940134"><ele>66.5</ele><time>2026-03-24T07:54:20Z</time></trkpt><trkpt lat="43.10435287488178" lon="10.726061238374266"><ele>65.0</ele><time>2026-03-24T07:54:21Z</time></trkpt><trkpt lat="43.10467009726083" lon="10.726139097330638"><ele>68.0</ele><time>2026-03-24T07:54:22Z</time></trkpt><trkpt lat="43.10498495251435" lon="10.726205557908834"><ele>71.0</ele><time>2026-03-24T07:54:23Z</time></trkpt><trkpt lat="43.1053107941841" lon="10.726273011346073"><ele>71.0</ele><time>2026-03-24T07:54:24Z</time></trkpt><trkpt lat="43.1056375892326" lon="10.72634553992247"><ele>71.0</ele><time>2026-03-24T07:54:25Z</time></trkpt><trkpt lat="43.105965711503316" lon="10.726418106789296"><ele>71.0</ele><time>2026-03-24T07:54:26Z</time></trkpt><trkpt lat="43.106295163257776" lon="10.726495085515495"><ele>71.0</ele><time>2026-03-24T07:54:27Z</time></trkpt><trkpt lat="43.10660294071425" lon="10.726570924739532"><ele>71.5</ele><time>2026-03-24T07:54:28Z</time></trkpt><trkpt lat="43.106873818317176" lon="10.7266439964683"><ele>72.0</ele><time>2026-03-24T07:54:29Z</time></trkpt><trkpt lat="43.1071237908376" lon="10.72672058793829"><ele>72.0</ele><time>2026-03-24T07:54:30Z</time></trkpt><trkpt lat="43.10738407765346" lon="10.726799594901285"><ele>72.0</ele><time>2026-03-24T07:54:31Z</time></trkpt><trkpt lat="43.10764566532372" lon="10.726876821124794"><ele>73.5</ele><time>2026-03-24T07:54:32Z</time></trkpt><trkpt lat="43.10788200427391" lon="10.726947043001195"><ele>75.0</ele><time>2026-03-24T07:54:33Z</time></trkpt><trkpt lat="43.108087546553634" lon="10.727013113276618"><ele>75.33333333333333</ele><time>2026-03-24T07:54:34Z</time></trkpt><trkpt lat="43.10826793371934" lon="10.727087293429356"><ele>75.66666666666666</ele><time>2026-03-24T07:54:35Z</time></trkpt><trkpt lat="43.10842089595021" lon="10.727163218007556"><ele>76.0</ele><time>2026-03-24T07:54:36Z</time></trkpt><trkpt lat="43.10854592631419" lon="10.72722633556289"><ele>76.0</ele><time>2026-03-24T07:54:37Z</time></trkpt><trkpt lat="43.108637563550566" lon="10.727277480075928"><ele>76.0</ele><time>2026-03-24T07:54:38Z</time></trkpt><trkpt lat="43.10874926000834" lon="10.727285121317594"><ele>76.0</ele><time>2026-03-24T07:54:40Z</time></trkpt><trkpt lat="43.108799318202166" lon="10.727211113251952"><ele>76.0</ele><time>2026-03-24T07:54:41Z</time></trkpt><trkpt lat="43.10885137411602" lon="10.727070970276738"><ele>76.0</ele><time>2026-03-24T07:54:42Z</time></trkpt><trkpt lat="43.108892530119235" lon="10.72698843229492"><ele>74.75</ele><time>2026-03-24T07:54:43Z</time></trkpt><trkpt lat="43.108947067696384" lon="10.726889182959995"><ele>73.5</ele><time>2026-03-24T07:54:44Z</time></trkpt><trkpt lat="43.10902746845741" lon="10.726761404236715"><ele>72.25</ele><time>2026-03-24T07:54:45Z</time></trkpt><trkpt lat="43.10913538619049" lon="10.726609306258872"><ele>71.0</ele><time>2026-03-24T07:54:46Z</time></trkpt><trkpt lat="43.10924799710815" lon="10.726421937935964"><ele>70.33333333333334</ele><time>2026-03-24T07:54:47Z</time></trkpt><trkpt lat="43.109355186795284" lon="10.726206176533827"><ele>69.66666666666667</ele><time>2026-03-24T07:54:48Z</time></trkpt><trkpt lat="43.109488642176885" lon="10.725959300784472"><ele>69.0</ele><time>2026-03-24T07:54:49Z</time></trkpt><trkpt lat="43.10961690480087" lon="10.725716990650632"><ele>68.5</ele><time>2026-03-24T07:54:50Z</time></trkpt><trkpt lat="43.10973608438532" lon="10.72548301020304"><ele>68.0</ele><time>2026-03-24T07:54:51Z</time></trkpt><trkpt lat="43.110038460384324" lon="10.725147925031443"><ele>69.0</ele><time>2026-03-24T07:54:52Z</time></trkpt><trkpt lat="43.11024733843455" lon="10.724917439071131"><ele>70.0</ele><time>2026-03-24T07:54:53Z</time></trkpt><trkpt lat="43.110477619892215" lon="10.7247152301924"><ele>70.0</ele><time>2026-03-24T07:54:54Z</time></trkpt><trkpt lat="43.11071604620191" lon="10.72454623723942"><ele>70.0</ele><time>2026-03-24T07:54:55Z</time></trkpt><trkpt lat="43.11096660263966" lon="10.724395196762531"><ele>70.0</ele><time>2026-03-24T07:54:56Z</time></trkpt><trkpt lat="43.11119817144253" lon="10.724281145168503"><ele>70.0</ele><time>2026-03-24T07:54:57Z</time></trkpt><trkpt lat="43.11140136703258" lon="10.724178261657249"><ele>69.0</ele><time>2026-03-24T07:54:58Z</time></trkpt><trkpt lat="43.111592719619104" lon="10.72407949983134"><ele>68.0</ele><time>2026-03-24T07:54:59Z</time></trkpt><trkpt lat="43.11178841234172" lon="10.723967756475009"><ele>67.0</ele><time>2026-03-24T07:55:00Z</time></trkpt><trkpt lat="43.11198482432944" lon="10.72386424490744"><ele>67.0</ele><time>2026-03-24T07:55:01Z</time></trkpt><trkpt lat="43.11216646155746" lon="10.723764452520655"><ele>67.0</ele><time>2026-03-24T07:55:02Z</time></trkpt><trkpt lat="43.112330203649236" lon="10.723652000616966"><ele>67.0</ele><time>2026-03-24T07:55:03Z</time></trkpt><trkpt lat="43.112473684785265" lon="10.723491806788937"><ele>68.0</ele><time>2026-03-24T07:55:04Z</time></trkpt><trkpt lat="43.11258096321056" lon="10.723267514318797"><ele>69.0</ele><time>2026-03-24T07:55:05Z</time></trkpt><trkpt lat="43.11264019362512" lon="10.723017845422993"><ele>70.0</ele><time>2026-03-24T07:55:06Z</time></trkpt><trkpt lat="43.112649102176455" lon="10.722732876330399"><ele>71.0</ele><time>2026-03-24T07:55:07Z</time></trkpt><trkpt lat="43.112641933597146" lon="10.722413513913606"><ele>72.0</ele><time>2026-03-24T07:55:08Z</time></trkpt><trkpt lat="43.11264625921075" lon="10.722083760043425"><ele>72.66666666666667</ele><time>2026-03-24T07:55:09Z</time></trkpt><trkpt lat="43.11266422082519" lon="10.721783947031762"><ele>73.33333333333334</ele><time>2026-03-24T07:55:10Z</time></trkpt><trkpt lat="43.1127082424158" lon="10.721515228536514"><ele>74.0</ele><time>2026-03-24T07:55:11Z</time></trkpt><trkpt lat="43.112810150004925" lon="10.72124803243211"><ele>74.0</ele><time>2026-03-24T07:55:12Z</time></trkpt><trkpt lat="43.1129422597776" lon="10.720985958951266"><ele>74.0</ele><time>2026-03-24T07:55:13Z</time></trkpt><trkpt lat="43.11310679258526" lon="10.720746867138374"><ele>76.0</ele><time>2026-03-24T07:55:14Z</time></trkpt><trkpt lat="43.11331228640948" lon="10.720570410226848"><ele>78.0</ele><time>2026-03-24T07:55:15Z</time></trkpt><trkpt lat="43.11353836314271" lon="10.720434651463382"><ele>78.0</ele><time>2026-03-24T07:55:16Z</time></trkpt><trkpt lat="43.1137882464543" lon="10.720348337968753"><ele>78.0</ele><time>2026-03-24T07:55:17Z</time></trkpt><trkpt lat="43.11405307102129" lon="10.720296860173084"><ele>83.0</ele><time>2026-03-24T07:55:18Z</time></trkpt><trkpt lat="43.114335301367355" lon="10.720274095135126"><ele>88.0</ele><time>2026-03-24T07:55:19Z</time></trkpt><trkpt lat="43.11462211245482" lon="10.720257221132728"><ele>89.5</ele><time>2026-03-24T07:55:20Z</time></trkpt><trkpt lat="43.11492452304552" lon="10.72024406204704"><ele>91.0</ele><time>2026-03-24T07:55:21Z</time></trkpt><trkpt lat="43.11522770891108" lon="10.720196916639631"><ele>85.0</ele><time>2026-03-24T07:55:22Z</time></trkpt><trkpt lat="43.115534476162075" lon="10.720110870571487"><ele>79.0</ele><time>2026-03-24T07:55:23Z</time></trkpt><trkpt lat="43.11584474299844" lon="10.719999523182066"><ele>79.0</ele><time>2026-03-24T07:55:24Z</time></trkpt><trkpt lat="43.1161513547394" lon="10.719879353615813"><ele>79.0</ele><time>2026-03-24T07:55:25Z</time></trkpt><trkpt lat="43.11645249349951" lon="10.719760081760102"><ele>79.5</ele><time>2026-03-24T07:55:26Z</time></trkpt><trkpt lat="43.11675274628368" lon="10.719637701657557"><ele>80.0</ele><time>2026-03-24T07:55:27Z</time></trkpt><trkpt lat="43.117024926503106" lon="10.71949416296167"><ele>80.5</ele><time>2026-03-24T07:55:28Z</time></trkpt><trkpt lat="43.11728449703234" lon="10.719352546985165"><ele>81.0</ele><time>2026-03-24T07:55:29Z</time></trkpt><trkpt lat="43.11751331297818" lon="10.719224738844614"><ele>81.0</ele><time>2026-03-24T07:55:30Z</time></trkpt><trkpt lat="43.1177165011684" lon="10.719139131854726"><ele>81.0</ele><time>2026-03-24T07:55:31Z</time></trkpt><trkpt lat="43.117911753014745" lon="10.719113272644979"><ele>81.0</ele><time>2026-03-24T07:55:32Z</time></trkpt><trkpt lat="43.11810301461811" lon="10.719164022512693"><ele>81.33333333333333</ele><time>2026-03-24T07:55:33Z</time></trkpt><trkpt lat="43.11828404415718" lon="10.719295750237663"><ele>81.66666666666666</ele><time>2026-03-24T07:55:34Z</time></trkpt><trkpt lat="43.11846756247091" lon="10.719507689657624"><ele>82.0</ele><time>2026-03-24T07:55:35Z</time></trkpt><trkpt lat="43.11867512013483" lon="10.719727412548876"><ele>82.0</ele><time>2026-03-24T07:55:36Z</time></trkpt><trkpt lat="43.11890316904044" lon="10.719945466671884"><ele>82.0</ele><time>2026-03-24T07:55:37Z</time></trkpt><trkpt lat="43.11914537940294" lon="10.720158302112095"><ele>87.0</ele><time>2026-03-24T07:55:38Z</time></trkpt><trkpt lat="43.11937777880238" lon="10.72038178165627"><ele>92.0</ele><time>2026-03-24T07:55:39Z</time></trkpt><trkpt lat="43.119618871512266" lon="10.72061129905244"><ele>92.0</ele><time>2026-03-24T07:55:40Z</time></trkpt><trkpt lat="43.11986383873774" lon="10.720837016256352"><ele>92.0</ele><time>2026-03-24T07:55:41Z</time></trkpt><trkpt lat="43.120096862897135" lon="10.721050574046217"><ele>93.5</ele><time>2026-03-24T07:55:42Z</time></trkpt><trkpt lat="43.12032201243422" lon="10.721235928624845"><ele>95.0</ele><time>2026-03-24T07:55:43Z</time></trkpt><trkpt lat="43.12057921805919" lon="10.721338356836883"><ele>93.0</ele><time>2026-03-24T07:55:44Z</time></trkpt><trkpt lat="43.120853516765955" lon="10.721394957827053"><ele>91.0</ele><time>2026-03-24T07:55:45Z</time></trkpt><trkpt lat="43.12114277068563" lon="10.721468693206479"><ele>91.0</ele><time>2026-03-24T07:55:46Z</time></trkpt><trkpt lat="43.121451106823386" lon="10.72150128989912"><ele>91.0</ele><time>2026-03-24T07:55:47Z</time></trkpt><trkpt lat="43.12176384000673" lon="10.721550846427132"><ele>87.0</ele><time>2026-03-24T07:55:48Z</time></trkpt><trkpt lat="43.12203735881666" lon="10.721603509710032"><ele>83.0</ele><time>2026-03-24T07:55:49Z</time></trkpt><trkpt lat="43.122301173352106" lon="10.721617936809547"><ele>80.5</ele><time>2026-03-24T07:55:50Z</time></trkpt><trkpt lat="43.12256495811433" lon="10.721529459465275"><ele>78.0</ele><time>2026-03-24T07:55:51Z</time></trkpt><trkpt lat="43.12281085057703" lon="10.721387729853138"><ele>78.0</ele><time>2026-03-24T07:55:52Z</time></trkpt><trkpt lat="43.123079942971806" lon="10.721231023134994"><ele>78.0</ele><time>2026-03-24T07:55:53Z</time></trkpt><trkpt lat="43.12333539150398" lon="10.72101916668025"><ele>77.5</ele><time>2026-03-24T07:55:54Z</time></trkpt><trkpt lat="43.12360802962683" lon="10.720824297650113"><ele>77.0</ele><time>2026-03-24T07:55:55Z</time></trkpt><trkpt lat="43.12389276961913" lon="10.720641362326647"><ele>78.0</ele><time>2026-03-24T07:55:56Z</time></trkpt><trkpt lat="43.12416502105208" lon="10.720469510042326"><ele>79.0</ele><time>2026-03-24T07:55:57Z</time></trkpt><trkpt lat="43.12440016994854" lon="10.720322342550812"><ele>77.5</ele><time>2026-03-24T07:55:58Z</time></trkpt><trkpt lat="43.12461382549915" lon="10.720181465408675"><ele>76.0</ele><time>2026-03-24T07:55:59Z</time></trkpt><trkpt lat="43.12480287575829" lon="10.71994180658582"><ele>76.0</ele><time>2026-03-24T07:56:00Z</time></trkpt><trkpt lat="43.12494698027533" lon="10.719676678855459"><ele>76.0</ele><time>2026-03-24T07:56:01Z</time></trkpt><trkpt lat="43.12503389593788" lon="10.719395073871773"><ele>76.0</ele><time>2026-03-24T07:56:02Z</time></trkpt><trkpt lat="43.12509718853967" lon="10.719063075453306"><ele>76.0</ele><time>2026-03-24T07:56:03Z</time></trkpt><trkpt lat="43.125160256341324" lon="10.718696048117193"><ele>76.0</ele><time>2026-03-24T07:56:04Z</time></trkpt><trkpt lat="43.12522760311168" lon="10.718304975114862"><ele>76.0</ele><time>2026-03-24T07:56:05Z</time></trkpt><trkpt lat="43.12528534214659" lon="10.717906109416996"><ele>76.0</ele><time>2026-03-24T07:56:06Z</time></trkpt><trkpt lat="43.12534368916827" lon="10.717545620270414"><ele>76.0</ele><time>2026-03-24T07:56:07Z</time></trkpt><trkpt lat="43.125400003566725" lon="10.717234208259145"><ele>76.0</ele><time>2026-03-24T07:56:08Z</time></trkpt><trkpt lat="43.125453739737345" lon="10.716992600292016"><ele>76.0</ele><time>2026-03-24T07:56:09Z</time></trkpt><trkpt lat="43.125454464774826" lon="10.716884388564974"><ele>76.0</ele><time>2026-03-24T07:56:10Z</time></trkpt><trkpt lat="43.12547693487812" lon="10.716669581682764"><ele>76.0</ele><time>2026-03-24T07:56:11Z</time></trkpt><trkpt lat="43.125565346376106" lon="10.71704548319064"><ele>76.0</ele><time>2026-03-24T07:56:12Z</time></trkpt><trkpt lat="43.12563101008405" lon="10.717053245274794"><ele>76.0</ele><time>2026-03-24T07:56:13Z</time></trkpt><trkpt lat="43.125725251832584" lon="10.717065842412929"><ele>76.0</ele><time>2026-03-24T07:56:14Z</time></trkpt><trkpt lat="43.12584461875039" lon="10.717067941298989"><ele>76.0</ele><time>2026-03-24T07:56:15Z</time></trkpt><trkpt lat="43.12594946212837" lon="10.717107619907509"><ele>76.0</ele><time>2026-03-24T07:56:16Z</time></trkpt><trkpt lat="43.12606875492015" lon="10.71713653091433"><ele>76.33333333333333</ele><time>2026-03-24T07:56:17Z</time></trkpt><trkpt lat="43.12623356318805" lon="10.717168503266155"><ele>76.66666666666667</ele><time>2026-03-24T07:56:18Z</time></trkpt><trkpt lat="43.126413929180366" lon="10.71721456623153"><ele>77.0</ele><time>2026-03-24T07:56:19Z</time></trkpt><trkpt lat="43.12661768071588" lon="10.71728231928648"><ele>77.33333333333334</ele><time>2026-03-24T07:56:20Z</time></trkpt><trkpt lat="43.12681915179164" lon="10.717362462256652"><ele>77.66666666666667</ele><time>2026-03-24T07:56:21Z</time></trkpt><trkpt lat="43.12702990017787" lon="10.717481908287859"><ele>78.0</ele><time>2026-03-24T07:56:22Z</time></trkpt><trkpt lat="43.127240405628115" lon="10.717594708127827"><ele>78.5</ele><time>2026-03-24T07:56:23Z</time></trkpt><trkpt lat="43.12746191955454" lon="10.71770664566545"><ele>79.0</ele><time>2026-03-24T07:56:24Z</time></trkpt><trkpt lat="43.127683751015034" lon="10.71780113836368"><ele>79.0</ele><time>2026-03-24T07:56:25Z</time></trkpt><trkpt lat="43.127918638810534" lon="10.71793168453481"><ele>79.0</ele><time>2026-03-24T07:56:26Z</time></trkpt><trkpt lat="43.12816731847028" lon="10.718053336076062"><ele>79.5</ele><time>2026-03-24T07:56:27Z</time></trkpt><trkpt lat="43.12842594539527" lon="10.718184957313749"><ele>80.0</ele><time>2026-03-24T07:56:28Z</time></trkpt><trkpt lat="43.128685291066944" lon="10.718304263058053"><ele>80.0</ele><time>2026-03-24T07:56:29Z</time></trkpt><trkpt lat="43.12894274820856" lon="10.718453786528412"><ele>80.0</ele><time>2026-03-24T07:56:30Z</time></trkpt><trkpt lat="43.12919786135595" lon="10.718568726464689"><ele>80.5</ele><time>2026-03-24T07:56:31Z</time></trkpt><trkpt lat="43.12949840330335" lon="10.718730232120526"><ele>81.0</ele><time>2026-03-24T07:56:32Z</time></trkpt><trkpt lat="43.129772392516834" lon="10.718868462026007"><ele>82.5</ele><time>2026-03-24T07:56:33Z</time></trkpt><trkpt lat="43.130046330915015" lon="10.719038286639591"><ele>84.0</ele><time>2026-03-24T07:56:34Z</time></trkpt><trkpt lat="43.13030007114515" lon="10.71925194237518"><ele>84.5</ele><time>2026-03-24T07:56:35Z</time></trkpt><trkpt lat="43.130533924583354" lon="10.719518084913606"><ele>85.0</ele><time>2026-03-24T07:56:36Z</time></trkpt><trkpt lat="43.130759121172844" lon="10.719805742909594"><ele>85.0</ele><time>2026-03-24T07:56:37Z</time></trkpt><trkpt lat="43.130981404898655" lon="10.720102297077943"><ele>85.0</ele><time>2026-03-24T07:56:38Z</time></trkpt><trkpt lat="43.13120592766946" lon="10.720400426590661"><ele>85.0</ele><time>2026-03-24T07:56:39Z</time></trkpt><trkpt lat="43.131434293611235" lon="10.720713641558952"><ele>85.0</ele><time>2026-03-24T07:56:40Z</time></trkpt><trkpt lat="43.13164542720629" lon="10.72103255323827"><ele>85.5</ele><time>2026-03-24T07:56:41Z</time></trkpt><trkpt lat="43.131836257060684" lon="10.721338541333287"><ele>86.0</ele><time>2026-03-24T07:56:42Z</time></trkpt><trkpt lat="43.13204237420095" lon="10.721643715986218"><ele>87.0</ele><time>2026-03-24T07:56:43Z</time></trkpt><trkpt lat="43.132256134266626" lon="10.721919409690992"><ele>88.0</ele><time>2026-03-24T07:56:44Z</time></trkpt><trkpt lat="43.132481455409405" lon="10.722146444046686"><ele>88.0</ele><time>2026-03-24T07:56:45Z</time></trkpt><trkpt lat="43.132728076084774" lon="10.722343472255142"><ele>88.0</ele><time>2026-03-24T07:56:46Z</time></trkpt><trkpt lat="43.13299109439436" lon="10.72253189732725"><ele>87.5</ele><time>2026-03-24T07:56:47Z</time></trkpt><trkpt lat="43.133249573034966" lon="10.72273821506618"><ele>87.0</ele><time>2026-03-24T07:56:48Z</time></trkpt><trkpt lat="43.13350210034108" lon="10.722961271469346"><ele>87.0</ele><time>2026-03-24T07:56:49Z</time></trkpt><trkpt lat="43.133752961089435" lon="10.723167075683968"><ele>87.0</ele><time>2026-03-24T07:56:50Z</time></trkpt><trkpt lat="43.1339056964147" lon="10.723587590542431"><ele>87.5</ele><time>2026-03-24T07:56:51Z</time></trkpt><trkpt lat="43.13410569133951" lon="10.723914445882333"><ele>88.0</ele><time>2026-03-24T07:56:52Z</time></trkpt><trkpt lat="43.13431968049319" lon="10.724230415382932"><ele>86.5</ele><time>2026-03-24T07:56:53Z</time></trkpt><trkpt lat="43.13453645604443" lon="10.724536458638111"><ele>85.0</ele><time>2026-03-24T07:56:54Z</time></trkpt><trkpt lat="43.13476282472449" lon="10.724836184448302"><ele>85.5</ele><time>2026-03-24T07:56:55Z</time></trkpt><trkpt lat="43.13499889160766" lon="10.725147423816374"><ele>86.0</ele><time>2026-03-24T07:56:56Z</time></trkpt><trkpt lat="43.135251523942166" lon="10.725491804844342"><ele>86.0</ele><time>2026-03-24T07:56:57Z</time></trkpt><trkpt lat="43.13546289245908" lon="10.725776271117253"><ele>86.0</ele><time>2026-03-24T07:56:58Z</time></trkpt><trkpt lat="43.13569689441478" lon="10.726072489179293"><ele>88.0</ele><time>2026-03-24T07:56:59Z</time></trkpt><trkpt lat="43.135942062966805" lon="10.72637590652778"><ele>90.0</ele><time>2026-03-24T07:57:00Z</time></trkpt><trkpt lat="43.136184981812995" lon="10.726680387021045"><ele>90.0</ele><time>2026-03-24T07:57:01Z</time></trkpt><trkpt lat="43.136423025102765" lon="10.72700053522004"><ele>90.0</ele><time>2026-03-24T07:57:02Z</time></trkpt><trkpt lat="43.13665566976762" lon="10.727321781619304"><ele>90.0</ele><time>2026-03-24T07:57:03Z</time></trkpt><trkpt lat="43.13688438737059" lon="10.727636080459643"><ele>90.0</ele><time>2026-03-24T07:57:04Z</time></trkpt><trkpt lat="43.13708143240291" lon="10.72790438427271"><ele>88.0</ele><time>2026-03-24T07:57:05Z</time></trkpt><trkpt lat="43.13726517280985" lon="10.728151451362532"><ele>86.0</ele><time>2026-03-24T07:57:06Z</time></trkpt><trkpt lat="43.13743056003723" lon="10.728358968706512"><ele>87.0</ele><time>2026-03-24T07:57:07Z</time></trkpt><trkpt lat="43.13761227213084" lon="10.728533678692655"><ele>88.0</ele><time>2026-03-24T07:57:08Z</time></trkpt><trkpt lat="43.13781654609174" lon="10.72863733613834"><ele>89.0</ele><time>2026-03-24T07:57:09Z</time></trkpt><trkpt lat="43.1380233851461" lon="10.72867070199001"><ele>89.0</ele><time>2026-03-24T07:57:10Z</time></trkpt><trkpt lat="43.13821222955254" lon="10.728701442741908"><ele>89.0</ele><time>2026-03-24T07:57:11Z</time></trkpt><trkpt lat="43.1385524744335" lon="10.728910151521385"><ele>90.0</ele><time>2026-03-24T07:57:12Z</time></trkpt><trkpt lat="43.13876425577083" lon="10.72911120621277"><ele>91.0</ele><time>2026-03-24T07:57:13Z</time></trkpt><trkpt lat="43.138903179653845" lon="10.729379553491656"><ele>91.0</ele><time>2026-03-24T07:57:14Z</time></trkpt><trkpt lat="43.13901986103866" lon="10.729682443666892"><ele>91.0</ele><time>2026-03-24T07:57:15Z</time></trkpt><trkpt lat="43.13915224114558" lon="10.729936518120137"><ele>91.5</ele><time>2026-03-24T07:57:16Z</time></trkpt><trkpt lat="43.13935353983081" lon="10.730130625490158"><ele>92.0</ele><time>2026-03-24T07:57:17Z</time></trkpt><trkpt lat="43.13959708586391" lon="10.73028608228406"><ele>91.0</ele><time>2026-03-24T07:57:18Z</time></trkpt><trkpt lat="43.13985328037435" lon="10.730445872603447"><ele>90.0</ele><time>2026-03-24T07:57:19Z</time></trkpt><trkpt lat="43.1401133297294" lon="10.73062579499664"><ele>90.0</ele><time>2026-03-24T07:57:20Z</time></trkpt><trkpt lat="43.14037701235571" lon="10.730812860189882"><ele>90.0</ele><time>2026-03-24T07:57:21Z</time></trkpt><trkpt lat="43.14064890622839" lon="10.731007293973741"><ele>90.0</ele><time>2026-03-24T07:57:22Z</time></trkpt><trkpt lat="43.14091853224588" lon="10.731206078572248"><ele>90.0</ele><time>2026-03-24T07:57:23Z</time></trkpt><trkpt lat="43.14119510690415" lon="10.73141703721758"><ele>90.0</ele><time>2026-03-24T07:57:24Z</time></trkpt><trkpt lat="43.14145752221955" lon="10.731613680351623"><ele>90.0</ele><time>2026-03-24T07:57:25Z</time></trkpt><trkpt lat="43.141719218239665" lon="10.731809002165337"><ele>90.5</ele><time>2026-03-24T07:57:26Z</time></trkpt><trkpt lat="43.14194641915118" lon="10.731974803051884"><ele>91.0</ele><time>2026-03-24T07:57:27Z</time></trkpt><trkpt lat="43.142163431097764" lon="10.73209712090123"><ele>92.0</ele><time>2026-03-24T07:57:28Z</time></trkpt><trkpt lat="43.14241011735637" lon="10.732161409192791"><ele>93.0</ele><time>2026-03-24T07:57:29Z</time></trkpt><trkpt lat="43.14265111345334" lon="10.732167049210815"><ele>93.0</ele><time>2026-03-24T07:57:30Z</time></trkpt><trkpt lat="43.14287174976307" lon="10.732103944582475"><ele>93.0</ele><time>2026-03-24T07:57:31Z</time></trkpt><trkpt lat="43.14308908829551" lon="10.73197695330263"><ele>98.5</ele><time>2026-03-24T07:57:32Z</time></trkpt><trkpt lat="43.143315572212096" lon="10.731814759545774"><ele>104.0</ele><time>2026-03-24T07:57:33Z</time></trkpt><trkpt lat="43.143558700117616" lon="10.731666145182691"><ele>104.0</ele><time>2026-03-24T07:57:34Z</time></trkpt><trkpt lat="43.143829919308935" lon="10.731625321735173"><ele>104.0</ele><time>2026-03-24T07:57:35Z</time></trkpt><trkpt lat="43.1441100018949" lon="10.731636367361547"><ele>103.0</ele><time>2026-03-24T07:57:36Z</time></trkpt><trkpt lat="43.144396929849144" lon="10.731647139765501"><ele>102.0</ele><time>2026-03-24T07:57:37Z</time></trkpt><trkpt lat="43.1446853303801" lon="10.73160680710773"><ele>100.5</ele><time>2026-03-24T07:57:38Z</time></trkpt><trkpt lat="43.14498210599913" lon="10.731534729453141"><ele>99.0</ele><time>2026-03-24T07:57:39Z</time></trkpt><trkpt lat="43.14527995976598" lon="10.73144034006111"><ele>99.0</ele><time>2026-03-24T07:57:40Z</time></trkpt><trkpt lat="43.145584180550536" lon="10.731340983448057"><ele>99.0</ele><time>2026-03-24T07:57:41Z</time></trkpt><trkpt lat="43.145857124284724" lon="10.73126110192141"><ele>98.5</ele><time>2026-03-24T07:57:42Z</time></trkpt><trkpt lat="43.14610709865545" lon="10.731186062055333"><ele>98.0</ele><time>2026-03-24T07:57:43Z</time></trkpt><trkpt lat="43.14634590399292" lon="10.731106062353518"><ele>102.0</ele><time>2026-03-24T07:57:44Z</time></trkpt><trkpt lat="43.14658023436665" lon="10.731014156265521"><ele>106.0</ele><time>2026-03-24T07:57:45Z</time></trkpt><trkpt lat="43.14679928963406" lon="10.730878660914302"><ele>106.0</ele><time>2026-03-24T07:57:46Z</time></trkpt><trkpt lat="43.14700853359761" lon="10.730654464768556"><ele>106.0</ele><time>2026-03-24T07:57:47Z</time></trkpt><trkpt lat="43.14721815171574" lon="10.730397133776103"><ele>107.0</ele><time>2026-03-24T07:57:48Z</time></trkpt><trkpt lat="43.14743932599305" lon="10.730155450827477"><ele>108.0</ele><time>2026-03-24T07:57:49Z</time></trkpt><trkpt lat="43.147683750016164" lon="10.729926108830975"><ele>108.0</ele><time>2026-03-24T07:57:50Z</time></trkpt><trkpt lat="43.147945206269085" lon="10.729699436318741"><ele>108.0</ele><time>2026-03-24T07:57:51Z</time></trkpt><trkpt lat="43.14821799041641" lon="10.729481886628971"><ele>108.0</ele><time>2026-03-24T07:57:52Z</time></trkpt><trkpt lat="43.14849327023825" lon="10.729270901720126"><ele>108.0</ele><time>2026-03-24T07:57:53Z</time></trkpt><trkpt lat="43.14874726396459" lon="10.729073082267998"><ele>108.0</ele><time>2026-03-24T07:57:54Z</time></trkpt><trkpt lat="43.14899026687596" lon="10.728881304559746"><ele>108.0</ele><time>2026-03-24T07:57:55Z</time></trkpt><trkpt lat="43.149202677976014" lon="10.728719110275147"><ele>108.33333333333334</ele><time>2026-03-24T07:57:56Z</time></trkpt><trkpt lat="43.14937166282245" lon="10.728588274094463"><ele>108.66666666666667</ele><time>2026-03-24T07:57:57Z</time></trkpt><trkpt lat="43.14950465758369" lon="10.72842920377841"><ele>109.0</ele><time>2026-03-24T07:57:58Z</time></trkpt><trkpt lat="43.1496083710917" lon="10.728210736955669"><ele>109.0</ele><time>2026-03-24T07:57:59Z</time></trkpt><trkpt lat="43.149663322559626" lon="10.727943417366271"><ele>109.0</ele><time>2026-03-24T07:58:00Z</time></trkpt><trkpt lat="43.149690350252186" lon="10.727644651292971"><ele>109.0</ele><time>2026-03-24T07:58:01Z</time></trkpt><trkpt lat="43.14972592163385" lon="10.727318424049407"><ele>111.5</ele><time>2026-03-24T07:58:02Z</time></trkpt><trkpt lat="43.14976929973298" lon="10.726970061657415"><ele>114.0</ele><time>2026-03-24T07:58:03Z</time></trkpt><trkpt lat="43.14981929578617" lon="10.726591325693429"><ele>117.0</ele><time>2026-03-24T07:58:04Z</time></trkpt><trkpt lat="43.14986893085833" lon="10.726218150893013"><ele>120.0</ele><time>2026-03-24T07:58:05Z</time></trkpt><trkpt lat="43.14991937537457" lon="10.725845322572185"><ele>118.0</ele><time>2026-03-24T07:58:06Z</time></trkpt><trkpt lat="43.14996638220432" lon="10.725520885067507"><ele>116.0</ele><time>2026-03-24T07:58:07Z</time></trkpt><trkpt lat="43.150006791254036" lon="10.725262162942505"><ele>114.0</ele><time>2026-03-24T07:58:08Z</time></trkpt><trkpt lat="43.15005856401881" lon="10.725024501663638"><ele>114.0</ele><time>2026-03-24T07:58:09Z</time></trkpt><trkpt lat="43.15014338206021" lon="10.72480877784658"><ele>114.0</ele><time>2026-03-24T07:58:10Z</time></trkpt><trkpt lat="43.1502896467515" lon="10.72466687884434"><ele>114.0</ele><time>2026-03-24T07:58:11Z</time></trkpt><trkpt lat="43.15043151123428" lon="10.724615419982419"><ele>114.0</ele><time>2026-03-24T07:58:12Z</time></trkpt><trkpt lat="43.15059501193857" lon="10.724593587102017"><ele>114.0</ele><time>2026-03-24T07:58:13Z</time></trkpt><trkpt lat="43.15080896124035" lon="10.724543624744904"><ele>114.0</ele><time>2026-03-24T07:58:14Z</time></trkpt><trkpt lat="43.15103539783146" lon="10.72452530681362"><ele>108.5</ele><time>2026-03-24T07:58:15Z</time></trkpt><trkpt lat="43.151281641333654" lon="10.724475936849005"><ele>103.0</ele><time>2026-03-24T07:58:16Z</time></trkpt><trkpt lat="43.15153334640409" lon="10.724421758022062"><ele>103.0</ele><time>2026-03-24T07:58:17Z</time></trkpt><trkpt lat="43.15179189934571" lon="10.724400714511372"><ele>103.0</ele><time>2026-03-24T07:58:18Z</time></trkpt><trkpt lat="43.152006375994375" lon="10.724463797228262"><ele>103.0</ele><time>2026-03-24T07:58:19Z</time></trkpt><trkpt lat="43.15216308576553" lon="10.724511543095927"><ele>103.0</ele><time>2026-03-24T07:58:20Z</time></trkpt><trkpt lat="43.15231201261382" lon="10.724610089858041"><ele>103.0</ele><time>2026-03-24T07:58:21Z</time></trkpt><trkpt lat="43.152483604768776" lon="10.724710326312458"><ele>104.33333333333334</ele><time>2026-03-24T07:58:22Z</time></trkpt><trkpt lat="43.15259163179556" lon="10.724784346820211"><ele>105.66666666666666</ele><time>2026-03-24T07:58:23Z</time></trkpt><trkpt lat="43.152766898187465" lon="10.724591839711879"><ele>107.0</ele><time>2026-03-24T07:58:24Z</time></trkpt><trkpt lat="43.1529078326963" lon="10.724467134133613"><ele>106.66666666666666</ele><time>2026-03-24T07:58:25Z</time></trkpt><trkpt lat="43.153073369443376" lon="10.724309894875883"><ele>106.33333333333334</ele><time>2026-03-24T07:58:26Z</time></trkpt><trkpt lat="43.15325240336677" lon="10.72414680056493"><ele>106.0</ele><time>2026-03-24T07:58:27Z</time></trkpt><trkpt lat="43.15342771676634" lon="10.723988818890941"><ele>110.0</ele><time>2026-03-24T07:58:28Z</time></trkpt><trkpt lat="43.15358584235326" lon="10.723851213358596"><ele>114.0</ele><time>2026-03-24T07:58:29Z</time></trkpt><trkpt lat="43.15371647424985" lon="10.72376044001565"><ele>118.0</ele><time>2026-03-24T07:58:30Z</time></trkpt><trkpt lat="43.15384651449431" lon="10.723737177941002"><ele>118.0</ele><time>2026-03-24T07:58:31Z</time></trkpt><trkpt lat="43.15396017539834" lon="10.723826681032936"><ele>118.0</ele><time>2026-03-24T07:58:32Z</time></trkpt><trkpt lat="43.15411610757148" lon="10.723886346556885"><ele>118.0</ele><time>2026-03-24T07:58:33Z</time></trkpt><trkpt lat="43.15429154261871" lon="10.72398598315186"><ele>121.0</ele><time>2026-03-24T07:58:34Z</time></trkpt><trkpt lat="43.15446717928261" lon="10.724034301378596"><ele>124.0</ele><time>2026-03-24T07:58:35Z</time></trkpt><trkpt lat="43.15462593473334" lon="10.724020160572737"><ele>127.0</ele><time>2026-03-24T07:58:36Z</time></trkpt><trkpt lat="43.15477222108394" lon="10.723908376798443"><ele>127.66666666666667</ele><time>2026-03-24T07:58:37Z</time></trkpt><trkpt lat="43.15494434344478" lon="10.723751896709429"><ele>128.33333333333334</ele><time>2026-03-24T07:58:38Z</time></trkpt><trkpt lat="43.15512595494457" lon="10.723604583906788"><ele>129.0</ele><time>2026-03-24T07:58:39Z</time></trkpt><trkpt lat="43.15533430449577" lon="10.723511098361003"><ele>132.66666666666666</ele><time>2026-03-24T07:58:40Z</time></trkpt><trkpt lat="43.1555385828762" lon="10.723397655078491"><ele>136.33333333333331</ele><time>2026-03-24T07:58:41Z</time></trkpt><trkpt lat="43.155707874512096" lon="10.72332340021443"><ele>140.0</ele><time>2026-03-24T07:58:42Z</time></trkpt><trkpt lat="43.1558080203177" lon="10.723248345019377"><ele>140.0</ele><time>2026-03-24T07:58:43Z</time></trkpt><trkpt lat="43.155856640524014" lon="10.723152103583624"><ele>140.0</ele><time>2026-03-24T07:58:44Z</time></trkpt><trkpt lat="43.15587394616351" lon="10.72302612915776"><ele>140.0</ele><time>2026-03-24T07:58:45Z</time></trkpt><trkpt lat="43.1558101654116" lon="10.722888374224674"><ele>140.0</ele><time>2026-03-24T07:58:46Z</time></trkpt><trkpt lat="43.15568251419708" lon="10.722821932584015"><ele>140.0</ele><time>2026-03-24T07:58:47Z</time></trkpt><trkpt lat="43.15553323221251" lon="10.722840983697083"><ele>141.0</ele><time>2026-03-24T07:58:48Z</time></trkpt><trkpt lat="43.155359425126136" lon="10.722870311247865"><ele>142.0</ele><time>2026-03-24T07:58:49Z</time></trkpt><trkpt lat="43.15518581017577" lon="10.722896576849966"><ele>143.0</ele><time>2026-03-24T07:58:50Z</time></trkpt><trkpt lat="43.15503192845448" lon="10.722870874937184"><ele>143.0</ele><time>2026-03-24T07:58:51Z</time></trkpt><trkpt lat="43.15491672521235" lon="10.722808532927207"><ele>143.0</ele><time>2026-03-24T07:58:52Z</time></trkpt><trkpt lat="43.154854308354835" lon="10.722678648952918"><ele>143.0</ele><time>2026-03-24T07:58:53Z</time></trkpt><trkpt lat="43.15485049503072" lon="10.722508461468195"><ele>143.0</ele><time>2026-03-24T07:58:54Z</time></trkpt><trkpt lat="43.15492607948216" lon="10.722367730503269"><ele>145.66666666666666</ele><time>2026-03-24T07:58:55Z</time></trkpt><trkpt lat="43.15502630673088" lon="10.722215357221353"><ele>148.33333333333334</ele><time>2026-03-24T07:58:56Z</time></trkpt><trkpt lat="43.15514517208933" lon="10.722017022650162"><ele>151.0</ele><time>2026-03-24T07:58:57Z</time></trkpt><trkpt lat="43.15527807812102" lon="10.721809720787586"><ele>151.66666666666669</ele><time>2026-03-24T07:58:58Z</time></trkpt><trkpt lat="43.15541119040985" lon="10.721581973655919"><ele>152.33333333333334</ele><time>2026-03-24T07:58:59Z</time></trkpt><trkpt lat="43.1555477549781" lon="10.721341339947681"><ele>153.0</ele><time>2026-03-24T07:59:00Z</time></trkpt><trkpt lat="43.155690256888825" lon="10.721093987502302"><ele>158.5</ele><time>2026-03-24T07:59:01Z</time></trkpt><trkpt lat="43.15582810485634" lon="10.720835561600762"><ele>164.0</ele><time>2026-03-24T07:59:02Z</time></trkpt><trkpt lat="43.15597426619357" lon="10.72053845510496"><ele>164.0</ele><time>2026-03-24T07:59:03Z</time></trkpt><trkpt lat="43.156118072723835" lon="10.720252923472248"><ele>164.0</ele><time>2026-03-24T07:59:04Z</time></trkpt><trkpt lat="43.1562341521107" lon="10.72001931298959"><ele>165.33333333333331</ele><time>2026-03-24T07:59:05Z</time></trkpt><trkpt lat="43.15632447972153" lon="10.719831661088339"><ele>166.66666666666666</ele><time>2026-03-24T07:59:06Z</time></trkpt><trkpt lat="43.156437661700615" lon="10.719664650681802"><ele>168.0</ele><time>2026-03-24T07:59:07Z</time></trkpt><trkpt lat="43.156616952181764" lon="10.719553584958708"><ele>169.33333333333334</ele><time>2026-03-24T07:59:08Z</time></trkpt><trkpt lat="43.15681092490867" lon="10.719416445164752"><ele>170.66666666666669</ele><time>2026-03-24T07:59:09Z</time></trkpt><trkpt lat="43.157014269864874" lon="10.71930423164853"><ele>172.0</ele><time>2026-03-24T07:59:10Z</time></trkpt><trkpt lat="43.1572240212581" lon="10.719169517711856"><ele>174.66666666666669</ele><time>2026-03-24T07:59:11Z</time></trkpt><trkpt lat="43.15741903938359" lon="10.719045993469122"><ele>177.33333333333334</ele><time>2026-03-24T07:59:12Z</time></trkpt><trkpt lat="43.157636005429595" lon="10.718947358018353"><ele>180.0</ele><time>2026-03-24T07:59:13Z</time></trkpt><trkpt lat="43.157870716367945" lon="10.718854103342533"><ele>180.0</ele><time>2026-03-24T07:59:14Z</time></trkpt><trkpt lat="43.15812264132407" lon="10.71875589115888"><ele>180.0</ele><time>2026-03-24T07:59:15Z</time></trkpt><trkpt lat="43.158382118000276" lon="10.718671208127658"><ele>177.5</ele><time>2026-03-24T07:59:16Z</time></trkpt><trkpt lat="43.158625210762345" lon="10.71866578196247"><ele>175.0</ele><time>2026-03-24T07:59:17Z</time></trkpt><trkpt lat="43.15885510105025" lon="10.718651208737358"><ele>175.66666666666669</ele><time>2026-03-24T07:59:18Z</time></trkpt><trkpt lat="43.15907845385672" lon="10.71864582789239"><ele>176.33333333333334</ele><time>2026-03-24T07:59:19Z</time></trkpt><trkpt lat="43.1592832909856" lon="10.718522740893908"><ele>177.0</ele><time>2026-03-24T07:59:20Z</time></trkpt><trkpt lat="43.159413618084876" lon="10.718413965494186"><ele>179.0</ele><time>2026-03-24T07:59:21Z</time></trkpt><trkpt lat="43.15961648216862" lon="10.718249344111898"><ele>181.0</ele><time>2026-03-24T07:59:22Z</time></trkpt><trkpt lat="43.1598189398604" lon="10.7180570549398"><ele>180.5</ele><time>2026-03-24T07:59:23Z</time></trkpt><trkpt lat="43.160030531320174" lon="10.717881588928238"><ele>180.0</ele><time>2026-03-24T07:59:24Z</time></trkpt><trkpt lat="43.160249877053694" lon="10.717706667315966"><ele>185.0</ele><time>2026-03-24T07:59:25Z</time></trkpt><trkpt lat="43.160465380886365" lon="10.717537322236444"><ele>190.0</ele><time>2026-03-24T07:59:26Z</time></trkpt><trkpt lat="43.16066145229143" lon="10.717373464292923"><ele>191.0</ele><time>2026-03-24T07:59:27Z</time></trkpt><trkpt lat="43.160863346925595" lon="10.717235224160078"><ele>192.0</ele><time>2026-03-24T07:59:28Z</time></trkpt><trkpt lat="43.161052386853115" lon="10.717131665482485"><ele>193.0</ele><time>2026-03-24T07:59:29Z</time></trkpt><trkpt lat="43.16123401126874" lon="10.71698748514867"><ele>195.33333333333331</ele><time>2026-03-24T07:59:30Z</time></trkpt><trkpt lat="43.16141895039691" lon="10.716845419195732"><ele>197.66666666666669</ele><time>2026-03-24T07:59:31Z</time></trkpt><trkpt lat="43.161588135537585" lon="10.716638964907611"><ele>200.0</ele><time>2026-03-24T07:59:32Z</time></trkpt><trkpt lat="43.161751600547476" lon="10.716394438348242"><ele>200.66666666666669</ele><time>2026-03-24T07:59:33Z</time></trkpt><trkpt lat="43.1619044534462" lon="10.716192342859753"><ele>201.33333333333331</ele><time>2026-03-24T07:59:34Z</time></trkpt><trkpt lat="43.16207970772008" lon="10.716071884142075"><ele>202.0</ele><time>2026-03-24T07:59:35Z</time></trkpt><trkpt lat="43.16228047017957" lon="10.715976332545445"><ele>205.66666666666666</ele><time>2026-03-24T07:59:36Z</time></trkpt><trkpt lat="43.16246831397676" lon="10.715945504028308"><ele>209.33333333333331</ele><time>2026-03-24T07:59:37Z</time></trkpt><trkpt lat="43.162669689702255" lon="10.715953081334058"><ele>213.0</ele><time>2026-03-24T07:59:38Z</time></trkpt><trkpt lat="43.16285659524974" lon="10.716011250575546"><ele>214.5</ele><time>2026-03-24T07:59:39Z</time></trkpt><trkpt lat="43.16307830263941" lon="10.71609449969354"><ele>216.0</ele><time>2026-03-24T07:59:40Z</time></trkpt><trkpt lat="43.163311806621785" lon="10.716168827777919"><ele>216.0</ele><time>2026-03-24T07:59:41Z</time></trkpt><trkpt lat="43.163550154588876" lon="10.716239399935672"><ele>216.0</ele><time>2026-03-24T07:59:42Z</time></trkpt><trkpt lat="43.16379694266468" lon="10.71625065237964"><ele>219.0</ele><time>2026-03-24T07:59:43Z</time></trkpt><trkpt lat="43.16404571080041" lon="10.71621222178045"><ele>222.0</ele><time>2026-03-24T07:59:44Z</time></trkpt><trkpt lat="43.16430205866121" lon="10.71616523618102"><ele>222.0</ele><time>2026-03-24T07:59:45Z</time></trkpt><trkpt lat="43.16456094657543" lon="10.716130273375352"><ele>222.0</ele><time>2026-03-24T07:59:46Z</time></trkpt><trkpt lat="43.164827418076406" lon="10.716096695914818"><ele>226.5</ele><time>2026-03-24T07:59:47Z</time></trkpt><trkpt lat="43.165074981848356" lon="10.716046738270109"><ele>231.0</ele><time>2026-03-24T07:59:48Z</time></trkpt><trkpt lat="43.165314969039876" lon="10.715965204924688"><ele>231.0</ele><time>2026-03-24T07:59:49Z</time></trkpt><trkpt lat="43.165562780151134" lon="10.715902287760763"><ele>231.0</ele><time>2026-03-24T07:59:50Z</time></trkpt><trkpt lat="43.16581635734145" lon="10.715853650123815"><ele>232.5</ele><time>2026-03-24T07:59:51Z</time></trkpt><trkpt lat="43.166044445767334" lon="10.715827252352078"><ele>234.0</ele><time>2026-03-24T07:59:52Z</time></trkpt><trkpt lat="43.1662652125557" lon="10.71580572029059"><ele>234.0</ele><time>2026-03-24T07:59:53Z</time></trkpt><trkpt lat="43.166438114481245" lon="10.715794478352235"><ele>234.0</ele><time>2026-03-24T07:59:54Z</time></trkpt><trkpt lat="43.16659905663362" lon="10.715788944998293"><ele>234.0</ele><time>2026-03-24T07:59:55Z</time></trkpt><trkpt lat="43.16677875108872" lon="10.71578213805122"><ele>235.66666666666669</ele><time>2026-03-24T07:59:56Z</time></trkpt><trkpt lat="43.16695510840814" lon="10.715785129041443"><ele>237.33333333333334</ele><time>2026-03-24T07:59:57Z</time></trkpt><trkpt lat="43.167131775151844" lon="10.715844450606845"><ele>239.0</ele><time>2026-03-24T07:59:58Z</time></trkpt><trkpt lat="43.167276294628074" lon="10.715911933973256"><ele>239.5</ele><time>2026-03-24T07:59:59Z</time></trkpt><trkpt lat="43.16741177513878" lon="10.715941022771043"><ele>240.0</ele><time>2026-03-24T08:00:00Z</time></trkpt><trkpt lat="43.167542871627504" lon="10.71590190690015"><ele>240.5</ele><time>2026-03-24T08:00:01Z</time></trkpt><trkpt lat="43.16767149286296" lon="10.715794646046318"><ele>241.0</ele><time>2026-03-24T08:00:02Z</time></trkpt><trkpt lat="43.16781715464374" lon="10.715640718784925"><ele>241.0</ele><time>2026-03-24T08:00:03Z</time></trkpt><trkpt lat="43.16799496686846" lon="10.715477528864092"><ele>241.0</ele><time>2026-03-24T08:00:04Z</time></trkpt><trkpt lat="43.16818016036897" lon="10.715315265879871"><ele>241.0</ele><time>2026-03-24T08:00:05Z</time></trkpt><trkpt lat="43.16837442172404" lon="10.715150456571564"><ele>240.66666666666666</ele><time>2026-03-24T08:00:06Z</time></trkpt><trkpt lat="43.16855061910228" lon="10.715001962302932"><ele>240.33333333333331</ele><time>2026-03-24T08:00:07Z</time></trkpt><trkpt lat="43.168711164038314" lon="10.714862452005429"><ele>240.0</ele><time>2026-03-24T08:00:08Z</time></trkpt><trkpt lat="43.1688643150605" lon="10.71473823793186"><ele>241.66666666666669</ele><time>2026-03-24T08:00:09Z</time></trkpt><trkpt lat="43.169036677802666" lon="10.714607941023429"><ele>243.33333333333334</ele><time>2026-03-24T08:00:10Z</time></trkpt><trkpt lat="43.16923551698292" lon="10.714499618142876"><ele>245.0</ele><time>2026-03-24T08:00:11Z</time></trkpt><trkpt lat="43.16944601976847" lon="10.714451869747906"><ele>245.0</ele><time>2026-03-24T08:00:12Z</time></trkpt><trkpt lat="43.16966504933129" lon="10.714425322745063"><ele>245.0</ele><time>2026-03-24T08:00:13Z</time></trkpt><trkpt lat="43.169892363558894" lon="10.714396157805606"><ele>245.0</ele><time>2026-03-24T08:00:14Z</time></trkpt><trkpt lat="43.1701297158296" lon="10.714362004586217"><ele>245.0</ele><time>2026-03-24T08:00:15Z</time></trkpt><trkpt lat="43.17036667518955" lon="10.7143623742809"><ele>245.0</ele><time>2026-03-24T08:00:16Z</time></trkpt><trkpt lat="43.17060267432268" lon="10.714380909573286"><ele>248.0</ele><time>2026-03-24T08:00:17Z</time></trkpt><trkpt lat="43.17080918938006" lon="10.714374787009392"><ele>251.0</ele><time>2026-03-24T08:00:18Z</time></trkpt><trkpt lat="43.17097197078516" lon="10.714336444996077"><ele>254.0</ele><time>2026-03-24T08:00:19Z</time></trkpt><trkpt lat="43.17108871134934" lon="10.714273788639213"><ele>254.0</ele><time>2026-03-24T08:00:20Z</time></trkpt><trkpt lat="43.171185345426686" lon="10.714254297396838"><ele>254.0</ele><time>2026-03-24T08:00:21Z</time></trkpt><trkpt lat="43.17127129564353" lon="10.714314191808457"><ele>254.0</ele><time>2026-03-24T08:00:22Z</time></trkpt><trkpt lat="43.17135023073453" lon="10.714465572315962"><ele>254.0</ele><time>2026-03-24T08:00:23Z</time></trkpt><trkpt lat="43.1714266277674" lon="10.71464720294621"><ele>255.0</ele><time>2026-03-24T08:00:24Z</time></trkpt><trkpt lat="43.17149172547955" lon="10.714838394880292"><ele>256.0</ele><time>2026-03-24T08:00:25Z</time></trkpt><trkpt lat="43.17152249700295" lon="10.715052825116887"><ele>257.0</ele><time>2026-03-24T08:00:26Z</time></trkpt><trkpt lat="43.17149047035835" lon="10.715280267744333"><ele>258.6666666666667</ele><time>2026-03-24T08:00:27Z</time></trkpt><trkpt lat="43.17140316967323" lon="10.71551571980116"><ele>260.3333333333333</ele><time>2026-03-24T08:00:28Z</time></trkpt><trkpt lat="43.17131647515109" lon="10.715758641205872"><ele>262.0</ele><time>2026-03-24T08:00:29Z</time></trkpt><trkpt lat="43.17127810018026" lon="10.715982810818033"><ele>264.5</ele><time>2026-03-24T08:00:30Z</time></trkpt><trkpt lat="43.17130586426261" lon="10.716178084312233"><ele>267.0</ele><time>2026-03-24T08:00:31Z</time></trkpt><trkpt lat="43.17134814271533" lon="10.716393858228374"><ele>269.5</ele><time>2026-03-24T08:00:32Z</time></trkpt><trkpt lat="43.171328602400195" lon="10.716575108205127"><ele>272.0</ele><time>2026-03-24T08:00:33Z</time></trkpt><trkpt lat="43.17124125112028" lon="10.716730783586037"><ele>272.0</ele><time>2026-03-24T08:00:34Z</time></trkpt><trkpt lat="43.17111968018586" lon="10.716883934130708"><ele>272.0</ele><time>2026-03-24T08:00:35Z</time></trkpt><trkpt lat="43.17101441114216" lon="10.717074897827967"><ele>272.0</ele><time>2026-03-24T08:00:36Z</time></trkpt><trkpt lat="43.170969252507824" lon="10.7172880182678"><ele>273.6</ele><time>2026-03-24T08:00:37Z</time></trkpt><trkpt lat="43.17096606169463" lon="10.717457131368944"><ele>275.2</ele><time>2026-03-24T08:00:38Z</time></trkpt><trkpt lat="43.17101400250578" lon="10.717564961281925"><ele>276.8</ele><time>2026-03-24T08:00:39Z</time></trkpt><trkpt lat="43.17110904062735" lon="10.71763011657448"><ele>278.4</ele><time>2026-03-24T08:00:40Z</time></trkpt><trkpt lat="43.171224128601196" lon="10.717631028035088"><ele>280.0</ele><time>2026-03-24T08:00:41Z</time></trkpt><trkpt lat="43.17134705741532" lon="10.717569771774798"><ele>280.0</ele><time>2026-03-24T08:00:42Z</time></trkpt><trkpt lat="43.17148215964663" lon="10.717462353479181"><ele>280.0</ele><time>2026-03-24T08:00:43Z</time></trkpt><trkpt lat="43.17163102429334" lon="10.717327300730386"><ele>280.0</ele><time>2026-03-24T08:00:44Z</time></trkpt><trkpt lat="43.171783388411406" lon="10.717185589013507"><ele>280.3333333333333</ele><time>2026-03-24T08:00:45Z</time></trkpt><trkpt lat="43.171937056621495" lon="10.716991635762644"><ele>280.6666666666667</ele><time>2026-03-24T08:00:46Z</time></trkpt><trkpt lat="43.17208008188304" lon="10.716758981232028"><ele>281.0</ele><time>2026-03-24T08:00:47Z</time></trkpt><trkpt lat="43.17223664024101" lon="10.716527274228435"><ele>286.0</ele><time>2026-03-24T08:00:48Z</time></trkpt><trkpt lat="43.17241353551508" lon="10.7163139593025"><ele>291.0</ele><time>2026-03-24T08:00:49Z</time></trkpt><trkpt lat="43.1725892214092" lon="10.716138900691975"><ele>292.6666666666667</ele><time>2026-03-24T08:00:50Z</time></trkpt><trkpt lat="43.172769616785736" lon="10.715992467390718"><ele>294.33333333333337</ele><time>2026-03-24T08:00:51Z</time></trkpt><trkpt lat="43.1729827379354" lon="10.715869160181212"><ele>296.0</ele><time>2026-03-24T08:00:52Z</time></trkpt><trkpt lat="43.173204391103035" lon="10.71574982740085"><ele>299.5</ele><time>2026-03-24T08:00:53Z</time></trkpt><trkpt lat="43.17343076360504" lon="10.715633270525846"><ele>303.0</ele><time>2026-03-24T08:00:54Z</time></trkpt><trkpt lat="43.173651126036276" lon="10.715496080231679"><ele>303.0</ele><time>2026-03-24T08:00:55Z</time></trkpt><trkpt lat="43.173859482753485" lon="10.715351681958708"><ele>303.0</ele><time>2026-03-24T08:00:56Z</time></trkpt><trkpt lat="43.17402624706173" lon="10.715237225290688"><ele>303.0</ele><time>2026-03-24T08:00:57Z</time></trkpt><trkpt lat="43.17414816559639" lon="10.715155364394912"><ele>305.0</ele><time>2026-03-24T08:00:58Z</time></trkpt><trkpt lat="43.17425143659519" lon="10.71511385061229"><ele>307.0</ele><time>2026-03-24T08:00:59Z</time></trkpt><trkpt lat="43.174371471824976" lon="10.715133997142177"><ele>309.0</ele><time>2026-03-24T08:01:00Z</time></trkpt><trkpt lat="43.17446094653024" lon="10.71525069759932"><ele>311.0</ele><time>2026-03-24T08:01:01Z</time></trkpt><trkpt lat="43.174490942417464" lon="10.715426496171292"><ele>313.0</ele><time>2026-03-24T08:01:02Z</time></trkpt><trkpt lat="43.17449111869231" lon="10.715614543938269"><ele>315.0</ele><time>2026-03-24T08:01:03Z</time></trkpt><trkpt lat="43.17445882159997" lon="10.715837447628"><ele>317.0</ele><time>2026-03-24T08:01:04Z</time></trkpt><trkpt lat="43.17441184554498" lon="10.716080247566609"><ele>317.6666666666667</ele><time>2026-03-24T08:01:05Z</time></trkpt><trkpt lat="43.17438737914847" lon="10.716345815380205"><ele>318.3333333333333</ele><time>2026-03-24T08:01:06Z</time></trkpt><trkpt lat="43.17440880186407" lon="10.716567778773413"><ele>319.0</ele><time>2026-03-24T08:01:07Z</time></trkpt><trkpt lat="43.17447005232887" lon="10.716735658567837"><ele>319.0</ele><time>2026-03-24T08:01:08Z</time></trkpt><trkpt lat="43.1745542912079" lon="10.716840605061082"><ele>319.0</ele><time>2026-03-24T08:01:09Z</time></trkpt><trkpt lat="43.17465648368639" lon="10.7168665001206"><ele>319.0</ele><time>2026-03-24T08:01:10Z</time></trkpt><trkpt lat="43.174756616743124" lon="10.716819627018161"><ele>319.0</ele><time>2026-03-24T08:01:11Z</time></trkpt><trkpt lat="43.174844644399286" lon="10.716695099709263"><ele>324.0</ele><time>2026-03-24T08:01:12Z</time></trkpt><trkpt lat="43.17493418184257" lon="10.71653056703866"><ele>329.0</ele><time>2026-03-24T08:01:13Z</time></trkpt><trkpt lat="43.17505446592745" lon="10.716358419823154"><ele>334.0</ele><time>2026-03-24T08:01:14Z</time></trkpt><trkpt lat="43.17516334273111" lon="10.716166649494257"><ele>333.6</ele><time>2026-03-24T08:01:15Z</time></trkpt><trkpt lat="43.17524820616858" lon="10.716038140502741"><ele>333.2</ele><time>2026-03-24T08:01:16Z</time></trkpt><trkpt lat="43.175324209286856" lon="10.71595004293339"><ele>332.8</ele><time>2026-03-24T08:01:17Z</time></trkpt><trkpt lat="43.1754155732781" lon="10.715890054047632"><ele>332.40000000000003</ele><time>2026-03-24T08:01:18Z</time></trkpt><trkpt lat="43.17552029565282" lon="10.715853225987832"><ele>332.0</ele><time>2026-03-24T08:01:19Z</time></trkpt><trkpt lat="43.1756266518701" lon="10.715828707020428"><ele>334.33333333333337</ele><time>2026-03-24T08:01:20Z</time></trkpt><trkpt lat="43.175712878234435" lon="10.715784027433507"><ele>336.6666666666667</ele><time>2026-03-24T08:01:21Z</time></trkpt><trkpt lat="43.17576687934811" lon="10.715721665495987"><ele>339.0</ele><time>2026-03-24T08:01:22Z</time></trkpt><trkpt lat="43.17582503065421" lon="10.715673946086525"><ele>341.3333333333333</ele><time>2026-03-24T08:01:23Z</time></trkpt><trkpt lat="43.175880845851104" lon="10.715604925703643"><ele>343.66666666666663</ele><time>2026-03-24T08:01:24Z</time></trkpt><trkpt lat="43.17596679173267" lon="10.715747308004483"><ele>346.0</ele><time>2026-03-24T08:01:25Z</time></trkpt><trkpt lat="43.17604902143781" lon="10.71583924684524"><ele>346.0</ele><time>2026-03-24T08:01:26Z</time></trkpt><trkpt lat="43.176169167146455" lon="10.715919871103576"><ele>346.0</ele><time>2026-03-24T08:01:27Z</time></trkpt><trkpt lat="43.176301528347096" lon="10.71592949753115"><ele>346.0</ele><time>2026-03-24T08:01:28Z</time></trkpt><trkpt lat="43.17644970746458" lon="10.715885341228859"><ele>346.0</ele><time>2026-03-24T08:01:29Z</time></trkpt><trkpt lat="43.176619967774315" lon="10.71582931578768"><ele>347.25</ele><time>2026-03-24T08:01:30Z</time></trkpt><trkpt lat="43.17677942701868" lon="10.715785441264133"><ele>348.5</ele><time>2026-03-24T08:01:31Z</time></trkpt><trkpt lat="43.17693160540079" lon="10.715764870914697"><ele>349.75</ele><time>2026-03-24T08:01:32Z</time></trkpt><trkpt lat="43.177059169518586" lon="10.715717765151766"><ele>351.0</ele><time>2026-03-24T08:01:33Z</time></trkpt><trkpt lat="43.177169167297556" lon="10.715601681214284"><ele>351.0</ele><time>2026-03-24T08:01:34Z</time></trkpt><trkpt lat="43.177259532132666" lon="10.715427871957091"><ele>351.0</ele><time>2026-03-24T08:01:35Z</time></trkpt><trkpt lat="43.177324826524725" lon="10.715280472672747"><ele>351.0</ele><time>2026-03-24T08:01:36Z</time></trkpt><trkpt lat="43.1773803381495" lon="10.715181339251863"><ele>351.0</ele><time>2026-03-24T08:01:37Z</time></trkpt><trkpt lat="43.17746917882016" lon="10.71510584895283"><ele>352.25</ele><time>2026-03-24T08:01:39Z</time></trkpt><trkpt lat="43.17757896800593" lon="10.7151695866612"><ele>353.5</ele><time>2026-03-24T08:01:40Z</time></trkpt><trkpt lat="43.17769227281928" lon="10.715226556687595"><ele>354.75</ele><time>2026-03-24T08:01:41Z</time></trkpt><trkpt lat="43.17781404917912" lon="10.715293867104867"><ele>356.0</ele><time>2026-03-24T08:01:42Z</time></trkpt><trkpt lat="43.17790808825124" lon="10.715393126533142"><ele>356.0</ele><time>2026-03-24T08:01:43Z</time></trkpt><trkpt lat="43.17796232014093" lon="10.715542038854993"><ele>356.0</ele><time>2026-03-24T08:01:44Z</time></trkpt><trkpt lat="43.17795880700571" lon="10.715734306997309"><ele>356.0</ele><time>2026-03-24T08:01:45Z</time></trkpt><trkpt lat="43.177914013948445" lon="10.715929702452854"><ele>356.0</ele><time>2026-03-24T08:01:46Z</time></trkpt><trkpt lat="43.17782495151377" lon="10.716129853363375"><ele>354.75</ele><time>2026-03-24T08:01:47Z</time></trkpt><trkpt lat="43.17772519695603" lon="10.716324581270797"><ele>353.5</ele><time>2026-03-24T08:01:48Z</time></trkpt><trkpt lat="43.17763075587813" lon="10.716472602357376"><ele>352.25</ele><time>2026-03-24T08:01:49Z</time></trkpt><trkpt lat="43.17756761768775" lon="10.716600537233491"><ele>351.0</ele><time>2026-03-24T08:01:50Z</time></trkpt><trkpt lat="43.17754924034864" lon="10.716745361368895"><ele>351.0</ele><time>2026-03-24T08:01:51Z</time></trkpt><trkpt lat="43.177597576734165" lon="10.716895882641106"><ele>351.0</ele><time>2026-03-24T08:01:52Z</time></trkpt><trkpt lat="43.17769157756665" lon="10.717012777148593"><ele>351.0</ele><time>2026-03-24T08:01:53Z</time></trkpt><trkpt lat="43.17782371973295" lon="10.717061367843447"><ele>351.0</ele><time>2026-03-24T08:01:54Z</time></trkpt><trkpt lat="43.17797290958954" lon="10.717076982814245"><ele>351.6666666666667</ele><time>2026-03-24T08:01:55Z</time></trkpt><trkpt lat="43.17811833141525" lon="10.717145811617074"><ele>352.33333333333337</ele><time>2026-03-24T08:01:56Z</time></trkpt><trkpt lat="43.17820870763095" lon="10.717305425883202"><ele>353.0</ele><time>2026-03-24T08:01:57Z</time></trkpt><trkpt lat="43.17821682327589" lon="10.717512351652386"><ele>353.0</ele><time>2026-03-24T08:01:58Z</time></trkpt><trkpt lat="43.178261754528" lon="10.717698796864031"><ele>353.0</ele><time>2026-03-24T08:01:59Z</time></trkpt><trkpt lat="43.17833614102633" lon="10.717857965119055"><ele>353.0</ele><time>2026-03-24T08:02:00Z</time></trkpt><trkpt lat="43.17845487595046" lon="10.717963021300658"><ele>353.0</ele><time>2026-03-24T08:02:01Z</time></trkpt><trkpt lat="43.17858923767111" lon="10.718000260798922"><ele>352.25</ele><time>2026-03-24T08:02:02Z</time></trkpt><trkpt lat="43.17874097609457" lon="10.717969070928653"><ele>351.5</ele><time>2026-03-24T08:02:03Z</time></trkpt><trkpt lat="43.17888732573203" lon="10.71793269401366"><ele>350.75</ele><time>2026-03-24T08:02:04Z</time></trkpt><trkpt lat="43.17897807858661" lon="10.717973551342691"><ele>350.0</ele><time>2026-03-24T08:02:05Z</time></trkpt><trkpt lat="43.1790788670665" lon="10.718095851813848"><ele>350.0</ele><time>2026-03-24T08:02:06Z</time></trkpt><trkpt lat="43.179181538507294" lon="10.718268095375606"><ele>350.0</ele><time>2026-03-24T08:02:07Z</time></trkpt><trkpt lat="43.179251360341084" lon="10.71843392050494"><ele>350.0</ele><time>2026-03-24T08:02:08Z</time></trkpt><trkpt lat="43.17927543393441" lon="10.718641084715774"><ele>348.33333333333337</ele><time>2026-03-24T08:02:09Z</time></trkpt><trkpt lat="43.17926845197752" lon="10.718877120399721"><ele>346.6666666666667</ele><time>2026-03-24T08:02:10Z</time></trkpt><trkpt lat="43.17923281246029" lon="10.719137940266881"><ele>345.0</ele><time>2026-03-24T08:02:11Z</time></trkpt><trkpt lat="43.17918333060909" lon="10.71936399071149"><ele>343.75</ele><time>2026-03-24T08:02:12Z</time></trkpt><trkpt lat="43.1791130112711" lon="10.719542177608226"><ele>342.5</ele><time>2026-03-24T08:02:13Z</time></trkpt><trkpt lat="43.179041630498645" lon="10.71972105993808"><ele>341.25</ele><time>2026-03-24T08:02:14Z</time></trkpt><trkpt lat="43.17901254573409" lon="10.719891142449333"><ele>340.0</ele><time>2026-03-24T08:02:15Z</time></trkpt><trkpt lat="43.17904748761604" lon="10.720030146678935"><ele>340.0</ele><time>2026-03-24T08:02:16Z</time></trkpt><trkpt lat="43.17913874650414" lon="10.72016018173654"><ele>340.0</ele><time>2026-03-24T08:02:17Z</time></trkpt><trkpt lat="43.1792664756479" lon="10.720246891982505"><ele>340.0</ele><time>2026-03-24T08:02:18Z</time></trkpt><trkpt lat="43.17943120740576" lon="10.720337170216572"><ele>337.0</ele><time>2026-03-24T08:02:19Z</time></trkpt><trkpt lat="43.179586200106925" lon="10.720433570487792"><ele>334.0</ele><time>2026-03-24T08:02:20Z</time></trkpt><trkpt lat="43.17971400489553" lon="10.720562478268585"><ele>331.0</ele><time>2026-03-24T08:02:21Z</time></trkpt><trkpt lat="43.1797980211497" lon="10.72072327832339"><ele>331.0</ele><time>2026-03-24T08:02:22Z</time></trkpt><trkpt lat="43.179812231597026" lon="10.720931931134775"><ele>331.0</ele><time>2026-03-24T08:02:23Z</time></trkpt><trkpt lat="43.179827717246475" lon="10.721171259890978"><ele>331.0</ele><time>2026-03-24T08:02:24Z</time></trkpt><trkpt lat="43.17982342024171" lon="10.721455343366298"><ele>328.5</ele><time>2026-03-24T08:02:25Z</time></trkpt><trkpt lat="43.17983353652193" lon="10.72177821405502"><ele>326.0</ele><time>2026-03-24T08:02:26Z</time></trkpt><trkpt lat="43.17984712876247" lon="10.722111488200465"><ele>331.6666666666667</ele><time>2026-03-24T08:02:27Z</time></trkpt><trkpt lat="43.1798515156861" lon="10.722418683854146"><ele>337.3333333333333</ele><time>2026-03-24T08:02:28Z</time></trkpt><trkpt lat="43.17986355856355" lon="10.722659133051994"><ele>343.0</ele><time>2026-03-24T08:02:29Z</time></trkpt><trkpt lat="43.1798625103956" lon="10.722876673694184"><ele>338.0</ele><time>2026-03-24T08:02:30Z</time></trkpt><trkpt lat="43.17978185055655" lon="10.723073225738025"><ele>333.0</ele><time>2026-03-24T08:02:31Z</time></trkpt><trkpt lat="43.17967255163481" lon="10.72326833363105"><ele>328.0</ele><time>2026-03-24T08:02:32Z</time></trkpt><trkpt lat="43.179546591139626" lon="10.723435479953656"><ele>328.3333333333333</ele><time>2026-03-24T08:02:33Z</time></trkpt><trkpt lat="43.1794286338437" lon="10.723601730464042"><ele>328.6666666666667</ele><time>2026-03-24T08:02:34Z</time></trkpt><trkpt lat="43.17931129839741" lon="10.723758224459026"><ele>329.0</ele><time>2026-03-24T08:02:35Z</time></trkpt><trkpt lat="43.179209407548086" lon="10.723910939593335"><ele>329.0</ele><time>2026-03-24T08:02:36Z</time></trkpt><trkpt lat="43.1791175135819" lon="10.72405198081081"><ele>329.0</ele><time>2026-03-24T08:02:37Z</time></trkpt><trkpt lat="43.179050616552495" lon="10.724218016261876"><ele>329.0</ele><time>2026-03-24T08:02:38Z</time></trkpt><trkpt lat="43.17901880374997" lon="10.72441801314553"><ele>329.0</ele><time>2026-03-24T08:02:39Z</time></trkpt><trkpt lat="43.17901044689678" lon="10.724625464433394"><ele>328.5</ele><time>2026-03-24T08:02:40Z</time></trkpt><trkpt lat="43.17903586388627" lon="10.724793710600682"><ele>328.0</ele><time>2026-03-24T08:02:41Z</time></trkpt><trkpt lat="43.179092806723794" lon="10.724935795698434"><ele>327.5</ele><time>2026-03-24T08:02:42Z</time></trkpt><trkpt lat="43.179182286273225" lon="10.72506919613064"><ele>327.0</ele><time>2026-03-24T08:02:43Z</time></trkpt><trkpt lat="43.179309907391506" lon="10.725187224518868"><ele>324.6666666666667</ele><time>2026-03-24T08:02:44Z</time></trkpt><trkpt lat="43.17945188632198" lon="10.725279490627"><ele>322.33333333333337</ele><time>2026-03-24T08:02:45Z</time></trkpt><trkpt lat="43.17961835635567" lon="10.725323642240502"><ele>320.0</ele><time>2026-03-24T08:02:46Z</time></trkpt><trkpt lat="43.179809769811655" lon="10.725355944678679"><ele>320.6666666666667</ele><time>2026-03-24T08:02:47Z</time></trkpt><trkpt lat="43.18002092995904" lon="10.725420975704814"><ele>321.3333333333333</ele><time>2026-03-24T08:02:48Z</time></trkpt><trkpt lat="43.18020571450433" lon="10.72554216409787"><ele>322.0</ele><time>2026-03-24T08:02:49Z</time></trkpt><trkpt lat="43.1803668646585" lon="10.725706402189408"><ele>322.0</ele><time>2026-03-24T08:02:50Z</time></trkpt><trkpt lat="43.18050090564266" lon="10.725924026270068"><ele>322.0</ele><time>2026-03-24T08:02:51Z</time></trkpt><trkpt lat="43.180623824354335" lon="10.726124265246522"><ele>322.0</ele><time>2026-03-24T08:02:52Z</time></trkpt><trkpt lat="43.18073442301558" lon="10.726286907593463"><ele>320.5</ele><time>2026-03-24T08:02:53Z</time></trkpt><trkpt lat="43.18083522753429" lon="10.72642800004139"><ele>319.0</ele><time>2026-03-24T08:02:54Z</time></trkpt><trkpt lat="43.18093292936054" lon="10.726546638344583"><ele>317.5</ele><time>2026-03-24T08:02:55Z</time></trkpt><trkpt lat="43.18103305890424" lon="10.726608495373457"><ele>316.0</ele><time>2026-03-24T08:02:56Z</time></trkpt><trkpt lat="43.181126219398976" lon="10.726599928342594"><ele>316.0</ele><time>2026-03-24T08:02:57Z</time></trkpt><trkpt lat="43.181205525432595" lon="10.726516245662701"><ele>316.0</ele><time>2026-03-24T08:02:58Z</time></trkpt><trkpt lat="43.18124946896269" lon="10.726370185529614"><ele>316.0</ele><time>2026-03-24T08:02:59Z</time></trkpt><trkpt lat="43.181254091603414" lon="10.726184478677483"><ele>316.0</ele><time>2026-03-24T08:03:00Z</time></trkpt><trkpt lat="43.18128065606816" lon="10.726005259327003"><ele>315.40000000000003</ele><time>2026-03-24T08:03:01Z</time></trkpt><trkpt lat="43.18130453527184" lon="10.725869531224985"><ele>314.8</ele><time>2026-03-24T08:03:02Z</time></trkpt><trkpt lat="43.1813943175206" lon="10.725811550374155"><ele>314.20000000000005</ele><time>2026-03-24T08:03:03Z</time></trkpt><trkpt lat="43.1814995051042" lon="10.725848515854349"><ele>313.6</ele><time>2026-03-24T08:03:04Z</time></trkpt><trkpt lat="43.18160629415644" lon="10.725970753924113"><ele>313.0</ele><time>2026-03-24T08:03:05Z</time></trkpt><trkpt lat="43.181724655693515" lon="10.726134967767898"><ele>313.0</ele><time>2026-03-24T08:03:06Z</time></trkpt><trkpt lat="43.18184675649178" lon="10.726267419889293"><ele>313.0</ele><time>2026-03-24T08:03:07Z</time></trkpt><trkpt lat="43.1819893015688" lon="10.726316505583195"><ele>313.0</ele><time>2026-03-24T08:03:08Z</time></trkpt><trkpt lat="43.182151183007754" lon="10.726301920004193"><ele>313.0</ele><time>2026-03-24T08:03:09Z</time></trkpt><trkpt lat="43.18234039644454" lon="10.726268804474449"><ele>313.0</ele><time>2026-03-24T08:03:10Z</time></trkpt><trkpt lat="43.18250150469524" lon="10.726244853019653"><ele>313.0</ele><time>2026-03-24T08:03:11Z</time></trkpt><trkpt lat="43.1826316503608" lon="10.726170643310766"><ele>312.75</ele><time>2026-03-24T08:03:12Z</time></trkpt><trkpt lat="43.18273798891009" lon="10.726080363978634"><ele>312.5</ele><time>2026-03-24T08:03:13Z</time></trkpt><trkpt lat="43.18285404400496" lon="10.726069647868382"><ele>312.25</ele><time>2026-03-24T08:03:14Z</time></trkpt><trkpt lat="43.18296190128665" lon="10.72618444633634"><ele>312.0</ele><time>2026-03-24T08:03:15Z</time></trkpt><trkpt lat="43.18303780309414" lon="10.726385015446207"><ele>312.0</ele><time>2026-03-24T08:03:16Z</time></trkpt><trkpt lat="43.18309981313135" lon="10.726611934249213"><ele>312.0</ele><time>2026-03-24T08:03:17Z</time></trkpt><trkpt lat="43.183173624056835" lon="10.726861268575869"><ele>312.0</ele><time>2026-03-24T08:03:18Z</time></trkpt><trkpt lat="43.18326356360489" lon="10.72711748655867"><ele>311.3333333333333</ele><time>2026-03-24T08:03:19Z</time></trkpt><trkpt lat="43.18338076379118" lon="10.727337141039536"><ele>310.66666666666663</ele><time>2026-03-24T08:03:20Z</time></trkpt><trkpt lat="43.18349911863314" lon="10.727515191258604"><ele>310.0</ele><time>2026-03-24T08:03:21Z</time></trkpt><trkpt lat="43.183595875758684" lon="10.727659337569696"><ele>307.0</ele><time>2026-03-24T08:03:22Z</time></trkpt><trkpt lat="43.18373958527033" lon="10.727792218193086"><ele>304.0</ele><time>2026-03-24T08:03:23Z</time></trkpt><trkpt lat="43.183905955731696" lon="10.727888105511468"><ele>301.0</ele><time>2026-03-24T08:03:24Z</time></trkpt><trkpt lat="43.18402922331026" lon="10.727929689353651"><ele>301.0</ele><time>2026-03-24T08:03:25Z</time></trkpt><trkpt lat="43.18414427226631" lon="10.72793824213988"><ele>301.0</ele><time>2026-03-24T08:03:26Z</time></trkpt><trkpt lat="43.18425407481869" lon="10.72784480377168"><ele>301.0</ele><time>2026-03-24T08:03:27Z</time></trkpt><trkpt lat="43.18436166978604" lon="10.727682651336435"><ele>301.0</ele><time>2026-03-24T08:03:28Z</time></trkpt><trkpt lat="43.18449192762988" lon="10.727481415503478"><ele>304.66666666666663</ele><time>2026-03-24T08:03:29Z</time></trkpt><trkpt lat="43.18464350807527" lon="10.727374328189002"><ele>308.3333333333333</ele><time>2026-03-24T08:03:30Z</time></trkpt><trkpt lat="43.184774526081235" lon="10.727359055423685"><ele>312.0</ele><time>2026-03-24T08:03:31Z</time></trkpt><trkpt lat="43.184907652099916" lon="10.727448562656095"><ele>312.0</ele><time>2026-03-24T08:03:32Z</time></trkpt><trkpt lat="43.18508587338349" lon="10.727530342218868"><ele>312.0</ele><time>2026-03-24T08:03:33Z</time></trkpt><trkpt lat="43.18525376840112" lon="10.727649142553785"><ele>312.0</ele><time>2026-03-24T08:03:34Z</time></trkpt><trkpt lat="43.18538914269617" lon="10.727709933666878"><ele>312.0</ele><time>2026-03-24T08:03:35Z</time></trkpt><trkpt lat="43.1855101368152" lon="10.727708685617506"><ele>312.0</ele><time>2026-03-24T08:03:36Z</time></trkpt><trkpt lat="43.185613873876534" lon="10.727629148485422"><ele>312.0</ele><time>2026-03-24T08:03:37Z</time></trkpt><trkpt lat="43.185712881573444" lon="10.727474089936969"><ele>312.0</ele><time>2026-03-24T08:03:38Z</time></trkpt><trkpt lat="43.18583555055942" lon="10.727294422017678"><ele>314.0</ele><time>2026-03-24T08:03:39Z</time></trkpt><trkpt lat="43.18597686071207" lon="10.72710660241984"><ele>316.0</ele><time>2026-03-24T08:03:40Z</time></trkpt><trkpt lat="43.18609237852978" lon="10.726936767771875"><ele>318.0</ele><time>2026-03-24T08:03:41Z</time></trkpt><trkpt lat="43.1861627411171" lon="10.726761091684509"><ele>318.0</ele><time>2026-03-24T08:03:42Z</time></trkpt><trkpt lat="43.18617285395579" lon="10.726547955720799"><ele>318.0</ele><time>2026-03-24T08:03:43Z</time></trkpt><trkpt lat="43.186151950373706" lon="10.726323772231513"><ele>318.0</ele><time>2026-03-24T08:03:44Z</time></trkpt><trkpt lat="43.18617116261728" lon="10.726136748524066"><ele>320.3333333333333</ele><time>2026-03-24T08:03:45Z</time></trkpt><trkpt lat="43.18628510477137" lon="10.726009079887069"><ele>322.66666666666663</ele><time>2026-03-24T08:03:46Z</time></trkpt><trkpt lat="43.186444558797675" lon="10.72590343680747"><ele>325.0</ele><time>2026-03-24T08:03:47Z</time></trkpt><trkpt lat="43.18661997809544" lon="10.725763697205783"><ele>313.0</ele><time>2026-03-24T08:03:48Z</time></trkpt><trkpt lat="43.1868422609632" lon="10.725660546320482"><ele>301.0</ele><time>2026-03-24T08:03:49Z</time></trkpt><trkpt lat="43.18707179237844" lon="10.72556721298527"><ele>301.0</ele><time>2026-03-24T08:03:50Z</time></trkpt><trkpt lat="43.187290019958965" lon="10.72549734084862"><ele>301.0</ele><time>2026-03-24T08:03:51Z</time></trkpt><trkpt lat="43.18747844443263" lon="10.725453133721897"><ele>301.0</ele><time>2026-03-24T08:03:52Z</time></trkpt><trkpt lat="43.18764127175662" lon="10.725412687022434"><ele>299.25</ele><time>2026-03-24T08:03:53Z</time></trkpt><trkpt lat="43.187771518098394" lon="10.725377255749226"><ele>297.5</ele><time>2026-03-24T08:03:54Z</time></trkpt><trkpt lat="43.18789051977754" lon="10.725370686200396"><ele>295.75</ele><time>2026-03-24T08:03:55Z</time></trkpt><trkpt lat="43.18798823066228" lon="10.725436836977291"><ele>294.0</ele><time>2026-03-24T08:03:56Z</time></trkpt><trkpt lat="43.1881029214128" lon="10.72547920791777"><ele>295.6666666666667</ele><time>2026-03-24T08:03:57Z</time></trkpt><trkpt lat="43.18819651013733" lon="10.72559016670557"><ele>297.33333333333337</ele><time>2026-03-24T08:03:58Z</time></trkpt><trkpt lat="43.18827691168422" lon="10.725773276505695"><ele>299.0</ele><time>2026-03-24T08:03:59Z</time></trkpt><trkpt lat="43.188330742014045" lon="10.726016479141324"><ele>296.6666666666667</ele><time>2026-03-24T08:04:00Z</time></trkpt><trkpt lat="43.18835305713199" lon="10.726289867606024"><ele>294.3333333333333</ele><time>2026-03-24T08:04:01Z</time></trkpt><trkpt lat="43.188354537806" lon="10.72657937284278"><ele>292.0</ele><time>2026-03-24T08:04:02Z</time></trkpt><trkpt lat="43.188357185782735" lon="10.726836325333872"><ele>289.25</ele><time>2026-03-24T08:04:03Z</time></trkpt><trkpt lat="43.18836948136139" lon="10.727021637016637"><ele>286.5</ele><time>2026-03-24T08:04:04Z</time></trkpt><trkpt lat="43.188397840601596" lon="10.727191691517293"><ele>283.75</ele><time>2026-03-24T08:04:05Z</time></trkpt><trkpt lat="43.188466627419984" lon="10.727310471435274"><ele>281.0</ele><time>2026-03-24T08:04:06Z</time></trkpt><trkpt lat="43.188573567067486" lon="10.727350315270966"><ele>281.0</ele><time>2026-03-24T08:04:07Z</time></trkpt><trkpt lat="43.18868282581517" lon="10.727314640161385"><ele>281.0</ele><time>2026-03-24T08:04:08Z</time></trkpt><trkpt lat="43.188811818690084" lon="10.727225592317025"><ele>281.0</ele><time>2026-03-24T08:04:09Z</time></trkpt><trkpt lat="43.18897500163605" lon="10.727147523972643"><ele>281.0</ele><time>2026-03-24T08:04:10Z</time></trkpt><trkpt lat="43.18913112073598" lon="10.727173013593267"><ele>282.25</ele><time>2026-03-24T08:04:11Z</time></trkpt><trkpt lat="43.18925944605518" lon="10.727251521684549"><ele>283.5</ele><time>2026-03-24T08:04:12Z</time></trkpt><trkpt lat="43.189313578340546" lon="10.72741835451698"><ele>284.75</ele><time>2026-03-24T08:04:13Z</time></trkpt><trkpt lat="43.189378973710895" lon="10.727641844712654"><ele>286.0</ele><time>2026-03-24T08:04:14Z</time></trkpt><trkpt lat="43.189346015540124" lon="10.72788754091873"><ele>286.0</ele><time>2026-03-24T08:04:15Z</time></trkpt><trkpt lat="43.18931404700487" lon="10.728142647876833"><ele>286.0</ele><time>2026-03-24T08:04:16Z</time></trkpt><trkpt lat="43.18928224122719" lon="10.728382554785382"><ele>286.0</ele><time>2026-03-24T08:04:17Z</time></trkpt><trkpt lat="43.18930557722731" lon="10.728572326101988"><ele>285.75</ele><time>2026-03-24T08:04:18Z</time></trkpt><trkpt lat="43.1893716260557" lon="10.728715117064006"><ele>285.5</ele><time>2026-03-24T08:04:19Z</time></trkpt><trkpt lat="43.18946246522054" lon="10.728815550604958"><ele>285.25</ele><time>2026-03-24T08:04:20Z</time></trkpt><trkpt lat="43.189616418640256" lon="10.728831410158145"><ele>285.0</ele><time>2026-03-24T08:04:21Z</time></trkpt><trkpt lat="43.18978892263902" lon="10.728827904535875"><ele>282.3333333333333</ele><time>2026-03-24T08:04:22Z</time></trkpt><trkpt lat="43.18998638483685" lon="10.728766700341044"><ele>279.66666666666663</ele><time>2026-03-24T08:04:23Z</time></trkpt><trkpt lat="43.190203275972024" lon="10.728667531927671"><ele>277.0</ele><time>2026-03-24T08:04:24Z</time></trkpt><trkpt lat="43.190434298655255" lon="10.728567892772702"><ele>278.0</ele><time>2026-03-24T08:04:25Z</time></trkpt><trkpt lat="43.19066877554969" lon="10.728476187686041"><ele>279.0</ele><time>2026-03-24T08:04:26Z</time></trkpt><trkpt lat="43.190867135769636" lon="10.728400301652607"><ele>279.0</ele><time>2026-03-24T08:04:27Z</time></trkpt><trkpt lat="43.191096595321135" lon="10.728310144450866"><ele>279.0</ele><time>2026-03-24T08:04:28Z</time></trkpt><trkpt lat="43.19127483377985" lon="10.728242982962028"><ele>279.0</ele><time>2026-03-24T08:04:29Z</time></trkpt><trkpt lat="43.19144799342202" lon="10.728241724072461"><ele>277.6666666666667</ele><time>2026-03-24T08:04:30Z</time></trkpt><trkpt lat="43.19159639991659" lon="10.728327749833314"><ele>276.33333333333337</ele><time>2026-03-24T08:04:31Z</time></trkpt><trkpt lat="43.19173456400212" lon="10.728460762209398"><ele>275.0</ele><time>2026-03-24T08:04:32Z</time></trkpt><trkpt lat="43.19188978397954" lon="10.728616199927314"><ele>269.0</ele><time>2026-03-24T08:04:33Z</time></trkpt><trkpt lat="43.192038107632484" lon="10.728855453123547"><ele>263.0</ele><time>2026-03-24T08:04:34Z</time></trkpt><trkpt lat="43.192174936993105" lon="10.72911727927471"><ele>267.0</ele><time>2026-03-24T08:04:35Z</time></trkpt><trkpt lat="43.19229505318153" lon="10.72941643035379"><ele>271.0</ele><time>2026-03-24T08:04:36Z</time></trkpt><trkpt lat="43.19236537895703" lon="10.729770639511315"><ele>271.0</ele><time>2026-03-24T08:04:37Z</time></trkpt><trkpt lat="43.19244014204144" lon="10.730131671139926"><ele>271.0</ele><time>2026-03-24T08:04:38Z</time></trkpt><trkpt lat="43.19249313922969" lon="10.730499208540785"><ele>268.5</ele><time>2026-03-24T08:04:39Z</time></trkpt><trkpt lat="43.192573663829805" lon="10.730868376620071"><ele>266.0</ele><time>2026-03-24T08:04:40Z</time></trkpt><trkpt lat="43.19266898422404" lon="10.73122991212042"><ele>261.5</ele><time>2026-03-24T08:04:41Z</time></trkpt><trkpt lat="43.19279703349061" lon="10.731582841016218"><ele>257.0</ele><time>2026-03-24T08:04:42Z</time></trkpt><trkpt lat="43.19292810467505" lon="10.731903039836174"><ele>255.5</ele><time>2026-03-24T08:04:43Z</time></trkpt><trkpt lat="43.19306205919954" lon="10.732236399876287"><ele>254.0</ele><time>2026-03-24T08:04:44Z</time></trkpt><trkpt lat="43.19321771560306" lon="10.732537001910332"><ele>255.5</ele><time>2026-03-24T08:04:45Z</time></trkpt><trkpt lat="43.193410684686086" lon="10.732820850661712"><ele>257.0</ele><time>2026-03-24T08:04:46Z</time></trkpt><trkpt lat="43.193615191090906" lon="10.733075563152271"><ele>257.0</ele><time>2026-03-24T08:04:47Z</time></trkpt><trkpt lat="43.19381223378817" lon="10.733329491779612"><ele>257.0</ele><time>2026-03-24T08:04:48Z</time></trkpt><trkpt lat="43.19400881145101" lon="10.73358860452895"><ele>260.0</ele><time>2026-03-24T08:04:49Z</time></trkpt><trkpt lat="43.1942131216352" lon="10.733817511892715"><ele>263.0</ele><time>2026-03-24T08:04:50Z</time></trkpt><trkpt lat="43.194437803815255" lon="10.73400957617533"><ele>263.0</ele><time>2026-03-24T08:04:51Z</time></trkpt><trkpt lat="43.19463504447182" lon="10.734145136086651"><ele>263.0</ele><time>2026-03-24T08:04:52Z</time></trkpt><trkpt lat="43.19478804394155" lon="10.734273320606826"><ele>263.0</ele><time>2026-03-24T08:04:53Z</time></trkpt><trkpt lat="43.194896210228634" lon="10.734403411577809"><ele>262.75</ele><time>2026-03-24T08:04:54Z</time></trkpt><trkpt lat="43.19496059648854" lon="10.734562101435317"><ele>262.5</ele><time>2026-03-24T08:04:55Z</time></trkpt><trkpt lat="43.19490727422779" lon="10.734735539756132"><ele>262.25</ele><time>2026-03-24T08:04:56Z</time></trkpt><trkpt lat="43.194857888054386" lon="10.73494114616411"><ele>262.0</ele><time>2026-03-24T08:04:57Z</time></trkpt><trkpt lat="43.19482387050132" lon="10.735188661045985"><ele>264.0</ele><time>2026-03-24T08:04:58Z</time></trkpt><trkpt lat="43.19484520044879" lon="10.73545109172872"><ele>266.0</ele><time>2026-03-24T08:04:59Z</time></trkpt><trkpt lat="43.19494128946066" lon="10.735714614351474"><ele>268.0</ele><time>2026-03-24T08:05:00Z</time></trkpt><trkpt lat="43.195058954951705" lon="10.735977022659146"><ele>270.0</ele><time>2026-03-24T08:05:01Z</time></trkpt><trkpt lat="43.19516920617937" lon="10.736218077091662"><ele>272.0</ele><time>2026-03-24T08:05:02Z</time></trkpt><trkpt lat="43.19526044898824" lon="10.736396898612059"><ele>274.0</ele><time>2026-03-24T08:05:03Z</time></trkpt><trkpt lat="43.19537352180712" lon="10.73653528683157"><ele>274.0</ele><time>2026-03-24T08:05:04Z</time></trkpt><trkpt lat="43.195536361932284" lon="10.73663240110626"><ele>274.0</ele><time>2026-03-24T08:05:05Z</time></trkpt><trkpt lat="43.19573875530417" lon="10.73669322695755"><ele>274.0</ele><time>2026-03-24T08:05:06Z</time></trkpt><trkpt lat="43.195963651092285" lon="10.736760952881035"><ele>272.3333333333333</ele><time>2026-03-24T08:05:07Z</time></trkpt><trkpt lat="43.196185271036384" lon="10.736845060657924"><ele>270.6666666666667</ele><time>2026-03-24T08:05:08Z</time></trkpt><trkpt lat="43.196371943254924" lon="10.736920808601083"><ele>269.0</ele><time>2026-03-24T08:05:09Z</time></trkpt><trkpt lat="43.19650041890934" lon="10.73697033729159"><ele>270.5</ele><time>2026-03-24T08:05:10Z</time></trkpt><trkpt lat="43.19660410932247" lon="10.737027367917657"><ele>272.0</ele><time>2026-03-24T08:05:11Z</time></trkpt><trkpt lat="43.19666949916226" lon="10.737140347719276"><ele>273.5</ele><time>2026-03-24T08:05:12Z</time></trkpt><trkpt lat="43.196708032046274" lon="10.737323585816913"><ele>275.0</ele><time>2026-03-24T08:05:13Z</time></trkpt><trkpt lat="43.19672743621371" lon="10.73754079051471"><ele>276.33333333333337</ele><time>2026-03-24T08:05:14Z</time></trkpt><trkpt lat="43.19675673887819" lon="10.737744790346463"><ele>277.6666666666667</ele><time>2026-03-24T08:05:15Z</time></trkpt><trkpt lat="43.19684110422043" lon="10.73788677588213"><ele>279.0</ele><time>2026-03-24T08:05:16Z</time></trkpt><trkpt lat="43.19700063239852" lon="10.737950134091097"><ele>279.0</ele><time>2026-03-24T08:05:17Z</time></trkpt><trkpt lat="43.19717279365602" lon="10.737956882071355"><ele>279.0</ele><time>2026-03-24T08:05:18Z</time></trkpt><trkpt lat="43.19735993989025" lon="10.73793579109581"><ele>279.0</ele><time>2026-03-24T08:05:19Z</time></trkpt><trkpt lat="43.197564837661886" lon="10.737962388515482"><ele>279.0</ele><time>2026-03-24T08:05:20Z</time></trkpt><trkpt lat="43.19777539654177" lon="10.737973988659816"><ele>279.0</ele><time>2026-03-24T08:05:21Z</time></trkpt><trkpt lat="43.19798287255973" lon="10.737984791628307"><ele>279.0</ele><time>2026-03-24T08:05:22Z</time></trkpt><trkpt lat="43.19809988575269" lon="10.737905732168125"><ele>280.0</ele><time>2026-03-24T08:05:23Z</time></trkpt><trkpt lat="43.19822743520374" lon="10.737869225400337"><ele>281.0</ele><time>2026-03-24T08:05:24Z</time></trkpt><trkpt lat="43.19834551625604" lon="10.737864663953363"><ele>282.0</ele><time>2026-03-24T08:05:25Z</time></trkpt><trkpt lat="43.19846942303768" lon="10.737761375986851"><ele>283.0</ele><time>2026-03-24T08:05:26Z</time></trkpt><trkpt lat="43.19857501605966" lon="10.73770254842144"><ele>282.75</ele><time>2026-03-24T08:05:27Z</time></trkpt><trkpt lat="43.19868227357414" lon="10.737654419044508"><ele>282.5</ele><time>2026-03-24T08:05:28Z</time></trkpt><trkpt lat="43.19880080730368" lon="10.737603058603568"><ele>282.25</ele><time>2026-03-24T08:05:29Z</time></trkpt><trkpt lat="43.198921945048006" lon="10.737548671836525"><ele>282.0</ele><time>2026-03-24T08:05:30Z</time></trkpt><trkpt lat="43.19903719102917" lon="10.737502384292663"><ele>282.0</ele><time>2026-03-24T08:05:31Z</time></trkpt><trkpt lat="43.19914499791401" lon="10.737454359095654"><ele>282.0</ele><time>2026-03-24T08:05:32Z</time></trkpt><trkpt lat="43.19924410661101" lon="10.73740688623351"><ele>282.0</ele><time>2026-03-24T08:05:33Z</time></trkpt><trkpt lat="43.19936198335352" lon="10.737350247920238"><ele>282.0</ele><time>2026-03-24T08:05:34Z</time></trkpt><trkpt lat="43.199487411010026" lon="10.737292554746606"><ele>282.0</ele><time>2026-03-24T08:05:35Z</time></trkpt><trkpt lat="43.19961677023306" lon="10.737233627300434"><ele>282.0</ele><time>2026-03-24T08:05:36Z</time></trkpt><trkpt lat="43.199736528702466" lon="10.737182670918289"><ele>282.0</ele><time>2026-03-24T08:05:37Z</time></trkpt><trkpt lat="43.19982330475958" lon="10.737062934447017"><ele>282.0</ele><time>2026-03-24T08:05:38Z</time></trkpt><trkpt lat="43.19995829528356" lon="10.73723139251854"><ele>282.25</ele><time>2026-03-24T08:05:39Z</time></trkpt><trkpt lat="43.200068391833355" lon="10.737314350660888"><ele>282.5</ele><time>2026-03-24T08:05:40Z</time></trkpt><trkpt lat="43.20015619048901" lon="10.73743548995451"><ele>282.75</ele><time>2026-03-24T08:05:41Z</time></trkpt><trkpt lat="43.20023565673998" lon="10.7375714320536"><ele>283.0</ele><time>2026-03-24T08:05:42Z</time></trkpt><trkpt lat="43.20031820993121" lon="10.737674508174125"><ele>283.0</ele><time>2026-03-24T08:05:43Z</time></trkpt><trkpt lat="43.20041922215735" lon="10.73772807649333"><ele>283.0</ele><time>2026-03-24T08:05:44Z</time></trkpt><trkpt lat="43.20053129850509" lon="10.737719702567288"><ele>283.0</ele><time>2026-03-24T08:05:45Z</time></trkpt><trkpt lat="43.2006494816729" lon="10.737692090131722"><ele>283.0</ele><time>2026-03-24T08:05:46Z</time></trkpt><trkpt lat="43.20075333951455" lon="10.737665143062372"><ele>283.0</ele><time>2026-03-24T08:05:47Z</time></trkpt><trkpt lat="43.2008418240656" lon="10.737663786804761"><ele>282.3333333333333</ele><time>2026-03-24T08:05:48Z</time></trkpt><trkpt lat="43.20091790644228" lon="10.73770842491148"><ele>281.66666666666663</ele><time>2026-03-24T08:05:49Z</time></trkpt><trkpt lat="43.200970201531554" lon="10.737783832440948"><ele>281.0</ele><time>2026-03-24T08:05:50Z</time></trkpt><trkpt lat="43.201006557136495" lon="10.737888805927724"><ele>280.3333333333333</ele><time>2026-03-24T08:05:51Z</time></trkpt><trkpt lat="43.20104716133265" lon="10.737995148091327"><ele>279.6666666666667</ele><time>2026-03-24T08:05:52Z</time></trkpt><trkpt lat="43.20110143199176" lon="10.738082991278318"><ele>279.0</ele><time>2026-03-24T08:05:53Z</time></trkpt><trkpt lat="43.20116724339541" lon="10.738126760028806"><ele>279.5</ele><time>2026-03-24T08:05:54Z</time></trkpt><trkpt lat="43.20123777753227" lon="10.73815968021977"><ele>280.0</ele><time>2026-03-24T08:05:55Z</time></trkpt><trkpt lat="43.20132288281974" lon="10.738176028761599"><ele>280.5</ele><time>2026-03-24T08:05:56Z</time></trkpt><trkpt lat="43.2013940129067" lon="10.73814661443927"><ele>281.0</ele><time>2026-03-24T08:05:57Z</time></trkpt><trkpt lat="43.201448621584554" lon="10.738086623739255"><ele>281.5</ele><time>2026-03-24T08:05:58Z</time></trkpt><trkpt lat="43.20149166738099" lon="10.737998355511237"><ele>282.0</ele><time>2026-03-24T08:05:59Z</time></trkpt><trkpt lat="43.20152807080717" lon="10.737882288964492"><ele>282.0</ele><time>2026-03-24T08:06:00Z</time></trkpt><trkpt lat="43.201555315445496" lon="10.737754141220671"><ele>282.0</ele><time>2026-03-24T08:06:01Z</time></trkpt><trkpt lat="43.201578805314526" lon="10.737621625799687"><ele>282.0</ele><time>2026-03-24T08:06:02Z</time></trkpt><trkpt lat="43.20159234409395" lon="10.737469867582115"><ele>282.0</ele><time>2026-03-24T08:06:03Z</time></trkpt><trkpt lat="43.20161654862941" lon="10.737272210514153"><ele>280.0</ele><time>2026-03-24T08:06:04Z</time></trkpt><trkpt lat="43.20164549433822" lon="10.737037724506024"><ele>278.0</ele><time>2026-03-24T08:06:05Z</time></trkpt><trkpt lat="43.201690425772526" lon="10.736765167393328"><ele>276.0</ele><time>2026-03-24T08:06:06Z</time></trkpt><trkpt lat="43.201724274766406" lon="10.73652133464191"><ele>275.0</ele><time>2026-03-24T08:06:07Z</time></trkpt><trkpt lat="43.201752467578544" lon="10.736273861862044"><ele>274.0</ele><time>2026-03-24T08:06:08Z</time></trkpt><trkpt lat="43.20177326218564" lon="10.73606260640864"><ele>273.0</ele><time>2026-03-24T08:06:09Z</time></trkpt><trkpt lat="43.20182886360173" lon="10.735855898278999"><ele>271.3333333333333</ele><time>2026-03-24T08:06:10Z</time></trkpt><trkpt lat="43.201921523374565" lon="10.735666308542992"><ele>269.66666666666663</ele><time>2026-03-24T08:06:11Z</time></trkpt><trkpt lat="43.2020686340263" lon="10.735485407942914"><ele>268.0</ele><time>2026-03-24T08:06:12Z</time></trkpt><trkpt lat="43.20222043677827" lon="10.735275968455241"><ele>263.0</ele><time>2026-03-24T08:06:13Z</time></trkpt><trkpt lat="43.20236318339032" lon="10.735121977155755"><ele>258.0</ele><time>2026-03-24T08:06:14Z</time></trkpt><trkpt lat="43.202520991910674" lon="10.735008606420207"><ele>253.0</ele><time>2026-03-24T08:06:15Z</time></trkpt><trkpt lat="43.202678810494106" lon="10.734959835655003"><ele>253.0</ele><time>2026-03-24T08:06:16Z</time></trkpt><trkpt lat="43.202887897107914" lon="10.73491364987141"><ele>253.0</ele><time>2026-03-24T08:06:17Z</time></trkpt><trkpt lat="43.20312414909533" lon="10.73485324537491"><ele>252.0</ele><time>2026-03-24T08:06:18Z</time></trkpt><trkpt lat="43.20336708240505" lon="10.734798288696116"><ele>251.0</ele><time>2026-03-24T08:06:19Z</time></trkpt><trkpt lat="43.203629826226276" lon="10.734717522855195"><ele>251.0</ele><time>2026-03-24T08:06:20Z</time></trkpt><trkpt lat="43.20386728456184" lon="10.734649715613408"><ele>251.0</ele><time>2026-03-24T08:06:21Z</time></trkpt><trkpt lat="43.204144228702475" lon="10.734600012074482"><ele>250.5</ele><time>2026-03-24T08:06:22Z</time></trkpt><trkpt lat="43.20439242673152" lon="10.73455720052557"><ele>250.0</ele><time>2026-03-24T08:06:23Z</time></trkpt><trkpt lat="43.2046286040718" lon="10.734471848455652"><ele>244.0</ele><time>2026-03-24T08:06:24Z</time></trkpt><trkpt lat="43.20485951702073" lon="10.734320919899364"><ele>238.0</ele><time>2026-03-24T08:06:25Z</time></trkpt><trkpt lat="43.20508322767737" lon="10.734115184928724"><ele>238.0</ele><time>2026-03-24T08:06:26Z</time></trkpt><trkpt lat="43.20529840027369" lon="10.733890069827972"><ele>238.0</ele><time>2026-03-24T08:06:27Z</time></trkpt><trkpt lat="43.20548152039064" lon="10.73368145212616"><ele>236.0</ele><time>2026-03-24T08:06:28Z</time></trkpt><trkpt lat="43.20564401326764" lon="10.733479833177231"><ele>234.0</ele><time>2026-03-24T08:06:29Z</time></trkpt><trkpt lat="43.205806183243865" lon="10.733258859573688"><ele>232.0</ele><time>2026-03-24T08:06:30Z</time></trkpt><trkpt lat="43.2059423706399" lon="10.733098004234536"><ele>232.0</ele><time>2026-03-24T08:06:31Z</time></trkpt><trkpt lat="43.206057692115316" lon="10.732980731421236"><ele>232.0</ele><time>2026-03-24T08:06:32Z</time></trkpt><trkpt lat="43.20618617534088" lon="10.732926208400919"><ele>232.0</ele><time>2026-03-24T08:06:33Z</time></trkpt><trkpt lat="43.206323331773255" lon="10.733050592433603"><ele>232.0</ele><time>2026-03-24T08:06:34Z</time></trkpt><trkpt lat="43.20645424489907" lon="10.733145800298082"><ele>228.33333333333331</ele><time>2026-03-24T08:06:35Z</time></trkpt><trkpt lat="43.20659706045175" lon="10.733302461197981"><ele>224.66666666666669</ele><time>2026-03-24T08:06:36Z</time></trkpt><trkpt lat="43.20671334934863" lon="10.733536440804885"><ele>221.0</ele><time>2026-03-24T08:06:37Z</time></trkpt><trkpt lat="43.20682001020319" lon="10.733763906453575"><ele>226.5</ele><time>2026-03-24T08:06:38Z</time></trkpt><trkpt lat="43.20689138570083" lon="10.73395766374717"><ele>232.0</ele><time>2026-03-24T08:06:39Z</time></trkpt><trkpt lat="43.20694825663162" lon="10.734082441951495"><ele>237.5</ele><time>2026-03-24T08:06:40Z</time></trkpt><trkpt lat="43.207039254795696" lon="10.734127245988677"><ele>243.0</ele><time>2026-03-24T08:06:41Z</time></trkpt><trkpt lat="43.20715902069008" lon="10.734083783077288"><ele>243.0</ele><time>2026-03-24T08:06:42Z</time></trkpt><trkpt lat="43.20725036372609" lon="10.733958250081876"><ele>243.0</ele><time>2026-03-24T08:06:43Z</time></trkpt><trkpt lat="43.207292061329404" lon="10.73378253950367"><ele>243.0</ele><time>2026-03-24T08:06:44Z</time></trkpt><trkpt lat="43.207311965159235" lon="10.733578055471288"><ele>243.0</ele><time>2026-03-24T08:06:45Z</time></trkpt><trkpt lat="43.2073253757468" lon="10.733329768484694"><ele>237.0</ele><time>2026-03-24T08:06:46Z</time></trkpt><trkpt lat="43.20733531474507" lon="10.73307733661797"><ele>231.0</ele><time>2026-03-24T08:06:47Z</time></trkpt><trkpt lat="43.20732253485618" lon="10.732852429461749"><ele>225.0</ele><time>2026-03-24T08:06:48Z</time></trkpt><trkpt lat="43.207326307400116" lon="10.732682293296977"><ele>222.5</ele><time>2026-03-24T08:06:49Z</time></trkpt><trkpt lat="43.207382987849016" lon="10.73256565763197"><ele>220.0</ele><time>2026-03-24T08:06:50Z</time></trkpt><trkpt lat="43.20748137674416" lon="10.732459457505502"><ele>217.5</ele><time>2026-03-24T08:06:51Z</time></trkpt><trkpt lat="43.207626103641275" lon="10.732480406798238"><ele>215.0</ele><time>2026-03-24T08:06:52Z</time></trkpt><trkpt lat="43.20774148528979" lon="10.732585698430318"><ele>215.0</ele><time>2026-03-24T08:06:53Z</time></trkpt><trkpt lat="43.20795760515828" lon="10.732667957237453"><ele>215.0</ele><time>2026-03-24T08:06:54Z</time></trkpt><trkpt lat="43.208121536224276" lon="10.732764829261741"><ele>215.0</ele><time>2026-03-24T08:06:55Z</time></trkpt><trkpt lat="43.20830944394752" lon="10.732840878936832"><ele>229.0</ele><time>2026-03-24T08:06:56Z</time></trkpt><trkpt lat="43.20855420993225" lon="10.732953103258714"><ele>243.0</ele><time>2026-03-24T08:06:57Z</time></trkpt><trkpt lat="43.20878591272742" lon="10.733015417199912"><ele>238.5</ele><time>2026-03-24T08:06:58Z</time></trkpt><trkpt lat="43.20901508050786" lon="10.733025812229526"><ele>234.0</ele><time>2026-03-24T08:06:59Z</time></trkpt><trkpt lat="43.209246586394876" lon="10.732948332286425"><ele>234.0</ele><time>2026-03-24T08:07:00Z</time></trkpt><trkpt lat="43.20948195367031" lon="10.732817333712006"><ele>234.0</ele><time>2026-03-24T08:07:01Z</time></trkpt><trkpt lat="43.20974475305496" lon="10.732696778342541"><ele>226.5</ele><time>2026-03-24T08:07:02Z</time></trkpt><trkpt lat="43.21002066208903" lon="10.732595165750087"><ele>219.0</ele><time>2026-03-24T08:07:03Z</time></trkpt><trkpt lat="43.21029945420463" lon="10.732487995920023"><ele>219.0</ele><time>2026-03-24T08:07:04Z</time></trkpt><trkpt lat="43.210580288780385" lon="10.732373173230583"><ele>219.0</ele><time>2026-03-24T08:07:05Z</time></trkpt><trkpt lat="43.21086295591075" lon="10.732307435546751"><ele>219.5</ele><time>2026-03-24T08:07:06Z</time></trkpt><trkpt lat="43.21116581609384" lon="10.73225959785342"><ele>220.0</ele><time>2026-03-24T08:07:07Z</time></trkpt><trkpt lat="43.211440039031345" lon="10.732201391388813"><ele>220.5</ele><time>2026-03-24T08:07:08Z</time></trkpt><trkpt lat="43.2117283993607" lon="10.732160403030317"><ele>221.0</ele><time>2026-03-24T08:07:09Z</time></trkpt><trkpt lat="43.212010146625424" lon="10.7321283596749"><ele>221.0</ele><time>2026-03-24T08:07:10Z</time></trkpt><trkpt lat="43.21227928653243" lon="10.732130703224172"><ele>221.0</ele><time>2026-03-24T08:07:11Z</time></trkpt><trkpt lat="43.21251123048214" lon="10.732189267353865"><ele>219.0</ele><time>2026-03-24T08:07:12Z</time></trkpt><trkpt lat="43.212688932350396" lon="10.732271104209143"><ele>217.0</ele><time>2026-03-24T08:07:13Z</time></trkpt><trkpt lat="43.212829829476114" lon="10.73239881088778"><ele>215.0</ele><time>2026-03-24T08:07:14Z</time></trkpt><trkpt lat="43.212961359572496" lon="10.73257277544923"><ele>215.0</ele><time>2026-03-24T08:07:15Z</time></trkpt><trkpt lat="43.213066532925474" lon="10.732703609853841"><ele>215.0</ele><time>2026-03-24T08:07:16Z</time></trkpt><trkpt lat="43.213182887837114" lon="10.732794138624817"><ele>215.0</ele><time>2026-03-24T08:07:17Z</time></trkpt><trkpt lat="43.21338139936592" lon="10.73291128628255"><ele>216.0</ele><time>2026-03-24T08:07:18Z</time></trkpt><trkpt lat="43.21355218365332" lon="10.73294832641025"><ele>217.0</ele><time>2026-03-24T08:07:19Z</time></trkpt><trkpt lat="43.21371591181399" lon="10.732925289942143"><ele>218.0</ele><time>2026-03-24T08:07:20Z</time></trkpt><trkpt lat="43.21385859310057" lon="10.732804852485861"><ele>216.33333333333334</ele><time>2026-03-24T08:07:21Z</time></trkpt><trkpt lat="43.2140004542459" lon="10.732606430770284"><ele>214.66666666666669</ele><time>2026-03-24T08:07:22Z</time></trkpt><trkpt lat="43.214125846096955" lon="10.732363055432764"><ele>213.0</ele><time>2026-03-24T08:07:23Z</time></trkpt><trkpt lat="43.21421875124434" lon="10.732116743405184"><ele>213.0</ele><time>2026-03-24T08:07:24Z</time></trkpt><trkpt lat="43.21430061060613" lon="10.731917199399634"><ele>213.0</ele><time>2026-03-24T08:07:25Z</time></trkpt><trkpt lat="43.21441517525206" lon="10.731790183686817"><ele>213.0</ele><time>2026-03-24T08:07:26Z</time></trkpt><trkpt lat="43.21458883636782" lon="10.731690126445516"><ele>210.33333333333331</ele><time>2026-03-24T08:07:27Z</time></trkpt><trkpt lat="43.21480611740665" lon="10.731624806112174"><ele>207.66666666666666</ele><time>2026-03-24T08:07:28Z</time></trkpt><trkpt lat="43.215009086701805" lon="10.731537743590977"><ele>205.0</ele><time>2026-03-24T08:07:29Z</time></trkpt><trkpt lat="43.215170073820644" lon="10.731472985744142"><ele>205.0</ele><time>2026-03-24T08:07:30Z</time></trkpt><trkpt lat="43.2153303996481" lon="10.731465220211867"><ele>205.0</ele><time>2026-03-24T08:07:31Z</time></trkpt><trkpt lat="43.21546889659303" lon="10.731516998542306"><ele>205.0</ele><time>2026-03-24T08:07:32Z</time></trkpt><trkpt lat="43.21557214800473" lon="10.731678382624471"><ele>205.0</ele><time>2026-03-24T08:07:33Z</time></trkpt><trkpt lat="43.21566010443499" lon="10.731871320998913"><ele>205.0</ele><time>2026-03-24T08:07:34Z</time></trkpt><trkpt lat="43.21574973612141" lon="10.73208631529362"><ele>205.0</ele><time>2026-03-24T08:07:35Z</time></trkpt><trkpt lat="43.21590754411078" lon="10.732217341332456"><ele>205.0</ele><time>2026-03-24T08:07:36Z</time></trkpt><trkpt lat="43.21609358211568" lon="10.73229320655804"><ele>205.0</ele><time>2026-03-24T08:07:37Z</time></trkpt><trkpt lat="43.21632741466227" lon="10.73227591039368"><ele>205.0</ele><time>2026-03-24T08:07:38Z</time></trkpt><trkpt lat="43.21652473688698" lon="10.7322189898975"><ele>206.25</ele><time>2026-03-24T08:07:39Z</time></trkpt><trkpt lat="43.21670297065551" lon="10.732141308999863"><ele>207.5</ele><time>2026-03-24T08:07:40Z</time></trkpt><trkpt lat="43.21683116453816" lon="10.732088135791898"><ele>208.75</ele><time>2026-03-24T08:07:41Z</time></trkpt><trkpt lat="43.21695491041808" lon="10.732072769586589"><ele>210.0</ele><time>2026-03-24T08:07:42Z</time></trkpt><trkpt lat="43.21714509970819" lon="10.73211944437441"><ele>210.0</ele><time>2026-03-24T08:07:43Z</time></trkpt><trkpt lat="43.217299217085085" lon="10.732275151534292"><ele>210.0</ele><time>2026-03-24T08:07:44Z</time></trkpt><trkpt lat="43.21744590666456" lon="10.732471833317616"><ele>210.0</ele><time>2026-03-24T08:07:45Z</time></trkpt><trkpt lat="43.21754430697278" lon="10.732686754167352"><ele>209.0</ele><time>2026-03-24T08:07:46Z</time></trkpt><trkpt lat="43.21755637999401" lon="10.732870307793489"><ele>208.0</ele><time>2026-03-24T08:07:47Z</time></trkpt><trkpt lat="43.21754576572077" lon="10.733047637945834"><ele>207.0</ele><time>2026-03-24T08:07:48Z</time></trkpt><trkpt lat="43.2175429484104" lon="10.733294441812737"><ele>206.0</ele><time>2026-03-24T08:07:49Z</time></trkpt><trkpt lat="43.21759276914821" lon="10.733480852055127"><ele>207.33333333333334</ele><time>2026-03-24T08:07:50Z</time></trkpt><trkpt lat="43.21769728682089" lon="10.733582212418874"><ele>208.66666666666669</ele><time>2026-03-24T08:07:51Z</time></trkpt><trkpt lat="43.217855638580026" lon="10.733664683802418"><ele>210.0</ele><time>2026-03-24T08:07:52Z</time></trkpt><trkpt lat="43.218007092351755" lon="10.73374097938856"><ele>210.0</ele><time>2026-03-24T08:07:53Z</time></trkpt><trkpt lat="43.218116859679206" lon="10.733930104457508"><ele>210.0</ele><time>2026-03-24T08:07:54Z</time></trkpt><trkpt lat="43.21825266478108" lon="10.734096995514742"><ele>210.0</ele><time>2026-03-24T08:07:55Z</time></trkpt><trkpt lat="43.21843619516542" lon="10.734284063168337"><ele>210.33333333333331</ele><time>2026-03-24T08:07:56Z</time></trkpt><trkpt lat="43.21863705168706" lon="10.73439409454409"><ele>210.66666666666666</ele><time>2026-03-24T08:07:57Z</time></trkpt><trkpt lat="43.21884173061113" lon="10.7344615013137"><ele>211.0</ele><time>2026-03-24T08:07:58Z</time></trkpt><trkpt lat="43.219078159790335" lon="10.734500320790836"><ele>206.5</ele><time>2026-03-24T08:07:59Z</time></trkpt><trkpt lat="43.219350837585594" lon="10.734552199232734"><ele>202.0</ele><time>2026-03-24T08:08:00Z</time></trkpt><trkpt lat="43.219582308847585" lon="10.734613116192685"><ele>202.0</ele><time>2026-03-24T08:08:01Z</time></trkpt><trkpt lat="43.21975536037667" lon="10.734675934642523"><ele>202.0</ele><time>2026-03-24T08:08:02Z</time></trkpt><trkpt lat="43.21988753549328" lon="10.734795130133138"><ele>202.0</ele><time>2026-03-24T08:08:03Z</time></trkpt><trkpt lat="43.219991992542255" lon="10.734950862194957"><ele>200.0</ele><time>2026-03-24T08:08:04Z</time></trkpt><trkpt lat="43.22011031036742" lon="10.73517193398042"><ele>198.0</ele><time>2026-03-24T08:08:05Z</time></trkpt><trkpt lat="43.22020207077198" lon="10.73540054668755"><ele>196.0</ele><time>2026-03-24T08:08:06Z</time></trkpt><trkpt lat="43.22026537802897" lon="10.735537177469459"><ele>196.0</ele><time>2026-03-24T08:08:07Z</time></trkpt><trkpt lat="43.22036443342948" lon="10.73561104287972"><ele>196.0</ele><time>2026-03-24T08:08:08Z</time></trkpt><trkpt lat="43.220465566282186" lon="10.735581716218782"><ele>196.0</ele><time>2026-03-24T08:08:09Z</time></trkpt><trkpt lat="43.220544781781705" lon="10.73550147855182"><ele>196.0</ele><time>2026-03-24T08:08:10Z</time></trkpt><trkpt lat="43.220571102754455" lon="10.73529689910672"><ele>195.66666666666666</ele><time>2026-03-24T08:08:11Z</time></trkpt><trkpt lat="43.22055979794147" lon="10.735133646286663"><ele>195.33333333333331</ele><time>2026-03-24T08:08:12Z</time></trkpt><trkpt lat="43.22059773209913" lon="10.734939030037719"><ele>195.0</ele><time>2026-03-24T08:08:13Z</time></trkpt><trkpt lat="43.22067460690462" lon="10.734710482874323"><ele>192.0</ele><time>2026-03-24T08:08:14Z</time></trkpt><trkpt lat="43.22076455872051" lon="10.734379748527555"><ele>189.0</ele><time>2026-03-24T08:08:15Z</time></trkpt><trkpt lat="43.22081012461063" lon="10.734070206263354"><ele>189.0</ele><time>2026-03-24T08:08:16Z</time></trkpt><trkpt lat="43.220825772042254" lon="10.733788313636477"><ele>189.0</ele><time>2026-03-24T08:08:17Z</time></trkpt><trkpt lat="43.22088406270758" lon="10.733613685197705"><ele>189.0</ele><time>2026-03-24T08:08:18Z</time></trkpt><trkpt lat="43.22096719040631" lon="10.733486476317527"><ele>186.75</ele><time>2026-03-24T08:08:19Z</time></trkpt><trkpt lat="43.22107969552082" lon="10.733379531923196"><ele>184.5</ele><time>2026-03-24T08:08:20Z</time></trkpt><trkpt lat="43.22122709152875" lon="10.733225058831053"><ele>182.25</ele><time>2026-03-24T08:08:21Z</time></trkpt><trkpt lat="43.22127516416167" lon="10.733150145758785"><ele>180.0</ele><time>2026-03-24T08:08:22Z</time></trkpt><trkpt lat="43.221313091143784" lon="10.73299827800743"><ele>180.0</ele><time>2026-03-24T08:08:23Z</time></trkpt><trkpt lat="43.22127122995459" lon="10.732787475301587"><ele>180.0</ele><time>2026-03-24T08:08:24Z</time></trkpt><trkpt lat="43.22118920819353" lon="10.73257124876745"><ele>180.0</ele><time>2026-03-24T08:08:25Z</time></trkpt><trkpt lat="43.22109075861873" lon="10.732337788289009"><ele>178.33333333333334</ele><time>2026-03-24T08:08:26Z</time></trkpt><trkpt lat="43.220997683573664" lon="10.732062905681651"><ele>176.66666666666669</ele><time>2026-03-24T08:08:27Z</time></trkpt><trkpt lat="43.22092435155517" lon="10.731776867051929"><ele>175.0</ele><time>2026-03-24T08:08:28Z</time></trkpt><trkpt lat="43.22090246010693" lon="10.731492864906853"><ele>175.0</ele><time>2026-03-24T08:08:29Z</time></trkpt><trkpt lat="43.22088837162645" lon="10.731185656930952"><ele>175.0</ele><time>2026-03-24T08:08:30Z</time></trkpt><trkpt lat="43.22089625978283" lon="10.730879465170128"><ele>175.0</ele><time>2026-03-24T08:08:31Z</time></trkpt><trkpt lat="43.22087378610969" lon="10.73063157867118"><ele>174.25</ele><time>2026-03-24T08:08:32Z</time></trkpt><trkpt lat="43.22086102729275" lon="10.730469136706118"><ele>173.5</ele><time>2026-03-24T08:08:33Z</time></trkpt><trkpt lat="43.22086654628127" lon="10.730327596140498"><ele>172.75</ele><time>2026-03-24T08:08:34Z</time></trkpt><trkpt lat="43.22096819126635" lon="10.730243520687226"><ele>172.0</ele><time>2026-03-24T08:08:35Z</time></trkpt><trkpt lat="43.221085125251925" lon="10.73017504777329"><ele>173.66666666666669</ele><time>2026-03-24T08:08:36Z</time></trkpt><trkpt lat="43.221251292856614" lon="10.730067909151257"><ele>175.33333333333334</ele><time>2026-03-24T08:08:37Z</time></trkpt><trkpt lat="43.221434234608225" lon="10.729928405248533"><ele>177.0</ele><time>2026-03-24T08:08:38Z</time></trkpt><trkpt lat="43.22160842026703" lon="10.729712681068856"><ele>177.0</ele><time>2026-03-24T08:08:39Z</time></trkpt><trkpt lat="43.22179770093284" lon="10.72951497435809"><ele>177.0</ele><time>2026-03-24T08:08:40Z</time></trkpt><trkpt lat="43.2219856893825" lon="10.729383410173826"><ele>177.0</ele><time>2026-03-24T08:08:41Z</time></trkpt><trkpt lat="43.22214746666199" lon="10.729268525847536"><ele>175.25</ele><time>2026-03-24T08:08:42Z</time></trkpt><trkpt lat="43.22226660593125" lon="10.72916511944056"><ele>173.5</ele><time>2026-03-24T08:08:43Z</time></trkpt><trkpt lat="43.22235261705538" lon="10.729069048195804"><ele>171.75</ele><time>2026-03-24T08:08:44Z</time></trkpt><trkpt lat="43.222387995744164" lon="10.728895460629534"><ele>170.0</ele><time>2026-03-24T08:08:45Z</time></trkpt><trkpt lat="43.222359150853265" lon="10.728697786025084"><ele>166.33333333333331</ele><time>2026-03-24T08:08:46Z</time></trkpt><trkpt lat="43.22234556315747" lon="10.7284948163284"><ele>162.66666666666666</ele><time>2026-03-24T08:08:47Z</time></trkpt><trkpt lat="43.2224290821414" lon="10.72835073042337"><ele>159.0</ele><time>2026-03-24T08:08:48Z</time></trkpt><trkpt lat="43.222563938640405" lon="10.728173990007681"><ele>159.0</ele><time>2026-03-24T08:08:49Z</time></trkpt><trkpt lat="43.22271524440877" lon="10.72805542332308"><ele>159.0</ele><time>2026-03-24T08:08:50Z</time></trkpt><trkpt lat="43.22290908948639" lon="10.72792299430876"><ele>159.0</ele><time>2026-03-24T08:08:51Z</time></trkpt><trkpt lat="43.22301391491196" lon="10.727799783819938"><ele>158.5</ele><time>2026-03-24T08:08:52Z</time></trkpt><trkpt lat="43.223118569200274" lon="10.727695729338107"><ele>158.0</ele><time>2026-03-24T08:08:53Z</time></trkpt><trkpt lat="43.22320529070317" lon="10.7275166541771"><ele>157.5</ele><time>2026-03-24T08:08:54Z</time></trkpt><trkpt lat="43.22322389223352" lon="10.727302292007096"><ele>157.0</ele><time>2026-03-24T08:08:55Z</time></trkpt><trkpt lat="43.22319521773293" lon="10.727129833037237"><ele>155.66666666666669</ele><time>2026-03-24T08:08:56Z</time></trkpt><trkpt lat="43.22313198789434" lon="10.726960992061569"><ele>154.33333333333334</ele><time>2026-03-24T08:08:57Z</time></trkpt><trkpt lat="43.22295987108313" lon="10.726724463524562"><ele>153.0</ele><time>2026-03-24T08:08:58Z</time></trkpt><trkpt lat="43.222923352219574" lon="10.726461969553961"><ele>150.0</ele><time>2026-03-24T08:08:59Z</time></trkpt><trkpt lat="43.22288116797348" lon="10.726182603712473"><ele>147.0</ele><time>2026-03-24T08:09:00Z</time></trkpt><trkpt lat="43.222860449645864" lon="10.72594653105318"><ele>144.0</ele><time>2026-03-24T08:09:01Z</time></trkpt><trkpt lat="43.22288156883389" lon="10.725784238933826"><ele>141.25</ele><time>2026-03-24T08:09:02Z</time></trkpt><trkpt lat="43.222958878354746" lon="10.725630717264602"><ele>138.5</ele><time>2026-03-24T08:09:03Z</time></trkpt><trkpt lat="43.22307138683953" lon="10.725497071152452"><ele>135.75</ele><time>2026-03-24T08:09:04Z</time></trkpt><trkpt lat="43.223130603504416" lon="10.72538338144076"><ele>133.0</ele><time>2026-03-24T08:09:05Z</time></trkpt><trkpt lat="43.22312133325898" lon="10.725191046222408"><ele>133.5</ele><time>2026-03-24T08:09:06Z</time></trkpt><trkpt lat="43.223051942875074" lon="10.725028247573098"><ele>134.0</ele><time>2026-03-24T08:09:07Z</time></trkpt><trkpt lat="43.223040059157576" lon="10.724874477481048"><ele>134.5</ele><time>2026-03-24T08:09:08Z</time></trkpt><trkpt lat="43.223129414848636" lon="10.724771993791395"><ele>135.0</ele><time>2026-03-24T08:09:09Z</time></trkpt><trkpt lat="43.22323209897372" lon="10.724765085157644"><ele>135.0</ele><time>2026-03-24T08:09:10Z</time></trkpt><trkpt lat="43.22334698277355" lon="10.724822449562307"><ele>135.0</ele><time>2026-03-24T08:09:11Z</time></trkpt><trkpt lat="43.223435479483" lon="10.724928510078298"><ele>135.0</ele><time>2026-03-24T08:09:12Z</time></trkpt><trkpt lat="43.22354564324723" lon="10.724949632035841"><ele>135.0</ele><time>2026-03-24T08:09:13Z</time></trkpt><trkpt lat="43.22365137351975" lon="10.724849831432216"><ele>135.0</ele><time>2026-03-24T08:09:14Z</time></trkpt><trkpt lat="43.223770700459525" lon="10.724703730280888"><ele>135.0</ele><time>2026-03-24T08:09:15Z</time></trkpt><trkpt lat="43.223890086928414" lon="10.724649614900319"><ele>135.0</ele><time>2026-03-24T08:09:16Z</time></trkpt><trkpt lat="43.223991060021014" lon="10.724788264669343"><ele>135.0</ele><time>2026-03-24T08:09:17Z</time></trkpt><trkpt lat="43.2240801398858" lon="10.72481595888538"><ele>135.0</ele><time>2026-03-24T08:09:18Z</time></trkpt><trkpt lat="43.22416137985624" lon="10.724820779943487"><ele>135.0</ele><time>2026-03-24T08:09:19Z</time></trkpt><trkpt lat="43.22423008432593" lon="10.724716426128493"><ele>135.0</ele><time>2026-03-24T08:09:20Z</time></trkpt><trkpt lat="43.224261271010995" lon="10.724560889207046"><ele>135.0</ele><time>2026-03-24T08:09:21Z</time></trkpt><trkpt lat="43.22423838977525" lon="10.724383693764032"><ele>135.0</ele><time>2026-03-24T08:09:22Z</time></trkpt><trkpt lat="43.224224385363286" lon="10.7241373599405"><ele>131.66666666666666</ele><time>2026-03-24T08:09:23Z</time></trkpt><trkpt lat="43.22428666248376" lon="10.723884613243984"><ele>128.33333333333331</ele><time>2026-03-24T08:09:24Z</time></trkpt><trkpt lat="43.22437370727448" lon="10.723702453501804"><ele>125.0</ele><time>2026-03-24T08:09:25Z</time></trkpt><trkpt lat="43.22451012667292" lon="10.723503812737105"><ele>125.0</ele><time>2026-03-24T08:09:26Z</time></trkpt><trkpt lat="43.22465676013569" lon="10.723321608491483"><ele>125.0</ele><time>2026-03-24T08:09:27Z</time></trkpt><trkpt lat="43.22479882455902" lon="10.723141164745945"><ele>125.0</ele><time>2026-03-24T08:09:28Z</time></trkpt><trkpt lat="43.22496887998487" lon="10.723026159608123"><ele>125.0</ele><time>2026-03-24T08:09:29Z</time></trkpt><trkpt lat="43.22517113469575" lon="10.722965751646901"><ele>125.0</ele><time>2026-03-24T08:09:30Z</time></trkpt><trkpt lat="43.22539034435931" lon="10.722860934078794"><ele>125.0</ele><time>2026-03-24T08:09:31Z</time></trkpt><trkpt lat="43.22561214168358" lon="10.722773639183"><ele>122.66666666666666</ele><time>2026-03-24T08:09:32Z</time></trkpt><trkpt lat="43.225816409755666" lon="10.722656606456628"><ele>120.33333333333334</ele><time>2026-03-24T08:09:33Z</time></trkpt><trkpt lat="43.22599055612157" lon="10.722485412625385"><ele>118.0</ele><time>2026-03-24T08:09:34Z</time></trkpt><trkpt lat="43.22615644032308" lon="10.722249679883738"><ele>118.0</ele><time>2026-03-24T08:09:35Z</time></trkpt><trkpt lat="43.22632229479673" lon="10.72200103384539"><ele>118.0</ele><time>2026-03-24T08:09:36Z</time></trkpt><trkpt lat="43.22648131247761" lon="10.721779926036783"><ele>118.75</ele><time>2026-03-24T08:09:37Z</time></trkpt><trkpt lat="43.22661683499777" lon="10.721608461928266"><ele>119.5</ele><time>2026-03-24T08:09:38Z</time></trkpt><trkpt lat="43.22672306645186" lon="10.72146683525386"><ele>120.25</ele><time>2026-03-24T08:09:39Z</time></trkpt><trkpt lat="43.226770441436074" lon="10.721327014425373"><ele>121.0</ele><time>2026-03-24T08:09:40Z</time></trkpt><trkpt lat="43.22678261111484" lon="10.721104477171965"><ele>119.0</ele><time>2026-03-24T08:09:41Z</time></trkpt><trkpt lat="43.22674147239118" lon="10.720891116325406"><ele>117.0</ele><time>2026-03-24T08:09:42Z</time></trkpt><trkpt lat="43.226666653589426" lon="10.720633811261658"><ele>115.0</ele><time>2026-03-24T08:09:43Z</time></trkpt><trkpt lat="43.226625302168905" lon="10.720392788793648"><ele>115.0</ele><time>2026-03-24T08:09:44Z</time></trkpt><trkpt lat="43.226636748360235" lon="10.720243504899743"><ele>115.0</ele><time>2026-03-24T08:09:45Z</time></trkpt><trkpt lat="43.22671761610478" lon="10.720115142523797"><ele>115.0</ele><time>2026-03-24T08:09:46Z</time></trkpt><trkpt lat="43.22683193463696" lon="10.720024971405303"><ele>115.0</ele><time>2026-03-24T08:09:47Z</time></trkpt><trkpt lat="43.226950393596695" lon="10.719905598120508"><ele>114.0</ele><time>2026-03-24T08:09:48Z</time></trkpt><trkpt lat="43.22710630991787" lon="10.719886375405027"><ele>113.0</ele><time>2026-03-24T08:09:49Z</time></trkpt><trkpt lat="43.22725303769553" lon="10.719953615563211"><ele>112.0</ele><time>2026-03-24T08:09:50Z</time></trkpt><trkpt lat="43.22742386867817" lon="10.719993269144274"><ele>112.0</ele><time>2026-03-24T08:09:51Z</time></trkpt><trkpt lat="43.227580285085146" lon="10.719968448977014"><ele>112.0</ele><time>2026-03-24T08:09:52Z</time></trkpt><trkpt lat="43.22770997965832" lon="10.719874280483172"><ele>112.0</ele><time>2026-03-24T08:09:53Z</time></trkpt><trkpt lat="43.22781013714332" lon="10.71969786018596"><ele>112.0</ele><time>2026-03-24T08:09:54Z</time></trkpt><trkpt lat="43.227913980481574" lon="10.719491709053257"><ele>112.0</ele><time>2026-03-24T08:09:55Z</time></trkpt><trkpt lat="43.22802442259862" lon="10.719358338923332"><ele>112.0</ele><time>2026-03-24T08:09:56Z</time></trkpt><trkpt lat="43.22814591531288" lon="10.71930530690854"><ele>113.0</ele><time>2026-03-24T08:09:57Z</time></trkpt><trkpt lat="43.22828358385696" lon="10.719349360998669"><ele>114.0</ele><time>2026-03-24T08:09:58Z</time></trkpt><trkpt lat="43.22846464691624" lon="10.719422483219393"><ele>115.0</ele><time>2026-03-24T08:09:59Z</time></trkpt><trkpt lat="43.228674477398975" lon="10.719511234816686"><ele>112.0</ele><time>2026-03-24T08:10:00Z</time></trkpt><trkpt lat="43.22889966802871" lon="10.71960368031344"><ele>109.0</ele><time>2026-03-24T08:10:01Z</time></trkpt><trkpt lat="43.229136080352546" lon="10.719706935117921"><ele>107.5</ele><time>2026-03-24T08:10:02Z</time></trkpt><trkpt lat="43.229383981187674" lon="10.719812537213546"><ele>106.0</ele><time>2026-03-24T08:10:03Z</time></trkpt><trkpt lat="43.22964432457116" lon="10.719902087762117"><ele>107.0</ele><time>2026-03-24T08:10:04Z</time></trkpt><trkpt lat="43.22991132307034" lon="10.719953797420255"><ele>108.0</ele><time>2026-03-24T08:10:05Z</time></trkpt><trkpt lat="43.23019241132035" lon="10.720003068954876"><ele>108.0</ele><time>2026-03-24T08:10:06Z</time></trkpt><trkpt lat="43.23048053075869" lon="10.720072196405866"><ele>108.0</ele><time>2026-03-24T08:10:07Z</time></trkpt><trkpt lat="43.23077471719743" lon="10.720139799294337"><ele>107.5</ele><time>2026-03-24T08:10:08Z</time></trkpt><trkpt lat="43.23107862194979" lon="10.72020909563028"><ele>107.0</ele><time>2026-03-24T08:10:09Z</time></trkpt><trkpt lat="43.23137887362529" lon="10.720272699457832"><ele>105.0</ele><time>2026-03-24T08:10:10Z</time></trkpt><trkpt lat="43.23166976008671" lon="10.720338808850705"><ele>103.0</ele><time>2026-03-24T08:10:11Z</time></trkpt><trkpt lat="43.231950356830964" lon="10.720356046593109"><ele>103.0</ele><time>2026-03-24T08:10:12Z</time></trkpt><trkpt lat="43.23222679084031" lon="10.720319400934395"><ele>103.0</ele><time>2026-03-24T08:10:13Z</time></trkpt><trkpt lat="43.23250987658271" lon="10.720233280885212"><ele>103.5</ele><time>2026-03-24T08:10:14Z</time></trkpt><trkpt lat="43.23279722842502" lon="10.720118078552442"><ele>104.0</ele><time>2026-03-24T08:10:15Z</time></trkpt><trkpt lat="43.23308976958973" lon="10.720005881769703"><ele>101.5</ele><time>2026-03-24T08:10:16Z</time></trkpt><trkpt lat="43.23339758139774" lon="10.719886108906303"><ele>99.0</ele><time>2026-03-24T08:10:17Z</time></trkpt><trkpt lat="43.23368028017488" lon="10.719725573378936"><ele>99.0</ele><time>2026-03-24T08:10:18Z</time></trkpt><trkpt lat="43.2339407562059" lon="10.719485795993895"><ele>99.0</ele><time>2026-03-24T08:10:19Z</time></trkpt><trkpt lat="43.2341998685309" lon="10.719219114395116"><ele>97.5</ele><time>2026-03-24T08:10:20Z</time></trkpt><trkpt lat="43.234461189018766" lon="10.71894678071909"><ele>96.0</ele><time>2026-03-24T08:10:21Z</time></trkpt><trkpt lat="43.23473147146106" lon="10.718673578792789"><ele>96.0</ele><time>2026-03-24T08:10:22Z</time></trkpt><trkpt lat="43.23500272106029" lon="10.718415047130623"><ele>96.0</ele><time>2026-03-24T08:10:23Z</time></trkpt><trkpt lat="43.23527511364262" lon="10.718155117691742"><ele>96.0</ele><time>2026-03-24T08:10:24Z</time></trkpt><trkpt lat="43.235533709634524" lon="10.717906646697466"><ele>96.0</ele><time>2026-03-24T08:10:25Z</time></trkpt><trkpt lat="43.235788810444845" lon="10.717671859753318"><ele>97.0</ele><time>2026-03-24T08:10:26Z</time></trkpt><trkpt lat="43.23605080792103" lon="10.717431686587002"><ele>98.0</ele><time>2026-03-24T08:10:27Z</time></trkpt><trkpt lat="43.236330999528256" lon="10.717210770171375"><ele>96.0</ele><time>2026-03-24T08:10:28Z</time></trkpt><trkpt lat="43.236646291853695" lon="10.717046329473474"><ele>94.0</ele><time>2026-03-24T08:10:29Z</time></trkpt><trkpt lat="43.236869382975804" lon="10.717013408808171"><ele>94.0</ele><time>2026-03-24T08:10:30Z</time></trkpt><trkpt lat="43.23713370881976" lon="10.71700302296102"><ele>94.0</ele><time>2026-03-24T08:10:31Z</time></trkpt><trkpt lat="43.2374167004136" lon="10.71700755918533"><ele>93.0</ele><time>2026-03-24T08:10:32Z</time></trkpt><trkpt lat="43.23769665758199" lon="10.717001648381169"><ele>92.0</ele><time>2026-03-24T08:10:33Z</time></trkpt><trkpt lat="43.237979698509186" lon="10.717026556719352"><ele>92.5</ele><time>2026-03-24T08:10:34Z</time></trkpt><trkpt lat="43.238271893657064" lon="10.71704663100833"><ele>93.0</ele><time>2026-03-24T08:10:35Z</time></trkpt><trkpt lat="43.238568273207605" lon="10.717069389535858"><ele>93.0</ele><time>2026-03-24T08:10:36Z</time></trkpt><trkpt lat="43.2388541110862" lon="10.717087742564804"><ele>93.0</ele><time>2026-03-24T08:10:37Z</time></trkpt><trkpt lat="43.23913278243988" lon="10.717075555929219"><ele>92.5</ele><time>2026-03-24T08:10:38Z</time></trkpt><trkpt lat="43.23940314167259" lon="10.71699608604839"><ele>92.0</ele><time>2026-03-24T08:10:39Z</time></trkpt><trkpt lat="43.23966284287604" lon="10.716841256630222"><ele>91.5</ele><time>2026-03-24T08:10:40Z</time></trkpt><trkpt lat="43.2399063681284" lon="10.716621969966885"><ele>91.0</ele><time>2026-03-24T08:10:41Z</time></trkpt><trkpt lat="43.240136853359274" lon="10.716366144214371"><ele>91.0</ele><time>2026-03-24T08:10:42Z</time></trkpt><trkpt lat="43.24040075720565" lon="10.716127213841947"><ele>91.0</ele><time>2026-03-24T08:10:43Z</time></trkpt><trkpt lat="43.240625017616416" lon="10.715861050923294"><ele>91.0</ele><time>2026-03-24T08:10:44Z</time></trkpt><trkpt lat="43.24087533576361" lon="10.715609583282756"><ele>91.0</ele><time>2026-03-24T08:10:45Z</time></trkpt><trkpt lat="43.24113224507582" lon="10.715359897633917"><ele>90.0</ele><time>2026-03-24T08:10:46Z</time></trkpt><trkpt lat="43.241396846021665" lon="10.715107885446209"><ele>89.0</ele><time>2026-03-24T08:10:47Z</time></trkpt><trkpt lat="43.241672074809394" lon="10.714873766685303"><ele>89.0</ele><time>2026-03-24T08:10:48Z</time></trkpt><trkpt lat="43.24196701707649" lon="10.714658388385224"><ele>89.0</ele><time>2026-03-24T08:10:49Z</time></trkpt><trkpt lat="43.24226351263602" lon="10.714459762747277"><ele>87.5</ele><time>2026-03-24T08:10:50Z</time></trkpt><trkpt lat="43.24256594477732" lon="10.714261854648585"><ele>86.0</ele><time>2026-03-24T08:10:51Z</time></trkpt><trkpt lat="43.242865416778756" lon="10.714059867772633"><ele>85.0</ele><time>2026-03-24T08:10:52Z</time></trkpt><trkpt lat="43.24317141023075" lon="10.713848256223674"><ele>84.0</ele><time>2026-03-24T08:10:53Z</time></trkpt><trkpt lat="43.24347448715642" lon="10.713635233039268"><ele>84.0</ele><time>2026-03-24T08:10:54Z</time></trkpt><trkpt lat="43.24377561083573" lon="10.71342773812832"><ele>84.0</ele><time>2026-03-24T08:10:55Z</time></trkpt><trkpt lat="43.24407928394226" lon="10.713220583850463"><ele>84.0</ele><time>2026-03-24T08:10:56Z</time></trkpt><trkpt lat="43.24438207060339" lon="10.71300468607908"><ele>84.0</ele><time>2026-03-24T08:10:57Z</time></trkpt><trkpt lat="43.24468745829792" lon="10.712788117781102"><ele>85.0</ele><time>2026-03-24T08:10:58Z</time></trkpt><trkpt lat="43.24499556387456" lon="10.712571689948314"><ele>86.0</ele><time>2026-03-24T08:10:59Z</time></trkpt><trkpt lat="43.24530050478294" lon="10.712367546402877"><ele>86.0</ele><time>2026-03-24T08:11:00Z</time></trkpt><trkpt lat="43.2455820843151" lon="10.71217700391175"><ele>86.0</ele><time>2026-03-24T08:11:01Z</time></trkpt><trkpt lat="43.245841757923486" lon="10.71198034069232"><ele>86.0</ele><time>2026-03-24T08:11:02Z</time></trkpt><trkpt lat="43.246116512946806" lon="10.711732311226385"><ele>86.0</ele><time>2026-03-24T08:11:03Z</time></trkpt><trkpt lat="43.246346564864254" lon="10.711423446918124"><ele>85.5</ele><time>2026-03-24T08:11:04Z</time></trkpt><trkpt lat="43.24656610775954" lon="10.711097464550894"><ele>85.0</ele><time>2026-03-24T08:11:05Z</time></trkpt><trkpt lat="43.24678690489434" lon="10.71076885168256"><ele>85.0</ele><time>2026-03-24T08:11:06Z</time></trkpt><trkpt lat="43.24701346534016" lon="10.710447216488637"><ele>85.0</ele><time>2026-03-24T08:11:07Z</time></trkpt><trkpt lat="43.247242364058316" lon="10.710123108358372"><ele>84.5</ele><time>2026-03-24T08:11:08Z</time></trkpt><trkpt lat="43.24745476964234" lon="10.709830873296893"><ele>84.0</ele><time>2026-03-24T08:11:09Z</time></trkpt><trkpt lat="43.24767452010948" lon="10.70958697403235"><ele>82.5</ele><time>2026-03-24T08:11:10Z</time></trkpt><trkpt lat="43.247921408485766" lon="10.709392822858254"><ele>81.0</ele><time>2026-03-24T08:11:11Z</time></trkpt><trkpt lat="43.24819700485541" lon="10.709263353047268"><ele>81.0</ele><time>2026-03-24T08:11:12Z</time></trkpt><trkpt lat="43.24847716733913" lon="10.709167241603584"><ele>81.0</ele><time>2026-03-24T08:11:13Z</time></trkpt><trkpt lat="43.248779546439316" lon="10.709111912540509"><ele>81.0</ele><time>2026-03-24T08:11:14Z</time></trkpt><trkpt lat="43.24908820424933" lon="10.709071519814323"><ele>81.0</ele><time>2026-03-24T08:11:15Z</time></trkpt><trkpt lat="43.24940096676112" lon="10.709010946105407"><ele>81.0</ele><time>2026-03-24T08:11:16Z</time></trkpt><trkpt lat="43.24971353138296" lon="10.708940887047783"><ele>81.0</ele><time>2026-03-24T08:11:17Z</time></trkpt><trkpt lat="43.25005008053754" lon="10.70886777021241"><ele>81.0</ele><time>2026-03-24T08:11:18Z</time></trkpt><trkpt lat="43.250424730658466" lon="10.708803471594983"><ele>81.0</ele><time>2026-03-24T08:11:19Z</time></trkpt><trkpt lat="43.25067974208052" lon="10.70871951609877"><ele>80.0</ele><time>2026-03-24T08:11:20Z</time></trkpt><trkpt lat="43.251012082027486" lon="10.708641496753893"><ele>79.0</ele><time>2026-03-24T08:11:21Z</time></trkpt><trkpt lat="43.251347254569744" lon="10.708567692171961"><ele>78.5</ele><time>2026-03-24T08:11:22Z</time></trkpt><trkpt lat="43.25168662320613" lon="10.708493270345237"><ele>78.0</ele><time>2026-03-24T08:11:23Z</time></trkpt><trkpt lat="43.252023612609676" lon="10.708417998895134"><ele>78.0</ele><time>2026-03-24T08:11:24Z</time></trkpt><trkpt lat="43.25236467717814" lon="10.708346128121551"><ele>78.0</ele><time>2026-03-24T08:11:25Z</time></trkpt><trkpt lat="43.252705443456385" lon="10.708272350052548"><ele>78.0</ele><time>2026-03-24T08:11:26Z</time></trkpt><trkpt lat="43.25304724425479" lon="10.708197619536412"><ele>78.0</ele><time>2026-03-24T08:11:27Z</time></trkpt><trkpt lat="43.25336658009051" lon="10.708147874577778"><ele>78.5</ele><time>2026-03-24T08:11:28Z</time></trkpt><trkpt lat="43.25368186496337" lon="10.708143356823413"><ele>79.0</ele><time>2026-03-24T08:11:29Z</time></trkpt><trkpt lat="43.25398599940364" lon="10.708197529335093"><ele>79.0</ele><time>2026-03-24T08:11:30Z</time></trkpt><trkpt lat="43.254260229447006" lon="10.708307195846093"><ele>79.0</ele><time>2026-03-24T08:11:31Z</time></trkpt><trkpt lat="43.25453460122107" lon="10.708472023236125"><ele>82.0</ele><time>2026-03-24T08:11:32Z</time></trkpt><trkpt lat="43.25480816089441" lon="10.708660627096837"><ele>85.0</ele><time>2026-03-24T08:11:33Z</time></trkpt><trkpt lat="43.25508759525799" lon="10.708847653549952"><ele>85.0</ele><time>2026-03-24T08:11:34Z</time></trkpt><trkpt lat="43.25537314944601" lon="10.709027794849401"><ele>85.0</ele><time>2026-03-24T08:11:35Z</time></trkpt><trkpt lat="43.255666636931394" lon="10.70920614722339"><ele>82.5</ele><time>2026-03-24T08:11:36Z</time></trkpt><trkpt lat="43.25596404479039" lon="10.70938762308056"><ele>80.0</ele><time>2026-03-24T08:11:37Z</time></trkpt><trkpt lat="43.25626068224265" lon="10.709566742296998"><ele>78.0</ele><time>2026-03-24T08:11:38Z</time></trkpt><trkpt lat="43.25655867685658" lon="10.709750215266768"><ele>76.0</ele><time>2026-03-24T08:11:39Z</time></trkpt><trkpt lat="43.2568599186455" lon="10.70993388518594"><ele>76.0</ele><time>2026-03-24T08:11:40Z</time></trkpt><trkpt lat="43.257157080291535" lon="10.710124172122205"><ele>76.0</ele><time>2026-03-24T08:11:41Z</time></trkpt><trkpt lat="43.25743502670043" lon="10.710296043871654"><ele>78.0</ele><time>2026-03-24T08:11:42Z</time></trkpt><trkpt lat="43.257725970908474" lon="10.710453780132422"><ele>80.0</ele><time>2026-03-24T08:11:43Z</time></trkpt><trkpt lat="43.258018260688964" lon="10.710568637948096"><ele>78.0</ele><time>2026-03-24T08:11:44Z</time></trkpt><trkpt lat="43.258316749532305" lon="10.710611384480409"><ele>76.0</ele><time>2026-03-24T08:11:45Z</time></trkpt><trkpt lat="43.258614714498364" lon="10.710599702881227"><ele>76.0</ele><time>2026-03-24T08:11:46Z</time></trkpt><trkpt lat="43.25891643713265" lon="10.710519164592998"><ele>76.0</ele><time>2026-03-24T08:11:47Z</time></trkpt><trkpt lat="43.25919722065038" lon="10.710372962585241"><ele>75.0</ele><time>2026-03-24T08:11:48Z</time></trkpt><trkpt lat="43.259467314936316" lon="10.71018422289299"><ele>74.0</ele><time>2026-03-24T08:11:49Z</time></trkpt><trkpt lat="43.259751215034605" lon="10.710003381055976"><ele>75.0</ele><time>2026-03-24T08:11:50Z</time></trkpt><trkpt lat="43.26004250431084" lon="10.70983824317524"><ele>76.0</ele><time>2026-03-24T08:11:51Z</time></trkpt><trkpt lat="43.26034148088592" lon="10.709682010576083"><ele>74.0</ele><time>2026-03-24T08:11:52Z</time></trkpt><trkpt lat="43.26065218451092" lon="10.709515807009245"><ele>72.0</ele><time>2026-03-24T08:11:53Z</time></trkpt><trkpt lat="43.26094557260858" lon="10.709346271744572"><ele>72.0</ele><time>2026-03-24T08:11:54Z</time></trkpt><trkpt lat="43.26123668086546" lon="10.709160224281934"><ele>72.0</ele><time>2026-03-24T08:11:55Z</time></trkpt><trkpt lat="43.26150208164517" lon="10.708962490898795"><ele>70.5</ele><time>2026-03-24T08:11:56Z</time></trkpt><trkpt lat="43.261724955633206" lon="10.708766628050013"><ele>69.0</ele><time>2026-03-24T08:11:57Z</time></trkpt><trkpt lat="43.26192049882205" lon="10.708565938696374"><ele>69.0</ele><time>2026-03-24T08:11:58Z</time></trkpt><trkpt lat="43.262109386154115" lon="10.708366252032107"><ele>69.0</ele><time>2026-03-24T08:11:59Z</time></trkpt><trkpt lat="43.26232007483741" lon="10.708156087914038"><ele>69.0</ele><time>2026-03-24T08:12:00Z</time></trkpt><trkpt lat="43.26253131318926" lon="10.707952116922456"><ele>69.0</ele><time>2026-03-24T08:12:01Z</time></trkpt><trkpt lat="43.26276109310399" lon="10.707733567819206"><ele>68.5</ele><time>2026-03-24T08:12:02Z</time></trkpt><trkpt lat="43.26299732455401" lon="10.707509758551682"><ele>68.0</ele><time>2026-03-24T08:12:03Z</time></trkpt><trkpt lat="43.26323521493659" lon="10.70727357508817"><ele>69.0</ele><time>2026-03-24T08:12:04Z</time></trkpt><trkpt lat="43.26347450743615" lon="10.707033776241916"><ele>70.0</ele><time>2026-03-24T08:12:05Z</time></trkpt><trkpt lat="43.2637278554727" lon="10.70681599867667"><ele>69.5</ele><time>2026-03-24T08:12:06Z</time></trkpt><trkpt lat="43.26401552186188" lon="10.70667656153741"><ele>69.0</ele><time>2026-03-24T08:12:07Z</time></trkpt><trkpt lat="43.26431670663855" lon="10.706592108495533"><ele>69.0</ele><time>2026-03-24T08:12:08Z</time></trkpt><trkpt lat="43.26463394086429" lon="10.706584111180096"><ele>69.0</ele><time>2026-03-24T08:12:09Z</time></trkpt><trkpt lat="43.26495062273627" lon="10.706621578995998"><ele>68.5</ele><time>2026-03-24T08:12:10Z</time></trkpt><trkpt lat="43.265253720640516" lon="10.706666892641438"><ele>68.0</ele><time>2026-03-24T08:12:11Z</time></trkpt><trkpt lat="43.26551675913961" lon="10.706702483205854"><ele>69.0</ele><time>2026-03-24T08:12:12Z</time></trkpt><trkpt lat="43.26586090839634" lon="10.706753072363222"><ele>70.0</ele><time>2026-03-24T08:12:13Z</time></trkpt><trkpt lat="43.26611829129157" lon="10.706786861162316"><ele>70.0</ele><time>2026-03-24T08:12:14Z</time></trkpt><trkpt lat="43.26636694178063" lon="10.706822232045603"><ele>70.0</ele><time>2026-03-24T08:12:15Z</time></trkpt><trkpt lat="43.266599473960696" lon="10.706853441459522"><ele>69.33333333333333</ele><time>2026-03-24T08:12:16Z</time></trkpt><trkpt lat="43.266814172626844" lon="10.706882688078212"><ele>68.66666666666667</ele><time>2026-03-24T08:12:17Z</time></trkpt><trkpt lat="43.267018556075875" lon="10.70690551914093"><ele>68.0</ele><time>2026-03-24T08:12:18Z</time></trkpt><trkpt lat="43.267232853272695" lon="10.706934977667993"><ele>67.33333333333334</ele><time>2026-03-24T08:12:19Z</time></trkpt><trkpt lat="43.26745276445508" lon="10.706962451213528"><ele>66.66666666666667</ele><time>2026-03-24T08:12:20Z</time></trkpt><trkpt lat="43.267657108897616" lon="10.706946897080236"><ele>66.0</ele><time>2026-03-24T08:12:21Z</time></trkpt><trkpt lat="43.26786014803083" lon="10.706899529585293"><ele>66.0</ele><time>2026-03-24T08:12:22Z</time></trkpt><trkpt lat="43.268073307058586" lon="10.706906493072397"><ele>66.0</ele><time>2026-03-24T08:12:23Z</time></trkpt><trkpt lat="43.268280703707006" lon="10.706753995403005"><ele>66.0</ele><time>2026-03-24T08:12:24Z</time></trkpt><trkpt lat="43.26848957394635" lon="10.706661455401782"><ele>66.0</ele><time>2026-03-24T08:12:25Z</time></trkpt><trkpt lat="43.26868645137086" lon="10.706576925813197"><ele>66.0</ele><time>2026-03-24T08:12:26Z</time></trkpt><trkpt lat="43.26887847448959" lon="10.706504085936226"><ele>66.0</ele><time>2026-03-24T08:12:27Z</time></trkpt><trkpt lat="43.26905404155163" lon="10.70644610783111"><ele>65.25</ele><time>2026-03-24T08:12:28Z</time></trkpt><trkpt lat="43.26921782496526" lon="10.706393926111684"><ele>64.5</ele><time>2026-03-24T08:12:29Z</time></trkpt><trkpt lat="43.2693553545878" lon="10.70634635733186"><ele>63.75</ele><time>2026-03-24T08:12:30Z</time></trkpt><trkpt lat="43.26946716355822" lon="10.706310253759591"><ele>63.0</ele><time>2026-03-24T08:12:31Z</time></trkpt><trkpt lat="43.26953820715818" lon="10.70629523208493"><ele>63.0</ele><time>2026-03-24T08:12:32Z</time></trkpt><trkpt lat="43.26963431249064" lon="10.706237546326701"><ele>63.0</ele><time>2026-03-24T08:14:52Z</time></trkpt><trkpt lat="43.26974560256991" lon="10.706199592400129"><ele>63.0</ele><time>2026-03-24T08:14:53Z</time></trkpt><trkpt lat="43.26988390954918" lon="10.706160847704284"><ele>63.0</ele><time>2026-03-24T08:14:54Z</time></trkpt><trkpt lat="43.27006842018726" lon="10.70610240974589"><ele>63.0</ele><time>2026-03-24T08:14:55Z</time></trkpt><trkpt lat="43.27025668645615" lon="10.706037207232967"><ele>63.0</ele><time>2026-03-24T08:14:56Z</time></trkpt><trkpt lat="43.27046398848014" lon="10.705963697782092"><ele>63.0</ele><time>2026-03-24T08:14:57Z</time></trkpt><trkpt lat="43.27070896056819" lon="10.705848391203466"><ele>63.0</ele><time>2026-03-24T08:14:59Z</time></trkpt><trkpt lat="43.270922343422015" lon="10.70576584314071"><ele>63.0</ele><time>2026-03-24T08:15:00Z</time></trkpt><trkpt lat="43.271155004896855" lon="10.705685826344453"><ele>63.0</ele><time>2026-03-24T08:15:01Z</time></trkpt><trkpt lat="43.27139552319108" lon="10.705600846603954"><ele>63.0</ele><time>2026-03-24T08:15:02Z</time></trkpt><trkpt lat="43.27163404899845" lon="10.70551140163403"><ele>63.0</ele><time>2026-03-24T08:15:03Z</time></trkpt><trkpt lat="43.27188370952106" lon="10.705423695351596"><ele>63.0</ele><time>2026-03-24T08:15:04Z</time></trkpt><trkpt lat="43.27214456302903" lon="10.70533126746664"><ele>63.5</ele><time>2026-03-24T08:15:05Z</time></trkpt><trkpt lat="43.272406203295674" lon="10.705241626314283"><ele>64.0</ele><time>2026-03-24T08:15:06Z</time></trkpt><trkpt lat="43.27267097924709" lon="10.705145496959666"><ele>64.0</ele><time>2026-03-24T08:15:07Z</time></trkpt><trkpt lat="43.27292589703163" lon="10.705044429562166"><ele>64.0</ele><time>2026-03-24T08:15:08Z</time></trkpt><trkpt lat="43.27318348680105" lon="10.70494508890655"><ele>66.0</ele><time>2026-03-24T08:15:09Z</time></trkpt><trkpt lat="43.27343378235094" lon="10.704863091060842"><ele>68.0</ele><time>2026-03-24T08:15:10Z</time></trkpt><trkpt lat="43.27369023702488" lon="10.704848608164841"><ele>67.5</ele><time>2026-03-24T08:15:11Z</time></trkpt><trkpt lat="43.273946656114454" lon="10.704864968618697"><ele>67.0</ele><time>2026-03-24T08:15:12Z</time></trkpt><trkpt lat="43.27419636605024" lon="10.704923310570894"><ele>67.0</ele><time>2026-03-24T08:15:13Z</time></trkpt><trkpt lat="43.274457209041366" lon="10.70499210536861"><ele>67.0</ele><time>2026-03-24T08:15:14Z</time></trkpt><trkpt lat="43.274728366333676" lon="10.705064079224499"><ele>64.5</ele><time>2026-03-24T08:15:15Z</time></trkpt><trkpt lat="43.27501180500406" lon="10.705139612173344"><ele>62.0</ele><time>2026-03-24T08:15:16Z</time></trkpt><trkpt lat="43.275299200933226" lon="10.705215956609877"><ele>70.0</ele><time>2026-03-24T08:15:17Z</time></trkpt><trkpt lat="43.2755962619599" lon="10.705294928091318"><ele>78.0</ele><time>2026-03-24T08:15:18Z</time></trkpt><trkpt lat="43.27589519463845" lon="10.70537590379299"><ele>78.0</ele><time>2026-03-24T08:15:19Z</time></trkpt><trkpt lat="43.27620199792478" lon="10.705438543063131"><ele>78.0</ele><time>2026-03-24T08:15:20Z</time></trkpt><trkpt lat="43.276505894001275" lon="10.705527650975764"><ele>71.5</ele><time>2026-03-24T08:15:21Z</time></trkpt><trkpt lat="43.276809122787455" lon="10.705611875596318"><ele>65.0</ele><time>2026-03-24T08:15:22Z</time></trkpt><trkpt lat="43.27711148351184" lon="10.705699677187177"><ele>64.5</ele><time>2026-03-24T08:15:23Z</time></trkpt><trkpt lat="43.27739779827668" lon="10.705780630997575"><ele>64.0</ele><time>2026-03-24T08:15:24Z</time></trkpt><trkpt lat="43.27767937873855" lon="10.70586164736378"><ele>64.0</ele><time>2026-03-24T08:15:25Z</time></trkpt><trkpt lat="43.27795793782338" lon="10.7059089116482"><ele>64.0</ele><time>2026-03-24T08:15:26Z</time></trkpt><trkpt lat="43.27824242598725" lon="10.705920741143093"><ele>64.0</ele><time>2026-03-24T08:15:27Z</time></trkpt><trkpt lat="43.27850988356608" lon="10.705877934359945"><ele>64.0</ele><time>2026-03-24T08:15:28Z</time></trkpt><trkpt lat="43.27875825498102" lon="10.705771034553484"><ele>67.0</ele><time>2026-03-24T08:15:29Z</time></trkpt><trkpt lat="43.279006635634275" lon="10.705620751093308"><ele>70.0</ele><time>2026-03-24T08:15:30Z</time></trkpt><trkpt lat="43.2792686842988" lon="10.705447370046922"><ele>70.0</ele><time>2026-03-24T08:15:31Z</time></trkpt><trkpt lat="43.27954311865736" lon="10.705288507165573"><ele>70.0</ele><time>2026-03-24T08:15:32Z</time></trkpt><trkpt lat="43.27982391635209" lon="10.705137351382028"><ele>68.5</ele><time>2026-03-24T08:15:33Z</time></trkpt><trkpt lat="43.28010406226014" lon="10.704991604201371"><ele>67.0</ele><time>2026-03-24T08:15:34Z</time></trkpt><trkpt lat="43.28038118407955" lon="10.704837158196886"><ele>67.5</ele><time>2026-03-24T08:15:35Z</time></trkpt><trkpt lat="43.280647062239126" lon="10.704663163087153"><ele>68.0</ele><time>2026-03-24T08:15:36Z</time></trkpt><trkpt lat="43.28089854319094" lon="10.704440400775788"><ele>64.5</ele><time>2026-03-24T08:15:37Z</time></trkpt><trkpt lat="43.28112875820892" lon="10.704179015459875"><ele>61.0</ele><time>2026-03-24T08:15:38Z</time></trkpt><trkpt lat="43.281350102735495" lon="10.703895025140914"><ele>61.5</ele><time>2026-03-24T08:15:39Z</time></trkpt><trkpt lat="43.28157702886069" lon="10.70360255891036"><ele>62.0</ele><time>2026-03-24T08:15:40Z</time></trkpt><trkpt lat="43.28181342989341" lon="10.703315225279983"><ele>63.0</ele><time>2026-03-24T08:15:41Z</time></trkpt><trkpt lat="43.28204775416796" lon="10.703029190173133"><ele>64.0</ele><time>2026-03-24T08:15:42Z</time></trkpt><trkpt lat="43.282278649726194" lon="10.702736987928025"><ele>64.0</ele><time>2026-03-24T08:15:43Z</time></trkpt><trkpt lat="43.28250960724958" lon="10.702439585605875"><ele>64.0</ele><time>2026-03-24T08:15:44Z</time></trkpt><trkpt lat="43.28274331124694" lon="10.702160026787991"><ele>64.0</ele><time>2026-03-24T08:15:45Z</time></trkpt><trkpt lat="43.28298867533202" lon="10.70192643618222"><ele>64.0</ele><time>2026-03-24T08:15:46Z</time></trkpt><trkpt lat="43.283255401255055" lon="10.701736895528924"><ele>61.5</ele><time>2026-03-24T08:15:47Z</time></trkpt><trkpt lat="43.28353388683419" lon="10.70156895769423"><ele>59.0</ele><time>2026-03-24T08:15:48Z</time></trkpt><trkpt lat="43.283813957408995" lon="10.70138363160337"><ele>60.0</ele><time>2026-03-24T08:15:49Z</time></trkpt><trkpt lat="43.28409638392601" lon="10.701191466641415"><ele>61.0</ele><time>2026-03-24T08:15:50Z</time></trkpt><trkpt lat="43.28438167812767" lon="10.701004232896674"><ele>59.5</ele><time>2026-03-24T08:15:51Z</time></trkpt><trkpt lat="43.284673578819095" lon="10.700808420233617"><ele>58.0</ele><time>2026-03-24T08:15:52Z</time></trkpt><trkpt lat="43.284947402687436" lon="10.700621110261118"><ele>58.0</ele><time>2026-03-24T08:15:53Z</time></trkpt><trkpt lat="43.285193879226675" lon="10.700425167723486"><ele>58.0</ele><time>2026-03-24T08:15:54Z</time></trkpt><trkpt lat="43.28553694430364" lon="10.700225105494711"><ele>58.0</ele><time>2026-03-24T08:15:55Z</time></trkpt><trkpt lat="43.28582946845435" lon="10.700025229300488"><ele>58.0</ele><time>2026-03-24T08:15:56Z</time></trkpt><trkpt lat="43.286110238115114" lon="10.699835285148557"><ele>58.0</ele><time>2026-03-24T08:15:56.999Z</time></trkpt><trkpt lat="43.286376045987" lon="10.699645829467489"><ele>58.0</ele><time>2026-03-24T08:15:57.999Z</time></trkpt><trkpt lat="43.28664616149676" lon="10.699465609644596"><ele>57.0</ele><time>2026-03-24T08:15:58.999Z</time></trkpt><trkpt lat="43.2869350752159" lon="10.699310088502136"><ele>56.0</ele><time>2026-03-24T08:15:59.999Z</time></trkpt><trkpt lat="43.28723849922055" lon="10.699193654396312"><ele>56.5</ele><time>2026-03-24T08:16:00.999Z</time></trkpt><trkpt lat="43.28753991432711" lon="10.69911911332975"><ele>57.0</ele><time>2026-03-24T08:16:01.999Z</time></trkpt><trkpt lat="43.28784726479623" lon="10.699087553831971"><ele>57.0</ele><time>2026-03-24T08:16:02.999Z</time></trkpt><trkpt lat="43.288159423869764" lon="10.699101030532413"><ele>57.0</ele><time>2026-03-24T08:16:03.999Z</time></trkpt><trkpt lat="43.288482678014894" lon="10.69913956160409"><ele>57.0</ele><time>2026-03-24T08:16:04.999Z</time></trkpt><trkpt lat="43.28881915089601" lon="10.699172230973177"><ele>57.0</ele><time>2026-03-24T08:16:05.999Z</time></trkpt><trkpt lat="43.2891457671764" lon="10.699189927574881"><ele>56.0</ele><time>2026-03-24T08:16:06.999Z</time></trkpt><trkpt lat="43.28948004027322" lon="10.699207547997126"><ele>55.0</ele><time>2026-03-24T08:16:07.999Z</time></trkpt><trkpt lat="43.28981966254727" lon="10.699227105228765"><ele>54.0</ele><time>2026-03-24T08:16:08.999Z</time></trkpt><trkpt lat="43.290160048678985" lon="10.699245748908718"><ele>53.0</ele><time>2026-03-24T08:16:09.999Z</time></trkpt><trkpt lat="43.29050523558525" lon="10.699264304892514"><ele>51.5</ele><time>2026-03-24T08:16:10.999Z</time></trkpt><trkpt lat="43.29084981239784" lon="10.699285145999356"><ele>50.0</ele><time>2026-03-24T08:16:11.999Z</time></trkpt><trkpt lat="43.29119999041227" lon="10.699302354057158"><ele>51.0</ele><time>2026-03-24T08:16:12.999Z</time></trkpt><trkpt lat="43.29154332481886" lon="10.699301260297602"><ele>52.0</ele><time>2026-03-24T08:16:13.999Z</time></trkpt><trkpt lat="43.29187788851255" lon="10.69925586791274"><ele>52.0</ele><time>2026-03-24T08:16:14.999Z</time></trkpt><trkpt lat="43.29220188550978" lon="10.699143076541068"><ele>52.0</ele><time>2026-03-24T08:16:15.999Z</time></trkpt><trkpt lat="43.29251892964348" lon="10.698987488474033"><ele>54.5</ele><time>2026-03-24T08:16:16.999Z</time></trkpt><trkpt lat="43.29283332810801" lon="10.698816562085304"><ele>57.0</ele><time>2026-03-24T08:16:17.999Z</time></trkpt><trkpt lat="43.293130913419084" lon="10.698676242512589"><ele>54.0</ele><time>2026-03-24T08:16:18.999Z</time></trkpt><trkpt lat="43.29341742528544" lon="10.698552201276218"><ele>51.0</ele><time>2026-03-24T08:16:19.999Z</time></trkpt><trkpt lat="43.29370218984564" lon="10.698414189404698"><ele>51.0</ele><time>2026-03-24T08:16:21Z</time></trkpt><trkpt lat="43.29397457194024" lon="10.698242599826774"><ele>51.0</ele><time>2026-03-24T08:16:22Z</time></trkpt><trkpt lat="43.2942320346614" lon="10.698026745841586"><ele>51.0</ele><time>2026-03-24T08:16:23Z</time></trkpt><trkpt lat="43.29447893376507" lon="10.697784021174593"><ele>51.0</ele><time>2026-03-24T08:16:24Z</time></trkpt><trkpt lat="43.29473860326843" lon="10.697541676512643"><ele>51.0</ele><time>2026-03-24T08:16:25Z</time></trkpt><trkpt lat="43.29500719914352" lon="10.697306969950516"><ele>51.0</ele><time>2026-03-24T08:16:26Z</time></trkpt><trkpt lat="43.29529255990299" lon="10.697055892024538"><ele>51.5</ele><time>2026-03-24T08:16:27Z</time></trkpt><trkpt lat="43.29562991281865" lon="10.696796457455626"><ele>52.0</ele><time>2026-03-24T08:16:28Z</time></trkpt><trkpt lat="43.29596585222435" lon="10.696536494520835"><ele>52.0</ele><time>2026-03-24T08:16:29Z</time></trkpt><trkpt lat="43.29613344298564" lon="10.69629501055538"><ele>52.0</ele><time>2026-03-24T08:16:30Z</time></trkpt><trkpt lat="43.296409370217894" lon="10.696034164731653"><ele>51.0</ele><time>2026-03-24T08:16:31Z</time></trkpt><trkpt lat="43.29669226556834" lon="10.69577771743072"><ele>50.0</ele><time>2026-03-24T08:16:32Z</time></trkpt><trkpt lat="43.29697892299448" lon="10.695522992447673"><ele>50.0</ele><time>2026-03-24T08:16:33Z</time></trkpt><trkpt lat="43.29725688712896" lon="10.695265229163002"><ele>50.0</ele><time>2026-03-24T08:16:34Z</time></trkpt><trkpt lat="43.29752800659377" lon="10.695003693422565"><ele>50.0</ele><time>2026-03-24T08:16:35Z</time></trkpt><trkpt lat="43.297799923877974" lon="10.69476070375295"><ele>50.0</ele><time>2026-03-24T08:16:36Z</time></trkpt><trkpt lat="43.298074178674554" lon="10.69451816617559"><ele>48.0</ele><time>2026-03-24T08:16:37Z</time></trkpt><trkpt lat="43.29834576490637" lon="10.694274277761966"><ele>46.0</ele><time>2026-03-24T08:16:38Z</time></trkpt><trkpt lat="43.298626831931806" lon="10.694027793401917"><ele>46.0</ele><time>2026-03-24T08:16:39Z</time></trkpt><trkpt lat="43.298911133105676" lon="10.69378215810934"><ele>46.0</ele><time>2026-03-24T08:16:40Z</time></trkpt><trkpt lat="43.29919871951515" lon="10.693524146820995"><ele>46.0</ele><time>2026-03-24T08:16:41Z</time></trkpt><trkpt lat="43.29948533424708" lon="10.693262143643926"><ele>46.0</ele><time>2026-03-24T08:16:42Z</time></trkpt><trkpt lat="43.29977592638493" lon="10.69299781846904"><ele>46.5</ele><time>2026-03-24T08:16:43Z</time></trkpt><trkpt lat="43.30004888736556" lon="10.69276040639478"><ele>47.0</ele><time>2026-03-24T08:16:44Z</time></trkpt><trkpt lat="43.30031347886065" lon="10.692520763232334"><ele>47.0</ele><time>2026-03-24T08:16:45Z</time></trkpt><trkpt lat="43.3005704215409" lon="10.692261238550074"><ele>47.0</ele><time>2026-03-24T08:16:46Z</time></trkpt><trkpt lat="43.3008153449025" lon="10.691969723907501"><ele>48.0</ele><time>2026-03-24T08:16:47Z</time></trkpt><trkpt lat="43.30104452070011" lon="10.691637990151177"><ele>49.0</ele><time>2026-03-24T08:16:48Z</time></trkpt><trkpt lat="43.30125490847882" lon="10.691306614180425"><ele>48.5</ele><time>2026-03-24T08:16:49Z</time></trkpt><trkpt lat="43.3014658012237" lon="10.690955528083318"><ele>48.0</ele><time>2026-03-24T08:16:50Z</time></trkpt><trkpt lat="43.30167173230028" lon="10.690598412206626"><ele>46.0</ele><time>2026-03-24T08:16:51Z</time></trkpt><trkpt lat="43.30187683080857" lon="10.690227276984393"><ele>44.0</ele><time>2026-03-24T08:16:52Z</time></trkpt><trkpt lat="43.30207690026742" lon="10.689890626589577"><ele>45.0</ele><time>2026-03-24T08:16:53Z</time></trkpt><trkpt lat="43.30228717294998" lon="10.689550488525816"><ele>46.0</ele><time>2026-03-24T08:16:54Z</time></trkpt><trkpt lat="43.30251348209013" lon="10.68924644357409"><ele>46.0</ele><time>2026-03-24T08:16:55Z</time></trkpt><trkpt lat="43.30276798676196" lon="10.688966803418461"><ele>46.0</ele><time>2026-03-24T08:16:56Z</time></trkpt><trkpt lat="43.30303322212007" lon="10.68869546884084"><ele>46.0</ele><time>2026-03-24T08:16:57Z</time></trkpt><trkpt lat="43.30329526748125" lon="10.688414058188982"><ele>46.0</ele><time>2026-03-24T08:16:58Z</time></trkpt><trkpt lat="43.30356232103587" lon="10.688122902826036"><ele>46.0</ele><time>2026-03-24T08:16:59Z</time></trkpt><trkpt lat="43.30383263437886" lon="10.687833789123887"><ele>46.0</ele><time>2026-03-24T08:17:00Z</time></trkpt><trkpt lat="43.304114411987335" lon="10.687557654195468"><ele>47.0</ele><time>2026-03-24T08:17:01Z</time></trkpt><trkpt lat="43.30438885690283" lon="10.68727062003713"><ele>48.0</ele><time>2026-03-24T08:17:02Z</time></trkpt><trkpt lat="43.304663276348485" lon="10.686976566284226"><ele>47.0</ele><time>2026-03-24T08:17:03Z</time></trkpt><trkpt lat="43.30492972607187" lon="10.686677626965233"><ele>46.0</ele><time>2026-03-24T08:17:04Z</time></trkpt><trkpt lat="43.30521292105104" lon="10.686396820070708"><ele>46.0</ele><time>2026-03-24T08:17:05Z</time></trkpt><trkpt lat="43.30547951876861" lon="10.686104869343273"><ele>46.0</ele><time>2026-03-24T08:17:06Z</time></trkpt><trkpt lat="43.30571932921018" lon="10.685785459624391"><ele>45.5</ele><time>2026-03-24T08:17:07Z</time></trkpt><trkpt lat="43.305925746670866" lon="10.685433190200742"><ele>45.0</ele><time>2026-03-24T08:17:08Z</time></trkpt><trkpt lat="43.30611956265537" lon="10.68505860825932"><ele>44.5</ele><time>2026-03-24T08:17:09Z</time></trkpt><trkpt lat="43.30632439291049" lon="10.684686392176568"><ele>44.0</ele><time>2026-03-24T08:17:10Z</time></trkpt><trkpt lat="43.30652610041816" lon="10.684308078776063"><ele>44.0</ele><time>2026-03-24T08:17:11Z</time></trkpt><trkpt lat="43.30673726986092" lon="10.683934787155458"><ele>44.0</ele><time>2026-03-24T08:17:12Z</time></trkpt><trkpt lat="43.306944272566476" lon="10.68354986904305"><ele>43.5</ele><time>2026-03-24T08:17:13Z</time></trkpt><trkpt lat="43.30715074813642" lon="10.683166505847497"><ele>43.0</ele><time>2026-03-24T08:17:14Z</time></trkpt><trkpt lat="43.30736025524387" lon="10.682782934442027"><ele>46.0</ele><time>2026-03-24T08:17:15Z</time></trkpt><trkpt lat="43.30757072710753" lon="10.682392688940762"><ele>49.0</ele><time>2026-03-24T08:17:16Z</time></trkpt><trkpt lat="43.307777423391634" lon="10.682006541769256"><ele>46.0</ele><time>2026-03-24T08:17:17Z</time></trkpt><trkpt lat="43.30798942291886" lon="10.681623754979126"><ele>43.0</ele><time>2026-03-24T08:17:18Z</time></trkpt><trkpt lat="43.308232026938605" lon="10.681267238146786"><ele>43.0</ele><time>2026-03-24T08:17:19Z</time></trkpt><trkpt lat="43.308499471631634" lon="10.680947107507125"><ele>43.0</ele><time>2026-03-24T08:17:20Z</time></trkpt><trkpt lat="43.30877200431401" lon="10.68062978775434"><ele>42.5</ele><time>2026-03-24T08:17:21Z</time></trkpt><trkpt lat="43.30904430124379" lon="10.680318415143576"><ele>42.0</ele><time>2026-03-24T08:17:22Z</time></trkpt><trkpt lat="43.309315524448756" lon="10.68000092188929"><ele>41.0</ele><time>2026-03-24T08:17:23Z</time></trkpt><trkpt lat="43.30957952718645" lon="10.679681183250155"><ele>40.0</ele><time>2026-03-24T08:17:24Z</time></trkpt><trkpt lat="43.30984425413854" lon="10.679365188876481"><ele>39.5</ele><time>2026-03-24T08:17:25Z</time></trkpt><trkpt lat="43.31011837242845" lon="10.679043643592573"><ele>39.0</ele><time>2026-03-24T08:17:26Z</time></trkpt><trkpt lat="43.310386882715356" lon="10.678728465029774"><ele>39.0</ele><time>2026-03-24T08:17:27Z</time></trkpt><trkpt lat="43.310656450705665" lon="10.67840572019039"><ele>39.0</ele><time>2026-03-24T08:17:28Z</time></trkpt><trkpt lat="43.31092503790397" lon="10.678087126833832"><ele>38.5</ele><time>2026-03-24T08:17:29Z</time></trkpt><trkpt lat="43.31119308501999" lon="10.677764935528193"><ele>38.0</ele><time>2026-03-24T08:17:30Z</time></trkpt><trkpt lat="43.31145942545143" lon="10.677445517171323"><ele>37.5</ele><time>2026-03-24T08:17:31Z</time></trkpt><trkpt lat="43.31171254104755" lon="10.677147340361877"><ele>37.0</ele><time>2026-03-24T08:17:32Z</time></trkpt><trkpt lat="43.31194152935162" lon="10.6768788759694"><ele>37.5</ele><time>2026-03-24T08:17:33Z</time></trkpt><trkpt lat="43.3121560365927" lon="10.67662896055159"><ele>38.0</ele><time>2026-03-24T08:17:34Z</time></trkpt><trkpt lat="43.3123628917423" lon="10.676387779259494"><ele>38.0</ele><time>2026-03-24T08:17:35Z</time></trkpt><trkpt lat="43.31258005407482" lon="10.676136333297391"><ele>38.0</ele><time>2026-03-24T08:17:36Z</time></trkpt><trkpt lat="43.31280032201379" lon="10.675876797873192"><ele>38.5</ele><time>2026-03-24T08:17:37Z</time></trkpt><trkpt lat="43.313027098001434" lon="10.67560699671678"><ele>39.0</ele><time>2026-03-24T08:17:38Z</time></trkpt><trkpt lat="43.31325384098145" lon="10.67533408304071"><ele>40.0</ele><time>2026-03-24T08:17:39Z</time></trkpt><trkpt lat="43.313485361364016" lon="10.67505626860346"><ele>41.0</ele><time>2026-03-24T08:17:40Z</time></trkpt><trkpt lat="43.31372387503713" lon="10.674770211039974"><ele>39.5</ele><time>2026-03-24T08:17:41Z</time></trkpt><trkpt lat="43.313963191364905" lon="10.674481864704173"><ele>38.0</ele><time>2026-03-24T08:17:42Z</time></trkpt><trkpt lat="43.31420539599305" lon="10.67419882580279"><ele>38.0</ele><time>2026-03-24T08:17:43Z</time></trkpt><trkpt lat="43.31446424754157" lon="10.673915574279095"><ele>38.0</ele><time>2026-03-24T08:17:44Z</time></trkpt><trkpt lat="43.314734573394446" lon="10.673639383678678"><ele>39.5</ele><time>2026-03-24T08:17:45Z</time></trkpt><trkpt lat="43.315014920304975" lon="10.67338338800247"><ele>41.0</ele><time>2026-03-24T08:17:46Z</time></trkpt><trkpt lat="43.31530281086367" lon="10.67313496412165"><ele>41.5</ele><time>2026-03-24T08:17:47Z</time></trkpt><trkpt lat="43.31559693719084" lon="10.672893374416182"><ele>42.0</ele><time>2026-03-24T08:17:48Z</time></trkpt><trkpt lat="43.31588231358547" lon="10.672636617281306"><ele>41.0</ele><time>2026-03-24T08:17:49Z</time></trkpt><trkpt lat="43.31617279248156" lon="10.67237709517817"><ele>40.0</ele><time>2026-03-24T08:17:49.999Z</time></trkpt><trkpt lat="43.31646351681562" lon="10.672118964362747"><ele>39.5</ele><time>2026-03-24T08:17:50.999Z</time></trkpt><trkpt lat="43.316756761349346" lon="10.67186350877436"><ele>39.0</ele><time>2026-03-24T08:17:51.999Z</time></trkpt><trkpt lat="43.31705335413907" lon="10.671608834998523"><ele>38.5</ele><time>2026-03-24T08:17:52.999Z</time></trkpt><trkpt lat="43.317354742222086" lon="10.671363190489595"><ele>38.0</ele><time>2026-03-24T08:17:53.999Z</time></trkpt><trkpt lat="43.317658657836446" lon="10.671139478458661"><ele>37.5</ele><time>2026-03-24T08:17:54.999Z</time></trkpt><trkpt lat="43.31797460354048" lon="10.670922923008469"><ele>37.0</ele><time>2026-03-24T08:17:55.999Z</time></trkpt><trkpt lat="43.31829752963804" lon="10.670727876976496"><ele>36.5</ele><time>2026-03-24T08:17:56.999Z</time></trkpt><trkpt lat="43.318626098418875" lon="10.670555273391782"><ele>36.0</ele><time>2026-03-24T08:17:57.999Z</time></trkpt><trkpt lat="43.318958780310076" lon="10.670401550038173"><ele>35.5</ele><time>2026-03-24T08:17:58.999Z</time></trkpt><trkpt lat="43.31929628588553" lon="10.670269865312198"><ele>35.0</ele><time>2026-03-24T08:17:59.999Z</time></trkpt><trkpt lat="43.31963837112366" lon="10.670153503955088"><ele>36.0</ele><time>2026-03-24T08:18:00.999Z</time></trkpt><trkpt lat="43.319959839913174" lon="10.670071764077486"><ele>37.0</ele><time>2026-03-24T08:18:01.999Z</time></trkpt><trkpt lat="43.32028065284682" lon="10.670003066643602"><ele>37.0</ele><time>2026-03-24T08:18:02.999Z</time></trkpt><trkpt lat="43.32060323351127" lon="10.669953387743968"><ele>37.0</ele><time>2026-03-24T08:18:03.999Z</time></trkpt><trkpt lat="43.32091902297474" lon="10.669915807675897"><ele>37.0</ele><time>2026-03-24T08:18:04.999Z</time></trkpt><trkpt lat="43.321229861981145" lon="10.669894683809094"><ele>37.0</ele><time>2026-03-24T08:18:05.999Z</time></trkpt><trkpt lat="43.321527775198554" lon="10.66989586009461"><ele>37.0</ele><time>2026-03-24T08:18:06.999Z</time></trkpt><trkpt lat="43.32180831711511" lon="10.669899298261532"><ele>37.0</ele><time>2026-03-24T08:18:07.999Z</time></trkpt><trkpt lat="43.32207603837748" lon="10.669898449242044"><ele>37.5</ele><time>2026-03-24T08:18:08.999Z</time></trkpt><trkpt lat="43.322332781087546" lon="10.669895059240035"><ele>38.0</ele><time>2026-03-24T08:18:09.999Z</time></trkpt><trkpt lat="43.32259469635994" lon="10.669884514508544"><ele>38.0</ele><time>2026-03-24T08:18:10.999Z</time></trkpt><trkpt lat="43.32286564194174" lon="10.66986618145297"><ele>38.0</ele><time>2026-03-24T08:18:11.999Z</time></trkpt><trkpt lat="43.32314395487468" lon="10.66985264450078"><ele>36.0</ele><time>2026-03-24T08:18:12.999Z</time></trkpt><trkpt lat="43.323421483163756" lon="10.669852740507423"><ele>34.0</ele><time>2026-03-24T08:18:13.999Z</time></trkpt><trkpt lat="43.323693064990906" lon="10.669860414422098"><ele>35.0</ele><time>2026-03-24T08:18:14.999Z</time></trkpt><trkpt lat="43.323964148391106" lon="10.669870877230023"><ele>36.0</ele><time>2026-03-24T08:18:15.999Z</time></trkpt><trkpt lat="43.32424703599062" lon="10.669883245523263"><ele>36.0</ele><time>2026-03-24T08:18:16.999Z</time></trkpt><trkpt lat="43.32453653963158" lon="10.6698997577544"><ele>36.0</ele><time>2026-03-24T08:18:17.999Z</time></trkpt><trkpt lat="43.324829793772814" lon="10.669932268502706"><ele>36.0</ele><time>2026-03-24T08:18:18.999Z</time></trkpt><trkpt lat="43.325124714505876" lon="10.669991268623498"><ele>36.0</ele><time>2026-03-24T08:18:19.999Z</time></trkpt><trkpt lat="43.32541822698778" lon="10.67005718662914"><ele>36.0</ele><time>2026-03-24T08:18:20.999Z</time></trkpt><trkpt lat="43.32570184808808" lon="10.670117625541689"><ele>36.0</ele><time>2026-03-24T08:18:21.999Z</time></trkpt><trkpt lat="43.32597622804456" lon="10.67016973016152"><ele>36.0</ele><time>2026-03-24T08:18:22.999Z</time></trkpt><trkpt lat="43.32624205588476" lon="10.670217778105904"><ele>36.0</ele><time>2026-03-24T08:18:23.999Z</time></trkpt><trkpt lat="43.326493031339716" lon="10.670267650516971"><ele>37.0</ele><time>2026-03-24T08:18:24.999Z</time></trkpt><trkpt lat="43.326731870787924" lon="10.67031214048812"><ele>38.0</ele><time>2026-03-24T08:18:25.999Z</time></trkpt><trkpt lat="43.32695934129331" lon="10.670353355383654"><ele>38.0</ele><time>2026-03-24T08:18:27Z</time></trkpt><trkpt lat="43.32717530225837" lon="10.670392117395668"><ele>38.0</ele><time>2026-03-24T08:18:28Z</time></trkpt><trkpt lat="43.32739008479708" lon="10.670430938710323"><ele>38.0</ele><time>2026-03-24T08:18:29Z</time></trkpt><trkpt lat="43.32760059465165" lon="10.670473917905168"><ele>37.666666666666664</ele><time>2026-03-24T08:18:30Z</time></trkpt><trkpt lat="43.32779791021048" lon="10.670515723580744"><ele>37.333333333333336</ele><time>2026-03-24T08:18:31Z</time></trkpt><trkpt lat="43.327989485883805" lon="10.67055383801807"><ele>37.0</ele><time>2026-03-24T08:18:32Z</time></trkpt><trkpt lat="43.328171791845115" lon="10.670587023312965"><ele>36.66666666666667</ele><time>2026-03-24T08:18:33Z</time></trkpt><trkpt lat="43.3283387022284" lon="10.670614348577761"><ele>36.333333333333336</ele><time>2026-03-24T08:18:34Z</time></trkpt><trkpt lat="43.32849510400297" lon="10.67064231688936"><ele>36.0</ele><time>2026-03-24T08:18:35Z</time></trkpt><trkpt lat="43.32863722140524" lon="10.670650528304368"><ele>36.0</ele><time>2026-03-24T08:18:36Z</time></trkpt><trkpt lat="43.32876218516769" lon="10.670614924857265"><ele>36.0</ele><time>2026-03-24T08:18:37Z</time></trkpt><trkpt lat="43.32887511018081" lon="10.670552076153418"><ele>36.0</ele><time>2026-03-24T08:18:38Z</time></trkpt><trkpt lat="43.32897549378326" lon="10.670515298596197"><ele>36.0</ele><time>2026-03-24T08:18:39Z</time></trkpt><trkpt lat="43.329057380015385" lon="10.670559056704374"><ele>36.0</ele><time>2026-03-24T08:18:40Z</time></trkpt><trkpt lat="43.329156952969136" lon="10.670613973988534"><ele>36.2</ele><time>2026-03-24T08:18:41Z</time></trkpt><trkpt lat="43.32927465140197" lon="10.67060908274133"><ele>36.400000000000006</ele><time>2026-03-24T08:18:42Z</time></trkpt><trkpt lat="43.32933158039145" lon="10.670536923209669"><ele>36.6</ele><time>2026-03-24T08:18:43Z</time></trkpt><trkpt lat="43.32934762663671" lon="10.67040725731345"><ele>36.800000000000004</ele><time>2026-03-24T08:18:44Z</time></trkpt><trkpt lat="43.32933056741661" lon="10.670283907604428"><ele>37.0</ele><time>2026-03-24T08:18:45Z</time></trkpt><trkpt lat="43.32927695664819" lon="10.670129530102777"><ele>36.333333333333336</ele><time>2026-03-24T08:18:46Z</time></trkpt><trkpt lat="43.32922034831645" lon="10.669946292230232"><ele>35.666666666666664</ele><time>2026-03-24T08:18:47Z</time></trkpt><trkpt lat="43.329162159367144" lon="10.669718976786056"><ele>35.0</ele><time>2026-03-24T08:18:48Z</time></trkpt><trkpt lat="43.32912604172026" lon="10.669496204796962"><ele>34.75</ele><time>2026-03-24T08:18:49Z</time></trkpt><trkpt lat="43.32909518486724" lon="10.669287514310238"><ele>34.5</ele><time>2026-03-24T08:18:50Z</time></trkpt><trkpt lat="43.32906706965559" lon="10.669101200667766"><ele>34.25</ele><time>2026-03-24T08:18:51Z</time></trkpt><trkpt lat="43.32904047493694" lon="10.668926160994843"><ele>34.0</ele><time>2026-03-24T08:18:52Z</time></trkpt><trkpt lat="43.32901258577327" lon="10.668746987671815"><ele>34.5</ele><time>2026-03-24T08:18:53Z</time></trkpt><trkpt lat="43.32898664368968" lon="10.668573461992464"><ele>35.0</ele><time>2026-03-24T08:18:54Z</time></trkpt><trkpt lat="43.32896148475986" lon="10.66839872392568"><ele>35.5</ele><time>2026-03-24T08:18:55Z</time></trkpt><trkpt lat="43.328933921099754" lon="10.668214878895284"><ele>36.0</ele><time>2026-03-24T08:18:56Z</time></trkpt><trkpt lat="43.32890556873893" lon="10.668040777555015"><ele>36.0</ele><time>2026-03-24T08:18:57Z</time></trkpt><trkpt lat="43.328879430785776" lon="10.667864927094026"><ele>36.0</ele><time>2026-03-24T08:18:58Z</time></trkpt><trkpt lat="43.32884995807845" lon="10.667683124659375"><ele>36.0</ele><time>2026-03-24T08:18:59Z</time></trkpt><trkpt lat="43.328822044946584" lon="10.66750172117467"><ele>36.0</ele><time>2026-03-24T08:19:00Z</time></trkpt><trkpt lat="43.32879316524729" lon="10.667312332197273"><ele>36.25</ele><time>2026-03-24T08:19:01Z</time></trkpt><trkpt lat="43.32876565114823" lon="10.667128092574805"><ele>36.5</ele><time>2026-03-24T08:19:02Z</time></trkpt><trkpt lat="43.32873615752561" lon="10.666944379327022"><ele>36.75</ele><time>2026-03-24T08:19:03Z</time></trkpt><trkpt lat="43.328704160338376" lon="10.66674132226432"><ele>37.0</ele><time>2026-03-24T08:19:04Z</time></trkpt><trkpt lat="43.32867639851243" lon="10.66651918341039"><ele>37.0</ele><time>2026-03-24T08:19:05Z</time></trkpt><trkpt lat="43.32864697940057" lon="10.666285975359093"><ele>37.0</ele><time>2026-03-24T08:19:06Z</time></trkpt><trkpt lat="43.32861067600199" lon="10.666038982492987"><ele>37.0</ele><time>2026-03-24T08:19:07Z</time></trkpt><trkpt lat="43.328577459461876" lon="10.665785040372578"><ele>37.333333333333336</ele><time>2026-03-24T08:19:08Z</time></trkpt><trkpt lat="43.328556618148355" lon="10.6655098411514"><ele>37.666666666666664</ele><time>2026-03-24T08:19:09Z</time></trkpt><trkpt lat="43.32853731759005" lon="10.665214295250937"><ele>38.0</ele><time>2026-03-24T08:19:10Z</time></trkpt><trkpt lat="43.328514304102775" lon="10.66490380059678"><ele>38.0</ele><time>2026-03-24T08:19:11Z</time></trkpt><trkpt lat="43.32849251777831" lon="10.664585850103844"><ele>38.0</ele><time>2026-03-24T08:19:12Z</time></trkpt><trkpt lat="43.32847465087715" lon="10.66426998682849"><ele>36.5</ele><time>2026-03-24T08:19:13Z</time></trkpt><trkpt lat="43.328481146012095" lon="10.66393424991677"><ele>35.0</ele><time>2026-03-24T08:19:14Z</time></trkpt><trkpt lat="43.3285316151706" lon="10.66359874585825"><ele>35.0</ele><time>2026-03-24T08:19:15Z</time></trkpt><trkpt lat="43.328640319247334" lon="10.663270513024653"><ele>35.0</ele><time>2026-03-24T08:19:16Z</time></trkpt><trkpt lat="43.328788320522065" lon="10.662976686148747"><ele>35.0</ele><time>2026-03-24T08:19:17Z</time></trkpt><trkpt lat="43.32898600106361" lon="10.662726064200319"><ele>35.0</ele><time>2026-03-24T08:19:18Z</time></trkpt><trkpt lat="43.329212532003346" lon="10.662534968105746"><ele>35.0</ele><time>2026-03-24T08:19:19Z</time></trkpt><trkpt lat="43.32946172071448" lon="10.662393610197197"><ele>35.0</ele><time>2026-03-24T08:19:20Z</time></trkpt><trkpt lat="43.329723967990375" lon="10.662282946703861"><ele>36.5</ele><time>2026-03-24T08:19:21Z</time></trkpt><trkpt lat="43.329990826386855" lon="10.662156857834741"><ele>38.0</ele><time>2026-03-24T08:19:22Z</time></trkpt><trkpt lat="43.3302846379814" lon="10.662022262337182"><ele>39.0</ele><time>2026-03-24T08:19:23Z</time></trkpt><trkpt lat="43.33062017529636" lon="10.661877257121434"><ele>40.0</ele><time>2026-03-24T08:19:24Z</time></trkpt><trkpt lat="43.330985042459986" lon="10.661702348462308"><ele>40.0</ele><time>2026-03-24T08:19:25Z</time></trkpt><trkpt lat="43.33106637810891" lon="10.661560415905221"><ele>40.0</ele><time>2026-03-24T08:19:26Z</time></trkpt><trkpt lat="43.33130532166013" lon="10.661355607052757"><ele>40.0</ele><time>2026-03-24T08:19:27Z</time></trkpt><trkpt lat="43.33157199210971" lon="10.661100684583575"><ele>38.0</ele><time>2026-03-24T08:19:28Z</time></trkpt><trkpt lat="43.331846432840116" lon="10.660879794719222"><ele>36.0</ele><time>2026-03-24T08:19:29Z</time></trkpt><trkpt lat="43.33206696724111" lon="10.660553221318795"><ele>37.5</ele><time>2026-03-24T08:19:30Z</time></trkpt><trkpt lat="43.33228205018847" lon="10.660238595439717"><ele>39.0</ele><time>2026-03-24T08:19:31Z</time></trkpt><trkpt lat="43.33247595038938" lon="10.65988288847044"><ele>39.0</ele><time>2026-03-24T08:19:32Z</time></trkpt><trkpt lat="43.332660111310666" lon="10.659518405948727"><ele>39.0</ele><time>2026-03-24T08:19:33Z</time></trkpt><trkpt lat="43.332848391054526" lon="10.659151447797075"><ele>37.0</ele><time>2026-03-24T08:19:34Z</time></trkpt><trkpt lat="43.333041154017934" lon="10.658787116391986"><ele>35.0</ele><time>2026-03-24T08:19:35Z</time></trkpt><trkpt lat="43.33324009545769" lon="10.658412192208239"><ele>33.5</ele><time>2026-03-24T08:19:36Z</time></trkpt><trkpt lat="43.33344422047928" lon="10.658041840188803"><ele>32.0</ele><time>2026-03-24T08:19:37Z</time></trkpt><trkpt lat="43.33365129614569" lon="10.657666956937595"><ele>32.0</ele><time>2026-03-24T08:19:38Z</time></trkpt><trkpt lat="43.33386157566327" lon="10.65728488116458"><ele>32.0</ele><time>2026-03-24T08:19:39Z</time></trkpt><trkpt lat="43.33406951653681" lon="10.65690300542539"><ele>32.5</ele><time>2026-03-24T08:19:40Z</time></trkpt><trkpt lat="43.334278961246184" lon="10.656521193306705"><ele>33.0</ele><time>2026-03-24T08:19:41Z</time></trkpt><trkpt lat="43.33448977689675" lon="10.656141537828159"><ele>32.0</ele><time>2026-03-24T08:19:42Z</time></trkpt><trkpt lat="43.3346969891878" lon="10.655750005028832"><ele>31.0</ele><time>2026-03-24T08:19:42.999Z</time></trkpt><trkpt lat="43.33490618620227" lon="10.655362946310278"><ele>32.0</ele><time>2026-03-24T08:19:43.999Z</time></trkpt><trkpt lat="43.33511899598961" lon="10.654983949992092"><ele>33.0</ele><time>2026-03-24T08:19:44.999Z</time></trkpt><trkpt lat="43.335333220658626" lon="10.654598669818526"><ele>31.5</ele><time>2026-03-24T08:19:45.999Z</time></trkpt><trkpt lat="43.335529230405264" lon="10.6542494827028"><ele>30.0</ele><time>2026-03-24T08:19:46.999Z</time></trkpt><trkpt lat="43.33570200280899" lon="10.653929164338644"><ele>31.5</ele><time>2026-03-24T08:19:47.999Z</time></trkpt><trkpt lat="43.33586009282011" lon="10.653650135010423"><ele>33.0</ele><time>2026-03-24T08:19:48.999Z</time></trkpt><trkpt lat="43.336009119491784" lon="10.653401557948913"><ele>33.0</ele><time>2026-03-24T08:19:49.999Z</time></trkpt><trkpt lat="43.33614526153775" lon="10.65319182901442"><ele>33.0</ele><time>2026-03-24T08:19:50.999Z</time></trkpt><trkpt lat="43.33626996598979" lon="10.653017536780208"><ele>33.0</ele><time>2026-03-24T08:19:51.999Z</time></trkpt><trkpt lat="43.33638927885825" lon="10.652909056735217"><ele>33.0</ele><time>2026-03-24T08:19:52.999Z</time></trkpt><trkpt lat="43.3365128803212" lon="10.652930104386748"><ele>33.0</ele><time>2026-03-24T08:19:53.999Z</time></trkpt><trkpt lat="43.336601239986706" lon="10.652869166694577"><ele>33.0</ele><time>2026-03-24T08:19:54.999Z</time></trkpt><trkpt lat="43.336675583865315" lon="10.652811093522379"><ele>33.0</ele><time>2026-03-24T08:19:55.999Z</time></trkpt><trkpt lat="43.336664630339044" lon="10.652643994358272"><ele>33.0</ele><time>2026-03-24T08:19:56.999Z</time></trkpt><trkpt lat="43.336602324987574" lon="10.652474710444103"><ele>33.0</ele><time>2026-03-24T08:19:57.999Z</time></trkpt><trkpt lat="43.336736485384684" lon="10.652286228423673"><ele>33.0</ele><time>2026-03-24T08:19:58.999Z</time></trkpt><trkpt lat="43.33684559053336" lon="10.652118774882917"><ele>33.0</ele><time>2026-03-24T08:19:59.999Z</time></trkpt><trkpt lat="43.33697416094857" lon="10.651913571959923"><ele>32.5</ele><time>2026-03-24T08:20:00.999Z</time></trkpt><trkpt lat="43.33713353642124" lon="10.651709277718028"><ele>32.0</ele><time>2026-03-24T08:20:01.999Z</time></trkpt><trkpt lat="43.33729613314134" lon="10.65147510852691"><ele>32.0</ele><time>2026-03-24T08:20:02.999Z</time></trkpt><trkpt lat="43.33746911910079" lon="10.651218272101831"><ele>32.0</ele><time>2026-03-24T08:20:03.999Z</time></trkpt><trkpt lat="43.33764758975588" lon="10.650960569904523"><ele>31.5</ele><time>2026-03-24T08:20:04.999Z</time></trkpt><trkpt lat="43.337829604785234" lon="10.650687841429486"><ele>31.0</ele><time>2026-03-24T08:20:05.999Z</time></trkpt><trkpt lat="43.338020297418694" lon="10.65041202184255"><ele>31.5</ele><time>2026-03-24T08:20:06.999Z</time></trkpt><trkpt lat="43.33821541453786" lon="10.650123651105663"><ele>32.0</ele><time>2026-03-24T08:20:07.999Z</time></trkpt><trkpt lat="43.33839303779317" lon="10.64980433820845"><ele>32.0</ele><time>2026-03-24T08:20:08.999Z</time></trkpt><trkpt lat="43.33855482270431" lon="10.649470252052723"><ele>32.0</ele><time>2026-03-24T08:20:09.999Z</time></trkpt><trkpt lat="43.33869705683597" lon="10.649115979087584"><ele>32.0</ele><time>2026-03-24T08:20:10.999Z</time></trkpt><trkpt lat="43.33882279540676" lon="10.648748973020602"><ele>32.0</ele><time>2026-03-24T08:20:11.999Z</time></trkpt><trkpt lat="43.33893313901746" lon="10.64836856357371"><ele>32.0</ele><time>2026-03-24T08:20:12.999Z</time></trkpt><trkpt lat="43.33903159180553" lon="10.647977582581676"><ele>32.0</ele><time>2026-03-24T08:20:13.999Z</time></trkpt><trkpt lat="43.33912439651139" lon="10.647605641018572"><ele>32.0</ele><time>2026-03-24T08:20:14.999Z</time></trkpt><trkpt lat="43.33922728059793" lon="10.647182899307149"><ele>32.0</ele><time>2026-03-24T08:20:15.999Z</time></trkpt><trkpt lat="43.33933224195104" lon="10.64676905837136"><ele>32.0</ele><time>2026-03-24T08:20:16.999Z</time></trkpt><trkpt lat="43.3394178383485" lon="10.646350058952597"><ele>32.0</ele><time>2026-03-24T08:20:17.999Z</time></trkpt><trkpt lat="43.33950975180267" lon="10.645949351899588"><ele>31.5</ele><time>2026-03-24T08:20:18.999Z</time></trkpt><trkpt lat="43.339595656148624" lon="10.645578998603195"><ele>31.0</ele><time>2026-03-24T08:20:19.999Z</time></trkpt><trkpt lat="43.33968441532256" lon="10.645220514157595"><ele>31.0</ele><time>2026-03-24T08:20:20.999Z</time></trkpt><trkpt lat="43.33977063462058" lon="10.644861110936437"><ele>31.0</ele><time>2026-03-24T08:20:21.999Z</time></trkpt><trkpt lat="43.339860022495394" lon="10.644495438967887"><ele>31.5</ele><time>2026-03-24T08:20:22.999Z</time></trkpt><trkpt lat="43.33994859225998" lon="10.644148368581899"><ele>32.0</ele><time>2026-03-24T08:20:23.999Z</time></trkpt><trkpt lat="43.34004306400057" lon="10.643837242598703"><ele>31.5</ele><time>2026-03-24T08:20:24.999Z</time></trkpt><trkpt lat="43.34015229458808" lon="10.64357226503095"><ele>31.0</ele><time>2026-03-24T08:20:25.999Z</time></trkpt><trkpt lat="43.34028030190625" lon="10.64330395011261"><ele>31.0</ele><time>2026-03-24T08:20:26.999Z</time></trkpt><trkpt lat="43.34042860202112" lon="10.643050443060924"><ele>31.0</ele><time>2026-03-24T08:20:27.999Z</time></trkpt><trkpt lat="43.34060397195892" lon="10.642806163328574"><ele>30.5</ele><time>2026-03-24T08:20:28.999Z</time></trkpt><trkpt lat="43.34079545408542" lon="10.64254657974994"><ele>30.0</ele><time>2026-03-24T08:20:29.999Z</time></trkpt><trkpt lat="43.34100754210318" lon="10.642278281342692"><ele>30.0</ele><time>2026-03-24T08:20:30.999Z</time></trkpt><trkpt lat="43.341239396958315" lon="10.642004220012431"><ele>30.0</ele><time>2026-03-24T08:20:32Z</time></trkpt><trkpt lat="43.341472303473054" lon="10.641732724085632"><ele>32.0</ele><time>2026-03-24T08:20:33Z</time></trkpt><trkpt lat="43.34171192082356" lon="10.641448104833154"><ele>34.0</ele><time>2026-03-24T08:20:34Z</time></trkpt><trkpt lat="43.341956748399035" lon="10.641162699931922"><ele>36.5</ele><time>2026-03-24T08:20:35Z</time></trkpt><trkpt lat="43.34221855512662" lon="10.640889053337634"><ele>39.0</ele><time>2026-03-24T08:20:36Z</time></trkpt><trkpt lat="43.34247924650015" lon="10.640603863695226"><ele>39.0</ele><time>2026-03-24T08:20:37Z</time></trkpt><trkpt lat="43.34272423380564" lon="10.640301299708275"><ele>39.0</ele><time>2026-03-24T08:20:38Z</time></trkpt><trkpt lat="43.34296953151545" lon="10.639975584822091"><ele>42.0</ele><time>2026-03-24T08:20:39Z</time></trkpt><trkpt lat="43.343204062003494" lon="10.639635318991427"><ele>45.0</ele><time>2026-03-24T08:20:40Z</time></trkpt><trkpt lat="43.34343406687695" lon="10.63928034913031"><ele>39.0</ele><time>2026-03-24T08:20:41Z</time></trkpt><trkpt lat="43.34365607044253" lon="10.638912781251527"><ele>33.0</ele><time>2026-03-24T08:20:42Z</time></trkpt><trkpt lat="43.3438573906304" lon="10.638519549050491"><ele>33.0</ele><time>2026-03-24T08:20:43Z</time></trkpt><trkpt lat="43.344032267644565" lon="10.63810278809047"><ele>33.0</ele><time>2026-03-24T08:20:44Z</time></trkpt><trkpt lat="43.34420626595519" lon="10.637675091128626"><ele>33.0</ele><time>2026-03-24T08:20:45Z</time></trkpt><trkpt lat="43.3443877667633" lon="10.63725585787368"><ele>33.0</ele><time>2026-03-24T08:20:46Z</time></trkpt><trkpt lat="43.344580827660025" lon="10.636839628209803"><ele>34.5</ele><time>2026-03-24T08:20:47Z</time></trkpt><trkpt lat="43.34478383570186" lon="10.636431541911914"><ele>36.0</ele><time>2026-03-24T08:20:48Z</time></trkpt><trkpt lat="43.3450031968791" lon="10.636036256274181"><ele>36.0</ele><time>2026-03-24T08:20:49Z</time></trkpt><trkpt lat="43.345231151222016" lon="10.635652209175902"><ele>36.0</ele><time>2026-03-24T08:20:50Z</time></trkpt><trkpt lat="43.34545847607774" lon="10.635262586299568"><ele>38.0</ele><time>2026-03-24T08:20:51Z</time></trkpt><trkpt lat="43.34567357226383" lon="10.634891025395861"><ele>40.0</ele><time>2026-03-24T08:20:51.999Z</time></trkpt><trkpt lat="43.34587081194796" lon="10.634556194583999"><ele>35.0</ele><time>2026-03-24T08:20:52.999Z</time></trkpt><trkpt lat="43.3460606498261" lon="10.634238980799868"><ele>30.0</ele><time>2026-03-24T08:20:53.999Z</time></trkpt><trkpt lat="43.34625426728715" lon="10.633923069334026"><ele>31.5</ele><time>2026-03-24T08:20:54.999Z</time></trkpt><trkpt lat="43.34644709438862" lon="10.633605410991605"><ele>33.0</ele><time>2026-03-24T08:20:55.999Z</time></trkpt><trkpt lat="43.34664370846473" lon="10.633286125063284"><ele>33.0</ele><time>2026-03-24T08:20:56.999Z</time></trkpt><trkpt lat="43.346846219376474" lon="10.632955888431365"><ele>33.0</ele><time>2026-03-24T08:20:57.999Z</time></trkpt><trkpt lat="43.34705382959014" lon="10.632621143431445"><ele>32.5</ele><time>2026-03-24T08:20:58.999Z</time></trkpt><trkpt lat="43.347276631264805" lon="10.632268420335546"><ele>32.0</ele><time>2026-03-24T08:20:59.999Z</time></trkpt><trkpt lat="43.34751473851099" lon="10.631893838870983"><ele>32.0</ele><time>2026-03-24T08:21:00.999Z</time></trkpt><trkpt lat="43.347695309843004" lon="10.631586791182784"><ele>32.0</ele><time>2026-03-24T08:21:01.999Z</time></trkpt><trkpt lat="43.347919645172794" lon="10.631231841613626"><ele>30.5</ele><time>2026-03-24T08:21:02.999Z</time></trkpt><trkpt lat="43.34815313068754" lon="10.630879585878317"><ele>29.0</ele><time>2026-03-24T08:21:03.999Z</time></trkpt><trkpt lat="43.34837641097602" lon="10.630514588921768"><ele>29.5</ele><time>2026-03-24T08:21:04.999Z</time></trkpt><trkpt lat="43.348587000100885" lon="10.63013533557108"><ele>30.0</ele><time>2026-03-24T08:21:05.999Z</time></trkpt><trkpt lat="43.348789881053996" lon="10.629749201371878"><ele>31.5</ele><time>2026-03-24T08:21:06.999Z</time></trkpt><trkpt lat="43.34898546829886" lon="10.62936546336416"><ele>33.0</ele><time>2026-03-24T08:21:07.999Z</time></trkpt><trkpt lat="43.34916608534056" lon="10.628972274955396"><ele>33.5</ele><time>2026-03-24T08:21:08.999Z</time></trkpt><trkpt lat="43.349343845236554" lon="10.628580044134845"><ele>34.0</ele><time>2026-03-24T08:21:09.999Z</time></trkpt><trkpt lat="43.34953762824034" lon="10.628212940866835"><ele>34.5</ele><time>2026-03-24T08:21:10.999Z</time></trkpt><trkpt lat="43.34971246649156" lon="10.627891968384734"><ele>35.0</ele><time>2026-03-24T08:21:11.999Z</time></trkpt><trkpt lat="43.349855507830284" lon="10.627586796995294"><ele>35.0</ele><time>2026-03-24T08:21:12.999Z</time></trkpt><trkpt lat="43.3499774831177" lon="10.627314029002976"><ele>35.0</ele><time>2026-03-24T08:21:13.999Z</time></trkpt><trkpt lat="43.35009259001445" lon="10.62706010600238"><ele>35.0</ele><time>2026-03-24T08:21:14.999Z</time></trkpt><trkpt lat="43.350193434901556" lon="10.626832595924409"><ele>35.0</ele><time>2026-03-24T08:21:15.999Z</time></trkpt><trkpt lat="43.35027964982345" lon="10.626645775018343"><ele>35.0</ele><time>2026-03-24T08:21:16.999Z</time></trkpt><trkpt lat="43.35035447471752" lon="10.626513830826017"><ele>35.0</ele><time>2026-03-24T08:21:17.999Z</time></trkpt><trkpt lat="43.35043194117473" lon="10.626417392760484"><ele>35.0</ele><time>2026-03-24T08:21:18.999Z</time></trkpt><trkpt lat="43.35052484422318" lon="10.626374539193359"><ele>35.0</ele><time>2026-03-24T08:21:19.999Z</time></trkpt><trkpt lat="43.350621597273644" lon="10.626328818026266"><ele>35.0</ele><time>2026-03-24T08:21:20.999Z</time></trkpt><trkpt lat="43.35068257854222" lon="10.626224106943338"><ele>35.0</ele><time>2026-03-24T08:21:21.999Z</time></trkpt><trkpt lat="43.35070688481374" lon="10.626122105482171"><ele>36.25</ele><time>2026-03-24T08:21:22.999Z</time></trkpt><trkpt lat="43.35063180771128" lon="10.626011362366432"><ele>37.5</ele><time>2026-03-24T08:21:23.999Z</time></trkpt><trkpt lat="43.35052522133751" lon="10.625967553125612"><ele>38.75</ele><time>2026-03-24T08:21:24.999Z</time></trkpt><trkpt lat="43.350409706131146" lon="10.625968834152527"><ele>40.0</ele><time>2026-03-24T08:21:25.999Z</time></trkpt><trkpt lat="43.35026096781773" lon="10.625966704165686"><ele>40.0</ele><time>2026-03-24T08:21:26.999Z</time></trkpt><trkpt lat="43.350090939326265" lon="10.625914578602877"><ele>40.0</ele><time>2026-03-24T08:21:27.999Z</time></trkpt><trkpt lat="43.34990286469416" lon="10.625796302066611"><ele>40.0</ele><time>2026-03-24T08:21:28.999Z</time></trkpt><trkpt lat="43.34970480246019" lon="10.625649559737898"><ele>38.5</ele><time>2026-03-24T08:21:29.999Z</time></trkpt><trkpt lat="43.34950641672304" lon="10.625484037635974"><ele>37.0</ele><time>2026-03-24T08:21:30.999Z</time></trkpt><trkpt lat="43.349285897045206" lon="10.625295474615424"><ele>37.0</ele><time>2026-03-24T08:21:31.999Z</time></trkpt><trkpt lat="43.34905393582265" lon="10.625076715461779"><ele>37.0</ele><time>2026-03-24T08:21:32.999Z</time></trkpt><trkpt lat="43.34882749434073" lon="10.624831894938902"><ele>35.0</ele><time>2026-03-24T08:21:33.999Z</time></trkpt><trkpt lat="43.34859822775679" lon="10.624562161403118"><ele>33.0</ele><time>2026-03-24T08:21:34.999Z</time></trkpt><trkpt lat="43.34837623205139" lon="10.624282311808594"><ele>33.0</ele><time>2026-03-24T08:21:35.999Z</time></trkpt><trkpt lat="43.3481534412457" lon="10.623992307997868"><ele>33.0</ele><time>2026-03-24T08:21:36.999Z</time></trkpt><trkpt lat="43.347956706407466" lon="10.623737993481527"><ele>33.0</ele><time>2026-03-24T08:21:37.999Z</time></trkpt><trkpt lat="43.34778147554041" lon="10.623522697200103"><ele>33.0</ele><time>2026-03-24T08:21:38.999Z</time></trkpt><trkpt lat="43.34761478095152" lon="10.623318395581288"><ele>33.0</ele><time>2026-03-24T08:21:39.999Z</time></trkpt><trkpt lat="43.34744415498519" lon="10.623106282568957"><ele>33.0</ele><time>2026-03-24T08:21:40.999Z</time></trkpt><trkpt lat="43.34727089674649" lon="10.6228909965166"><ele>31.5</ele><time>2026-03-24T08:21:41.999Z</time></trkpt><trkpt lat="43.34709502438381" lon="10.622675841167915"><ele>30.0</ele><time>2026-03-24T08:21:42.999Z</time></trkpt><trkpt lat="43.34692063475955" lon="10.622456300580042"><ele>30.0</ele><time>2026-03-24T08:21:43.999Z</time></trkpt><trkpt lat="43.34675059583026" lon="10.622232242223799"><ele>30.0</ele><time>2026-03-24T08:21:44.999Z</time></trkpt><trkpt lat="43.346578777813065" lon="10.621997378194255"><ele>29.0</ele><time>2026-03-24T08:21:45.999Z</time></trkpt><trkpt lat="43.34640920198281" lon="10.621751398092822"><ele>28.0</ele><time>2026-03-24T08:21:46.999Z</time></trkpt><trkpt lat="43.346244947953934" lon="10.621485001744649"><ele>28.0</ele><time>2026-03-24T08:21:47.999Z</time></trkpt><trkpt lat="43.34609587172104" lon="10.621181961381337"><ele>28.0</ele><time>2026-03-24T08:21:48.999Z</time></trkpt><trkpt lat="43.34597278858956" lon="10.620847773742708"><ele>29.0</ele><time>2026-03-24T08:21:49.999Z</time></trkpt><trkpt lat="43.34588031171169" lon="10.620483800038649"><ele>30.0</ele><time>2026-03-24T08:21:50.999Z</time></trkpt><trkpt lat="43.345824563770584" lon="10.620088936384281"><ele>30.0</ele><time>2026-03-24T08:21:51.999Z</time></trkpt><trkpt lat="43.34578257109025" lon="10.619679831928098"><ele>30.0</ele><time>2026-03-24T08:21:52.999Z</time></trkpt><trkpt lat="43.34574428767499" lon="10.619259150013095"><ele>31.0</ele><time>2026-03-24T08:21:53.999Z</time></trkpt><trkpt lat="43.34569254918584" lon="10.618840611038642"><ele>32.0</ele><time>2026-03-24T08:21:54.999Z</time></trkpt><trkpt lat="43.34564632898194" lon="10.61840703313655"><ele>34.0</ele><time>2026-03-24T08:21:55.999Z</time></trkpt><trkpt lat="43.34562376878115" lon="10.617964570225965"><ele>36.0</ele><time>2026-03-24T08:21:56.999Z</time></trkpt><trkpt lat="43.345648480994754" lon="10.617516986624759"><ele>37.0</ele><time>2026-03-24T08:21:57.999Z</time></trkpt><trkpt lat="43.34572039222774" lon="10.617081819500909"><ele>38.0</ele><time>2026-03-24T08:21:58.999Z</time></trkpt><trkpt lat="43.34583380481559" lon="10.616657121322337"><ele>35.0</ele><time>2026-03-24T08:21:59.999Z</time></trkpt><trkpt lat="43.34596743375561" lon="10.616236906608627"><ele>32.0</ele><time>2026-03-24T08:22:00.999Z</time></trkpt><trkpt lat="43.346089056725944" lon="10.615835191278753"><ele>28.5</ele><time>2026-03-24T08:22:01.999Z</time></trkpt><trkpt lat="43.34619176907481" lon="10.615511223686234"><ele>25.0</ele><time>2026-03-24T08:22:02.999Z</time></trkpt><trkpt lat="43.34627716255416" lon="10.615243734426706"><ele>24.5</ele><time>2026-03-24T08:22:03.999Z</time></trkpt><trkpt lat="43.34634778143866" lon="10.615033352001781"><ele>24.0</ele><time>2026-03-24T08:22:04.999Z</time></trkpt><trkpt lat="43.34641325262458" lon="10.61487950918437"><ele>23.5</ele><time>2026-03-24T08:22:05.999Z</time></trkpt><trkpt lat="43.34645894860536" lon="10.614784029322442"><ele>23.0</ele><time>2026-03-24T08:22:06.999Z</time></trkpt><trkpt lat="43.34647363300643" lon="10.61469023341829"><ele>23.0</ele><time>2026-03-24T08:22:08.999Z</time></trkpt><trkpt lat="43.346399890369746" lon="10.61475756262606"><ele>23.0</ele><time>2026-03-24T08:22:19.999Z</time></trkpt><trkpt lat="43.34631199858732" lon="10.614893093855612"><ele>23.0</ele><time>2026-03-24T08:22:20.999Z</time></trkpt><trkpt lat="43.34626385679066" lon="10.615083432751202"><ele>23.0</ele><time>2026-03-24T08:22:21.999Z</time></trkpt><trkpt lat="43.346213750297125" lon="10.615290975433425"><ele>23.666666666666668</ele><time>2026-03-24T08:22:22.999Z</time></trkpt><trkpt lat="43.34614193752845" lon="10.615534483554299"><ele>24.333333333333336</ele><time>2026-03-24T08:22:23.999Z</time></trkpt><trkpt lat="43.346054087253975" lon="10.615814674786362"><ele>25.0</ele><time>2026-03-24T08:22:24.999Z</time></trkpt><trkpt lat="43.34596617277712" lon="10.616117300462294"><ele>28.5</ele><time>2026-03-24T08:22:25.999Z</time></trkpt><trkpt lat="43.345877265738885" lon="10.616436384098744"><ele>32.0</ele><time>2026-03-24T08:22:26.999Z</time></trkpt><trkpt lat="43.34577525705019" lon="10.616780320702476"><ele>35.0</ele><time>2026-03-24T08:22:27.999Z</time></trkpt><trkpt lat="43.34568396305916" lon="10.617131207527928"><ele>38.0</ele><time>2026-03-24T08:22:28.999Z</time></trkpt><trkpt lat="43.34561533175384" lon="10.617501817189574"><ele>37.0</ele><time>2026-03-24T08:22:29.999Z</time></trkpt><trkpt lat="43.345580180406536" lon="10.617886097071128"><ele>36.0</ele><time>2026-03-24T08:22:30.999Z</time></trkpt><trkpt lat="43.34559325136493" lon="10.618261951842229"><ele>36.0</ele><time>2026-03-24T08:22:31.999Z</time></trkpt><trkpt lat="43.345624539681666" lon="10.618622208969853"><ele>36.0</ele><time>2026-03-24T08:22:32.999Z</time></trkpt><trkpt lat="43.34566684075533" lon="10.618976627992547"><ele>34.0</ele><time>2026-03-24T08:22:33.999Z</time></trkpt><trkpt lat="43.34571357282249" lon="10.619325459568266"><ele>32.0</ele><time>2026-03-24T08:22:34.999Z</time></trkpt><trkpt lat="43.345748265430544" lon="10.619655982871999"><ele>31.0</ele><time>2026-03-24T08:22:35.999Z</time></trkpt><trkpt lat="43.34578241218301" lon="10.61996963354099"><ele>30.0</ele><time>2026-03-24T08:22:36.999Z</time></trkpt><trkpt lat="43.34582067442508" lon="10.620271662776878"><ele>30.0</ele><time>2026-03-24T08:22:37.999Z</time></trkpt><trkpt lat="43.34587275093246" lon="10.620578770958192"><ele>30.0</ele><time>2026-03-24T08:22:38.999Z</time></trkpt><trkpt lat="43.34595072623081" lon="10.620893893842513"><ele>29.0</ele><time>2026-03-24T08:22:39.999Z</time></trkpt><trkpt lat="43.34605347227948" lon="10.621202445384341"><ele>28.0</ele><time>2026-03-24T08:22:40.999Z</time></trkpt><trkpt lat="43.34618643635664" lon="10.621495588366043"><ele>28.0</ele><time>2026-03-24T08:22:41.999Z</time></trkpt><trkpt lat="43.34634009414593" lon="10.621754094866578"><ele>28.0</ele><time>2026-03-24T08:22:42.999Z</time></trkpt><trkpt lat="43.34649235457273" lon="10.62197373595667"><ele>28.666666666666668</ele><time>2026-03-24T08:22:43.999Z</time></trkpt><trkpt lat="43.34663220484701" lon="10.622162542264595"><ele>29.333333333333336</ele><time>2026-03-24T08:22:44.999Z</time></trkpt><trkpt lat="43.34676732783008" lon="10.622333117241443"><ele>30.0</ele><time>2026-03-24T08:22:45.999Z</time></trkpt><trkpt lat="43.34689658909979" lon="10.622492928616438"><ele>30.0</ele><time>2026-03-24T08:22:46.999Z</time></trkpt><trkpt lat="43.347027247571745" lon="10.622666807203185"><ele>30.0</ele><time>2026-03-24T08:22:47.999Z</time></trkpt><trkpt lat="43.347158881360684" lon="10.622828116784529"><ele>30.0</ele><time>2026-03-24T08:22:48.999Z</time></trkpt><trkpt lat="43.3472835699851" lon="10.62299549494327"><ele>30.75</ele><time>2026-03-24T08:22:49.999Z</time></trkpt><trkpt lat="43.347393763691684" lon="10.623123078409979"><ele>31.5</ele><time>2026-03-24T08:22:50.999Z</time></trkpt><trkpt lat="43.34749377212052" lon="10.623246459234323"><ele>32.25</ele><time>2026-03-24T08:22:51.999Z</time></trkpt><trkpt lat="43.34758436141958" lon="10.623355286172002"><ele>33.0</ele><time>2026-03-24T08:22:52.999Z</time></trkpt><trkpt lat="43.347662848552424" lon="10.62344554029672"><ele>33.0</ele><time>2026-03-24T08:22:54Z</time></trkpt><trkpt lat="43.34771538028383" lon="10.623511825358962"><ele>33.0</ele><time>2026-03-24T08:22:55Z</time></trkpt><trkpt lat="43.34782459491532" lon="10.623400986626178"><ele>33.0</ele><time>2026-03-24T08:22:57Z</time></trkpt><trkpt lat="43.3478236276832" lon="10.623250999092233"><ele>33.0</ele><time>2026-03-24T08:22:59Z</time></trkpt><trkpt lat="43.34781276816337" lon="10.62313141038621"><ele>33.0</ele><time>2026-03-24T08:23:00Z</time></trkpt><trkpt lat="43.34781278512934" lon="10.622961025262777"><ele>33.25</ele><time>2026-03-24T08:23:01Z</time></trkpt><trkpt lat="43.34781988797722" lon="10.622766277614435"><ele>33.5</ele><time>2026-03-24T08:23:02Z</time></trkpt><trkpt lat="43.34785284328262" lon="10.622563333118448"><ele>33.75</ele><time>2026-03-24T08:23:03Z</time></trkpt><trkpt lat="43.34788065328319" lon="10.622363920351747"><ele>34.0</ele><time>2026-03-24T08:23:04Z</time></trkpt><trkpt lat="43.3478542318236" lon="10.622149401618621"><ele>34.75</ele><time>2026-03-24T08:23:05Z</time></trkpt><trkpt lat="43.347816262884706" lon="10.621950150287462"><ele>35.5</ele><time>2026-03-24T08:23:06Z</time></trkpt><trkpt lat="43.347760044731984" lon="10.621783890754012"><ele>36.25</ele><time>2026-03-24T08:23:07Z</time></trkpt><trkpt lat="43.34771828034437" lon="10.621563497154408"><ele>37.0</ele><time>2026-03-24T08:23:08Z</time></trkpt><trkpt lat="43.3477517306987" lon="10.621353400031664"><ele>41.0</ele><time>2026-03-24T08:23:09Z</time></trkpt><trkpt lat="43.34777219316555" lon="10.621103897297933"><ele>45.0</ele><time>2026-03-24T08:23:10Z</time></trkpt><trkpt lat="43.34781082064647" lon="10.620867569375953"><ele>49.0</ele><time>2026-03-24T08:23:11Z</time></trkpt><trkpt lat="43.34785326012369" lon="10.62061094046598"><ele>49.0</ele><time>2026-03-24T08:23:12Z</time></trkpt><trkpt lat="43.34789962679232" lon="10.62038990436731"><ele>49.0</ele><time>2026-03-24T08:23:13Z</time></trkpt><trkpt lat="43.34791646540071" lon="10.620192297256386"><ele>49.0</ele><time>2026-03-24T08:23:14Z</time></trkpt><trkpt lat="43.347908686948095" lon="10.620013771860657"><ele>49.0</ele><time>2026-03-24T08:23:15Z</time></trkpt><trkpt lat="43.347872265879346" lon="10.619823652362017"><ele>51.0</ele><time>2026-03-24T08:23:16Z</time></trkpt><trkpt lat="43.347813027544966" lon="10.619597464664224"><ele>53.0</ele><time>2026-03-24T08:23:17Z</time></trkpt><trkpt lat="43.34776619448748" lon="10.619375254597562"><ele>55.0</ele><time>2026-03-24T08:23:18Z</time></trkpt><trkpt lat="43.34771748424413" lon="10.61917329638775"><ele>58.0</ele><time>2026-03-24T08:23:19Z</time></trkpt><trkpt lat="43.34763818446685" lon="10.619003051769162"><ele>61.0</ele><time>2026-03-24T08:23:20Z</time></trkpt><trkpt lat="43.347555847338334" lon="10.618888816611419"><ele>64.0</ele><time>2026-03-24T08:23:21Z</time></trkpt><trkpt lat="43.347499677920034" lon="10.618815313301006"><ele>67.0</ele><time>2026-03-24T08:23:22Z</time></trkpt><trkpt lat="43.34754745829705" lon="10.61866084157675"><ele>69.5</ele><time>2026-03-24T08:23:24Z</time></trkpt><trkpt lat="43.347617587159874" lon="10.618555834292547"><ele>72.0</ele><time>2026-03-24T08:23:25Z</time></trkpt><trkpt lat="43.347666086143754" lon="10.618413290649965"><ele>74.5</ele><time>2026-03-24T08:23:26Z</time></trkpt><trkpt lat="43.347674896791666" lon="10.618226622766812"><ele>77.0</ele><time>2026-03-24T08:23:27Z</time></trkpt><trkpt lat="43.34764949367642" lon="10.618014003134485"><ele>80.0</ele><time>2026-03-24T08:23:28Z</time></trkpt><trkpt lat="43.34762141481755" lon="10.617771758249672"><ele>83.0</ele><time>2026-03-24T08:23:29Z</time></trkpt><trkpt lat="43.34760364095156" lon="10.617520417636946"><ele>86.0</ele><time>2026-03-24T08:23:30Z</time></trkpt><trkpt lat="43.347589880212205" lon="10.617254347043616"><ele>86.0</ele><time>2026-03-24T08:23:31Z</time></trkpt><trkpt lat="43.3475806679988" lon="10.617039426869503"><ele>86.0</ele><time>2026-03-24T08:23:32Z</time></trkpt><trkpt lat="43.34754692678503" lon="10.616896381013596"><ele>86.0</ele><time>2026-03-24T08:23:33Z</time></trkpt><trkpt lat="43.34746893798397" lon="10.616814712252186"><ele>86.0</ele><time>2026-03-24T08:23:34Z</time></trkpt><trkpt lat="43.34738975407294" lon="10.616725251671976"><ele>88.25</ele><time>2026-03-24T08:23:35Z</time></trkpt><trkpt lat="43.34737481406376" lon="10.616595757369735"><ele>90.5</ele><time>2026-03-24T08:23:36Z</time></trkpt><trkpt lat="43.347455590445385" lon="10.616490922483433"><ele>92.75</ele><time>2026-03-24T08:23:37Z</time></trkpt><trkpt lat="43.34751586317185" lon="10.616306629492339"><ele>95.0</ele><time>2026-03-24T08:23:38Z</time></trkpt><trkpt lat="43.34757905872272" lon="10.616094507423206"><ele>95.0</ele><time>2026-03-24T08:23:39Z</time></trkpt><trkpt lat="43.34767264611078" lon="10.615908175186163"><ele>95.0</ele><time>2026-03-24T08:23:40Z</time></trkpt><trkpt lat="43.347769560858076" lon="10.615713868761018"><ele>95.0</ele><time>2026-03-24T08:23:41Z</time></trkpt><trkpt lat="43.34786020285585" lon="10.615480631350303"><ele>92.66666666666667</ele><time>2026-03-24T08:23:42Z</time></trkpt><trkpt lat="43.347987754798766" lon="10.61529185933609"><ele>90.33333333333333</ele><time>2026-03-24T08:23:43Z</time></trkpt><trkpt lat="43.34809677553808" lon="10.615077865033024"><ele>88.0</ele><time>2026-03-24T08:23:44Z</time></trkpt><trkpt lat="43.34820765667493" lon="10.61486636632906"><ele>94.33333333333333</ele><time>2026-03-24T08:23:45Z</time></trkpt><trkpt lat="43.34830031971319" lon="10.6146320324921"><ele>100.66666666666666</ele><time>2026-03-24T08:23:46Z</time></trkpt><trkpt lat="43.348397689923026" lon="10.614387734243804"><ele>107.0</ele><time>2026-03-24T08:23:47Z</time></trkpt><trkpt lat="43.34850525550149" lon="10.614147552085047"><ele>107.0</ele><time>2026-03-24T08:23:48Z</time></trkpt><trkpt lat="43.34862706017718" lon="10.613915332114221"><ele>107.0</ele><time>2026-03-24T08:23:49Z</time></trkpt><trkpt lat="43.348702453710736" lon="10.613706408430854"><ele>107.0</ele><time>2026-03-24T08:23:50Z</time></trkpt><trkpt lat="43.34878119612046" lon="10.613410200314723"><ele>109.5</ele><time>2026-03-24T08:23:51Z</time></trkpt><trkpt lat="43.34884148449311" lon="10.613094364761784"><ele>112.0</ele><time>2026-03-24T08:23:52Z</time></trkpt><trkpt lat="43.34893509368735" lon="10.612825386634919"><ele>117.5</ele><time>2026-03-24T08:23:53Z</time></trkpt><trkpt lat="43.34905614340333" lon="10.612554997083976"><ele>123.0</ele><time>2026-03-24T08:23:54Z</time></trkpt><trkpt lat="43.349175507004894" lon="10.612282567831821"><ele>123.0</ele><time>2026-03-24T08:23:54.999Z</time></trkpt><trkpt lat="43.349301674836084" lon="10.612044467909563"><ele>123.0</ele><time>2026-03-24T08:23:55.999Z</time></trkpt><trkpt lat="43.349421231472064" lon="10.611802012993413"><ele>123.0</ele><time>2026-03-24T08:23:56.999Z</time></trkpt><trkpt lat="43.34953954334999" lon="10.6115518221905"><ele>125.66666666666666</ele><time>2026-03-24T08:23:57.999Z</time></trkpt><trkpt lat="43.34965238640562" lon="10.611321694543863"><ele>128.33333333333331</ele><time>2026-03-24T08:23:58.999Z</time></trkpt><trkpt lat="43.34973298308373" lon="10.611142484687042"><ele>131.0</ele><time>2026-03-24T08:23:59.999Z</time></trkpt><trkpt lat="43.349808273201006" lon="10.610994609250707"><ele>135.5</ele><time>2026-03-24T08:24:00.999Z</time></trkpt><trkpt lat="43.34990581360757" lon="10.610815547660716"><ele>140.0</ele><time>2026-03-24T08:24:01.999Z</time></trkpt><trkpt lat="43.34998899350189" lon="10.610667178759774"><ele>144.5</ele><time>2026-03-24T08:24:02.999Z</time></trkpt><trkpt lat="43.35006403753495" lon="10.61057769760843"><ele>149.0</ele><time>2026-03-24T08:24:03.999Z</time></trkpt><trkpt lat="43.35012364938206" lon="10.61053982982308"><ele>149.0</ele><time>2026-03-24T08:24:04.999Z</time></trkpt><trkpt lat="43.35021680626632" lon="10.610567817457698"><ele>149.0</ele><time>2026-03-24T08:24:05.999Z</time></trkpt><trkpt lat="43.350321431493164" lon="10.610598363162321"><ele>149.0</ele><time>2026-03-24T08:24:06.999Z</time></trkpt><trkpt lat="43.35041554048999" lon="10.610594097466683"><ele>149.0</ele><time>2026-03-24T08:24:07.999Z</time></trkpt><trkpt lat="43.35055131996562" lon="10.61054798118083"><ele>149.0</ele><time>2026-03-24T08:24:08.999Z</time></trkpt><trkpt lat="43.35068488226025" lon="10.610450984031555"><ele>150.33333333333331</ele><time>2026-03-24T08:24:09.999Z</time></trkpt><trkpt lat="43.350846887662385" lon="10.6103401154208"><ele>151.66666666666666</ele><time>2026-03-24T08:24:10.999Z</time></trkpt><trkpt lat="43.35100429199469" lon="10.610255201767615"><ele>153.0</ele><time>2026-03-24T08:24:11.999Z</time></trkpt><trkpt lat="43.35115246728392" lon="10.61016967977192"><ele>154.75</ele><time>2026-03-24T08:24:12.999Z</time></trkpt><trkpt lat="43.35129586542783" lon="10.610117145335845"><ele>156.5</ele><time>2026-03-24T08:24:13.999Z</time></trkpt><trkpt lat="43.35142212818732" lon="10.61007834126107"><ele>158.25</ele><time>2026-03-24T08:24:14.999Z</time></trkpt><trkpt lat="43.35153454423321" lon="10.610064495749265"><ele>160.0</ele><time>2026-03-24T08:24:15.999Z</time></trkpt><trkpt lat="43.351665744460625" lon="10.610078615706236"><ele>160.5</ele><time>2026-03-24T08:24:16.999Z</time></trkpt><trkpt lat="43.351782509913406" lon="10.610127442127563"><ele>161.0</ele><time>2026-03-24T08:24:17.999Z</time></trkpt><trkpt lat="43.35188492841129" lon="10.610230248314702"><ele>161.5</ele><time>2026-03-24T08:24:18.999Z</time></trkpt><trkpt lat="43.3519868363774" lon="10.610337412852749"><ele>162.0</ele><time>2026-03-24T08:24:19.999Z</time></trkpt><trkpt lat="43.35211921071797" lon="10.610426019517782"><ele>163.66666666666666</ele><time>2026-03-24T08:24:20.999Z</time></trkpt><trkpt lat="43.35226814014408" lon="10.610480078065027"><ele>165.33333333333331</ele><time>2026-03-24T08:24:21.999Z</time></trkpt><trkpt lat="43.35242495778808" lon="10.61052118745708"><ele>167.0</ele><time>2026-03-24T08:24:22.999Z</time></trkpt><trkpt lat="43.35256856347494" lon="10.61057850482692"><ele>167.0</ele><time>2026-03-24T08:24:23.999Z</time></trkpt><trkpt lat="43.35270580609599" lon="10.610682848002597"><ele>167.0</ele><time>2026-03-24T08:24:24.999Z</time></trkpt><trkpt lat="43.352846732065174" lon="10.61080200315887"><ele>167.0</ele><time>2026-03-24T08:24:25.999Z</time></trkpt><trkpt lat="43.353022420524454" lon="10.61088688843839"><ele>168.0</ele><time>2026-03-24T08:24:26.999Z</time></trkpt><trkpt lat="43.353208717395944" lon="10.61092457374839"><ele>169.0</ele><time>2026-03-24T08:24:27.999Z</time></trkpt><trkpt lat="43.35337342428157" lon="10.610952383547739"><ele>170.0</ele><time>2026-03-24T08:24:28.999Z</time></trkpt><trkpt lat="43.35360108448365" lon="10.611035176555747"><ele>170.0</ele><time>2026-03-24T08:24:29.999Z</time></trkpt><trkpt lat="43.35376968056399" lon="10.61112914004389"><ele>170.0</ele><time>2026-03-24T08:24:30.999Z</time></trkpt><trkpt lat="43.35389250858034" lon="10.611188639390324"><ele>170.0</ele><time>2026-03-24T08:24:31.999Z</time></trkpt><trkpt lat="43.35400635066699" lon="10.611246201608926"><ele>170.0</ele><time>2026-03-24T08:24:32.999Z</time></trkpt><trkpt lat="43.35411897957505" lon="10.61129961689776"><ele>173.0</ele><time>2026-03-24T08:24:33.999Z</time></trkpt><trkpt lat="43.3542144392102" lon="10.611340681052445"><ele>176.0</ele><time>2026-03-24T08:24:34.999Z</time></trkpt><trkpt lat="43.354304011461906" lon="10.6113782395136"><ele>179.0</ele><time>2026-03-24T08:24:35.999Z</time></trkpt><trkpt lat="43.35441568881789" lon="10.611417950981416"><ele>182.0</ele><time>2026-03-24T08:24:36.999Z</time></trkpt><trkpt lat="43.354556170126735" lon="10.611473279994613"><ele>183.5</ele><time>2026-03-24T08:24:37.999Z</time></trkpt><trkpt lat="43.35470808200127" lon="10.611532609883294"><ele>185.0</ele><time>2026-03-24T08:24:38.999Z</time></trkpt><trkpt lat="43.354850561236276" lon="10.611552191588762"><ele>186.5</ele><time>2026-03-24T08:24:39.999Z</time></trkpt><trkpt lat="43.35498873779892" lon="10.611522368664085"><ele>188.0</ele><time>2026-03-24T08:24:40.999Z</time></trkpt><trkpt lat="43.35513378633397" lon="10.61150991412485"><ele>188.0</ele><time>2026-03-24T08:24:41.999Z</time></trkpt><trkpt lat="43.355297239122535" lon="10.611529357954618"><ele>188.0</ele><time>2026-03-24T08:24:43Z</time></trkpt><trkpt lat="43.355492542511826" lon="10.611574378582072"><ele>188.0</ele><time>2026-03-24T08:24:44Z</time></trkpt><trkpt lat="43.3557003041018" lon="10.611599349164166"><ele>188.5</ele><time>2026-03-24T08:24:45Z</time></trkpt><trkpt lat="43.35592733386067" lon="10.611605035215284"><ele>189.0</ele><time>2026-03-24T08:24:46Z</time></trkpt><trkpt lat="43.35616256346522" lon="10.61161084418342"><ele>190.0</ele><time>2026-03-24T08:24:47Z</time></trkpt><trkpt lat="43.35639450530674" lon="10.611626972316126"><ele>191.0</ele><time>2026-03-24T08:24:48Z</time></trkpt><trkpt lat="43.35662919483295" lon="10.611652047833953"><ele>191.0</ele><time>2026-03-24T08:24:49Z</time></trkpt><trkpt lat="43.35687112169263" lon="10.611667916165134"><ele>191.0</ele><time>2026-03-24T08:24:50Z</time></trkpt><trkpt lat="43.35711110025384" lon="10.611646561707005"><ele>193.0</ele><time>2026-03-24T08:24:51Z</time></trkpt><trkpt lat="43.3573254636741" lon="10.611594590456221"><ele>195.0</ele><time>2026-03-24T08:24:52Z</time></trkpt><trkpt lat="43.357516149189074" lon="10.611545975382885"><ele>197.0</ele><time>2026-03-24T08:24:53Z</time></trkpt><trkpt lat="43.35769390041797" lon="10.611528592093123"><ele>197.0</ele><time>2026-03-24T08:24:54Z</time></trkpt><trkpt lat="43.357847975136956" lon="10.611486180848077"><ele>197.0</ele><time>2026-03-24T08:24:55Z</time></trkpt><trkpt lat="43.3580180007397" lon="10.611421979565346"><ele>197.0</ele><time>2026-03-24T08:24:56Z</time></trkpt><trkpt lat="43.358144314572606" lon="10.611337389107256"><ele>196.5</ele><time>2026-03-24T08:24:57Z</time></trkpt><trkpt lat="43.35825785503734" lon="10.61127063645076"><ele>196.0</ele><time>2026-03-24T08:24:58Z</time></trkpt><trkpt lat="43.358368348323154" lon="10.611241206920699"><ele>195.5</ele><time>2026-03-24T08:24:59Z</time></trkpt><trkpt lat="43.358512779211736" lon="10.611235552767486"><ele>195.0</ele><time>2026-03-24T08:25:00Z</time></trkpt><trkpt lat="43.35869423869876" lon="10.611260531648187"><ele>194.66666666666669</ele><time>2026-03-24T08:25:01Z</time></trkpt><trkpt lat="43.358874751982796" lon="10.611301842254454"><ele>194.33333333333334</ele><time>2026-03-24T08:25:02Z</time></trkpt><trkpt lat="43.359030658858906" lon="10.611337321986616"><ele>194.0</ele><time>2026-03-24T08:25:03Z</time></trkpt><trkpt lat="43.35918161959516" lon="10.611370568189043"><ele>194.0</ele><time>2026-03-24T08:25:04Z</time></trkpt><trkpt lat="43.359346269727354" lon="10.611386655502274"><ele>194.0</ele><time>2026-03-24T08:25:05Z</time></trkpt><trkpt lat="43.35953821522747" lon="10.611358341457434"><ele>194.0</ele><time>2026-03-24T08:25:06Z</time></trkpt><trkpt lat="43.35974334491835" lon="10.61129499091554"><ele>194.0</ele><time>2026-03-24T08:25:07Z</time></trkpt><trkpt lat="43.35994602147305" lon="10.611210219513598"><ele>194.0</ele><time>2026-03-24T08:25:08Z</time></trkpt><trkpt lat="43.360149851162085" lon="10.611108914257828"><ele>194.0</ele><time>2026-03-24T08:25:09Z</time></trkpt><trkpt lat="43.36036575098895" lon="10.611049599503822"><ele>199.0</ele><time>2026-03-24T08:25:10Z</time></trkpt><trkpt lat="43.360570594114655" lon="10.610979126083196"><ele>204.0</ele><time>2026-03-24T08:25:11Z</time></trkpt><trkpt lat="43.36077533811757" lon="10.610962834161983"><ele>209.0</ele><time>2026-03-24T08:25:12Z</time></trkpt><trkpt lat="43.3609674367955" lon="10.610995046183724"><ele>209.0</ele><time>2026-03-24T08:25:13Z</time></trkpt><trkpt lat="43.361152620893286" lon="10.610985609321265"><ele>209.0</ele><time>2026-03-24T08:25:14Z</time></trkpt><trkpt lat="43.36133263358391" lon="10.610973653768049"><ele>209.0</ele><time>2026-03-24T08:25:15Z</time></trkpt><trkpt lat="43.36151203837517" lon="10.610921559274509"><ele>211.0</ele><time>2026-03-24T08:25:16Z</time></trkpt><trkpt lat="43.36169331058083" lon="10.610838631824018"><ele>213.0</ele><time>2026-03-24T08:25:17Z</time></trkpt><trkpt lat="43.36189175884575" lon="10.610711722602852"><ele>215.0</ele><time>2026-03-24T08:25:18Z</time></trkpt><trkpt lat="43.36210320388066" lon="10.610617897760863"><ele>218.0</ele><time>2026-03-24T08:25:19Z</time></trkpt><trkpt lat="43.36228817695791" lon="10.610536420877676"><ele>221.0</ele><time>2026-03-24T08:25:20Z</time></trkpt><trkpt lat="43.36243959946734" lon="10.610451274670124"><ele>224.0</ele><time>2026-03-24T08:25:21Z</time></trkpt><trkpt lat="43.36260325166528" lon="10.610372171858398"><ele>224.0</ele><time>2026-03-24T08:25:22Z</time></trkpt><trkpt lat="43.362788056483176" lon="10.610359330892326"><ele>224.0</ele><time>2026-03-24T08:25:23Z</time></trkpt><trkpt lat="43.36294933169744" lon="10.610369920491681"><ele>224.0</ele><time>2026-03-24T08:25:24Z</time></trkpt><trkpt lat="43.363078602225386" lon="10.610425700045482"><ele>224.6</ele><time>2026-03-24T08:25:25Z</time></trkpt><trkpt lat="43.3631916656688" lon="10.610461419930804"><ele>225.2</ele><time>2026-03-24T08:25:26Z</time></trkpt><trkpt lat="43.36328013085892" lon="10.61046805301312"><ele>225.79999999999998</ele><time>2026-03-24T08:25:27Z</time></trkpt><trkpt lat="43.36334458809943" lon="10.610364691523085"><ele>226.39999999999998</ele><time>2026-03-24T08:25:28Z</time></trkpt><trkpt lat="43.36339277286882" lon="10.610214336630015"><ele>227.0</ele><time>2026-03-24T08:25:29Z</time></trkpt><trkpt lat="43.36341950805306" lon="10.610010111965185"><ele>225.39999999999998</ele><time>2026-03-24T08:25:30Z</time></trkpt><trkpt lat="43.363448943913326" lon="10.60983584297601"><ele>223.79999999999998</ele><time>2026-03-24T08:25:31Z</time></trkpt><trkpt lat="43.363499340486776" lon="10.609724923746352"><ele>222.2</ele><time>2026-03-24T08:25:32Z</time></trkpt><trkpt lat="43.36358723904901" lon="10.609649467019516"><ele>220.6</ele><time>2026-03-24T08:25:33Z</time></trkpt><trkpt lat="43.36368737991726" lon="10.609565144506913"><ele>219.0</ele><time>2026-03-24T08:25:34Z</time></trkpt><trkpt lat="43.36381097021657" lon="10.609584150399566"><ele>221.33333333333331</ele><time>2026-03-24T08:25:35Z</time></trkpt><trkpt lat="43.363946993556624" lon="10.609634126038422"><ele>223.66666666666666</ele><time>2026-03-24T08:25:36Z</time></trkpt><trkpt lat="43.36412109107852" lon="10.609679525463639"><ele>226.0</ele><time>2026-03-24T08:25:37Z</time></trkpt><trkpt lat="43.36432156079124" lon="10.609684818696918"><ele>226.0</ele><time>2026-03-24T08:25:38Z</time></trkpt><trkpt lat="43.36452160864079" lon="10.609668931545"><ele>226.0</ele><time>2026-03-24T08:25:39Z</time></trkpt><trkpt lat="43.36470845275464" lon="10.609660950206251"><ele>226.0</ele><time>2026-03-24T08:25:40Z</time></trkpt><trkpt lat="43.364884971218586" lon="10.609645437671809"><ele>224.66666666666666</ele><time>2026-03-24T08:25:41Z</time></trkpt><trkpt lat="43.36504607090601" lon="10.60965367842485"><ele>223.33333333333331</ele><time>2026-03-24T08:25:42Z</time></trkpt><trkpt lat="43.36518948529676" lon="10.609738992636192"><ele>222.0</ele><time>2026-03-24T08:25:43Z</time></trkpt><trkpt lat="43.365351546770405" lon="10.609780992931675"><ele>222.0</ele><time>2026-03-24T08:25:44Z</time></trkpt><trkpt lat="43.365504948386665" lon="10.609842456876146"><ele>222.0</ele><time>2026-03-24T08:25:45Z</time></trkpt><trkpt lat="43.3656534150197" lon="10.609917761303135"><ele>222.0</ele><time>2026-03-24T08:25:46Z</time></trkpt><trkpt lat="43.365798210963725" lon="10.609993052522455"><ele>217.33333333333331</ele><time>2026-03-24T08:25:47Z</time></trkpt><trkpt lat="43.36594116061756" lon="10.610038620136065"><ele>212.66666666666666</ele><time>2026-03-24T08:25:48Z</time></trkpt><trkpt lat="43.36609903091943" lon="10.609994666708188"><ele>208.0</ele><time>2026-03-24T08:25:49Z</time></trkpt><trkpt lat="43.366245236204875" lon="10.609913908246705"><ele>207.75</ele><time>2026-03-24T08:25:50Z</time></trkpt><trkpt lat="43.36636734338731" lon="10.609884002734612"><ele>207.5</ele><time>2026-03-24T08:25:50.999Z</time></trkpt><trkpt lat="43.366502346226774" lon="10.609862856785991"><ele>207.25</ele><time>2026-03-24T08:25:51.999Z</time></trkpt><trkpt lat="43.366667555267625" lon="10.609918139831548"><ele>207.0</ele><time>2026-03-24T08:25:52.999Z</time></trkpt><trkpt lat="43.3668165162059" lon="10.60997888871954"><ele>207.0</ele><time>2026-03-24T08:25:53.999Z</time></trkpt><trkpt lat="43.36694333062645" lon="10.610041674242328"><ele>207.0</ele><time>2026-03-24T08:25:54.999Z</time></trkpt><trkpt lat="43.36705970272781" lon="10.610138525240586"><ele>207.0</ele><time>2026-03-24T08:25:55.999Z</time></trkpt><trkpt lat="43.36714230340166" lon="10.610298928445472"><ele>207.0</ele><time>2026-03-24T08:25:56.999Z</time></trkpt><trkpt lat="43.367270646551454" lon="10.610419611080966"><ele>209.66666666666669</ele><time>2026-03-24T08:25:57.999Z</time></trkpt><trkpt lat="43.36741765559174" lon="10.610504947713771"><ele>212.33333333333334</ele><time>2026-03-24T08:25:58.999Z</time></trkpt><trkpt lat="43.36757560585389" lon="10.610549345181138"><ele>215.0</ele><time>2026-03-24T08:25:59.999Z</time></trkpt><trkpt lat="43.367727394939664" lon="10.610589000086618"><ele>215.0</ele><time>2026-03-24T08:26:00.999Z</time></trkpt><trkpt lat="43.367891552571045" lon="10.610634979675469"><ele>215.0</ele><time>2026-03-24T08:26:01.999Z</time></trkpt><trkpt lat="43.36804182384689" lon="10.610691293075785"><ele>215.0</ele><time>2026-03-24T08:26:02.999Z</time></trkpt><trkpt lat="43.36816684211635" lon="10.610758442116605"><ele>214.25</ele><time>2026-03-24T08:26:03.999Z</time></trkpt><trkpt lat="43.368284532606886" lon="10.610818446520515"><ele>213.5</ele><time>2026-03-24T08:26:04.999Z</time></trkpt><trkpt lat="43.36839194900133" lon="10.610855720639808"><ele>212.75</ele><time>2026-03-24T08:26:05.999Z</time></trkpt><trkpt lat="43.36850143157208" lon="10.610836319182344"><ele>212.0</ele><time>2026-03-24T08:26:06.999Z</time></trkpt><trkpt lat="43.36861530526429" lon="10.610763836166115"><ele>212.0</ele><time>2026-03-24T08:26:07.999Z</time></trkpt><trkpt lat="43.36872347286018" lon="10.610721691285278"><ele>212.0</ele><time>2026-03-24T08:26:08.999Z</time></trkpt><trkpt lat="43.36882809689828" lon="10.610721836835397"><ele>212.0</ele><time>2026-03-24T08:26:09.999Z</time></trkpt><trkpt lat="43.36895608831368" lon="10.61074675119506"><ele>212.0</ele><time>2026-03-24T08:26:10.999Z</time></trkpt><trkpt lat="43.36907006639761" lon="10.61074193145077"><ele>212.5</ele><time>2026-03-24T08:26:11.999Z</time></trkpt><trkpt lat="43.3691676701666" lon="10.610712616371"><ele>213.0</ele><time>2026-03-24T08:26:12.999Z</time></trkpt><trkpt lat="43.36926364452828" lon="10.610600663473065"><ele>213.5</ele><time>2026-03-24T08:26:13.999Z</time></trkpt><trkpt lat="43.3693795796246" lon="10.61044588793928"><ele>214.0</ele><time>2026-03-24T08:26:14.999Z</time></trkpt><trkpt lat="43.369505594358806" lon="10.610287035385769"><ele>215.66666666666666</ele><time>2026-03-24T08:26:15.999Z</time></trkpt><trkpt lat="43.36963073333434" lon="10.610106682197353"><ele>217.33333333333331</ele><time>2026-03-24T08:26:16.999Z</time></trkpt><trkpt lat="43.36973811792834" lon="10.609917591528223"><ele>219.0</ele><time>2026-03-24T08:26:17.999Z</time></trkpt><trkpt lat="43.369840007968804" lon="10.609766988754401"><ele>219.0</ele><time>2026-03-24T08:26:18.999Z</time></trkpt><trkpt lat="43.36994861904732" lon="10.609640565516825"><ele>219.0</ele><time>2026-03-24T08:26:19.999Z</time></trkpt><trkpt lat="43.37006739513082" lon="10.609534250217438"><ele>219.0</ele><time>2026-03-24T08:26:20.999Z</time></trkpt><trkpt lat="43.37017748072067" lon="10.60942733291105"><ele>219.0</ele><time>2026-03-24T08:26:21.999Z</time></trkpt><trkpt lat="43.370277189275235" lon="10.609354473112026"><ele>218.2</ele><time>2026-03-24T08:26:22.999Z</time></trkpt><trkpt lat="43.370352883329396" lon="10.60925232683085"><ele>217.39999999999998</ele><time>2026-03-24T08:26:23.999Z</time></trkpt><trkpt lat="43.370414038192195" lon="10.60914381883552"><ele>216.6</ele><time>2026-03-24T08:26:24.999Z</time></trkpt><trkpt lat="43.370471062823086" lon="10.609024367360584"><ele>215.8</ele><time>2026-03-24T08:26:25.999Z</time></trkpt><trkpt lat="43.37053083318307" lon="10.608898456916654"><ele>215.0</ele><time>2026-03-24T08:26:26.999Z</time></trkpt><trkpt lat="43.37061484697368" lon="10.608792710366618"><ele>215.6</ele><time>2026-03-24T08:26:27.999Z</time></trkpt><trkpt lat="43.37072799924864" lon="10.608748041365544"><ele>216.2</ele><time>2026-03-24T08:26:28.999Z</time></trkpt><trkpt lat="43.370834944202755" lon="10.608711579419586"><ele>216.8</ele><time>2026-03-24T08:26:29.999Z</time></trkpt><trkpt lat="43.37092799572012" lon="10.608670800285935"><ele>217.4</ele><time>2026-03-24T08:26:30.999Z</time></trkpt><trkpt lat="43.371027954997516" lon="10.608634056601222"><ele>218.0</ele><time>2026-03-24T08:26:31.999Z</time></trkpt><trkpt lat="43.371124425687384" lon="10.60859506214281"><ele>218.0</ele><time>2026-03-24T08:26:32.999Z</time></trkpt><trkpt lat="43.371225371060795" lon="10.608575421358974"><ele>218.0</ele><time>2026-03-24T08:26:33.999Z</time></trkpt><trkpt lat="43.37132761500085" lon="10.608578327256447"><ele>218.0</ele><time>2026-03-24T08:26:34.999Z</time></trkpt><trkpt lat="43.371423121430404" lon="10.608613822427563"><ele>218.0</ele><time>2026-03-24T08:26:35.999Z</time></trkpt><trkpt lat="43.371504299168755" lon="10.608696870609165"><ele>218.0</ele><time>2026-03-24T08:26:36.999Z</time></trkpt><trkpt lat="43.37156520518409" lon="10.608775284940073"><ele>219.8</ele><time>2026-03-24T08:26:37.999Z</time></trkpt><trkpt lat="43.37162271401194" lon="10.60885550751697"><ele>221.60000000000002</ele><time>2026-03-24T08:26:38.999Z</time></trkpt><trkpt lat="43.37169069662828" lon="10.608872740037135"><ele>223.39999999999998</ele><time>2026-03-24T08:26:39.999Z</time></trkpt><trkpt lat="43.37180586660373" lon="10.608757364469371"><ele>225.2</ele><time>2026-03-24T08:26:41.999Z</time></trkpt><trkpt lat="43.37185332099045" lon="10.608636046543042"><ele>227.0</ele><time>2026-03-24T08:26:43.999Z</time></trkpt><trkpt lat="43.37191288305497" lon="10.608452615338079"><ele>227.0</ele><time>2026-03-24T08:26:45.999Z</time></trkpt><trkpt lat="43.371916926225744" lon="10.60825544371559"><ele>227.0</ele><time>2026-03-24T08:26:46.999Z</time></trkpt><trkpt lat="43.37190280205452" lon="10.608082081794226"><ele>227.0</ele><time>2026-03-24T08:26:47.999Z</time></trkpt><trkpt lat="43.37185896125241" lon="10.607883224180117"><ele>227.0</ele><time>2026-03-24T08:26:49Z</time></trkpt><trkpt lat="43.371781791005674" lon="10.607684158710763"><ele>227.5</ele><time>2026-03-24T08:26:50Z</time></trkpt><trkpt lat="43.371731307444094" lon="10.607504566342737"><ele>228.0</ele><time>2026-03-24T08:26:51Z</time></trkpt><trkpt lat="43.371700724055806" lon="10.607349622166986"><ele>228.5</ele><time>2026-03-24T08:26:52Z</time></trkpt><trkpt lat="43.371706052100166" lon="10.607209630087905"><ele>229.0</ele><time>2026-03-24T08:26:53Z</time></trkpt><trkpt lat="43.37172627523037" lon="10.606998357304406"><ele>231.33333333333331</ele><time>2026-03-24T08:26:54Z</time></trkpt><trkpt lat="43.371682417764575" lon="10.606761440699447"><ele>233.66666666666669</ele><time>2026-03-24T08:26:55Z</time></trkpt><trkpt lat="43.37164621588136" lon="10.606487775680334"><ele>236.0</ele><time>2026-03-24T08:26:56Z</time></trkpt><trkpt lat="43.37162045063642" lon="10.606239858317089"><ele>236.75</ele><time>2026-03-24T08:26:57Z</time></trkpt><trkpt lat="43.37160076890994" lon="10.606018573359048"><ele>237.5</ele><time>2026-03-24T08:26:58Z</time></trkpt><trkpt lat="43.371560224274205" lon="10.605823362815967"><ele>238.25</ele><time>2026-03-24T08:26:59Z</time></trkpt><trkpt lat="43.37150980262887" lon="10.605647579776472"><ele>239.0</ele><time>2026-03-24T08:27:00Z</time></trkpt><trkpt lat="43.37142770965602" lon="10.605483257099321"><ele>238.33333333333334</ele><time>2026-03-24T08:27:01Z</time></trkpt><trkpt lat="43.37129673620143" lon="10.60534797521422"><ele>237.66666666666669</ele><time>2026-03-24T08:27:02Z</time></trkpt><trkpt lat="43.371130786666484" lon="10.605237621667841"><ele>237.0</ele><time>2026-03-24T08:27:03Z</time></trkpt><trkpt lat="43.370935698713865" lon="10.60513574909244"><ele>237.0</ele><time>2026-03-24T08:27:04Z</time></trkpt><trkpt lat="43.37074885934231" lon="10.605009800066533"><ele>237.0</ele><time>2026-03-24T08:27:05Z</time></trkpt><trkpt lat="43.370575375829766" lon="10.604930600703801"><ele>237.0</ele><time>2026-03-24T08:27:06Z</time></trkpt><trkpt lat="43.370429101514105" lon="10.604840989569645"><ele>232.33333333333331</ele><time>2026-03-24T08:27:07Z</time></trkpt><trkpt lat="43.370302379481146" lon="10.604735462266218"><ele>227.66666666666666</ele><time>2026-03-24T08:27:08Z</time></trkpt><trkpt lat="43.37015918961586" lon="10.60462965040808"><ele>223.0</ele><time>2026-03-24T08:27:09Z</time></trkpt><trkpt lat="43.37001754266663" lon="10.604507768433416"><ele>221.0</ele><time>2026-03-24T08:27:10Z</time></trkpt><trkpt lat="43.36989314897357" lon="10.6043827137773"><ele>219.0</ele><time>2026-03-24T08:27:11Z</time></trkpt><trkpt lat="43.369782061797714" lon="10.604230065979527"><ele>217.0</ele><time>2026-03-24T08:27:12Z</time></trkpt><trkpt lat="43.369688498400926" lon="10.604036047763737"><ele>217.0</ele><time>2026-03-24T08:27:13Z</time></trkpt><trkpt lat="43.36957655432646" lon="10.60381053441989"><ele>217.0</ele><time>2026-03-24T08:27:14Z</time></trkpt><trkpt lat="43.369468006382604" lon="10.603634431871"><ele>217.0</ele><time>2026-03-24T08:27:15Z</time></trkpt><trkpt lat="43.36939433815937" lon="10.603516128936878"><ele>219.8</ele><time>2026-03-24T08:27:16Z</time></trkpt><trkpt lat="43.36935315343856" lon="10.603419476313336"><ele>222.6</ele><time>2026-03-24T08:27:18Z</time></trkpt><trkpt lat="43.36931360504827" lon="10.603284271743577"><ele>225.40000000000003</ele><time>2026-03-24T08:27:25Z</time></trkpt><trkpt lat="43.36919821252733" lon="10.603235456099021"><ele>228.20000000000002</ele><time>2026-03-24T08:27:26Z</time></trkpt><trkpt lat="43.36912594704966" lon="10.603174931354253"><ele>231.0</ele><time>2026-03-24T08:27:27Z</time></trkpt><trkpt lat="43.36906282048268" lon="10.603121478132593"><ele>231.0</ele><time>2026-03-24T08:27:28Z</time></trkpt><trkpt lat="43.36900511948655" lon="10.603022241469896"><ele>231.0</ele><time>2026-03-24T08:27:30Z</time></trkpt><trkpt lat="43.36913691689763" lon="10.60288602076334"><ele>231.0</ele><time>2026-03-24T08:27:33Z</time></trkpt><trkpt lat="43.36924114088634" lon="10.602833232183738"><ele>231.0</ele><time>2026-03-24T08:27:34Z</time></trkpt><trkpt lat="43.3693466478585" lon="10.602749753019506"><ele>231.66666666666669</ele><time>2026-03-24T08:27:35Z</time></trkpt><trkpt lat="43.36944866390567" lon="10.602625539129605"><ele>232.33333333333334</ele><time>2026-03-24T08:27:36Z</time></trkpt><trkpt lat="43.36955913557618" lon="10.602470367013302"><ele>233.0</ele><time>2026-03-24T08:27:37Z</time></trkpt><trkpt lat="43.36969099806389" lon="10.602320923319628"><ele>236.66666666666669</ele><time>2026-03-24T08:27:38Z</time></trkpt><trkpt lat="43.36984554912174" lon="10.602205694958803"><ele>240.33333333333331</ele><time>2026-03-24T08:27:39Z</time></trkpt><trkpt lat="43.37002419125752" lon="10.602111142010553"><ele>244.0</ele><time>2026-03-24T08:27:40Z</time></trkpt><trkpt lat="43.3702059735001" lon="10.602016608400637"><ele>243.0</ele><time>2026-03-24T08:27:41Z</time></trkpt><trkpt lat="43.370373030804004" lon="10.601941997012068"><ele>242.0</ele><time>2026-03-24T08:27:42Z</time></trkpt><trkpt lat="43.37054271516692" lon="10.60187345244495"><ele>241.0</ele><time>2026-03-24T08:27:43Z</time></trkpt><trkpt lat="43.37071189961737" lon="10.601784528425414"><ele>241.0</ele><time>2026-03-24T08:27:44Z</time></trkpt><trkpt lat="43.37087026061567" lon="10.6016528870018"><ele>241.0</ele><time>2026-03-24T08:27:45Z</time></trkpt><trkpt lat="43.37100045105503" lon="10.601527862054287"><ele>241.0</ele><time>2026-03-24T08:27:46Z</time></trkpt><trkpt lat="43.37110000647711" lon="10.601382218296093"><ele>241.0</ele><time>2026-03-24T08:27:47Z</time></trkpt><trkpt lat="43.37116290938799" lon="10.601194609741718"><ele>241.0</ele><time>2026-03-24T08:27:48Z</time></trkpt><trkpt lat="43.37117942669036" lon="10.600959681003452"><ele>241.0</ele><time>2026-03-24T08:27:49Z</time></trkpt><trkpt lat="43.37117701470244" lon="10.600668544547213"><ele>239.66666666666666</ele><time>2026-03-24T08:27:50Z</time></trkpt><trkpt lat="43.37118289586458" lon="10.600369845291182"><ele>238.33333333333331</ele><time>2026-03-24T08:27:51Z</time></trkpt><trkpt lat="43.371196564370486" lon="10.600118961736971"><ele>237.0</ele><time>2026-03-24T08:27:52Z</time></trkpt><trkpt lat="43.37122235186775" lon="10.599901769108559"><ele>236.75</ele><time>2026-03-24T08:27:53Z</time></trkpt><trkpt lat="43.37123422656667" lon="10.599704654448306"><ele>236.5</ele><time>2026-03-24T08:27:53.999Z</time></trkpt><trkpt lat="43.371279542786844" lon="10.599534059507869"><ele>236.25</ele><time>2026-03-24T08:27:54.999Z</time></trkpt><trkpt lat="43.371348067766284" lon="10.599393071774958"><ele>236.0</ele><time>2026-03-24T08:27:55.999Z</time></trkpt><trkpt lat="43.37147867261728" lon="10.599273910437788"><ele>242.0</ele><time>2026-03-24T08:27:56.999Z</time></trkpt><trkpt lat="43.371603631541745" lon="10.59908343930468"><ele>248.0</ele><time>2026-03-24T08:27:57.999Z</time></trkpt><trkpt lat="43.3716769775984" lon="10.598883807955648"><ele>254.0</ele><time>2026-03-24T08:27:58.999Z</time></trkpt><trkpt lat="43.37168954495329" lon="10.598647048091175"><ele>254.33333333333334</ele><time>2026-03-24T08:27:59.999Z</time></trkpt><trkpt lat="43.371655928015365" lon="10.598401051087999"><ele>254.66666666666669</ele><time>2026-03-24T08:28:00.999Z</time></trkpt><trkpt lat="43.37159913908333" lon="10.5981801568452"><ele>255.0</ele><time>2026-03-24T08:28:01.999Z</time></trkpt><trkpt lat="43.37154055380254" lon="10.598023606744912"><ele>255.0</ele><time>2026-03-24T08:28:02.999Z</time></trkpt><trkpt lat="43.37151755336459" lon="10.597911126233234"><ele>255.0</ele><time>2026-03-24T08:28:03.999Z</time></trkpt><trkpt lat="43.37154234246548" lon="10.597781051975492"><ele>255.0</ele><time>2026-03-24T08:28:04.999Z</time></trkpt><trkpt lat="43.37161760964375" lon="10.597621202294809"><ele>255.0</ele><time>2026-03-24T08:28:05.999Z</time></trkpt><trkpt lat="43.37171429773871" lon="10.597465943068634"><ele>255.0</ele><time>2026-03-24T08:28:06.999Z</time></trkpt><trkpt lat="43.37181014444462" lon="10.597340738269041"><ele>255.0</ele><time>2026-03-24T08:28:07.999Z</time></trkpt><trkpt lat="43.37191345374898" lon="10.597297638308275"><ele>255.0</ele><time>2026-03-24T08:28:08.999Z</time></trkpt><trkpt lat="43.372008666747504" lon="10.597372595215761"><ele>255.0</ele><time>2026-03-24T08:28:09.999Z</time></trkpt><trkpt lat="43.372075208213396" lon="10.597503999416272"><ele>255.0</ele><time>2026-03-24T08:28:10.999Z</time></trkpt><trkpt lat="43.37213468596585" lon="10.59768602553343"><ele>255.0</ele><time>2026-03-24T08:28:11.999Z</time></trkpt><trkpt lat="43.37218965965413" lon="10.597921955668797"><ele>255.0</ele><time>2026-03-24T08:28:12.999Z</time></trkpt><trkpt lat="43.37217968330076" lon="10.598166656843508"><ele>255.66666666666669</ele><time>2026-03-24T08:28:13.999Z</time></trkpt><trkpt lat="43.37219621521793" lon="10.598399438040664"><ele>256.33333333333337</ele><time>2026-03-24T08:28:14.999Z</time></trkpt><trkpt lat="43.37222167152373" lon="10.59860331659998"><ele>257.0</ele><time>2026-03-24T08:28:15.999Z</time></trkpt><trkpt lat="43.37231957937801" lon="10.598768517791644"><ele>259.0</ele><time>2026-03-24T08:28:16.999Z</time></trkpt><trkpt lat="43.372457337117616" lon="10.598908200227102"><ele>261.0</ele><time>2026-03-24T08:28:17.999Z</time></trkpt><trkpt lat="43.372640405547344" lon="10.5990256426478"><ele>263.0</ele><time>2026-03-24T08:28:18.999Z</time></trkpt><trkpt lat="43.372836758305546" lon="10.599146667266114"><ele>263.0</ele><time>2026-03-24T08:28:19.999Z</time></trkpt><trkpt lat="43.37301879584638" lon="10.59924983883875"><ele>263.0</ele><time>2026-03-24T08:28:20.999Z</time></trkpt><trkpt lat="43.3731816518829" lon="10.59930506908145"><ele>263.0</ele><time>2026-03-24T08:28:21.999Z</time></trkpt><trkpt lat="43.373350915959" lon="10.599283983324964"><ele>263.6666666666667</ele><time>2026-03-24T08:28:22.999Z</time></trkpt><trkpt lat="43.37352530332416" lon="10.599188562629498"><ele>264.3333333333333</ele><time>2026-03-24T08:28:23.999Z</time></trkpt><trkpt lat="43.37367442606388" lon="10.59902801544114"><ele>265.0</ele><time>2026-03-24T08:28:24.999Z</time></trkpt><trkpt lat="43.37377093386676" lon="10.598831121554904"><ele>263.5</ele><time>2026-03-24T08:28:25.999Z</time></trkpt><trkpt lat="43.37383825529229" lon="10.598646486239144"><ele>262.0</ele><time>2026-03-24T08:28:26.999Z</time></trkpt><trkpt lat="43.37392011345359" lon="10.59851699491869"><ele>260.5</ele><time>2026-03-24T08:28:27.999Z</time></trkpt><trkpt lat="43.37403432574087" lon="10.598480911492956"><ele>259.0</ele><time>2026-03-24T08:28:28.999Z</time></trkpt><trkpt lat="43.374158881292416" lon="10.598542857858007"><ele>259.0</ele><time>2026-03-24T08:28:29.999Z</time></trkpt><trkpt lat="43.37430142043041" lon="10.598637280497524"><ele>259.0</ele><time>2026-03-24T08:28:30.999Z</time></trkpt><trkpt lat="43.37444976637268" lon="10.598797482403427"><ele>259.0</ele><time>2026-03-24T08:28:31.999Z</time></trkpt><trkpt lat="43.37459718270851" lon="10.598940968023284"><ele>263.66666666666663</ele><time>2026-03-24T08:28:32.999Z</time></trkpt><trkpt lat="43.37476196524122" lon="10.598976831734488"><ele>268.3333333333333</ele><time>2026-03-24T08:28:33.999Z</time></trkpt><trkpt lat="43.374946340542344" lon="10.598999619576642"><ele>273.0</ele><time>2026-03-24T08:28:34.999Z</time></trkpt><trkpt lat="43.375157520246745" lon="10.599009366864196"><ele>273.0</ele><time>2026-03-24T08:28:35.999Z</time></trkpt><trkpt lat="43.37536234686487" lon="10.599125808513735"><ele>273.0</ele><time>2026-03-24T08:28:36.999Z</time></trkpt><trkpt lat="43.37558991233894" lon="10.599247811767476"><ele>269.5</ele><time>2026-03-24T08:28:37.999Z</time></trkpt><trkpt lat="43.37581720521867" lon="10.599406836683627"><ele>266.0</ele><time>2026-03-24T08:28:38.999Z</time></trkpt><trkpt lat="43.37605352437793" lon="10.599562756916828"><ele>269.0</ele><time>2026-03-24T08:28:39.999Z</time></trkpt><trkpt lat="43.37628331968918" lon="10.599694285829916"><ele>272.0</ele><time>2026-03-24T08:28:40.999Z</time></trkpt><trkpt lat="43.37649896483119" lon="10.599783116964128"><ele>272.0</ele><time>2026-03-24T08:28:41.999Z</time></trkpt><trkpt lat="43.37673242291513" lon="10.599831465006734"><ele>272.0</ele><time>2026-03-24T08:28:42.999Z</time></trkpt><trkpt lat="43.37698494526906" lon="10.599833726883386"><ele>272.5</ele><time>2026-03-24T08:28:43.999Z</time></trkpt><trkpt lat="43.37724585250005" lon="10.599826236374152"><ele>273.0</ele><time>2026-03-24T08:28:44.999Z</time></trkpt><trkpt lat="43.377484768697514" lon="10.599825039240427"><ele>273.0</ele><time>2026-03-24T08:28:46Z</time></trkpt><trkpt lat="43.37769707875317" lon="10.599836891849083"><ele>273.0</ele><time>2026-03-24T08:28:46.999Z</time></trkpt><trkpt lat="43.37789664281178" lon="10.599858727407558"><ele>273.0</ele><time>2026-03-24T08:28:47.999Z</time></trkpt><trkpt lat="43.378088369646065" lon="10.59991649977363"><ele>271.6666666666667</ele><time>2026-03-24T08:28:48.999Z</time></trkpt><trkpt lat="43.37824133759908" lon="10.600069566158854"><ele>270.33333333333337</ele><time>2026-03-24T08:28:49.999Z</time></trkpt><trkpt lat="43.37841213831999" lon="10.600244360737399"><ele>269.0</ele><time>2026-03-24T08:28:50.999Z</time></trkpt><trkpt lat="43.378597256508876" lon="10.600425804262597"><ele>272.33333333333337</ele><time>2026-03-24T08:28:51.999Z</time></trkpt><trkpt lat="43.37879026054829" lon="10.600553727628009"><ele>275.6666666666667</ele><time>2026-03-24T08:28:52.999Z</time></trkpt><trkpt lat="43.37898538367751" lon="10.600613173275457"><ele>279.0</ele><time>2026-03-24T08:28:53.999Z</time></trkpt><trkpt lat="43.37918671674901" lon="10.600625952905768"><ele>279.0</ele><time>2026-03-24T08:28:55Z</time></trkpt><trkpt lat="43.37937694759442" lon="10.60062425938299"><ele>279.0</ele><time>2026-03-24T08:28:56Z</time></trkpt><trkpt lat="43.379547364581924" lon="10.600618381430039"><ele>279.0</ele><time>2026-03-24T08:28:57Z</time></trkpt><trkpt lat="43.3796912539586" lon="10.600670972828318"><ele>278.3333333333333</ele><time>2026-03-24T08:28:58Z</time></trkpt><trkpt lat="43.379806523293254" lon="10.60079771481363"><ele>277.66666666666663</ele><time>2026-03-24T08:28:59Z</time></trkpt><trkpt lat="43.379882346022754" lon="10.601003719115742"><ele>277.0</ele><time>2026-03-24T08:29:00Z</time></trkpt><trkpt lat="43.379974473266984" lon="10.601224650173533"><ele>280.3333333333333</ele><time>2026-03-24T08:29:01Z</time></trkpt><trkpt lat="43.38006997280747" lon="10.601481761093975"><ele>283.6666666666667</ele><time>2026-03-24T08:29:02Z</time></trkpt><trkpt lat="43.38017890438253" lon="10.601752522828177"><ele>287.0</ele><time>2026-03-24T08:29:03Z</time></trkpt><trkpt lat="43.38030677223645" lon="10.602008993413973"><ele>288.6666666666667</ele><time>2026-03-24T08:29:04Z</time></trkpt><trkpt lat="43.38044189205808" lon="10.602247553702401"><ele>290.3333333333333</ele><time>2026-03-24T08:29:05Z</time></trkpt><trkpt lat="43.38056706755927" lon="10.602472482871702"><ele>292.0</ele><time>2026-03-24T08:29:06Z</time></trkpt><trkpt lat="43.380660795921955" lon="10.602709627984666"><ele>291.0</ele><time>2026-03-24T08:29:07Z</time></trkpt><trkpt lat="43.38072483354867" lon="10.602946866348683"><ele>290.0</ele><time>2026-03-24T08:29:08Z</time></trkpt><trkpt lat="43.38078736179267" lon="10.603143642751933"><ele>289.0</ele><time>2026-03-24T08:29:09Z</time></trkpt><trkpt lat="43.38089311858721" lon="10.603292919543927"><ele>289.0</ele><time>2026-03-24T08:29:10Z</time></trkpt><trkpt lat="43.381052921963665" lon="10.603368024649201"><ele>289.0</ele><time>2026-03-24T08:29:11Z</time></trkpt><trkpt lat="43.381248283923775" lon="10.603432117966268"><ele>289.0</ele><time>2026-03-24T08:29:12Z</time></trkpt><trkpt lat="43.38144089923779" lon="10.603527026482586"><ele>293.3333333333333</ele><time>2026-03-24T08:29:13Z</time></trkpt><trkpt lat="43.381608549106005" lon="10.603708098422326"><ele>297.6666666666667</ele><time>2026-03-24T08:29:14Z</time></trkpt><trkpt lat="43.38177631309613" lon="10.603866077065398"><ele>302.0</ele><time>2026-03-24T08:29:15Z</time></trkpt><trkpt lat="43.38193432448361" lon="10.603985788232007"><ele>302.0</ele><time>2026-03-24T08:29:16Z</time></trkpt><trkpt lat="43.382128031551076" lon="10.604033651843354"><ele>302.0</ele><time>2026-03-24T08:29:17Z</time></trkpt><trkpt lat="43.382350627100315" lon="10.60400688854484"><ele>302.0</ele><time>2026-03-24T08:29:18Z</time></trkpt><trkpt lat="43.38259419904949" lon="10.60398505131771"><ele>302.33333333333337</ele><time>2026-03-24T08:29:19Z</time></trkpt><trkpt lat="43.38283349418508" lon="10.603991701097714"><ele>302.6666666666667</ele><time>2026-03-24T08:29:20Z</time></trkpt><trkpt lat="43.383033995716914" lon="10.604015388562104"><ele>303.0</ele><time>2026-03-24T08:29:21Z</time></trkpt><trkpt lat="43.383188748561295" lon="10.603999159405017"><ele>301.6666666666667</ele><time>2026-03-24T08:29:22Z</time></trkpt><trkpt lat="43.38333166650831" lon="10.603914203261388"><ele>300.33333333333337</ele><time>2026-03-24T08:29:23Z</time></trkpt><trkpt lat="43.383462975092414" lon="10.603740169580911"><ele>299.0</ele><time>2026-03-24T08:29:24Z</time></trkpt><trkpt lat="43.38360038474226" lon="10.60350764252159"><ele>299.0</ele><time>2026-03-24T08:29:25Z</time></trkpt><trkpt lat="43.38374572796436" lon="10.603282239580423"><ele>299.0</ele><time>2026-03-24T08:29:26Z</time></trkpt><trkpt lat="43.38391763555919" lon="10.603058599868755"><ele>300.5</ele><time>2026-03-24T08:29:27Z</time></trkpt><trkpt lat="43.38409932489049" lon="10.602830306584556"><ele>302.0</ele><time>2026-03-24T08:29:28Z</time></trkpt><trkpt lat="43.384291279641715" lon="10.602621995389761"><ele>302.0</ele><time>2026-03-24T08:29:29Z</time></trkpt><trkpt lat="43.384494389826145" lon="10.602412456086714"><ele>302.0</ele><time>2026-03-24T08:29:30Z</time></trkpt><trkpt lat="43.38469830293291" lon="10.602200091832096"><ele>305.0</ele><time>2026-03-24T08:29:31Z</time></trkpt><trkpt lat="43.38489551272725" lon="10.601968096597567"><ele>308.0</ele><time>2026-03-24T08:29:32Z</time></trkpt><trkpt lat="43.3850630204575" lon="10.601691490037217"><ele>308.0</ele><time>2026-03-24T08:29:33Z</time></trkpt><trkpt lat="43.38521180374015" lon="10.601402298905782"><ele>308.0</ele><time>2026-03-24T08:29:34Z</time></trkpt><trkpt lat="43.385367271582325" lon="10.601198843419487"><ele>310.5</ele><time>2026-03-24T08:29:35Z</time></trkpt><trkpt lat="43.38554434845086" lon="10.601007702210707"><ele>313.0</ele><time>2026-03-24T08:29:36Z</time></trkpt><trkpt lat="43.3857462353975" lon="10.600800142793796"><ele>313.0</ele><time>2026-03-24T08:29:37Z</time></trkpt><trkpt lat="43.385982609515835" lon="10.60061641052956"><ele>313.0</ele><time>2026-03-24T08:29:38Z</time></trkpt><trkpt lat="43.3862154744878" lon="10.600409131878878"><ele>312.3333333333333</ele><time>2026-03-24T08:29:39Z</time></trkpt><trkpt lat="43.38641565623672" lon="10.600225550246531"><ele>311.6666666666667</ele><time>2026-03-24T08:29:40Z</time></trkpt><trkpt lat="43.3865688841583" lon="10.600087735098045"><ele>311.0</ele><time>2026-03-24T08:29:41Z</time></trkpt><trkpt lat="43.38668605944806" lon="10.59999912209759"><ele>311.0</ele><time>2026-03-24T08:29:42Z</time></trkpt><trkpt lat="43.38677351673062" lon="10.599932329893019"><ele>311.0</ele><time>2026-03-24T08:29:43Z</time></trkpt><trkpt lat="43.38685220560744" lon="10.599829109147514"><ele>311.0</ele><time>2026-03-24T08:29:44Z</time></trkpt><trkpt lat="43.386888809200464" lon="10.599680465889918"><ele>311.0</ele><time>2026-03-24T08:29:45Z</time></trkpt><trkpt lat="43.386873834717754" lon="10.59948985778975"><ele>311.0</ele><time>2026-03-24T08:29:46Z</time></trkpt><trkpt lat="43.38684132113749" lon="10.599252516538822"><ele>311.0</ele><time>2026-03-24T08:29:47Z</time></trkpt><trkpt lat="43.38678098386355" lon="10.598981402253973"><ele>311.0</ele><time>2026-03-24T08:29:48Z</time></trkpt><trkpt lat="43.38670659524208" lon="10.598709555073889"><ele>312.0</ele><time>2026-03-24T08:29:49Z</time></trkpt><trkpt lat="43.38663650074897" lon="10.598408517839319"><ele>313.0</ele><time>2026-03-24T08:29:50Z</time></trkpt><trkpt lat="43.3866246225444" lon="10.59811976572543"><ele>314.0</ele><time>2026-03-24T08:29:51Z</time></trkpt><trkpt lat="43.38663740589541" lon="10.59783187834512"><ele>314.0</ele><time>2026-03-24T08:29:52Z</time></trkpt><trkpt lat="43.38665972104141" lon="10.597530786086676"><ele>314.0</ele><time>2026-03-24T08:29:53Z</time></trkpt><trkpt lat="43.38673795132688" lon="10.597219702244825"><ele>312.0</ele><time>2026-03-24T08:29:54Z</time></trkpt><trkpt lat="43.386803134464564" lon="10.596867298883486"><ele>310.0</ele><time>2026-03-24T08:29:55Z</time></trkpt><trkpt lat="43.3868471962535" lon="10.596560412448666"><ele>310.0</ele><time>2026-03-24T08:29:56Z</time></trkpt><trkpt lat="43.386915017960725" lon="10.596278615741204"><ele>310.0</ele><time>2026-03-24T08:29:57Z</time></trkpt><trkpt lat="43.38697205770158" lon="10.596008545388713"><ele>310.0</ele><time>2026-03-24T08:29:58Z</time></trkpt><trkpt lat="43.38701244698553" lon="10.595769823781476"><ele>308.3333333333333</ele><time>2026-03-24T08:29:59Z</time></trkpt><trkpt lat="43.38709625595905" lon="10.595576282835552"><ele>306.6666666666667</ele><time>2026-03-24T08:30:00Z</time></trkpt><trkpt lat="43.38723009127605" lon="10.595469241315984"><ele>305.0</ele><time>2026-03-24T08:30:01Z</time></trkpt><trkpt lat="43.387391450763324" lon="10.595396430840696"><ele>308.75</ele><time>2026-03-24T08:30:02Z</time></trkpt><trkpt lat="43.387547856221445" lon="10.595314787707073"><ele>312.5</ele><time>2026-03-24T08:30:03Z</time></trkpt><trkpt lat="43.38766063843972" lon="10.595252457963335"><ele>316.25</ele><time>2026-03-24T08:30:04Z</time></trkpt><trkpt lat="43.387747856698674" lon="10.595168526406725"><ele>320.0</ele><time>2026-03-24T08:30:05Z</time></trkpt><trkpt lat="43.387766489961656" lon="10.595028339512595"><ele>320.0</ele><time>2026-03-24T08:30:06Z</time></trkpt><trkpt lat="43.3877633928567" lon="10.594879652549716"><ele>320.0</ele><time>2026-03-24T08:30:07Z</time></trkpt><trkpt lat="43.387694380745614" lon="10.594740547395526"><ele>320.0</ele><time>2026-03-24T08:30:08Z</time></trkpt><trkpt lat="43.38758658808592" lon="10.594609727225217"><ele>320.0</ele><time>2026-03-24T08:30:09Z</time></trkpt><trkpt lat="43.38743821928317" lon="10.59446708209953"><ele>319.33333333333337</ele><time>2026-03-24T08:30:10Z</time></trkpt><trkpt lat="43.38727471538263" lon="10.59432402639101"><ele>318.6666666666667</ele><time>2026-03-24T08:30:11Z</time></trkpt><trkpt lat="43.38707961698925" lon="10.594197025070589"><ele>318.0</ele><time>2026-03-24T08:30:12Z</time></trkpt><trkpt lat="43.38687348025151" lon="10.594032158557212"><ele>318.0</ele><time>2026-03-24T08:30:13Z</time></trkpt><trkpt lat="43.38668918276148" lon="10.593850794922282"><ele>318.0</ele><time>2026-03-24T08:30:14Z</time></trkpt><trkpt lat="43.38652084043495" lon="10.593714769271708"><ele>318.0</ele><time>2026-03-24T08:30:15Z</time></trkpt><trkpt lat="43.386369175931506" lon="10.59362906785248"><ele>317.25</ele><time>2026-03-24T08:30:16Z</time></trkpt><trkpt lat="43.38626619944796" lon="10.593540640794432"><ele>316.5</ele><time>2026-03-24T08:30:17Z</time></trkpt><trkpt lat="43.38621570289705" lon="10.593395464844024"><ele>315.75</ele><time>2026-03-24T08:30:18Z</time></trkpt><trkpt lat="43.38621596590728" lon="10.593184700595161"><ele>315.0</ele><time>2026-03-24T08:30:19Z</time></trkpt><trkpt lat="43.386198580929666" lon="10.59294802762006"><ele>317.0</ele><time>2026-03-24T08:30:20Z</time></trkpt><trkpt lat="43.38619617054986" lon="10.592671800257406"><ele>319.0</ele><time>2026-03-24T08:30:21Z</time></trkpt><trkpt lat="43.386179894490404" lon="10.592389735170569"><ele>321.0</ele><time>2026-03-24T08:30:22Z</time></trkpt><trkpt lat="43.38613838350101" lon="10.592128702750331"><ele>324.3333333333333</ele><time>2026-03-24T08:30:23Z</time></trkpt><trkpt lat="43.38606647261413" lon="10.59191834423306"><ele>327.66666666666663</ele><time>2026-03-24T08:30:24Z</time></trkpt><trkpt lat="43.38594859405152" lon="10.591766153949754"><ele>331.0</ele><time>2026-03-24T08:30:25Z</time></trkpt><trkpt lat="43.38580366091521" lon="10.591669218165308"><ele>331.0</ele><time>2026-03-24T08:30:26Z</time></trkpt><trkpt lat="43.38561375757798" lon="10.591664405192862"><ele>331.0</ele><time>2026-03-24T08:30:27Z</time></trkpt><trkpt lat="43.385406772707086" lon="10.591681093245482"><ele>331.0</ele><time>2026-03-24T08:30:28Z</time></trkpt><trkpt lat="43.38517721548173" lon="10.591665696376605"><ele>328.0</ele><time>2026-03-24T08:30:29Z</time></trkpt><trkpt lat="43.38497018380818" lon="10.591543268018334"><ele>325.0</ele><time>2026-03-24T08:30:30Z</time></trkpt><trkpt lat="43.38476643235419" lon="10.591411609907384"><ele>324.3333333333333</ele><time>2026-03-24T08:30:31Z</time></trkpt><trkpt lat="43.38463134470398" lon="10.591195535226516"><ele>323.6666666666667</ele><time>2026-03-24T08:30:32Z</time></trkpt><trkpt lat="43.38454933395464" lon="10.590967754205902"><ele>323.0</ele><time>2026-03-24T08:30:33Z</time></trkpt><trkpt lat="43.38445439156788" lon="10.590671879744463"><ele>323.0</ele><time>2026-03-24T08:30:34Z</time></trkpt><trkpt lat="43.3843360601978" lon="10.590368121278713"><ele>323.0</ele><time>2026-03-24T08:30:35Z</time></trkpt><trkpt lat="43.384210629297336" lon="10.590085253330038"><ele>326.5</ele><time>2026-03-24T08:30:36Z</time></trkpt><trkpt lat="43.38404032155027" lon="10.589816773321791"><ele>330.0</ele><time>2026-03-24T08:30:36.999Z</time></trkpt><trkpt lat="43.383879129811014" lon="10.589580476702704"><ele>328.6666666666667</ele><time>2026-03-24T08:30:37.999Z</time></trkpt><trkpt lat="43.38375843348975" lon="10.589358856569937"><ele>327.33333333333337</ele><time>2026-03-24T08:30:38.999Z</time></trkpt><trkpt lat="43.3836787569752" lon="10.589134853960239"><ele>326.0</ele><time>2026-03-24T08:30:39.999Z</time></trkpt><trkpt lat="43.383643783838316" lon="10.588898908720923"><ele>328.6666666666667</ele><time>2026-03-24T08:30:40.999Z</time></trkpt><trkpt lat="43.383609705079905" lon="10.58863608523073"><ele>331.3333333333333</ele><time>2026-03-24T08:30:41.999Z</time></trkpt><trkpt lat="43.38352060004059" lon="10.588349877191085"><ele>334.0</ele><time>2026-03-24T08:30:42.999Z</time></trkpt><trkpt lat="43.3834104366513" lon="10.588084033657877"><ele>334.0</ele><time>2026-03-24T08:30:43.999Z</time></trkpt><trkpt lat="43.38330398880808" lon="10.587863842486554"><ele>334.0</ele><time>2026-03-24T08:30:44.999Z</time></trkpt><trkpt lat="43.383258491397626" lon="10.587611537503399"><ele>334.0</ele><time>2026-03-24T08:30:45.999Z</time></trkpt><trkpt lat="43.38319006101973" lon="10.587330261075845"><ele>336.3333333333333</ele><time>2026-03-24T08:30:46.999Z</time></trkpt><trkpt lat="43.38314448349389" lon="10.58704412747614"><ele>338.6666666666667</ele><time>2026-03-24T08:30:47.999Z</time></trkpt><trkpt lat="43.38309882521641" lon="10.586790997308784"><ele>341.0</ele><time>2026-03-24T08:30:48.999Z</time></trkpt><trkpt lat="43.38309222936973" lon="10.586538971435525"><ele>342.0</ele><time>2026-03-24T08:30:49.999Z</time></trkpt><trkpt lat="43.38314865570857" lon="10.586284320837091"><ele>343.0</ele><time>2026-03-24T08:30:50.999Z</time></trkpt><trkpt lat="43.3832268795723" lon="10.58601230856204"><ele>344.0</ele><time>2026-03-24T08:30:51.999Z</time></trkpt><trkpt lat="43.38327099184296" lon="10.585736291643622"><ele>345.5</ele><time>2026-03-24T08:30:52.999Z</time></trkpt><trkpt lat="43.3832247243219" lon="10.585452911493466"><ele>347.0</ele><time>2026-03-24T08:30:53.999Z</time></trkpt><trkpt lat="43.38313428411547" lon="10.585144072185834"><ele>348.6666666666667</ele><time>2026-03-24T08:30:54.999Z</time></trkpt><trkpt lat="43.38311159864225" lon="10.584811188467325"><ele>350.3333333333333</ele><time>2026-03-24T08:30:55.999Z</time></trkpt><trkpt lat="43.38301863217919" lon="10.584560035707176"><ele>352.0</ele><time>2026-03-24T08:30:56.999Z</time></trkpt><trkpt lat="43.38293142938504" lon="10.584309408609498"><ele>348.0</ele><time>2026-03-24T08:30:57.999Z</time></trkpt><trkpt lat="43.38291007528704" lon="10.584091619031364"><ele>344.0</ele><time>2026-03-24T08:30:58.999Z</time></trkpt><trkpt lat="43.38290655570431" lon="10.583828097360737"><ele>340.0</ele><time>2026-03-24T08:31:00Z</time></trkpt><trkpt lat="43.38285014961452" lon="10.583596610303386"><ele>340.0</ele><time>2026-03-24T08:31:01Z</time></trkpt><trkpt lat="43.38276683603999" lon="10.583331702719578"><ele>340.0</ele><time>2026-03-24T08:31:02Z</time></trkpt><trkpt lat="43.38262212683478" lon="10.583074456610234"><ele>340.0</ele><time>2026-03-24T08:31:03Z</time></trkpt><trkpt lat="43.3824472144554" lon="10.582875244212678"><ele>340.0</ele><time>2026-03-24T08:31:04Z</time></trkpt><trkpt lat="43.38225179328039" lon="10.582744577642309"><ele>340.0</ele><time>2026-03-24T08:31:05Z</time></trkpt><trkpt lat="43.38205640987902" lon="10.582646937899002"><ele>340.0</ele><time>2026-03-24T08:31:06Z</time></trkpt><trkpt lat="43.381897832841744" lon="10.582518456840155"><ele>340.0</ele><time>2026-03-24T08:31:07Z</time></trkpt><trkpt lat="43.38172635096661" lon="10.582375796663467"><ele>340.0</ele><time>2026-03-24T08:31:08Z</time></trkpt><trkpt lat="43.3816703681008" lon="10.582154811851511"><ele>340.0</ele><time>2026-03-24T08:31:09Z</time></trkpt><trkpt lat="43.381616354036005" lon="10.581917430215656"><ele>342.0</ele><time>2026-03-24T08:31:10Z</time></trkpt><trkpt lat="43.38156229296946" lon="10.581625826875298"><ele>344.0</ele><time>2026-03-24T08:31:11Z</time></trkpt><trkpt lat="43.38150307976726" lon="10.581402952453278"><ele>346.0</ele><time>2026-03-24T08:31:12Z</time></trkpt><trkpt lat="43.38149418886837" lon="10.581228759764317"><ele>346.3333333333333</ele><time>2026-03-24T08:31:13Z</time></trkpt><trkpt lat="43.381518861536144" lon="10.581057360805895"><ele>346.6666666666667</ele><time>2026-03-24T08:31:14Z</time></trkpt><trkpt lat="43.381613103416534" lon="10.580888187885916"><ele>347.0</ele><time>2026-03-24T08:31:15Z</time></trkpt><trkpt lat="43.381742285152995" lon="10.580691976401567"><ele>347.0</ele><time>2026-03-24T08:31:16Z</time></trkpt><trkpt lat="43.38188078784449" lon="10.580464271576401"><ele>347.0</ele><time>2026-03-24T08:31:17Z</time></trkpt><trkpt lat="43.382042898163874" lon="10.580252122531855"><ele>347.0</ele><time>2026-03-24T08:31:18Z</time></trkpt><trkpt lat="43.38223954023711" lon="10.58003920282783"><ele>349.5</ele><time>2026-03-24T08:31:19Z</time></trkpt><trkpt lat="43.38244866466858" lon="10.57983460742228"><ele>352.0</ele><time>2026-03-24T08:31:20Z</time></trkpt><trkpt lat="43.38264919779723" lon="10.579620628397917"><ele>353.5</ele><time>2026-03-24T08:31:21Z</time></trkpt><trkpt lat="43.38285210606553" lon="10.579414040588812"><ele>355.0</ele><time>2026-03-24T08:31:22Z</time></trkpt><trkpt lat="43.38303509677964" lon="10.579226913657115"><ele>355.0</ele><time>2026-03-24T08:31:23Z</time></trkpt><trkpt lat="43.38319650251115" lon="10.579021160589646"><ele>355.0</ele><time>2026-03-24T08:31:24Z</time></trkpt><trkpt lat="43.38330948420458" lon="10.578750281599241"><ele>355.0</ele><time>2026-03-24T08:31:25Z</time></trkpt><trkpt lat="43.38341530764643" lon="10.57843287132381"><ele>357.0</ele><time>2026-03-24T08:31:26Z</time></trkpt><trkpt lat="43.38356858028398" lon="10.578217259477993"><ele>359.0</ele><time>2026-03-24T08:31:27Z</time></trkpt><trkpt lat="43.383720735908966" lon="10.578016791435578"><ele>361.0</ele><time>2026-03-24T08:31:28Z</time></trkpt><trkpt lat="43.38385408619155" lon="10.577787042806074"><ele>361.0</ele><time>2026-03-24T08:31:29Z</time></trkpt><trkpt lat="43.38395613031378" lon="10.577506716381942"><ele>361.0</ele><time>2026-03-24T08:31:30Z</time></trkpt><trkpt lat="43.384001744814434" lon="10.5771873753548"><ele>362.0</ele><time>2026-03-24T08:31:31Z</time></trkpt><trkpt lat="43.38399672257603" lon="10.576893653003255"><ele>363.0</ele><time>2026-03-24T08:31:32Z</time></trkpt><trkpt lat="43.38394231539465" lon="10.576645368620122"><ele>364.0</ele><time>2026-03-24T08:31:33Z</time></trkpt><trkpt lat="43.383841387545594" lon="10.576444953722707"><ele>358.3333333333333</ele><time>2026-03-24T08:31:34Z</time></trkpt><trkpt lat="43.383759414362785" lon="10.576267167422804"><ele>352.6666666666667</ele><time>2026-03-24T08:31:35Z</time></trkpt><trkpt lat="43.38372126171013" lon="10.576064665770222"><ele>347.0</ele><time>2026-03-24T08:31:36Z</time></trkpt><trkpt lat="43.38374755092377" lon="10.5758576845487"><ele>347.0</ele><time>2026-03-24T08:31:37Z</time></trkpt><trkpt lat="43.383798238154704" lon="10.575670425040409"><ele>347.0</ele><time>2026-03-24T08:31:38Z</time></trkpt><trkpt lat="43.383884780216285" lon="10.575542784458946"><ele>347.0</ele><time>2026-03-24T08:31:39Z</time></trkpt><trkpt lat="43.383946309962" lon="10.5755807429618"><ele>347.0</ele><time>2026-03-24T08:31:40Z</time></trkpt><trkpt lat="43.384056816986075" lon="10.575587095669391"><ele>352.33333333333337</ele><time>2026-03-24T08:31:41Z</time></trkpt><trkpt lat="43.38415349791169" lon="10.575612455444858"><ele>357.6666666666667</ele><time>2026-03-24T08:31:42Z</time></trkpt><trkpt lat="43.38430875336064" lon="10.57573696288224"><ele>363.0</ele><time>2026-03-24T08:31:43Z</time></trkpt><trkpt lat="43.384474775331306" lon="10.575887956845559"><ele>363.0</ele><time>2026-03-24T08:31:44Z</time></trkpt><trkpt lat="43.38460685941754" lon="10.575974941933586"><ele>363.0</ele><time>2026-03-24T08:31:45Z</time></trkpt><trkpt lat="43.384767673249534" lon="10.57594122636118"><ele>363.0</ele><time>2026-03-24T08:31:46Z</time></trkpt><trkpt lat="43.38490982125487" lon="10.575827391372798"><ele>362.6666666666667</ele><time>2026-03-24T08:31:47Z</time></trkpt><trkpt lat="43.38506052636527" lon="10.575677094092672"><ele>362.33333333333337</ele><time>2026-03-24T08:31:48Z</time></trkpt><trkpt lat="43.38521387340144" lon="10.575482427800427"><ele>362.0</ele><time>2026-03-24T08:31:49Z</time></trkpt><trkpt lat="43.385369502611994" lon="10.57521830945948"><ele>370.5</ele><time>2026-03-24T08:31:50Z</time></trkpt><trkpt lat="43.3855356690179" lon="10.574979013102967"><ele>379.0</ele><time>2026-03-24T08:31:51Z</time></trkpt><trkpt lat="43.385727869727724" lon="10.574766241370595"><ele>379.0</ele><time>2026-03-24T08:31:52Z</time></trkpt><trkpt lat="43.38592203162448" lon="10.574618167492165"><ele>379.0</ele><time>2026-03-24T08:31:53Z</time></trkpt><trkpt lat="43.38611720822923" lon="10.574494240293737"><ele>379.0</ele><time>2026-03-24T08:31:54Z</time></trkpt><trkpt lat="43.38622531034216" lon="10.574467627882123"><ele>376.3333333333333</ele><time>2026-03-24T08:31:55Z</time></trkpt><trkpt lat="43.3863820978096" lon="10.574502956221515"><ele>373.6666666666667</ele><time>2026-03-24T08:31:56Z</time></trkpt><trkpt lat="43.386519457328525" lon="10.57455212859734"><ele>371.0</ele><time>2026-03-24T08:31:57Z</time></trkpt><trkpt lat="43.386704427171274" lon="10.574615332238643"><ele>381.5</ele><time>2026-03-24T08:31:58Z</time></trkpt><trkpt lat="43.38693590227083" lon="10.574683677513015"><ele>392.0</ele><time>2026-03-24T08:31:59Z</time></trkpt><trkpt lat="43.38716922949976" lon="10.57477032391799"><ele>390.0</ele><time>2026-03-24T08:32:00Z</time></trkpt><trkpt lat="43.38740631120694" lon="10.57488314898017"><ele>388.0</ele><time>2026-03-24T08:32:01Z</time></trkpt><trkpt lat="43.38764161955725" lon="10.575020191443517"><ele>388.0</ele><time>2026-03-24T08:32:02Z</time></trkpt><trkpt lat="43.38790833600663" lon="10.575074311792916"><ele>388.0</ele><time>2026-03-24T08:32:03Z</time></trkpt><trkpt lat="43.3881605022383" lon="10.575066923189128"><ele>386.5</ele><time>2026-03-24T08:32:04Z</time></trkpt><trkpt lat="43.388409281138074" lon="10.575030717774563"><ele>385.0</ele><time>2026-03-24T08:32:05Z</time></trkpt><trkpt lat="43.38864324116576" lon="10.575024627449414"><ele>385.0</ele><time>2026-03-24T08:32:06Z</time></trkpt><trkpt lat="43.388838338682966" lon="10.575004892510153"><ele>385.0</ele><time>2026-03-24T08:32:07Z</time></trkpt><trkpt lat="43.3890112450056" lon="10.574861578966186"><ele>385.0</ele><time>2026-03-24T08:32:08Z</time></trkpt><trkpt lat="43.38917033522298" lon="10.574675179713873"><ele>386.0</ele><time>2026-03-24T08:32:09Z</time></trkpt><trkpt lat="43.38934966467605" lon="10.574463596142374"><ele>387.0</ele><time>2026-03-24T08:32:10Z</time></trkpt><trkpt lat="43.38949980954421" lon="10.574237583845873"><ele>387.0</ele><time>2026-03-24T08:32:11Z</time></trkpt><trkpt lat="43.389571586278194" lon="10.57403441019602"><ele>387.0</ele><time>2026-03-24T08:32:12Z</time></trkpt><trkpt lat="43.389646549750665" lon="10.573736460751137"><ele>387.0</ele><time>2026-03-24T08:32:13Z</time></trkpt><trkpt lat="43.38973374998731" lon="10.573554126836786"><ele>389.5</ele><time>2026-03-24T08:32:14Z</time></trkpt><trkpt lat="43.389805519182744" lon="10.57343990966082"><ele>392.0</ele><time>2026-03-24T08:32:15Z</time></trkpt><trkpt lat="43.38991817172972" lon="10.573361724236813"><ele>394.5</ele><time>2026-03-24T08:32:16Z</time></trkpt><trkpt lat="43.39006055693837" lon="10.573345863865413"><ele>397.0</ele><time>2026-03-24T08:32:17Z</time></trkpt><trkpt lat="43.390232916270456" lon="10.573319207896885"><ele>397.0</ele><time>2026-03-24T08:32:18Z</time></trkpt><trkpt lat="43.39042444430017" lon="10.57323265741127"><ele>397.0</ele><time>2026-03-24T08:32:19Z</time></trkpt><trkpt lat="43.39063390013896" lon="10.573141013999928"><ele>397.0</ele><time>2026-03-24T08:32:20Z</time></trkpt><trkpt lat="43.39080141261178" lon="10.573070912134902"><ele>397.40000000000003</ele><time>2026-03-24T08:32:21Z</time></trkpt><trkpt lat="43.39090832492024" lon="10.573075399150666"><ele>397.8</ele><time>2026-03-24T08:32:22Z</time></trkpt><trkpt lat="43.39099116201894" lon="10.573146488121731"><ele>398.2</ele><time>2026-03-24T08:32:23Z</time></trkpt><trkpt lat="43.39103715034723" lon="10.573251239880253"><ele>398.6</ele><time>2026-03-24T08:32:23.999Z</time></trkpt><trkpt lat="43.3910979816957" lon="10.573418331082236"><ele>399.0</ele><time>2026-03-24T08:32:24.999Z</time></trkpt><trkpt lat="43.39112174583295" lon="10.573624251764874"><ele>400.0</ele><time>2026-03-24T08:32:25.999Z</time></trkpt><trkpt lat="43.39113227612898" lon="10.573826364004342"><ele>401.0</ele><time>2026-03-24T08:32:26.999Z</time></trkpt><trkpt lat="43.391154793793525" lon="10.574081616968261"><ele>402.0</ele><time>2026-03-24T08:32:27.999Z</time></trkpt><trkpt lat="43.39120593756398" lon="10.574367442684968"><ele>400.0</ele><time>2026-03-24T08:32:28.999Z</time></trkpt><trkpt lat="43.391302413278694" lon="10.574636041922036"><ele>398.0</ele><time>2026-03-24T08:32:29.999Z</time></trkpt><trkpt lat="43.39143071508681" lon="10.574881660642205"><ele>396.0</ele><time>2026-03-24T08:32:30.999Z</time></trkpt><trkpt lat="43.39152743581272" lon="10.575100592244715"><ele>396.0</ele><time>2026-03-24T08:32:31.999Z</time></trkpt><trkpt lat="43.391594046807946" lon="10.57531866437294"><ele>396.0</ele><time>2026-03-24T08:32:32.999Z</time></trkpt><trkpt lat="43.39164733758379" lon="10.575472469924094"><ele>396.0</ele><time>2026-03-24T08:32:33.999Z</time></trkpt><trkpt lat="43.391734132926935" lon="10.575563733311144"><ele>396.0</ele><time>2026-03-24T08:32:34.999Z</time></trkpt><trkpt lat="43.391879593483814" lon="10.57560695291411"><ele>396.66666666666663</ele><time>2026-03-24T08:32:35.999Z</time></trkpt><trkpt lat="43.39202391723892" lon="10.57558960654943"><ele>397.3333333333333</ele><time>2026-03-24T08:32:36.999Z</time></trkpt><trkpt lat="43.39219754278225" lon="10.575544631392503"><ele>398.0</ele><time>2026-03-24T08:32:37.999Z</time></trkpt><trkpt lat="43.39239163688851" lon="10.575512046144853"><ele>398.0</ele><time>2026-03-24T08:32:38.999Z</time></trkpt><trkpt lat="43.39254491182666" lon="10.575357081150328"><ele>398.0</ele><time>2026-03-24T08:32:39.999Z</time></trkpt><trkpt lat="43.3926687258115" lon="10.575168389064626"><ele>398.0</ele><time>2026-03-24T08:32:40.999Z</time></trkpt><trkpt lat="43.39275714395696" lon="10.574954230715038"><ele>396.66666666666663</ele><time>2026-03-24T08:32:41.999Z</time></trkpt><trkpt lat="43.39283769040982" lon="10.574694560870675"><ele>395.33333333333337</ele><time>2026-03-24T08:32:42.999Z</time></trkpt><trkpt lat="43.39291246808833" lon="10.574469018625631"><ele>394.0</ele><time>2026-03-24T08:32:43.999Z</time></trkpt><trkpt lat="43.393031071772214" lon="10.574270004629234"><ele>394.0</ele><time>2026-03-24T08:32:44.999Z</time></trkpt><trkpt lat="43.39319241915303" lon="10.574121287218256"><ele>394.0</ele><time>2026-03-24T08:32:45.999Z</time></trkpt><trkpt lat="43.3933893687387" lon="10.573965838858726"><ele>394.0</ele><time>2026-03-24T08:32:46.999Z</time></trkpt><trkpt lat="43.393612570910975" lon="10.573795373138688"><ele>392.5</ele><time>2026-03-24T08:32:47.999Z</time></trkpt><trkpt lat="43.3938430270785" lon="10.5736159441565"><ele>391.0</ele><time>2026-03-24T08:32:48.999Z</time></trkpt><trkpt lat="43.394062184765474" lon="10.573422263860904"><ele>391.0</ele><time>2026-03-24T08:32:49.999Z</time></trkpt><trkpt lat="43.39431261087563" lon="10.573281780768674"><ele>391.0</ele><time>2026-03-24T08:32:50.999Z</time></trkpt><trkpt lat="43.394576806235655" lon="10.573158014473126"><ele>397.0</ele><time>2026-03-24T08:32:51.999Z</time></trkpt><trkpt lat="43.39484905196767" lon="10.573032169259045"><ele>403.0</ele><time>2026-03-24T08:32:52.999Z</time></trkpt><trkpt lat="43.39512024541966" lon="10.572927856009297"><ele>394.0</ele><time>2026-03-24T08:32:53.999Z</time></trkpt><trkpt lat="43.39535677783841" lon="10.572811154719743"><ele>385.0</ele><time>2026-03-24T08:32:54.999Z</time></trkpt><trkpt lat="43.39558399069495" lon="10.57274365212"><ele>385.0</ele><time>2026-03-24T08:32:55.999Z</time></trkpt><trkpt lat="43.395806351394036" lon="10.572727884908408"><ele>385.0</ele><time>2026-03-24T08:32:56.999Z</time></trkpt><trkpt lat="43.39603764801324" lon="10.57275363128024"><ele>385.0</ele><time>2026-03-24T08:32:57.999Z</time></trkpt><trkpt lat="43.396285149754945" lon="10.572818572135363"><ele>385.0</ele><time>2026-03-24T08:32:58.999Z</time></trkpt><trkpt lat="43.39655417619969" lon="10.572887667778417"><ele>391.5</ele><time>2026-03-24T08:32:59.999Z</time></trkpt><trkpt lat="43.39683329340311" lon="10.572953266762614"><ele>398.0</ele><time>2026-03-24T08:33:00.999Z</time></trkpt><trkpt lat="43.397096534472965" lon="10.573012318147956"><ele>395.3333333333333</ele><time>2026-03-24T08:33:01.999Z</time></trkpt><trkpt lat="43.39731670134115" lon="10.573074917774509"><ele>392.66666666666663</ele><time>2026-03-24T08:33:02.999Z</time></trkpt><trkpt lat="43.39749640623374" lon="10.573181622899723"><ele>390.0</ele><time>2026-03-24T08:33:03.999Z</time></trkpt><trkpt lat="43.39762892335461" lon="10.573330630877996"><ele>390.0</ele><time>2026-03-24T08:33:05Z</time></trkpt><trkpt lat="43.39778119036545" lon="10.57351547463869"><ele>390.0</ele><time>2026-03-24T08:33:06Z</time></trkpt><trkpt lat="43.397938043839474" lon="10.57366258259522"><ele>390.0</ele><time>2026-03-24T08:33:07Z</time></trkpt><trkpt lat="43.39808116323438" lon="10.573747729266318"><ele>388.33333333333337</ele><time>2026-03-24T08:33:08Z</time></trkpt><trkpt lat="43.39821433590483" lon="10.57375630232522"><ele>386.6666666666667</ele><time>2026-03-24T08:33:09Z</time></trkpt><trkpt lat="43.3983998097544" lon="10.573698631697814"><ele>385.0</ele><time>2026-03-24T08:33:10Z</time></trkpt><trkpt lat="43.39861986881423" lon="10.573637243590358"><ele>386.0</ele><time>2026-03-24T08:33:11Z</time></trkpt><trkpt lat="43.398846072149816" lon="10.5735802075445"><ele>387.0</ele><time>2026-03-24T08:33:12Z</time></trkpt><trkpt lat="43.39906892651569" lon="10.573519238973848"><ele>387.0</ele><time>2026-03-24T08:33:13Z</time></trkpt><trkpt lat="43.39928188381665" lon="10.573459443152405"><ele>387.0</ele><time>2026-03-24T08:33:14Z</time></trkpt><trkpt lat="43.399486722406905" lon="10.573361019405507"><ele>387.0</ele><time>2026-03-24T08:33:15Z</time></trkpt><trkpt lat="43.399674972271846" lon="10.573199691064042"><ele>387.0</ele><time>2026-03-24T08:33:16Z</time></trkpt><trkpt lat="43.39983475724758" lon="10.572976058013285"><ele>387.0</ele><time>2026-03-24T08:33:17Z</time></trkpt><trkpt lat="43.39995490513043" lon="10.572694469279078"><ele>387.0</ele><time>2026-03-24T08:33:18Z</time></trkpt><trkpt lat="43.4000495536076" lon="10.572411076741615"><ele>387.0</ele><time>2026-03-24T08:33:19Z</time></trkpt><trkpt lat="43.400166680001874" lon="10.572198858912987"><ele>387.0</ele><time>2026-03-24T08:33:20Z</time></trkpt><trkpt lat="43.40031667948623" lon="10.572030218328416"><ele>387.5</ele><time>2026-03-24T08:33:21Z</time></trkpt><trkpt lat="43.400518401009315" lon="10.57184453245205"><ele>388.0</ele><time>2026-03-24T08:33:22Z</time></trkpt><trkpt lat="43.400718861723064" lon="10.571699428117237"><ele>388.0</ele><time>2026-03-24T08:33:23Z</time></trkpt><trkpt lat="43.400888400777895" lon="10.571508872509717"><ele>388.0</ele><time>2026-03-24T08:33:24Z</time></trkpt><trkpt lat="43.401010799700465" lon="10.57127990594393"><ele>388.0</ele><time>2026-03-24T08:33:25Z</time></trkpt><trkpt lat="43.401085005299265" lon="10.57108467686114"><ele>386.75</ele><time>2026-03-24T08:33:26Z</time></trkpt><trkpt lat="43.40118008280885" lon="10.570996122107056"><ele>385.5</ele><time>2026-03-24T08:33:27Z</time></trkpt><trkpt lat="43.40130498370575" lon="10.570970447935274"><ele>384.25</ele><time>2026-03-24T08:33:28Z</time></trkpt><trkpt lat="43.4014485907513" lon="10.571000453020138"><ele>383.0</ele><time>2026-03-24T08:33:29Z</time></trkpt><trkpt lat="43.401597571648416" lon="10.571057906485605"><ele>383.0</ele><time>2026-03-24T08:33:30Z</time></trkpt><trkpt lat="43.40173957813778" lon="10.571180186921469"><ele>383.0</ele><time>2026-03-24T08:33:31Z</time></trkpt><trkpt lat="43.40191389097217" lon="10.57123768382418"><ele>383.0</ele><time>2026-03-24T08:33:32Z</time></trkpt><trkpt lat="43.40206772557097" lon="10.571219095731992"><ele>384.33333333333337</ele><time>2026-03-24T08:33:33Z</time></trkpt><trkpt lat="43.4022338191735" lon="10.57112051372348"><ele>385.6666666666667</ele><time>2026-03-24T08:33:34Z</time></trkpt><trkpt lat="43.402355559420364" lon="10.570929252599695"><ele>387.0</ele><time>2026-03-24T08:33:35Z</time></trkpt><trkpt lat="43.40245744538608" lon="10.570752372050448"><ele>387.0</ele><time>2026-03-24T08:33:36Z</time></trkpt><trkpt lat="43.40257245190754" lon="10.570663926287317"><ele>387.0</ele><time>2026-03-24T08:33:37Z</time></trkpt><trkpt lat="43.40269638738053" lon="10.570657788150942"><ele>387.0</ele><time>2026-03-24T08:33:38Z</time></trkpt><trkpt lat="43.40281301409953" lon="10.570758328161409"><ele>387.0</ele><time>2026-03-24T08:33:39Z</time></trkpt><trkpt lat="43.402871089718886" lon="10.5709377518691"><ele>387.0</ele><time>2026-03-24T08:33:40Z</time></trkpt><trkpt lat="43.40291549088202" lon="10.571109812930077"><ele>387.0</ele><time>2026-03-24T08:33:41Z</time></trkpt><trkpt lat="43.402970150769704" lon="10.571308466940202"><ele>387.0</ele><time>2026-03-24T08:33:42Z</time></trkpt><trkpt lat="43.40307503450041" lon="10.571451465424861"><ele>387.0</ele><time>2026-03-24T08:33:43Z</time></trkpt><trkpt lat="43.40321238569639" lon="10.571570231174757"><ele>387.33333333333337</ele><time>2026-03-24T08:33:44Z</time></trkpt><trkpt lat="43.403400258763654" lon="10.571612008230014"><ele>387.6666666666667</ele><time>2026-03-24T08:33:45Z</time></trkpt><trkpt lat="43.40358760363774" lon="10.571631392211323"><ele>388.0</ele><time>2026-03-24T08:33:46Z</time></trkpt><trkpt lat="43.40374955500517" lon="10.57169858844283"><ele>386.0</ele><time>2026-03-24T08:33:47Z</time></trkpt><trkpt lat="43.403870215082144" lon="10.57181872402711"><ele>384.0</ele><time>2026-03-24T08:33:48Z</time></trkpt><trkpt lat="43.40394549318576" lon="10.57199628639666"><ele>382.0</ele><time>2026-03-24T08:33:49Z</time></trkpt><trkpt lat="43.403982370784455" lon="10.572218694625583"><ele>382.0</ele><time>2026-03-24T08:33:50Z</time></trkpt><trkpt lat="43.403965095601976" lon="10.572453494888252"><ele>382.0</ele><time>2026-03-24T08:33:51Z</time></trkpt><trkpt lat="43.40389160272074" lon="10.572680442238964"><ele>382.0</ele><time>2026-03-24T08:33:52Z</time></trkpt><trkpt lat="43.40378468252099" lon="10.572911454720783"><ele>385.66666666666663</ele><time>2026-03-24T08:33:53Z</time></trkpt><trkpt lat="43.40368041894312" lon="10.573173655835411"><ele>389.3333333333333</ele><time>2026-03-24T08:33:54Z</time></trkpt><trkpt lat="43.40361765511242" lon="10.57343298904206"><ele>393.0</ele><time>2026-03-24T08:33:55Z</time></trkpt><trkpt lat="43.40364983261929" lon="10.573676997249814"><ele>394.33333333333337</ele><time>2026-03-24T08:33:56Z</time></trkpt><trkpt lat="43.403724214884505" lon="10.573906327019385"><ele>395.6666666666667</ele><time>2026-03-24T08:33:57Z</time></trkpt><trkpt lat="43.403831986643986" lon="10.574150770750576"><ele>397.0</ele><time>2026-03-24T08:33:58Z</time></trkpt><trkpt lat="43.40393523261415" lon="10.574414601117665"><ele>394.6666666666667</ele><time>2026-03-24T08:33:59Z</time></trkpt><trkpt lat="43.4040133521978" lon="10.574682784691872"><ele>392.33333333333337</ele><time>2026-03-24T08:34:00Z</time></trkpt><trkpt lat="43.404076418369236" lon="10.574915152206145"><ele>390.0</ele><time>2026-03-24T08:34:01Z</time></trkpt><trkpt lat="43.40414056827011" lon="10.575122238106516"><ele>390.0</ele><time>2026-03-24T08:34:02Z</time></trkpt><trkpt lat="43.40419630523639" lon="10.57531030491422"><ele>390.0</ele><time>2026-03-24T08:34:03Z</time></trkpt><trkpt lat="43.404250731447604" lon="10.575469634855018"><ele>390.0</ele><time>2026-03-24T08:34:04Z</time></trkpt><trkpt lat="43.40431524972293" lon="10.575605458823713"><ele>390.0</ele><time>2026-03-24T08:34:05Z</time></trkpt><trkpt lat="43.40439952843357" lon="10.575692977644302"><ele>390.75</ele><time>2026-03-24T08:34:06Z</time></trkpt><trkpt lat="43.40449700066522" lon="10.575718782352798"><ele>391.5</ele><time>2026-03-24T08:34:07Z</time></trkpt><trkpt lat="43.4046036738864" lon="10.575665676914939"><ele>392.25</ele><time>2026-03-24T08:34:08Z</time></trkpt><trkpt lat="43.40471388054058" lon="10.575548243947868"><ele>393.0</ele><time>2026-03-24T08:34:09Z</time></trkpt><trkpt lat="43.40483392799716" lon="10.575389253673407"><ele>390.0</ele><time>2026-03-24T08:34:10Z</time></trkpt><trkpt lat="43.40496204786944" lon="10.575207303582818"><ele>387.0</ele><time>2026-03-24T08:34:11Z</time></trkpt><trkpt lat="43.40509606762793" lon="10.575101173198076"><ele>384.0</ele><time>2026-03-24T08:34:12Z</time></trkpt><trkpt lat="43.40522578421358" lon="10.575051000950538"><ele>384.0</ele><time>2026-03-24T08:34:13Z</time></trkpt><trkpt lat="43.40534878877599" lon="10.575082047011513"><ele>384.0</ele><time>2026-03-24T08:34:14Z</time></trkpt><trkpt lat="43.405454983810884" lon="10.575148893873079"><ele>384.0</ele><time>2026-03-24T08:34:15Z</time></trkpt><trkpt lat="43.40549930175177" lon="10.57532109872644"><ele>384.0</ele><time>2026-03-24T08:34:16Z</time></trkpt><trkpt lat="43.40557926764303" lon="10.575505842420624"><ele>383.6666666666667</ele><time>2026-03-24T08:34:17Z</time></trkpt><trkpt lat="43.40566645319562" lon="10.575723178266582"><ele>383.33333333333337</ele><time>2026-03-24T08:34:17.999Z</time></trkpt><trkpt lat="43.40579935932609" lon="10.575920898100316"><ele>383.0</ele><time>2026-03-24T08:34:18.999Z</time></trkpt><trkpt lat="43.40596969514746" lon="10.576103685955534"><ele>382.33333333333337</ele><time>2026-03-24T08:34:19.999Z</time></trkpt><trkpt lat="43.406116342490826" lon="10.576295876586942"><ele>381.6666666666667</ele><time>2026-03-24T08:34:20.999Z</time></trkpt><trkpt lat="43.40622363736888" lon="10.576494725580275"><ele>381.0</ele><time>2026-03-24T08:34:21.999Z</time></trkpt><trkpt lat="43.406345858810305" lon="10.57669374596391"><ele>381.0</ele><time>2026-03-24T08:34:22.999Z</time></trkpt><trkpt lat="43.4065034768996" lon="10.576840472266495"><ele>381.0</ele><time>2026-03-24T08:34:23.999Z</time></trkpt><trkpt lat="43.40665438429934" lon="10.576953561077836"><ele>381.0</ele><time>2026-03-24T08:34:24.999Z</time></trkpt><trkpt lat="43.406786575631834" lon="10.577079827177714"><ele>383.0</ele><time>2026-03-24T08:34:25.999Z</time></trkpt><trkpt lat="43.40688606322898" lon="10.577255885184265"><ele>385.0</ele><time>2026-03-24T08:34:26.999Z</time></trkpt><trkpt lat="43.40696459372408" lon="10.577471301166959"><ele>387.0</ele><time>2026-03-24T08:34:27.999Z</time></trkpt><trkpt lat="43.40700302025434" lon="10.577727855409778"><ele>388.66666666666663</ele><time>2026-03-24T08:34:28.999Z</time></trkpt><trkpt lat="43.407046479749006" lon="10.577952466112018"><ele>390.3333333333333</ele><time>2026-03-24T08:34:29.999Z</time></trkpt><trkpt lat="43.40712278683065" lon="10.578146125207843"><ele>392.0</ele><time>2026-03-24T08:34:30.999Z</time></trkpt><trkpt lat="43.407243600194626" lon="10.578322843365026"><ele>388.66666666666663</ele><time>2026-03-24T08:34:31.999Z</time></trkpt><trkpt lat="43.40738215032842" lon="10.578453244779256"><ele>385.3333333333333</ele><time>2026-03-24T08:34:32.999Z</time></trkpt><trkpt lat="43.40750620341636" lon="10.578536744766453"><ele>382.0</ele><time>2026-03-24T08:34:33.999Z</time></trkpt><trkpt lat="43.40765109429809" lon="10.57857121267209"><ele>382.0</ele><time>2026-03-24T08:34:34.999Z</time></trkpt><trkpt lat="43.40781788315037" lon="10.57856578264658"><ele>382.0</ele><time>2026-03-24T08:34:35.999Z</time></trkpt><trkpt lat="43.40799007107922" lon="10.57853767521653"><ele>382.0</ele><time>2026-03-24T08:34:36.999Z</time></trkpt><trkpt lat="43.408141701900014" lon="10.578521013422177"><ele>381.75</ele><time>2026-03-24T08:34:37.999Z</time></trkpt><trkpt lat="43.40825947688887" lon="10.578528945307964"><ele>381.5</ele><time>2026-03-24T08:34:38.999Z</time></trkpt><trkpt lat="43.40840196190003" lon="10.57852837306959"><ele>381.25</ele><time>2026-03-24T08:34:39.999Z</time></trkpt><trkpt lat="43.408546974600014" lon="10.578523580963903"><ele>381.0</ele><time>2026-03-24T08:34:40.999Z</time></trkpt><trkpt lat="43.40870103377465" lon="10.578510328697323"><ele>381.25</ele><time>2026-03-24T08:34:41.999Z</time></trkpt><trkpt lat="43.40885578484257" lon="10.578490806850523"><ele>381.5</ele><time>2026-03-24T08:34:42.999Z</time></trkpt><trkpt lat="43.409004567727834" lon="10.578477029806713"><ele>381.75</ele><time>2026-03-24T08:34:43.999Z</time></trkpt><trkpt lat="43.40914224677274" lon="10.578483366483834"><ele>382.0</ele><time>2026-03-24T08:34:44.999Z</time></trkpt><trkpt lat="43.409293114305854" lon="10.57849623248849"><ele>382.0</ele><time>2026-03-24T08:34:45.999Z</time></trkpt><trkpt lat="43.40946038940304" lon="10.578498897718186"><ele>382.0</ele><time>2026-03-24T08:34:46.999Z</time></trkpt><trkpt lat="43.40962799292764" lon="10.578491700922894"><ele>382.0</ele><time>2026-03-24T08:34:47.999Z</time></trkpt><trkpt lat="43.40979083278117" lon="10.578490463937605"><ele>381.0</ele><time>2026-03-24T08:34:48.999Z</time></trkpt><trkpt lat="43.40994957063233" lon="10.578491199792868"><ele>380.0</ele><time>2026-03-24T08:34:49.999Z</time></trkpt><trkpt lat="43.41009782794985" lon="10.578488459977141"><ele>379.0</ele><time>2026-03-24T08:34:50.999Z</time></trkpt><trkpt lat="43.41022969387839" lon="10.578496251035853"><ele>378.0</ele><time>2026-03-24T08:34:51.999Z</time></trkpt><trkpt lat="43.41035069874835" lon="10.578518204411376"><ele>378.0</ele><time>2026-03-24T08:34:52.999Z</time></trkpt><trkpt lat="43.41046981930408" lon="10.578558000400792"><ele>378.0</ele><time>2026-03-24T08:34:53.999Z</time></trkpt><trkpt lat="43.41059060600845" lon="10.578621767217443"><ele>378.0</ele><time>2026-03-24T08:34:54.999Z</time></trkpt><trkpt lat="43.41070316999858" lon="10.578712835465447"><ele>378.0</ele><time>2026-03-24T08:34:55.999Z</time></trkpt><trkpt lat="43.41080360053332" lon="10.578800703201301"><ele>377.2</ele><time>2026-03-24T08:34:56.999Z</time></trkpt><trkpt lat="43.41090846083038" lon="10.578843130044708"><ele>376.4</ele><time>2026-03-24T08:34:57.999Z</time></trkpt><trkpt lat="43.41101248734488" lon="10.578824852919073"><ele>375.59999999999997</ele><time>2026-03-24T08:34:58.999Z</time></trkpt><trkpt lat="43.41112815008042" lon="10.578783373915654"><ele>374.79999999999995</ele><time>2026-03-24T08:34:59.999Z</time></trkpt><trkpt lat="43.41122003090124" lon="10.57870772442146"><ele>374.0</ele><time>2026-03-24T08:35:00.999Z</time></trkpt><trkpt lat="43.41131393695406" lon="10.578624852610856"><ele>375.0</ele><time>2026-03-24T08:35:01.999Z</time></trkpt><trkpt lat="43.411399809236535" lon="10.578546766022466"><ele>376.0</ele><time>2026-03-24T08:35:02.999Z</time></trkpt><trkpt lat="43.41148231870834" lon="10.578467826078052"><ele>377.0</ele><time>2026-03-24T08:35:03.999Z</time></trkpt><trkpt lat="43.411557044801235" lon="10.578382909837195"><ele>378.0</ele><time>2026-03-24T08:35:04.999Z</time></trkpt><trkpt lat="43.41160769125779" lon="10.578281360623997"><ele>379.0</ele><time>2026-03-24T08:35:05.999Z</time></trkpt><trkpt lat="43.41163663631284" lon="10.578174966588174"><ele>379.0</ele><time>2026-03-24T08:35:06.999Z</time></trkpt><trkpt lat="43.41167118609466" lon="10.578067305341973"><ele>379.0</ele><time>2026-03-24T08:35:07.999Z</time></trkpt><trkpt lat="43.41171056745344" lon="10.577970288230578"><ele>379.0</ele><time>2026-03-24T08:35:08.999Z</time></trkpt><trkpt lat="43.411749838166266" lon="10.577884676907297"><ele>379.0</ele><time>2026-03-24T08:35:09.999Z</time></trkpt><trkpt lat="43.41178460862196" lon="10.577799664770358"><ele>379.0</ele><time>2026-03-24T08:35:11Z</time></trkpt><trkpt lat="43.411844880006406" lon="10.57770375323042"><ele>379.0</ele><time>2026-03-24T08:35:13Z</time></trkpt><trkpt lat="43.41191703953964" lon="10.57759267476945"><ele>379.2</ele><time>2026-03-24T08:35:16Z</time></trkpt><trkpt lat="43.41196103135626" lon="10.5775196147343"><ele>379.4</ele><time>2026-03-24T08:35:17Z</time></trkpt><trkpt lat="43.41200837692414" lon="10.577450348365685"><ele>379.6</ele><time>2026-03-24T08:35:18Z</time></trkpt><trkpt lat="43.41208219067808" lon="10.577340874369174"><ele>379.8</ele><time>2026-03-24T08:35:20Z</time></trkpt><trkpt lat="43.41214967918584" lon="10.577232247890674"><ele>380.0</ele><time>2026-03-24T08:35:22Z</time></trkpt><trkpt lat="43.4122236090177" lon="10.57711845096486"><ele>379.0</ele><time>2026-03-24T08:35:24Z</time></trkpt><trkpt lat="43.41230392936463" lon="10.57700491856445"><ele>378.0</ele><time>2026-03-24T08:35:26Z</time></trkpt><trkpt lat="43.412352316503465" lon="10.576949210060548"><ele>377.0</ele><time>2026-03-24T08:35:27Z</time></trkpt><trkpt lat="43.412406599499846" lon="10.576900117955464"><ele>376.0</ele><time>2026-03-24T08:35:28Z</time></trkpt><trkpt lat="43.412469199813984" lon="10.57685666365723"><ele>375.0</ele><time>2026-03-24T08:35:29Z</time></trkpt><trkpt lat="43.41257242508044" lon="10.57680670766788"><ele>374.0</ele><time>2026-03-24T08:35:31Z</time></trkpt><trkpt lat="43.4126662393927" lon="10.576725099379468"><ele>374.0</ele><time>2026-03-24T08:35:33Z</time></trkpt><trkpt lat="43.412771933188885" lon="10.576648944432893"><ele>374.0</ele><time>2026-03-24T08:35:35Z</time></trkpt><trkpt lat="43.41287114632779" lon="10.576602153749526"><ele>374.0</ele><time>2026-03-24T08:35:37Z</time></trkpt><trkpt lat="43.41298492970967" lon="10.57664948125375"><ele>374.0</ele><time>2026-03-24T08:35:39Z</time></trkpt><trkpt lat="43.41305118311127" lon="10.57665245442674"><ele>374.0</ele><time>2026-03-24T08:35:40Z</time></trkpt><trkpt lat="43.41312096929756" lon="10.57660827196171"><ele>373.6666666666667</ele><time>2026-03-24T08:35:41Z</time></trkpt><trkpt lat="43.41319479559079" lon="10.576579831578426"><ele>373.33333333333337</ele><time>2026-03-24T08:35:42Z</time></trkpt><trkpt lat="43.41327206712325" lon="10.576547013585841"><ele>373.0</ele><time>2026-03-24T08:35:43Z</time></trkpt><trkpt lat="43.413352475747246" lon="10.576509778613241"><ele>372.6666666666667</ele><time>2026-03-24T08:35:44Z</time></trkpt><trkpt lat="43.41342659895836" lon="10.576473030955567"><ele>372.3333333333333</ele><time>2026-03-24T08:35:45Z</time></trkpt><trkpt lat="43.413499304789475" lon="10.576429121484805"><ele>372.0</ele><time>2026-03-24T08:35:46Z</time></trkpt><trkpt lat="43.413575545895235" lon="10.576382549160801"><ele>372.0</ele><time>2026-03-24T08:35:47Z</time></trkpt><trkpt lat="43.41365172077614" lon="10.576335798241322"><ele>372.0</ele><time>2026-03-24T08:35:48Z</time></trkpt><trkpt lat="43.41373733760813" lon="10.576290280263366"><ele>372.0</ele><time>2026-03-24T08:35:49Z</time></trkpt><trkpt lat="43.41381399209035" lon="10.57624246370295"><ele>372.0</ele><time>2026-03-24T08:35:50Z</time></trkpt><trkpt lat="43.413875910719824" lon="10.576183949679118"><ele>372.0</ele><time>2026-03-24T08:35:51Z</time></trkpt><trkpt lat="43.41392557089533" lon="10.576125966399685"><ele>372.0</ele><time>2026-03-24T08:35:52Z</time></trkpt><trkpt lat="43.4139801551449" lon="10.576054420599545"><ele>371.8333333333333</ele><time>2026-03-24T08:35:53Z</time></trkpt><trkpt lat="43.41402825569431" lon="10.575987856810546"><ele>371.6666666666667</ele><time>2026-03-24T08:35:54Z</time></trkpt><trkpt lat="43.414075693199024" lon="10.575924024778587"><ele>371.5</ele><time>2026-03-24T08:35:55Z</time></trkpt><trkpt lat="43.41413238113699" lon="10.57585297016791"><ele>371.33333333333337</ele><time>2026-03-24T08:35:56Z</time></trkpt><trkpt lat="43.41420371191215" lon="10.575787571788949"><ele>371.1666666666667</ele><time>2026-03-24T08:35:57Z</time></trkpt><trkpt lat="43.41428179146966" lon="10.57572783605548"><ele>371.0</ele><time>2026-03-24T08:35:58Z</time></trkpt><trkpt lat="43.41436524101538" lon="10.575673037476669"><ele>371.0</ele><time>2026-03-24T08:35:59Z</time></trkpt><trkpt lat="43.4144469718542" lon="10.575614765202454"><ele>371.0</ele><time>2026-03-24T08:36:00Z</time></trkpt><trkpt lat="43.414529881854385" lon="10.575554085322176"><ele>371.0</ele><time>2026-03-24T08:36:01Z</time></trkpt><trkpt lat="43.41461332687079" lon="10.575491296394457"><ele>371.0</ele><time>2026-03-24T08:36:02Z</time></trkpt><trkpt lat="43.41469467871655" lon="10.575412994410305"><ele>371.0</ele><time>2026-03-24T08:36:03Z</time></trkpt><trkpt lat="43.414770508804224" lon="10.575318224957616"><ele>369.6</ele><time>2026-03-24T08:36:04Z</time></trkpt><trkpt lat="43.41483476875786" lon="10.575206754679439"><ele>368.20000000000005</ele><time>2026-03-24T08:36:05Z</time></trkpt><trkpt lat="43.41488343757784" lon="10.575086716881197"><ele>366.79999999999995</ele><time>2026-03-24T08:36:06Z</time></trkpt><trkpt lat="43.414923009262424" lon="10.574958669739472"><ele>365.4</ele><time>2026-03-24T08:36:07Z</time></trkpt><trkpt lat="43.41495065953805" lon="10.574837841239997"><ele>364.0</ele><time>2026-03-24T08:36:08Z</time></trkpt><trkpt lat="43.41498296339487" lon="10.574733451440972"><ele>364.0</ele><time>2026-03-24T08:36:09Z</time></trkpt><trkpt lat="43.41503296200637" lon="10.57462317931369"><ele>364.0</ele><time>2026-03-24T08:36:10Z</time></trkpt><trkpt lat="43.41509447480859" lon="10.574524029755255"><ele>364.0</ele><time>2026-03-24T08:36:11Z</time></trkpt><trkpt lat="43.41516740447817" lon="10.574435622051071"><ele>364.0</ele><time>2026-03-24T08:36:12Z</time></trkpt><trkpt lat="43.41524919593666" lon="10.57436100783189"><ele>364.0</ele><time>2026-03-24T08:36:13Z</time></trkpt><trkpt lat="43.41532960896771" lon="10.574292496546956"><ele>363.4</ele><time>2026-03-24T08:36:13.999Z</time></trkpt><trkpt lat="43.415416384814705" lon="10.574210093031343"><ele>362.79999999999995</ele><time>2026-03-24T08:36:14.999Z</time></trkpt><trkpt lat="43.41549591657599" lon="10.57412508643172"><ele>362.20000000000005</ele><time>2026-03-24T08:36:15.999Z</time></trkpt><trkpt lat="43.41557606433563" lon="10.574037981979728"><ele>361.6</ele><time>2026-03-24T08:36:16.999Z</time></trkpt><trkpt lat="43.41565478256431" lon="10.573923008164531"><ele>361.0</ele><time>2026-03-24T08:36:17.999Z</time></trkpt><trkpt lat="43.415720898776684" lon="10.573772422997026"><ele>358.3333333333333</ele><time>2026-03-24T08:36:18.999Z</time></trkpt><trkpt lat="43.41576445900775" lon="10.573576654324233"><ele>355.6666666666667</ele><time>2026-03-24T08:36:19.999Z</time></trkpt><trkpt lat="43.41580884742158" lon="10.573354399842529"><ele>353.0</ele><time>2026-03-24T08:36:20.999Z</time></trkpt><trkpt lat="43.4158535653744" lon="10.573134869272875"><ele>353.0</ele><time>2026-03-24T08:36:21.999Z</time></trkpt><trkpt lat="43.41590071519888" lon="10.572947247590893"><ele>353.0</ele><time>2026-03-24T08:36:22.999Z</time></trkpt><trkpt lat="43.41594592085779" lon="10.57278028634756"><ele>353.0</ele><time>2026-03-24T08:36:23.999Z</time></trkpt><trkpt lat="43.415988637876026" lon="10.572638419967099"><ele>353.0</ele><time>2026-03-24T08:36:24.999Z</time></trkpt><trkpt lat="43.41603100333692" lon="10.572519143752128"><ele>352.0</ele><time>2026-03-24T08:36:25.999Z</time></trkpt><trkpt lat="43.41604600411972" lon="10.572403656791325"><ele>351.0</ele><time>2026-03-24T08:36:26.999Z</time></trkpt><trkpt lat="43.41606816317064" lon="10.57231227886983"><ele>350.0</ele><time>2026-03-24T08:36:27.999Z</time></trkpt><trkpt lat="43.416165576729085" lon="10.57227142033518"><ele>349.0</ele><time>2026-03-24T08:36:28.999Z</time></trkpt><trkpt lat="43.41618748651289" lon="10.57217700559868"><ele>348.0</ele><time>2026-03-24T08:36:29.999Z</time></trkpt><trkpt lat="43.41620509865524" lon="10.572059327502798"><ele>347.0</ele><time>2026-03-24T08:36:30.999Z</time></trkpt><trkpt lat="43.41626641566338" lon="10.571955215434086"><ele>346.5</ele><time>2026-03-24T08:36:31.999Z</time></trkpt><trkpt lat="43.4163825396513" lon="10.571874058219425"><ele>346.0</ele><time>2026-03-24T08:36:32.999Z</time></trkpt><trkpt lat="43.4165203064373" lon="10.571786565653989"><ele>345.5</ele><time>2026-03-24T08:36:33.999Z</time></trkpt><trkpt lat="43.41663943772856" lon="10.571643489523916"><ele>345.0</ele><time>2026-03-24T08:36:34.999Z</time></trkpt><trkpt lat="43.41672384646428" lon="10.571429195134991"><ele>342.6666666666667</ele><time>2026-03-24T08:36:35.999Z</time></trkpt><trkpt lat="43.41675447897758" lon="10.571157176836447"><ele>340.33333333333337</ele><time>2026-03-24T08:36:36.999Z</time></trkpt><trkpt lat="43.416752584680175" lon="10.570842296825997"><ele>338.0</ele><time>2026-03-24T08:36:37.999Z</time></trkpt><trkpt lat="43.41675221116078" lon="10.57051773874621"><ele>337.0</ele><time>2026-03-24T08:36:38.999Z</time></trkpt><trkpt lat="43.416751173291594" lon="10.570192828091479"><ele>336.0</ele><time>2026-03-24T08:36:39.999Z</time></trkpt><trkpt lat="43.41673464532636" lon="10.569893635360236"><ele>336.0</ele><time>2026-03-24T08:36:40.999Z</time></trkpt><trkpt lat="43.41670137081375" lon="10.569636438451099"><ele>336.0</ele><time>2026-03-24T08:36:41.999Z</time></trkpt><trkpt lat="43.41666111150883" lon="10.56944256666122"><ele>336.0</ele><time>2026-03-24T08:36:42.999Z</time></trkpt><trkpt lat="43.4165910532615" lon="10.569310157444654"><ele>334.6666666666667</ele><time>2026-03-24T08:36:43.999Z</time></trkpt><trkpt lat="43.4164834981463" lon="10.569199573719017"><ele>333.33333333333337</ele><time>2026-03-24T08:36:44.999Z</time></trkpt><trkpt lat="43.41633345602606" lon="10.569123390708802"><ele>332.0</ele><time>2026-03-24T08:36:45.999Z</time></trkpt><trkpt lat="43.4161862520519" lon="10.569034443449421"><ele>329.25</ele><time>2026-03-24T08:36:46.999Z</time></trkpt><trkpt lat="43.41609433656162" lon="10.56889346999902"><ele>326.5</ele><time>2026-03-24T08:36:47.999Z</time></trkpt><trkpt lat="43.41604886243827" lon="10.568734546187716"><ele>323.75</ele><time>2026-03-24T08:36:48.999Z</time></trkpt><trkpt lat="43.416055950680736" lon="10.568559296710148"><ele>321.0</ele><time>2026-03-24T08:36:49.999Z</time></trkpt><trkpt lat="43.41609891627634" lon="10.568407513164297"><ele>320.3333333333333</ele><time>2026-03-24T08:36:50.999Z</time></trkpt><trkpt lat="43.416227294806845" lon="10.568328217501586"><ele>319.66666666666663</ele><time>2026-03-24T08:36:51.999Z</time></trkpt><trkpt lat="43.41637817310064" lon="10.568297435694735"><ele>319.0</ele><time>2026-03-24T08:36:52.999Z</time></trkpt><trkpt lat="43.41658190096352" lon="10.568302797603158"><ele>320.0</ele><time>2026-03-24T08:36:53.999Z</time></trkpt><trkpt lat="43.41675231742351" lon="10.568290321594358"><ele>321.0</ele><time>2026-03-24T08:36:54.999Z</time></trkpt><trkpt lat="43.4168987127164" lon="10.568280746587506"><ele>322.0</ele><time>2026-03-24T08:36:55.999Z</time></trkpt><trkpt lat="43.417023717818445" lon="10.568280845523665"><ele>323.0</ele><time>2026-03-24T08:36:56.999Z</time></trkpt><trkpt lat="43.417145680961134" lon="10.568321097436783"><ele>322.25</ele><time>2026-03-24T08:36:57.999Z</time></trkpt><trkpt lat="43.41724315599281" lon="10.568441549350318"><ele>321.5</ele><time>2026-03-24T08:36:58.999Z</time></trkpt><trkpt lat="43.41732537900949" lon="10.568590688012275"><ele>320.75</ele><time>2026-03-24T08:36:59.999Z</time></trkpt><trkpt lat="43.41733313256871" lon="10.568801752770733"><ele>320.0</ele><time>2026-03-24T08:37:00.999Z</time></trkpt><trkpt lat="43.41735502430101" lon="10.569025600185295"><ele>320.0</ele><time>2026-03-24T08:37:01.999Z</time></trkpt><trkpt lat="43.417389833991564" lon="10.569224361812628"><ele>320.0</ele><time>2026-03-24T08:37:02.999Z</time></trkpt><trkpt lat="43.41744450485117" lon="10.569382100920608"><ele>320.0</ele><time>2026-03-24T08:37:03.999Z</time></trkpt><trkpt lat="43.41754754056194" lon="10.569498623437608"><ele>320.0</ele><time>2026-03-24T08:37:04.999Z</time></trkpt><trkpt lat="43.417685088916706" lon="10.569549465248631"><ele>319.33333333333337</ele><time>2026-03-24T08:37:05.999Z</time></trkpt><trkpt lat="43.41785295465368" lon="10.569545035145687"><ele>318.6666666666667</ele><time>2026-03-24T08:37:06.999Z</time></trkpt><trkpt lat="43.41801334736171" lon="10.569597203828456"><ele>318.0</ele><time>2026-03-24T08:37:07.999Z</time></trkpt><trkpt lat="43.41813052262205" lon="10.569700495961667"><ele>318.0</ele><time>2026-03-24T08:37:08.999Z</time></trkpt><trkpt lat="43.418240003198434" lon="10.569747469045566"><ele>318.0</ele><time>2026-03-24T08:37:09.999Z</time></trkpt><trkpt lat="43.41835080099271" lon="10.56967934054485"><ele>318.0</ele><time>2026-03-24T08:37:10.999Z</time></trkpt><trkpt lat="43.41844231778301" lon="10.569547168481781"><ele>318.0</ele><time>2026-03-24T08:37:11.999Z</time></trkpt><trkpt lat="43.418521990197156" lon="10.569361966613284"><ele>315.5</ele><time>2026-03-24T08:37:12.999Z</time></trkpt><trkpt lat="43.418630496114304" lon="10.5692371542237"><ele>313.0</ele><time>2026-03-24T08:37:13.999Z</time></trkpt><trkpt lat="43.41875595604442" lon="10.569172256886382"><ele>310.5</ele><time>2026-03-24T08:37:14.999Z</time></trkpt><trkpt lat="43.418913084337866" lon="10.569163688020225"><ele>308.0</ele><time>2026-03-24T08:37:15.999Z</time></trkpt><trkpt lat="43.41910160691024" lon="10.569147808254916"><ele>308.0</ele><time>2026-03-24T08:37:17Z</time></trkpt><trkpt lat="43.41925723781368" lon="10.569150644917126"><ele>308.0</ele><time>2026-03-24T08:37:18Z</time></trkpt><trkpt lat="43.41938137403183" lon="10.569195518417182"><ele>308.0</ele><time>2026-03-24T08:37:19Z</time></trkpt><trkpt lat="43.41948050718299" lon="10.569295921632031"><ele>308.0</ele><time>2026-03-24T08:37:20Z</time></trkpt><trkpt lat="43.419574072452754" lon="10.569447944813042"><ele>306.0</ele><time>2026-03-24T08:37:21Z</time></trkpt><trkpt lat="43.41968332129598" lon="10.569661091638354"><ele>304.0</ele><time>2026-03-24T08:37:22Z</time></trkpt><trkpt lat="43.41981308095793" lon="10.56988589639309"><ele>302.0</ele><time>2026-03-24T08:37:23Z</time></trkpt><trkpt lat="43.41994843194124" lon="10.57008514460872"><ele>302.0</ele><time>2026-03-24T08:37:24Z</time></trkpt><trkpt lat="43.420086305371036" lon="10.570235816395922"><ele>302.0</ele><time>2026-03-24T08:37:25Z</time></trkpt><trkpt lat="43.420247941772104" lon="10.570332419289592"><ele>302.0</ele><time>2026-03-24T08:37:26Z</time></trkpt><trkpt lat="43.420441822366946" lon="10.570374720712461"><ele>302.6666666666667</ele><time>2026-03-24T08:37:27Z</time></trkpt><trkpt lat="43.420649900817665" lon="10.570396678733404"><ele>303.3333333333333</ele><time>2026-03-24T08:37:28Z</time></trkpt><trkpt lat="43.42082020448929" lon="10.57041808223637"><ele>304.0</ele><time>2026-03-24T08:37:29Z</time></trkpt><trkpt lat="43.42096410209605" lon="10.570465997636916"><ele>304.0</ele><time>2026-03-24T08:37:30Z</time></trkpt><trkpt lat="43.421088669592976" lon="10.570555335777007"><ele>304.0</ele><time>2026-03-24T08:37:31Z</time></trkpt><trkpt lat="43.42122132146117" lon="10.57069808248372"><ele>304.0</ele><time>2026-03-24T08:37:32Z</time></trkpt><trkpt lat="43.421363389722686" lon="10.570886111330745"><ele>300.66666666666663</ele><time>2026-03-24T08:37:33Z</time></trkpt><trkpt lat="43.421515104562594" lon="10.571037965015327"><ele>297.3333333333333</ele><time>2026-03-24T08:37:34Z</time></trkpt><trkpt lat="43.42168865371158" lon="10.571134376008057"><ele>294.0</ele><time>2026-03-24T08:37:35Z</time></trkpt><trkpt lat="43.42186983379636" lon="10.571152229719205"><ele>294.0</ele><time>2026-03-24T08:37:36Z</time></trkpt><trkpt lat="43.422021666830844" lon="10.571084145716188"><ele>294.0</ele><time>2026-03-24T08:37:37Z</time></trkpt><trkpt lat="43.42215402352681" lon="10.570958163525496"><ele>294.0</ele><time>2026-03-24T08:37:38Z</time></trkpt><trkpt lat="43.4222774081588" lon="10.570825182467374"><ele>291.75</ele><time>2026-03-24T08:37:39Z</time></trkpt><trkpt lat="43.422418884643264" lon="10.570787688459236"><ele>289.5</ele><time>2026-03-24T08:37:40Z</time></trkpt><trkpt lat="43.42255112030317" lon="10.570821729490962"><ele>287.25</ele><time>2026-03-24T08:37:41Z</time></trkpt><trkpt lat="43.42270436274848" lon="10.57090049754647"><ele>285.0</ele><time>2026-03-24T08:37:42Z</time></trkpt><trkpt lat="43.42284994035622" lon="10.570972434440076"><ele>285.0</ele><time>2026-03-24T08:37:43Z</time></trkpt><trkpt lat="43.42297474608086" lon="10.571050203500768"><ele>285.0</ele><time>2026-03-24T08:37:44Z</time></trkpt><trkpt lat="43.4230914515298" lon="10.571092547689386"><ele>285.0</ele><time>2026-03-24T08:37:45Z</time></trkpt><trkpt lat="43.42322002229448" lon="10.571082394418235"><ele>285.0</ele><time>2026-03-24T08:37:46Z</time></trkpt><trkpt lat="43.4233704930818" lon="10.57104124360667"><ele>283.0</ele><time>2026-03-24T08:37:47Z</time></trkpt><trkpt lat="43.42354012721963" lon="10.570997063010264"><ele>281.0</ele><time>2026-03-24T08:37:48Z</time></trkpt><trkpt lat="43.423711710604884" lon="10.571015525260968"><ele>279.0</ele><time>2026-03-24T08:37:49Z</time></trkpt><trkpt lat="43.42387561131838" lon="10.571082402087812"><ele>277.3333333333333</ele><time>2026-03-24T08:37:50Z</time></trkpt><trkpt lat="43.42404600367935" lon="10.57111419921313"><ele>275.66666666666663</ele><time>2026-03-24T08:37:51Z</time></trkpt><trkpt lat="43.42421840418589" lon="10.571117282184582"><ele>274.0</ele><time>2026-03-24T08:37:52Z</time></trkpt><trkpt lat="43.42438641586771" lon="10.571051639263212"><ele>274.0</ele><time>2026-03-24T08:37:53Z</time></trkpt><trkpt lat="43.42453091026297" lon="10.570937668694157"><ele>274.0</ele><time>2026-03-24T08:37:54Z</time></trkpt><trkpt lat="43.424648797365165" lon="10.570792046106492"><ele>274.0</ele><time>2026-03-24T08:37:55Z</time></trkpt><trkpt lat="43.42474889828482" lon="10.570642374927404"><ele>272.25</ele><time>2026-03-24T08:37:56Z</time></trkpt><trkpt lat="43.424844745307766" lon="10.570516088894342"><ele>270.5</ele><time>2026-03-24T08:37:57Z</time></trkpt><trkpt lat="43.42493140374884" lon="10.570402482528548"><ele>268.75</ele><time>2026-03-24T08:37:58Z</time></trkpt><trkpt lat="43.42498677763129" lon="10.570254848768016"><ele>267.0</ele><time>2026-03-24T08:37:59Z</time></trkpt><trkpt lat="43.424944198926866" lon="10.570072398779477"><ele>267.0</ele><time>2026-03-24T08:38:00Z</time></trkpt><trkpt lat="43.42490380736107" lon="10.569938169836258"><ele>267.0</ele><time>2026-03-24T08:38:01Z</time></trkpt><trkpt lat="43.42478748101953" lon="10.569904824207198"><ele>267.0</ele><time>2026-03-24T08:38:02Z</time></trkpt><trkpt lat="43.42467257259274" lon="10.569875940020955"><ele>267.0</ele><time>2026-03-24T08:38:03Z</time></trkpt><trkpt lat="43.42451163577374" lon="10.569854086147027"><ele>266.6666666666667</ele><time>2026-03-24T08:38:04Z</time></trkpt><trkpt lat="43.42433232503172" lon="10.56982448418524"><ele>266.33333333333337</ele><time>2026-03-24T08:38:05Z</time></trkpt><trkpt lat="43.42412863247715" lon="10.56978734125629"><ele>266.0</ele><time>2026-03-24T08:38:06Z</time></trkpt><trkpt lat="43.423947331915414" lon="10.56972975270193"><ele>267.25</ele><time>2026-03-24T08:38:07Z</time></trkpt><trkpt lat="43.423807145459584" lon="10.569674982473488"><ele>268.5</ele><time>2026-03-24T08:38:08Z</time></trkpt><trkpt lat="43.42371088020035" lon="10.569560395619947"><ele>269.75</ele><time>2026-03-24T08:38:09Z</time></trkpt><trkpt lat="43.42362138522845" lon="10.569397020707761"><ele>271.0</ele><time>2026-03-24T08:38:10Z</time></trkpt><trkpt lat="43.423528627795015" lon="10.569180779238303"><ele>267.66666666666663</ele><time>2026-03-24T08:38:11Z</time></trkpt><trkpt lat="43.42341554034318" lon="10.568989398845549"><ele>264.3333333333333</ele><time>2026-03-24T08:38:12Z</time></trkpt><trkpt lat="43.423298296315295" lon="10.568851157603737"><ele>261.0</ele><time>2026-03-24T08:38:13Z</time></trkpt><trkpt lat="43.423152697288266" lon="10.568782928773162"><ele>261.0</ele><time>2026-03-24T08:38:14Z</time></trkpt><trkpt lat="43.4230008747438" lon="10.568770258502036"><ele>261.0</ele><time>2026-03-24T08:38:15Z</time></trkpt><trkpt lat="43.42283377503552" lon="10.568792851853624"><ele>261.0</ele><time>2026-03-24T08:38:16Z</time></trkpt><trkpt lat="43.422681212329444" lon="10.568751751049785"><ele>258.6666666666667</ele><time>2026-03-24T08:38:17Z</time></trkpt><trkpt lat="43.42255249210855" lon="10.56868266574626"><ele>256.33333333333337</ele><time>2026-03-24T08:38:18Z</time></trkpt><trkpt lat="43.42247209614703" lon="10.56848485291442"><ele>254.0</ele><time>2026-03-24T08:38:19Z</time></trkpt><trkpt lat="43.422345384088615" lon="10.568342544613463"><ele>254.0</ele><time>2026-03-24T08:38:19.999Z</time></trkpt><trkpt lat="43.42222420709389" lon="10.56825144734957"><ele>254.0</ele><time>2026-03-24T08:38:20.999Z</time></trkpt><trkpt lat="43.42208004987954" lon="10.568246091894977"><ele>254.0</ele><time>2026-03-24T08:38:21.999Z</time></trkpt><trkpt lat="43.42191314911737" lon="10.56828969190645"><ele>254.33333333333334</ele><time>2026-03-24T08:38:22.999Z</time></trkpt><trkpt lat="43.42173757765992" lon="10.56831369789895"><ele>254.66666666666669</ele><time>2026-03-24T08:38:23.999Z</time></trkpt><trkpt lat="43.42157293912927" lon="10.568239222271515"><ele>255.0</ele><time>2026-03-24T08:38:24.999Z</time></trkpt><trkpt lat="43.42142531208053" lon="10.568103638422347"><ele>258.3333333333333</ele><time>2026-03-24T08:38:25.999Z</time></trkpt><trkpt lat="43.42129933458252" lon="10.56792247885851"><ele>261.66666666666663</ele><time>2026-03-24T08:38:26.999Z</time></trkpt><trkpt lat="43.421200387628495" lon="10.567727092128965"><ele>265.0</ele><time>2026-03-24T08:38:27.999Z</time></trkpt><trkpt lat="43.421162132179525" lon="10.567531677536175"><ele>265.0</ele><time>2026-03-24T08:38:28.999Z</time></trkpt><trkpt lat="43.421174238180946" lon="10.567350434070878"><ele>265.0</ele><time>2026-03-24T08:38:29.999Z</time></trkpt><trkpt lat="43.42123392115236" lon="10.567215021745785"><ele>265.0</ele><time>2026-03-24T08:38:30.999Z</time></trkpt><trkpt lat="43.421322039568906" lon="10.567117981375576"><ele>265.0</ele><time>2026-03-24T08:38:31.999Z</time></trkpt><trkpt lat="43.42144668143189" lon="10.567018409994873"><ele>257.0</ele><time>2026-03-24T08:38:32.999Z</time></trkpt><trkpt lat="43.421608893773545" lon="10.56689714394129"><ele>249.0</ele><time>2026-03-24T08:38:33.999Z</time></trkpt><trkpt lat="43.421751580838055" lon="10.566831160149533"><ele>241.0</ele><time>2026-03-24T08:38:34.999Z</time></trkpt><trkpt lat="43.42189173488983" lon="10.566735666093985"><ele>241.0</ele><time>2026-03-24T08:38:35.999Z</time></trkpt><trkpt lat="43.42206433241743" lon="10.566628700039713"><ele>241.0</ele><time>2026-03-24T08:38:36.999Z</time></trkpt><trkpt lat="43.42220361664667" lon="10.566595355398361"><ele>241.0</ele><time>2026-03-24T08:38:37.999Z</time></trkpt><trkpt lat="43.42235901729354" lon="10.566583693086562"><ele>241.0</ele><time>2026-03-24T08:38:38.999Z</time></trkpt><trkpt lat="43.42253191611523" lon="10.566611571900136"><ele>241.0</ele><time>2026-03-24T08:38:39.999Z</time></trkpt><trkpt lat="43.42270877753355" lon="10.566669228592337"><ele>241.0</ele><time>2026-03-24T08:38:40.999Z</time></trkpt><trkpt lat="43.42286308737161" lon="10.566739007554446"><ele>239.33333333333331</ele><time>2026-03-24T08:38:41.999Z</time></trkpt><trkpt lat="43.42303771513273" lon="10.56675914997125"><ele>237.66666666666669</ele><time>2026-03-24T08:38:42.999Z</time></trkpt><trkpt lat="43.423239993427664" lon="10.566700801177928"><ele>236.0</ele><time>2026-03-24T08:38:43.999Z</time></trkpt><trkpt lat="43.423442255132954" lon="10.566611720416727"><ele>236.0</ele><time>2026-03-24T08:38:44.999Z</time></trkpt><trkpt lat="43.42362980752869" lon="10.56652902815602"><ele>236.0</ele><time>2026-03-24T08:38:45.999Z</time></trkpt><trkpt lat="43.42378364998091" lon="10.566517564091518"><ele>236.0</ele><time>2026-03-24T08:38:46.999Z</time></trkpt><trkpt lat="43.42389941800701" lon="10.566612010528887"><ele>235.20000000000002</ele><time>2026-03-24T08:38:47.999Z</time></trkpt><trkpt lat="43.42401931492668" lon="10.56668815692624"><ele>234.40000000000003</ele><time>2026-03-24T08:38:48.999Z</time></trkpt><trkpt lat="43.42412227612782" lon="10.56673497432755"><ele>233.6</ele><time>2026-03-24T08:38:49.999Z</time></trkpt><trkpt lat="43.42420232727005" lon="10.566707813507943"><ele>232.8</ele><time>2026-03-24T08:38:50.999Z</time></trkpt><trkpt lat="43.424273047460105" lon="10.56662552847093"><ele>232.0</ele><time>2026-03-24T08:38:51.999Z</time></trkpt><trkpt lat="43.42429275532808" lon="10.566481682116788"><ele>232.0</ele><time>2026-03-24T08:38:52.999Z</time></trkpt><trkpt lat="43.42426603790804" lon="10.566312384568002"><ele>232.0</ele><time>2026-03-24T08:38:53.999Z</time></trkpt><trkpt lat="43.42419113402271" lon="10.566137099957702"><ele>232.0</ele><time>2026-03-24T08:38:54.999Z</time></trkpt><trkpt lat="43.42409660465145" lon="10.565926732898065"><ele>230.66666666666666</ele><time>2026-03-24T08:38:55.999Z</time></trkpt><trkpt lat="43.424041793161955" lon="10.56568539470199"><ele>229.33333333333331</ele><time>2026-03-24T08:38:56.999Z</time></trkpt><trkpt lat="43.42398907976132" lon="10.565449701440944"><ele>228.0</ele><time>2026-03-24T08:38:57.999Z</time></trkpt><trkpt lat="43.423940332663555" lon="10.56527809731257"><ele>226.4</ele><time>2026-03-24T08:38:58.999Z</time></trkpt><trkpt lat="43.42392919641988" lon="10.565153313466737"><ele>224.8</ele><time>2026-03-24T08:38:59.999Z</time></trkpt><trkpt lat="43.42394698165396" lon="10.56504759851458"><ele>223.2</ele><time>2026-03-24T08:39:00.999Z</time></trkpt><trkpt lat="43.42401846562347" lon="10.564980813607937"><ele>221.6</ele><time>2026-03-24T08:39:01.999Z</time></trkpt><trkpt lat="43.42411445467165" lon="10.564979382784347"><ele>220.0</ele><time>2026-03-24T08:39:02.999Z</time></trkpt><trkpt lat="43.42424209662923" lon="10.565063202178589"><ele>220.0</ele><time>2026-03-24T08:39:03.999Z</time></trkpt><trkpt lat="43.424376574983924" lon="10.565163269731926"><ele>220.0</ele><time>2026-03-24T08:39:04.999Z</time></trkpt><trkpt lat="43.42446452245849" lon="10.565314147686882"><ele>220.0</ele><time>2026-03-24T08:39:05.999Z</time></trkpt><trkpt lat="43.42451368324697" lon="10.565535857857773"><ele>222.66666666666666</ele><time>2026-03-24T08:39:06.999Z</time></trkpt><trkpt lat="43.42459060376678" lon="10.565779421060066"><ele>225.33333333333331</ele><time>2026-03-24T08:39:07.999Z</time></trkpt><trkpt lat="43.42466152482459" lon="10.566003094212446"><ele>228.0</ele><time>2026-03-24T08:39:08.999Z</time></trkpt><trkpt lat="43.42475831172075" lon="10.56619414611782"><ele>227.0</ele><time>2026-03-24T08:39:09.999Z</time></trkpt><trkpt lat="43.42485317453862" lon="10.566358337172748"><ele>226.0</ele><time>2026-03-24T08:39:10.999Z</time></trkpt><trkpt lat="43.4249761242608" lon="10.5664663140929"><ele>225.0</ele><time>2026-03-24T08:39:11.999Z</time></trkpt><trkpt lat="43.4251243170704" lon="10.566496332639913"><ele>224.0</ele><time>2026-03-24T08:39:12.999Z</time></trkpt><trkpt lat="43.425273791384335" lon="10.566449409410732"><ele>224.0</ele><time>2026-03-24T08:39:13.999Z</time></trkpt><trkpt lat="43.425372124504044" lon="10.566400045998646"><ele>223.99999999999997</ele><time>2026-03-24T08:39:14.999Z</time></trkpt><trkpt lat="43.42542848783426" lon="10.566297377303552"><ele>223.99999999999997</ele><time>2026-03-24T08:39:15.999Z</time></trkpt><trkpt lat="43.42546452118912" lon="10.566179405375445"><ele>224.0</ele><time>2026-03-24T08:39:16.999Z</time></trkpt><trkpt lat="43.425432018257474" lon="10.566023302886583"><ele>224.0</ele><time>2026-03-24T08:39:17.999Z</time></trkpt><trkpt lat="43.42536260506382" lon="10.56584926139929"><ele>221.0</ele><time>2026-03-24T08:39:18.999Z</time></trkpt><trkpt lat="43.42529535942945" lon="10.565678698135228"><ele>218.0</ele><time>2026-03-24T08:39:19.999Z</time></trkpt><trkpt lat="43.42530028140373" lon="10.565514920449179"><ele>215.0</ele><time>2026-03-24T08:39:20.999Z</time></trkpt><trkpt lat="43.42533026358557" lon="10.565334076076644"><ele>212.0</ele><time>2026-03-24T08:39:21.999Z</time></trkpt><trkpt lat="43.4253891705285" lon="10.565158220977732"><ele>210.5</ele><time>2026-03-24T08:39:23Z</time></trkpt><trkpt lat="43.42546315467492" lon="10.565015267596511"><ele>209.0</ele><time>2026-03-24T08:39:24Z</time></trkpt><trkpt lat="43.42557403001955" lon="10.56490999877297"><ele>207.5</ele><time>2026-03-24T08:39:25Z</time></trkpt><trkpt lat="43.42570308083397" lon="10.564859347145092"><ele>206.0</ele><time>2026-03-24T08:39:26Z</time></trkpt><trkpt lat="43.42583822235166" lon="10.564902181741846"><ele>205.0</ele><time>2026-03-24T08:39:26.999Z</time></trkpt><trkpt lat="43.42600043744172" lon="10.564963952017466"><ele>204.0</ele><time>2026-03-24T08:39:27.999Z</time></trkpt><trkpt lat="43.42618013942031" lon="10.564994305900296"><ele>203.0</ele><time>2026-03-24T08:39:28.999Z</time></trkpt><trkpt lat="43.42632385078528" lon="10.564951594247532"><ele>201.25</ele><time>2026-03-24T08:39:30Z</time></trkpt><trkpt lat="43.42643950401005" lon="10.564867295063557"><ele>199.5</ele><time>2026-03-24T08:39:31Z</time></trkpt><trkpt lat="43.426554975147496" lon="10.564813622344463"><ele>197.75</ele><time>2026-03-24T08:39:32Z</time></trkpt><trkpt lat="43.42666807046103" lon="10.564811844679989"><ele>196.0</ele><time>2026-03-24T08:39:33Z</time></trkpt><trkpt lat="43.4267884174355" lon="10.564873856027235"><ele>196.0</ele><time>2026-03-24T08:39:34Z</time></trkpt><trkpt lat="43.42691040167546" lon="10.564998395307297"><ele>196.0</ele><time>2026-03-24T08:39:35Z</time></trkpt><trkpt lat="43.42706709086181" lon="10.565154901477316"><ele>196.0</ele><time>2026-03-24T08:39:36Z</time></trkpt><trkpt lat="43.427220103684576" lon="10.565339662974058"><ele>193.66666666666666</ele><time>2026-03-24T08:39:37Z</time></trkpt><trkpt lat="43.427382517394776" lon="10.565550537352337"><ele>191.33333333333331</ele><time>2026-03-24T08:39:38Z</time></trkpt><trkpt lat="43.427525495282325" lon="10.565728526339646"><ele>189.0</ele><time>2026-03-24T08:39:39Z</time></trkpt><trkpt lat="43.42764474242227" lon="10.565891491304022"><ele>189.0</ele><time>2026-03-24T08:39:40Z</time></trkpt><trkpt lat="43.4277239916294" lon="10.566024983233453"><ele>189.0</ele><time>2026-03-24T08:39:41Z</time></trkpt><trkpt lat="43.42776833933394" lon="10.566120738863962"><ele>189.0</ele><time>2026-03-24T08:39:42Z</time></trkpt><trkpt lat="43.42777755982433" lon="10.566206624841724"><ele>189.0</ele><time>2026-03-24T08:39:43Z</time></trkpt><trkpt lat="43.42773847673509" lon="10.566282697532108"><ele>189.0</ele><time>2026-03-24T08:39:44Z</time></trkpt><trkpt lat="43.42763308413259" lon="10.566313964343102"><ele>189.0</ele><time>2026-03-24T08:39:45Z</time></trkpt><trkpt lat="43.42753928292924" lon="10.566385216168955"><ele>188.6</ele><time>2026-03-24T08:39:46Z</time></trkpt><trkpt lat="43.42745463632477" lon="10.56646681807201"><ele>188.2</ele><time>2026-03-24T08:39:47Z</time></trkpt><trkpt lat="43.42744786405153" lon="10.566604350701798"><ele>187.79999999999998</ele><time>2026-03-24T08:39:48Z</time></trkpt><trkpt lat="43.42751051332234" lon="10.566722592009125"><ele>187.39999999999998</ele><time>2026-03-24T08:39:49Z</time></trkpt><trkpt lat="43.42761774742614" lon="10.566797004021014"><ele>187.0</ele><time>2026-03-24T08:39:50Z</time></trkpt><trkpt lat="43.42775785539709" lon="10.566858643954602"><ele>187.0</ele><time>2026-03-24T08:39:51Z</time></trkpt><trkpt lat="43.427916119439246" lon="10.566951378472421"><ele>187.0</ele><time>2026-03-24T08:39:52Z</time></trkpt><trkpt lat="43.428042516770766" lon="10.56713403699304"><ele>187.0</ele><time>2026-03-24T08:39:53Z</time></trkpt><trkpt lat="43.4281405542549" lon="10.567370376820532"><ele>187.25</ele><time>2026-03-24T08:39:54Z</time></trkpt><trkpt lat="43.42819111355483" lon="10.567603099997754"><ele>187.5</ele><time>2026-03-24T08:39:55Z</time></trkpt><trkpt lat="43.428226530496815" lon="10.567794511110632"><ele>187.75</ele><time>2026-03-24T08:39:56Z</time></trkpt><trkpt lat="43.42825374382234" lon="10.56794624953051"><ele>188.0</ele><time>2026-03-24T08:39:57Z</time></trkpt><trkpt lat="43.42833626931735" lon="10.568032425235424"><ele>188.0</ele><time>2026-03-24T08:39:58Z</time></trkpt><trkpt lat="43.42844950823408" lon="10.56803510801036"><ele>188.0</ele><time>2026-03-24T08:39:59Z</time></trkpt><trkpt lat="43.42857143681289" lon="10.56796689182302"><ele>188.0</ele><time>2026-03-24T08:40:00Z</time></trkpt><trkpt lat="43.42871829964561" lon="10.567831312122332"><ele>188.0</ele><time>2026-03-24T08:40:01Z</time></trkpt><trkpt lat="43.428862966724814" lon="10.567704127958443"><ele>183.33333333333331</ele><time>2026-03-24T08:40:02Z</time></trkpt><trkpt lat="43.429038650988026" lon="10.56763195427462"><ele>178.66666666666666</ele><time>2026-03-24T08:40:03Z</time></trkpt><trkpt lat="43.42925100207886" lon="10.567627438867781"><ele>174.0</ele><time>2026-03-24T08:40:04Z</time></trkpt><trkpt lat="43.42943960467363" lon="10.567695547728878"><ele>174.0</ele><time>2026-03-24T08:40:05Z</time></trkpt><trkpt lat="43.42961776222883" lon="10.567741931344804"><ele>174.0</ele><time>2026-03-24T08:40:06Z</time></trkpt><trkpt lat="43.42977330621098" lon="10.567908653299325"><ele>174.0</ele><time>2026-03-24T08:40:07Z</time></trkpt><trkpt lat="43.4299491191561" lon="10.568083085062364"><ele>174.0</ele><time>2026-03-24T08:40:08Z</time></trkpt><trkpt lat="43.43010227679557" lon="10.568240452278781"><ele>174.0</ele><time>2026-03-24T08:40:09Z</time></trkpt><trkpt lat="43.43021728389147" lon="10.568376525843286"><ele>174.0</ele><time>2026-03-24T08:40:10Z</time></trkpt><trkpt lat="43.43026979718191" lon="10.568550858804201"><ele>176.0</ele><time>2026-03-24T08:40:11Z</time></trkpt><trkpt lat="43.43027381175177" lon="10.568750502904566"><ele>178.0</ele><time>2026-03-24T08:40:12Z</time></trkpt><trkpt lat="43.43024381919542" lon="10.568952287110628"><ele>180.0</ele><time>2026-03-24T08:40:13Z</time></trkpt><trkpt lat="43.43023919313796" lon="10.569152206677249"><ele>182.0</ele><time>2026-03-24T08:40:14Z</time></trkpt><trkpt lat="43.43028829065872" lon="10.569303753117381"><ele>182.0</ele><time>2026-03-24T08:40:15Z</time></trkpt><trkpt lat="43.4303733147127" lon="10.56938606442891"><ele>182.0</ele><time>2026-03-24T08:40:16Z</time></trkpt><trkpt lat="43.430465583946535" lon="10.569401684265797"><ele>182.0</ele><time>2026-03-24T08:40:17Z</time></trkpt><trkpt lat="43.43058756225699" lon="10.569351572719974"><ele>182.0</ele><time>2026-03-24T08:40:18Z</time></trkpt><trkpt lat="43.43073805740194" lon="10.569279977357546"><ele>179.5</ele><time>2026-03-24T08:40:19Z</time></trkpt><trkpt lat="43.430892762434816" lon="10.569172815542325"><ele>177.0</ele><time>2026-03-24T08:40:20Z</time></trkpt><trkpt lat="43.431025995638706" lon="10.569151068016138"><ele>174.5</ele><time>2026-03-24T08:40:21Z</time></trkpt><trkpt lat="43.43112650982467" lon="10.569207802292889"><ele>172.0</ele><time>2026-03-24T08:40:22Z</time></trkpt><trkpt lat="43.431209217736445" lon="10.56932443585956"><ele>172.0</ele><time>2026-03-24T08:40:23Z</time></trkpt><trkpt lat="43.43122102182171" lon="10.56949164479747"><ele>172.0</ele><time>2026-03-24T08:40:24Z</time></trkpt><trkpt lat="43.43126451146217" lon="10.569673809957372"><ele>172.0</ele><time>2026-03-24T08:40:25Z</time></trkpt><trkpt lat="43.43133293501243" lon="10.56986920047712"><ele>172.0</ele><time>2026-03-24T08:40:25.999Z</time></trkpt><trkpt lat="43.43143643275493" lon="10.570056087364442"><ele>171.33333333333334</ele><time>2026-03-24T08:40:26.999Z</time></trkpt><trkpt lat="43.431548912779995" lon="10.570238663948057"><ele>170.66666666666666</ele><time>2026-03-24T08:40:27.999Z</time></trkpt><trkpt lat="43.43161984295175" lon="10.57047018211459"><ele>170.0</ele><time>2026-03-24T08:40:28.999Z</time></trkpt><trkpt lat="43.43168562672161" lon="10.570659056652"><ele>170.0</ele><time>2026-03-24T08:40:29.999Z</time></trkpt><trkpt lat="43.43170061938514" lon="10.57085761044856"><ele>170.0</ele><time>2026-03-24T08:40:30.999Z</time></trkpt><trkpt lat="43.43170019824931" lon="10.571036902983519"><ele>170.0</ele><time>2026-03-24T08:40:31.999Z</time></trkpt><trkpt lat="43.43169436979215" lon="10.571228556833907"><ele>170.0</ele><time>2026-03-24T08:40:32.999Z</time></trkpt><trkpt lat="43.43169422393958" lon="10.571420265973059"><ele>169.5</ele><time>2026-03-24T08:40:33.999Z</time></trkpt><trkpt lat="43.43173600997237" lon="10.571568445435398"><ele>169.0</ele><time>2026-03-24T08:40:34.999Z</time></trkpt><trkpt lat="43.43181493966504" lon="10.57165668393969"><ele>168.5</ele><time>2026-03-24T08:40:35.999Z</time></trkpt><trkpt lat="43.431932982095915" lon="10.571669948337565"><ele>168.0</ele><time>2026-03-24T08:40:36.999Z</time></trkpt><trkpt lat="43.432075385115354" lon="10.571688813265327"><ele>169.5</ele><time>2026-03-24T08:40:37.999Z</time></trkpt><trkpt lat="43.43220167831006" lon="10.571716169286333"><ele>171.0</ele><time>2026-03-24T08:40:38.999Z</time></trkpt><trkpt lat="43.43230226942087" lon="10.571713360491756"><ele>172.5</ele><time>2026-03-24T08:40:39.999Z</time></trkpt><trkpt lat="43.43240529829271" lon="10.571644013015844"><ele>174.0</ele><time>2026-03-24T08:40:40.999Z</time></trkpt><trkpt lat="43.43249306954677" lon="10.571486203384712"><ele>174.0</ele><time>2026-03-24T08:40:41.999Z</time></trkpt><trkpt lat="43.432606441532144" lon="10.571310440357408"><ele>174.0</ele><time>2026-03-24T08:40:42.999Z</time></trkpt><trkpt lat="43.43275366110765" lon="10.57112921699678"><ele>174.0</ele><time>2026-03-24T08:40:43.999Z</time></trkpt><trkpt lat="43.432895396676855" lon="10.570915768034414"><ele>175.25</ele><time>2026-03-24T08:40:44.999Z</time></trkpt><trkpt lat="43.43300935243226" lon="10.570761997309999"><ele>176.5</ele><time>2026-03-24T08:40:45.999Z</time></trkpt><trkpt lat="43.43312662531767" lon="10.570630919042966"><ele>177.75</ele><time>2026-03-24T08:40:46.999Z</time></trkpt><trkpt lat="43.43319587309265" lon="10.570497837798012"><ele>179.0</ele><time>2026-03-24T08:40:47.999Z</time></trkpt><trkpt lat="43.43322843224781" lon="10.570343819979755"><ele>179.0</ele><time>2026-03-24T08:40:48.999Z</time></trkpt><trkpt lat="43.43322045653098" lon="10.570174815881414"><ele>179.0</ele><time>2026-03-24T08:40:49.999Z</time></trkpt><trkpt lat="43.43313803768801" lon="10.570008978463488"><ele>179.0</ele><time>2026-03-24T08:40:50.999Z</time></trkpt><trkpt lat="43.4329914750806" lon="10.56990657735315"><ele>179.0</ele><time>2026-03-24T08:40:51.999Z</time></trkpt><trkpt lat="43.432864143906535" lon="10.569763801681217"><ele>174.66666666666666</ele><time>2026-03-24T08:40:52.999Z</time></trkpt><trkpt lat="43.43277667030074" lon="10.56959546778762"><ele>170.33333333333334</ele><time>2026-03-24T08:40:53.999Z</time></trkpt><trkpt lat="43.43275840295465" lon="10.569358713576674"><ele>166.0</ele><time>2026-03-24T08:40:54.999Z</time></trkpt><trkpt lat="43.43267533065101" lon="10.569094354186571"><ele>166.0</ele><time>2026-03-24T08:40:55.999Z</time></trkpt><trkpt lat="43.43259074626701" lon="10.568835817714756"><ele>166.0</ele><time>2026-03-24T08:40:56.999Z</time></trkpt><trkpt lat="43.43249500202459" lon="10.568535900963912"><ele>166.0</ele><time>2026-03-24T08:40:57.999Z</time></trkpt><trkpt lat="43.432374295089275" lon="10.568270015028622"><ele>169.33333333333334</ele><time>2026-03-24T08:40:58.999Z</time></trkpt><trkpt lat="43.43226914652024" lon="10.568074060373794"><ele>172.66666666666666</ele><time>2026-03-24T08:40:59.999Z</time></trkpt><trkpt lat="43.43220110263192" lon="10.567852789257834"><ele>176.0</ele><time>2026-03-24T08:41:00.999Z</time></trkpt><trkpt lat="43.43214669193748" lon="10.567619435719777"><ele>175.0</ele><time>2026-03-24T08:41:01.999Z</time></trkpt><trkpt lat="43.432097060186955" lon="10.567400272061816"><ele>174.0</ele><time>2026-03-24T08:41:02.999Z</time></trkpt><trkpt lat="43.432073373602734" lon="10.567258038690309"><ele>173.0</ele><time>2026-03-24T08:41:03.999Z</time></trkpt><trkpt lat="43.43208194373305" lon="10.567048496829427"><ele>172.0</ele><time>2026-03-24T08:41:05.999Z</time></trkpt><trkpt lat="43.43212100630437" lon="10.566938387034872"><ele>173.2</ele><time>2026-03-24T08:41:06.999Z</time></trkpt><trkpt lat="43.432180888620444" lon="10.5668414970816"><ele>174.39999999999998</ele><time>2026-03-24T08:41:07.999Z</time></trkpt><trkpt lat="43.43226456207027" lon="10.566765773453383"><ele>175.60000000000002</ele><time>2026-03-24T08:41:08.999Z</time></trkpt><trkpt lat="43.43234867427649" lon="10.566690941821017"><ele>176.8</ele><time>2026-03-24T08:41:09.999Z</time></trkpt><trkpt lat="43.43242718705721" lon="10.566616740464372"><ele>178.0</ele><time>2026-03-24T08:41:10.999Z</time></trkpt><trkpt lat="43.43248843007781" lon="10.566559107137536"><ele>178.0</ele><time>2026-03-24T08:41:11.999Z</time></trkpt><trkpt lat="43.432555257740674" lon="10.566495658202108"><ele>178.0</ele><time>2026-03-24T08:41:12.999Z</time></trkpt><trkpt lat="43.43261652373521" lon="10.566436993798671"><ele>178.0</ele><time>2026-03-24T08:41:13.999Z</time></trkpt><trkpt lat="43.43271298695751" lon="10.566344626784401"><ele>178.0</ele><time>2026-03-24T08:41:15.999Z</time></trkpt><trkpt lat="43.43276818921349" lon="10.566291768592155"><ele>178.0</ele><time>2026-03-24T08:41:16.999Z</time></trkpt><trkpt lat="43.43282265142354" lon="10.566218476326993"><ele>178.0</ele><time>2026-03-24T08:41:17.999Z</time></trkpt><trkpt lat="43.4328877294938" lon="10.566163855570526"><ele>177.66666666666669</ele><time>2026-03-24T08:41:18.999Z</time></trkpt><trkpt lat="43.43295488324276" lon="10.566100214248685"><ele>177.33333333333334</ele><time>2026-03-24T08:41:19.999Z</time></trkpt><trkpt lat="43.433024262438906" lon="10.566057349183337"><ele>177.0</ele><time>2026-03-24T08:41:20.999Z</time></trkpt><trkpt lat="43.433095866227966" lon="10.56599635320013"><ele>176.66666666666666</ele><time>2026-03-24T08:41:21.999Z</time></trkpt><trkpt lat="43.43315269703225" lon="10.56592951855633"><ele>176.33333333333331</ele><time>2026-03-24T08:41:22.999Z</time></trkpt><trkpt lat="43.43322808530242" lon="10.565882544263518"><ele>176.0</ele><time>2026-03-24T08:41:23.999Z</time></trkpt><trkpt lat="43.43330074438972" lon="10.56583521971977"><ele>176.0</ele><time>2026-03-24T08:41:24.999Z</time></trkpt><trkpt lat="43.43336281146788" lon="10.565789791728683"><ele>176.0</ele><time>2026-03-24T08:41:25.999Z</time></trkpt><trkpt lat="43.433426902454755" lon="10.565739540713196"><ele>176.0</ele><time>2026-03-24T08:41:26.999Z</time></trkpt><trkpt lat="43.433495646554434" lon="10.565676355623372"><ele>176.0</ele><time>2026-03-24T08:41:27.999Z</time></trkpt><trkpt lat="43.4335703761211" lon="10.565633848918845"><ele>176.0</ele><time>2026-03-24T08:41:29Z</time></trkpt><trkpt lat="43.43363931280704" lon="10.56556735862129"><ele>176.0</ele><time>2026-03-24T08:41:30Z</time></trkpt><trkpt lat="43.43372406766692" lon="10.565565110786832"><ele>176.0</ele><time>2026-03-24T08:41:31Z</time></trkpt><trkpt lat="43.433804569955456" lon="10.565579224734803"><ele>176.0</ele><time>2026-03-24T08:41:32Z</time></trkpt><trkpt lat="43.433866088291886" lon="10.565656922962274"><ele>176.0</ele><time>2026-03-24T08:41:33Z</time></trkpt><trkpt lat="43.433917452492345" lon="10.565797940037518"><ele>176.0</ele><time>2026-03-24T08:41:34Z</time></trkpt><trkpt lat="43.433967528369045" lon="10.5659158838655"><ele>176.0</ele><time>2026-03-24T08:41:35Z</time></trkpt><trkpt lat="43.43402781893329" lon="10.566088111278663"><ele>177.33333333333331</ele><time>2026-03-24T08:41:36Z</time></trkpt><trkpt lat="43.43412054763307" lon="10.566288464023659"><ele>178.66666666666666</ele><time>2026-03-24T08:41:37Z</time></trkpt><trkpt lat="43.434250322259516" lon="10.566471891344813"><ele>180.0</ele><time>2026-03-24T08:41:38Z</time></trkpt><trkpt lat="43.43437208953293" lon="10.566682111824946"><ele>180.0</ele><time>2026-03-24T08:41:39Z</time></trkpt><trkpt lat="43.43448089013724" lon="10.566881832176291"><ele>180.0</ele><time>2026-03-24T08:41:40Z</time></trkpt><trkpt lat="43.434586132237946" lon="10.567069794277858"><ele>180.0</ele><time>2026-03-24T08:41:41Z</time></trkpt><trkpt lat="43.434758392182644" lon="10.567209453343928"><ele>182.5</ele><time>2026-03-24T08:41:42Z</time></trkpt><trkpt lat="43.43496980739534" lon="10.567332993804191"><ele>185.0</ele><time>2026-03-24T08:41:43Z</time></trkpt><trkpt lat="43.43517965003095" lon="10.567493977133406"><ele>185.0</ele><time>2026-03-24T08:41:44Z</time></trkpt><trkpt lat="43.435392130005106" lon="10.567603535301238"><ele>185.0</ele><time>2026-03-24T08:41:45Z</time></trkpt><trkpt lat="43.43559207236685" lon="10.567686712676311"><ele>185.0</ele><time>2026-03-24T08:41:46Z</time></trkpt><trkpt lat="43.43579848686038" lon="10.567721391773489"><ele>184.66666666666666</ele><time>2026-03-24T08:41:47Z</time></trkpt><trkpt lat="43.43599804108752" lon="10.567711049659785"><ele>184.33333333333334</ele><time>2026-03-24T08:41:48Z</time></trkpt><trkpt lat="43.43616832722456" lon="10.56766386891351"><ele>184.0</ele><time>2026-03-24T08:41:49Z</time></trkpt><trkpt lat="43.436326565229756" lon="10.567525494452314"><ele>184.66666666666669</ele><time>2026-03-24T08:41:50Z</time></trkpt><trkpt lat="43.43649424804457" lon="10.5673811916052"><ele>185.33333333333334</ele><time>2026-03-24T08:41:51Z</time></trkpt><trkpt lat="43.4366258378853" lon="10.567302688367327"><ele>186.0</ele><time>2026-03-24T08:41:52Z</time></trkpt><trkpt lat="43.43674256637876" lon="10.567331213742095"><ele>186.0</ele><time>2026-03-24T08:41:53Z</time></trkpt><trkpt lat="43.43684953482487" lon="10.567406449788136"><ele>186.0</ele><time>2026-03-24T08:41:54Z</time></trkpt><trkpt lat="43.436978894744605" lon="10.56752459680342"><ele>186.0</ele><time>2026-03-24T08:41:55Z</time></trkpt><trkpt lat="43.437117563958076" lon="10.567663995204896"><ele>186.0</ele><time>2026-03-24T08:41:56Z</time></trkpt><trkpt lat="43.437292002448004" lon="10.567705847026499"><ele>187.0</ele><time>2026-03-24T08:41:57Z</time></trkpt><trkpt lat="43.43748067697188" lon="10.567671835505106"><ele>188.0</ele><time>2026-03-24T08:41:58Z</time></trkpt><trkpt lat="43.43763014491523" lon="10.567574455590867"><ele>189.0</ele><time>2026-03-24T08:41:59Z</time></trkpt><trkpt lat="43.43772824288973" lon="10.567444420500093"><ele>189.0</ele><time>2026-03-24T08:42:00Z</time></trkpt><trkpt lat="43.437761967326864" lon="10.56726709691026"><ele>189.0</ele><time>2026-03-24T08:42:01Z</time></trkpt><trkpt lat="43.437759848929026" lon="10.567059999328363"><ele>189.0</ele><time>2026-03-24T08:42:02Z</time></trkpt><trkpt lat="43.43778807390609" lon="10.566887444850638"><ele>189.0</ele><time>2026-03-24T08:42:03Z</time></trkpt><trkpt lat="43.437872271388315" lon="10.566778030752362"><ele>191.33333333333331</ele><time>2026-03-24T08:42:04Z</time></trkpt><trkpt lat="43.43800435223099" lon="10.566725609972758"><ele>193.66666666666666</ele><time>2026-03-24T08:42:05Z</time></trkpt><trkpt lat="43.43816944923916" lon="10.566708580404926"><ele>196.0</ele><time>2026-03-24T08:42:06Z</time></trkpt><trkpt lat="43.43834998066807" lon="10.566713570437406"><ele>196.0</ele><time>2026-03-24T08:42:07Z</time></trkpt><trkpt lat="43.43852587763875" lon="10.566703058368095"><ele>196.0</ele><time>2026-03-24T08:42:08Z</time></trkpt><trkpt lat="43.43871695829339" lon="10.566688004059298"><ele>196.0</ele><time>2026-03-24T08:42:09Z</time></trkpt><trkpt lat="43.43891098684708" lon="10.566731967245413"><ele>195.0</ele><time>2026-03-24T08:42:10Z</time></trkpt><trkpt lat="43.43907442149223" lon="10.566813715417602"><ele>194.0</ele><time>2026-03-24T08:42:11Z</time></trkpt><trkpt lat="43.439197195271554" lon="10.566948954406408"><ele>193.0</ele><time>2026-03-24T08:42:12Z</time></trkpt><trkpt lat="43.43933002733521" lon="10.567126372782548"><ele>191.33333333333331</ele><time>2026-03-24T08:42:13Z</time></trkpt><trkpt lat="43.43946503984387" lon="10.567332439575328"><ele>189.66666666666666</ele><time>2026-03-24T08:42:14Z</time></trkpt><trkpt lat="43.43962416474426" lon="10.567509204839796"><ele>188.0</ele><time>2026-03-24T08:42:15Z</time></trkpt><trkpt lat="43.4398151870713" lon="10.567652899846772"><ele>188.0</ele><time>2026-03-24T08:42:16Z</time></trkpt><trkpt lat="43.4400171238092" lon="10.567781937176125"><ele>188.0</ele><time>2026-03-24T08:42:17Z</time></trkpt><trkpt lat="43.440171490197656" lon="10.56789509152606"><ele>188.0</ele><time>2026-03-24T08:42:18Z</time></trkpt><trkpt lat="43.44032311419996" lon="10.567999682551312"><ele>188.5</ele><time>2026-03-24T08:42:19Z</time></trkpt><trkpt lat="43.440457804847796" lon="10.568092289777812"><ele>189.0</ele><time>2026-03-24T08:42:20Z</time></trkpt><trkpt lat="43.44059922897169" lon="10.568132308548671"><ele>189.5</ele><time>2026-03-24T08:42:21Z</time></trkpt><trkpt lat="43.44074492508392" lon="10.568106149226972"><ele>190.0</ele><time>2026-03-24T08:42:22Z</time></trkpt><trkpt lat="43.440885365509956" lon="10.568000076696126"><ele>190.0</ele><time>2026-03-24T08:42:22.999Z</time></trkpt><trkpt lat="43.44101434638511" lon="10.567913118535392"><ele>190.0</ele><time>2026-03-24T08:42:23.999Z</time></trkpt><trkpt lat="43.441148930399805" lon="10.567911743869985"><ele>190.0</ele><time>2026-03-24T08:42:24.999Z</time></trkpt><trkpt lat="43.44127046149377" lon="10.56802502375577"><ele>190.0</ele><time>2026-03-24T08:42:25.999Z</time></trkpt><trkpt lat="43.44135505901242" lon="10.568227521604436"><ele>190.66666666666669</ele><time>2026-03-24T08:42:26.999Z</time></trkpt><trkpt lat="43.4414560050541" lon="10.56845135499838"><ele>191.33333333333334</ele><time>2026-03-24T08:42:27.999Z</time></trkpt><trkpt lat="43.44154840621492" lon="10.568664637648048"><ele>192.0</ele><time>2026-03-24T08:42:28.999Z</time></trkpt><trkpt lat="43.44162910533708" lon="10.568882730827154"><ele>192.0</ele><time>2026-03-24T08:42:29.999Z</time></trkpt><trkpt lat="43.44170860458443" lon="10.569065530464663"><ele>192.0</ele><time>2026-03-24T08:42:30.999Z</time></trkpt><trkpt lat="43.441813630637384" lon="10.569206848614444"><ele>192.0</ele><time>2026-03-24T08:42:31.999Z</time></trkpt><trkpt lat="43.44196101887886" lon="10.569261754130297"><ele>186.33333333333334</ele><time>2026-03-24T08:42:32.999Z</time></trkpt><trkpt lat="43.442131812192656" lon="10.56925208138176"><ele>180.66666666666669</ele><time>2026-03-24T08:42:33.999Z</time></trkpt><trkpt lat="43.4422959923228" lon="10.569209244187487"><ele>175.0</ele><time>2026-03-24T08:42:34.999Z</time></trkpt><trkpt lat="43.44243292317778" lon="10.56921587262546"><ele>175.0</ele><time>2026-03-24T08:42:35.999Z</time></trkpt><trkpt lat="43.4425357310169" lon="10.569284802852945"><ele>175.0</ele><time>2026-03-24T08:42:36.999Z</time></trkpt><trkpt lat="43.44260409258388" lon="10.5694154599669"><ele>175.0</ele><time>2026-03-24T08:42:37.999Z</time></trkpt><trkpt lat="43.44264503653965" lon="10.569609725076951"><ele>175.0</ele><time>2026-03-24T08:42:38.999Z</time></trkpt><trkpt lat="43.44262860624432" lon="10.569827630923578"><ele>179.5</ele><time>2026-03-24T08:42:39.999Z</time></trkpt><trkpt lat="43.44263118346452" lon="10.570036372689344"><ele>184.0</ele><time>2026-03-24T08:42:40.999Z</time></trkpt><trkpt lat="43.442665969520576" lon="10.570212265980883"><ele>188.5</ele><time>2026-03-24T08:42:41.999Z</time></trkpt><trkpt lat="43.44274596792716" lon="10.570338524667592"><ele>193.0</ele><time>2026-03-24T08:42:42.999Z</time></trkpt><trkpt lat="43.442832126958514" lon="10.570394112592984"><ele>193.0</ele><time>2026-03-24T08:42:43.999Z</time></trkpt><trkpt lat="43.442929473356266" lon="10.570348197059726"><ele>193.0</ele><time>2026-03-24T08:42:44.999Z</time></trkpt><trkpt lat="43.44302994986744" lon="10.570245122250178"><ele>193.0</ele><time>2026-03-24T08:42:45.999Z</time></trkpt><trkpt lat="43.44308252722559" lon="10.57009041984407"><ele>193.0</ele><time>2026-03-24T08:42:46.999Z</time></trkpt><trkpt lat="43.443094876515225" lon="10.569889595210599"><ele>188.25</ele><time>2026-03-24T08:42:47.999Z</time></trkpt><trkpt lat="43.44312735420591" lon="10.569686392533972"><ele>183.5</ele><time>2026-03-24T08:42:48.999Z</time></trkpt><trkpt lat="43.443194314828084" lon="10.569520988608229"><ele>178.75</ele><time>2026-03-24T08:42:49.999Z</time></trkpt><trkpt lat="43.4433124942886" lon="10.56943666228277"><ele>174.0</ele><time>2026-03-24T08:42:50.999Z</time></trkpt><trkpt lat="43.443468617757745" lon="10.569446404407834"><ele>175.0</ele><time>2026-03-24T08:42:51.999Z</time></trkpt><trkpt lat="43.443659512211184" lon="10.569461757975548"><ele>176.0</ele><time>2026-03-24T08:42:52.999Z</time></trkpt><trkpt lat="43.44385362641375" lon="10.569449955791594"><ele>177.0</ele><time>2026-03-24T08:42:53.999Z</time></trkpt><trkpt lat="43.44404831229419" lon="10.569381828377242"><ele>177.0</ele><time>2026-03-24T08:42:54.999Z</time></trkpt><trkpt lat="43.44422793457507" lon="10.569225014322607"><ele>177.0</ele><time>2026-03-24T08:42:55.999Z</time></trkpt><trkpt lat="43.44441101012189" lon="10.569009012813412"><ele>177.0</ele><time>2026-03-24T08:42:56.999Z</time></trkpt><trkpt lat="43.444608151868294" lon="10.568824749794144"><ele>177.0</ele><time>2026-03-24T08:42:57.999Z</time></trkpt><trkpt lat="43.44480711878806" lon="10.56872195101911"><ele>179.66666666666666</ele><time>2026-03-24T08:42:58.999Z</time></trkpt><trkpt lat="43.44498922332102" lon="10.56862050575943"><ele>182.33333333333331</ele><time>2026-03-24T08:42:59.999Z</time></trkpt><trkpt lat="43.44514440814937" lon="10.568446299323295"><ele>185.0</ele><time>2026-03-24T08:43:00.999Z</time></trkpt><trkpt lat="43.44526799463199" lon="10.568216407346965"><ele>185.0</ele><time>2026-03-24T08:43:01.999Z</time></trkpt><trkpt lat="43.445363655686414" lon="10.568003943068433"><ele>185.0</ele><time>2026-03-24T08:43:02.999Z</time></trkpt><trkpt lat="43.44546404793746" lon="10.56782095667774"><ele>185.0</ele><time>2026-03-24T08:43:03.999Z</time></trkpt><trkpt lat="43.44559519299179" lon="10.567687431655928"><ele>186.33333333333331</ele><time>2026-03-24T08:43:04.999Z</time></trkpt><trkpt lat="43.445738047723516" lon="10.567575499122798"><ele>187.66666666666666</ele><time>2026-03-24T08:43:05.999Z</time></trkpt><trkpt lat="43.4459275098654" lon="10.56757280337532"><ele>189.0</ele><time>2026-03-24T08:43:06.999Z</time></trkpt><trkpt lat="43.446117611772635" lon="10.567585144490433"><ele>187.66666666666666</ele><time>2026-03-24T08:43:07.999Z</time></trkpt><trkpt lat="43.44629827904896" lon="10.56767766904788"><ele>186.33333333333331</ele><time>2026-03-24T08:43:08.999Z</time></trkpt><trkpt lat="43.44644090506302" lon="10.567838497911174"><ele>185.0</ele><time>2026-03-24T08:43:09.999Z</time></trkpt><trkpt lat="43.446593336722025" lon="10.568037302726895"><ele>189.33333333333331</ele><time>2026-03-24T08:43:10.999Z</time></trkpt><trkpt lat="43.44673658628669" lon="10.568210077562776"><ele>193.66666666666666</ele><time>2026-03-24T08:43:11.999Z</time></trkpt><trkpt lat="43.44687560718165" lon="10.568328696591681"><ele>198.0</ele><time>2026-03-24T08:43:12.999Z</time></trkpt><trkpt lat="43.447015026949984" lon="10.568359140445049"><ele>196.60000000000002</ele><time>2026-03-24T08:43:13.999Z</time></trkpt><trkpt lat="43.44713750776798" lon="10.56829576647284"><ele>195.20000000000002</ele><time>2026-03-24T08:43:14.999Z</time></trkpt><trkpt lat="43.44722149774632" lon="10.568181901612663"><ele>193.8</ele><time>2026-03-24T08:43:15.999Z</time></trkpt><trkpt lat="43.44726883331553" lon="10.568043966711109"><ele>192.4</ele><time>2026-03-24T08:43:16.999Z</time></trkpt><trkpt lat="43.44728627607484" lon="10.567936744879308"><ele>191.0</ele><time>2026-03-24T08:43:17.999Z</time></trkpt><trkpt lat="43.447258090455996" lon="10.567832718961935"><ele>191.0</ele><time>2026-03-24T08:43:18.999Z</time></trkpt><trkpt lat="43.44720016081868" lon="10.56771989510705"><ele>191.0</ele><time>2026-03-24T08:43:19.999Z</time></trkpt><trkpt lat="43.447131440094495" lon="10.56758970858327"><ele>191.0</ele><time>2026-03-24T08:43:20.999Z</time></trkpt><trkpt lat="43.447069536836146" lon="10.567456551391887"><ele>191.0</ele><time>2026-03-24T08:43:21.999Z</time></trkpt><trkpt lat="43.4470456173186" lon="10.56732069122421"><ele>191.0</ele><time>2026-03-24T08:43:22.999Z</time></trkpt><trkpt lat="43.44700743338797" lon="10.567196117870548"><ele>191.60000000000002</ele><time>2026-03-24T08:43:23.999Z</time></trkpt><trkpt lat="43.44699683209079" lon="10.567055717113531"><ele>192.2</ele><time>2026-03-24T08:43:24.999Z</time></trkpt><trkpt lat="43.44701811313105" lon="10.566927059691302"><ele>192.8</ele><time>2026-03-24T08:43:25.999Z</time></trkpt><trkpt lat="43.447025397575324" lon="10.566808501246843"><ele>193.39999999999998</ele><time>2026-03-24T08:43:26.999Z</time></trkpt><trkpt lat="43.44707334624689" lon="10.566686410196287"><ele>194.0</ele><time>2026-03-24T08:43:27.999Z</time></trkpt><trkpt lat="43.44717485252366" lon="10.56658229554224"><ele>194.0</ele><time>2026-03-24T08:43:28.999Z</time></trkpt><trkpt lat="43.44726956686577" lon="10.566432456869455"><ele>194.0</ele><time>2026-03-24T08:43:29.999Z</time></trkpt><trkpt lat="43.44737436380461" lon="10.56630669285286"><ele>194.0</ele><time>2026-03-24T08:43:30.999Z</time></trkpt><trkpt lat="43.44746609511016" lon="10.566190513936526"><ele>194.0</ele><time>2026-03-24T08:43:31.999Z</time></trkpt><trkpt lat="43.4475420828849" lon="10.566094156442727"><ele>192.6</ele><time>2026-03-24T08:43:32.999Z</time></trkpt><trkpt lat="43.44760425091566" lon="10.565979488989123"><ele>191.2</ele><time>2026-03-24T08:43:33.999Z</time></trkpt><trkpt lat="43.447651657990754" lon="10.56586182633206"><ele>189.79999999999998</ele><time>2026-03-24T08:43:34.999Z</time></trkpt><trkpt lat="43.44767052211958" lon="10.565723578285844"><ele>188.39999999999998</ele><time>2026-03-24T08:43:35.999Z</time></trkpt><trkpt lat="43.44767814592471" lon="10.565569906413325"><ele>187.0</ele><time>2026-03-24T08:43:36.999Z</time></trkpt><trkpt lat="43.44768211514594" lon="10.565409372225702"><ele>186.0</ele><time>2026-03-24T08:43:37.999Z</time></trkpt><trkpt lat="43.447706481278864" lon="10.565252548473936"><ele>185.0</ele><time>2026-03-24T08:43:38.999Z</time></trkpt><trkpt lat="43.44775380396336" lon="10.565123147230347"><ele>184.0</ele><time>2026-03-24T08:43:39.999Z</time></trkpt><trkpt lat="43.44780986718383" lon="10.565013359950006"><ele>183.0</ele><time>2026-03-24T08:43:40.999Z</time></trkpt><trkpt lat="43.447868516336484" lon="10.564932840467096"><ele>182.0</ele><time>2026-03-24T08:43:42Z</time></trkpt><trkpt lat="43.44791672049491" lon="10.564863741647677"><ele>183.6</ele><time>2026-03-24T08:43:42.999Z</time></trkpt><trkpt lat="43.448032548077485" lon="10.564782706177203"><ele>185.2</ele><time>2026-03-24T08:43:44.999Z</time></trkpt><trkpt lat="43.44811305865019" lon="10.564780610558772"><ele>186.8</ele><time>2026-03-24T08:43:45.999Z</time></trkpt><trkpt lat="43.44819855280497" lon="10.564821366253275"><ele>188.4</ele><time>2026-03-24T08:43:46.999Z</time></trkpt><trkpt lat="43.44826301454575" lon="10.564919885464882"><ele>190.0</ele><time>2026-03-24T08:43:47.999Z</time></trkpt><trkpt lat="43.448332186736856" lon="10.565056400204234"><ele>190.0</ele><time>2026-03-24T08:43:48.999Z</time></trkpt><trkpt lat="43.44841617407977" lon="10.565216038064106"><ele>190.0</ele><time>2026-03-24T08:43:49.999Z</time></trkpt><trkpt lat="43.44849728739854" lon="10.565350590248707"><ele>190.0</ele><time>2026-03-24T08:43:50.999Z</time></trkpt><trkpt lat="43.44856885712545" lon="10.565472588237727"><ele>190.0</ele><time>2026-03-24T08:43:51.999Z</time></trkpt><trkpt lat="43.44864610255578" lon="10.565574484706401"><ele>191.6</ele><time>2026-03-24T08:43:52.999Z</time></trkpt><trkpt lat="43.448727443133016" lon="10.565658485310465"><ele>193.2</ele><time>2026-03-24T08:43:53.999Z</time></trkpt><trkpt lat="43.44882727726028" lon="10.565710635534872"><ele>194.8</ele><time>2026-03-24T08:43:54.999Z</time></trkpt><trkpt lat="43.448933503562394" lon="10.565718252363595"><ele>196.4</ele><time>2026-03-24T08:43:55.999Z</time></trkpt><trkpt lat="43.449026569148025" lon="10.56571112576272"><ele>198.0</ele><time>2026-03-24T08:43:56.999Z</time></trkpt><trkpt lat="43.44912809837726" lon="10.565669468500671"><ele>198.66666666666669</ele><time>2026-03-24T08:43:57.999Z</time></trkpt><trkpt lat="43.44923988986103" lon="10.565553909097309"><ele>199.33333333333334</ele><time>2026-03-24T08:43:58.999Z</time></trkpt><trkpt lat="43.44941663655891" lon="10.565382752601657"><ele>200.0</ele><time>2026-03-24T08:43:59.999Z</time></trkpt><trkpt lat="43.44961283624234" lon="10.565282929838624"><ele>194.5</ele><time>2026-03-24T08:44:00.999Z</time></trkpt><trkpt lat="43.449849510183554" lon="10.565194060624906"><ele>189.0</ele><time>2026-03-24T08:44:01.999Z</time></trkpt><trkpt lat="43.45008085189556" lon="10.565077799974006"><ele>189.0</ele><time>2026-03-24T08:44:02.999Z</time></trkpt><trkpt lat="43.45031582333738" lon="10.564965847406524"><ele>189.0</ele><time>2026-03-24T08:44:03.999Z</time></trkpt><trkpt lat="43.450517961763786" lon="10.56482924838957"><ele>188.0</ele><time>2026-03-24T08:44:04.999Z</time></trkpt><trkpt lat="43.45071575216892" lon="10.564604203183084"><ele>187.0</ele><time>2026-03-24T08:44:05.999Z</time></trkpt><trkpt lat="43.450919836906664" lon="10.564348230586292"><ele>187.0</ele><time>2026-03-24T08:44:06.999Z</time></trkpt><trkpt lat="43.45113588684073" lon="10.564138438219084"><ele>187.0</ele><time>2026-03-24T08:44:07.999Z</time></trkpt><trkpt lat="43.45132861709322" lon="10.563932758335001"><ele>188.0</ele><time>2026-03-24T08:44:08.999Z</time></trkpt><trkpt lat="43.45144661018725" lon="10.563787092203848"><ele>189.0</ele><time>2026-03-24T08:44:09.999Z</time></trkpt><trkpt lat="43.45157886658501" lon="10.563715045703116"><ele>190.0</ele><time>2026-03-24T08:44:10.999Z</time></trkpt><trkpt lat="43.45167982245791" lon="10.56372555574317"><ele>191.0</ele><time>2026-03-24T08:44:11.999Z</time></trkpt><trkpt lat="43.45177475380184" lon="10.563796373028271"><ele>191.0</ele><time>2026-03-24T08:44:12.999Z</time></trkpt><trkpt lat="43.451889939261555" lon="10.563840079755973"><ele>191.0</ele><time>2026-03-24T08:44:13.999Z</time></trkpt><trkpt lat="43.45182740857137" lon="10.564191125885449"><ele>191.0</ele><time>2026-03-24T08:44:14.999Z</time></trkpt><trkpt lat="43.45183322326735" lon="10.564454124710554"><ele>192.66666666666666</ele><time>2026-03-24T08:44:15.999Z</time></trkpt><trkpt lat="43.4517831369691" lon="10.564691374354917"><ele>194.33333333333331</ele><time>2026-03-24T08:44:16.999Z</time></trkpt><trkpt lat="43.4516731040217" lon="10.564960458728756"><ele>196.0</ele><time>2026-03-24T08:44:17.999Z</time></trkpt><trkpt lat="43.451556924781016" lon="10.56522330875427"><ele>198.0</ele><time>2026-03-24T08:44:18.999Z</time></trkpt><trkpt lat="43.45152071844718" lon="10.565447466284208"><ele>200.0</ele><time>2026-03-24T08:44:19.999Z</time></trkpt><trkpt lat="43.45155739232334" lon="10.565660362327092"><ele>202.0</ele><time>2026-03-24T08:44:20.999Z</time></trkpt><trkpt lat="43.45164466655285" lon="10.565846923044852"><ele>202.0</ele><time>2026-03-24T08:44:21.999Z</time></trkpt><trkpt lat="43.451749368287224" lon="10.565949028208125"><ele>202.0</ele><time>2026-03-24T08:44:22.999Z</time></trkpt><trkpt lat="43.45188290993662" lon="10.565963623381672"><ele>202.0</ele><time>2026-03-24T08:44:23.999Z</time></trkpt><trkpt lat="43.45203846886787" lon="10.56594380355539"><ele>202.0</ele><time>2026-03-24T08:44:24.999Z</time></trkpt><trkpt lat="43.45220659352761" lon="10.565931789492222"><ele>201.75</ele><time>2026-03-24T08:44:25.999Z</time></trkpt><trkpt lat="43.45232948283391" lon="10.566005336541028"><ele>201.5</ele><time>2026-03-24T08:44:26.999Z</time></trkpt><trkpt lat="43.45238808733289" lon="10.566163426652942"><ele>201.25</ele><time>2026-03-24T08:44:27.999Z</time></trkpt><trkpt lat="43.452390880079754" lon="10.566339821488285"><ele>201.0</ele><time>2026-03-24T08:44:28.999Z</time></trkpt><trkpt lat="43.452370954170604" lon="10.566553240372466"><ele>201.0</ele><time>2026-03-24T08:44:29.999Z</time></trkpt><trkpt lat="43.45236129423473" lon="10.566810802793574"><ele>201.0</ele><time>2026-03-24T08:44:30.999Z</time></trkpt><trkpt lat="43.4523544243525" lon="10.567025077922983"><ele>201.0</ele><time>2026-03-24T08:44:31.999Z</time></trkpt><trkpt lat="43.45235851606929" lon="10.567187716485826"><ele>202.60000000000002</ele><time>2026-03-24T08:44:32.999Z</time></trkpt><trkpt lat="43.45240171842853" lon="10.56728927640474"><ele>204.2</ele><time>2026-03-24T08:44:33.999Z</time></trkpt><trkpt lat="43.45249237881145" lon="10.567335561933616"><ele>205.8</ele><time>2026-03-24T08:44:34.999Z</time></trkpt><trkpt lat="43.45256741181819" lon="10.567340127079458"><ele>207.39999999999998</ele><time>2026-03-24T08:44:35.999Z</time></trkpt><trkpt lat="43.4526502598555" lon="10.567185858830266"><ele>209.0</ele><time>2026-03-24T08:44:36.999Z</time></trkpt><trkpt lat="43.45274293058688" lon="10.567039203771225"><ele>206.33333333333334</ele><time>2026-03-24T08:44:37.999Z</time></trkpt><trkpt lat="43.45282828742821" lon="10.566845356116948"><ele>203.66666666666669</ele><time>2026-03-24T08:44:38.999Z</time></trkpt><trkpt lat="43.452912862093136" lon="10.566606551722588"><ele>201.0</ele><time>2026-03-24T08:44:39.999Z</time></trkpt><trkpt lat="43.453009047794325" lon="10.566358932501096"><ele>201.33333333333331</ele><time>2026-03-24T08:44:40.999Z</time></trkpt><trkpt lat="43.453108440859765" lon="10.566117847948329"><ele>201.66666666666666</ele><time>2026-03-24T08:44:41.999Z</time></trkpt><trkpt lat="43.4531713007345" lon="10.565919687892803"><ele>202.0</ele><time>2026-03-24T08:44:42.999Z</time></trkpt><trkpt lat="43.45323440704573" lon="10.565753001242234"><ele>202.0</ele><time>2026-03-24T08:44:43.999Z</time></trkpt><trkpt lat="43.45332694353653" lon="10.56561206509922"><ele>202.0</ele><time>2026-03-24T08:44:44.999Z</time></trkpt><trkpt lat="43.453488694335924" lon="10.565578986384265"><ele>202.0</ele><time>2026-03-24T08:44:45.999Z</time></trkpt><trkpt lat="43.45366433509105" lon="10.565539684062701"><ele>205.0</ele><time>2026-03-24T08:44:46.999Z</time></trkpt><trkpt lat="43.45386146658934" lon="10.565495342406882"><ele>208.0</ele><time>2026-03-24T08:44:47.999Z</time></trkpt><trkpt lat="43.45406034790823" lon="10.565495700419907"><ele>211.0</ele><time>2026-03-24T08:44:48.999Z</time></trkpt><trkpt lat="43.45423569642001" lon="10.565561469823718"><ele>211.0</ele><time>2026-03-24T08:44:49.999Z</time></trkpt><trkpt lat="43.45439364040346" lon="10.565632209897162"><ele>211.0</ele><time>2026-03-24T08:44:50.999Z</time></trkpt><trkpt lat="43.454510645603" lon="10.565766547594336"><ele>211.0</ele><time>2026-03-24T08:44:51.999Z</time></trkpt><trkpt lat="43.45460446664743" lon="10.565899585074964"><ele>208.33333333333331</ele><time>2026-03-24T08:44:52.999Z</time></trkpt><trkpt lat="43.45471225750409" lon="10.566026695855127"><ele>205.66666666666669</ele><time>2026-03-24T08:44:53.999Z</time></trkpt><trkpt lat="43.4549041551615" lon="10.566139034178974"><ele>203.0</ele><time>2026-03-24T08:44:54.999Z</time></trkpt><trkpt lat="43.45510896728781" lon="10.566194764882068"><ele>206.0</ele><time>2026-03-24T08:44:55.999Z</time></trkpt><trkpt lat="43.45532303540805" lon="10.566260275425254"><ele>209.0</ele><time>2026-03-24T08:44:56.999Z</time></trkpt><trkpt lat="43.455525086701485" lon="10.566303731532667"><ele>212.0</ele><time>2026-03-24T08:44:57.999Z</time></trkpt><trkpt lat="43.455695026339626" lon="10.566348853826362"><ele>212.0</ele><time>2026-03-24T08:44:58.999Z</time></trkpt><trkpt lat="43.45582843752591" lon="10.566406209156325"><ele>212.0</ele><time>2026-03-24T08:44:59.999Z</time></trkpt><trkpt lat="43.455939756537845" lon="10.56651261426768"><ele>212.0</ele><time>2026-03-24T08:45:00.999Z</time></trkpt><trkpt lat="43.45606689943176" lon="10.566657708535436"><ele>212.0</ele><time>2026-03-24T08:45:01.999Z</time></trkpt><trkpt lat="43.45618771141131" lon="10.566831654105226"><ele>209.66666666666669</ele><time>2026-03-24T08:45:02.999Z</time></trkpt><trkpt lat="43.45631616215989" lon="10.566945144824157"><ele>207.33333333333331</ele><time>2026-03-24T08:45:03.999Z</time></trkpt><trkpt lat="43.45647135884888" lon="10.56698980884541"><ele>205.0</ele><time>2026-03-24T08:45:04.999Z</time></trkpt><trkpt lat="43.45666835309726" lon="10.567018808297865"><ele>209.33333333333331</ele><time>2026-03-24T08:45:05.999Z</time></trkpt><trkpt lat="43.45683163921899" lon="10.567121957057457"><ele>213.66666666666669</ele><time>2026-03-24T08:45:06.999Z</time></trkpt><trkpt lat="43.45697779444014" lon="10.56723172286345"><ele>218.0</ele><time>2026-03-24T08:45:07.999Z</time></trkpt><trkpt lat="43.45708443900161" lon="10.567421204775108"><ele>216.0</ele><time>2026-03-24T08:45:08.999Z</time></trkpt><trkpt lat="43.45716399681207" lon="10.567630406154631"><ele>214.0</ele><time>2026-03-24T08:45:09.999Z</time></trkpt><trkpt lat="43.45723789241198" lon="10.567770886018742"><ele>212.0</ele><time>2026-03-24T08:45:10.999Z</time></trkpt><trkpt lat="43.45732989154776" lon="10.56782204589597"><ele>210.0</ele><time>2026-03-24T08:45:11.999Z</time></trkpt><trkpt lat="43.4574388980009" lon="10.567806020390162"><ele>210.0</ele><time>2026-03-24T08:45:12.999Z</time></trkpt><trkpt lat="43.45752609574235" lon="10.567730603981333"><ele>210.0</ele><time>2026-03-24T08:45:13.999Z</time></trkpt><trkpt lat="43.45757773324686" lon="10.56759213837749"><ele>210.0</ele><time>2026-03-24T08:45:14.999Z</time></trkpt><trkpt lat="43.45762981254175" lon="10.567414368792614"><ele>210.0</ele><time>2026-03-24T08:45:15.999Z</time></trkpt><trkpt lat="43.457710598586345" lon="10.567308830668964"><ele>210.0</ele><time>2026-03-24T08:45:16.999Z</time></trkpt><trkpt lat="43.45782166786906" lon="10.567300217981133"><ele>210.0</ele><time>2026-03-24T08:45:17.999Z</time></trkpt><trkpt lat="43.457933725986834" lon="10.567384158686982"><ele>210.0</ele><time>2026-03-24T08:45:18.999Z</time></trkpt><trkpt lat="43.45800462497777" lon="10.567533919025102"><ele>210.0</ele><time>2026-03-24T08:45:19.999Z</time></trkpt><trkpt lat="43.458105072443104" lon="10.567662079637605"><ele>210.75</ele><time>2026-03-24T08:45:20.999Z</time></trkpt><trkpt lat="43.45822840579816" lon="10.567765251209188"><ele>211.5</ele><time>2026-03-24T08:45:21.999Z</time></trkpt><trkpt lat="43.4583629618318" lon="10.567782224109957"><ele>212.25</ele><time>2026-03-24T08:45:22.999Z</time></trkpt><trkpt lat="43.45847720595195" lon="10.567737233271927"><ele>213.0</ele><time>2026-03-24T08:45:23.999Z</time></trkpt><trkpt lat="43.45856128023217" lon="10.567659889914685"><ele>213.0</ele><time>2026-03-24T08:45:24.999Z</time></trkpt><trkpt lat="43.45861974786875" lon="10.567571411672041"><ele>213.0</ele><time>2026-03-24T08:45:25.999Z</time></trkpt><trkpt lat="43.45866723105907" lon="10.567475851163412"><ele>213.0</ele><time>2026-03-24T08:45:26.999Z</time></trkpt><trkpt lat="43.458721565760506" lon="10.567369095749116"><ele>213.0</ele><time>2026-03-24T08:45:27.999Z</time></trkpt><trkpt lat="43.458776044551" lon="10.567274581009965"><ele>213.0</ele><time>2026-03-24T08:45:28.999Z</time></trkpt><trkpt lat="43.45883481039339" lon="10.567174701218015"><ele>213.0</ele><time>2026-03-24T08:45:29.999Z</time></trkpt><trkpt lat="43.45890152067517" lon="10.567069740432142"><ele>212.60000000000002</ele><time>2026-03-24T08:45:30.999Z</time></trkpt><trkpt lat="43.458965568506194" lon="10.566962511866206"><ele>212.20000000000002</ele><time>2026-03-24T08:45:31.999Z</time></trkpt><trkpt lat="43.45902667800713" lon="10.566854402490502"><ele>211.8</ele><time>2026-03-24T08:45:32.999Z</time></trkpt><trkpt lat="43.45908468392577" lon="10.566761946166828"><ele>211.4</ele><time>2026-03-24T08:45:33.999Z</time></trkpt><trkpt lat="43.45914786100752" lon="10.566651252314108"><ele>211.0</ele><time>2026-03-24T08:45:34.999Z</time></trkpt><trkpt lat="43.4592125754091" lon="10.566536633732136"><ele>211.0</ele><time>2026-03-24T08:45:35.999Z</time></trkpt><trkpt lat="43.45927806278758" lon="10.566428300832607"><ele>211.0</ele><time>2026-03-24T08:45:36.999Z</time></trkpt><trkpt lat="43.45934212923472" lon="10.56631222290383"><ele>211.0</ele><time>2026-03-24T08:45:37.999Z</time></trkpt><trkpt lat="43.45940578254388" lon="10.566196754143315"><ele>211.0</ele><time>2026-03-24T08:45:38.999Z</time></trkpt><trkpt lat="43.45945000616267" lon="10.566089916183078"><ele>211.0</ele><time>2026-03-24T08:45:39.999Z</time></trkpt><trkpt lat="43.45949805987862" lon="10.565988111073679"><ele>209.66666666666666</ele><time>2026-03-24T08:45:40.999Z</time></trkpt><trkpt lat="43.45954972174654" lon="10.565879297831442"><ele>208.33333333333331</ele><time>2026-03-24T08:45:41.999Z</time></trkpt><trkpt lat="43.459597843659964" lon="10.565781662972947"><ele>207.0</ele><time>2026-03-24T08:45:42.999Z</time></trkpt><trkpt lat="43.459645797057874" lon="10.56569578427975"><ele>205.66666666666669</ele><time>2026-03-24T08:45:43.999Z</time></trkpt><trkpt lat="43.4597064606666" lon="10.565609107926761"><ele>204.33333333333334</ele><time>2026-03-24T08:45:44.999Z</time></trkpt><trkpt lat="43.45976273710925" lon="10.565504226822629"><ele>203.0</ele><time>2026-03-24T08:45:45.999Z</time></trkpt><trkpt lat="43.45979422651894" lon="10.565384351505703"><ele>205.4</ele><time>2026-03-24T08:45:46.999Z</time></trkpt><trkpt lat="43.45980945081367" lon="10.565249970300595"><ele>207.8</ele><time>2026-03-24T08:45:47.999Z</time></trkpt><trkpt lat="43.45980549730907" lon="10.565113254718984"><ele>210.2</ele><time>2026-03-24T08:45:48.999Z</time></trkpt><trkpt lat="43.45979913768741" lon="10.564966726754541"><ele>212.6</ele><time>2026-03-24T08:45:49.999Z</time></trkpt><trkpt lat="43.45979176949204" lon="10.56481950234515"><ele>215.0</ele><time>2026-03-24T08:45:50.999Z</time></trkpt><trkpt lat="43.45980399850861" lon="10.564673019043422"><ele>214.75</ele><time>2026-03-24T08:45:51.999Z</time></trkpt><trkpt lat="43.4597849014392" lon="10.564524422027493"><ele>214.5</ele><time>2026-03-24T08:45:52.999Z</time></trkpt><trkpt lat="43.45978644603" lon="10.564369768253469"><ele>214.25</ele><time>2026-03-24T08:45:53.999Z</time></trkpt><trkpt lat="43.45978238695623" lon="10.564197179317452"><ele>214.0</ele><time>2026-03-24T08:45:54.999Z</time></trkpt><trkpt lat="43.45977901137981" lon="10.564043923526333"><ele>214.0</ele><time>2026-03-24T08:45:55.999Z</time></trkpt><trkpt lat="43.45977093635748" lon="10.563904629998861"><ele>213.99999999999997</ele><time>2026-03-24T08:45:56.999Z</time></trkpt><trkpt lat="43.45976147543402" lon="10.56375673117802"><ele>213.99999999999997</ele><time>2026-03-24T08:45:57.999Z</time></trkpt><trkpt lat="43.459738389301364" lon="10.563598715327268"><ele>214.0</ele><time>2026-03-24T08:45:58.999Z</time></trkpt><trkpt lat="43.459718699029445" lon="10.56344571802113"><ele>214.0</ele><time>2026-03-24T08:45:59.999Z</time></trkpt><trkpt lat="43.45969717668672" lon="10.563293315828762"><ele>213.66666666666666</ele><time>2026-03-24T08:46:00.999Z</time></trkpt><trkpt lat="43.4596749733418" lon="10.563156625519527"><ele>213.33333333333331</ele><time>2026-03-24T08:46:01.999Z</time></trkpt><trkpt lat="43.45965463030725" lon="10.563032284220537"><ele>213.0</ele><time>2026-03-24T08:46:02.999Z</time></trkpt><trkpt lat="43.459635804158886" lon="10.56292288025731"><ele>212.66666666666669</ele><time>2026-03-24T08:46:03.999Z</time></trkpt><trkpt lat="43.459624880496015" lon="10.562832848572619"><ele>212.33333333333334</ele><time>2026-03-24T08:46:04.999Z</time></trkpt><trkpt lat="43.45967577917871" lon="10.562709842125205"><ele>212.0</ele><time>2026-03-24T08:46:06.999Z</time></trkpt><trkpt lat="43.4598303625717" lon="10.562678280717101"><ele>211.0</ele><time>2026-03-24T08:46:08.999Z</time></trkpt><trkpt lat="43.45990479815589" lon="10.562642705357844"><ele>210.0</ele><time>2026-03-24T08:46:09.999Z</time></trkpt><trkpt lat="43.460013735910124" lon="10.562609331386016"><ele>209.0</ele><time>2026-03-24T08:46:11.999Z</time></trkpt><trkpt lat="43.46011978285783" lon="10.562606457883938"><ele>208.0</ele><time>2026-03-24T08:46:13.999Z</time></trkpt><trkpt lat="43.46019361556035" lon="10.562503576025016"><ele>207.0</ele><time>2026-03-24T08:46:15.999Z</time></trkpt><trkpt lat="43.46027403299215" lon="10.562511168533847"><ele>207.0</ele><time>2026-03-24T08:46:17.999Z</time></trkpt><trkpt lat="43.46035705902931" lon="10.562619952592124"><ele>207.0</ele><time>2026-03-24T08:46:19.999Z</time></trkpt><trkpt lat="43.46048786817439" lon="10.56261376489432"><ele>207.0</ele><time>2026-03-24T08:46:21.999Z</time></trkpt><trkpt lat="43.460554063181526" lon="10.56257264130648"><ele>207.0</ele><time>2026-03-24T08:46:22.999Z</time></trkpt><trkpt lat="43.46063384637312" lon="10.562528760950194"><ele>207.0</ele><time>2026-03-24T08:46:23.999Z</time></trkpt><trkpt lat="43.46071130540459" lon="10.562489223592952"><ele>207.0</ele><time>2026-03-24T08:46:24.999Z</time></trkpt><trkpt lat="43.46078317021124" lon="10.562424824060864"><ele>207.0</ele><time>2026-03-24T08:46:25.999Z</time></trkpt><trkpt lat="43.46087845801224" lon="10.562383405892021"><ele>207.0</ele><time>2026-03-24T08:46:26.999Z</time></trkpt><trkpt lat="43.460956577109954" lon="10.562296392316036"><ele>207.0</ele><time>2026-03-24T08:46:27.999Z</time></trkpt><trkpt lat="43.46104514314594" lon="10.562240050093125"><ele>207.0</ele><time>2026-03-24T08:46:28.999Z</time></trkpt><trkpt lat="43.46114067371109" lon="10.562181640794115"><ele>207.0</ele><time>2026-03-24T08:46:29.999Z</time></trkpt><trkpt lat="43.46122644791521" lon="10.56212777756961"><ele>207.0</ele><time>2026-03-24T08:46:30.999Z</time></trkpt><trkpt lat="43.461313111162" lon="10.562076223866308"><ele>207.0</ele><time>2026-03-24T08:46:31.999Z</time></trkpt><trkpt lat="43.461404895163305" lon="10.562085977311563"><ele>207.0</ele><time>2026-03-24T08:46:32.999Z</time></trkpt><trkpt lat="43.4614840723267" lon="10.562116913176919"><ele>207.0</ele><time>2026-03-24T08:46:33.999Z</time></trkpt><trkpt lat="43.46156811712788" lon="10.562162446587424"><ele>207.8</ele><time>2026-03-24T08:46:34.999Z</time></trkpt><trkpt lat="43.461632188153516" lon="10.562224030720747"><ele>208.6</ele><time>2026-03-24T08:46:35.999Z</time></trkpt><trkpt lat="43.461695937023585" lon="10.562213758062247"><ele>209.4</ele><time>2026-03-24T08:46:36.999Z</time></trkpt><trkpt lat="43.46176181500247" lon="10.56216083735687"><ele>210.20000000000002</ele><time>2026-03-24T08:46:37.999Z</time></trkpt><trkpt lat="43.46179474245592" lon="10.562007918180637"><ele>211.0</ele><time>2026-03-24T08:46:38.999Z</time></trkpt><trkpt lat="43.461746894048794" lon="10.561811219765415"><ele>208.0</ele><time>2026-03-24T08:46:39.999Z</time></trkpt><trkpt lat="43.46169217703754" lon="10.56161749452974"><ele>205.0</ele><time>2026-03-24T08:46:40.999Z</time></trkpt><trkpt lat="43.46163410515302" lon="10.56140309442925"><ele>202.0</ele><time>2026-03-24T08:46:41.999Z</time></trkpt><trkpt lat="43.46159762994463" lon="10.561216285127339"><ele>199.5</ele><time>2026-03-24T08:46:42.999Z</time></trkpt><trkpt lat="43.46159790154623" lon="10.561038933663504"><ele>197.0</ele><time>2026-03-24T08:46:43.999Z</time></trkpt><trkpt lat="43.46164691348742" lon="10.560870862729084"><ele>194.5</ele><time>2026-03-24T08:46:44.999Z</time></trkpt><trkpt lat="43.46173528057814" lon="10.560716107332496"><ele>192.0</ele><time>2026-03-24T08:46:45.999Z</time></trkpt><trkpt lat="43.46187152178503" lon="10.56060697206101"><ele>192.0</ele><time>2026-03-24T08:46:46.999Z</time></trkpt><trkpt lat="43.46204132142755" lon="10.560476777688981"><ele>192.0</ele><time>2026-03-24T08:46:47.999Z</time></trkpt><trkpt lat="43.46218266194424" lon="10.56031479059201"><ele>192.0</ele><time>2026-03-24T08:46:48.999Z</time></trkpt><trkpt lat="43.46230025475398" lon="10.560105754305223"><ele>194.0</ele><time>2026-03-24T08:46:49.999Z</time></trkpt><trkpt lat="43.462412287939564" lon="10.559843205139348"><ele>196.0</ele><time>2026-03-24T08:46:50.999Z</time></trkpt><trkpt lat="43.462544726757706" lon="10.559614077011698"><ele>198.0</ele><time>2026-03-24T08:46:51.999Z</time></trkpt><trkpt lat="43.46265952460253" lon="10.559416818974842"><ele>198.33333333333331</ele><time>2026-03-24T08:46:52.999Z</time></trkpt><trkpt lat="43.46278617505379" lon="10.559265350148697"><ele>198.66666666666666</ele><time>2026-03-24T08:46:53.999Z</time></trkpt><trkpt lat="43.46292197294542" lon="10.559127193753552"><ele>199.0</ele><time>2026-03-24T08:46:54.999Z</time></trkpt><trkpt lat="43.4630356504594" lon="10.558987546044857"><ele>199.0</ele><time>2026-03-24T08:46:55.999Z</time></trkpt><trkpt lat="43.46310983106626" lon="10.558798103789401"><ele>199.0</ele><time>2026-03-24T08:46:56.999Z</time></trkpt><trkpt lat="43.463167329439095" lon="10.558587328173836"><ele>199.0</ele><time>2026-03-24T08:46:57.999Z</time></trkpt><trkpt lat="43.46319813001215" lon="10.558388477837594"><ele>194.25</ele><time>2026-03-24T08:46:58.999Z</time></trkpt><trkpt lat="43.463250272594976" lon="10.55823365361494"><ele>189.5</ele><time>2026-03-24T08:46:59.999Z</time></trkpt><trkpt lat="43.463310605150326" lon="10.558087096970603"><ele>184.75</ele><time>2026-03-24T08:47:00.999Z</time></trkpt><trkpt lat="43.46343073480537" lon="10.558020776130304"><ele>180.0</ele><time>2026-03-24T08:47:01.999Z</time></trkpt><trkpt lat="43.46358265730422" lon="10.558049661989392"><ele>180.0</ele><time>2026-03-24T08:47:02.999Z</time></trkpt><trkpt lat="43.463774460099586" lon="10.558114740857"><ele>180.0</ele><time>2026-03-24T08:47:03.999Z</time></trkpt><trkpt lat="43.463934506109474" lon="10.558183370757547"><ele>180.0</ele><time>2026-03-24T08:47:04.999Z</time></trkpt><trkpt lat="43.46412405423442" lon="10.558282393529378"><ele>180.0</ele><time>2026-03-24T08:47:05.999Z</time></trkpt><trkpt lat="43.46424899184208" lon="10.558444977179176"><ele>180.0</ele><time>2026-03-24T08:47:06.999Z</time></trkpt><trkpt lat="43.46438323536051" lon="10.558597486049164"><ele>180.0</ele><time>2026-03-24T08:47:07.999Z</time></trkpt><trkpt lat="43.464501742865785" lon="10.558682444212717"><ele>178.25</ele><time>2026-03-24T08:47:08.999Z</time></trkpt><trkpt lat="43.46459151262965" lon="10.558701376887063"><ele>176.5</ele><time>2026-03-24T08:47:09.999Z</time></trkpt><trkpt lat="43.464739308218704" lon="10.558604034864347"><ele>174.75</ele><time>2026-03-24T08:47:10.999Z</time></trkpt><trkpt lat="43.46490701837101" lon="10.558516220562229"><ele>173.0</ele><time>2026-03-24T08:47:11.999Z</time></trkpt><trkpt lat="43.4650510982994" lon="10.558422987744926"><ele>173.0</ele><time>2026-03-24T08:47:12.999Z</time></trkpt><trkpt lat="43.465204127914504" lon="10.55837968498202"><ele>173.0</ele><time>2026-03-24T08:47:13.999Z</time></trkpt><trkpt lat="43.465308804818015" lon="10.558396732189538"><ele>173.0</ele><time>2026-03-24T08:47:14.999Z</time></trkpt><trkpt lat="43.465414957552866" lon="10.558488171632288"><ele>173.0</ele><time>2026-03-24T08:47:15.999Z</time></trkpt><trkpt lat="43.465467748731996" lon="10.558632118153664"><ele>172.66666666666666</ele><time>2026-03-24T08:47:16.999Z</time></trkpt><trkpt lat="43.46551185217627" lon="10.55880776086316"><ele>172.33333333333334</ele><time>2026-03-24T08:47:17.999Z</time></trkpt><trkpt lat="43.46557711883778" lon="10.559043829926015"><ele>172.0</ele><time>2026-03-24T08:47:18.999Z</time></trkpt><trkpt lat="43.465717442849375" lon="10.559302836787495"><ele>172.0</ele><time>2026-03-24T08:47:19.999Z</time></trkpt><trkpt lat="43.46585796774599" lon="10.559525249403606"><ele>172.0</ele><time>2026-03-24T08:47:20.999Z</time></trkpt><trkpt lat="43.46600229345674" lon="10.559716507355887"><ele>172.0</ele><time>2026-03-24T08:47:21.999Z</time></trkpt><trkpt lat="43.46616852922052" lon="10.559858260275048"><ele>172.0</ele><time>2026-03-24T08:47:22.999Z</time></trkpt><trkpt lat="43.46636497811549" lon="10.559948447249136"><ele>172.0</ele><time>2026-03-24T08:47:23.999Z</time></trkpt><trkpt lat="43.46656150758419" lon="10.56007922696511"><ele>172.0</ele><time>2026-03-24T08:47:24.999Z</time></trkpt><trkpt lat="43.46675815833923" lon="10.56018257992748"><ele>172.0</ele><time>2026-03-24T08:47:25.999Z</time></trkpt><trkpt lat="43.466901344285716" lon="10.560220420451218"><ele>172.0</ele><time>2026-03-24T08:47:26.999Z</time></trkpt><trkpt lat="43.46694986807327" lon="10.560065063277749"><ele>172.0</ele><time>2026-03-24T08:47:28.999Z</time></trkpt><trkpt lat="43.46694608066348" lon="10.559937482601322"><ele>172.0</ele><time>2026-03-24T08:47:29.999Z</time></trkpt><trkpt lat="43.46696487199932" lon="10.55980442139058"><ele>172.0</ele><time>2026-03-24T08:47:30.999Z</time></trkpt><trkpt lat="43.466939452703606" lon="10.559685942279913"><ele>172.0</ele><time>2026-03-24T08:47:31.999Z</time></trkpt><trkpt lat="43.466806014814615" lon="10.559610313263088"><ele>172.0</ele><time>2026-03-24T08:47:32.999Z</time></trkpt><trkpt lat="43.4666802560344" lon="10.559525806450257"><ele>172.0</ele><time>2026-03-24T08:47:33.999Z</time></trkpt><trkpt lat="43.46649745852283" lon="10.55934032182527"><ele>173.25</ele><time>2026-03-24T08:47:34.999Z</time></trkpt><trkpt lat="43.466380029918646" lon="10.559199126108965"><ele>174.5</ele><time>2026-03-24T08:47:35.999Z</time></trkpt><trkpt lat="43.4663154892327" lon="10.559033347547716"><ele>175.75</ele><time>2026-03-24T08:47:36.999Z</time></trkpt><trkpt lat="43.466283305537544" lon="10.558870002472107"><ele>177.0</ele><time>2026-03-24T08:47:37.999Z</time></trkpt><trkpt lat="43.46627645097302" lon="10.558667713870804"><ele>175.33333333333334</ele><time>2026-03-24T08:47:38.999Z</time></trkpt><trkpt lat="43.46627766876025" lon="10.558375490829645"><ele>173.66666666666669</ele><time>2026-03-24T08:47:39.999Z</time></trkpt><trkpt lat="43.466289811204106" lon="10.558148197437282"><ele>172.0</ele><time>2026-03-24T08:47:40.999Z</time></trkpt><trkpt lat="43.466330655375074" lon="10.557954721129756"><ele>167.5</ele><time>2026-03-24T08:47:41.999Z</time></trkpt><trkpt lat="43.46639552685783" lon="10.557828658181597"><ele>163.0</ele><time>2026-03-24T08:47:42.999Z</time></trkpt><trkpt lat="43.46647027245093" lon="10.557731928576837"><ele>158.5</ele><time>2026-03-24T08:47:43.999Z</time></trkpt><trkpt lat="43.4665953921512" lon="10.55771359723535"><ele>154.0</ele><time>2026-03-24T08:47:44.999Z</time></trkpt><trkpt lat="43.46675861030357" lon="10.55770867883653"><ele>154.0</ele><time>2026-03-24T08:47:45.999Z</time></trkpt><trkpt lat="43.46693122099464" lon="10.557661627056307"><ele>154.0</ele><time>2026-03-24T08:47:46.999Z</time></trkpt><trkpt lat="43.467059359086655" lon="10.55754502667151"><ele>154.0</ele><time>2026-03-24T08:47:47.999Z</time></trkpt><trkpt lat="43.46718266516785" lon="10.557322994324132"><ele>155.33333333333334</ele><time>2026-03-24T08:47:48.999Z</time></trkpt><trkpt lat="43.46730992131762" lon="10.557068932295678"><ele>156.66666666666666</ele><time>2026-03-24T08:47:49.999Z</time></trkpt><trkpt lat="43.467430034629146" lon="10.556857229438744"><ele>158.0</ele><time>2026-03-24T08:47:50.999Z</time></trkpt><trkpt lat="43.46752333743769" lon="10.55669586275141"><ele>158.0</ele><time>2026-03-24T08:47:51.999Z</time></trkpt><trkpt lat="43.46760782124169" lon="10.556575356794697"><ele>158.0</ele><time>2026-03-24T08:47:52.999Z</time></trkpt><trkpt lat="43.46771212944155" lon="10.556502299962643"><ele>158.0</ele><time>2026-03-24T08:47:53.999Z</time></trkpt><trkpt lat="43.46782195347847" lon="10.55652501736846"><ele>158.0</ele><time>2026-03-24T08:47:54.999Z</time></trkpt><trkpt lat="43.467893321961455" lon="10.556614596143957"><ele>158.0</ele><time>2026-03-24T08:47:55.999Z</time></trkpt><trkpt lat="43.46794207775557" lon="10.556734869511127"><ele>157.66666666666666</ele><time>2026-03-24T08:47:56.999Z</time></trkpt><trkpt lat="43.468000010393986" lon="10.55690731992671"><ele>157.33333333333334</ele><time>2026-03-24T08:47:57.999Z</time></trkpt><trkpt lat="43.46808100990887" lon="10.557098790198538"><ele>157.0</ele><time>2026-03-24T08:47:58.999Z</time></trkpt><trkpt lat="43.468182382701116" lon="10.557257331937272"><ele>160.5</ele><time>2026-03-24T08:47:59.999Z</time></trkpt><trkpt lat="43.46830995400036" lon="10.557353672210434"><ele>164.0</ele><time>2026-03-24T08:48:00.999Z</time></trkpt><trkpt lat="43.46845187865546" lon="10.557403059187154"><ele>167.5</ele><time>2026-03-24T08:48:01.999Z</time></trkpt><trkpt lat="43.4685706903374" lon="10.55741320404216"><ele>171.0</ele><time>2026-03-24T08:48:02.999Z</time></trkpt><trkpt lat="43.46867326469705" lon="10.557365017134613"><ele>171.0</ele><time>2026-03-24T08:48:03.999Z</time></trkpt><trkpt lat="43.46876640520152" lon="10.557275800254326"><ele>171.0</ele><time>2026-03-24T08:48:04.999Z</time></trkpt><trkpt lat="43.468873150455245" lon="10.557223105323354"><ele>171.0</ele><time>2026-03-24T08:48:05.999Z</time></trkpt><trkpt lat="43.46896813720437" lon="10.557225662085838"><ele>171.0</ele><time>2026-03-24T08:48:06.999Z</time></trkpt><trkpt lat="43.46907454312503" lon="10.557292944081963"><ele>171.0</ele><time>2026-03-24T08:48:07.999Z</time></trkpt><trkpt lat="43.469205068891625" lon="10.557394683058435"><ele>170.66666666666666</ele><time>2026-03-24T08:48:08.999Z</time></trkpt><trkpt lat="43.46936237470068" lon="10.55751262509246"><ele>170.33333333333331</ele><time>2026-03-24T08:48:09.999Z</time></trkpt><trkpt lat="43.46953262948909" lon="10.557635909793678"><ele>170.0</ele><time>2026-03-24T08:48:10.999Z</time></trkpt><trkpt lat="43.46963894081352" lon="10.557799498663117"><ele>171.75</ele><time>2026-03-24T08:48:11.999Z</time></trkpt><trkpt lat="43.46971585058687" lon="10.55794837357093"><ele>173.5</ele><time>2026-03-24T08:48:12.999Z</time></trkpt><trkpt lat="43.469775484782744" lon="10.55808400311336"><ele>175.25</ele><time>2026-03-24T08:48:13.999Z</time></trkpt><trkpt lat="43.46983460425962" lon="10.558221460906065"><ele>177.0</ele><time>2026-03-24T08:48:14.999Z</time></trkpt><trkpt lat="43.46988500154291" lon="10.558372251820256"><ele>177.0</ele><time>2026-03-24T08:48:15.999Z</time></trkpt><trkpt lat="43.46994115240965" lon="10.55854932388345"><ele>177.0</ele><time>2026-03-24T08:48:16.999Z</time></trkpt><trkpt lat="43.47000219219615" lon="10.55877642657218"><ele>177.0</ele><time>2026-03-24T08:48:17.999Z</time></trkpt><trkpt lat="43.47005239734807" lon="10.559040941689414"><ele>179.5</ele><time>2026-03-24T08:48:18.999Z</time></trkpt><trkpt lat="43.47007503891353" lon="10.559263391481046"><ele>182.0</ele><time>2026-03-24T08:48:19.999Z</time></trkpt><trkpt lat="43.47008769814461" lon="10.55944397654861"><ele>184.5</ele><time>2026-03-24T08:48:20.999Z</time></trkpt><trkpt lat="43.47009481096613" lon="10.559610861731"><ele>187.0</ele><time>2026-03-24T08:48:21.999Z</time></trkpt><trkpt lat="43.47009299516505" lon="10.559777149383788"><ele>187.2</ele><time>2026-03-24T08:48:22.999Z</time></trkpt><trkpt lat="43.47008555267281" lon="10.559939504667861"><ele>187.39999999999998</ele><time>2026-03-24T08:48:23.999Z</time></trkpt><trkpt lat="43.47007083913107" lon="10.560114756519674"><ele>187.60000000000002</ele><time>2026-03-24T08:48:24.999Z</time></trkpt><trkpt lat="43.47004654215938" lon="10.560270254322973"><ele>187.8</ele><time>2026-03-24T08:48:25.999Z</time></trkpt><trkpt lat="43.47002115966307" lon="10.560381667806407"><ele>188.0</ele><time>2026-03-24T08:48:26.999Z</time></trkpt><trkpt lat="43.47000448171395" lon="10.560491900276952"><ele>188.0</ele><time>2026-03-24T08:48:27.999Z</time></trkpt><trkpt lat="43.469988837365854" lon="10.5606192431167"><ele>188.0</ele><time>2026-03-24T08:48:28.999Z</time></trkpt><trkpt lat="43.46998535250773" lon="10.56076818713983"><ele>188.0</ele><time>2026-03-24T08:48:29.999Z</time></trkpt><trkpt lat="43.469995307065325" lon="10.560935120323409"><ele>188.0</ele><time>2026-03-24T08:48:30.999Z</time></trkpt><trkpt lat="43.470030193064304" lon="10.56111965059543"><ele>186.25</ele><time>2026-03-24T08:48:31.999Z</time></trkpt><trkpt lat="43.47009263250816" lon="10.561297233747181"><ele>184.5</ele><time>2026-03-24T08:48:32.999Z</time></trkpt><trkpt lat="43.470154231161025" lon="10.561435279659936"><ele>182.75</ele><time>2026-03-24T08:48:33.999Z</time></trkpt><trkpt lat="43.47021804502149" lon="10.561576383321068"><ele>181.0</ele><time>2026-03-24T08:48:34.999Z</time></trkpt><trkpt lat="43.47027540706289" lon="10.561716304301214"><ele>181.0</ele><time>2026-03-24T08:48:35.999Z</time></trkpt><trkpt lat="43.47032794888252" lon="10.561840674550206"><ele>181.0</ele><time>2026-03-24T08:48:36.999Z</time></trkpt><trkpt lat="43.470386455411735" lon="10.561948714643403"><ele>181.0</ele><time>2026-03-24T08:48:37.999Z</time></trkpt><trkpt lat="43.47045338369145" lon="10.56206511113257"><ele>181.0</ele><time>2026-03-24T08:48:38.999Z</time></trkpt><trkpt lat="43.47052946278008" lon="10.562187971383239"><ele>181.0</ele><time>2026-03-24T08:48:39.999Z</time></trkpt><trkpt lat="43.4706189792339" lon="10.562313565861956"><ele>182.5</ele><time>2026-03-24T08:48:40.999Z</time></trkpt><trkpt lat="43.47072616057031" lon="10.562422529896192"><ele>184.0</ele><time>2026-03-24T08:48:41.999Z</time></trkpt><trkpt lat="43.47082631784587" lon="10.5625097476353"><ele>185.5</ele><time>2026-03-24T08:48:42.999Z</time></trkpt><trkpt lat="43.4709183867998" lon="10.562582217798017"><ele>187.0</ele><time>2026-03-24T08:48:43.999Z</time></trkpt><trkpt lat="43.47100291741591" lon="10.562669698504957"><ele>187.0</ele><time>2026-03-24T08:48:44.999Z</time></trkpt><trkpt lat="43.471095608292806" lon="10.562778220355861"><ele>187.0</ele><time>2026-03-24T08:48:45.999Z</time></trkpt><trkpt lat="43.471184013468935" lon="10.562905743786509"><ele>187.0</ele><time>2026-03-24T08:48:46.999Z</time></trkpt><trkpt lat="43.47125054440268" lon="10.56300966923907"><ele>187.0</ele><time>2026-03-24T08:48:47.999Z</time></trkpt><trkpt lat="43.47130418181685" lon="10.563100405831529"><ele>187.0</ele><time>2026-03-24T08:48:48.999Z</time></trkpt><trkpt lat="43.471349295283986" lon="10.563173884377829"><ele>188.2</ele><time>2026-03-24T08:48:49.999Z</time></trkpt><trkpt lat="43.471427970489756" lon="10.563279578662828"><ele>189.39999999999998</ele><time>2026-03-24T08:48:51.999Z</time></trkpt><trkpt lat="43.471494158031796" lon="10.563376416577267"><ele>190.60000000000002</ele><time>2026-03-24T08:49:00.999Z</time></trkpt><trkpt lat="43.47155811503683" lon="10.56346669031236"><ele>191.8</ele><time>2026-03-24T08:49:01.999Z</time></trkpt><trkpt lat="43.471629780090794" lon="10.563618181775835"><ele>193.0</ele><time>2026-03-24T08:49:02.999Z</time></trkpt><trkpt lat="43.47168546545556" lon="10.563814786236572"><ele>193.0</ele><time>2026-03-24T08:49:03.999Z</time></trkpt><trkpt lat="43.47173105678964" lon="10.56403798829777"><ele>193.0</ele><time>2026-03-24T08:49:04.999Z</time></trkpt><trkpt lat="43.47178647144015" lon="10.56427113867297"><ele>193.0</ele><time>2026-03-24T08:49:05.999Z</time></trkpt><trkpt lat="43.47185021391057" lon="10.564476725728392"><ele>192.25</ele><time>2026-03-24T08:49:06.999Z</time></trkpt><trkpt lat="43.471910841590294" lon="10.564648493373296"><ele>191.5</ele><time>2026-03-24T08:49:07.999Z</time></trkpt><trkpt lat="43.47199039455359" lon="10.564801157962167"><ele>190.75</ele><time>2026-03-24T08:49:08.999Z</time></trkpt><trkpt lat="43.472117884516834" lon="10.56491537304547"><ele>190.0</ele><time>2026-03-24T08:49:09.999Z</time></trkpt><trkpt lat="43.472244108779975" lon="10.56499695659716"><ele>191.8</ele><time>2026-03-24T08:49:10.999Z</time></trkpt><trkpt lat="43.47234814033551" lon="10.565067276543921"><ele>193.6</ele><time>2026-03-24T08:49:11.999Z</time></trkpt><trkpt lat="43.47243744911978" lon="10.565136876075599"><ele>195.39999999999998</ele><time>2026-03-24T08:49:12.999Z</time></trkpt><trkpt lat="43.472533776803104" lon="10.565175106774916"><ele>197.2</ele><time>2026-03-24T08:49:13.999Z</time></trkpt><trkpt lat="43.47264035347361" lon="10.565156496930506"><ele>199.0</ele><time>2026-03-24T08:49:14.999Z</time></trkpt><trkpt lat="43.472724334041665" lon="10.565118676792828"><ele>199.0</ele><time>2026-03-24T08:49:15.999Z</time></trkpt><trkpt lat="43.47281050065034" lon="10.565122510544802"><ele>199.0</ele><time>2026-03-24T08:49:16.999Z</time></trkpt><trkpt lat="43.47289745640092" lon="10.565188477111322"><ele>199.0</ele><time>2026-03-24T08:49:17.999Z</time></trkpt><trkpt lat="43.47298245280746" lon="10.565318205585871"><ele>199.0</ele><time>2026-03-24T08:49:18.999Z</time></trkpt><trkpt lat="43.47307714129495" lon="10.565482077516199"><ele>199.25</ele><time>2026-03-24T08:49:19.999Z</time></trkpt><trkpt lat="43.4731936642065" lon="10.56565270668771"><ele>199.5</ele><time>2026-03-24T08:49:20.999Z</time></trkpt><trkpt lat="43.47329677504148" lon="10.565787142922733"><ele>199.75</ele><time>2026-03-24T08:49:21.999Z</time></trkpt><trkpt lat="43.47339153811021" lon="10.56590638568855"><ele>200.0</ele><time>2026-03-24T08:49:22.999Z</time></trkpt><trkpt lat="43.47348807772805" lon="10.566018342116303"><ele>200.0</ele><time>2026-03-24T08:49:23.999Z</time></trkpt><trkpt lat="43.4735787879792" lon="10.566126854093548"><ele>200.0</ele><time>2026-03-24T08:49:24.999Z</time></trkpt><trkpt lat="43.47365092754042" lon="10.566267290455984"><ele>200.0</ele><time>2026-03-24T08:49:25.999Z</time></trkpt><trkpt lat="43.47369639342101" lon="10.566455757749926"><ele>200.0</ele><time>2026-03-24T08:49:26.999Z</time></trkpt><trkpt lat="43.47373376257663" lon="10.566654994635522"><ele>200.75</ele><time>2026-03-24T08:49:27.999Z</time></trkpt><trkpt lat="43.47378673390193" lon="10.566850082180647"><ele>201.5</ele><time>2026-03-24T08:49:28.999Z</time></trkpt><trkpt lat="43.47385688301434" lon="10.56701742199342"><ele>202.25</ele><time>2026-03-24T08:49:29.999Z</time></trkpt><trkpt lat="43.47392292839553" lon="10.567154915724396"><ele>203.0</ele><time>2026-03-24T08:49:30.999Z</time></trkpt><trkpt lat="43.474001191187355" lon="10.567246975093447"><ele>203.0</ele><time>2026-03-24T08:49:31.999Z</time></trkpt><trkpt lat="43.4740720352529" lon="10.5672850358646"><ele>203.0</ele><time>2026-03-24T08:49:32.999Z</time></trkpt><trkpt lat="43.474148096013494" lon="10.56725220691683"><ele>203.0</ele><time>2026-03-24T08:49:33.999Z</time></trkpt><trkpt lat="43.47420654753156" lon="10.567144158438325"><ele>203.0</ele><time>2026-03-24T08:49:34.999Z</time></trkpt><trkpt lat="43.47420052729327" lon="10.566999239893386"><ele>203.0</ele><time>2026-03-24T08:49:35.999Z</time></trkpt><trkpt lat="43.47415627120581" lon="10.56684512042832"><ele>203.0</ele><time>2026-03-24T08:49:36.999Z</time></trkpt><trkpt lat="43.4741126690816" lon="10.566671527498402"><ele>203.0</ele><time>2026-03-24T08:49:37.999Z</time></trkpt><trkpt lat="43.47411667672648" lon="10.56647151630202"><ele>203.0</ele><time>2026-03-24T08:49:38.999Z</time></trkpt><trkpt lat="43.47415359663556" lon="10.56627808610287"><ele>203.0</ele><time>2026-03-24T08:49:39.999Z</time></trkpt><trkpt lat="43.474209711943004" lon="10.566116894847207"><ele>200.0</ele><time>2026-03-24T08:49:40.999Z</time></trkpt><trkpt lat="43.474291568626604" lon="10.566010622334309"><ele>197.0</ele><time>2026-03-24T08:49:41.999Z</time></trkpt><trkpt lat="43.47439819874939" lon="10.565954011340283"><ele>194.0</ele><time>2026-03-24T08:49:42.999Z</time></trkpt><trkpt lat="43.4745505326006" lon="10.565926205678494"><ele>191.0</ele><time>2026-03-24T08:49:43.999Z</time></trkpt><trkpt lat="43.474735424551426" lon="10.565848830474865"><ele>191.0</ele><time>2026-03-24T08:49:44.999Z</time></trkpt><trkpt lat="43.47491883641855" lon="10.565733774360163"><ele>191.0</ele><time>2026-03-24T08:49:45.999Z</time></trkpt><trkpt lat="43.475077589559675" lon="10.565616593654244"><ele>191.0</ele><time>2026-03-24T08:49:46.999Z</time></trkpt><trkpt lat="43.475222092511004" lon="10.565529995587363"><ele>191.0</ele><time>2026-03-24T08:49:47.999Z</time></trkpt><trkpt lat="43.47536505587741" lon="10.56546189691399"><ele>191.0</ele><time>2026-03-24T08:49:48.999Z</time></trkpt><trkpt lat="43.47552249622385" lon="10.565452474287472"><ele>191.0</ele><time>2026-03-24T08:49:49.999Z</time></trkpt><trkpt lat="43.47569828895293" lon="10.56543419195814"><ele>192.33333333333331</ele><time>2026-03-24T08:49:50.999Z</time></trkpt><trkpt lat="43.4758847940239" lon="10.565388182816152"><ele>193.66666666666666</ele><time>2026-03-24T08:49:51.999Z</time></trkpt><trkpt lat="43.47606320059051" lon="10.565256333909236"><ele>195.0</ele><time>2026-03-24T08:49:52.999Z</time></trkpt><trkpt lat="43.47621295205052" lon="10.565111349911287"><ele>194.0</ele><time>2026-03-24T08:49:53.999Z</time></trkpt><trkpt lat="43.47632186689992" lon="10.564960984727733"><ele>193.0</ele><time>2026-03-24T08:49:54.999Z</time></trkpt><trkpt lat="43.476409530779996" lon="10.564809243784746"><ele>192.0</ele><time>2026-03-24T08:49:55.999Z</time></trkpt><trkpt lat="43.47647207471007" lon="10.564661121408417"><ele>191.0</ele><time>2026-03-24T08:49:56.999Z</time></trkpt><trkpt lat="43.47653135196906" lon="10.564538413530125"><ele>188.33333333333331</ele><time>2026-03-24T08:49:57.999Z</time></trkpt><trkpt lat="43.47659491700011" lon="10.564457465749857"><ele>185.66666666666666</ele><time>2026-03-24T08:49:58.999Z</time></trkpt><trkpt lat="43.47666142589911" lon="10.564408418770599"><ele>183.0</ele><time>2026-03-24T08:50:00.999Z</time></trkpt><trkpt lat="43.476625896003185" lon="10.564320190835446"><ele>180.33333333333334</ele><time>2026-03-24T08:54:10.999Z</time></trkpt><trkpt lat="43.4766285630371" lon="10.5644174398682"><ele>177.66666666666669</ele><time>2026-03-24T08:56:29.998Z</time></trkpt><trkpt lat="43.47673098322875" lon="10.564304116823303"><ele>175.0</ele><time>2026-03-24T08:57:43.999Z</time></trkpt><trkpt lat="43.476817837367065" lon="10.564243094931918"><ele>175.0</ele><time>2026-03-24T08:57:44.999Z</time></trkpt><trkpt lat="43.47692997501887" lon="10.564199272803249"><ele>175.0</ele><time>2026-03-24T08:57:45.999Z</time></trkpt><trkpt lat="43.47704765982961" lon="10.564208392619175"><ele>175.0</ele><time>2026-03-24T08:57:46.999Z</time></trkpt><trkpt lat="43.477172405273826" lon="10.564252859015559"><ele>175.0</ele><time>2026-03-24T08:57:47.999Z</time></trkpt><trkpt lat="43.47730326645644" lon="10.564257884603728"><ele>175.0</ele><time>2026-03-24T08:57:48.999Z</time></trkpt><trkpt lat="43.47741459808598" lon="10.564190556829713"><ele>175.0</ele><time>2026-03-24T08:57:49.999Z</time></trkpt><trkpt lat="43.47751144613371" lon="10.564072606627697"><ele>175.0</ele><time>2026-03-24T08:57:50.999Z</time></trkpt><trkpt lat="43.47759658084191" lon="10.563883798855402"><ele>175.0</ele><time>2026-03-24T08:57:51.999Z</time></trkpt><trkpt lat="43.477681206217" lon="10.563617913950596"><ele>175.0</ele><time>2026-03-24T08:57:52.999Z</time></trkpt><trkpt lat="43.47778122966594" lon="10.563395269481752"><ele>175.0</ele><time>2026-03-24T08:57:53.999Z</time></trkpt><trkpt lat="43.47791566487301" lon="10.563164509631504"><ele>175.0</ele><time>2026-03-24T08:57:54.999Z</time></trkpt><trkpt lat="43.478043750463875" lon="10.562940477262234"><ele>178.0</ele><time>2026-03-24T08:57:55.999Z</time></trkpt><trkpt lat="43.47815758818177" lon="10.562741961894885"><ele>181.0</ele><time>2026-03-24T08:57:56.999Z</time></trkpt><trkpt lat="43.47825585621961" lon="10.562563758882195"><ele>184.0</ele><time>2026-03-24T08:57:57.999Z</time></trkpt><trkpt lat="43.478356060910265" lon="10.562405358175598"><ele>184.0</ele><time>2026-03-24T08:57:58.999Z</time></trkpt><trkpt lat="43.478457276551445" lon="10.562306342918774"><ele>184.0</ele><time>2026-03-24T08:57:59.999Z</time></trkpt><trkpt lat="43.47856684295396" lon="10.56228464153459"><ele>184.0</ele><time>2026-03-24T08:58:00.999Z</time></trkpt><trkpt lat="43.47872459043537" lon="10.562324093166199"><ele>184.0</ele><time>2026-03-24T08:58:01.999Z</time></trkpt><trkpt lat="43.47891152847974" lon="10.562375899369743"><ele>185.0</ele><time>2026-03-24T08:58:02.999Z</time></trkpt><trkpt lat="43.47911467781462" lon="10.56242498113183"><ele>186.0</ele><time>2026-03-24T08:58:03.999Z</time></trkpt><trkpt lat="43.4793157874079" lon="10.562439797546151"><ele>187.0</ele><time>2026-03-24T08:58:04.999Z</time></trkpt><trkpt lat="43.479544284646565" lon="10.562451479897248"><ele>188.0</ele><time>2026-03-24T08:58:05.999Z</time></trkpt><trkpt lat="43.47976555246091" lon="10.562428857773602"><ele>189.0</ele><time>2026-03-24T08:58:06.999Z</time></trkpt><trkpt lat="43.47994724002199" lon="10.56238021285524"><ele>190.0</ele><time>2026-03-24T08:58:07.999Z</time></trkpt><trkpt lat="43.480128774692844" lon="10.562262379795175"><ele>190.0</ele><time>2026-03-24T08:58:08.999Z</time></trkpt><trkpt lat="43.480314002898865" lon="10.562101060186432"><ele>190.0</ele><time>2026-03-24T08:58:09.999Z</time></trkpt><trkpt lat="43.48047889806115" lon="10.561982398450752"><ele>190.0</ele><time>2026-03-24T08:58:10.999Z</time></trkpt><trkpt lat="43.48064607244933" lon="10.56194841902592"><ele>185.33333333333334</ele><time>2026-03-24T08:58:11.999Z</time></trkpt><trkpt lat="43.48080678096586" lon="10.561939549222965"><ele>180.66666666666666</ele><time>2026-03-24T08:58:12.999Z</time></trkpt><trkpt lat="43.48100019624981" lon="10.561916802655977"><ele>176.0</ele><time>2026-03-24T08:58:13.999Z</time></trkpt><trkpt lat="43.48119154261043" lon="10.561863013956229"><ele>177.0</ele><time>2026-03-24T08:58:14.998Z</time></trkpt><trkpt lat="43.481368281113916" lon="10.561732146743811"><ele>178.0</ele><time>2026-03-24T08:58:15.998Z</time></trkpt><trkpt lat="43.48147548104016" lon="10.561585012147935"><ele>179.0</ele><time>2026-03-24T08:58:16.998Z</time></trkpt><trkpt lat="43.48158930731636" lon="10.56150046233518"><ele>179.0</ele><time>2026-03-24T08:58:17.998Z</time></trkpt><trkpt lat="43.4817293048599" lon="10.561450835193606"><ele>179.0</ele><time>2026-03-24T08:58:18.998Z</time></trkpt><trkpt lat="43.48182941768953" lon="10.561499487983408"><ele>179.0</ele><time>2026-03-24T08:58:19.998Z</time></trkpt><trkpt lat="43.48189901167745" lon="10.561587832170106"><ele>179.0</ele><time>2026-03-24T08:58:20.998Z</time></trkpt><trkpt lat="43.48199660596564" lon="10.561724804778887"><ele>179.0</ele><time>2026-03-24T08:58:21.998Z</time></trkpt><trkpt lat="43.48209209919669" lon="10.561895111571292"><ele>179.0</ele><time>2026-03-24T08:58:22.998Z</time></trkpt><trkpt lat="43.48223113211681" lon="10.5620382459672"><ele>179.0</ele><time>2026-03-24T08:58:23.998Z</time></trkpt><trkpt lat="43.482398596378594" lon="10.56207941984825"><ele>180.66666666666666</ele><time>2026-03-24T08:58:24.999Z</time></trkpt><trkpt lat="43.48260082081452" lon="10.562070257313133"><ele>182.33333333333334</ele><time>2026-03-24T08:58:25.999Z</time></trkpt><trkpt lat="43.48281886263375" lon="10.56208122013087"><ele>184.0</ele><time>2026-03-24T08:58:26.999Z</time></trkpt><trkpt lat="43.48303724804461" lon="10.562159520629317"><ele>184.0</ele><time>2026-03-24T08:58:27.999Z</time></trkpt><trkpt lat="43.483237631807334" lon="10.562257130288327"><ele>184.0</ele><time>2026-03-24T08:58:28.999Z</time></trkpt><trkpt lat="43.48337472084713" lon="10.562332159013797"><ele>184.0</ele><time>2026-03-24T08:58:29.999Z</time></trkpt><trkpt lat="43.483529743036115" lon="10.56244672314496"><ele>184.0</ele><time>2026-03-24T08:58:30.999Z</time></trkpt><trkpt lat="43.48368647116731" lon="10.562574104215244"><ele>184.0</ele><time>2026-03-24T08:58:31.999Z</time></trkpt><trkpt lat="43.4838211730611" lon="10.562708916713433"><ele>184.0</ele><time>2026-03-24T08:58:32.999Z</time></trkpt><trkpt lat="43.483960102930794" lon="10.562902681043484"><ele>184.0</ele><time>2026-03-24T08:58:33.999Z</time></trkpt><trkpt lat="43.48410041010877" lon="10.56303997293862"><ele>184.0</ele><time>2026-03-24T08:58:34.999Z</time></trkpt><trkpt lat="43.484243130728494" lon="10.563134420501289"><ele>184.0</ele><time>2026-03-24T08:58:35.999Z</time></trkpt><trkpt lat="43.48433635840906" lon="10.563127830738388"><ele>184.0</ele><time>2026-03-24T08:58:36.999Z</time></trkpt><trkpt lat="43.484430575356264" lon="10.562934989758968"><ele>183.5</ele><time>2026-03-24T08:58:38.999Z</time></trkpt><trkpt lat="43.48450505480281" lon="10.562758175763253"><ele>183.0</ele><time>2026-03-24T08:58:39.999Z</time></trkpt><trkpt lat="43.4845970777747" lon="10.562616407726498"><ele>182.5</ele><time>2026-03-24T08:58:40.999Z</time></trkpt><trkpt lat="43.48471506784546" lon="10.562473134688458"><ele>182.0</ele><time>2026-03-24T08:58:41.999Z</time></trkpt><trkpt lat="43.4848600366197" lon="10.562363524570728"><ele>182.0</ele><time>2026-03-24T08:58:42.999Z</time></trkpt><trkpt lat="43.48504947909755" lon="10.562268747344124"><ele>182.0</ele><time>2026-03-24T08:58:43.999Z</time></trkpt><trkpt lat="43.48525390997143" lon="10.562172964585505"><ele>182.0</ele><time>2026-03-24T08:58:44.999Z</time></trkpt><trkpt lat="43.485444102397636" lon="10.562077865615606"><ele>178.0</ele><time>2026-03-24T08:58:45.999Z</time></trkpt><trkpt lat="43.4856144654651" lon="10.561998443183173"><ele>174.0</ele><time>2026-03-24T08:58:46.999Z</time></trkpt><trkpt lat="43.48576232212734" lon="10.561942677523886"><ele>170.0</ele><time>2026-03-24T08:58:47.999Z</time></trkpt><trkpt lat="43.48589594206004" lon="10.561997874491226"><ele>170.0</ele><time>2026-03-24T08:58:48.999Z</time></trkpt><trkpt lat="43.48600646491997" lon="10.562116995123999"><ele>170.0</ele><time>2026-03-24T08:58:49.999Z</time></trkpt><trkpt lat="43.486169665623095" lon="10.562250475152075"><ele>170.0</ele><time>2026-03-24T08:58:50.999Z</time></trkpt><trkpt lat="43.486346179271585" lon="10.562400054132105"><ele>170.0</ele><time>2026-03-24T08:58:51.999Z</time></trkpt><trkpt lat="43.48646430983465" lon="10.562499857207408"><ele>170.0</ele><time>2026-03-24T08:58:52.999Z</time></trkpt><trkpt lat="43.48654434813945" lon="10.56262279641691"><ele>170.0</ele><time>2026-03-24T08:58:53.999Z</time></trkpt><trkpt lat="43.4865823266842" lon="10.562796452536029"><ele>170.0</ele><time>2026-03-24T08:58:54.999Z</time></trkpt><trkpt lat="43.48662404264381" lon="10.563005897506741"><ele>172.75</ele><time>2026-03-24T08:58:55.999Z</time></trkpt><trkpt lat="43.48663489339803" lon="10.563177504301748"><ele>175.5</ele><time>2026-03-24T08:58:56.999Z</time></trkpt><trkpt lat="43.48668179493501" lon="10.563280571532179"><ele>178.25</ele><time>2026-03-24T08:58:57.999Z</time></trkpt><trkpt lat="43.48676453025506" lon="10.563352366120633"><ele>181.0</ele><time>2026-03-24T08:58:58.999Z</time></trkpt><trkpt lat="43.48691265005017" lon="10.563318722379039"><ele>181.0</ele><time>2026-03-24T08:58:59.999Z</time></trkpt><trkpt lat="43.48706506005239" lon="10.563306433095427"><ele>181.0</ele><time>2026-03-24T08:59:00.999Z</time></trkpt><trkpt lat="43.48722424223673" lon="10.563305173550473"><ele>181.0</ele><time>2026-03-24T08:59:01.999Z</time></trkpt><trkpt lat="43.487369602740266" lon="10.563271035550086"><ele>178.33333333333334</ele><time>2026-03-24T08:59:02.999Z</time></trkpt><trkpt lat="43.48749115837672" lon="10.563139577248068"><ele>175.66666666666666</ele><time>2026-03-24T08:59:03.999Z</time></trkpt><trkpt lat="43.48757797573441" lon="10.562944181083266"><ele>173.0</ele><time>2026-03-24T08:59:04.999Z</time></trkpt><trkpt lat="43.48766097666057" lon="10.562721795984281"><ele>174.0</ele><time>2026-03-24T08:59:05.999Z</time></trkpt><trkpt lat="43.48780037700424" lon="10.562520163436545"><ele>175.0</ele><time>2026-03-24T08:59:06.999Z</time></trkpt><trkpt lat="43.48793594287809" lon="10.562319060587104"><ele>176.0</ele><time>2026-03-24T08:59:07.999Z</time></trkpt><trkpt lat="43.48807892653837" lon="10.562117447759606"><ele>174.66666666666666</ele><time>2026-03-24T08:59:08.999Z</time></trkpt><trkpt lat="43.48822485583615" lon="10.56197923746778"><ele>173.33333333333334</ele><time>2026-03-24T08:59:09.999Z</time></trkpt><trkpt lat="43.488375455479606" lon="10.561825637603542"><ele>172.0</ele><time>2026-03-24T08:59:10.999Z</time></trkpt><trkpt lat="43.48850683618513" lon="10.561687785451094"><ele>172.0</ele><time>2026-03-24T08:59:11.999Z</time></trkpt><trkpt lat="43.48864167962805" lon="10.561599804024043"><ele>172.0</ele><time>2026-03-24T08:59:12.999Z</time></trkpt><trkpt lat="43.4887612050104" lon="10.561536781417093"><ele>172.0</ele><time>2026-03-24T08:59:13.999Z</time></trkpt><trkpt lat="43.48888748334972" lon="10.561522013836752"><ele>172.0</ele><time>2026-03-24T08:59:14.999Z</time></trkpt><trkpt lat="43.48900813235028" lon="10.561587909416117"><ele>172.33333333333334</ele><time>2026-03-24T08:59:15.999Z</time></trkpt><trkpt lat="43.48909583059313" lon="10.561735230539533"><ele>172.66666666666666</ele><time>2026-03-24T08:59:16.999Z</time></trkpt><trkpt lat="43.48917036712228" lon="10.561932877007779"><ele>173.0</ele><time>2026-03-24T08:59:17.999Z</time></trkpt><trkpt lat="43.48925852215026" lon="10.562145921532561"><ele>174.75</ele><time>2026-03-24T08:59:18.999Z</time></trkpt><trkpt lat="43.48935194843993" lon="10.562295468567921"><ele>176.5</ele><time>2026-03-24T08:59:19.999Z</time></trkpt><trkpt lat="43.4894490848684" lon="10.562365979522776"><ele>178.25</ele><time>2026-03-24T08:59:20.999Z</time></trkpt><trkpt lat="43.48955485536027" lon="10.562347812852066"><ele>180.0</ele><time>2026-03-24T08:59:21.999Z</time></trkpt><trkpt lat="43.48965764887976" lon="10.562255756949877"><ele>177.66666666666666</ele><time>2026-03-24T08:59:22.999Z</time></trkpt><trkpt lat="43.48974914175651" lon="10.562094035323543"><ele>175.33333333333331</ele><time>2026-03-24T08:59:23.999Z</time></trkpt><trkpt lat="43.48983902497225" lon="10.561893897505213"><ele>173.0</ele><time>2026-03-24T08:59:24.999Z</time></trkpt><trkpt lat="43.48997491951692" lon="10.561717024490727"><ele>173.0</ele><time>2026-03-24T08:59:25.999Z</time></trkpt><trkpt lat="43.490108033637526" lon="10.56162462892369"><ele>173.0</ele><time>2026-03-24T08:59:26.999Z</time></trkpt><trkpt lat="43.49025959987033" lon="10.561575799674513"><ele>173.0</ele><time>2026-03-24T08:59:27.999Z</time></trkpt><trkpt lat="43.490448766580364" lon="10.561566141276677"><ele>175.33333333333331</ele><time>2026-03-24T08:59:28.999Z</time></trkpt><trkpt lat="43.49062750775544" lon="10.56149844432341"><ele>177.66666666666666</ele><time>2026-03-24T08:59:29.999Z</time></trkpt><trkpt lat="43.4907690667392" lon="10.561393515092709"><ele>180.0</ele><time>2026-03-24T08:59:30.999Z</time></trkpt><trkpt lat="43.49088000461744" lon="10.561228925595682"><ele>174.0</ele><time>2026-03-24T08:59:31.999Z</time></trkpt><trkpt lat="43.490973194107134" lon="10.561008392906194"><ele>168.0</ele><time>2026-03-24T08:59:32.999Z</time></trkpt><trkpt lat="43.491076211278276" lon="10.560799754253392"><ele>162.0</ele><time>2026-03-24T08:59:33.999Z</time></trkpt><trkpt lat="43.49118507104745" lon="10.560644835734315"><ele>168.0</ele><time>2026-03-24T08:59:34.999Z</time></trkpt><trkpt lat="43.49131605698503" lon="10.560549537187072"><ele>174.0</ele><time>2026-03-24T08:59:35.999Z</time></trkpt><trkpt lat="43.49146361367056" lon="10.560463680106416"><ele>180.0</ele><time>2026-03-24T08:59:36.999Z</time></trkpt><trkpt lat="43.49160034048738" lon="10.560376971791891"><ele>174.75</ele><time>2026-03-24T08:59:37.999Z</time></trkpt><trkpt lat="43.49172210216283" lon="10.560305052453856"><ele>169.5</ele><time>2026-03-24T08:59:38.999Z</time></trkpt><trkpt lat="43.49183278704019" lon="10.560229501119839"><ele>164.25</ele><time>2026-03-24T08:59:39.999Z</time></trkpt><trkpt lat="43.491933513444216" lon="10.560126840879375"><ele>159.0</ele><time>2026-03-24T08:59:40.999Z</time></trkpt><trkpt lat="43.492029784089006" lon="10.559948698172494"><ele>159.0</ele><time>2026-03-24T08:59:41.999Z</time></trkpt><trkpt lat="43.49215239488894" lon="10.559753025607728"><ele>159.0</ele><time>2026-03-24T08:59:42.999Z</time></trkpt><trkpt lat="43.49227659025388" lon="10.559504427828431"><ele>159.0</ele><time>2026-03-24T08:59:43.999Z</time></trkpt><trkpt lat="43.49238784814704" lon="10.559265975056652"><ele>159.0</ele><time>2026-03-24T08:59:44.999Z</time></trkpt><trkpt lat="43.49250092378307" lon="10.559119133917328"><ele>159.0</ele><time>2026-03-24T08:59:45.999Z</time></trkpt><trkpt lat="43.49262242519484" lon="10.55902218310124"><ele>159.0</ele><time>2026-03-24T08:59:46.999Z</time></trkpt><trkpt lat="43.492779455633155" lon="10.55897674747448"><ele>159.33333333333334</ele><time>2026-03-24T08:59:47.999Z</time></trkpt><trkpt lat="43.492953462689655" lon="10.5590052744577"><ele>159.66666666666669</ele><time>2026-03-24T08:59:48.999Z</time></trkpt><trkpt lat="43.4931678016746" lon="10.559002655071207"><ele>160.0</ele><time>2026-03-24T08:59:49.999Z</time></trkpt><trkpt lat="43.49337726215606" lon="10.558998764944265"><ele>160.0</ele><time>2026-03-24T08:59:50.999Z</time></trkpt><trkpt lat="43.493562965118024" lon="10.558952706594471"><ele>160.0</ele><time>2026-03-24T08:59:51.999Z</time></trkpt><trkpt lat="43.49374352116456" lon="10.558994686216185"><ele>160.0</ele><time>2026-03-24T08:59:52.999Z</time></trkpt><trkpt lat="43.493948303427494" lon="10.559079282851402"><ele>159.33333333333334</ele><time>2026-03-24T08:59:53.999Z</time></trkpt><trkpt lat="43.49413446387921" lon="10.559189255337767"><ele>158.66666666666666</ele><time>2026-03-24T08:59:54.999Z</time></trkpt><trkpt lat="43.49431586564016" lon="10.559252222751683"><ele>158.0</ele><time>2026-03-24T08:59:55.999Z</time></trkpt><trkpt lat="43.4945000794701" lon="10.559230043488988"><ele>157.66666666666666</ele><time>2026-03-24T08:59:56.999Z</time></trkpt><trkpt lat="43.49469140364446" lon="10.559154057571206"><ele>157.33333333333334</ele><time>2026-03-24T08:59:57.999Z</time></trkpt><trkpt lat="43.49486191286639" lon="10.55906010807627"><ele>157.0</ele><time>2026-03-24T08:59:58.999Z</time></trkpt><trkpt lat="43.49501376016611" lon="10.558996097594447"><ele>157.0</ele><time>2026-03-24T08:59:59.999Z</time></trkpt><trkpt lat="43.49518183732624" lon="10.559023639365005"><ele>157.0</ele><time>2026-03-24T09:00:00.999Z</time></trkpt><trkpt lat="43.49536332583088" lon="10.559089318744366"><ele>157.0</ele><time>2026-03-24T09:00:01.999Z</time></trkpt><trkpt lat="43.495535109804486" lon="10.55912934473752"><ele>157.66666666666669</ele><time>2026-03-24T09:00:02.999Z</time></trkpt><trkpt lat="43.495701455506776" lon="10.55911051665259"><ele>158.33333333333334</ele><time>2026-03-24T09:00:03.999Z</time></trkpt><trkpt lat="43.495870283246795" lon="10.559006920998282"><ele>159.0</ele><time>2026-03-24T09:00:04.999Z</time></trkpt><trkpt lat="43.49601759265079" lon="10.558837486289141"><ele>155.33333333333334</ele><time>2026-03-24T09:00:05.999Z</time></trkpt><trkpt lat="43.49615190713933" lon="10.558637313494655"><ele>151.66666666666669</ele><time>2026-03-24T09:00:06.999Z</time></trkpt><trkpt lat="43.49628895139036" lon="10.558487760742718"><ele>148.0</ele><time>2026-03-24T09:00:07.999Z</time></trkpt><trkpt lat="43.49640127386091" lon="10.558380252771101"><ele>148.0</ele><time>2026-03-24T09:00:08.999Z</time></trkpt><trkpt lat="43.49653760725344" lon="10.558296316584515"><ele>148.0</ele><time>2026-03-24T09:00:09.999Z</time></trkpt><trkpt lat="43.49671247232907" lon="10.558234336146713"><ele>148.0</ele><time>2026-03-24T09:00:10.999Z</time></trkpt><trkpt lat="43.49688859934458" lon="10.558209930393428"><ele>148.0</ele><time>2026-03-24T09:00:11.999Z</time></trkpt><trkpt lat="43.497065210673554" lon="10.558165982720652"><ele>148.0</ele><time>2026-03-24T09:00:12.999Z</time></trkpt><trkpt lat="43.497275291065634" lon="10.558063820326229"><ele>148.0</ele><time>2026-03-24T09:00:13.999Z</time></trkpt><trkpt lat="43.49743034342196" lon="10.557959978739866"><ele>149.33333333333334</ele><time>2026-03-24T09:00:14.999Z</time></trkpt><trkpt lat="43.49761764163329" lon="10.557897646638184"><ele>150.66666666666666</ele><time>2026-03-24T09:00:15.999Z</time></trkpt><trkpt lat="43.49783202244562" lon="10.55787727736584"><ele>152.0</ele><time>2026-03-24T09:00:16.999Z</time></trkpt><trkpt lat="43.49805937189526" lon="10.557852059820025"><ele>151.66666666666666</ele><time>2026-03-24T09:00:17.999Z</time></trkpt><trkpt lat="43.498262244741355" lon="10.557844733654989"><ele>151.33333333333334</ele><time>2026-03-24T09:00:18.999Z</time></trkpt><trkpt lat="43.49844152111581" lon="10.557922455900071"><ele>151.0</ele><time>2026-03-24T09:00:19.999Z</time></trkpt><trkpt lat="43.49861182825765" lon="10.558030992402978"><ele>149.0</ele><time>2026-03-24T09:00:20.999Z</time></trkpt><trkpt lat="43.49876452291008" lon="10.5581576806357"><ele>147.0</ele><time>2026-03-24T09:00:21.999Z</time></trkpt><trkpt lat="43.498919506846235" lon="10.558241373401351"><ele>145.0</ele><time>2026-03-24T09:00:22.999Z</time></trkpt><trkpt lat="43.49909713430334" lon="10.558229132161085"><ele>145.0</ele><time>2026-03-24T09:00:23.999Z</time></trkpt><trkpt lat="43.49930952112782" lon="10.55817276097226"><ele>145.0</ele><time>2026-03-24T09:00:24.999Z</time></trkpt><trkpt lat="43.49952303996558" lon="10.558175688873602"><ele>145.0</ele><time>2026-03-24T09:00:25.999Z</time></trkpt><trkpt lat="43.499724287026794" lon="10.558195655827538"><ele>142.66666666666669</ele><time>2026-03-24T09:00:26.999Z</time></trkpt><trkpt lat="43.49992015726155" lon="10.558284902156196"><ele>140.33333333333334</ele><time>2026-03-24T09:00:27.999Z</time></trkpt><trkpt lat="43.50012240016112" lon="10.558405031084337"><ele>138.0</ele><time>2026-03-24T09:00:28.999Z</time></trkpt><trkpt lat="43.50032012987341" lon="10.558504065523326"><ele>136.0</ele><time>2026-03-24T09:00:29.999Z</time></trkpt><trkpt lat="43.500508405756776" lon="10.558552109371911"><ele>134.0</ele><time>2026-03-24T09:00:30.999Z</time></trkpt><trkpt lat="43.5006883399291" lon="10.558570405583916"><ele>132.0</ele><time>2026-03-24T09:00:31.999Z</time></trkpt><trkpt lat="43.50086193536483" lon="10.558537317815547"><ele>132.0</ele><time>2026-03-24T09:00:32.999Z</time></trkpt><trkpt lat="43.50106589198095" lon="10.558469685788456"><ele>132.0</ele><time>2026-03-24T09:00:33.999Z</time></trkpt><trkpt lat="43.50126452383273" lon="10.558363883941858"><ele>132.0</ele><time>2026-03-24T09:00:34.999Z</time></trkpt><trkpt lat="43.50145634073722" lon="10.558293729333041"><ele>132.33333333333334</ele><time>2026-03-24T09:00:35.999Z</time></trkpt><trkpt lat="43.5016268350911" lon="10.558257213608247"><ele>132.66666666666669</ele><time>2026-03-24T09:00:36.999Z</time></trkpt><trkpt lat="43.50178691770002" lon="10.558270634339905"><ele>133.0</ele><time>2026-03-24T09:00:37.999Z</time></trkpt><trkpt lat="43.50194588359153" lon="10.558342127725437"><ele>132.33333333333334</ele><time>2026-03-24T09:00:38.999Z</time></trkpt><trkpt lat="43.50208477439032" lon="10.558503002255211"><ele>131.66666666666666</ele><time>2026-03-24T09:00:39.999Z</time></trkpt><trkpt lat="43.50219707071526" lon="10.55874114757658"><ele>131.0</ele><time>2026-03-24T09:00:40.999Z</time></trkpt><trkpt lat="43.50231146434935" lon="10.55900405642218"><ele>131.0</ele><time>2026-03-24T09:00:41.999Z</time></trkpt><trkpt lat="43.502445534231796" lon="10.559279585861916"><ele>131.0</ele><time>2026-03-24T09:00:42.999Z</time></trkpt><trkpt lat="43.50259545157841" lon="10.559560700240462"><ele>130.0</ele><time>2026-03-24T09:00:43.999Z</time></trkpt><trkpt lat="43.5027458168052" lon="10.559847092587765"><ele>129.0</ele><time>2026-03-24T09:00:44.999Z</time></trkpt><trkpt lat="43.50288104481908" lon="10.560105654692244"><ele>129.66666666666666</ele><time>2026-03-24T09:00:45.999Z</time></trkpt><trkpt lat="43.502996209416615" lon="10.560326703718202"><ele>130.33333333333331</ele><time>2026-03-24T09:00:46.999Z</time></trkpt><trkpt lat="43.50308255194962" lon="10.56049828060284"><ele>131.0</ele><time>2026-03-24T09:00:47.999Z</time></trkpt><trkpt lat="43.503144057847386" lon="10.560628030200021"><ele>131.0</ele><time>2026-03-24T09:00:48.999Z</time></trkpt><trkpt lat="43.503198293051724" lon="10.560708780589852"><ele>131.0</ele><time>2026-03-24T09:00:49.999Z</time></trkpt><trkpt lat="43.503274826508225" lon="10.560743315961558"><ele>131.0</ele><time>2026-03-24T09:00:50.999Z</time></trkpt><trkpt lat="43.50338103314638" lon="10.560696215087106"><ele>131.0</ele><time>2026-03-24T09:00:51.999Z</time></trkpt><trkpt lat="43.50349474250781" lon="10.560583630962249"><ele>131.0</ele><time>2026-03-24T09:00:52.999Z</time></trkpt><trkpt lat="43.50362268938295" lon="10.560438643345163"><ele>127.33333333333333</ele><time>2026-03-24T09:00:53.999Z</time></trkpt><trkpt lat="43.50378025967684" lon="10.56029097956063"><ele>123.66666666666666</ele><time>2026-03-24T09:00:54.999Z</time></trkpt><trkpt lat="43.50395414371826" lon="10.56015017820671"><ele>120.0</ele><time>2026-03-24T09:00:55.999Z</time></trkpt><trkpt lat="43.504161517331795" lon="10.560056925137564"><ele>120.0</ele><time>2026-03-24T09:00:56.999Z</time></trkpt><trkpt lat="43.50438840986448" lon="10.559985848264477"><ele>120.0</ele><time>2026-03-24T09:00:57.999Z</time></trkpt><trkpt lat="43.5046209711474" lon="10.559900310234111"><ele>120.5</ele><time>2026-03-24T09:00:58.999Z</time></trkpt><trkpt lat="43.50486683255039" lon="10.559837922002952"><ele>121.0</ele><time>2026-03-24T09:00:59.999Z</time></trkpt><trkpt lat="43.50512140259868" lon="10.559762714492996"><ele>121.0</ele><time>2026-03-24T09:01:00.999Z</time></trkpt><trkpt lat="43.50538813383561" lon="10.559694236017432"><ele>121.0</ele><time>2026-03-24T09:01:01.999Z</time></trkpt><trkpt lat="43.50562637168631" lon="10.559536684526979"><ele>117.0</ele><time>2026-03-24T09:01:02.999Z</time></trkpt><trkpt lat="43.50583359738893" lon="10.559358553550975"><ele>113.0</ele><time>2026-03-24T09:01:03.999Z</time></trkpt><trkpt lat="43.506024367258" lon="10.559185312299588"><ele>113.0</ele><time>2026-03-24T09:01:04.999Z</time></trkpt><trkpt lat="43.50620236162787" lon="10.559053442232706"><ele>113.0</ele><time>2026-03-24T09:01:05.999Z</time></trkpt><trkpt lat="43.50640370730356" lon="10.558988731028522"><ele>113.0</ele><time>2026-03-24T09:01:06.999Z</time></trkpt><trkpt lat="43.50663426903833" lon="10.558914421735125"><ele>115.0</ele><time>2026-03-24T09:01:07.999Z</time></trkpt><trkpt lat="43.50688765789841" lon="10.558867422309026"><ele>117.0</ele><time>2026-03-24T09:01:08.999Z</time></trkpt><trkpt lat="43.507149205660205" lon="10.558820087273272"><ele>117.33333333333334</ele><time>2026-03-24T09:01:09.999Z</time></trkpt><trkpt lat="43.50738024208121" lon="10.558779107790537"><ele>117.66666666666667</ele><time>2026-03-24T09:01:10.999Z</time></trkpt><trkpt lat="43.507584128309155" lon="10.558718444999773"><ele>118.0</ele><time>2026-03-24T09:01:11.999Z</time></trkpt><trkpt lat="43.5077799113942" lon="10.55860408595843"><ele>115.5</ele><time>2026-03-24T09:01:13Z</time></trkpt><trkpt lat="43.50796663600878" lon="10.558424490062364"><ele>113.0</ele><time>2026-03-24T09:01:14Z</time></trkpt><trkpt lat="43.50814505078709" lon="10.558176382181955"><ele>113.0</ele><time>2026-03-24T09:01:15Z</time></trkpt><trkpt lat="43.50834844892786" lon="10.55794963741177"><ele>113.0</ele><time>2026-03-24T09:01:16Z</time></trkpt><trkpt lat="43.50855509781076" lon="10.557687693663688"><ele>111.5</ele><time>2026-03-24T09:01:17Z</time></trkpt><trkpt lat="43.508765276834765" lon="10.55744572913839"><ele>110.0</ele><time>2026-03-24T09:01:18Z</time></trkpt><trkpt lat="43.50897980214511" lon="10.55718303441094"><ele>107.0</ele><time>2026-03-24T09:01:19Z</time></trkpt><trkpt lat="43.50919326745392" lon="10.556927736810328"><ele>104.0</ele><time>2026-03-24T09:01:20Z</time></trkpt><trkpt lat="43.50938268011508" lon="10.556698383160933"><ele>106.0</ele><time>2026-03-24T09:01:21Z</time></trkpt><trkpt lat="43.50961026903604" lon="10.556465865533047"><ele>108.0</ele><time>2026-03-24T09:01:22Z</time></trkpt><trkpt lat="43.509869388181464" lon="10.556303851249751"><ele>105.0</ele><time>2026-03-24T09:01:23Z</time></trkpt><trkpt lat="43.51013988191449" lon="10.556181946145747"><ele>102.0</ele><time>2026-03-24T09:01:24Z</time></trkpt><trkpt lat="43.51038996795115" lon="10.556133970371919"><ele>102.33333333333334</ele><time>2026-03-24T09:01:25Z</time></trkpt><trkpt lat="43.510626650030986" lon="10.556123606313056"><ele>102.66666666666667</ele><time>2026-03-24T09:01:26Z</time></trkpt><trkpt lat="43.51083417604645" lon="10.55612439780887"><ele>103.0</ele><time>2026-03-24T09:01:27Z</time></trkpt><trkpt lat="43.51102468979231" lon="10.556108731903118"><ele>103.0</ele><time>2026-03-24T09:01:28Z</time></trkpt><trkpt lat="43.51122973828017" lon="10.556068469449194"><ele>103.0</ele><time>2026-03-24T09:01:29Z</time></trkpt><trkpt lat="43.51144654871649" lon="10.556017352810732"><ele>103.0</ele><time>2026-03-24T09:01:30Z</time></trkpt><trkpt lat="43.51166822107553" lon="10.555957464780699"><ele>103.0</ele><time>2026-03-24T09:01:31Z</time></trkpt><trkpt lat="43.51187065987974" lon="10.555882152785069"><ele>103.0</ele><time>2026-03-24T09:01:32Z</time></trkpt><trkpt lat="43.51205137599378" lon="10.555771840658176"><ele>103.0</ele><time>2026-03-24T09:01:33Z</time></trkpt><trkpt lat="43.51223995846641" lon="10.555617860933838"><ele>102.0</ele><time>2026-03-24T09:01:34Z</time></trkpt><trkpt lat="43.51242793274111" lon="10.555457366245761"><ele>101.0</ele><time>2026-03-24T09:01:35Z</time></trkpt><trkpt lat="43.512614027652035" lon="10.5553336401154"><ele>100.0</ele><time>2026-03-24T09:01:36Z</time></trkpt><trkpt lat="43.51279617371618" lon="10.555243365077448"><ele>100.0</ele><time>2026-03-24T09:01:37Z</time></trkpt><trkpt lat="43.51298177098099" lon="10.555194797872497"><ele>100.0</ele><time>2026-03-24T09:01:38Z</time></trkpt><trkpt lat="43.51316374584247" lon="10.555219989034013"><ele>100.0</ele><time>2026-03-24T09:01:39Z</time></trkpt><trkpt lat="43.51332397384009" lon="10.555329093828151"><ele>97.66666666666667</ele><time>2026-03-24T09:01:40Z</time></trkpt><trkpt lat="43.513447459108846" lon="10.555500680382169"><ele>95.33333333333334</ele><time>2026-03-24T09:01:41Z</time></trkpt><trkpt lat="43.513542344830014" lon="10.555731327334549"><ele>93.0</ele><time>2026-03-24T09:01:42Z</time></trkpt><trkpt lat="43.51362428650476" lon="10.555981814992025"><ele>93.0</ele><time>2026-03-24T09:01:43Z</time></trkpt><trkpt lat="43.51371291811645" lon="10.556179709263391"><ele>93.0</ele><time>2026-03-24T09:01:44Z</time></trkpt><trkpt lat="43.5138288551092" lon="10.556324386699139"><ele>93.0</ele><time>2026-03-24T09:01:45Z</time></trkpt><trkpt lat="43.5139561045615" lon="10.556398476722338"><ele>92.33333333333333</ele><time>2026-03-24T09:01:46Z</time></trkpt><trkpt lat="43.51411634296799" lon="10.556354171185498"><ele>91.66666666666666</ele><time>2026-03-24T09:01:47Z</time></trkpt><trkpt lat="43.514261030031435" lon="10.556276791707495"><ele>91.0</ele><time>2026-03-24T09:01:48Z</time></trkpt><trkpt lat="43.51438861942575" lon="10.55613253869269"><ele>91.0</ele><time>2026-03-24T09:01:49Z</time></trkpt><trkpt lat="43.51452062504819" lon="10.555987729775671"><ele>91.0</ele><time>2026-03-24T09:01:50Z</time></trkpt><trkpt lat="43.51467736818256" lon="10.555852140373998"><ele>91.0</ele><time>2026-03-24T09:01:51Z</time></trkpt><trkpt lat="43.514842986281614" lon="10.555735305025049"><ele>93.33333333333333</ele><time>2026-03-24T09:01:52Z</time></trkpt><trkpt lat="43.51500973980497" lon="10.555606450015599"><ele>95.66666666666666</ele><time>2026-03-24T09:01:53Z</time></trkpt><trkpt lat="43.515157300868424" lon="10.555483105338404"><ele>98.0</ele><time>2026-03-24T09:01:54Z</time></trkpt><trkpt lat="43.51529751296276" lon="10.555384362029912"><ele>99.0</ele><time>2026-03-24T09:01:55Z</time></trkpt><trkpt lat="43.51545417992285" lon="10.555342097998569"><ele>100.0</ele><time>2026-03-24T09:01:56Z</time></trkpt><trkpt lat="43.51562703817987" lon="10.555398781480191"><ele>101.0</ele><time>2026-03-24T09:01:57Z</time></trkpt><trkpt lat="43.51578451162315" lon="10.555510726057712"><ele>101.0</ele><time>2026-03-24T09:01:58Z</time></trkpt><trkpt lat="43.515910495899924" lon="10.555662952097403"><ele>101.0</ele><time>2026-03-24T09:01:59Z</time></trkpt><trkpt lat="43.5160021069903" lon="10.555821241430234"><ele>101.0</ele><time>2026-03-24T09:02:00Z</time></trkpt><trkpt lat="43.516068102827376" lon="10.556007601847963"><ele>102.0</ele><time>2026-03-24T09:02:01Z</time></trkpt><trkpt lat="43.516108940154" lon="10.556219407273485"><ele>103.0</ele><time>2026-03-24T09:02:02Z</time></trkpt><trkpt lat="43.5161496420135" lon="10.556435252439938"><ele>104.0</ele><time>2026-03-24T09:02:03Z</time></trkpt><trkpt lat="43.516191352690186" lon="10.556622658441007"><ele>104.0</ele><time>2026-03-24T09:02:04Z</time></trkpt><trkpt lat="43.516228092917764" lon="10.556786999956998"><ele>104.0</ele><time>2026-03-24T09:02:05Z</time></trkpt><trkpt lat="43.51626145729667" lon="10.556938789423686"><ele>104.0</ele><time>2026-03-24T09:02:06Z</time></trkpt><trkpt lat="43.5163054604826" lon="10.557075417387574"><ele>104.0</ele><time>2026-03-24T09:02:07Z</time></trkpt><trkpt lat="43.516381338492195" lon="10.557179602441785"><ele>102.5</ele><time>2026-03-24T09:02:08Z</time></trkpt><trkpt lat="43.51649072088731" lon="10.557220632159085"><ele>101.0</ele><time>2026-03-24T09:02:09Z</time></trkpt><trkpt lat="43.51662731071731" lon="10.557172239528153"><ele>99.5</ele><time>2026-03-24T09:02:10Z</time></trkpt><trkpt lat="43.51676671382997" lon="10.557082074706903"><ele>98.0</ele><time>2026-03-24T09:02:11Z</time></trkpt><trkpt lat="43.516915337189914" lon="10.556974979235909"><ele>98.0</ele><time>2026-03-24T09:02:12Z</time></trkpt><trkpt lat="43.51705653266873" lon="10.556837596737749"><ele>98.0</ele><time>2026-03-24T09:02:13Z</time></trkpt><trkpt lat="43.51718228990153" lon="10.556636301480793"><ele>98.0</ele><time>2026-03-24T09:02:14Z</time></trkpt><trkpt lat="43.51732279438062" lon="10.556431442574343"><ele>98.33333333333333</ele><time>2026-03-24T09:02:15Z</time></trkpt><trkpt lat="43.51750097031918" lon="10.556299691257298"><ele>98.66666666666666</ele><time>2026-03-24T09:02:16Z</time></trkpt><trkpt lat="43.5177049847115" lon="10.556198530955372"><ele>99.0</ele><time>2026-03-24T09:02:17Z</time></trkpt><trkpt lat="43.517910832969925" lon="10.556113629997617"><ele>96.66666666666667</ele><time>2026-03-24T09:02:18Z</time></trkpt><trkpt lat="43.51811870795845" lon="10.556057277390032"><ele>94.33333333333334</ele><time>2026-03-24T09:02:19Z</time></trkpt><trkpt lat="43.51833404731799" lon="10.556086050140902"><ele>92.0</ele><time>2026-03-24T09:02:20Z</time></trkpt><trkpt lat="43.51854499911727" lon="10.556159964300628"><ele>89.33333333333334</ele><time>2026-03-24T09:02:21Z</time></trkpt><trkpt lat="43.518722666166056" lon="10.556255544839782"><ele>86.66666666666667</ele><time>2026-03-24T09:02:22Z</time></trkpt><trkpt lat="43.518878887070514" lon="10.556354510774062"><ele>84.0</ele><time>2026-03-24T09:02:23Z</time></trkpt><trkpt lat="43.51902846139669" lon="10.55643546307687"><ele>83.25</ele><time>2026-03-24T09:02:24Z</time></trkpt><trkpt lat="43.5191706521206" lon="10.556474967337476"><ele>82.5</ele><time>2026-03-24T09:02:25Z</time></trkpt><trkpt lat="43.51930348932254" lon="10.556461087786484"><ele>81.75</ele><time>2026-03-24T09:02:26Z</time></trkpt><trkpt lat="43.519408565488796" lon="10.556373043879331"><ele>81.0</ele><time>2026-03-24T09:02:27Z</time></trkpt><trkpt lat="43.51947176589367" lon="10.556218529196434"><ele>82.25</ele><time>2026-03-24T09:02:28Z</time></trkpt><trkpt lat="43.519484084157256" lon="10.556010741286737"><ele>83.5</ele><time>2026-03-24T09:02:29Z</time></trkpt><trkpt lat="43.51950802914065" lon="10.55581553218169"><ele>84.75</ele><time>2026-03-24T09:02:30Z</time></trkpt><trkpt lat="43.51954798633486" lon="10.555648282048955"><ele>86.0</ele><time>2026-03-24T09:02:31Z</time></trkpt><trkpt lat="43.51964536970837" lon="10.555524351277963"><ele>85.33333333333334</ele><time>2026-03-24T09:02:32Z</time></trkpt><trkpt lat="43.519804942123436" lon="10.555438301899626"><ele>84.66666666666667</ele><time>2026-03-24T09:02:33Z</time></trkpt><trkpt lat="43.51998147997764" lon="10.555330162710673"><ele>84.0</ele><time>2026-03-24T09:02:34Z</time></trkpt><trkpt lat="43.52013366802694" lon="10.555228860453884"><ele>84.0</ele><time>2026-03-24T09:02:35Z</time></trkpt><trkpt lat="43.52027585950531" lon="10.555230616004852"><ele>84.0</ele><time>2026-03-24T09:02:36Z</time></trkpt><trkpt lat="43.520402227702135" lon="10.55534787718198"><ele>84.0</ele><time>2026-03-24T09:02:37Z</time></trkpt><trkpt lat="43.52055130264306" lon="10.555418016857772"><ele>83.33333333333333</ele><time>2026-03-24T09:02:38Z</time></trkpt><trkpt lat="43.52069457146008" lon="10.555475713806189"><ele>82.66666666666666</ele><time>2026-03-24T09:02:39Z</time></trkpt><trkpt lat="43.52084959811802" lon="10.55544666973861"><ele>82.0</ele><time>2026-03-24T09:02:40Z</time></trkpt><trkpt lat="43.52100286908802" lon="10.555332297935463"><ele>80.66666666666666</ele><time>2026-03-24T09:02:41Z</time></trkpt><trkpt lat="43.521163732427226" lon="10.555160366707838"><ele>79.33333333333333</ele><time>2026-03-24T09:02:42Z</time></trkpt><trkpt lat="43.52131091527386" lon="10.554970692062035"><ele>78.0</ele><time>2026-03-24T09:02:43Z</time></trkpt><trkpt lat="43.521442489475966" lon="10.554809270183732"><ele>77.5</ele><time>2026-03-24T09:02:44Z</time></trkpt><trkpt lat="43.52156037179439" lon="10.554661991406281"><ele>77.0</ele><time>2026-03-24T09:02:45Z</time></trkpt><trkpt lat="43.52166689901718" lon="10.554539594565332"><ele>76.5</ele><time>2026-03-24T09:02:46Z</time></trkpt><trkpt lat="43.52177206757707" lon="10.554437924464029"><ele>76.0</ele><time>2026-03-24T09:02:47Z</time></trkpt><trkpt lat="43.52189436261399" lon="10.554361978939616"><ele>76.0</ele><time>2026-03-24T09:02:48Z</time></trkpt><trkpt lat="43.52202979443706" lon="10.554333113872685"><ele>76.0</ele><time>2026-03-24T09:02:49Z</time></trkpt><trkpt lat="43.52216318954119" lon="10.554339801350038"><ele>76.0</ele><time>2026-03-24T09:02:50Z</time></trkpt><trkpt lat="43.522288708893626" lon="10.554381600462131"><ele>76.0</ele><time>2026-03-24T09:02:51Z</time></trkpt><trkpt lat="43.522392370905095" lon="10.554474643012002"><ele>78.83333333333333</ele><time>2026-03-24T09:02:52Z</time></trkpt><trkpt lat="43.522479352527476" lon="10.55457072014355"><ele>81.66666666666666</ele><time>2026-03-24T09:02:53Z</time></trkpt><trkpt lat="43.52255287517686" lon="10.554643805782788"><ele>84.5</ele><time>2026-03-24T09:02:54Z</time></trkpt><trkpt lat="43.522610867743865" lon="10.554690401121265"><ele>87.33333333333333</ele><time>2026-03-24T09:02:55Z</time></trkpt><trkpt lat="43.52268118807159" lon="10.554675959430028"><ele>90.16666666666667</ele><time>2026-03-24T09:14:54.001Z</time></trkpt><trkpt lat="43.52276227448427" lon="10.55466983782366"><ele>93.0</ele><time>2026-03-24T09:14:55.001Z</time></trkpt><trkpt lat="43.52286262276762" lon="10.554660374406648"><ele>93.5</ele><time>2026-03-24T09:14:56.001Z</time></trkpt><trkpt lat="43.52297607346412" lon="10.554626082459938"><ele>94.0</ele><time>2026-03-24T09:14:57.001Z</time></trkpt><trkpt lat="43.523106441113676" lon="10.55455508745037"><ele>94.5</ele><time>2026-03-24T09:14:58.001Z</time></trkpt><trkpt lat="43.52323324988478" lon="10.554444383479536"><ele>95.0</ele><time>2026-03-24T09:14:59.001Z</time></trkpt><trkpt lat="43.52334807551873" lon="10.554312827246612"><ele>95.0</ele><time>2026-03-24T09:15:00.001Z</time></trkpt><trkpt lat="43.523468322534804" lon="10.554181085833676"><ele>95.0</ele><time>2026-03-24T09:15:01.001Z</time></trkpt><trkpt lat="43.52360670626514" lon="10.554067284186663"><ele>95.0</ele><time>2026-03-24T09:15:02Z</time></trkpt><trkpt lat="43.52374070386644" lon="10.553981269348693"><ele>95.0</ele><time>2026-03-24T09:15:03Z</time></trkpt><trkpt lat="43.523876748543124" lon="10.5539061700665"><ele>95.0</ele><time>2026-03-24T09:15:04Z</time></trkpt><trkpt lat="43.524060497569096" lon="10.553816273229224"><ele>95.0</ele><time>2026-03-24T09:15:05Z</time></trkpt><trkpt lat="43.52423159892421" lon="10.553783046709388"><ele>95.0</ele><time>2026-03-24T09:15:06Z</time></trkpt><trkpt lat="43.52437609348616" lon="10.55377140864355"><ele>95.0</ele><time>2026-03-24T09:15:07Z</time></trkpt><trkpt lat="43.52450086921331" lon="10.55376052658515"><ele>95.0</ele><time>2026-03-24T09:15:08Z</time></trkpt><trkpt lat="43.524609324226425" lon="10.553766074776341"><ele>95.0</ele><time>2026-03-24T09:15:09Z</time></trkpt><trkpt lat="43.52469144730681" lon="10.553792993617996"><ele>94.8</ele><time>2026-03-24T09:15:10Z</time></trkpt><trkpt lat="43.52475924034962" lon="10.553811556178164"><ele>94.6</ele><time>2026-03-24T09:15:11Z</time></trkpt><trkpt lat="43.52483008895063" lon="10.553876845406224"><ele>94.4</ele><time>2026-03-24T09:15:13Z</time></trkpt><trkpt lat="43.5249002113735" lon="10.553805242977765"><ele>94.2</ele><time>2026-03-24T09:15:19Z</time></trkpt><trkpt lat="43.52497746246827" lon="10.553714939142196"><ele>94.0</ele><time>2026-03-24T09:15:20Z</time></trkpt><trkpt lat="43.52508576563736" lon="10.553627476679681"><ele>95.0</ele><time>2026-03-24T09:15:21Z</time></trkpt><trkpt lat="43.52522473116015" lon="10.553561857538327"><ele>96.0</ele><time>2026-03-24T09:15:22Z</time></trkpt><trkpt lat="43.52538905386843" lon="10.553520639590582"><ele>97.0</ele><time>2026-03-24T09:15:23Z</time></trkpt><trkpt lat="43.525557868630614" lon="10.553506874394955"><ele>98.5</ele><time>2026-03-24T09:15:24Z</time></trkpt><trkpt lat="43.5257216036671" lon="10.55349001476253"><ele>100.0</ele><time>2026-03-24T09:15:25Z</time></trkpt><trkpt lat="43.52585809657879" lon="10.553472221404226"><ele>101.5</ele><time>2026-03-24T09:15:26Z</time></trkpt><trkpt lat="43.52597395820136" lon="10.553477081681267"><ele>103.0</ele><time>2026-03-24T09:15:27Z</time></trkpt><trkpt lat="43.52610045439777" lon="10.553486614588433"><ele>103.5</ele><time>2026-03-24T09:15:28Z</time></trkpt><trkpt lat="43.52623397852694" lon="10.55351338496128"><ele>104.0</ele><time>2026-03-24T09:15:29Z</time></trkpt><trkpt lat="43.52636844760258" lon="10.553556675553732"><ele>104.5</ele><time>2026-03-24T09:15:30Z</time></trkpt><trkpt lat="43.52648934333877" lon="10.55359487319349"><ele>105.0</ele><time>2026-03-24T09:15:31Z</time></trkpt><trkpt lat="43.52660567028245" lon="10.55361093805751"><ele>105.0</ele><time>2026-03-24T09:15:32Z</time></trkpt><trkpt lat="43.52673321409859" lon="10.553589810443604"><ele>105.0</ele><time>2026-03-24T09:15:33Z</time></trkpt><trkpt lat="43.526863205760876" lon="10.553525821903952"><ele>105.0</ele><time>2026-03-24T09:15:34Z</time></trkpt><trkpt lat="43.526972072688835" lon="10.553422266063384"><ele>105.0</ele><time>2026-03-24T09:15:35Z</time></trkpt><trkpt lat="43.52708095439444" lon="10.553294069613914"><ele>103.66666666666666</ele><time>2026-03-24T09:15:36Z</time></trkpt><trkpt lat="43.527201463008" lon="10.553158730248569"><ele>102.33333333333333</ele><time>2026-03-24T09:15:37.001Z</time></trkpt><trkpt lat="43.52735353501101" lon="10.55307178986433"><ele>101.0</ele><time>2026-03-24T09:15:38.001Z</time></trkpt><trkpt lat="43.52751455436445" lon="10.55303753659263"><ele>101.0</ele><time>2026-03-24T09:15:39.001Z</time></trkpt><trkpt lat="43.52767413007463" lon="10.553031308392345"><ele>101.0</ele><time>2026-03-24T09:15:40.001Z</time></trkpt><trkpt lat="43.52781983855068" lon="10.553061021137838"><ele>101.0</ele><time>2026-03-24T09:15:41.001Z</time></trkpt><trkpt lat="43.52796548322586" lon="10.553038779557102"><ele>100.66666666666666</ele><time>2026-03-24T09:15:42.001Z</time></trkpt><trkpt lat="43.528106775369686" lon="10.552950848598755"><ele>100.33333333333334</ele><time>2026-03-24T09:15:43.001Z</time></trkpt><trkpt lat="43.52823676123539" lon="10.552814096104962"><ele>100.0</ele><time>2026-03-24T09:15:44.001Z</time></trkpt><trkpt lat="43.52832725238323" lon="10.552663617017526"><ele>100.0</ele><time>2026-03-24T09:15:45.001Z</time></trkpt><trkpt lat="43.52839305924078" lon="10.552502386732204"><ele>100.0</ele><time>2026-03-24T09:15:46.001Z</time></trkpt><trkpt lat="43.528422283458056" lon="10.552333770640619"><ele>100.0</ele><time>2026-03-24T09:15:47.001Z</time></trkpt><trkpt lat="43.528405548379865" lon="10.552165899587166"><ele>100.0</ele><time>2026-03-24T09:15:48.001Z</time></trkpt><trkpt lat="43.528346543095125" lon="10.551996855391272"><ele>100.25</ele><time>2026-03-24T09:15:49.001Z</time></trkpt><trkpt lat="43.52826727373153" lon="10.551833148944928"><ele>100.5</ele><time>2026-03-24T09:15:50.001Z</time></trkpt><trkpt lat="43.528212498200965" lon="10.551647046782355"><ele>100.75</ele><time>2026-03-24T09:15:51.001Z</time></trkpt><trkpt lat="43.528153109233465" lon="10.551477068131394"><ele>101.0</ele><time>2026-03-24T09:15:52.001Z</time></trkpt><trkpt lat="43.52810809468252" lon="10.55132474287414"><ele>101.6</ele><time>2026-03-24T09:15:53.001Z</time></trkpt><trkpt lat="43.52808116573925" lon="10.55118121734027"><ele>102.19999999999999</ele><time>2026-03-24T09:15:54.001Z</time></trkpt><trkpt lat="43.52809371820036" lon="10.55104149703213"><ele>102.80000000000001</ele><time>2026-03-24T09:15:55.001Z</time></trkpt><trkpt lat="43.52814497837139" lon="10.550904527369632"><ele>103.4</ele><time>2026-03-24T09:15:56.001Z</time></trkpt><trkpt lat="43.5282092894127" lon="10.550793476708659"><ele>104.0</ele><time>2026-03-24T09:15:57.001Z</time></trkpt><trkpt lat="43.528274134447344" lon="10.550709606742114"><ele>104.0</ele><time>2026-03-24T09:15:58.001Z</time></trkpt><trkpt lat="43.52837288878357" lon="10.550696447327743"><ele>104.0</ele><time>2026-03-24T09:15:59.001Z</time></trkpt><trkpt lat="43.52848752603628" lon="10.550716119081248"><ele>104.0</ele><time>2026-03-24T09:16:00.001Z</time></trkpt><trkpt lat="43.52860903795528" lon="10.550751921448708"><ele>104.0</ele><time>2026-03-24T09:16:01.001Z</time></trkpt><trkpt lat="43.528732035481504" lon="10.550784407491738"><ele>103.2</ele><time>2026-03-24T09:16:02.001Z</time></trkpt><trkpt lat="43.52884738433388" lon="10.550786511567189"><ele>102.4</ele><time>2026-03-24T09:16:03.001Z</time></trkpt><trkpt lat="43.528951986219155" lon="10.550760674663895"><ele>101.6</ele><time>2026-03-24T09:16:04.001Z</time></trkpt><trkpt lat="43.529038278028345" lon="10.550708432657729"><ele>100.8</ele><time>2026-03-24T09:16:05.001Z</time></trkpt><trkpt lat="43.529109225765886" lon="10.550612378471493"><ele>100.0</ele><time>2026-03-24T09:16:06.001Z</time></trkpt><trkpt lat="43.52914875688707" lon="10.550473145144919"><ele>99.75</ele><time>2026-03-24T09:16:07.001Z</time></trkpt><trkpt lat="43.529149923140366" lon="10.550304491190342"><ele>99.5</ele><time>2026-03-24T09:16:08.001Z</time></trkpt><trkpt lat="43.52910819869075" lon="10.55012806610057"><ele>99.25</ele><time>2026-03-24T09:16:09.001Z</time></trkpt><trkpt lat="43.529039584687524" lon="10.549945105798553"><ele>99.0</ele><time>2026-03-24T09:16:10.001Z</time></trkpt><trkpt lat="43.52896630973343" lon="10.549751976603282"><ele>99.0</ele><time>2026-03-24T09:16:11.001Z</time></trkpt><trkpt lat="43.52889624970554" lon="10.549553470627478"><ele>99.0</ele><time>2026-03-24T09:16:12.001Z</time></trkpt><trkpt lat="43.528831644664194" lon="10.549371742622517"><ele>99.0</ele><time>2026-03-24T09:16:13.001Z</time></trkpt><trkpt lat="43.52876289702917" lon="10.549189101299838"><ele>100.66666666666666</ele><time>2026-03-24T09:16:14.001Z</time></trkpt><trkpt lat="43.52868253180407" lon="10.549004585316144"><ele>102.33333333333333</ele><time>2026-03-24T09:16:15.001Z</time></trkpt><trkpt lat="43.52859448642272" lon="10.548822108395678"><ele>104.0</ele><time>2026-03-24T09:16:16.001Z</time></trkpt><trkpt lat="43.528512038203225" lon="10.548616816445106"><ele>104.0</ele><time>2026-03-24T09:16:17.001Z</time></trkpt><trkpt lat="43.52841569841913" lon="10.548451669661118"><ele>104.0</ele><time>2026-03-24T09:16:18.001Z</time></trkpt><trkpt lat="43.528336672609484" lon="10.548279933546857"><ele>104.0</ele><time>2026-03-24T09:16:19.001Z</time></trkpt><trkpt lat="43.52824732068266" lon="10.548117152381149"><ele>104.0</ele><time>2026-03-24T09:16:20.001Z</time></trkpt><trkpt lat="43.528144377566704" lon="10.54798266413902"><ele>103.75</ele><time>2026-03-24T09:16:21.001Z</time></trkpt><trkpt lat="43.52802725230699" lon="10.547873059649614"><ele>103.5</ele><time>2026-03-24T09:16:22.001Z</time></trkpt><trkpt lat="43.527910671753496" lon="10.547769280890428"><ele>103.25</ele><time>2026-03-24T09:16:23.001Z</time></trkpt><trkpt lat="43.52781520005793" lon="10.547640806997375"><ele>103.0</ele><time>2026-03-24T09:16:24.001Z</time></trkpt><trkpt lat="43.527729008886716" lon="10.54752567418076"><ele>103.0</ele><time>2026-03-24T09:16:25.001Z</time></trkpt><trkpt lat="43.52766513478165" lon="10.547408136414514"><ele>103.0</ele><time>2026-03-24T09:16:26.001Z</time></trkpt><trkpt lat="43.52762599947019" lon="10.54728087372872"><ele>103.0</ele><time>2026-03-24T09:16:27.001Z</time></trkpt><trkpt lat="43.52760811908616" lon="10.54712886804544"><ele>103.0</ele><time>2026-03-24T09:16:28.002Z</time></trkpt><trkpt lat="43.527642970028566" lon="10.546944169516768"><ele>102.66666666666667</ele><time>2026-03-24T09:16:29.002Z</time></trkpt><trkpt lat="43.52770262623822" lon="10.546743942123584"><ele>102.33333333333334</ele><time>2026-03-24T09:16:30.002Z</time></trkpt><trkpt lat="43.52776771191877" lon="10.546509073210814"><ele>102.0</ele><time>2026-03-24T09:16:31.002Z</time></trkpt><trkpt lat="43.52784071610154" lon="10.546222698236889"><ele>96.5</ele><time>2026-03-24T09:16:32.002Z</time></trkpt><trkpt lat="43.52796841624063" lon="10.545956142962682"><ele>91.0</ele><time>2026-03-24T09:16:33.002Z</time></trkpt><trkpt lat="43.5280918124084" lon="10.545686145784158"><ele>91.0</ele><time>2026-03-24T09:16:34.002Z</time></trkpt><trkpt lat="43.528234674769436" lon="10.545407086605465"><ele>91.0</ele><time>2026-03-24T09:16:35.002Z</time></trkpt><trkpt lat="43.528412060339015" lon="10.54513794996415"><ele>91.0</ele><time>2026-03-24T09:16:36.002Z</time></trkpt><trkpt lat="43.52857863276072" lon="10.544882496788349"><ele>91.0</ele><time>2026-03-24T09:16:37.002Z</time></trkpt><trkpt lat="43.528736382723" lon="10.544662226446059"><ele>90.66666666666666</ele><time>2026-03-24T09:16:38.002Z</time></trkpt><trkpt lat="43.52885948040537" lon="10.544443958140347"><ele>90.33333333333333</ele><time>2026-03-24T09:16:39.002Z</time></trkpt><trkpt lat="43.528945974537514" lon="10.54418669759655"><ele>90.0</ele><time>2026-03-24T09:16:40.002Z</time></trkpt><trkpt lat="43.528991430350366" lon="10.543873459427626"><ele>88.5</ele><time>2026-03-24T09:16:41.002Z</time></trkpt><trkpt lat="43.52901889606874" lon="10.543537804241138"><ele>87.0</ele><time>2026-03-24T09:16:42.002Z</time></trkpt><trkpt lat="43.52904937577828" lon="10.543178218548434"><ele>86.0</ele><time>2026-03-24T09:16:43.002Z</time></trkpt><trkpt lat="43.52906182006434" lon="10.542838394234627"><ele>85.0</ele><time>2026-03-24T09:16:44.002Z</time></trkpt><trkpt lat="43.52907415097995" lon="10.54253341043502"><ele>85.0</ele><time>2026-03-24T09:16:45.002Z</time></trkpt><trkpt lat="43.52907415098396" lon="10.542251969440658"><ele>85.0</ele><time>2026-03-24T09:16:46.002Z</time></trkpt><trkpt lat="43.52907786141385" lon="10.542006545571697"><ele>85.0</ele><time>2026-03-24T09:16:47.002Z</time></trkpt><trkpt lat="43.52907960299644" lon="10.541785290619993"><ele>84.2</ele><time>2026-03-24T09:16:48.002Z</time></trkpt><trkpt lat="43.52912798527627" lon="10.541610579566289"><ele>83.4</ele><time>2026-03-24T09:16:49.002Z</time></trkpt><trkpt lat="43.52920736331345" lon="10.541496455866934"><ele>82.6</ele><time>2026-03-24T09:16:50.002Z</time></trkpt><trkpt lat="43.52927908806772" lon="10.54141088477051"><ele>81.8</ele><time>2026-03-24T09:16:51.002Z</time></trkpt><trkpt lat="43.5293386963717" lon="10.54134662971422"><ele>81.0</ele><time>2026-03-24T09:16:52.002Z</time></trkpt><trkpt lat="43.5292284819566" lon="10.541159978363034"><ele>80.75</ele><time>2026-03-24T09:16:53.002Z</time></trkpt><trkpt lat="43.529216492548166" lon="10.541009666147307"><ele>80.5</ele><time>2026-03-24T09:16:54.002Z</time></trkpt><trkpt lat="43.5292392881709" lon="10.540836045285218"><ele>80.25</ele><time>2026-03-24T09:16:55.002Z</time></trkpt><trkpt lat="43.52929830412101" lon="10.540634249190287"><ele>80.0</ele><time>2026-03-24T09:16:56.002Z</time></trkpt><trkpt lat="43.529347649565935" lon="10.540401276246426"><ele>80.25</ele><time>2026-03-24T09:16:57.002Z</time></trkpt><trkpt lat="43.52940096760188" lon="10.540185810343022"><ele>80.5</ele><time>2026-03-24T09:16:58.002Z</time></trkpt><trkpt lat="43.529435791475194" lon="10.54000276838275"><ele>80.75</ele><time>2026-03-24T09:16:59.002Z</time></trkpt><trkpt lat="43.529449573578034" lon="10.53982145852726"><ele>81.0</ele><time>2026-03-24T09:17:00.002Z</time></trkpt><trkpt lat="43.529433822040474" lon="10.539643886094499"><ele>81.75</ele><time>2026-03-24T09:17:01.002Z</time></trkpt><trkpt lat="43.52939814635214" lon="10.539483502133084"><ele>82.5</ele><time>2026-03-24T09:17:02.002Z</time></trkpt><trkpt lat="43.52935110473265" lon="10.539333228298013"><ele>83.25</ele><time>2026-03-24T09:17:03.002Z</time></trkpt><trkpt lat="43.5293142646845" lon="10.539192830899477"><ele>84.0</ele><time>2026-03-24T09:17:04.002Z</time></trkpt><trkpt lat="43.529310308084426" lon="10.539045879843563"><ele>84.0</ele><time>2026-03-24T09:17:05.002Z</time></trkpt><trkpt lat="43.52933176409308" lon="10.538890080789159"><ele>84.0</ele><time>2026-03-24T09:17:06.002Z</time></trkpt><trkpt lat="43.52934689835636" lon="10.538716806625471"><ele>84.0</ele><time>2026-03-24T09:17:07.002Z</time></trkpt><trkpt lat="43.52935211522049" lon="10.538539047960965"><ele>84.0</ele><time>2026-03-24T09:17:08.001Z</time></trkpt><trkpt lat="43.52937545701495" lon="10.538352485757292"><ele>84.0</ele><time>2026-03-24T09:17:09.001Z</time></trkpt><trkpt lat="43.52939223284482" lon="10.538136607277687"><ele>84.0</ele><time>2026-03-24T09:17:10.001Z</time></trkpt><trkpt lat="43.52941105256092" lon="10.537875921554793"><ele>84.0</ele><time>2026-03-24T09:17:11.001Z</time></trkpt><trkpt lat="43.52942745734868" lon="10.537636359569557"><ele>83.0</ele><time>2026-03-24T09:17:12.001Z</time></trkpt><trkpt lat="43.52945604568175" lon="10.537379581288029"><ele>82.0</ele><time>2026-03-24T09:17:13.001Z</time></trkpt><trkpt lat="43.52952800410211" lon="10.537127187374136"><ele>81.0</ele><time>2026-03-24T09:17:14.001Z</time></trkpt><trkpt lat="43.52963514355422" lon="10.536881358167436"><ele>86.0</ele><time>2026-03-24T09:17:15.001Z</time></trkpt><trkpt lat="43.52980647175081" lon="10.536694969564996"><ele>91.0</ele><time>2026-03-24T09:17:16.001Z</time></trkpt><trkpt lat="43.52998411799872" lon="10.53649011599771"><ele>91.0</ele><time>2026-03-24T09:17:17.001Z</time></trkpt><trkpt lat="43.530177094519" lon="10.536305472792694"><ele>91.0</ele><time>2026-03-24T09:17:18.001Z</time></trkpt><trkpt lat="43.530354410553315" lon="10.53612464845513"><ele>94.0</ele><time>2026-03-24T09:17:19.001Z</time></trkpt><trkpt lat="43.53050575886232" lon="10.535958477346"><ele>97.0</ele><time>2026-03-24T09:17:20.001Z</time></trkpt><trkpt lat="43.530650083341925" lon="10.535805220344356"><ele>100.0</ele><time>2026-03-24T09:17:21.001Z</time></trkpt><trkpt lat="43.5307981091021" lon="10.535650983447555"><ele>100.0</ele><time>2026-03-24T09:17:22.001Z</time></trkpt><trkpt lat="43.53096575431097" lon="10.535504845610234"><ele>100.0</ele><time>2026-03-24T09:17:23.001Z</time></trkpt><trkpt lat="43.531149506938725" lon="10.535376844898943"><ele>100.0</ele><time>2026-03-24T09:17:24.001Z</time></trkpt><trkpt lat="43.531357978888636" lon="10.535278744238425"><ele>99.66666666666667</ele><time>2026-03-24T09:17:25.001Z</time></trkpt><trkpt lat="43.53157542149908" lon="10.535189916737142"><ele>99.33333333333334</ele><time>2026-03-24T09:17:26.001Z</time></trkpt><trkpt lat="43.53176358987198" lon="10.535086670758613"><ele>99.0</ele><time>2026-03-24T09:17:27.001Z</time></trkpt><trkpt lat="43.53194154576098" lon="10.534987746667191"><ele>97.66666666666667</ele><time>2026-03-24T09:17:28.001Z</time></trkpt><trkpt lat="43.53211288681149" lon="10.534905610212348"><ele>96.33333333333334</ele><time>2026-03-24T09:17:29.001Z</time></trkpt><trkpt lat="43.53227867397696" lon="10.534844571553768"><ele>95.0</ele><time>2026-03-24T09:17:30.001Z</time></trkpt><trkpt lat="43.532445676255854" lon="10.534800191388747"><ele>95.0</ele><time>2026-03-24T09:17:31.001Z</time></trkpt><trkpt lat="43.53261908228445" lon="10.534775482717011"><ele>95.0</ele><time>2026-03-24T09:17:32.001Z</time></trkpt><trkpt lat="43.532793583985544" lon="10.534780733435973"><ele>95.0</ele><time>2026-03-24T09:17:33.001Z</time></trkpt><trkpt lat="43.532954203862076" lon="10.534811796364968"><ele>97.0</ele><time>2026-03-24T09:17:34.001Z</time></trkpt><trkpt lat="43.53309677093721" lon="10.53485199385968"><ele>99.0</ele><time>2026-03-24T09:17:35.001Z</time></trkpt><trkpt lat="43.5332313629453" lon="10.534890684984257"><ele>101.0</ele><time>2026-03-24T09:17:36.001Z</time></trkpt><trkpt lat="43.53335016519912" lon="10.534922703193828"><ele>103.0</ele><time>2026-03-24T09:17:37.001Z</time></trkpt><trkpt lat="43.53346079800755" lon="10.534943716670604"><ele>103.0</ele><time>2026-03-24T09:17:38.001Z</time></trkpt><trkpt lat="43.53357545182346" lon="10.534953760721528"><ele>103.0</ele><time>2026-03-24T09:17:39.001Z</time></trkpt><trkpt lat="43.53369053466889" lon="10.534991675802429"><ele>103.0</ele><time>2026-03-24T09:17:40.001Z</time></trkpt><trkpt lat="43.53381509832002" lon="10.535021729114051"><ele>103.0</ele><time>2026-03-24T09:17:41.001Z</time></trkpt><trkpt lat="43.53395209761678" lon="10.535036592206506"><ele>106.0</ele><time>2026-03-24T09:17:42.001Z</time></trkpt><trkpt lat="43.53408847421851" lon="10.535086672653133"><ele>109.0</ele><time>2026-03-24T09:17:43.001Z</time></trkpt><trkpt lat="43.53420684620234" lon="10.535123011959891"><ele>112.0</ele><time>2026-03-24T09:17:44.001Z</time></trkpt><trkpt lat="43.53431058093687" lon="10.535142532087272"><ele>115.0</ele><time>2026-03-24T09:17:45.001Z</time></trkpt><trkpt lat="43.53441018669302" lon="10.53514322220949"><ele>115.0</ele><time>2026-03-24T09:17:46.001Z</time></trkpt><trkpt lat="43.53451660681906" lon="10.535133705477516"><ele>115.0</ele><time>2026-03-24T09:17:47.001Z</time></trkpt><trkpt lat="43.53461980852118" lon="10.535104978675601"><ele>115.0</ele><time>2026-03-24T09:17:48.001Z</time></trkpt><trkpt lat="43.53472646934551" lon="10.535062279636591"><ele>115.0</ele><time>2026-03-24T09:17:49.001Z</time></trkpt><trkpt lat="43.53481513064892" lon="10.535014841479061"><ele>115.0</ele><time>2026-03-24T09:17:50.001Z</time></trkpt><trkpt lat="43.53489936651068" lon="10.534979089238849"><ele>115.28571428571428</ele><time>2026-03-24T09:17:51.001Z</time></trkpt><trkpt lat="43.53498642869834" lon="10.534931498653693"><ele>115.57142857142857</ele><time>2026-03-24T09:17:52.001Z</time></trkpt><trkpt lat="43.53506386222261" lon="10.534894728620012"><ele>115.85714285714286</ele><time>2026-03-24T09:17:53.001Z</time></trkpt><trkpt lat="43.53512750937559" lon="10.534864545182762"><ele>116.14285714285714</ele><time>2026-03-24T09:17:54.001Z</time></trkpt><trkpt lat="43.53518978348741" lon="10.534842093626454"><ele>116.42857142857144</ele><time>2026-03-24T09:17:55.001Z</time></trkpt><trkpt lat="43.53525591204713" lon="10.5348150876122"><ele>116.71428571428572</ele><time>2026-03-24T09:17:56.001Z</time></trkpt><trkpt lat="43.53531606934829" lon="10.534780693663432"><ele>117.0</ele><time>2026-03-24T09:17:57.001Z</time></trkpt><trkpt lat="43.53538399092603" lon="10.534752944251784"><ele>118.19999999999999</ele><time>2026-03-24T09:17:58.001Z</time></trkpt><trkpt lat="43.53545991506632" lon="10.53472544996361"><ele>119.39999999999999</ele><time>2026-03-24T09:17:59.001Z</time></trkpt><trkpt lat="43.53557620725204" lon="10.53469527505007"><ele>120.60000000000001</ele><time>2026-03-24T09:18:01.001Z</time></trkpt><trkpt lat="43.53567941017663" lon="10.534657212452549"><ele>121.80000000000001</ele><time>2026-03-24T09:18:03.001Z</time></trkpt><trkpt lat="43.53575844935956" lon="10.534619940669415"><ele>123.0</ele><time>2026-03-24T09:18:05.001Z</time></trkpt><trkpt lat="43.53581452739445" lon="10.534579228997822"><ele>121.5</ele><time>2026-03-24T09:18:07.001Z</time></trkpt><trkpt lat="43.53588213433362" lon="10.534550244665331"><ele>120.0</ele><time>2026-03-24T09:18:10.001Z</time></trkpt><trkpt lat="43.535954608885916" lon="10.534542625000393"><ele>118.5</ele><time>2026-03-24T09:18:29.002Z</time></trkpt><trkpt lat="43.53604387466652" lon="10.534462103091478"><ele>117.0</ele><time>2026-03-24T09:18:31.002Z</time></trkpt><trkpt lat="43.53610542369037" lon="10.534441202967464"><ele>115.5</ele><time>2026-03-24T09:18:32.002Z</time></trkpt><trkpt lat="43.53616701861746" lon="10.534396369665668"><ele>114.0</ele><time>2026-03-24T09:18:33.002Z</time></trkpt><trkpt lat="43.53622094013334" lon="10.534330963638277"><ele>114.0</ele><time>2026-03-24T09:18:34.002Z</time></trkpt><trkpt lat="43.53632556658667" lon="10.53425260315366"><ele>114.0</ele><time>2026-03-24T09:18:36.002Z</time></trkpt><trkpt lat="43.536433030837415" lon="10.534213858206144"><ele>114.0</ele><time>2026-03-24T09:18:38.002Z</time></trkpt><trkpt lat="43.536547482162845" lon="10.534229179720086"><ele>114.0</ele><time>2026-03-24T09:18:40.002Z</time></trkpt><trkpt lat="43.5366707508739" lon="10.534246269550936"><ele>114.0</ele><time>2026-03-24T09:18:42.002Z</time></trkpt><trkpt lat="43.536789801721135" lon="10.53422587809469"><ele>114.0</ele><time>2026-03-24T09:18:44.002Z</time></trkpt><trkpt lat="43.53689686543316" lon="10.534178511116396"><ele>114.0</ele><time>2026-03-24T09:18:46.002Z</time></trkpt><trkpt lat="43.537000712563405" lon="10.534065961121147"><ele>114.0</ele><time>2026-03-24T09:18:48.002Z</time></trkpt><trkpt lat="43.53707224728397" lon="10.534006896314866"><ele>114.0</ele><time>2026-03-24T09:18:49.002Z</time></trkpt><trkpt lat="43.5371539505048" lon="10.533950897369568"><ele>111.80000000000001</ele><time>2026-03-24T09:18:50.002Z</time></trkpt><trkpt lat="43.53723909212954" lon="10.533903964455307"><ele>109.60000000000001</ele><time>2026-03-24T09:18:51.002Z</time></trkpt><trkpt lat="43.537324321879986" lon="10.533857626285792"><ele>107.4</ele><time>2026-03-24T09:18:52.002Z</time></trkpt><trkpt lat="43.53741368406984" lon="10.533813970423578"><ele>105.2</ele><time>2026-03-24T09:18:53.002Z</time></trkpt><trkpt lat="43.53750643261068" lon="10.533766736965914"><ele>103.0</ele><time>2026-03-24T09:18:54.002Z</time></trkpt><trkpt lat="43.53760056178306" lon="10.533713757868743"><ele>103.0</ele><time>2026-03-24T09:18:55.002Z</time></trkpt><trkpt lat="43.5376955556182" lon="10.533649356171674"><ele>103.0</ele><time>2026-03-24T09:18:56.002Z</time></trkpt><trkpt lat="43.537796582277295" lon="10.533587053881103"><ele>103.0</ele><time>2026-03-24T09:18:57.002Z</time></trkpt><trkpt lat="43.53790544225849" lon="10.533531456456647"><ele>103.0</ele><time>2026-03-24T09:18:58.002Z</time></trkpt><trkpt lat="43.538013199806755" lon="10.53347692042656"><ele>103.0</ele><time>2026-03-24T09:18:59.002Z</time></trkpt><trkpt lat="43.53811179697267" lon="10.533417992748896"><ele>101.2</ele><time>2026-03-24T09:19:00.002Z</time></trkpt><trkpt lat="43.53820002377747" lon="10.53335071108014"><ele>99.4</ele><time>2026-03-24T09:19:01.002Z</time></trkpt><trkpt lat="43.538279585041685" lon="10.533269773813297"><ele>97.60000000000001</ele><time>2026-03-24T09:19:02.002Z</time></trkpt><trkpt lat="43.53836343465766" lon="10.533165515263997"><ele>95.80000000000001</ele><time>2026-03-24T09:19:03.002Z</time></trkpt><trkpt lat="43.5384587007093" lon="10.533041877741605"><ele>94.0</ele><time>2026-03-24T09:19:04.002Z</time></trkpt><trkpt lat="43.53856553086794" lon="10.532904792024844"><ele>94.33333333333333</ele><time>2026-03-24T09:19:05.002Z</time></trkpt><trkpt lat="43.53867671550059" lon="10.53275256574146"><ele>94.66666666666667</ele><time>2026-03-24T09:19:06.002Z</time></trkpt><trkpt lat="43.538784967148985" lon="10.532597988309982"><ele>95.0</ele><time>2026-03-24T09:19:07.002Z</time></trkpt><trkpt lat="43.53889086814121" lon="10.532437356537065"><ele>95.0</ele><time>2026-03-24T09:19:08.002Z</time></trkpt><trkpt lat="43.53899421599298" lon="10.532280543111813"><ele>95.0</ele><time>2026-03-24T09:19:09.002Z</time></trkpt><trkpt lat="43.53909141125832" lon="10.532137750346566"><ele>95.0</ele><time>2026-03-24T09:19:10.002Z</time></trkpt><trkpt lat="43.539184557030545" lon="10.531993471151674"><ele>95.0</ele><time>2026-03-24T09:19:11.002Z</time></trkpt><trkpt lat="43.5392956368563" lon="10.531860104400927"><ele>93.66666666666667</ele><time>2026-03-24T09:19:12.002Z</time></trkpt><trkpt lat="43.539405524396464" lon="10.53170889624573"><ele>92.33333333333333</ele><time>2026-03-24T09:19:13.002Z</time></trkpt><trkpt lat="43.53950639859297" lon="10.531532873704768"><ele>91.0</ele><time>2026-03-24T09:19:14.002Z</time></trkpt><trkpt lat="43.53962136398625" lon="10.531386932670241"><ele>89.0</ele><time>2026-03-24T09:19:15.002Z</time></trkpt><trkpt lat="43.53971776404493" lon="10.531244564901522"><ele>87.0</ele><time>2026-03-24T09:19:16.002Z</time></trkpt><trkpt lat="43.53981040859298" lon="10.531107742912841"><ele>85.0</ele><time>2026-03-24T09:19:17.002Z</time></trkpt><trkpt lat="43.53981728034544" lon="10.530867994940643"><ele>85.0</ele><time>2026-03-24T09:19:18.002Z</time></trkpt><trkpt lat="43.53990690724097" lon="10.530756290660232"><ele>85.0</ele><time>2026-03-24T09:19:19.002Z</time></trkpt><trkpt lat="43.54001871060817" lon="10.530672111427231"><ele>85.0</ele><time>2026-03-24T09:19:20.001Z</time></trkpt><trkpt lat="43.54015754306558" lon="10.530599450841198"><ele>85.0</ele><time>2026-03-24T09:19:21.001Z</time></trkpt><trkpt lat="43.54030116487756" lon="10.530521043603134"><ele>86.0</ele><time>2026-03-24T09:19:22.001Z</time></trkpt><trkpt lat="43.540433051078324" lon="10.530429252401682"><ele>87.0</ele><time>2026-03-24T09:19:23.001Z</time></trkpt><trkpt lat="43.54057504217835" lon="10.530315834182034"><ele>88.0</ele><time>2026-03-24T09:19:24.001Z</time></trkpt><trkpt lat="43.54071847907454" lon="10.530201587324333"><ele>83.75</ele><time>2026-03-24T09:19:25.001Z</time></trkpt><trkpt lat="43.540856960669224" lon="10.530108360843963"><ele>79.5</ele><time>2026-03-24T09:19:26.001Z</time></trkpt><trkpt lat="43.540984084301115" lon="10.530024162713712"><ele>75.25</ele><time>2026-03-24T09:19:27.001Z</time></trkpt><trkpt lat="43.541091096668126" lon="10.529928973929009"><ele>71.0</ele><time>2026-03-24T09:19:28.001Z</time></trkpt><trkpt lat="43.54117331078586" lon="10.529821898184787"><ele>71.33333333333334</ele><time>2026-03-24T09:19:29.001Z</time></trkpt><trkpt lat="43.54122157250494" lon="10.529698355466547"><ele>71.66666666666667</ele><time>2026-03-24T09:19:30.001Z</time></trkpt><trkpt lat="43.541236596442225" lon="10.529573639863878"><ele>72.0</ele><time>2026-03-24T09:19:31.001Z</time></trkpt><trkpt lat="43.54123884159452" lon="10.529452970665748"><ele>72.33333333333333</ele><time>2026-03-24T09:19:32.001Z</time></trkpt><trkpt lat="43.541242699043195" lon="10.529351926456151"><ele>72.66666666666666</ele><time>2026-03-24T09:19:33.001Z</time></trkpt><trkpt lat="43.54125587801784" lon="10.529263291922593"><ele>73.0</ele><time>2026-03-24T09:19:34.001Z</time></trkpt><trkpt lat="43.5412905935214" lon="10.529161691409044"><ele>68.75</ele><time>2026-03-24T09:19:35.001Z</time></trkpt><trkpt lat="43.54134668976787" lon="10.5290416481983"><ele>64.5</ele><time>2026-03-24T09:19:36.001Z</time></trkpt><trkpt lat="43.54143416695602" lon="10.52892695926822"><ele>60.25</ele><time>2026-03-24T09:19:37.001Z</time></trkpt><trkpt lat="43.541551232854054" lon="10.528813367173289"><ele>56.0</ele><time>2026-03-24T09:19:38.001Z</time></trkpt><trkpt lat="43.54168307494647" lon="10.528695615177925"><ele>52.66666666666667</ele><time>2026-03-24T09:19:39.001Z</time></trkpt><trkpt lat="43.54181475699096" lon="10.528568480811332"><ele>49.333333333333336</ele><time>2026-03-24T09:19:40.001Z</time></trkpt><trkpt lat="43.541935439749196" lon="10.528445043448238"><ele>46.0</ele><time>2026-03-24T09:19:41.001Z</time></trkpt><trkpt lat="43.542061152243086" lon="10.528318656643457"><ele>45.5</ele><time>2026-03-24T09:19:42.001Z</time></trkpt><trkpt lat="43.54217722171463" lon="10.52820629733776"><ele>45.0</ele><time>2026-03-24T09:19:43.001Z</time></trkpt><trkpt lat="43.542299604951964" lon="10.528091936785696"><ele>44.5</ele><time>2026-03-24T09:19:44.001Z</time></trkpt><trkpt lat="43.542408717153876" lon="10.527970128992527"><ele>44.0</ele><time>2026-03-24T09:19:45.001Z</time></trkpt><trkpt lat="43.54250503282134" lon="10.52782770805889"><ele>43.5</ele><time>2026-03-24T09:19:46.001Z</time></trkpt><trkpt lat="43.54258192636769" lon="10.527650231510101"><ele>43.0</ele><time>2026-03-24T09:19:47.001Z</time></trkpt><trkpt lat="43.54263538122687" lon="10.52746873329438"><ele>42.5</ele><time>2026-03-24T09:19:48.001Z</time></trkpt><trkpt lat="43.54268629775066" lon="10.527301789982552"><ele>42.0</ele><time>2026-03-24T09:19:49.001Z</time></trkpt><trkpt lat="43.54274900276961" lon="10.527156403804312"><ele>42.0</ele><time>2026-03-24T09:19:50.001Z</time></trkpt><trkpt lat="43.542802785521786" lon="10.527067452465994"><ele>42.0</ele><time>2026-03-24T09:19:51.001Z</time></trkpt><trkpt lat="43.542914572213625" lon="10.526976242035595"><ele>42.0</ele><time>2026-03-24T09:19:58.001Z</time></trkpt><trkpt lat="43.543016280484075" lon="10.526898381142535"><ele>42.0</ele><time>2026-03-24T09:19:59.001Z</time></trkpt><trkpt lat="43.5431445672426" lon="10.526837772137322"><ele>41.8</ele><time>2026-03-24T09:20:00.001Z</time></trkpt><trkpt lat="43.54327380164225" lon="10.526793494137042"><ele>41.6</ele><time>2026-03-24T09:20:01.001Z</time></trkpt><trkpt lat="43.543379963080746" lon="10.52674764503584"><ele>41.4</ele><time>2026-03-24T09:20:02.001Z</time></trkpt><trkpt lat="43.543470327651825" lon="10.52670650011307"><ele>41.199999999999996</ele><time>2026-03-24T09:20:03.001Z</time></trkpt><trkpt lat="43.54355114677787" lon="10.526674766310062"><ele>41.0</ele><time>2026-03-24T09:20:04.001Z</time></trkpt><trkpt lat="43.54363039649299" lon="10.526647622098274"><ele>41.166666666666664</ele><time>2026-03-24T09:20:05.001Z</time></trkpt><trkpt lat="43.54371455179908" lon="10.526609575763565"><ele>41.33333333333333</ele><time>2026-03-24T09:20:06.001Z</time></trkpt><trkpt lat="43.54379134225026" lon="10.526577706855427"><ele>41.5</ele><time>2026-03-24T09:20:07.001Z</time></trkpt><trkpt lat="43.543859126535985" lon="10.526568339493373"><ele>41.666666666666664</ele><time>2026-03-24T09:20:08.001Z</time></trkpt><trkpt lat="43.54392426555508" lon="10.526568939518462"><ele>41.833333333333336</ele><time>2026-03-24T09:20:09.001Z</time></trkpt><trkpt lat="43.54402897643281" lon="10.52654110874888"><ele>42.0</ele><time>2026-03-24T09:20:11.001Z</time></trkpt><trkpt lat="43.54401218697854" lon="10.52628399966711"><ele>41.8</ele><time>2026-03-24T09:20:13.001Z</time></trkpt><trkpt lat="43.543999469245" lon="10.526194031953004"><ele>41.6</ele><time>2026-03-24T09:20:14.001Z</time></trkpt><trkpt lat="43.54398018605629" lon="10.526076193990702"><ele>41.4</ele><time>2026-03-24T09:22:00Z</time></trkpt><trkpt lat="43.543957092162515" lon="10.525961558822585"><ele>41.199999999999996</ele><time>2026-03-24T09:22:01Z</time></trkpt><trkpt lat="43.54393520848874" lon="10.525819557921414"><ele>41.0</ele><time>2026-03-24T09:22:02Z</time></trkpt><trkpt lat="43.543937811903405" lon="10.525673804621444"><ele>41.0</ele><time>2026-03-24T09:22:03Z</time></trkpt><trkpt lat="43.54396413909935" lon="10.5255384993866"><ele>41.0</ele><time>2026-03-24T09:22:04.001Z</time></trkpt><trkpt lat="43.54408664172916" lon="10.52541463480928"><ele>41.0</ele><time>2026-03-24T09:22:05.001Z</time></trkpt><trkpt lat="43.54424146721922" lon="10.525339688291897"><ele>41.0</ele><time>2026-03-24T09:22:06.001Z</time></trkpt><trkpt lat="43.54440588820119" lon="10.525242873408118"><ele>40.0</ele><time>2026-03-24T09:22:07.001Z</time></trkpt><trkpt lat="43.54459011444653" lon="10.525145747634848"><ele>39.0</ele><time>2026-03-24T09:22:08.001Z</time></trkpt><trkpt lat="43.544784135439954" lon="10.525024205779593"><ele>38.0</ele><time>2026-03-24T09:22:09.001Z</time></trkpt><trkpt lat="43.54497005484646" lon="10.524911189180592"><ele>38.0</ele><time>2026-03-24T09:22:10.001Z</time></trkpt><trkpt lat="43.545125074229624" lon="10.5248204553537"><ele>38.0</ele><time>2026-03-24T09:22:11.001Z</time></trkpt><trkpt lat="43.54528101529179" lon="10.52477215829252"><ele>38.0</ele><time>2026-03-24T09:22:12.001Z</time></trkpt><trkpt lat="43.545438957719306" lon="10.524803344233586"><ele>38.25</ele><time>2026-03-24T09:22:13.001Z</time></trkpt><trkpt lat="43.54557703695707" lon="10.524916702120445"><ele>38.5</ele><time>2026-03-24T09:22:14.001Z</time></trkpt><trkpt lat="43.545659489042265" lon="10.525071086737706"><ele>38.75</ele><time>2026-03-24T09:22:15.001Z</time></trkpt><trkpt lat="43.545682657226166" lon="10.525262447997024"><ele>39.0</ele><time>2026-03-24T09:22:16.001Z</time></trkpt><trkpt lat="43.54566617748597" lon="10.525458538476318"><ele>44.66666666666667</ele><time>2026-03-24T09:22:17.001Z</time></trkpt><trkpt lat="43.54559295570699" lon="10.525645783568788"><ele>50.333333333333336</ele><time>2026-03-24T09:22:18.001Z</time></trkpt><trkpt lat="43.545491651713284" lon="10.52585557274516"><ele>56.0</ele><time>2026-03-24T09:22:19.001Z</time></trkpt><trkpt lat="43.54538415886226" lon="10.526064294844003"><ele>55.25</ele><time>2026-03-24T09:22:20.001Z</time></trkpt><trkpt lat="43.54528132817303" lon="10.526280007666934"><ele>54.5</ele><time>2026-03-24T09:22:21.001Z</time></trkpt><trkpt lat="43.54519978466618" lon="10.526454358715009"><ele>53.75</ele><time>2026-03-24T09:22:22.001Z</time></trkpt><trkpt lat="43.54514754706133" lon="10.526564440219188"><ele>53.0</ele><time>2026-03-24T09:22:23.001Z</time></trkpt><trkpt lat="43.54510474317661" lon="10.526635655035266"><ele>53.00000000000001</ele><time>2026-03-24T09:22:24.001Z</time></trkpt><trkpt lat="43.545051967915086" lon="10.526716022335284"><ele>53.0</ele><time>2026-03-24T09:22:26.001Z</time></trkpt><trkpt lat="43.544977704371234" lon="10.526791951545553"><ele>53.0</ele><time>2026-03-24T09:22:28.001Z</time></trkpt><trkpt lat="43.54488075639302" lon="10.526857452544983"><ele>53.0</ele><time>2026-03-24T09:22:35.001Z</time></trkpt><trkpt lat="43.544814858076236" lon="10.526918427601794"><ele>53.00000000000001</ele><time>2026-03-24T09:22:36.001Z</time></trkpt><trkpt lat="43.54475516862083" lon="10.526979591503581"><ele>53.0</ele><time>2026-03-24T09:22:37.001Z</time></trkpt><trkpt lat="43.54467861548484" lon="10.527090129343295"><ele>56.75</ele><time>2026-03-24T09:22:38.001Z</time></trkpt><trkpt lat="43.54462685217991" lon="10.527243814147258"><ele>60.5</ele><time>2026-03-24T09:22:39.001Z</time></trkpt><trkpt lat="43.54457589310504" lon="10.52737560148756"><ele>64.25</ele><time>2026-03-24T09:22:40.001Z</time></trkpt><trkpt lat="43.54456779559775" lon="10.527523263022562"><ele>68.0</ele><time>2026-03-24T09:22:41.001Z</time></trkpt><trkpt lat="43.54460463271849" lon="10.527676063503197"><ele>68.0</ele><time>2026-03-24T09:22:42.001Z</time></trkpt><trkpt lat="43.544660720343046" lon="10.527833007673706"><ele>68.0</ele><time>2026-03-24T09:22:43.001Z</time></trkpt><trkpt lat="43.544704520427274" lon="10.527992631137868"><ele>68.0</ele><time>2026-03-24T09:22:44.001Z</time></trkpt><trkpt lat="43.544718430014214" lon="10.528146817838666"><ele>68.0</ele><time>2026-03-24T09:22:45.001Z</time></trkpt><trkpt lat="43.54471382806869" lon="10.528303220478094"><ele>70.2</ele><time>2026-03-24T09:22:46.001Z</time></trkpt><trkpt lat="43.54469492586673" lon="10.528456707258114"><ele>72.4</ele><time>2026-03-24T09:22:47.001Z</time></trkpt><trkpt lat="43.544673886456636" lon="10.528611901595815"><ele>74.60000000000001</ele><time>2026-03-24T09:22:48.001Z</time></trkpt><trkpt lat="43.544658101371695" lon="10.528754455011661"><ele>76.8</ele><time>2026-03-24T09:22:49.001Z</time></trkpt><trkpt lat="43.54465449574166" lon="10.528903647544936"><ele>79.0</ele><time>2026-03-24T09:22:50.001Z</time></trkpt><trkpt lat="43.54466891648739" lon="10.529064667724636"><ele>79.75</ele><time>2026-03-24T09:22:51.001Z</time></trkpt><trkpt lat="43.54470042573062" lon="10.529237246404882"><ele>80.5</ele><time>2026-03-24T09:22:52.001Z</time></trkpt><trkpt lat="43.54473886878661" lon="10.529396819112458"><ele>81.25</ele><time>2026-03-24T09:22:53.001Z</time></trkpt><trkpt lat="43.54476790224105" lon="10.529538944880002"><ele>82.0</ele><time>2026-03-24T09:22:54.001Z</time></trkpt><trkpt lat="43.544799996465095" lon="10.529666060389339"><ele>79.5</ele><time>2026-03-24T09:22:55.001Z</time></trkpt><trkpt lat="43.54485378708113" lon="10.52978756595515"><ele>77.0</ele><time>2026-03-24T09:22:56.001Z</time></trkpt><trkpt lat="43.544936241592815" lon="10.52988565859598"><ele>74.5</ele><time>2026-03-24T09:22:57.001Z</time></trkpt><trkpt lat="43.54504315727407" lon="10.529964003535147"><ele>72.0</ele><time>2026-03-24T09:22:58.001Z</time></trkpt><trkpt lat="43.54515401040127" lon="10.530027857820492"><ele>72.0</ele><time>2026-03-24T09:22:59.001Z</time></trkpt><trkpt lat="43.54525264743871" lon="10.530096399643178"><ele>72.0</ele><time>2026-03-24T09:23:00.001Z</time></trkpt><trkpt lat="43.54534590488405" lon="10.530185794624982"><ele>72.0</ele><time>2026-03-24T09:23:01.001Z</time></trkpt><trkpt lat="43.54543403288427" lon="10.530300416362468"><ele>72.0</ele><time>2026-03-24T09:23:02.001Z</time></trkpt><trkpt lat="43.54551085604667" lon="10.530435139039474"><ele>76.25</ele><time>2026-03-24T09:23:03.001Z</time></trkpt><trkpt lat="43.545578737990695" lon="10.530579843566946"><ele>80.5</ele><time>2026-03-24T09:23:04.001Z</time></trkpt><trkpt lat="43.54564955415942" lon="10.530726188809416"><ele>84.75</ele><time>2026-03-24T09:23:05.001Z</time></trkpt><trkpt lat="43.54573241973035" lon="10.530865550517664"><ele>89.0</ele><time>2026-03-24T09:23:06.001Z</time></trkpt><trkpt lat="43.54582517150327" lon="10.531002594839045"><ele>89.0</ele><time>2026-03-24T09:23:07.001Z</time></trkpt><trkpt lat="43.545940341841344" lon="10.531155806249512"><ele>89.0</ele><time>2026-03-24T09:23:08.001Z</time></trkpt><trkpt lat="43.54606585974303" lon="10.53135908350049"><ele>89.0</ele><time>2026-03-24T09:23:09.001Z</time></trkpt><trkpt lat="43.546212660326056" lon="10.531571748779701"><ele>91.33333333333334</ele><time>2026-03-24T09:23:10.001Z</time></trkpt><trkpt lat="43.54633299761866" lon="10.531828156150617"><ele>93.66666666666667</ele><time>2026-03-24T09:23:11.001Z</time></trkpt><trkpt lat="43.54643536485141" lon="10.532049970482387"><ele>96.0</ele><time>2026-03-24T09:23:12.001Z</time></trkpt><trkpt lat="43.546535044918315" lon="10.532247197237844"><ele>96.0</ele><time>2026-03-24T09:23:13.001Z</time></trkpt><trkpt lat="43.546643626638996" lon="10.532406117031456"><ele>96.0</ele><time>2026-03-24T09:23:14.001Z</time></trkpt><trkpt lat="43.546784058464674" lon="10.532486138742327"><ele>96.0</ele><time>2026-03-24T09:23:15.001Z</time></trkpt><trkpt lat="43.54694623280758" lon="10.532505669862218"><ele>96.66666666666666</ele><time>2026-03-24T09:23:16.001Z</time></trkpt><trkpt lat="43.54711082404612" lon="10.532455575936286"><ele>97.33333333333333</ele><time>2026-03-24T09:23:17.001Z</time></trkpt><trkpt lat="43.54728623120056" lon="10.53236218465179"><ele>98.0</ele><time>2026-03-24T09:23:18.001Z</time></trkpt><trkpt lat="43.547472862274795" lon="10.532252880286471"><ele>98.0</ele><time>2026-03-24T09:23:19.001Z</time></trkpt><trkpt lat="43.5476561417459" lon="10.53213478641622"><ele>98.0</ele><time>2026-03-24T09:23:20.001Z</time></trkpt><trkpt lat="43.54781952451072" lon="10.532035566687147"><ele>98.0</ele><time>2026-03-24T09:23:21.001Z</time></trkpt><trkpt lat="43.547970809990424" lon="10.531960897600348"><ele>98.0</ele><time>2026-03-24T09:23:22.001Z</time></trkpt><trkpt lat="43.54812657881848" lon="10.531982283936003"><ele>98.0</ele><time>2026-03-24T09:23:23.001Z</time></trkpt><trkpt lat="43.5482726417905" lon="10.532043883296495"><ele>98.0</ele><time>2026-03-24T09:23:24.001Z</time></trkpt><trkpt lat="43.54844465991317" lon="10.532169457086894"><ele>99.0</ele><time>2026-03-24T09:23:25Z</time></trkpt><trkpt lat="43.548627757781034" lon="10.532370517676968"><ele>100.0</ele><time>2026-03-24T09:23:26Z</time></trkpt><trkpt lat="43.5488030201702" lon="10.53259752285744"><ele>98.5</ele><time>2026-03-24T09:23:27Z</time></trkpt><trkpt lat="43.548980545970345" lon="10.53285110399405"><ele>97.0</ele><time>2026-03-24T09:23:28Z</time></trkpt><trkpt lat="43.54916578543797" lon="10.533105261312281"><ele>97.0</ele><time>2026-03-24T09:23:29Z</time></trkpt><trkpt lat="43.54938411617175" lon="10.533357213235398"><ele>97.0</ele><time>2026-03-24T09:23:30Z</time></trkpt><trkpt lat="43.549624072682704" lon="10.533584344583444"><ele>98.0</ele><time>2026-03-24T09:23:31Z</time></trkpt><trkpt lat="43.54987402206792" lon="10.53380520942234"><ele>99.0</ele><time>2026-03-24T09:23:32Z</time></trkpt><trkpt lat="43.55013356259773" lon="10.53404209978025"><ele>91.5</ele><time>2026-03-24T09:23:33Z</time></trkpt><trkpt lat="43.550391839085044" lon="10.53428438315835"><ele>84.0</ele><time>2026-03-24T09:23:34Z</time></trkpt><trkpt lat="43.550652414253946" lon="10.53453304844617"><ele>92.5</ele><time>2026-03-24T09:23:35Z</time></trkpt><trkpt lat="43.550918458403864" lon="10.534782439519349"><ele>101.0</ele><time>2026-03-24T09:23:36Z</time></trkpt><trkpt lat="43.551187082294675" lon="10.53500328776678"><ele>94.5</ele><time>2026-03-24T09:23:37Z</time></trkpt><trkpt lat="43.55145329177372" lon="10.535151774119944"><ele>88.0</ele><time>2026-03-24T09:23:38Z</time></trkpt><trkpt lat="43.55169749409942" lon="10.535247679872494"><ele>88.0</ele><time>2026-03-24T09:23:39Z</time></trkpt><trkpt lat="43.55190948535234" lon="10.53531644443023"><ele>88.0</ele><time>2026-03-24T09:23:40Z</time></trkpt><trkpt lat="43.55212464665669" lon="10.53533519739389"><ele>88.0</ele><time>2026-03-24T09:23:41Z</time></trkpt><trkpt lat="43.55233625100868" lon="10.535279294962589"><ele>85.0</ele><time>2026-03-24T09:23:42Z</time></trkpt><trkpt lat="43.552541253954324" lon="10.535223488537634"><ele>82.0</ele><time>2026-03-24T09:23:43Z</time></trkpt><trkpt lat="43.55271918779109" lon="10.535303954233743"><ele>79.0</ele><time>2026-03-24T09:23:44Z</time></trkpt><trkpt lat="43.55290712002495" lon="10.535448408344667"><ele>79.0</ele><time>2026-03-24T09:23:45Z</time></trkpt><trkpt lat="43.553136370364804" lon="10.535591409768454"><ele>79.0</ele><time>2026-03-24T09:23:46Z</time></trkpt><trkpt lat="43.55336886831325" lon="10.535781368448351"><ele>79.0</ele><time>2026-03-24T09:23:47Z</time></trkpt><trkpt lat="43.553604668107184" lon="10.535948021278928"><ele>79.0</ele><time>2026-03-24T09:23:48Z</time></trkpt><trkpt lat="43.55381385360597" lon="10.53609252956697"><ele>77.0</ele><time>2026-03-24T09:23:49Z</time></trkpt><trkpt lat="43.5539988233376" lon="10.536217215009641"><ele>75.0</ele><time>2026-03-24T09:23:50Z</time></trkpt><trkpt lat="43.55419230065367" lon="10.536285866188477"><ele>73.0</ele><time>2026-03-24T09:23:51Z</time></trkpt><trkpt lat="43.55442403861395" lon="10.536283705940392"><ele>68.5</ele><time>2026-03-24T09:23:52Z</time></trkpt><trkpt lat="43.55469593507854" lon="10.53624216690398"><ele>64.0</ele><time>2026-03-24T09:23:53Z</time></trkpt><trkpt lat="43.55498624809499" lon="10.5362154865702"><ele>63.5</ele><time>2026-03-24T09:23:54Z</time></trkpt><trkpt lat="43.55528902461972" lon="10.536217573283114"><ele>63.0</ele><time>2026-03-24T09:23:55Z</time></trkpt><trkpt lat="43.55559626269995" lon="10.536232958968801"><ele>61.0</ele><time>2026-03-24T09:23:56Z</time></trkpt><trkpt lat="43.55591040389128" lon="10.536242187126575"><ele>59.0</ele><time>2026-03-24T09:23:57Z</time></trkpt><trkpt lat="43.556240973031166" lon="10.536250875688951"><ele>56.5</ele><time>2026-03-24T09:23:58Z</time></trkpt><trkpt lat="43.556576076132934" lon="10.53626115261773"><ele>54.0</ele><time>2026-03-24T09:23:59Z</time></trkpt><trkpt lat="43.55691356664126" lon="10.536268292934603"><ele>52.0</ele><time>2026-03-24T09:24:00Z</time></trkpt><trkpt lat="43.55723581784746" lon="10.53627251124552"><ele>50.0</ele><time>2026-03-24T09:24:01Z</time></trkpt><trkpt lat="43.557533091402064" lon="10.536282661994157"><ele>50.0</ele><time>2026-03-24T09:24:02Z</time></trkpt><trkpt lat="43.557832611748665" lon="10.536298029516026"><ele>50.0</ele><time>2026-03-24T09:24:03Z</time></trkpt><trkpt lat="43.5581343093873" lon="10.536317362276355"><ele>49.0</ele><time>2026-03-24T09:24:04Z</time></trkpt><trkpt lat="43.55843457767257" lon="10.536392298954134"><ele>48.0</ele><time>2026-03-24T09:24:05Z</time></trkpt><trkpt lat="43.5587209220074" lon="10.536537939704715"><ele>46.5</ele><time>2026-03-24T09:24:06Z</time></trkpt><trkpt lat="43.5590141208401" lon="10.53671434713749"><ele>45.0</ele><time>2026-03-24T09:24:07Z</time></trkpt><trkpt lat="43.55931733232255" lon="10.536878545332897"><ele>43.5</ele><time>2026-03-24T09:24:08Z</time></trkpt><trkpt lat="43.55958983626484" lon="10.53702220431837"><ele>42.0</ele><time>2026-03-24T09:24:09Z</time></trkpt><trkpt lat="43.55984195660993" lon="10.537151525994723"><ele>41.5</ele><time>2026-03-24T09:24:10Z</time></trkpt><trkpt lat="43.560097956836266" lon="10.537243772394941"><ele>41.0</ele><time>2026-03-24T09:24:11Z</time></trkpt><trkpt lat="43.56036160376809" lon="10.537264695405739"><ele>39.0</ele><time>2026-03-24T09:24:12Z</time></trkpt><trkpt lat="43.56062839066394" lon="10.537205973625408"><ele>37.0</ele><time>2026-03-24T09:24:13Z</time></trkpt><trkpt lat="43.56089349537395" lon="10.537056722247103"><ele>37.5</ele><time>2026-03-24T09:24:14Z</time></trkpt><trkpt lat="43.56117912644325" lon="10.536866928764233"><ele>38.0</ele><time>2026-03-24T09:24:15Z</time></trkpt><trkpt lat="43.56144507226463" lon="10.536655200904152"><ele>38.0</ele><time>2026-03-24T09:24:16Z</time></trkpt><trkpt lat="43.56172449932576" lon="10.536443844714077"><ele>38.0</ele><time>2026-03-24T09:24:17Z</time></trkpt><trkpt lat="43.562004194551406" lon="10.536239781574936"><ele>36.5</ele><time>2026-03-24T09:24:18Z</time></trkpt><trkpt lat="43.56228144000862" lon="10.536040198795101"><ele>35.0</ele><time>2026-03-24T09:24:19Z</time></trkpt><trkpt lat="43.562565150424476" lon="10.53583817835716"><ele>35.0</ele><time>2026-03-24T09:24:20Z</time></trkpt><trkpt lat="43.562857736519824" lon="10.535630131949967"><ele>35.0</ele><time>2026-03-24T09:24:21Z</time></trkpt><trkpt lat="43.5631508635118" lon="10.535422790330486"><ele>35.0</ele><time>2026-03-24T09:24:22Z</time></trkpt><trkpt lat="43.56344809137459" lon="10.53520990100539"><ele>35.0</ele><time>2026-03-24T09:24:23Z</time></trkpt><trkpt lat="43.56374447918151" lon="10.534974724970507"><ele>34.5</ele><time>2026-03-24T09:24:24Z</time></trkpt><trkpt lat="43.564027711622515" lon="10.534705042739171"><ele>34.0</ele><time>2026-03-24T09:24:25Z</time></trkpt><trkpt lat="43.56429360282369" lon="10.534426133719947"><ele>34.0</ele><time>2026-03-24T09:24:26Z</time></trkpt><trkpt lat="43.56453591464502" lon="10.534174999092357"><ele>34.0</ele><time>2026-03-24T09:24:27Z</time></trkpt><trkpt lat="43.56475975128166" lon="10.53395638544987"><ele>34.0</ele><time>2026-03-24T09:24:28Z</time></trkpt><trkpt lat="43.56499209018627" lon="10.533734325711835"><ele>34.0</ele><time>2026-03-24T09:24:29Z</time></trkpt><trkpt lat="43.56525695156487" lon="10.533549722570163"><ele>35.0</ele><time>2026-03-24T09:24:30Z</time></trkpt><trkpt lat="43.56553558376672" lon="10.533439574186497"><ele>36.0</ele><time>2026-03-24T09:24:31Z</time></trkpt><trkpt lat="43.56582949930663" lon="10.533429618085293"><ele>36.0</ele><time>2026-03-24T09:24:32Z</time></trkpt><trkpt lat="43.56613629878324" lon="10.533450657291784"><ele>36.0</ele><time>2026-03-24T09:24:33Z</time></trkpt><trkpt lat="43.56645767397832" lon="10.533473091986997"><ele>36.5</ele><time>2026-03-24T09:24:34Z</time></trkpt><trkpt lat="43.56677500244213" lon="10.53348312186475"><ele>37.0</ele><time>2026-03-24T09:24:35Z</time></trkpt><trkpt lat="43.56710184507121" lon="10.533487637695224"><ele>37.0</ele><time>2026-03-24T09:24:36Z</time></trkpt><trkpt lat="43.56743491338424" lon="10.533491921855713"><ele>37.0</ele><time>2026-03-24T09:24:37Z</time></trkpt><trkpt lat="43.56776097703363" lon="10.533495727386436"><ele>38.5</ele><time>2026-03-24T09:24:38Z</time></trkpt><trkpt lat="43.56806072287204" lon="10.533504072021834"><ele>40.0</ele><time>2026-03-24T09:24:39.001Z</time></trkpt><trkpt lat="43.56836108681628" lon="10.533523992966327"><ele>40.0</ele><time>2026-03-24T09:24:40.001Z</time></trkpt><trkpt lat="43.56865944126717" lon="10.533613400668761"><ele>40.0</ele><time>2026-03-24T09:24:41.001Z</time></trkpt><trkpt lat="43.56894890259335" lon="10.533781199344412"><ele>40.5</ele><time>2026-03-24T09:24:42.001Z</time></trkpt><trkpt lat="43.56922798062637" lon="10.5340001401699"><ele>41.0</ele><time>2026-03-24T09:24:43.001Z</time></trkpt><trkpt lat="43.56949491949613" lon="10.534241304338007"><ele>40.0</ele><time>2026-03-24T09:24:44.001Z</time></trkpt><trkpt lat="43.56974139608444" lon="10.534436962139843"><ele>39.0</ele><time>2026-03-24T09:24:45.001Z</time></trkpt><trkpt lat="43.57000248472779" lon="10.53464130476958"><ele>37.5</ele><time>2026-03-24T09:24:46.001Z</time></trkpt><trkpt lat="43.57024931868812" lon="10.534830825674643"><ele>36.0</ele><time>2026-03-24T09:24:47.001Z</time></trkpt><trkpt lat="43.57050568472738" lon="10.53500219929025"><ele>35.5</ele><time>2026-03-24T09:24:48.001Z</time></trkpt><trkpt lat="43.57078462436451" lon="10.53515205946603"><ele>35.0</ele><time>2026-03-24T09:24:49.001Z</time></trkpt><trkpt lat="43.57108431628239" lon="10.535287832166462"><ele>34.5</ele><time>2026-03-24T09:24:50.001Z</time></trkpt><trkpt lat="43.57139553867997" lon="10.535407451293118"><ele>34.0</ele><time>2026-03-24T09:24:51.001Z</time></trkpt><trkpt lat="43.57171795393048" lon="10.535516169884723"><ele>32.5</ele><time>2026-03-24T09:24:52.001Z</time></trkpt><trkpt lat="43.57202928992262" lon="10.53556572542143"><ele>31.0</ele><time>2026-03-24T09:24:53.001Z</time></trkpt><trkpt lat="43.572350274886084" lon="10.535576595184732"><ele>31.0</ele><time>2026-03-24T09:24:54.001Z</time></trkpt><trkpt lat="43.57267768256329" lon="10.535542602990493"><ele>31.0</ele><time>2026-03-24T09:24:55.001Z</time></trkpt><trkpt lat="43.57300717458331" lon="10.535457922414963"><ele>30.0</ele><time>2026-03-24T09:24:56.001Z</time></trkpt><trkpt lat="43.57333402360559" lon="10.535334204341906"><ele>29.0</ele><time>2026-03-24T09:24:57.001Z</time></trkpt><trkpt lat="43.57366247620917" lon="10.535192035574417"><ele>29.0</ele><time>2026-03-24T09:24:58.001Z</time></trkpt><trkpt lat="43.573990643198094" lon="10.535042422409235"><ele>29.0</ele><time>2026-03-24T09:24:59.001Z</time></trkpt><trkpt lat="43.57432244177832" lon="10.534895859208515"><ele>28.5</ele><time>2026-03-24T09:25:00.001Z</time></trkpt><trkpt lat="43.57465917333367" lon="10.534750138109226"><ele>28.0</ele><time>2026-03-24T09:25:01.001Z</time></trkpt><trkpt lat="43.57499669129956" lon="10.534609406660554"><ele>27.5</ele><time>2026-03-24T09:25:02.001Z</time></trkpt><trkpt lat="43.575333028276276" lon="10.534469805647877"><ele>27.0</ele><time>2026-03-24T09:25:03.001Z</time></trkpt><trkpt lat="43.57567427579501" lon="10.534326707381663"><ele>27.0</ele><time>2026-03-24T09:25:04.001Z</time></trkpt><trkpt lat="43.57601532013699" lon="10.534183292899435"><ele>27.0</ele><time>2026-03-24T09:25:05.001Z</time></trkpt><trkpt lat="43.57635699425446" lon="10.534036330451805"><ele>27.0</ele><time>2026-03-24T09:25:06.001Z</time></trkpt><trkpt lat="43.576700066816315" lon="10.533891559272735"><ele>27.0</ele><time>2026-03-24T09:25:07.001Z</time></trkpt><trkpt lat="43.577047712792144" lon="10.533746968177752"><ele>26.5</ele><time>2026-03-24T09:25:08.001Z</time></trkpt><trkpt lat="43.5773977733275" lon="10.533603382685152"><ele>26.0</ele><time>2026-03-24T09:25:09.001Z</time></trkpt><trkpt lat="43.57774874777994" lon="10.533458913991579"><ele>26.5</ele><time>2026-03-24T09:25:10.001Z</time></trkpt><trkpt lat="43.57810189704502" lon="10.533322740080582"><ele>27.0</ele><time>2026-03-24T09:25:11.001Z</time></trkpt><trkpt lat="43.5784541663289" lon="10.533170103007294"><ele>26.5</ele><time>2026-03-24T09:25:12.001Z</time></trkpt><trkpt lat="43.57881180922707" lon="10.533019828487653"><ele>26.0</ele><time>2026-03-24T09:25:13.001Z</time></trkpt><trkpt lat="43.57916683021432" lon="10.532872360484948"><ele>25.5</ele><time>2026-03-24T09:25:14.001Z</time></trkpt><trkpt lat="43.579524246402364" lon="10.532722456848694"><ele>25.0</ele><time>2026-03-24T09:25:15.001Z</time></trkpt><trkpt lat="43.57988100732274" lon="10.532575670168782"><ele>25.0</ele><time>2026-03-24T09:25:16.001Z</time></trkpt><trkpt lat="43.580241685659466" lon="10.53243059871779"><ele>25.0</ele><time>2026-03-24T09:25:17.001Z</time></trkpt><trkpt lat="43.58060071258538" lon="10.532285661748597"><ele>25.5</ele><time>2026-03-24T09:25:18.001Z</time></trkpt><trkpt lat="43.580959260060034" lon="10.53213937579388"><ele>26.0</ele><time>2026-03-24T09:25:19.001Z</time></trkpt><trkpt lat="43.58131451738813" lon="10.53199023516268"><ele>25.0</ele><time>2026-03-24T09:25:20.001Z</time></trkpt><trkpt lat="43.58166996637284" lon="10.531841791425206"><ele>24.0</ele><time>2026-03-24T09:25:21.001Z</time></trkpt><trkpt lat="43.58202715737863" lon="10.53169327842043"><ele>24.0</ele><time>2026-03-24T09:25:22.001Z</time></trkpt><trkpt lat="43.582381963298594" lon="10.531545331100466"><ele>24.0</ele><time>2026-03-24T09:25:23.001Z</time></trkpt><trkpt lat="43.582740378791975" lon="10.5313956537614"><ele>24.5</ele><time>2026-03-24T09:25:24.001Z</time></trkpt><trkpt lat="43.583093945359586" lon="10.531250291278818"><ele>25.0</ele><time>2026-03-24T09:25:25.001Z</time></trkpt><trkpt lat="43.58344255120532" lon="10.531105959691738"><ele>24.5</ele><time>2026-03-24T09:25:26.001Z</time></trkpt><trkpt lat="43.583794343649124" lon="10.53096340458395"><ele>24.0</ele><time>2026-03-24T09:25:27.001Z</time></trkpt><trkpt lat="43.584144812407445" lon="10.530819503088118"><ele>24.0</ele><time>2026-03-24T09:25:28.001Z</time></trkpt><trkpt lat="43.58449379752612" lon="10.530675048735203"><ele>24.0</ele><time>2026-03-24T09:25:29.001Z</time></trkpt><trkpt lat="43.5848428708146" lon="10.530528708645807"><ele>23.0</ele><time>2026-03-24T09:25:30.001Z</time></trkpt><trkpt lat="43.585194282708024" lon="10.530380195607192"><ele>22.0</ele><time>2026-03-24T09:25:31.001Z</time></trkpt><trkpt lat="43.58554473989866" lon="10.530238716026068"><ele>22.0</ele><time>2026-03-24T09:25:32.001Z</time></trkpt><trkpt lat="43.58589468476991" lon="10.530099489582643"><ele>22.0</ele><time>2026-03-24T09:25:33.001Z</time></trkpt><trkpt lat="43.586243570818425" lon="10.52996023634413"><ele>22.5</ele><time>2026-03-24T09:25:34.001Z</time></trkpt><trkpt lat="43.586586505169606" lon="10.529820850914625"><ele>23.0</ele><time>2026-03-24T09:25:35.001Z</time></trkpt><trkpt lat="43.5869158172908" lon="10.529689128276912"><ele>22.5</ele><time>2026-03-24T09:25:36.001Z</time></trkpt><trkpt lat="43.58724273849107" lon="10.529557084876764"><ele>22.0</ele><time>2026-03-24T09:25:37.001Z</time></trkpt><trkpt lat="43.587553756589415" lon="10.529426506163375"><ele>22.0</ele><time>2026-03-24T09:25:38.001Z</time></trkpt><trkpt lat="43.58783226808855" lon="10.529304947415685"><ele>22.0</ele><time>2026-03-24T09:25:39.001Z</time></trkpt><trkpt lat="43.58809141769758" lon="10.529194255450939"><ele>22.0</ele><time>2026-03-24T09:25:40.001Z</time></trkpt><trkpt lat="43.58833423923423" lon="10.529097712142715"><ele>22.0</ele><time>2026-03-24T09:25:41.001Z</time></trkpt><trkpt lat="43.588590796808084" lon="10.529017822589337"><ele>21.5</ele><time>2026-03-24T09:25:42.001Z</time></trkpt><trkpt lat="43.5888605671053" lon="10.528978992787076"><ele>21.0</ele><time>2026-03-24T09:25:43.001Z</time></trkpt><trkpt lat="43.58908271949556" lon="10.528903861123393"><ele>21.0</ele><time>2026-03-24T09:25:44.001Z</time></trkpt><trkpt lat="43.589345316915605" lon="10.529098994147668"><ele>21.0</ele><time>2026-03-24T09:25:45.001Z</time></trkpt><trkpt lat="43.58958100400221" lon="10.529194532983931"><ele>20.666666666666668</ele><time>2026-03-24T09:25:46Z</time></trkpt><trkpt lat="43.589780879934125" lon="10.529287264630025"><ele>20.333333333333336</ele><time>2026-03-24T09:25:47Z</time></trkpt><trkpt lat="43.58995999517364" lon="10.529364719791683"><ele>20.0</ele><time>2026-03-24T09:25:48Z</time></trkpt><trkpt lat="43.59013902235124" lon="10.529430811547487"><ele>20.0</ele><time>2026-03-24T09:25:49Z</time></trkpt><trkpt lat="43.59032311993251" lon="10.529501214888711"><ele>20.0</ele><time>2026-03-24T09:25:50Z</time></trkpt><trkpt lat="43.59052558886947" lon="10.529548177348751"><ele>20.0</ele><time>2026-03-24T09:25:51Z</time></trkpt><trkpt lat="43.59076041215271" lon="10.529555408985347"><ele>21.0</ele><time>2026-03-24T09:25:52Z</time></trkpt><trkpt lat="43.59102080454255" lon="10.52953542893053"><ele>22.0</ele><time>2026-03-24T09:25:53Z</time></trkpt><trkpt lat="43.59129315908218" lon="10.529495990415862"><ele>22.0</ele><time>2026-03-24T09:25:54Z</time></trkpt><trkpt lat="43.59157206779213" lon="10.529443539276615"><ele>22.0</ele><time>2026-03-24T09:25:55Z</time></trkpt><trkpt lat="43.591857620715395" lon="10.529390993895664"><ele>21.0</ele><time>2026-03-24T09:25:56Z</time></trkpt><trkpt lat="43.59216372852536" lon="10.529358263374851"><ele>20.0</ele><time>2026-03-24T09:25:57Z</time></trkpt><trkpt lat="43.59247847220675" lon="10.529317206355831"><ele>20.0</ele><time>2026-03-24T09:25:58Z</time></trkpt><trkpt lat="43.59279223459408" lon="10.529264008960372"><ele>20.0</ele><time>2026-03-24T09:25:59Z</time></trkpt><trkpt lat="43.593108957158634" lon="10.52920168263859"><ele>19.5</ele><time>2026-03-24T09:26:00Z</time></trkpt><trkpt lat="43.59343922684387" lon="10.529134431438521"><ele>19.0</ele><time>2026-03-24T09:26:01Z</time></trkpt><trkpt lat="43.593798110193994" lon="10.529074869598649"><ele>18.5</ele><time>2026-03-24T09:26:02Z</time></trkpt><trkpt lat="43.59409655536641" lon="10.52901615293396"><ele>18.0</ele><time>2026-03-24T09:26:03Z</time></trkpt><trkpt lat="43.59439117912965" lon="10.528967488442108"><ele>18.0</ele><time>2026-03-24T09:26:04Z</time></trkpt><trkpt lat="43.59465399112502" lon="10.528916840065381"><ele>18.0</ele><time>2026-03-24T09:26:05Z</time></trkpt><trkpt lat="43.594874408084145" lon="10.52887798131327"><ele>18.0</ele><time>2026-03-24T09:26:06Z</time></trkpt><trkpt lat="43.595076860486685" lon="10.528844038893496"><ele>18.0</ele><time>2026-03-24T09:26:07Z</time></trkpt><trkpt lat="43.59524662306186" lon="10.52881616923578"><ele>18.0</ele><time>2026-03-24T09:26:08Z</time></trkpt><trkpt lat="43.59541080227976" lon="10.528785448627236"><ele>18.0</ele><time>2026-03-24T09:26:09Z</time></trkpt><trkpt lat="43.59558256030096" lon="10.528735060944637"><ele>18.0</ele><time>2026-03-24T09:26:10Z</time></trkpt><trkpt lat="43.59580495865848" lon="10.528642164656956"><ele>18.0</ele><time>2026-03-24T09:26:11Z</time></trkpt><trkpt lat="43.596039454744215" lon="10.528513985467228"><ele>17.5</ele><time>2026-03-24T09:26:12Z</time></trkpt><trkpt lat="43.59628053989214" lon="10.528385481251682"><ele>17.0</ele><time>2026-03-24T09:26:13Z</time></trkpt><trkpt lat="43.59652602021625" lon="10.528229650047006"><ele>17.0</ele><time>2026-03-24T09:26:14Z</time></trkpt><trkpt lat="43.59678114052536" lon="10.528049063953723"><ele>17.0</ele><time>2026-03-24T09:26:15Z</time></trkpt><trkpt lat="43.59703229949266" lon="10.527868805946047"><ele>17.0</ele><time>2026-03-24T09:26:16Z</time></trkpt><trkpt lat="43.59730386027975" lon="10.52767699883712"><ele>17.0</ele><time>2026-03-24T09:26:17.001Z</time></trkpt><trkpt lat="43.59758781094012" lon="10.527484110920978"><ele>16.5</ele><time>2026-03-24T09:26:18.001Z</time></trkpt><trkpt lat="43.59787453466133" lon="10.527292155136468"><ele>16.0</ele><time>2026-03-24T09:26:19.001Z</time></trkpt><trkpt lat="43.598160137968506" lon="10.527101891767744"><ele>16.0</ele><time>2026-03-24T09:26:20.001Z</time></trkpt><trkpt lat="43.598458053868896" lon="10.526894618478279"><ele>16.0</ele><time>2026-03-24T09:26:21.001Z</time></trkpt><trkpt lat="43.598798827777" lon="10.526654532787482"><ele>16.0</ele><time>2026-03-24T09:26:22.001Z</time></trkpt><trkpt lat="43.59915627697831" lon="10.526383701924802"><ele>16.0</ele><time>2026-03-24T09:26:23.001Z</time></trkpt><trkpt lat="43.59928288781455" lon="10.526237003505143"><ele>15.0</ele><time>2026-03-24T09:26:24.001Z</time></trkpt><trkpt lat="43.59952682910917" lon="10.52594355814674"><ele>14.0</ele><time>2026-03-24T09:26:25.001Z</time></trkpt><trkpt lat="43.599755080798644" lon="10.52561711958739"><ele>14.5</ele><time>2026-03-24T09:26:26.001Z</time></trkpt><trkpt lat="43.59999348824831" lon="10.525300351695746"><ele>15.0</ele><time>2026-03-24T09:26:27.001Z</time></trkpt><trkpt lat="43.60024615103992" lon="10.524983472759226"><ele>15.5</ele><time>2026-03-24T09:26:28.001Z</time></trkpt><trkpt lat="43.6005012103369" lon="10.524672700199968"><ele>16.0</ele><time>2026-03-24T09:26:29.001Z</time></trkpt><trkpt lat="43.60076548478156" lon="10.524375577258205"><ele>16.0</ele><time>2026-03-24T09:26:30.001Z</time></trkpt><trkpt lat="43.60104888974765" lon="10.524105486033365"><ele>16.0</ele><time>2026-03-24T09:26:31.001Z</time></trkpt><trkpt lat="43.60133474669963" lon="10.523835887453155"><ele>21.5</ele><time>2026-03-24T09:26:32.001Z</time></trkpt><trkpt lat="43.60160391390723" lon="10.523574666382762"><ele>27.0</ele><time>2026-03-24T09:26:33.001Z</time></trkpt><trkpt lat="43.60186574058496" lon="10.523327888309835"><ele>21.0</ele><time>2026-03-24T09:26:34.001Z</time></trkpt><trkpt lat="43.60212642857151" lon="10.52310206758407"><ele>15.0</ele><time>2026-03-24T09:26:35.001Z</time></trkpt><trkpt lat="43.60241165674042" lon="10.522921921435527"><ele>15.0</ele><time>2026-03-24T09:26:36.001Z</time></trkpt><trkpt lat="43.602720578272596" lon="10.522797635621197"><ele>15.0</ele><time>2026-03-24T09:26:37.001Z</time></trkpt><trkpt lat="43.60303897007326" lon="10.522733572896138"><ele>15.0</ele><time>2026-03-24T09:26:38.001Z</time></trkpt><trkpt lat="43.60336086558514" lon="10.522728804795046"><ele>15.0</ele><time>2026-03-24T09:26:39.001Z</time></trkpt><trkpt lat="43.60368009729348" lon="10.522783764517337"><ele>15.0</ele><time>2026-03-24T09:26:40.001Z</time></trkpt><trkpt lat="43.60399474145435" lon="10.522883941009955"><ele>15.0</ele><time>2026-03-24T09:26:41.001Z</time></trkpt><trkpt lat="43.60430593917283" lon="10.523004257164668"><ele>14.5</ele><time>2026-03-24T09:26:42.001Z</time></trkpt><trkpt lat="43.60460939389847" lon="10.523146482427011"><ele>14.0</ele><time>2026-03-24T09:26:43.001Z</time></trkpt><trkpt lat="43.60489474680265" lon="10.523345874056929"><ele>14.0</ele><time>2026-03-24T09:26:44.001Z</time></trkpt><trkpt lat="43.60516745405585" lon="10.523589527273518"><ele>14.0</ele><time>2026-03-24T09:26:45.001Z</time></trkpt><trkpt lat="43.605432262628156" lon="10.523846369202737"><ele>14.0</ele><time>2026-03-24T09:26:46.001Z</time></trkpt><trkpt lat="43.605680429944336" lon="10.524127160406161"><ele>14.0</ele><time>2026-03-24T09:26:47.001Z</time></trkpt><trkpt lat="43.60591036386497" lon="10.524447151574465"><ele>14.0</ele><time>2026-03-24T09:26:48.001Z</time></trkpt><trkpt lat="43.60612004499691" lon="10.524772750031593"><ele>14.0</ele><time>2026-03-24T09:26:49.001Z</time></trkpt><trkpt lat="43.60632061298595" lon="10.525053307609133"><ele>14.5</ele><time>2026-03-24T09:26:50.001Z</time></trkpt><trkpt lat="43.6065386746679" lon="10.525300893935128"><ele>15.0</ele><time>2026-03-24T09:26:51.001Z</time></trkpt><trkpt lat="43.60677507367365" lon="10.525527684083682"><ele>15.0</ele><time>2026-03-24T09:26:52.001Z</time></trkpt><trkpt lat="43.60699622777446" lon="10.52571733264363"><ele>15.0</ele><time>2026-03-24T09:26:53.001Z</time></trkpt><trkpt lat="43.60720900087588" lon="10.525869312884119"><ele>15.0</ele><time>2026-03-24T09:26:54.001Z</time></trkpt><trkpt lat="43.60741302154563" lon="10.525991261067912"><ele>15.0</ele><time>2026-03-24T09:26:55.001Z</time></trkpt><trkpt lat="43.607588656549304" lon="10.526094809800622"><ele>15.0</ele><time>2026-03-24T09:26:56.001Z</time></trkpt><trkpt lat="43.6077319012075" lon="10.526186137942178"><ele>15.25</ele><time>2026-03-24T09:26:57.001Z</time></trkpt><trkpt lat="43.60784763065185" lon="10.526270738381779"><ele>15.5</ele><time>2026-03-24T09:26:58.001Z</time></trkpt><trkpt lat="43.60793331887425" lon="10.526381111624294"><ele>15.75</ele><time>2026-03-24T09:26:59.001Z</time></trkpt><trkpt lat="43.607995687488604" lon="10.526535547253266"><ele>16.0</ele><time>2026-03-24T09:27:00.001Z</time></trkpt><trkpt lat="43.60803899972051" lon="10.526669981311578"><ele>16.0</ele><time>2026-03-24T09:27:01.001Z</time></trkpt><trkpt lat="43.60810569218288" lon="10.526761176617057"><ele>16.0</ele><time>2026-03-24T09:27:02.001Z</time></trkpt><trkpt lat="43.60817684654551" lon="10.526791668014907"><ele>16.0</ele><time>2026-03-24T09:27:03.001Z</time></trkpt><trkpt lat="43.608260702200525" lon="10.526776079151787"><ele>16.0</ele><time>2026-03-24T09:27:04.001Z</time></trkpt><trkpt lat="43.6083548929454" lon="10.526715415269717"><ele>16.0</ele><time>2026-03-24T09:27:05.001Z</time></trkpt><trkpt lat="43.60842418822651" lon="10.526601283337497"><ele>16.0</ele><time>2026-03-24T09:27:06.001Z</time></trkpt><trkpt lat="43.608453503645656" lon="10.526444835328347"><ele>16.0</ele><time>2026-03-24T09:27:07.001Z</time></trkpt><trkpt lat="43.60843585082575" lon="10.52627512865369"><ele>16.0</ele><time>2026-03-24T09:27:08.001Z</time></trkpt><trkpt lat="43.60839253353399" lon="10.52609348298814"><ele>16.0</ele><time>2026-03-24T09:27:09.001Z</time></trkpt><trkpt lat="43.60837715903929" lon="10.525872407234923"><ele>16.0</ele><time>2026-03-24T09:27:10.001Z</time></trkpt><trkpt lat="43.60840189568591" lon="10.525612364090291"><ele>16.0</ele><time>2026-03-24T09:27:11.001Z</time></trkpt><trkpt lat="43.60843509968804" lon="10.525323608660072"><ele>16.0</ele><time>2026-03-24T09:27:12.001Z</time></trkpt><trkpt lat="43.608454742903454" lon="10.52501751253514"><ele>16.0</ele><time>2026-03-24T09:27:13.001Z</time></trkpt><trkpt lat="43.608471639941314" lon="10.524682541519596"><ele>16.0</ele><time>2026-03-24T09:27:14.001Z</time></trkpt><trkpt lat="43.60849961560292" lon="10.52433610911445"><ele>15.5</ele><time>2026-03-24T09:27:15.001Z</time></trkpt><trkpt lat="43.60853338221587" lon="10.523974748708058"><ele>15.0</ele><time>2026-03-24T09:27:16.001Z</time></trkpt><trkpt lat="43.60859016639115" lon="10.523610728224776"><ele>15.0</ele><time>2026-03-24T09:27:17.001Z</time></trkpt><trkpt lat="43.60864347652783" lon="10.523225318364236"><ele>15.0</ele><time>2026-03-24T09:27:18.001Z</time></trkpt><trkpt lat="43.608703281186784" lon="10.522834888043096"><ele>14.5</ele><time>2026-03-24T09:27:19.001Z</time></trkpt><trkpt lat="43.60876016651153" lon="10.522472631006634"><ele>14.0</ele><time>2026-03-24T09:27:20.001Z</time></trkpt><trkpt lat="43.608812909182625" lon="10.522144457579396"><ele>14.0</ele><time>2026-03-24T09:27:21.001Z</time></trkpt><trkpt lat="43.60886185424313" lon="10.521839913648591"><ele>14.0</ele><time>2026-03-24T09:27:22.001Z</time></trkpt><trkpt lat="43.60889466615171" lon="10.52154733267356"><ele>14.0</ele><time>2026-03-24T09:27:23.001Z</time></trkpt><trkpt lat="43.60893726794129" lon="10.521274157424617"><ele>13.333333333333334</ele><time>2026-03-24T09:27:24.001Z</time></trkpt><trkpt lat="43.60897730528841" lon="10.52102058893525"><ele>12.666666666666668</ele><time>2026-03-24T09:27:25.001Z</time></trkpt><trkpt lat="43.60901437809445" lon="10.520778567605833"><ele>12.0</ele><time>2026-03-24T09:27:26.001Z</time></trkpt><trkpt lat="43.609058163463345" lon="10.520517254811098"><ele>12.0</ele><time>2026-03-24T09:27:27.001Z</time></trkpt><trkpt lat="43.6091059570636" lon="10.520211354107392"><ele>12.0</ele><time>2026-03-24T09:27:28.001Z</time></trkpt><trkpt lat="43.60917088946263" lon="10.519902365634215"><ele>12.0</ele><time>2026-03-24T09:27:29.001Z</time></trkpt><trkpt lat="43.60921428149505" lon="10.519629941813553"><ele>12.0</ele><time>2026-03-24T09:27:30.001Z</time></trkpt><trkpt lat="43.609252715370204" lon="10.519388646600216"><ele>12.0</ele><time>2026-03-24T09:27:31.001Z</time></trkpt><trkpt lat="43.60928845907124" lon="10.519164240774405"><ele>12.0</ele><time>2026-03-24T09:27:32.001Z</time></trkpt><trkpt lat="43.609307728292244" lon="10.51895048806449"><ele>12.0</ele><time>2026-03-24T09:27:33.001Z</time></trkpt><trkpt lat="43.609339143111534" lon="10.518755449808078"><ele>12.0</ele><time>2026-03-24T09:27:34.001Z</time></trkpt><trkpt lat="43.60936446441353" lon="10.518542191919906"><ele>12.0</ele><time>2026-03-24T09:27:35.001Z</time></trkpt><trkpt lat="43.60935727247467" lon="10.518302180543555"><ele>12.0</ele><time>2026-03-24T09:27:36.001Z</time></trkpt><trkpt lat="43.609302319946615" lon="10.518022635418491"><ele>12.0</ele><time>2026-03-24T09:27:37.001Z</time></trkpt><trkpt lat="43.60923730169518" lon="10.517701025619624"><ele>12.0</ele><time>2026-03-24T09:27:38.001Z</time></trkpt><trkpt lat="43.60917289719946" lon="10.517377708506647"><ele>12.0</ele><time>2026-03-24T09:27:39.001Z</time></trkpt><trkpt lat="43.60909658894509" lon="10.517075322959743"><ele>11.666666666666666</ele><time>2026-03-24T09:27:40.001Z</time></trkpt><trkpt lat="43.6090452136453" lon="10.516772994013966"><ele>11.333333333333332</ele><time>2026-03-24T09:27:41.001Z</time></trkpt><trkpt lat="43.6089761088299" lon="10.516480062609359"><ele>11.0</ele><time>2026-03-24T09:27:42.001Z</time></trkpt><trkpt lat="43.60889497448819" lon="10.51616006467951"><ele>11.0</ele><time>2026-03-24T09:27:43.001Z</time></trkpt><trkpt lat="43.60876596560869" lon="10.51583929507003"><ele>11.0</ele><time>2026-03-24T09:27:44.001Z</time></trkpt><trkpt lat="43.60860210976794" lon="10.515528331824658"><ele>12.0</ele><time>2026-03-24T09:27:45.001Z</time></trkpt><trkpt lat="43.608436738516176" lon="10.5152155132914"><ele>13.0</ele><time>2026-03-24T09:27:46.001Z</time></trkpt><trkpt lat="43.6082763966495" lon="10.514885987414324"><ele>12.0</ele><time>2026-03-24T09:27:47.001Z</time></trkpt><trkpt lat="43.60811440978655" lon="10.514546105596734"><ele>11.0</ele><time>2026-03-24T09:27:48.001Z</time></trkpt><trkpt lat="43.607970942651896" lon="10.514205272449955"><ele>11.0</ele><time>2026-03-24T09:27:49.001Z</time></trkpt><trkpt lat="43.60783644333887" lon="10.513914288352858"><ele>11.0</ele><time>2026-03-24T09:27:50.001Z</time></trkpt><trkpt lat="43.60771199266567" lon="10.513646457796915"><ele>11.666666666666666</ele><time>2026-03-24T09:27:51.001Z</time></trkpt><trkpt lat="43.607611434669806" lon="10.51338590013264"><ele>12.333333333333332</ele><time>2026-03-24T09:27:52.001Z</time></trkpt><trkpt lat="43.60755802399482" lon="10.513116128562158"><ele>13.0</ele><time>2026-03-24T09:27:53.001Z</time></trkpt><trkpt lat="43.60757248554754" lon="10.512831736542045"><ele>13.666666666666666</ele><time>2026-03-24T09:27:54.001Z</time></trkpt><trkpt lat="43.60763676465137" lon="10.512553616147773"><ele>14.333333333333332</ele><time>2026-03-24T09:27:55.001Z</time></trkpt><trkpt lat="43.607702447901055" lon="10.512247149240656"><ele>15.0</ele><time>2026-03-24T09:27:56.001Z</time></trkpt><trkpt lat="43.607779859323834" lon="10.511983796738404"><ele>14.666666666666668</ele><time>2026-03-24T09:27:57.001Z</time></trkpt><trkpt lat="43.60785222087918" lon="10.51172637052754"><ele>14.333333333333334</ele><time>2026-03-24T09:27:58.001Z</time></trkpt><trkpt lat="43.60791882561937" lon="10.511468256502004"><ele>14.0</ele><time>2026-03-24T09:27:59.001Z</time></trkpt><trkpt lat="43.607979584968604" lon="10.511218220009987"><ele>13.333333333333334</ele><time>2026-03-24T09:28:00.001Z</time></trkpt><trkpt lat="43.60804468353804" lon="10.510969144979034"><ele>12.666666666666668</ele><time>2026-03-24T09:28:01.001Z</time></trkpt><trkpt lat="43.60811660912739" lon="10.510704570469878"><ele>12.0</ele><time>2026-03-24T09:28:02.001Z</time></trkpt><trkpt lat="43.608188964145604" lon="10.510422477718814"><ele>12.666666666666668</ele><time>2026-03-24T09:28:03.001Z</time></trkpt><trkpt lat="43.60825545683445" lon="10.5101570155519"><ele>13.333333333333334</ele><time>2026-03-24T09:28:04.001Z</time></trkpt><trkpt lat="43.60831596901313" lon="10.509912686745555"><ele>14.0</ele><time>2026-03-24T09:28:05.001Z</time></trkpt><trkpt lat="43.608374125843866" lon="10.509681886902714"><ele>13.666666666666668</ele><time>2026-03-24T09:28:06.001Z</time></trkpt><trkpt lat="43.60843124449493" lon="10.509461469324021"><ele>13.333333333333332</ele><time>2026-03-24T09:28:07.001Z</time></trkpt><trkpt lat="43.608488893480526" lon="10.509257435643908"><ele>13.0</ele><time>2026-03-24T09:28:08.001Z</time></trkpt><trkpt lat="43.60854541851863" lon="10.50905101951874"><ele>13.0</ele><time>2026-03-24T09:28:09.001Z</time></trkpt><trkpt lat="43.60860047033995" lon="10.508794412862358"><ele>13.0</ele><time>2026-03-24T09:28:10.001Z</time></trkpt><trkpt lat="43.608655095567656" lon="10.508485477253794"><ele>13.0</ele><time>2026-03-24T09:28:11.001Z</time></trkpt><trkpt lat="43.608690152829546" lon="10.508156404405595"><ele>12.0</ele><time>2026-03-24T09:28:12.001Z</time></trkpt><trkpt lat="43.608685582910276" lon="10.507794149488687"><ele>11.0</ele><time>2026-03-24T09:28:13.001Z</time></trkpt><trkpt lat="43.608664938832064" lon="10.507413082421651"><ele>9.5</ele><time>2026-03-24T09:28:14.001Z</time></trkpt><trkpt lat="43.60864538300891" lon="10.507005064915063"><ele>8.0</ele><time>2026-03-24T09:28:15.001Z</time></trkpt><trkpt lat="43.60862660802546" lon="10.506591635862822"><ele>8.5</ele><time>2026-03-24T09:28:16.001Z</time></trkpt><trkpt lat="43.608608611731896" lon="10.506158852793348"><ele>9.0</ele><time>2026-03-24T09:28:17.001Z</time></trkpt><trkpt lat="43.608596688442205" lon="10.505720484840344"><ele>10.5</ele><time>2026-03-24T09:28:18.001Z</time></trkpt><trkpt lat="43.60858360735605" lon="10.505270783521217"><ele>12.0</ele><time>2026-03-24T09:28:19.001Z</time></trkpt><trkpt lat="43.60857102898208" lon="10.504851224366105"><ele>12.0</ele><time>2026-03-24T09:28:20.001Z</time></trkpt><trkpt lat="43.60855696609868" lon="10.504471731734872"><ele>12.0</ele><time>2026-03-24T09:28:21.001Z</time></trkpt><trkpt lat="43.60854546384167" lon="10.504146476794961"><ele>12.0</ele><time>2026-03-24T09:28:22.001Z</time></trkpt><trkpt lat="43.608537814598954" lon="10.503854947887294"><ele>12.0</ele><time>2026-03-24T09:28:23.001Z</time></trkpt><trkpt lat="43.60852192407994" lon="10.503584131682098"><ele>12.0</ele><time>2026-03-24T09:28:24.001Z</time></trkpt><trkpt lat="43.608459114124045" lon="10.503309427540648"><ele>12.0</ele><time>2026-03-24T09:28:25.001Z</time></trkpt><trkpt lat="43.60832563785157" lon="10.503068177727727"><ele>12.0</ele><time>2026-03-24T09:28:26.001Z</time></trkpt><trkpt lat="43.608142841747565" lon="10.502856228682125"><ele>11.5</ele><time>2026-03-24T09:28:27.001Z</time></trkpt><trkpt lat="43.6079367772908" lon="10.502626764868388"><ele>11.0</ele><time>2026-03-24T09:28:28.001Z</time></trkpt><trkpt lat="43.60774035756529" lon="10.502370479462217"><ele>11.0</ele><time>2026-03-24T09:28:29.001Z</time></trkpt><trkpt lat="43.60755200678444" lon="10.502105640197675"><ele>11.0</ele><time>2026-03-24T09:28:30.001Z</time></trkpt><trkpt lat="43.60736948009856" lon="10.501809985879353"><ele>11.0</ele><time>2026-03-24T09:28:31.001Z</time></trkpt><trkpt lat="43.607231132973574" lon="10.501526421006288"><ele>11.0</ele><time>2026-03-24T09:28:32.001Z</time></trkpt><trkpt lat="43.60713639668735" lon="10.501208890004914"><ele>11.0</ele><time>2026-03-24T09:28:33.001Z</time></trkpt><trkpt lat="43.607104363760705" lon="10.500858465523446"><ele>11.0</ele><time>2026-03-24T09:28:34.001Z</time></trkpt><trkpt lat="43.60711267193721" lon="10.500508474036309"><ele>10.666666666666666</ele><time>2026-03-24T09:28:35.001Z</time></trkpt><trkpt lat="43.60711977111669" lon="10.500198156882155"><ele>10.333333333333334</ele><time>2026-03-24T09:28:36.001Z</time></trkpt><trkpt lat="43.60715713229858" lon="10.49990507644798"><ele>10.0</ele><time>2026-03-24T09:28:37.001Z</time></trkpt><trkpt lat="43.60725564011967" lon="10.499607230018556"><ele>10.0</ele><time>2026-03-24T09:28:38.001Z</time></trkpt><trkpt lat="43.607379745204426" lon="10.499303383855494"><ele>10.0</ele><time>2026-03-24T09:28:39.001Z</time></trkpt><trkpt lat="43.60749811846159" lon="10.498977305189495"><ele>10.0</ele><time>2026-03-24T09:28:40.001Z</time></trkpt><trkpt lat="43.60761373077954" lon="10.4986310831823"><ele>10.0</ele><time>2026-03-24T09:28:41.001Z</time></trkpt><trkpt lat="43.60772082509379" lon="10.498301924040286"><ele>10.0</ele><time>2026-03-24T09:28:42.001Z</time></trkpt><trkpt lat="43.60782102371858" lon="10.49799708055858"><ele>10.0</ele><time>2026-03-24T09:28:43.001Z</time></trkpt><trkpt lat="43.607910908431734" lon="10.497704921832227"><ele>9.666666666666668</ele><time>2026-03-24T09:28:44.001Z</time></trkpt><trkpt lat="43.607970621106524" lon="10.497400434543398"><ele>9.333333333333334</ele><time>2026-03-24T09:28:45.001Z</time></trkpt><trkpt lat="43.607975221315456" lon="10.497112756086104"><ele>9.0</ele><time>2026-03-24T09:28:46.001Z</time></trkpt><trkpt lat="43.60792665378055" lon="10.49684736080861"><ele>9.5</ele><time>2026-03-24T09:28:47.001Z</time></trkpt><trkpt lat="43.60782609837393" lon="10.496590411592996"><ele>10.0</ele><time>2026-03-24T09:28:48.001Z</time></trkpt><trkpt lat="43.60767871471505" lon="10.496330900459752"><ele>9.5</ele><time>2026-03-24T09:28:49.001Z</time></trkpt><trkpt lat="43.60751465878346" lon="10.496047232781908"><ele>9.0</ele><time>2026-03-24T09:28:50.001Z</time></trkpt><trkpt lat="43.6073577897744" lon="10.495751784301842"><ele>9.0</ele><time>2026-03-24T09:28:51.001Z</time></trkpt><trkpt lat="43.60719399691846" lon="10.495451772156262"><ele>9.0</ele><time>2026-03-24T09:28:52.001Z</time></trkpt><trkpt lat="43.60699958903531" lon="10.495169431880235"><ele>9.5</ele><time>2026-03-24T09:28:53.001Z</time></trkpt><trkpt lat="43.60677089680408" lon="10.49490854308245"><ele>10.0</ele><time>2026-03-24T09:28:54.001Z</time></trkpt><trkpt lat="43.606534794587475" lon="10.494662675420086"><ele>9.5</ele><time>2026-03-24T09:28:55.001Z</time></trkpt><trkpt lat="43.606329380008695" lon="10.494432389586176"><ele>9.0</ele><time>2026-03-24T09:28:56.001Z</time></trkpt><trkpt lat="43.60612695485265" lon="10.494192932366289"><ele>9.0</ele><time>2026-03-24T09:28:57.001Z</time></trkpt><trkpt lat="43.60592798716525" lon="10.493962676326658"><ele>9.0</ele><time>2026-03-24T09:28:58.001Z</time></trkpt><trkpt lat="43.60572905910301" lon="10.493734793665983"><ele>8.5</ele><time>2026-03-24T09:28:59.001Z</time></trkpt><trkpt lat="43.6055337171665" lon="10.493513683119644"><ele>8.0</ele><time>2026-03-24T09:29:00.001Z</time></trkpt><trkpt lat="43.60535117321755" lon="10.493304307221074"><ele>8.666666666666666</ele><time>2026-03-24T09:29:01.001Z</time></trkpt><trkpt lat="43.605184839508674" lon="10.493104494586875"><ele>9.333333333333334</ele><time>2026-03-24T09:29:02.001Z</time></trkpt><trkpt lat="43.60502717113767" lon="10.492923775704673"><ele>10.0</ele><time>2026-03-24T09:29:03.001Z</time></trkpt><trkpt lat="43.60486785637727" lon="10.492750910262076"><ele>10.0</ele><time>2026-03-24T09:29:04.001Z</time></trkpt><trkpt lat="43.604727540818466" lon="10.492587609257509"><ele>10.0</ele><time>2026-03-24T09:29:05.001Z</time></trkpt><trkpt lat="43.60461184458238" lon="10.492428168621037"><ele>10.0</ele><time>2026-03-24T09:29:06.001Z</time></trkpt><trkpt lat="43.60452003271385" lon="10.492253772245126"><ele>9.333333333333334</ele><time>2026-03-24T09:29:07.001Z</time></trkpt><trkpt lat="43.60445623527428" lon="10.492064061513137"><ele>8.666666666666666</ele><time>2026-03-24T09:29:08.001Z</time></trkpt><trkpt lat="43.604416135514214" lon="10.491860862456779"><ele>8.0</ele><time>2026-03-24T09:29:09.001Z</time></trkpt><trkpt lat="43.604394423824004" lon="10.49163402844154"><ele>8.0</ele><time>2026-03-24T09:29:10.001Z</time></trkpt><trkpt lat="43.604432992227245" lon="10.491409158973447"><ele>8.0</ele><time>2026-03-24T09:29:11.001Z</time></trkpt><trkpt lat="43.604445151551985" lon="10.491191870594351"><ele>8.0</ele><time>2026-03-24T09:29:12.001Z</time></trkpt><trkpt lat="43.60444815512518" lon="10.490974944619678"><ele>8.333333333333332</ele><time>2026-03-24T09:29:13.001Z</time></trkpt><trkpt lat="43.60446030957756" lon="10.490742513196743"><ele>8.666666666666666</ele><time>2026-03-24T09:29:14.001Z</time></trkpt><trkpt lat="43.604485170174115" lon="10.49050056398545"><ele>9.0</ele><time>2026-03-24T09:29:15.001Z</time></trkpt><trkpt lat="43.60450259398875" lon="10.490214951760668"><ele>10.5</ele><time>2026-03-24T09:29:16.001Z</time></trkpt><trkpt lat="43.60452256083115" lon="10.489868559412797"><ele>12.0</ele><time>2026-03-24T09:29:17.001Z</time></trkpt><trkpt lat="43.604541691792434" lon="10.489536668188817"><ele>12.5</ele><time>2026-03-24T09:29:18.001Z</time></trkpt><trkpt lat="43.60456263321959" lon="10.489212102149288"><ele>13.0</ele><time>2026-03-24T09:29:19.001Z</time></trkpt><trkpt lat="43.60459622748375" lon="10.488778774690577"><ele>12.0</ele><time>2026-03-24T09:29:20.001Z</time></trkpt><trkpt lat="43.60461670354694" lon="10.488364307938223"><ele>11.0</ele><time>2026-03-24T09:29:21.001Z</time></trkpt><trkpt lat="43.60462518211688" lon="10.487955276252293"><ele>10.5</ele><time>2026-03-24T09:29:22.001Z</time></trkpt><trkpt lat="43.604655132256234" lon="10.487543601424541"><ele>10.0</ele><time>2026-03-24T09:29:23.001Z</time></trkpt><trkpt lat="43.60467952447703" lon="10.487138213866523"><ele>10.0</ele><time>2026-03-24T09:29:24.001Z</time></trkpt><trkpt lat="43.6047285381331" lon="10.486789384616637"><ele>10.0</ele><time>2026-03-24T09:29:25.001Z</time></trkpt><trkpt lat="43.60482961610793" lon="10.486443249666506"><ele>10.0</ele><time>2026-03-24T09:29:26.001Z</time></trkpt><trkpt lat="43.60495576046545" lon="10.48612633045756"><ele>10.0</ele><time>2026-03-24T09:29:27.001Z</time></trkpt><trkpt lat="43.605095335897545" lon="10.485793082831679"><ele>10.0</ele><time>2026-03-24T09:29:28.001Z</time></trkpt><trkpt lat="43.60523910721913" lon="10.485449817178587"><ele>10.0</ele><time>2026-03-24T09:29:29.001Z</time></trkpt><trkpt lat="43.605387599793474" lon="10.485093047331496"><ele>10.0</ele><time>2026-03-24T09:29:30.001Z</time></trkpt><trkpt lat="43.605538207555675" lon="10.484729900532445"><ele>10.0</ele><time>2026-03-24T09:29:31.001Z</time></trkpt><trkpt lat="43.6056917157584" lon="10.484368790401213"><ele>9.0</ele><time>2026-03-24T09:29:32.001Z</time></trkpt><trkpt lat="43.60586131586386" lon="10.484047572377762"><ele>8.0</ele><time>2026-03-24T09:29:33.001Z</time></trkpt><trkpt lat="43.606090153404345" lon="10.483775913186957"><ele>7.5</ele><time>2026-03-24T09:29:34.001Z</time></trkpt><trkpt lat="43.60634315612895" lon="10.483545759240846"><ele>7.0</ele><time>2026-03-24T09:29:35.001Z</time></trkpt><trkpt lat="43.606605751288335" lon="10.483313889202051"><ele>7.0</ele><time>2026-03-24T09:29:36.001Z</time></trkpt><trkpt lat="43.60686553382824" lon="10.483057838221916"><ele>7.0</ele><time>2026-03-24T09:29:37.001Z</time></trkpt><trkpt lat="43.60716651753746" lon="10.482810250231136"><ele>6.0</ele><time>2026-03-24T09:29:38.001Z</time></trkpt><trkpt lat="43.60740902681349" lon="10.482592465328253"><ele>5.0</ele><time>2026-03-24T09:29:39.001Z</time></trkpt><trkpt lat="43.607675562872735" lon="10.48234738912022"><ele>5.0</ele><time>2026-03-24T09:29:40.001Z</time></trkpt><trkpt lat="43.60793125691759" lon="10.482112581036791"><ele>5.0</ele><time>2026-03-24T09:29:41.001Z</time></trkpt><trkpt lat="43.608197008718015" lon="10.481871705025306"><ele>5.5</ele><time>2026-03-24T09:29:42.001Z</time></trkpt><trkpt lat="43.608465581814826" lon="10.481627956331701"><ele>6.0</ele><time>2026-03-24T09:29:43.001Z</time></trkpt><trkpt lat="43.60873741913682" lon="10.481377753403967"><ele>6.5</ele><time>2026-03-24T09:29:44.001Z</time></trkpt><trkpt lat="43.60901035426959" lon="10.48112799251965"><ele>7.0</ele><time>2026-03-24T09:29:45.001Z</time></trkpt><trkpt lat="43.609276914814316" lon="10.480876921344446"><ele>8.0</ele><time>2026-03-24T09:29:46.001Z</time></trkpt><trkpt lat="43.6095060272961" lon="10.48064266797955"><ele>9.0</ele><time>2026-03-24T09:29:47.001Z</time></trkpt><trkpt lat="43.60973173001783" lon="10.480411092591819"><ele>9.5</ele><time>2026-03-24T09:29:48.001Z</time></trkpt><trkpt lat="43.60993975790492" lon="10.480194558611496"><ele>10.0</ele><time>2026-03-24T09:29:49.001Z</time></trkpt><trkpt lat="43.610107642841236" lon="10.480042923060834"><ele>10.0</ele><time>2026-03-24T09:29:50.001Z</time></trkpt><trkpt lat="43.61024658007823" lon="10.479880060045478"><ele>10.0</ele><time>2026-03-24T09:29:51.001Z</time></trkpt><trkpt lat="43.610362438142374" lon="10.479652660314727"><ele>10.0</ele><time>2026-03-24T09:29:52.001Z</time></trkpt><trkpt lat="43.61045736161974" lon="10.47936721487546"><ele>10.666666666666668</ele><time>2026-03-24T09:29:53.001Z</time></trkpt><trkpt lat="43.61051667168715" lon="10.479106668324228"><ele>11.333333333333334</ele><time>2026-03-24T09:29:54.001Z</time></trkpt><trkpt lat="43.61056262931373" lon="10.478883053693698"><ele>12.0</ele><time>2026-03-24T09:29:55.001Z</time></trkpt><trkpt lat="43.61061578326471" lon="10.478696997985981"><ele>12.0</ele><time>2026-03-24T09:29:56.001Z</time></trkpt><trkpt lat="43.610642620284736" lon="10.478520122318857"><ele>12.0</ele><time>2026-03-24T09:29:57.001Z</time></trkpt><trkpt lat="43.61067119700261" lon="10.478350573932817"><ele>12.0</ele><time>2026-03-24T09:29:58.001Z</time></trkpt><trkpt lat="43.610687859452725" lon="10.47819365003376"><ele>12.0</ele><time>2026-03-24T09:29:59.001Z</time></trkpt><trkpt lat="43.61068757232302" lon="10.47804361936512"><ele>12.5</ele><time>2026-03-24T09:30:00.001Z</time></trkpt><trkpt lat="43.61069101834739" lon="10.477900596939454"><ele>13.0</ele><time>2026-03-24T09:30:01.001Z</time></trkpt><trkpt lat="43.61068677485366" lon="10.477729396997722"><ele>13.5</ele><time>2026-03-24T09:30:02.001Z</time></trkpt><trkpt lat="43.61063453855301" lon="10.477589033449961"><ele>14.0</ele><time>2026-03-24T09:30:03.001Z</time></trkpt><trkpt lat="43.61058676159664" lon="10.477434370536937"><ele>14.0</ele><time>2026-03-24T09:30:04Z</time></trkpt><trkpt lat="43.61055197853602" lon="10.477288529744138"><ele>14.0</ele><time>2026-03-24T09:30:05Z</time></trkpt><trkpt lat="43.61051293017901" lon="10.477129184111234"><ele>14.0</ele><time>2026-03-24T09:30:06Z</time></trkpt><trkpt lat="43.610479079362506" lon="10.476972296201396"><ele>14.0</ele><time>2026-03-24T09:30:07Z</time></trkpt><trkpt lat="43.61044697944901" lon="10.476804953980327"><ele>13.75</ele><time>2026-03-24T09:30:08Z</time></trkpt><trkpt lat="43.610419729585615" lon="10.476623624282492"><ele>13.5</ele><time>2026-03-24T09:30:09Z</time></trkpt><trkpt lat="43.61041386313907" lon="10.476449382866514"><ele>13.25</ele><time>2026-03-24T09:30:10Z</time></trkpt><trkpt lat="43.61042238216404" lon="10.476266464471724"><ele>13.0</ele><time>2026-03-24T09:30:11Z</time></trkpt><trkpt lat="43.61044437448156" lon="10.476062751021054"><ele>12.0</ele><time>2026-03-24T09:30:12Z</time></trkpt><trkpt lat="43.61048212844782" lon="10.47584000382611"><ele>11.0</ele><time>2026-03-24T09:30:13Z</time></trkpt><trkpt lat="43.61052911058269" lon="10.475578623827728"><ele>10.0</ele><time>2026-03-24T09:30:14Z</time></trkpt><trkpt lat="43.610587377681334" lon="10.475303560197116"><ele>10.0</ele><time>2026-03-24T09:30:15Z</time></trkpt><trkpt lat="43.61064165349709" lon="10.475063411564147"><ele>10.0</ele><time>2026-03-24T09:30:16Z</time></trkpt><trkpt lat="43.61068482789745" lon="10.474856164563981"><ele>10.0</ele><time>2026-03-24T09:30:17Z</time></trkpt><trkpt lat="43.610691020572446" lon="10.474680297345058"><ele>9.8</ele><time>2026-03-24T09:30:18Z</time></trkpt><trkpt lat="43.61066871462371" lon="10.47453746226798"><ele>9.6</ele><time>2026-03-24T09:30:19Z</time></trkpt><trkpt lat="43.610629174098236" lon="10.474421889128234"><ele>9.4</ele><time>2026-03-24T09:30:20Z</time></trkpt><trkpt lat="43.61057938742248" lon="10.47431909588996"><ele>9.2</ele><time>2026-03-24T09:30:21Z</time></trkpt><trkpt lat="43.61052299491723" lon="10.474220583519932"><ele>9.0</ele><time>2026-03-24T09:30:22Z</time></trkpt><trkpt lat="43.61047029974672" lon="10.474146706045861"><ele>9.0</ele><time>2026-03-24T09:30:23Z</time></trkpt><trkpt lat="43.61042103306905" lon="10.474073052791237"><ele>9.0</ele><time>2026-03-24T09:30:24Z</time></trkpt><trkpt lat="43.610378545295426" lon="10.474002640054966"><ele>9.0</ele><time>2026-03-24T09:30:25Z</time></trkpt><trkpt lat="43.6103353643442" lon="10.473935287148223"><ele>9.0</ele><time>2026-03-24T09:30:26Z</time></trkpt><trkpt lat="43.6102733258005" lon="10.473818957137391"><ele>9.0</ele><time>2026-03-24T09:30:28Z</time></trkpt><trkpt lat="43.610232830551496" lon="10.47372000093718"><ele>9.0</ele><time>2026-03-24T09:30:31Z</time></trkpt><trkpt lat="43.610212767270845" lon="10.473625599185452"><ele>8.8</ele><time>2026-03-24T09:30:33Z</time></trkpt><trkpt lat="43.61021107543436" lon="10.473476899856859"><ele>8.600000000000001</ele><time>2026-03-24T09:30:35Z</time></trkpt><trkpt lat="43.610247557398914" lon="10.47333501469914"><ele>8.4</ele><time>2026-03-24T09:30:37Z</time></trkpt><trkpt lat="43.610296008350055" lon="10.473247528178034"><ele>8.200000000000001</ele><time>2026-03-24T09:30:38Z</time></trkpt><trkpt lat="43.61036122942169" lon="10.473178937279364"><ele>8.0</ele><time>2026-03-24T09:30:39Z</time></trkpt><trkpt lat="43.6104322258393" lon="10.473142762042876"><ele>8.0</ele><time>2026-03-24T09:30:40Z</time></trkpt><trkpt lat="43.610505860489546" lon="10.473105195303122"><ele>8.0</ele><time>2026-03-24T09:30:41Z</time></trkpt><trkpt lat="43.61060484385391" lon="10.473014638349161"><ele>8.0</ele><time>2026-03-24T09:30:43Z</time></trkpt><trkpt lat="43.61069992531666" lon="10.472931562032622"><ele>8.0</ele><time>2026-03-24T09:30:45Z</time></trkpt><trkpt lat="43.61076018872756" lon="10.472874482647562"><ele>8.0</ele><time>2026-03-24T09:30:46Z</time></trkpt><trkpt lat="43.61085087889786" lon="10.472793876914487"><ele>7.333333333333333</ele><time>2026-03-24T09:30:47Z</time></trkpt><trkpt lat="43.61098330040483" lon="10.47269328310103"><ele>6.666666666666666</ele><time>2026-03-24T09:30:48Z</time></trkpt><trkpt lat="43.61112667090399" lon="10.472587072360112"><ele>6.0</ele><time>2026-03-24T09:30:49Z</time></trkpt><trkpt lat="43.61129956039108" lon="10.472472968550584"><ele>6.0</ele><time>2026-03-24T09:30:50Z</time></trkpt><trkpt lat="43.611496465159" lon="10.472352405706335"><ele>6.0</ele><time>2026-03-24T09:30:51Z</time></trkpt><trkpt lat="43.61168416146515" lon="10.47225108637686"><ele>6.0</ele><time>2026-03-24T09:30:52Z</time></trkpt><trkpt lat="43.61184787786312" lon="10.472166069230086"><ele>5.333333333333333</ele><time>2026-03-24T09:30:53Z</time></trkpt><trkpt lat="43.61201007270838" lon="10.472084135503914"><ele>4.666666666666666</ele><time>2026-03-24T09:30:54Z</time></trkpt><trkpt lat="43.61218184034915" lon="10.471995589344369"><ele>4.0</ele><time>2026-03-24T09:30:55Z</time></trkpt><trkpt lat="43.61235427853527" lon="10.471902752414158"><ele>4.0</ele><time>2026-03-24T09:30:56Z</time></trkpt><trkpt lat="43.61251552295466" lon="10.471814390082839"><ele>4.0</ele><time>2026-03-24T09:30:57Z</time></trkpt><trkpt lat="43.6126678922749" lon="10.471732916096558"><ele>4.0</ele><time>2026-03-24T09:30:58Z</time></trkpt><trkpt lat="43.612818937190774" lon="10.47165499519231"><ele>4.333333333333333</ele><time>2026-03-24T09:30:59Z</time></trkpt><trkpt lat="43.61296891001698" lon="10.471583159199357"><ele>4.666666666666667</ele><time>2026-03-24T09:31:00Z</time></trkpt><trkpt lat="43.61311563892277" lon="10.47151202519942"><ele>5.0</ele><time>2026-03-24T09:31:01Z</time></trkpt><trkpt lat="43.61325891257162" lon="10.471439944701157"><ele>5.0</ele><time>2026-03-24T09:31:02Z</time></trkpt><trkpt lat="43.61340394642483" lon="10.471369238943057"><ele>5.0</ele><time>2026-03-24T09:31:03Z</time></trkpt><trkpt lat="43.61354838339681" lon="10.47130143217163"><ele>5.0</ele><time>2026-03-24T09:31:04Z</time></trkpt><trkpt lat="43.61368742227516" lon="10.471240643907374"><ele>5.0</ele><time>2026-03-24T09:31:05.001Z</time></trkpt><trkpt lat="43.61382127219438" lon="10.47118344026132"><ele>5.0</ele><time>2026-03-24T09:31:06.001Z</time></trkpt><trkpt lat="43.6139577034861" lon="10.471123249092326"><ele>5.0</ele><time>2026-03-24T09:31:07.001Z</time></trkpt><trkpt lat="43.61409952810727" lon="10.471064816886745"><ele>5.0</ele><time>2026-03-24T09:31:08.001Z</time></trkpt><trkpt lat="43.614253779613804" lon="10.471005507159905"><ele>5.0</ele><time>2026-03-24T09:31:09.001Z</time></trkpt><trkpt lat="43.614409648342715" lon="10.47094782839577"><ele>5.0</ele><time>2026-03-24T09:31:10.001Z</time></trkpt><trkpt lat="43.614544650993295" lon="10.470898170913873"><ele>5.0</ele><time>2026-03-24T09:31:11.001Z</time></trkpt><trkpt lat="43.614668504921156" lon="10.47085189627092"><ele>5.0</ele><time>2026-03-24T09:31:12.001Z</time></trkpt><trkpt lat="43.614784888328835" lon="10.470811065260495"><ele>5.4</ele><time>2026-03-24T09:31:13.001Z</time></trkpt><trkpt lat="43.6148920443513" lon="10.470774548686467"><ele>5.8</ele><time>2026-03-24T09:31:14.001Z</time></trkpt><trkpt lat="43.61499583986453" lon="10.470738062414737"><ele>6.199999999999999</ele><time>2026-03-24T09:31:15.001Z</time></trkpt><trkpt lat="43.615093594480136" lon="10.47070068261414"><ele>6.6</ele><time>2026-03-24T09:31:16.001Z</time></trkpt><trkpt lat="43.61520202680311" lon="10.47066231744948"><ele>7.0</ele><time>2026-03-24T09:31:17.001Z</time></trkpt><trkpt lat="43.615318100575045" lon="10.470619547859505"><ele>7.0</ele><time>2026-03-24T09:31:18.001Z</time></trkpt><trkpt lat="43.61545127072861" lon="10.470569545318444"><ele>7.0</ele><time>2026-03-24T09:31:19.001Z</time></trkpt><trkpt lat="43.615610583025365" lon="10.470506198183275"><ele>7.0</ele><time>2026-03-24T09:31:20.001Z</time></trkpt><trkpt lat="43.615754459449036" lon="10.470447533951997"><ele>6.666666666666667</ele><time>2026-03-24T09:31:21.001Z</time></trkpt><trkpt lat="43.61589510455418" lon="10.470383957309506"><ele>6.333333333333334</ele><time>2026-03-24T09:31:22.001Z</time></trkpt><trkpt lat="43.616074156731585" lon="10.470307142520634"><ele>6.0</ele><time>2026-03-24T09:31:23.001Z</time></trkpt><trkpt lat="43.61628980942636" lon="10.470251307090765"><ele>6.0</ele><time>2026-03-24T09:31:24.001Z</time></trkpt><trkpt lat="43.616513557585264" lon="10.470171147661947"><ele>6.0</ele><time>2026-03-24T09:31:25.001Z</time></trkpt><trkpt lat="43.6167458992154" lon="10.470068456903661"><ele>6.0</ele><time>2026-03-24T09:31:26.001Z</time></trkpt><trkpt lat="43.616983266167935" lon="10.469991908611904"><ele>6.0</ele><time>2026-03-24T09:31:27.001Z</time></trkpt><trkpt lat="43.61722287467203" lon="10.469856958867398"><ele>6.0</ele><time>2026-03-24T09:31:28.001Z</time></trkpt><trkpt lat="43.617448898095176" lon="10.469650047265185"><ele>6.0</ele><time>2026-03-24T09:31:29.001Z</time></trkpt><trkpt lat="43.61766654430095" lon="10.46938705758483"><ele>6.0</ele><time>2026-03-24T09:31:30.001Z</time></trkpt><trkpt lat="43.61786235520358" lon="10.46908045933972"><ele>6.0</ele><time>2026-03-24T09:31:31.001Z</time></trkpt><trkpt lat="43.61802985342723" lon="10.468729195588208"><ele>5.5</ele><time>2026-03-24T09:31:32.001Z</time></trkpt><trkpt lat="43.61815876751541" lon="10.468378555257722"><ele>5.0</ele><time>2026-03-24T09:31:33.001Z</time></trkpt><trkpt lat="43.618280662221096" lon="10.468057981688466"><ele>4.5</ele><time>2026-03-24T09:31:34.001Z</time></trkpt><trkpt lat="43.61841543292166" lon="10.46773543472835"><ele>4.0</ele><time>2026-03-24T09:31:35.001Z</time></trkpt><trkpt lat="43.61854235821729" lon="10.467436402438103"><ele>4.5</ele><time>2026-03-24T09:31:36.001Z</time></trkpt><trkpt lat="43.61866467766153" lon="10.46715948639347"><ele>5.0</ele><time>2026-03-24T09:31:37.001Z</time></trkpt><trkpt lat="43.61879413312299" lon="10.466897861135344"><ele>5.0</ele><time>2026-03-24T09:31:38.001Z</time></trkpt><trkpt lat="43.6189291183569" lon="10.46666056810017"><ele>5.0</ele><time>2026-03-24T09:31:39.001Z</time></trkpt><trkpt lat="43.61906695220147" lon="10.46642366453008"><ele>5.0</ele><time>2026-03-24T09:31:40.001Z</time></trkpt><trkpt lat="43.61919938200878" lon="10.466192018181781"><ele>4.666666666666667</ele><time>2026-03-24T09:31:41.001Z</time></trkpt><trkpt lat="43.61933155784493" lon="10.465963962369651"><ele>4.333333333333333</ele><time>2026-03-24T09:31:42.001Z</time></trkpt><trkpt lat="43.61947063113111" lon="10.465722773898245"><ele>4.0</ele><time>2026-03-24T09:31:43.001Z</time></trkpt><trkpt lat="43.619599599373416" lon="10.46549738373929"><ele>4.0</ele><time>2026-03-24T09:31:44.001Z</time></trkpt><trkpt lat="43.619715092259774" lon="10.46528283280835"><ele>4.0</ele><time>2026-03-24T09:31:45.001Z</time></trkpt><trkpt lat="43.619820896558494" lon="10.465081989521758"><ele>4.0</ele><time>2026-03-24T09:31:46.001Z</time></trkpt><trkpt lat="43.61990738408256" lon="10.464929876998342"><ele>4.0</ele><time>2026-03-24T09:31:47.001Z</time></trkpt><trkpt lat="43.61997906182432" lon="10.464815825699207"><ele>4.0</ele><time>2026-03-24T09:31:48Z</time></trkpt><trkpt lat="43.62003809891854" lon="10.46472649241132"><ele>4.0</ele><time>2026-03-24T09:31:49Z</time></trkpt><trkpt lat="43.620097812049096" lon="10.46464282434789"><ele>4.0</ele><time>2026-03-24T09:31:50Z</time></trkpt><trkpt lat="43.620177427692504" lon="10.464522777605007"><ele>4.0</ele><time>2026-03-24T09:31:51Z</time></trkpt><trkpt lat="43.62028472806362" lon="10.4643409826197"><ele>5.0</ele><time>2026-03-24T09:31:52Z</time></trkpt><trkpt lat="43.62042088974078" lon="10.46413810844433"><ele>6.0</ele><time>2026-03-24T09:31:53Z</time></trkpt><trkpt lat="43.62059319088837" lon="10.463960844454926"><ele>7.0</ele><time>2026-03-24T09:31:54Z</time></trkpt><trkpt lat="43.62078367387254" lon="10.46379781105073"><ele>6.0</ele><time>2026-03-24T09:31:55Z</time></trkpt><trkpt lat="43.621037482736945" lon="10.46373514311004"><ele>5.0</ele><time>2026-03-24T09:31:56Z</time></trkpt><trkpt lat="43.62127575737542" lon="10.463643071410443"><ele>5.0</ele><time>2026-03-24T09:31:57Z</time></trkpt><trkpt lat="43.62151225473181" lon="10.46353629383017"><ele>5.0</ele><time>2026-03-24T09:31:58Z</time></trkpt><trkpt lat="43.62174835047617" lon="10.46341392379748"><ele>5.0</ele><time>2026-03-24T09:31:59Z</time></trkpt><trkpt lat="43.62196776526937" lon="10.463295413530846"><ele>5.0</ele><time>2026-03-24T09:32:00Z</time></trkpt><trkpt lat="43.622177058896966" lon="10.463176187874117"><ele>5.0</ele><time>2026-03-24T09:32:01Z</time></trkpt><trkpt lat="43.62237790288982" lon="10.463056313977127"><ele>5.0</ele><time>2026-03-24T09:32:02Z</time></trkpt><trkpt lat="43.62256518730517" lon="10.462937165147009"><ele>5.0</ele><time>2026-03-24T09:32:03Z</time></trkpt><trkpt lat="43.62273091869924" lon="10.462828691336512"><ele>5.333333333333334</ele><time>2026-03-24T09:32:04Z</time></trkpt><trkpt lat="43.62289850140284" lon="10.462722189234189"><ele>5.666666666666667</ele><time>2026-03-24T09:32:05Z</time></trkpt><trkpt lat="43.62307258762126" lon="10.46261514323519"><ele>6.0</ele><time>2026-03-24T09:32:06Z</time></trkpt><trkpt lat="43.62326585029568" lon="10.462489499822992"><ele>6.0</ele><time>2026-03-24T09:32:07Z</time></trkpt><trkpt lat="43.62347721785819" lon="10.462347545346283"><ele>6.0</ele><time>2026-03-24T09:32:08Z</time></trkpt><trkpt lat="43.623704729918465" lon="10.46219536246445"><ele>6.5</ele><time>2026-03-24T09:32:09Z</time></trkpt><trkpt lat="43.62394501034837" lon="10.462038894099958"><ele>7.0</ele><time>2026-03-24T09:32:10Z</time></trkpt><trkpt lat="43.62418689200468" lon="10.461895322708166"><ele>7.0</ele><time>2026-03-24T09:32:11Z</time></trkpt><trkpt lat="43.624409416819695" lon="10.461767650795116"><ele>7.0</ele><time>2026-03-24T09:32:12Z</time></trkpt><trkpt lat="43.62460735920679" lon="10.461654711499207"><ele>6.0</ele><time>2026-03-24T09:32:13Z</time></trkpt><trkpt lat="43.62479250502423" lon="10.461541736766286"><ele>5.0</ele><time>2026-03-24T09:32:14Z</time></trkpt><trkpt lat="43.624968183348095" lon="10.461428997250474"><ele>4.0</ele><time>2026-03-24T09:32:15Z</time></trkpt><trkpt lat="43.62512764391577" lon="10.461321510148782"><ele>3.333333333333333</ele><time>2026-03-24T09:32:16Z</time></trkpt><trkpt lat="43.62528449842601" lon="10.461216456876025"><ele>2.6666666666666665</ele><time>2026-03-24T09:32:17Z</time></trkpt><trkpt lat="43.62544369110733" lon="10.461110265468378"><ele>2.0</ele><time>2026-03-24T09:32:18Z</time></trkpt><trkpt lat="43.62560060845222" lon="10.461006504973254"><ele>1.6666666666666665</ele><time>2026-03-24T09:32:19Z</time></trkpt><trkpt lat="43.625765477738256" lon="10.460904089088856"><ele>1.3333333333333333</ele><time>2026-03-24T09:32:20Z</time></trkpt><trkpt lat="43.62592797782524" lon="10.46080474270644"><ele>1.0</ele><time>2026-03-24T09:32:21Z</time></trkpt><trkpt lat="43.62609637561536" lon="10.460700282961227"><ele>1.3333333333333333</ele><time>2026-03-24T09:32:22Z</time></trkpt><trkpt lat="43.62626801937135" lon="10.460590802715535"><ele>1.6666666666666665</ele><time>2026-03-24T09:32:23Z</time></trkpt><trkpt lat="43.626435409402724" lon="10.460481814872445"><ele>2.0</ele><time>2026-03-24T09:32:24Z</time></trkpt><trkpt lat="43.62660562456007" lon="10.460370021807165"><ele>2.0</ele><time>2026-03-24T09:32:25Z</time></trkpt><trkpt lat="43.626779845741936" lon="10.460257394835308"><ele>2.0</ele><time>2026-03-24T09:32:26Z</time></trkpt><trkpt lat="43.62695379585348" lon="10.460146444973015"><ele>2.0</ele><time>2026-03-24T09:32:27Z</time></trkpt><trkpt lat="43.62712212583013" lon="10.460036874619373"><ele>2.0</ele><time>2026-03-24T09:32:28Z</time></trkpt><trkpt lat="43.62729117081278" lon="10.459928449560149"><ele>2.0</ele><time>2026-03-24T09:32:29Z</time></trkpt><trkpt lat="43.62746177698298" lon="10.459820069594274"><ele>2.0</ele><time>2026-03-24T09:32:30Z</time></trkpt><trkpt lat="43.62763081704342" lon="10.459709453781562"><ele>1.6666666666666665</ele><time>2026-03-24T09:32:31Z</time></trkpt><trkpt lat="43.62779226834947" lon="10.459604400317941"><ele>1.3333333333333333</ele><time>2026-03-24T09:32:32Z</time></trkpt><trkpt lat="43.62795806138865" lon="10.45949833698017"><ele>1.0</ele><time>2026-03-24T09:32:33Z</time></trkpt><trkpt lat="43.62811520196844" lon="10.459397952338536"><ele>1.0</ele><time>2026-03-24T09:32:34Z</time></trkpt><trkpt lat="43.628271319682874" lon="10.459296309974166"><ele>1.0</ele><time>2026-03-24T09:32:35Z</time></trkpt><trkpt lat="43.628433220834076" lon="10.459192806680303"><ele>1.0</ele><time>2026-03-24T09:32:36Z</time></trkpt><trkpt lat="43.62859705172847" lon="10.459090554396314"><ele>1.0</ele><time>2026-03-24T09:32:37Z</time></trkpt><trkpt lat="43.628763979585564" lon="10.458983261656156"><ele>1.0</ele><time>2026-03-24T09:32:38Z</time></trkpt><trkpt lat="43.628921496050204" lon="10.458883116416933"><ele>1.0</ele><time>2026-03-24T09:32:39Z</time></trkpt><trkpt lat="43.629087465856514" lon="10.45877740090953"><ele>1.0</ele><time>2026-03-24T09:32:40Z</time></trkpt><trkpt lat="43.629260344044305" lon="10.458661373672928"><ele>1.0</ele><time>2026-03-24T09:32:41Z</time></trkpt><trkpt lat="43.629439393891495" lon="10.458535527089028"><ele>1.0</ele><time>2026-03-24T09:32:42Z</time></trkpt><trkpt lat="43.62963754455491" lon="10.458399380721882"><ele>1.5</ele><time>2026-03-24T09:32:43Z</time></trkpt><trkpt lat="43.62986240919282" lon="10.45826066938498"><ele>2.0</ele><time>2026-03-24T09:32:44Z</time></trkpt><trkpt lat="43.63010089141953" lon="10.458123685404416"><ele>2.0</ele><time>2026-03-24T09:32:45Z</time></trkpt><trkpt lat="43.63034047472491" lon="10.457988306497285"><ele>2.0</ele><time>2026-03-24T09:32:46Z</time></trkpt><trkpt lat="43.630585821308266" lon="10.457845188622084"><ele>2.0</ele><time>2026-03-24T09:32:47Z</time></trkpt><trkpt lat="43.63082224310046" lon="10.45769944951191"><ele>2.0</ele><time>2026-03-24T09:32:48Z</time></trkpt><trkpt lat="43.63105001521012" lon="10.45755993272399"><ele>2.0</ele><time>2026-03-24T09:32:49Z</time></trkpt><trkpt lat="43.63126885165932" lon="10.457430106462159"><ele>2.0</ele><time>2026-03-24T09:32:50Z</time></trkpt><trkpt lat="43.63148934060804" lon="10.457302269234615"><ele>2.0</ele><time>2026-03-24T09:32:51Z</time></trkpt><trkpt lat="43.63171102221759" lon="10.457169604544706"><ele>2.0</ele><time>2026-03-24T09:32:52Z</time></trkpt><trkpt lat="43.63193810809369" lon="10.45702911804984"><ele>1.5</ele><time>2026-03-24T09:32:53Z</time></trkpt><trkpt lat="43.63216829739934" lon="10.456885709886327"><ele>1.0</ele><time>2026-03-24T09:32:54Z</time></trkpt><trkpt lat="43.63240073866991" lon="10.456737821909606"><ele>1.0</ele><time>2026-03-24T09:32:55Z</time></trkpt><trkpt lat="43.63262874462352" lon="10.456584105627465"><ele>1.0</ele><time>2026-03-24T09:32:56Z</time></trkpt><trkpt lat="43.63284708486445" lon="10.456432301889398"><ele>1.0</ele><time>2026-03-24T09:32:57Z</time></trkpt><trkpt lat="43.63306153451233" lon="10.45627889113831"><ele>1.0</ele><time>2026-03-24T09:32:58Z</time></trkpt><trkpt lat="43.63327255055981" lon="10.45613200997636"><ele>1.0</ele><time>2026-03-24T09:32:59Z</time></trkpt><trkpt lat="43.63347743990512" lon="10.4559955674454"><ele>1.0</ele><time>2026-03-24T09:33:00Z</time></trkpt><trkpt lat="43.63368184881881" lon="10.455862837330416"><ele>1.6666666666666665</ele><time>2026-03-24T09:33:01Z</time></trkpt><trkpt lat="43.63388513086186" lon="10.455734942187272"><ele>2.3333333333333335</ele><time>2026-03-24T09:33:02Z</time></trkpt><trkpt lat="43.63408547658502" lon="10.455610565075244"><ele>3.0</ele><time>2026-03-24T09:33:03Z</time></trkpt><trkpt lat="43.63428019216802" lon="10.455486412961823"><ele>2.3333333333333335</ele><time>2026-03-24T09:33:04Z</time></trkpt><trkpt lat="43.6344768590956" lon="10.455363585372604"><ele>1.6666666666666665</ele><time>2026-03-24T09:33:05Z</time></trkpt><trkpt lat="43.634671266627656" lon="10.455240573773372"><ele>1.0</ele><time>2026-03-24T09:33:06Z</time></trkpt><trkpt lat="43.63486856474435" lon="10.455117896639617"><ele>1.0</ele><time>2026-03-24T09:33:07Z</time></trkpt><trkpt lat="43.635079778422046" lon="10.45498179457372"><ele>1.0</ele><time>2026-03-24T09:33:08Z</time></trkpt><trkpt lat="43.63530467262624" lon="10.454836724513955"><ele>1.0</ele><time>2026-03-24T09:33:09Z</time></trkpt><trkpt lat="43.63553766012651" lon="10.454683522135396"><ele>1.0</ele><time>2026-03-24T09:33:10Z</time></trkpt><trkpt lat="43.63577801043784" lon="10.454520664339396"><ele>1.0</ele><time>2026-03-24T09:33:11Z</time></trkpt><trkpt lat="43.63602447267864" lon="10.45435205973302"><ele>1.0</ele><time>2026-03-24T09:33:12Z</time></trkpt><trkpt lat="43.63628019475621" lon="10.454185779464183"><ele>1.0</ele><time>2026-03-24T09:33:13Z</time></trkpt><trkpt lat="43.63654301152676" lon="10.454025464757596"><ele>1.0</ele><time>2026-03-24T09:33:14Z</time></trkpt><trkpt lat="43.63681858916888" lon="10.453868084936447"><ele>0.5</ele><time>2026-03-24T09:33:15Z</time></trkpt><trkpt lat="43.637090517750075" lon="10.453706400496838"><ele>0.0</ele><time>2026-03-24T09:33:16Z</time></trkpt><trkpt lat="43.63736319696884" lon="10.4535359305136"><ele>0.0</ele><time>2026-03-24T09:33:17Z</time></trkpt><trkpt lat="43.6376284519435" lon="10.453367776457352"><ele>0.0</ele><time>2026-03-24T09:33:18Z</time></trkpt><trkpt lat="43.63788107901812" lon="10.453206384979003"><ele>0.5</ele><time>2026-03-24T09:33:19Z</time></trkpt><trkpt lat="43.638131191956944" lon="10.45304976733238"><ele>1.0</ele><time>2026-03-24T09:33:20Z</time></trkpt><trkpt lat="43.63838064909008" lon="10.45289425276876"><ele>1.5</ele><time>2026-03-24T09:33:21Z</time></trkpt><trkpt lat="43.63861242173424" lon="10.452745663059943"><ele>2.0</ele><time>2026-03-24T09:33:22Z</time></trkpt><trkpt lat="43.63883272448351" lon="10.452603095462017"><ele>1.0</ele><time>2026-03-24T09:33:23Z</time></trkpt><trkpt lat="43.63904172620681" lon="10.452469971005202"><ele>0.0</ele><time>2026-03-24T09:33:24Z</time></trkpt><trkpt lat="43.63924512537523" lon="10.452339588748542"><ele>0.0</ele><time>2026-03-24T09:33:25Z</time></trkpt><trkpt lat="43.63945252373592" lon="10.452205001576237"><ele>0.0</ele><time>2026-03-24T09:33:26Z</time></trkpt><trkpt lat="43.63967405824703" lon="10.452051617907019"><ele>0.0</ele><time>2026-03-24T09:33:27Z</time></trkpt><trkpt lat="43.63991012104469" lon="10.451887650323373"><ele>0.0</ele><time>2026-03-24T09:33:28Z</time></trkpt><trkpt lat="43.64016085705766" lon="10.45172896269271"><ele>0.0</ele><time>2026-03-24T09:33:29Z</time></trkpt><trkpt lat="43.64040508138912" lon="10.45158171987975"><ele>0.0</ele><time>2026-03-24T09:33:30Z</time></trkpt><trkpt lat="43.640632920853726" lon="10.451448923602488"><ele>0.0</ele><time>2026-03-24T09:33:31Z</time></trkpt><trkpt lat="43.64084111674485" lon="10.451323574490889"><ele>0.0</ele><time>2026-03-24T09:33:32Z</time></trkpt><trkpt lat="43.64103886855131" lon="10.451194489388149"><ele>0.0</ele><time>2026-03-24T09:33:33Z</time></trkpt><trkpt lat="43.64125047256308" lon="10.451047673783094"><ele>0.0</ele><time>2026-03-24T09:33:34Z</time></trkpt><trkpt lat="43.641479714410266" lon="10.45089122110176"><ele>0.0</ele><time>2026-03-24T09:33:35Z</time></trkpt><trkpt lat="43.641720348266595" lon="10.450747026820332"><ele>0.0</ele><time>2026-03-24T09:33:36Z</time></trkpt><trkpt lat="43.64194471497629" lon="10.450624437137611"><ele>0.0</ele><time>2026-03-24T09:33:37Z</time></trkpt><trkpt lat="43.64215318626154" lon="10.450500432339892"><ele>0.3333333333333333</ele><time>2026-03-24T09:33:38Z</time></trkpt><trkpt lat="43.64235045361989" lon="10.450376355251263"><ele>0.6666666666666666</ele><time>2026-03-24T09:33:39Z</time></trkpt><trkpt lat="43.64255463627951" lon="10.450248991828978"><ele>1.0</ele><time>2026-03-24T09:33:40Z</time></trkpt><trkpt lat="43.64274563494697" lon="10.4501279068106"><ele>1.3333333333333333</ele><time>2026-03-24T09:33:41Z</time></trkpt><trkpt lat="43.64290629004316" lon="10.450018479427758"><ele>1.6666666666666665</ele><time>2026-03-24T09:33:42Z</time></trkpt><trkpt lat="43.64304105236015" lon="10.44992489847701"><ele>2.0</ele><time>2026-03-24T09:33:43Z</time></trkpt><trkpt lat="43.64315715887814" lon="10.449846704626282"><ele>2.0</ele><time>2026-03-24T09:33:44Z</time></trkpt><trkpt lat="43.643256447872446" lon="10.449783464326677"><ele>2.0</ele><time>2026-03-24T09:33:45Z</time></trkpt><trkpt lat="43.643347439100346" lon="10.4497267919959"><ele>2.0</ele><time>2026-03-24T09:33:46Z</time></trkpt><trkpt lat="43.643431884602286" lon="10.449674336493986"><ele>2.0</ele><time>2026-03-24T09:33:47Z</time></trkpt><trkpt lat="43.64350899864482" lon="10.449625623632452"><ele>2.0</ele><time>2026-03-24T09:33:48Z</time></trkpt><trkpt lat="43.643571930021444" lon="10.449584663423146"><ele>2.1666666666666665</ele><time>2026-03-24T09:33:49Z</time></trkpt><trkpt lat="43.64364021304253" lon="10.449539988466839"><ele>2.333333333333333</ele><time>2026-03-24T09:33:50Z</time></trkpt><trkpt lat="43.643711237049864" lon="10.449496034706225"><ele>2.5</ele><time>2026-03-24T09:33:51Z</time></trkpt><trkpt lat="43.64377356375479" lon="10.449461011456863"><ele>2.6666666666666665</ele><time>2026-03-24T09:33:52Z</time></trkpt><trkpt lat="43.64384249993591" lon="10.449419349759214"><ele>2.8333333333333335</ele><time>2026-03-24T09:33:53Z</time></trkpt><trkpt lat="43.64390783799443" lon="10.449377850320268"><ele>3.0</ele><time>2026-03-24T09:33:54Z</time></trkpt><trkpt lat="43.64399345093229" lon="10.449340494372503"><ele>3.0</ele><time>2026-03-24T09:33:55Z</time></trkpt><trkpt lat="43.644066295573786" lon="10.449318577565545"><ele>3.0</ele><time>2026-03-24T09:33:56Z</time></trkpt><trkpt lat="43.644136336937414" lon="10.44929471914392"><ele>3.0</ele><time>2026-03-24T09:33:57Z</time></trkpt><trkpt lat="43.64421990114943" lon="10.449241303955297"><ele>3.0</ele><time>2026-03-24T09:33:58Z</time></trkpt><trkpt lat="43.644312928389894" lon="10.449164458600443"><ele>3.0</ele><time>2026-03-24T09:33:59Z</time></trkpt><trkpt lat="43.644414842035665" lon="10.449078925760475"><ele>2.75</ele><time>2026-03-24T09:34:00Z</time></trkpt><trkpt lat="43.64452368788535" lon="10.44899918625878"><ele>2.5</ele><time>2026-03-24T09:34:01Z</time></trkpt><trkpt lat="43.64464183700851" lon="10.44892128117118"><ele>2.25</ele><time>2026-03-24T09:34:02Z</time></trkpt><trkpt lat="43.6447529454998" lon="10.448844563481874"><ele>2.0</ele><time>2026-03-24T09:34:03Z</time></trkpt><trkpt lat="43.644846288257405" lon="10.44876130355058"><ele>2.0</ele><time>2026-03-24T09:34:04Z</time></trkpt><trkpt lat="43.644952453416074" lon="10.448713323717485"><ele>2.0</ele><time>2026-03-24T09:34:05Z</time></trkpt><trkpt lat="43.645089896070616" lon="10.448624830446814"><ele>2.0</ele><time>2026-03-24T09:34:06Z</time></trkpt><trkpt lat="43.64520635325291" lon="10.448554073029849"><ele>2.0</ele><time>2026-03-24T09:34:07Z</time></trkpt><trkpt lat="43.645331028619964" lon="10.448478463738745"><ele>1.75</ele><time>2026-03-24T09:34:08Z</time></trkpt><trkpt lat="43.645448701600955" lon="10.44840701930462"><ele>1.5</ele><time>2026-03-24T09:34:09Z</time></trkpt><trkpt lat="43.64557032409656" lon="10.448328306866216"><ele>1.25</ele><time>2026-03-24T09:34:10Z</time></trkpt><trkpt lat="43.64568611947072" lon="10.448253651978877"><ele>1.0</ele><time>2026-03-24T09:34:11Z</time></trkpt><trkpt lat="43.64581620399606" lon="10.448166737798969"><ele>1.0</ele><time>2026-03-24T09:34:12Z</time></trkpt><trkpt lat="43.64595157614453" lon="10.448086837495202"><ele>1.0</ele><time>2026-03-24T09:34:13Z</time></trkpt><trkpt lat="43.646086109983955" lon="10.447998297528937"><ele>1.0</ele><time>2026-03-24T09:34:14Z</time></trkpt><trkpt lat="43.6462178078403" lon="10.447915525097528"><ele>1.0</ele><time>2026-03-24T09:34:15Z</time></trkpt><trkpt lat="43.64634659245169" lon="10.447831518331327"><ele>0.5</ele><time>2026-03-24T09:34:16Z</time></trkpt><trkpt lat="43.646481409056406" lon="10.447747157501674"><ele>0.0</ele><time>2026-03-24T09:34:17Z</time></trkpt><trkpt lat="43.64661092211313" lon="10.447664098364026"><ele>-0.5</ele><time>2026-03-24T09:34:18Z</time></trkpt><trkpt lat="43.64673429985634" lon="10.44758886742991"><ele>-1.0</ele><time>2026-03-24T09:34:19Z</time></trkpt><trkpt lat="43.64686714037415" lon="10.44751592163606"><ele>-1.25</ele><time>2026-03-24T09:34:20Z</time></trkpt><trkpt lat="43.646988845808494" lon="10.447446513154292"><ele>-1.5</ele><time>2026-03-24T09:34:21Z</time></trkpt><trkpt lat="43.647108680667664" lon="10.447365848399059"><ele>-1.75</ele><time>2026-03-24T09:34:22Z</time></trkpt><trkpt lat="43.64723824941524" lon="10.447269213357803"><ele>-2.0</ele><time>2026-03-24T09:34:23Z</time></trkpt><trkpt lat="43.64736229773616" lon="10.447183869261798"><ele>-1.5</ele><time>2026-03-24T09:34:24Z</time></trkpt><trkpt lat="43.647485973010234" lon="10.447106571240841"><ele>-1.0</ele><time>2026-03-24T09:34:25Z</time></trkpt><trkpt lat="43.64762200190439" lon="10.44702924880223"><ele>-0.5</ele><time>2026-03-24T09:34:26Z</time></trkpt><trkpt lat="43.64775718845632" lon="10.446936542784371"><ele>0.0</ele><time>2026-03-24T09:34:27Z</time></trkpt><trkpt lat="43.647897935736246" lon="10.446845919489787"><ele>0.0</ele><time>2026-03-24T09:34:28Z</time></trkpt><trkpt lat="43.6480434040739" lon="10.446763916899027"><ele>0.0</ele><time>2026-03-24T09:34:29Z</time></trkpt><trkpt lat="43.64818052478527" lon="10.446667220824864"><ele>0.0</ele><time>2026-03-24T09:34:30Z</time></trkpt><trkpt lat="43.648324659266585" lon="10.446580704728001"><ele>0.0</ele><time>2026-03-24T09:34:31Z</time></trkpt><trkpt lat="43.64847418732095" lon="10.4464874168532"><ele>0.0</ele><time>2026-03-24T09:34:32Z</time></trkpt><trkpt lat="43.64862834667736" lon="10.446387670296028"><ele>0.0</ele><time>2026-03-24T09:34:33Z</time></trkpt><trkpt lat="43.648781475638586" lon="10.446292440076684"><ele>-0.3333333333333333</ele><time>2026-03-24T09:34:34Z</time></trkpt><trkpt lat="43.64893406423817" lon="10.44619847191845"><ele>-0.6666666666666666</ele><time>2026-03-24T09:34:35Z</time></trkpt><trkpt lat="43.649090671987494" lon="10.446104084924208"><ele>-1.0</ele><time>2026-03-24T09:34:36Z</time></trkpt><trkpt lat="43.64925340326637" lon="10.446000096087653"><ele>-1.0</ele><time>2026-03-24T09:34:37Z</time></trkpt><trkpt lat="43.6494146865402" lon="10.445889780840057"><ele>-1.0</ele><time>2026-03-24T09:34:38Z</time></trkpt><trkpt lat="43.64957573862133" lon="10.445783334367539"><ele>-1.0</ele><time>2026-03-24T09:34:39Z</time></trkpt><trkpt lat="43.64973150452492" lon="10.445694515623975"><ele>-1.0</ele><time>2026-03-24T09:34:40Z</time></trkpt><trkpt lat="43.64988322199424" lon="10.445598270642929"><ele>-1.0</ele><time>2026-03-24T09:34:41Z</time></trkpt><trkpt lat="43.65003602940831" lon="10.445502929917334"><ele>-1.0</ele><time>2026-03-24T09:34:42Z</time></trkpt><trkpt lat="43.65018522733952" lon="10.44541057876379"><ele>-0.3333333333333333</ele><time>2026-03-24T09:34:43Z</time></trkpt><trkpt lat="43.65033825457251" lon="10.445311592479754"><ele>0.3333333333333333</ele><time>2026-03-24T09:34:44Z</time></trkpt><trkpt lat="43.65049731279154" lon="10.445212609567706"><ele>1.0</ele><time>2026-03-24T09:34:45Z</time></trkpt><trkpt lat="43.65064861963159" lon="10.445120147106639"><ele>1.0</ele><time>2026-03-24T09:34:46Z</time></trkpt><trkpt lat="43.650801015348705" lon="10.445023899963797"><ele>1.0</ele><time>2026-03-24T09:34:47Z</time></trkpt><trkpt lat="43.650954320705885" lon="10.444925192840051"><ele>1.0</ele><time>2026-03-24T09:34:48Z</time></trkpt><trkpt lat="43.65110423465475" lon="10.444828814441932"><ele>0.3333333333333333</ele><time>2026-03-24T09:34:49Z</time></trkpt><trkpt lat="43.65124746992882" lon="10.444738498358314"><ele>-0.3333333333333333</ele><time>2026-03-24T09:34:50Z</time></trkpt><trkpt lat="43.65139466371711" lon="10.444644204930057"><ele>-1.0</ele><time>2026-03-24T09:34:51Z</time></trkpt><trkpt lat="43.65154555258912" lon="10.44454975362177"><ele>-1.0</ele><time>2026-03-24T09:34:52Z</time></trkpt><trkpt lat="43.651698986382634" lon="10.444454902463683"><ele>-1.0</ele><time>2026-03-24T09:34:53Z</time></trkpt><trkpt lat="43.65186178346293" lon="10.444343113502612"><ele>-1.0</ele><time>2026-03-24T09:34:54Z</time></trkpt><trkpt lat="43.652061584702345" lon="10.444226539198855"><ele>-0.5</ele><time>2026-03-24T09:34:55Z</time></trkpt><trkpt lat="43.65228601767843" lon="10.444084170850251"><ele>0.0</ele><time>2026-03-24T09:34:56Z</time></trkpt><trkpt lat="43.65250591653843" lon="10.443919642170014"><ele>0.0</ele><time>2026-03-24T09:34:57Z</time></trkpt><trkpt lat="43.65274491594517" lon="10.443771905871099"><ele>0.0</ele><time>2026-03-24T09:34:58Z</time></trkpt><trkpt lat="43.65299181049927" lon="10.443612003672454"><ele>-0.5</ele><time>2026-03-24T09:34:59Z</time></trkpt><trkpt lat="43.65325073287134" lon="10.443473087486662"><ele>-1.0</ele><time>2026-03-24T09:35:00Z</time></trkpt><trkpt lat="43.653512083305266" lon="10.443307523725132"><ele>-0.5</ele><time>2026-03-24T09:35:01Z</time></trkpt><trkpt lat="43.65377822393583" lon="10.443138925425561"><ele>0.0</ele><time>2026-03-24T09:35:02Z</time></trkpt><trkpt lat="43.65403829938512" lon="10.442973242224845"><ele>0.0</ele><time>2026-03-24T09:35:03Z</time></trkpt><trkpt lat="43.65428104078936" lon="10.44280073156212"><ele>0.0</ele><time>2026-03-24T09:35:04Z</time></trkpt><trkpt lat="43.654511079919665" lon="10.442665417510332"><ele>0.0</ele><time>2026-03-24T09:35:05Z</time></trkpt><trkpt lat="43.65472526614086" lon="10.442534919618732"><ele>0.0</ele><time>2026-03-24T09:35:06Z</time></trkpt><trkpt lat="43.65492705001004" lon="10.442403187845752"><ele>0.0</ele><time>2026-03-24T09:35:07Z</time></trkpt><trkpt lat="43.65511783551677" lon="10.44227732728471"><ele>0.0</ele><time>2026-03-24T09:35:08Z</time></trkpt><trkpt lat="43.65530135872656" lon="10.442157899510375"><ele>0.0</ele><time>2026-03-24T09:35:09Z</time></trkpt><trkpt lat="43.65550961527714" lon="10.442017875630938"><ele>0.5</ele><time>2026-03-24T09:35:10Z</time></trkpt><trkpt lat="43.65573507796202" lon="10.441867925584218"><ele>1.0</ele><time>2026-03-24T09:35:11Z</time></trkpt><trkpt lat="43.6559704614443" lon="10.441719869395943"><ele>0.5</ele><time>2026-03-24T09:35:12Z</time></trkpt><trkpt lat="43.65620939019723" lon="10.441583640791515"><ele>0.0</ele><time>2026-03-24T09:35:13Z</time></trkpt><trkpt lat="43.65645835940219" lon="10.441441917138734"><ele>0.5</ele><time>2026-03-24T09:35:14Z</time></trkpt><trkpt lat="43.65671005314148" lon="10.441286029596224"><ele>1.0</ele><time>2026-03-24T09:35:15Z</time></trkpt><trkpt lat="43.6569632162897" lon="10.441123243419137"><ele>1.0</ele><time>2026-03-24T09:35:16Z</time></trkpt><trkpt lat="43.65722182436326" lon="10.44096003072387"><ele>1.0</ele><time>2026-03-24T09:35:17Z</time></trkpt><trkpt lat="43.65748178964612" lon="10.440794261813728"><ele>1.0</ele><time>2026-03-24T09:35:18Z</time></trkpt><trkpt lat="43.6577426187722" lon="10.4406274414235"><ele>1.0</ele><time>2026-03-24T09:35:19Z</time></trkpt><trkpt lat="43.65800502907439" lon="10.440459989294824"><ele>0.5</ele><time>2026-03-24T09:35:20Z</time></trkpt><trkpt lat="43.65826776402281" lon="10.440289638029881"><ele>0.0</ele><time>2026-03-24T09:35:21Z</time></trkpt><trkpt lat="43.658529949059854" lon="10.440118595472011"><ele>-1.0</ele><time>2026-03-24T09:35:22Z</time></trkpt><trkpt lat="43.65879439792655" lon="10.43994807134222"><ele>-2.0</ele><time>2026-03-24T09:35:23Z</time></trkpt><trkpt lat="43.65904033010653" lon="10.439792174935079"><ele>-2.0</ele><time>2026-03-24T09:35:24Z</time></trkpt><trkpt lat="43.65927640418342" lon="10.439646431754447"><ele>-2.0</ele><time>2026-03-24T09:35:25Z</time></trkpt><trkpt lat="43.65950450091693" lon="10.439503004854675"><ele>-0.5</ele><time>2026-03-24T09:35:26Z</time></trkpt><trkpt lat="43.659732485842106" lon="10.439357251863937"><ele>1.0</ele><time>2026-03-24T09:35:27Z</time></trkpt><trkpt lat="43.659956879268925" lon="10.439212104760946"><ele>1.0</ele><time>2026-03-24T09:35:28Z</time></trkpt><trkpt lat="43.6601851250072" lon="10.43906946803531"><ele>1.0</ele><time>2026-03-24T09:35:29Z</time></trkpt><trkpt lat="43.660410429383326" lon="10.438924662731905"><ele>1.0</ele><time>2026-03-24T09:35:30Z</time></trkpt><trkpt lat="43.6606386191773" lon="10.438780153590645"><ele>1.0</ele><time>2026-03-24T09:35:31Z</time></trkpt><trkpt lat="43.6608678021166" lon="10.438636148532783"><ele>1.0</ele><time>2026-03-24T09:35:32Z</time></trkpt><trkpt lat="43.6610974956005" lon="10.438492582846347"><ele>1.0</ele><time>2026-03-24T09:35:33Z</time></trkpt><trkpt lat="43.661328482079874" lon="10.438348074185075"><ele>0.5</ele><time>2026-03-24T09:35:34Z</time></trkpt><trkpt lat="43.661562637884785" lon="10.438200135954839"><ele>0.0</ele><time>2026-03-24T09:35:35Z</time></trkpt><trkpt lat="43.66179774089192" lon="10.438052763174598"><ele>0.0</ele><time>2026-03-24T09:35:36Z</time></trkpt><trkpt lat="43.66202638824707" lon="10.437908468370836"><ele>0.0</ele><time>2026-03-24T09:35:37Z</time></trkpt><trkpt lat="43.66224124079277" lon="10.43777013122054"><ele>0.0</ele><time>2026-03-24T09:35:38Z</time></trkpt><trkpt lat="43.66243462140103" lon="10.437643766801422"><ele>0.0</ele><time>2026-03-24T09:35:39Z</time></trkpt><trkpt lat="43.66261742614339" lon="10.437522874827824"><ele>0.0</ele><time>2026-03-24T09:35:40Z</time></trkpt><trkpt lat="43.662788674864046" lon="10.437412313887746"><ele>0.0</ele><time>2026-03-24T09:35:41Z</time></trkpt><trkpt lat="43.66295351592529" lon="10.437306767012496"><ele>0.0</ele><time>2026-03-24T09:35:42Z</time></trkpt><trkpt lat="43.663106197513926" lon="10.437209833595576"><ele>0.0</ele><time>2026-03-24T09:35:43Z</time></trkpt><trkpt lat="43.66325247690682" lon="10.437117955845974"><ele>0.0</ele><time>2026-03-24T09:35:44Z</time></trkpt><trkpt lat="43.6633903167048" lon="10.437033288897773"><ele>0.0</ele><time>2026-03-24T09:35:45Z</time></trkpt><trkpt lat="43.66353998784587" lon="10.436940382403295"><ele>0.0</ele><time>2026-03-24T09:35:46Z</time></trkpt><trkpt lat="43.663713220745564" lon="10.436823596529406"><ele>0.0</ele><time>2026-03-24T09:35:47Z</time></trkpt><trkpt lat="43.66390930611813" lon="10.4366866578914"><ele>0.0</ele><time>2026-03-24T09:35:48Z</time></trkpt><trkpt lat="43.66412477984338" lon="10.436548374376105"><ele>0.0</ele><time>2026-03-24T09:35:49Z</time></trkpt><trkpt lat="43.664330557698555" lon="10.436430910061759"><ele>0.0</ele><time>2026-03-24T09:35:50Z</time></trkpt><trkpt lat="43.66450980084921" lon="10.436323845212218"><ele>0.0</ele><time>2026-03-24T09:35:51Z</time></trkpt><trkpt lat="43.66467342842299" lon="10.436218607817027"><ele>0.0</ele><time>2026-03-24T09:35:52Z</time></trkpt><trkpt lat="43.66482400843384" lon="10.436120875731502"><ele>0.0</ele><time>2026-03-24T09:35:53Z</time></trkpt><trkpt lat="43.66496503936385" lon="10.436030341234558"><ele>0.0</ele><time>2026-03-24T09:35:54Z</time></trkpt><trkpt lat="43.66509968915638" lon="10.435947027844755"><ele>0.0</ele><time>2026-03-24T09:35:55Z</time></trkpt><trkpt lat="43.66523102370584" lon="10.435866439376234"><ele>0.0</ele><time>2026-03-24T09:35:56Z</time></trkpt><trkpt lat="43.66536124699962" lon="10.435785816784414"><ele>0.0</ele><time>2026-03-24T09:35:57Z</time></trkpt><trkpt lat="43.665502765266645" lon="10.435695315643184"><ele>0.0</ele><time>2026-03-24T09:35:58Z</time></trkpt><trkpt lat="43.665670255330035" lon="10.43557974318185"><ele>0.3333333333333333</ele><time>2026-03-24T09:35:59Z</time></trkpt><trkpt lat="43.665864931137754" lon="10.435440874367849"><ele>0.6666666666666666</ele><time>2026-03-24T09:36:00Z</time></trkpt><trkpt lat="43.66607168580434" lon="10.435317979399883"><ele>1.0</ele><time>2026-03-24T09:36:01Z</time></trkpt><trkpt lat="43.66626997114233" lon="10.435209089878551"><ele>1.0</ele><time>2026-03-24T09:36:02Z</time></trkpt><trkpt lat="43.66646416389027" lon="10.435088190500002"><ele>1.0</ele><time>2026-03-24T09:36:03Z</time></trkpt><trkpt lat="43.66666855738263" lon="10.43494554848454"><ele>1.0</ele><time>2026-03-24T09:36:04Z</time></trkpt><trkpt lat="43.66688914013293" lon="10.434793374415015"><ele>0.0</ele><time>2026-03-24T09:36:05Z</time></trkpt><trkpt lat="43.66712057834553" lon="10.434660956166754"><ele>-1.0</ele><time>2026-03-24T09:36:06Z</time></trkpt><trkpt lat="43.667330534988366" lon="10.434551576938206"><ele>-0.3333333333333333</ele><time>2026-03-24T09:36:07Z</time></trkpt><trkpt lat="43.66752222142957" lon="10.434439710901936"><ele>0.3333333333333333</ele><time>2026-03-24T09:36:08Z</time></trkpt><trkpt lat="43.6676914488633" lon="10.434340517041456"><ele>1.0</ele><time>2026-03-24T09:36:09Z</time></trkpt><trkpt lat="43.667841183047194" lon="10.434262257458029"><ele>1.0</ele><time>2026-03-24T09:36:10Z</time></trkpt><trkpt lat="43.667963412263255" lon="10.434203246319896"><ele>1.0</ele><time>2026-03-24T09:36:11Z</time></trkpt><trkpt lat="43.668052384091105" lon="10.434167707443542"><ele>1.0</ele><time>2026-03-24T09:36:12Z</time></trkpt><trkpt lat="43.668122782632" lon="10.434141836875497"><ele>1.0</ele><time>2026-03-24T09:36:13Z</time></trkpt><trkpt lat="43.66819004481227" lon="10.434119745307951"><ele>1.0</ele><time>2026-03-24T09:36:14Z</time></trkpt><trkpt lat="43.66831766712689" lon="10.434096057459255"><ele>0.9999999999999999</ele><time>2026-03-24T09:36:16Z</time></trkpt><trkpt lat="43.668396460626106" lon="10.434099892843777"><ele>1.0</ele><time>2026-03-24T09:36:17Z</time></trkpt><trkpt lat="43.668472319998706" lon="10.434128789085824"><ele>1.0</ele><time>2026-03-24T09:36:18Z</time></trkpt><trkpt lat="43.66854422938687" lon="10.43417688134877"><ele>1.0</ele><time>2026-03-24T09:36:19Z</time></trkpt><trkpt lat="43.668612838435905" lon="10.434221962295968"><ele>0.9999999999999999</ele><time>2026-03-24T09:36:20Z</time></trkpt><trkpt lat="43.668676883307214" lon="10.434238196635881"><ele>1.0</ele><time>2026-03-24T09:36:21Z</time></trkpt><trkpt lat="43.66878638486626" lon="10.43417010079221"><ele>0.9999999999999999</ele><time>2026-03-24T09:36:23Z</time></trkpt><trkpt lat="43.668824096306054" lon="10.43408250200399"><ele>1.0</ele><time>2026-03-24T09:36:24Z</time></trkpt><trkpt lat="43.668851075193956" lon="10.433973013675418"><ele>1.0</ele><time>2026-03-24T09:36:25Z</time></trkpt><trkpt lat="43.6688854938072" lon="10.433876226345419"><ele>1.0</ele><time>2026-03-24T09:36:26Z</time></trkpt><trkpt lat="43.6689455409135" lon="10.433801214222711"><ele>0.9999999999999999</ele><time>2026-03-24T09:36:27Z</time></trkpt><trkpt lat="43.66904047552273" lon="10.433740880810857"><ele>1.0</ele><time>2026-03-24T09:36:28Z</time></trkpt><trkpt lat="43.66915728239933" lon="10.433695253413955"><ele>0.6666666666666666</ele><time>2026-03-24T09:36:29Z</time></trkpt><trkpt lat="43.669287080993776" lon="10.433645394408012"><ele>0.3333333333333333</ele><time>2026-03-24T09:36:30Z</time></trkpt><trkpt lat="43.66943115549499" lon="10.433573737724254"><ele>0.0</ele><time>2026-03-24T09:36:31Z</time></trkpt><trkpt lat="43.66960862073426" lon="10.433483151986009"><ele>0.0</ele><time>2026-03-24T09:36:32Z</time></trkpt><trkpt lat="43.66979505138199" lon="10.433412544934535"><ele>0.0</ele><time>2026-03-24T09:36:33Z</time></trkpt><trkpt lat="43.66998976789539" lon="10.433356856772937"><ele>0.0</ele><time>2026-03-24T09:36:34Z</time></trkpt><trkpt lat="43.670175143401" lon="10.433310039600567"><ele>0.0</ele><time>2026-03-24T09:36:35Z</time></trkpt><trkpt lat="43.67034108289564" lon="10.4332664365348"><ele>0.0</ele><time>2026-03-24T09:36:36Z</time></trkpt><trkpt lat="43.67049408889002" lon="10.433220247678449"><ele>0.0</ele><time>2026-03-24T09:36:37Z</time></trkpt><trkpt lat="43.67064007485698" lon="10.43318087903752"><ele>0.0</ele><time>2026-03-24T09:36:38Z</time></trkpt><trkpt lat="43.67079618757495" lon="10.433141156498818"><ele>0.0</ele><time>2026-03-24T09:36:39Z</time></trkpt><trkpt lat="43.67095239741513" lon="10.43310275732183"><ele>0.0</ele><time>2026-03-24T09:36:40Z</time></trkpt><trkpt lat="43.67110242152468" lon="10.433063705037789"><ele>0.0</ele><time>2026-03-24T09:36:41Z</time></trkpt><trkpt lat="43.67125831739486" lon="10.433018598965523"><ele>0.0</ele><time>2026-03-24T09:36:42Z</time></trkpt><trkpt lat="43.67141083112381" lon="10.43297409086701"><ele>0.0</ele><time>2026-03-24T09:36:43Z</time></trkpt><trkpt lat="43.67156760959946" lon="10.432923349483122"><ele>0.0</ele><time>2026-03-24T09:36:44Z</time></trkpt><trkpt lat="43.67172410295812" lon="10.432864082400522"><ele>0.0</ele><time>2026-03-24T09:36:45Z</time></trkpt><trkpt lat="43.67188219874786" lon="10.43279799575599"><ele>0.0</ele><time>2026-03-24T09:36:46Z</time></trkpt><trkpt lat="43.672036218477125" lon="10.432731468830482"><ele>0.3333333333333333</ele><time>2026-03-24T09:36:47Z</time></trkpt><trkpt lat="43.67219257915968" lon="10.432658622706914"><ele>0.6666666666666666</ele><time>2026-03-24T09:36:48Z</time></trkpt><trkpt lat="43.672353426024" lon="10.432578083703564"><ele>1.0</ele><time>2026-03-24T09:36:49Z</time></trkpt><trkpt lat="43.67251975268044" lon="10.432491202636928"><ele>1.0</ele><time>2026-03-24T09:36:50Z</time></trkpt><trkpt lat="43.672682540133856" lon="10.432400159963775"><ele>1.0</ele><time>2026-03-24T09:36:51Z</time></trkpt><trkpt lat="43.67283730059093" lon="10.432305271709886"><ele>1.0</ele><time>2026-03-24T09:36:52Z</time></trkpt><trkpt lat="43.673003412586596" lon="10.432195228049405"><ele>0.5</ele><time>2026-03-24T09:36:53Z</time></trkpt><trkpt lat="43.67319225336452" lon="10.432058518545873"><ele>0.0</ele><time>2026-03-24T09:36:54Z</time></trkpt><trkpt lat="43.67341553409696" lon="10.431936271982055"><ele>0.0</ele><time>2026-03-24T09:36:55Z</time></trkpt><trkpt lat="43.67363481693764" lon="10.431778697409538"><ele>0.0</ele><time>2026-03-24T09:36:56Z</time></trkpt><trkpt lat="43.67385799859735" lon="10.431651067370234"><ele>0.0</ele><time>2026-03-24T09:36:57Z</time></trkpt><trkpt lat="43.67405685949794" lon="10.431530635012852"><ele>0.0</ele><time>2026-03-24T09:36:58Z</time></trkpt><trkpt lat="43.674235974059506" lon="10.431416925315292"><ele>0.0</ele><time>2026-03-24T09:36:59Z</time></trkpt><trkpt lat="43.67440527627121" lon="10.431303745553176"><ele>0.25</ele><time>2026-03-24T09:37:00Z</time></trkpt><trkpt lat="43.67455318989742" lon="10.431205265064682"><ele>0.5</ele><time>2026-03-24T09:37:01Z</time></trkpt><trkpt lat="43.67468911997284" lon="10.431121198545794"><ele>0.75</ele><time>2026-03-24T09:37:02Z</time></trkpt><trkpt lat="43.674812428756404" lon="10.43106288089663"><ele>1.0</ele><time>2026-03-24T09:37:03Z</time></trkpt><trkpt lat="43.67491914271685" lon="10.43104600729296"><ele>0.9999999999999999</ele><time>2026-03-24T09:37:04Z</time></trkpt><trkpt lat="43.67501854030278" lon="10.43106248133234"><ele>1.0</ele><time>2026-03-24T09:37:05Z</time></trkpt><trkpt lat="43.675109103164644" lon="10.431082724677571"><ele>1.0</ele><time>2026-03-24T09:37:06Z</time></trkpt><trkpt lat="43.67518251376302" lon="10.431055948019708"><ele>1.0</ele><time>2026-03-24T09:37:07Z</time></trkpt><trkpt lat="43.675232073164445" lon="10.430982595271484"><ele>0.9999999999999999</ele><time>2026-03-24T09:37:08Z</time></trkpt><trkpt lat="43.67526608318471" lon="10.430879222318373"><ele>1.0</ele><time>2026-03-24T09:37:09Z</time></trkpt><trkpt lat="43.67529334153141" lon="10.430783587806072"><ele>1.2000000000000002</ele><time>2026-03-24T09:37:10Z</time></trkpt><trkpt lat="43.67537952481615" lon="10.430671310622884"><ele>1.4000000000000001</ele><time>2026-03-24T09:37:12Z</time></trkpt><trkpt lat="43.67543846190778" lon="10.430637480546388"><ele>1.6</ele><time>2026-03-24T09:37:13Z</time></trkpt><trkpt lat="43.67550936378662" lon="10.430599371734473"><ele>1.8</ele><time>2026-03-24T09:37:14Z</time></trkpt><trkpt lat="43.67559854946564" lon="10.4305404165537"><ele>2.0</ele><time>2026-03-24T09:37:15Z</time></trkpt><trkpt lat="43.67568176892165" lon="10.430479456848692"><ele>2.0</ele><time>2026-03-24T09:37:16Z</time></trkpt><trkpt lat="43.67577403563339" lon="10.430414258909083"><ele>2.0</ele><time>2026-03-24T09:37:17Z</time></trkpt><trkpt lat="43.67587271448123" lon="10.430336137758697"><ele>2.0</ele><time>2026-03-24T09:37:18Z</time></trkpt><trkpt lat="43.67596781319666" lon="10.430258530313003"><ele>2.0</ele><time>2026-03-24T09:37:19Z</time></trkpt><trkpt lat="43.67606158424169" lon="10.430193583525476"><ele>2.0</ele><time>2026-03-24T09:37:20Z</time></trkpt><trkpt lat="43.67615287491717" lon="10.430135699926574"><ele>1.8</ele><time>2026-03-24T09:37:21Z</time></trkpt><trkpt lat="43.67623259355831" lon="10.430081447219862"><ele>1.6</ele><time>2026-03-24T09:37:22Z</time></trkpt><trkpt lat="43.67632189218599" lon="10.43001468133583"><ele>1.4000000000000001</ele><time>2026-03-24T09:37:23Z</time></trkpt><trkpt lat="43.67642018024342" lon="10.42994645662686"><ele>1.2000000000000002</ele><time>2026-03-24T09:37:24Z</time></trkpt><trkpt lat="43.67652331735903" lon="10.429873266167766"><ele>1.0</ele><time>2026-03-24T09:37:25Z</time></trkpt><trkpt lat="43.67663213478497" lon="10.4297899627145"><ele>1.0</ele><time>2026-03-24T09:37:26Z</time></trkpt><trkpt lat="43.676740448399855" lon="10.429708566727957"><ele>1.0</ele><time>2026-03-24T09:37:27Z</time></trkpt><trkpt lat="43.67685727577588" lon="10.429623715852827"><ele>1.0</ele><time>2026-03-24T09:37:28Z</time></trkpt><trkpt lat="43.676987634754376" lon="10.429526174423176"><ele>1.0</ele><time>2026-03-24T09:37:29Z</time></trkpt><trkpt lat="43.677145549682564" lon="10.429395252558471"><ele>1.0</ele><time>2026-03-24T09:37:30Z</time></trkpt><trkpt lat="43.67733030056363" lon="10.429276540951296"><ele>1.0</ele><time>2026-03-24T09:37:31Z</time></trkpt><trkpt lat="43.67752268627785" lon="10.42911814863623"><ele>1.0</ele><time>2026-03-24T09:37:32Z</time></trkpt><trkpt lat="43.67772910727487" lon="10.428968705713574"><ele>1.0</ele><time>2026-03-24T09:37:33Z</time></trkpt><trkpt lat="43.67794081732994" lon="10.428827351819395"><ele>1.0</ele><time>2026-03-24T09:37:34Z</time></trkpt><trkpt lat="43.67815359484631" lon="10.428686077130191"><ele>1.0</ele><time>2026-03-24T09:37:35Z</time></trkpt><trkpt lat="43.67834799923202" lon="10.428553557597455"><ele>1.0</ele><time>2026-03-24T09:37:36Z</time></trkpt><trkpt lat="43.67852660321582" lon="10.428431368893436"><ele>1.0</ele><time>2026-03-24T09:37:37Z</time></trkpt><trkpt lat="43.67869809350727" lon="10.428321340961277"><ele>1.6666666666666665</ele><time>2026-03-24T09:37:38Z</time></trkpt><trkpt lat="43.678865278794426" lon="10.428232232853102"><ele>2.3333333333333335</ele><time>2026-03-24T09:37:39Z</time></trkpt><trkpt lat="43.679031020829356" lon="10.42816046986201"><ele>3.0</ele><time>2026-03-24T09:37:40Z</time></trkpt><trkpt lat="43.67919095951374" lon="10.428112586279493"><ele>3.0</ele><time>2026-03-24T09:37:41Z</time></trkpt><trkpt lat="43.67934158165847" lon="10.428099575302388"><ele>3.0</ele><time>2026-03-24T09:37:42Z</time></trkpt><trkpt lat="43.67948070404862" lon="10.428127015895855"><ele>3.0</ele><time>2026-03-24T09:37:43Z</time></trkpt><trkpt lat="43.67960989141062" lon="10.428180771559006"><ele>3.0</ele><time>2026-03-24T09:37:44Z</time></trkpt><trkpt lat="43.679731955660344" lon="10.428236493618455"><ele>2.8</ele><time>2026-03-24T09:37:45Z</time></trkpt><trkpt lat="43.67983390286836" lon="10.428258979091394"><ele>2.5999999999999996</ele><time>2026-03-24T09:37:46Z</time></trkpt><trkpt lat="43.679910440579114" lon="10.428217897296443"><ele>2.4000000000000004</ele><time>2026-03-24T09:37:47Z</time></trkpt><trkpt lat="43.67996140988849" lon="10.42812087324236"><ele>2.2</ele><time>2026-03-24T09:37:48Z</time></trkpt><trkpt lat="43.67999448149258" lon="10.427972284199258"><ele>2.0</ele><time>2026-03-24T09:37:49Z</time></trkpt><trkpt lat="43.68003286174096" lon="10.427784810890794"><ele>2.0</ele><time>2026-03-24T09:37:50Z</time></trkpt><trkpt lat="43.68012046661095" lon="10.42763453589563"><ele>2.0</ele><time>2026-03-24T09:37:51Z</time></trkpt><trkpt lat="43.68027082723668" lon="10.427524870028744"><ele>2.0</ele><time>2026-03-24T09:37:52Z</time></trkpt><trkpt lat="43.68045259553198" lon="10.427415642233818"><ele>2.333333333333333</ele><time>2026-03-24T09:37:53Z</time></trkpt><trkpt lat="43.680648768679845" lon="10.427283092229235"><ele>2.6666666666666665</ele><time>2026-03-24T09:37:54Z</time></trkpt><trkpt lat="43.68084731824197" lon="10.427130084979922"><ele>3.0</ele><time>2026-03-24T09:37:55Z</time></trkpt><trkpt lat="43.68106505754341" lon="10.426972724126077"><ele>2.5</ele><time>2026-03-24T09:37:56Z</time></trkpt><trkpt lat="43.68127746456347" lon="10.426821250427977"><ele>2.0</ele><time>2026-03-24T09:37:57Z</time></trkpt><trkpt lat="43.681470424103864" lon="10.426675767417983"><ele>2.0</ele><time>2026-03-24T09:37:58Z</time></trkpt><trkpt lat="43.68164803980101" lon="10.426535362600756"><ele>2.0</ele><time>2026-03-24T09:37:59Z</time></trkpt><trkpt lat="43.681818349206516" lon="10.426400463280318"><ele>2.0</ele><time>2026-03-24T09:38:00Z</time></trkpt><trkpt lat="43.68198065141502" lon="10.426274947652749"><ele>1.6666666666666665</ele><time>2026-03-24T09:38:01Z</time></trkpt><trkpt lat="43.68213630096371" lon="10.426154070655695"><ele>1.3333333333333333</ele><time>2026-03-24T09:38:02Z</time></trkpt><trkpt lat="43.682282067405914" lon="10.426044530734957"><ele>1.0</ele><time>2026-03-24T09:38:03Z</time></trkpt><trkpt lat="43.68242716619816" lon="10.42593425065493"><ele>1.0</ele><time>2026-03-24T09:38:04Z</time></trkpt><trkpt lat="43.68257571997559" lon="10.425817424890347"><ele>1.0</ele><time>2026-03-24T09:38:05Z</time></trkpt><trkpt lat="43.68273910182428" lon="10.425683464853304"><ele>1.0</ele><time>2026-03-24T09:38:06Z</time></trkpt><trkpt lat="43.68293288470538" lon="10.425534192016826"><ele>1.5</ele><time>2026-03-24T09:38:07Z</time></trkpt><trkpt lat="43.68313675103856" lon="10.425385415841223"><ele>2.0</ele><time>2026-03-24T09:38:08Z</time></trkpt><trkpt lat="43.68333893104752" lon="10.425233768415529"><ele>2.0</ele><time>2026-03-24T09:38:09Z</time></trkpt><trkpt lat="43.68353213731516" lon="10.425085526560055"><ele>2.0</ele><time>2026-03-24T09:38:10Z</time></trkpt><trkpt lat="43.68372155600095" lon="10.424939935874166"><ele>2.0</ele><time>2026-03-24T09:38:11Z</time></trkpt><trkpt lat="43.6839180901659" lon="10.424787196193744"><ele>1.3333333333333333</ele><time>2026-03-24T09:38:12Z</time></trkpt><trkpt lat="43.684105652912244" lon="10.424618184215413"><ele>0.6666666666666666</ele><time>2026-03-24T09:38:13Z</time></trkpt><trkpt lat="43.684263190288014" lon="10.424427283811518"><ele>0.0</ele><time>2026-03-24T09:38:14Z</time></trkpt><trkpt lat="43.68440135607419" lon="10.424215896240176"><ele>0.6666666666666666</ele><time>2026-03-24T09:38:15Z</time></trkpt><trkpt lat="43.68452538505754" lon="10.423988939705009"><ele>1.3333333333333333</ele><time>2026-03-24T09:38:16Z</time></trkpt><trkpt lat="43.684635216490584" lon="10.423748899322254"><ele>2.0</ele><time>2026-03-24T09:38:17Z</time></trkpt><trkpt lat="43.68471437570396" lon="10.42354372038329"><ele>2.2</ele><time>2026-03-24T09:38:18Z</time></trkpt><trkpt lat="43.68476388408423" lon="10.423394970508237"><ele>2.4000000000000004</ele><time>2026-03-24T09:38:19Z</time></trkpt><trkpt lat="43.68479261527325" lon="10.423293290556627"><ele>2.5999999999999996</ele><time>2026-03-24T09:38:20Z</time></trkpt><trkpt lat="43.68485461140602" lon="10.423157585823454"><ele>2.8</ele><time>2026-03-24T09:39:03Z</time></trkpt><trkpt lat="43.684911076633725" lon="10.423006503886405"><ele>3.0</ele><time>2026-03-24T09:39:04Z</time></trkpt><trkpt lat="43.684972783892356" lon="10.422822324734554"><ele>3.0</ele><time>2026-03-24T09:39:05Z</time></trkpt><trkpt lat="43.68504392767456" lon="10.422605959920995"><ele>3.0</ele><time>2026-03-24T09:39:06Z</time></trkpt><trkpt lat="43.68513809465408" lon="10.422331900975554"><ele>3.0</ele><time>2026-03-24T09:39:07Z</time></trkpt><trkpt lat="43.68525330903439" lon="10.4220061161205"><ele>2.3333333333333335</ele><time>2026-03-24T09:39:08Z</time></trkpt><trkpt lat="43.68539651336502" lon="10.421619371999986"><ele>1.6666666666666665</ele><time>2026-03-24T09:39:09Z</time></trkpt><trkpt lat="43.68541346307652" lon="10.421520472264604"><ele>1.0</ele><time>2026-03-24T09:39:10Z</time></trkpt><trkpt lat="43.685545216299445" lon="10.421215993656975"><ele>1.0</ele><time>2026-03-24T09:39:11Z</time></trkpt><trkpt lat="43.68571691818699" lon="10.420946599042022"><ele>1.0</ele><time>2026-03-24T09:39:12Z</time></trkpt><trkpt lat="43.68590748129366" lon="10.420696357167504"><ele>1.0</ele><time>2026-03-24T09:39:13Z</time></trkpt><trkpt lat="43.68612427210826" lon="10.42048452390914"><ele>1.0</ele><time>2026-03-24T09:39:14Z</time></trkpt><trkpt lat="43.686367283667856" lon="10.420304898425325"><ele>1.0</ele><time>2026-03-24T09:39:15Z</time></trkpt><trkpt lat="43.686625995826574" lon="10.42011672724255"><ele>1.0</ele><time>2026-03-24T09:39:16Z</time></trkpt><trkpt lat="43.68688757104502" lon="10.41996103092798"><ele>1.5</ele><time>2026-03-24T09:39:17Z</time></trkpt><trkpt lat="43.68711749098413" lon="10.41980561091328"><ele>2.0</ele><time>2026-03-24T09:39:18Z</time></trkpt><trkpt lat="43.68733037269678" lon="10.419665822583275"><ele>1.5</ele><time>2026-03-24T09:39:19Z</time></trkpt><trkpt lat="43.68753953842926" lon="10.419520651044543"><ele>1.0</ele><time>2026-03-24T09:39:20Z</time></trkpt><trkpt lat="43.68775272246226" lon="10.4193623162719"><ele>0.5</ele><time>2026-03-24T09:39:21Z</time></trkpt><trkpt lat="43.68796093575251" lon="10.419177025151038"><ele>0.0</ele><time>2026-03-24T09:39:22Z</time></trkpt><trkpt lat="43.68816438890251" lon="10.418955945307246"><ele>0.0</ele><time>2026-03-24T09:39:23Z</time></trkpt><trkpt lat="43.68835880541685" lon="10.418727356368045"><ele>0.0</ele><time>2026-03-24T09:39:24Z</time></trkpt><trkpt lat="43.68856867064047" lon="10.418496837879026"><ele>0.5</ele><time>2026-03-24T09:39:25Z</time></trkpt><trkpt lat="43.68875686430327" lon="10.418284654468273"><ele>1.0</ele><time>2026-03-24T09:39:26Z</time></trkpt><trkpt lat="43.68893513155492" lon="10.418059724449733"><ele>0.5</ele><time>2026-03-24T09:39:27Z</time></trkpt><trkpt lat="43.68910104047806" lon="10.41781547904162"><ele>0.0</ele><time>2026-03-24T09:39:28Z</time></trkpt><trkpt lat="43.68926145741354" lon="10.417546289267621"><ele>0.0</ele><time>2026-03-24T09:39:29Z</time></trkpt><trkpt lat="43.68941541759512" lon="10.417262425951165"><ele>0.0</ele><time>2026-03-24T09:39:30Z</time></trkpt><trkpt lat="43.689566073090646" lon="10.416974957739482"><ele>0.0</ele><time>2026-03-24T09:39:31Z</time></trkpt><trkpt lat="43.689726895775614" lon="10.41668575647484"><ele>0.0</ele><time>2026-03-24T09:39:32Z</time></trkpt><trkpt lat="43.689913252538" lon="10.416408248810361"><ele>-0.5</ele><time>2026-03-24T09:39:33Z</time></trkpt><trkpt lat="43.690091653443986" lon="10.416159005453704"><ele>-1.0</ele><time>2026-03-24T09:39:34Z</time></trkpt><trkpt lat="43.69025377784786" lon="10.415936857869676"><ele>-0.6666666666666666</ele><time>2026-03-24T09:39:35Z</time></trkpt><trkpt lat="43.69040367591405" lon="10.415715318139402"><ele>-0.3333333333333333</ele><time>2026-03-24T09:39:36Z</time></trkpt><trkpt lat="43.690553280043616" lon="10.415483442001015"><ele>0.0</ele><time>2026-03-24T09:39:37Z</time></trkpt><trkpt lat="43.690688605036016" lon="10.41525393601893"><ele>-0.3333333333333333</ele><time>2026-03-24T09:39:38Z</time></trkpt><trkpt lat="43.690819320882994" lon="10.415011469166695"><ele>-0.6666666666666666</ele><time>2026-03-24T09:39:39Z</time></trkpt><trkpt lat="43.69092212962449" lon="10.414793635490767"><ele>-1.0</ele><time>2026-03-24T09:39:40Z</time></trkpt><trkpt lat="43.691030780829664" lon="10.414610233623591"><ele>-0.3333333333333333</ele><time>2026-03-24T09:39:41Z</time></trkpt><trkpt lat="43.69114421075269" lon="10.41445453247819"><ele>0.3333333333333333</ele><time>2026-03-24T09:39:42Z</time></trkpt><trkpt lat="43.69129967170642" lon="10.414342235263877"><ele>1.0</ele><time>2026-03-24T09:39:43Z</time></trkpt><trkpt lat="43.691486703768504" lon="10.414254639553377"><ele>1.0</ele><time>2026-03-24T09:39:44Z</time></trkpt><trkpt lat="43.6917115699908" lon="10.414216647207716"><ele>1.0</ele><time>2026-03-24T09:39:45Z</time></trkpt><trkpt lat="43.69194742591746" lon="10.414191264412306"><ele>1.5</ele><time>2026-03-24T09:39:46Z</time></trkpt><trkpt lat="43.69218946327272" lon="10.41417981093611"><ele>2.0</ele><time>2026-03-24T09:39:47Z</time></trkpt><trkpt lat="43.692449809801495" lon="10.414142325420269"><ele>2.0</ele><time>2026-03-24T09:39:48Z</time></trkpt><trkpt lat="43.69271423325679" lon="10.414104756845154"><ele>2.0</ele><time>2026-03-24T09:39:49Z</time></trkpt><trkpt lat="43.69295599453646" lon="10.414072384104037"><ele>2.0</ele><time>2026-03-24T09:39:50Z</time></trkpt><trkpt lat="43.69318455137937" lon="10.414040175327171"><ele>2.0</ele><time>2026-03-24T09:39:51Z</time></trkpt><trkpt lat="43.6934026072623" lon="10.414012713117367"><ele>2.0</ele><time>2026-03-24T09:39:52Z</time></trkpt><trkpt lat="43.69360119912472" lon="10.413988969493905"><ele>2.0</ele><time>2026-03-24T09:39:53Z</time></trkpt><trkpt lat="43.69378979828" lon="10.413957601974856"><ele>2.0</ele><time>2026-03-24T09:39:54Z</time></trkpt><trkpt lat="43.69396809535634" lon="10.41391332261434"><ele>2.0</ele><time>2026-03-24T09:39:55Z</time></trkpt><trkpt lat="43.694143275351294" lon="10.413860107202616"><ele>2.333333333333333</ele><time>2026-03-24T09:39:56Z</time></trkpt><trkpt lat="43.694304848719774" lon="10.413794681379095"><ele>2.6666666666666665</ele><time>2026-03-24T09:39:57Z</time></trkpt><trkpt lat="43.69445065639374" lon="10.413732845795474"><ele>3.0</ele><time>2026-03-24T09:39:58Z</time></trkpt><trkpt lat="43.694600128233816" lon="10.41368111903353"><ele>2.3333333333333335</ele><time>2026-03-24T09:39:59Z</time></trkpt><trkpt lat="43.69476488680954" lon="10.413626596604724"><ele>1.6666666666666665</ele><time>2026-03-24T09:40:00Z</time></trkpt><trkpt lat="43.69492744254471" lon="10.413593544140383"><ele>1.0</ele><time>2026-03-24T09:40:01Z</time></trkpt><trkpt lat="43.695094704279256" lon="10.41359358926602"><ele>2.3333333333333335</ele><time>2026-03-24T09:40:02Z</time></trkpt><trkpt lat="43.69526288124912" lon="10.413626261782591"><ele>3.666666666666667</ele><time>2026-03-24T09:40:03Z</time></trkpt><trkpt lat="43.69543206940359" lon="10.413689393728788"><ele>5.0</ele><time>2026-03-24T09:40:04Z</time></trkpt><trkpt lat="43.69559916079471" lon="10.413765740306468"><ele>4.666666666666667</ele><time>2026-03-24T09:40:05Z</time></trkpt><trkpt lat="43.69576435144292" lon="10.413851759613653"><ele>4.333333333333333</ele><time>2026-03-24T09:40:06Z</time></trkpt><trkpt lat="43.69592440521841" lon="10.413940849267801"><ele>4.0</ele><time>2026-03-24T09:40:07Z</time></trkpt><trkpt lat="43.696078417617784" lon="10.41402521309312"><ele>4.25</ele><time>2026-03-24T09:40:08Z</time></trkpt><trkpt lat="43.6962279537355" lon="10.414102659051512"><ele>4.5</ele><time>2026-03-24T09:40:09Z</time></trkpt><trkpt lat="43.69636459347642" lon="10.414164411655172"><ele>4.75</ele><time>2026-03-24T09:40:10Z</time></trkpt><trkpt lat="43.69649217404659" lon="10.41421101360162"><ele>5.0</ele><time>2026-03-24T09:40:11Z</time></trkpt><trkpt lat="43.69662324295387" lon="10.41424785314514"><ele>5.0</ele><time>2026-03-24T09:40:11.999Z</time></trkpt><trkpt lat="43.696759742894535" lon="10.414271610197083"><ele>5.0</ele><time>2026-03-24T09:40:12.999Z</time></trkpt><trkpt lat="43.69689049738782" lon="10.41426392419062"><ele>5.0</ele><time>2026-03-24T09:40:13.999Z</time></trkpt><trkpt lat="43.697008336582144" lon="10.41422187426929"><ele>5.0</ele><time>2026-03-24T09:40:14.999Z</time></trkpt><trkpt lat="43.69712441133261" lon="10.41414160653429"><ele>5.0</ele><time>2026-03-24T09:40:15.999Z</time></trkpt><trkpt lat="43.69724155125055" lon="10.414051762315829"><ele>5.0</ele><time>2026-03-24T09:40:16.999Z</time></trkpt><trkpt lat="43.69736912276759" lon="10.413975571472022"><ele>5.0</ele><time>2026-03-24T09:40:17.999Z</time></trkpt><trkpt lat="43.697502460127154" lon="10.413917409348624"><ele>5.0</ele><time>2026-03-24T09:40:18.999Z</time></trkpt><trkpt lat="43.697640126065" lon="10.41386627600271"><ele>5.0</ele><time>2026-03-24T09:40:19.999Z</time></trkpt><trkpt lat="43.69777055262408" lon="10.41382366166134"><ele>5.0</ele><time>2026-03-24T09:40:20.999Z</time></trkpt><trkpt lat="43.697881426492515" lon="10.413788714384799"><ele>5.0</ele><time>2026-03-24T09:40:21.999Z</time></trkpt><trkpt lat="43.69798297276881" lon="10.41375605062257"><ele>5.0</ele><time>2026-03-24T09:40:22.999Z</time></trkpt><trkpt lat="43.69807598258901" lon="10.41372352633896"><ele>5.0</ele><time>2026-03-24T09:40:23.999Z</time></trkpt><trkpt lat="43.6981565548284" lon="10.41369630188373"><ele>5.0</ele><time>2026-03-24T09:40:24.999Z</time></trkpt><trkpt lat="43.69823333673963" lon="10.413666321828423"><ele>5.0</ele><time>2026-03-24T09:40:25.999Z</time></trkpt><trkpt lat="43.69830931895352" lon="10.413637697635842"><ele>5.0</ele><time>2026-03-24T09:40:27Z</time></trkpt><trkpt lat="43.69838351803328" lon="10.413611783162187"><ele>5.0</ele><time>2026-03-24T09:40:28Z</time></trkpt><trkpt lat="43.69849886447296" lon="10.413575473368455"><ele>5.0</ele><time>2026-03-24T09:40:30Z</time></trkpt><trkpt lat="43.69861251450889" lon="10.413531295871268"><ele>5.0</ele><time>2026-03-24T09:40:32Z</time></trkpt><trkpt lat="43.69872974008758" lon="10.41349919340008"><ele>5.0</ele><time>2026-03-24T09:40:34Z</time></trkpt><trkpt lat="43.698812909897676" lon="10.413470850932452"><ele>5.0</ele><time>2026-03-24T09:40:35Z</time></trkpt><trkpt lat="43.69890549341978" lon="10.413439300448136"><ele>5.0</ele><time>2026-03-24T09:40:36Z</time></trkpt><trkpt lat="43.6989854628078" lon="10.413413288901948"><ele>5.0</ele><time>2026-03-24T09:40:37Z</time></trkpt><trkpt lat="43.69904386818885" lon="10.413376910649738"><ele>5.0</ele><time>2026-03-24T09:40:38Z</time></trkpt><trkpt lat="43.699182405424004" lon="10.413329896356531"><ele>5.0</ele><time>2026-03-24T09:40:40Z</time></trkpt><trkpt lat="43.699297731344735" lon="10.413313895305862"><ele>5.0</ele><time>2026-03-24T09:40:41Z</time></trkpt><trkpt lat="43.699434377065174" lon="10.413270151038633"><ele>5.0</ele><time>2026-03-24T09:40:42Z</time></trkpt><trkpt lat="43.6995911884995" lon="10.41320915236"><ele>5.0</ele><time>2026-03-24T09:40:43Z</time></trkpt><trkpt lat="43.69974493927201" lon="10.413172993352735"><ele>5.0</ele><time>2026-03-24T09:40:44Z</time></trkpt><trkpt lat="43.699904866522346" lon="10.41311707106331"><ele>5.0</ele><time>2026-03-24T09:40:45Z</time></trkpt><trkpt lat="43.70006942981727" lon="10.41303348153021"><ele>5.0</ele><time>2026-03-24T09:40:46Z</time></trkpt><trkpt lat="43.700207084890714" lon="10.412918056554277"><ele>5.0</ele><time>2026-03-24T09:40:47Z</time></trkpt><trkpt lat="43.70032761392527" lon="10.412767564113445"><ele>5.0</ele><time>2026-03-24T09:40:48Z</time></trkpt><trkpt lat="43.700447658357746" lon="10.412620567072265"><ele>5.0</ele><time>2026-03-24T09:40:49Z</time></trkpt><trkpt lat="43.700557339984364" lon="10.412498971752937"><ele>5.0</ele><time>2026-03-24T09:40:50Z</time></trkpt><trkpt lat="43.7006588411598" lon="10.412390364101821"><ele>5.0</ele><time>2026-03-24T09:40:51Z</time></trkpt><trkpt lat="43.70075589214895" lon="10.412296190859266"><ele>5.0</ele><time>2026-03-24T09:40:52Z</time></trkpt><trkpt lat="43.70087671465032" lon="10.412198530235434"><ele>5.0</ele><time>2026-03-24T09:40:53Z</time></trkpt><trkpt lat="43.700984754328225" lon="10.412072710772069"><ele>4.75</ele><time>2026-03-24T09:40:54Z</time></trkpt><trkpt lat="43.7011318905274" lon="10.412054536160804"><ele>4.5</ele><time>2026-03-24T09:40:55Z</time></trkpt><trkpt lat="43.701255431246686" lon="10.412009917516079"><ele>4.25</ele><time>2026-03-24T09:40:56Z</time></trkpt><trkpt lat="43.70138160273339" lon="10.411981972908231"><ele>4.0</ele><time>2026-03-24T09:40:57Z</time></trkpt><trkpt lat="43.70150302235539" lon="10.411976126000273"><ele>4.0</ele><time>2026-03-24T09:40:58Z</time></trkpt><trkpt lat="43.70161914124189" lon="10.411986321376846"><ele>4.0</ele><time>2026-03-24T09:40:59Z</time></trkpt><trkpt lat="43.70173786760237" lon="10.412004586818526"><ele>4.0</ele><time>2026-03-24T09:41:00Z</time></trkpt><trkpt lat="43.701859347726426" lon="10.412022265348691"><ele>4.0</ele><time>2026-03-24T09:41:01Z</time></trkpt><trkpt lat="43.70198385292618" lon="10.412039019911855"><ele>4.0</ele><time>2026-03-24T09:41:02Z</time></trkpt><trkpt lat="43.702113557927404" lon="10.412057922308199"><ele>4.0</ele><time>2026-03-24T09:41:03Z</time></trkpt><trkpt lat="43.702247021980774" lon="10.412079271653074"><ele>4.0</ele><time>2026-03-24T09:41:04Z</time></trkpt><trkpt lat="43.70238482171061" lon="10.412104467252655"><ele>4.0</ele><time>2026-03-24T09:41:05Z</time></trkpt><trkpt lat="43.70252360956598" lon="10.412126756206893"><ele>4.0</ele><time>2026-03-24T09:41:06Z</time></trkpt><trkpt lat="43.70265856294836" lon="10.412141200610959"><ele>4.0</ele><time>2026-03-24T09:41:07Z</time></trkpt><trkpt lat="43.702797935243595" lon="10.412151511667632"><ele>4.0</ele><time>2026-03-24T09:41:08Z</time></trkpt><trkpt lat="43.702941772098264" lon="10.412144794346595"><ele>4.0</ele><time>2026-03-24T09:41:09Z</time></trkpt><trkpt lat="43.703081845998206" lon="10.412114109810648"><ele>4.25</ele><time>2026-03-24T09:41:10Z</time></trkpt><trkpt lat="43.70321882031308" lon="10.41206121634572"><ele>4.5</ele><time>2026-03-24T09:41:11Z</time></trkpt><trkpt lat="43.7033493407996" lon="10.411989456571309"><ele>4.75</ele><time>2026-03-24T09:41:12Z</time></trkpt><trkpt lat="43.703471878751564" lon="10.411904587639246"><ele>5.0</ele><time>2026-03-24T09:41:13Z</time></trkpt><trkpt lat="43.70357828510327" lon="10.411810493142248"><ele>5.0</ele><time>2026-03-24T09:41:14Z</time></trkpt><trkpt lat="43.70365795874276" lon="10.41172174880525"><ele>5.0</ele><time>2026-03-24T09:41:15Z</time></trkpt><trkpt lat="43.703723037486476" lon="10.411638865305578"><ele>5.0</ele><time>2026-03-24T09:41:16Z</time></trkpt><trkpt lat="43.70377758010901" lon="10.4115587483361"><ele>5.0</ele><time>2026-03-24T09:41:17Z</time></trkpt><trkpt lat="43.70382704904562" lon="10.41148254689275"><ele>5.0</ele><time>2026-03-24T09:41:18Z</time></trkpt><trkpt lat="43.70387795947371" lon="10.411407104506798"><ele>5.0</ele><time>2026-03-24T09:41:19Z</time></trkpt><trkpt lat="43.703921370657724" lon="10.411333146361917"><ele>5.0</ele><time>2026-03-24T09:41:20Z</time></trkpt><trkpt lat="43.70396953858781" lon="10.411244574077632"><ele>5.0</ele><time>2026-03-24T09:41:22Z</time></trkpt><trkpt lat="43.70403523766954" lon="10.411208151181345"><ele>5.0</ele><time>2026-03-24T09:41:24Z</time></trkpt><trkpt lat="43.70412990011936" lon="10.411198633523677"><ele>5.0</ele><time>2026-03-24T09:41:26Z</time></trkpt><trkpt lat="43.70423185306185" lon="10.41128661077248"><ele>5.0</ele><time>2026-03-24T09:41:28Z</time></trkpt><trkpt lat="43.704263867444055" lon="10.411375568330378"><ele>5.0</ele><time>2026-03-24T09:41:29Z</time></trkpt><trkpt lat="43.70427945846386" lon="10.411480194131695"><ele>5.0</ele><time>2026-03-24T09:41:30Z</time></trkpt><trkpt lat="43.70429712273219" lon="10.411600230173413"><ele>5.0</ele><time>2026-03-24T09:41:31Z</time></trkpt><trkpt lat="43.70432078424576" lon="10.411726004577297"><ele>5.0</ele><time>2026-03-24T09:41:32Z</time></trkpt><trkpt lat="43.704348065118275" lon="10.411839938788606"><ele>5.0</ele><time>2026-03-24T09:41:33Z</time></trkpt><trkpt lat="43.704372851200084" lon="10.41195164339764"><ele>5.0</ele><time>2026-03-24T09:41:34Z</time></trkpt><trkpt lat="43.704387377406015" lon="10.41204613432283"><ele>5.0</ele><time>2026-03-24T09:41:35Z</time></trkpt><trkpt lat="43.70440206809305" lon="10.412150012057984"><ele>5.2</ele><time>2026-03-24T09:41:36Z</time></trkpt><trkpt lat="43.704419383794175" lon="10.412252708457997"><ele>5.4</ele><time>2026-03-24T09:41:37Z</time></trkpt><trkpt lat="43.704451931518314" lon="10.412399452109469"><ele>5.6</ele><time>2026-03-24T09:41:39Z</time></trkpt><trkpt lat="43.70447147645194" lon="10.412573111116556"><ele>5.8</ele><time>2026-03-24T09:41:41Z</time></trkpt><trkpt lat="43.70452520748165" lon="10.412713011256447"><ele>6.0</ele><time>2026-03-24T09:41:43Z</time></trkpt><trkpt lat="43.7045805848994" lon="10.41276803980273"><ele>6.0</ele><time>2026-03-24T09:41:45Z</time></trkpt><trkpt lat="43.704671059315835" lon="10.412686464794806"><ele>6.0</ele><time>2026-03-24T09:41:47Z</time></trkpt><trkpt lat="43.704694670779965" lon="10.412583864751955"><ele>6.0</ele><time>2026-03-24T09:41:48Z</time></trkpt><trkpt lat="43.704701632634475" lon="10.412450674279617"><ele>6.0</ele><time>2026-03-24T09:41:49Z</time></trkpt><trkpt lat="43.70470747698727" lon="10.412264143042881"><ele>6.0</ele><time>2026-03-24T09:41:50Z</time></trkpt><trkpt lat="43.70473353147487" lon="10.412058934733198"><ele>6.25</ele><time>2026-03-24T09:41:51Z</time></trkpt><trkpt lat="43.704772860741016" lon="10.411865945587612"><ele>6.5</ele><time>2026-03-24T09:41:52Z</time></trkpt><trkpt lat="43.7048131922294" lon="10.411707452034493"><ele>6.75</ele><time>2026-03-24T09:41:53Z</time></trkpt><trkpt lat="43.70484815801823" lon="10.411571263388346"><ele>7.0</ele><time>2026-03-24T09:41:54Z</time></trkpt><trkpt lat="43.70489251965083" lon="10.411451650255609"><ele>7.0</ele><time>2026-03-24T09:41:55Z</time></trkpt><trkpt lat="43.70493540951391" lon="10.411346643803176"><ele>6.999999999999999</ele><time>2026-03-24T09:41:56Z</time></trkpt><trkpt lat="43.70498062903748" lon="10.411243397992768"><ele>6.999999999999999</ele><time>2026-03-24T09:41:57Z</time></trkpt><trkpt lat="43.70503900444632" lon="10.41113912845545"><ele>7.0</ele><time>2026-03-24T09:41:58Z</time></trkpt><trkpt lat="43.70511029240841" lon="10.411049095507405"><ele>7.0</ele><time>2026-03-24T09:41:59Z</time></trkpt><trkpt lat="43.70518754584764" lon="10.410985194991026"><ele>7.000000000000001</ele><time>2026-03-24T09:42:00Z</time></trkpt><trkpt lat="43.70527607352736" lon="10.410933457489376"><ele>7.0</ele><time>2026-03-24T09:42:01Z</time></trkpt><trkpt lat="43.705342840883404" lon="10.410857822920516"><ele>7.0</ele><time>2026-03-24T09:42:02Z</time></trkpt><trkpt lat="43.705409756137186" lon="10.4107971780255"><ele>7.0</ele><time>2026-03-24T09:42:03Z</time></trkpt><trkpt lat="43.705476556398274" lon="10.410744106236224"><ele>7.000000000000001</ele><time>2026-03-24T09:42:04Z</time></trkpt><trkpt lat="43.70552984453006" lon="10.41062763162064"><ele>7.0</ele><time>2026-03-24T09:42:05Z</time></trkpt><trkpt lat="43.70558725762464" lon="10.410456574659385"><ele>7.0</ele><time>2026-03-24T09:42:06Z</time></trkpt><trkpt lat="43.70566554431526" lon="10.410266162539095"><ele>7.0</ele><time>2026-03-24T09:42:07Z</time></trkpt><trkpt lat="43.705761007702996" lon="10.410084521525004"><ele>7.0</ele><time>2026-03-24T09:42:08Z</time></trkpt><trkpt lat="43.70583915818669" lon="10.409894814881206"><ele>7.0</ele><time>2026-03-24T09:42:09Z</time></trkpt><trkpt lat="43.70590096634178" lon="10.409702101947024"><ele>7.0</ele><time>2026-03-24T09:42:10Z</time></trkpt><trkpt lat="43.705962553113274" lon="10.409520838290081"><ele>7.0</ele><time>2026-03-24T09:42:11Z</time></trkpt><trkpt lat="43.706028727682416" lon="10.409335008186396"><ele>7.0</ele><time>2026-03-24T09:42:12Z</time></trkpt><trkpt lat="43.70609387887806" lon="10.409150958659659"><ele>7.0</ele><time>2026-03-24T09:42:13Z</time></trkpt><trkpt lat="43.706154005902725" lon="10.408982722856843"><ele>7.0</ele><time>2026-03-24T09:42:14Z</time></trkpt><trkpt lat="43.70621251083089" lon="10.408830251681378"><ele>7.0</ele><time>2026-03-24T09:42:15Z</time></trkpt><trkpt lat="43.7062681991429" lon="10.408691971687542"><ele>7.0</ele><time>2026-03-24T09:42:16Z</time></trkpt><trkpt lat="43.70632586495729" lon="10.408561232882256"><ele>7.0</ele><time>2026-03-24T09:42:17Z</time></trkpt><trkpt lat="43.70638689706981" lon="10.40844064867552"><ele>6.999999999999999</ele><time>2026-03-24T09:42:17.999Z</time></trkpt><trkpt lat="43.70643782726023" lon="10.408337154268317"><ele>6.999999999999999</ele><time>2026-03-24T09:42:18.999Z</time></trkpt><trkpt lat="43.706499136654024" lon="10.408234272518653"><ele>7.0</ele><time>2026-03-24T09:42:19.999Z</time></trkpt><trkpt lat="43.70658268029685" lon="10.408130163315782"><ele>7.0</ele><time>2026-03-24T09:42:20.999Z</time></trkpt><trkpt lat="43.70668999312303" lon="10.408038699600784"><ele>6.666666666666667</ele><time>2026-03-24T09:42:21.999Z</time></trkpt><trkpt lat="43.70682444339678" lon="10.407948825250514"><ele>6.333333333333334</ele><time>2026-03-24T09:42:22.999Z</time></trkpt><trkpt lat="43.70696610722964" lon="10.407855518386304"><ele>6.0</ele><time>2026-03-24T09:42:23.999Z</time></trkpt><trkpt lat="43.70710722256029" lon="10.407764954669304"><ele>6.0</ele><time>2026-03-24T09:42:24.999Z</time></trkpt><trkpt lat="43.707243238274856" lon="10.407670493807037"><ele>6.0</ele><time>2026-03-24T09:42:25.999Z</time></trkpt><trkpt lat="43.70738995787833" lon="10.40757051686528"><ele>6.0</ele><time>2026-03-24T09:42:26.999Z</time></trkpt><trkpt lat="43.70753959376859" lon="10.407456519728727"><ele>6.0</ele><time>2026-03-24T09:42:27.999Z</time></trkpt><trkpt lat="43.707685422736255" lon="10.40734620316915"><ele>6.0</ele><time>2026-03-24T09:42:28.999Z</time></trkpt><trkpt lat="43.7078210279514" lon="10.407249009104099"><ele>6.0</ele><time>2026-03-24T09:42:29.999Z</time></trkpt><trkpt lat="43.70795802215348" lon="10.407158041150435"><ele>6.0</ele><time>2026-03-24T09:42:30.999Z</time></trkpt><trkpt lat="43.70808818744161" lon="10.4070706531695"><ele>6.0</ele><time>2026-03-24T09:42:31.999Z</time></trkpt><trkpt lat="43.7082157258227" lon="10.40698618195643"><ele>6.0</ele><time>2026-03-24T09:42:32.999Z</time></trkpt><trkpt lat="43.70833363823408" lon="10.406898906908603"><ele>6.0</ele><time>2026-03-24T09:42:33.999Z</time></trkpt><trkpt lat="43.70845210237161" lon="10.406809199308004"><ele>6.0</ele><time>2026-03-24T09:42:34.999Z</time></trkpt><trkpt lat="43.708569291886924" lon="10.406720372605912"><ele>6.0</ele><time>2026-03-24T09:42:36Z</time></trkpt><trkpt lat="43.70868628974952" lon="10.406633902496303"><ele>6.0</ele><time>2026-03-24T09:42:37Z</time></trkpt><trkpt lat="43.7088034762913" lon="10.406553993635796"><ele>6.0</ele><time>2026-03-24T09:42:38Z</time></trkpt><trkpt lat="43.70891184198372" lon="10.406488271858485"><ele>6.0</ele><time>2026-03-24T09:42:39Z</time></trkpt><trkpt lat="43.70901239275504" lon="10.406404257225025"><ele>6.0</ele><time>2026-03-24T09:42:40Z</time></trkpt><trkpt lat="43.70909961660221" lon="10.406338529549116"><ele>6.0</ele><time>2026-03-24T09:42:41Z</time></trkpt><trkpt lat="43.709181406460736" lon="10.40627702201214"><ele>6.0</ele><time>2026-03-24T09:42:42Z</time></trkpt><trkpt lat="43.70925472207006" lon="10.406221887385465"><ele>6.0</ele><time>2026-03-24T09:42:43Z</time></trkpt><trkpt lat="43.709324713990995" lon="10.406169250312173"><ele>6.0</ele><time>2026-03-24T09:42:44Z</time></trkpt><trkpt lat="43.709399806236945" lon="10.406150051953533"><ele>6.0</ele><time>2026-03-24T09:42:45Z</time></trkpt><trkpt lat="43.709509635992426" lon="10.406115824920436"><ele>6.0</ele><time>2026-03-24T09:42:47Z</time></trkpt><trkpt lat="43.709584155751536" lon="10.4060565738242"><ele>6.0</ele><time>2026-03-24T09:42:49Z</time></trkpt><trkpt lat="43.70965154981186" lon="10.40599442393094"><ele>6.0</ele><time>2026-03-24T09:42:53Z</time></trkpt><trkpt lat="43.709712897464996" lon="10.405925403905375"><ele>6.0</ele><time>2026-03-24T09:42:55Z</time></trkpt><trkpt lat="43.70979651767835" lon="10.405889057146391"><ele>6.25</ele><time>2026-03-24T09:42:57Z</time></trkpt><trkpt lat="43.709870173050675" lon="10.405838521430734"><ele>6.5</ele><time>2026-03-24T09:42:59Z</time></trkpt><trkpt lat="43.71000067611564" lon="10.405931422764569"><ele>6.75</ele><time>2026-03-24T09:43:01Z</time></trkpt><trkpt lat="43.71008502617271" lon="10.406023468371973"><ele>7.0</ele><time>2026-03-24T09:43:03Z</time></trkpt><trkpt lat="43.71011979421232" lon="10.406193987471669"><ele>7.000000000000001</ele><time>2026-03-24T09:43:05Z</time></trkpt><trkpt lat="43.71011307121602" lon="10.406298025639666"><ele>7.0</ele><time>2026-03-24T09:43:06Z</time></trkpt><trkpt lat="43.71010162927699" lon="10.406398949671704"><ele>7.0</ele><time>2026-03-24T09:43:07Z</time></trkpt><trkpt lat="43.71009712777973" lon="10.406497108564439"><ele>7.0</ele><time>2026-03-24T09:43:08Z</time></trkpt><trkpt lat="43.710092674125875" lon="10.406587882477298"><ele>7.000000000000001</ele><time>2026-03-24T09:43:09Z</time></trkpt><trkpt lat="43.71008580468309" lon="10.406759083094249"><ele>7.0</ele><time>2026-03-24T09:43:11Z</time></trkpt><trkpt lat="43.71008092893261" lon="10.406859626764739"><ele>7.3999999999999995</ele><time>2026-03-24T09:43:12Z</time></trkpt><trkpt lat="43.71008070455201" lon="10.407038538222151"><ele>7.799999999999999</ele><time>2026-03-24T09:43:14Z</time></trkpt><trkpt lat="43.71007314290429" lon="10.407129862138706"><ele>8.2</ele><time>2026-03-24T09:43:15Z</time></trkpt><trkpt lat="43.71007232285977" lon="10.407265792028708"><ele>8.6</ele><time>2026-03-24T09:43:17Z</time></trkpt><trkpt lat="43.71006077464412" lon="10.407387954820317"><ele>9.0</ele><time>2026-03-24T09:43:19Z</time></trkpt><trkpt lat="43.710004853980934" lon="10.40753569783185"><ele>9.0</ele><time>2026-03-24T09:43:21Z</time></trkpt><trkpt lat="43.70998511521526" lon="10.407670995303338"><ele>9.0</ele><time>2026-03-24T09:43:23Z</time></trkpt><trkpt lat="43.710080306149244" lon="10.40777850630362"><ele>9.0</ele><time>2026-03-24T09:43:25Z</time></trkpt><trkpt lat="43.71015413313656" lon="10.407759227501925"><ele>9.0</ele><time>2026-03-24T09:43:26Z</time></trkpt><trkpt lat="43.710233239715116" lon="10.407709593725066"><ele>9.0</ele><time>2026-03-24T09:43:27Z</time></trkpt><trkpt lat="43.710310775926416" lon="10.407693140194151"><ele>9.0</ele><time>2026-03-24T09:43:28Z</time></trkpt><trkpt lat="43.710401939696304" lon="10.407698899660803"><ele>9.0</ele><time>2026-03-24T09:43:29Z</time></trkpt><trkpt lat="43.710476610359905" lon="10.407705911774308"><ele>9.0</ele><time>2026-03-24T09:43:30Z</time></trkpt><trkpt lat="43.71054537861702" lon="10.4077088618251"><ele>9.0</ele><time>2026-03-24T09:43:31Z</time></trkpt><trkpt lat="43.710625001295305" lon="10.407714259841875"><ele>9.0</ele><time>2026-03-24T09:43:32Z</time></trkpt><trkpt lat="43.71069742904343" lon="10.407697354471551"><ele>9.0</ele><time>2026-03-24T09:43:33Z</time></trkpt><trkpt lat="43.710781290871054" lon="10.407725134576431"><ele>9.0</ele><time>2026-03-24T09:43:34Z</time></trkpt><trkpt lat="43.710881624723484" lon="10.407725215540337"><ele>9.0</ele><time>2026-03-24T09:43:35Z</time></trkpt><trkpt lat="43.71098522131888" lon="10.407740067701129"><ele>9.0</ele><time>2026-03-24T09:43:36Z</time></trkpt><trkpt lat="43.7110890735614" lon="10.407761040128877"><ele>9.0</ele><time>2026-03-24T09:43:37Z</time></trkpt><trkpt lat="43.711181374362766" lon="10.407801281533333"><ele>9.0</ele><time>2026-03-24T09:43:38Z</time></trkpt><trkpt lat="43.711273544759344" lon="10.407853295790057"><ele>8.6</ele><time>2026-03-24T09:43:39Z</time></trkpt><trkpt lat="43.711359146407254" lon="10.407896761673465"><ele>8.2</ele><time>2026-03-24T09:43:40Z</time></trkpt><trkpt lat="43.71144853870893" lon="10.407929926680955"><ele>7.799999999999999</ele><time>2026-03-24T09:43:41Z</time></trkpt><trkpt lat="43.71154456235886" lon="10.407935798288227"><ele>7.3999999999999995</ele><time>2026-03-24T09:43:42Z</time></trkpt><trkpt lat="43.71164186214366" lon="10.40794220084195"><ele>7.0</ele><time>2026-03-24T09:43:43Z</time></trkpt><trkpt lat="43.711746768264646" lon="10.407946759965315"><ele>7.0</ele><time>2026-03-24T09:43:44Z</time></trkpt><trkpt lat="43.711844608766164" lon="10.407946308893685"><ele>7.0</ele><time>2026-03-24T09:43:45Z</time></trkpt><trkpt lat="43.711968996062005" lon="10.40795556349867"><ele>7.0</ele><time>2026-03-24T09:43:46Z</time></trkpt><trkpt lat="43.71211231097858" lon="10.407944959823"><ele>7.0</ele><time>2026-03-24T09:43:47Z</time></trkpt><trkpt lat="43.712234566794464" lon="10.407960988446053"><ele>7.000000000000001</ele><time>2026-03-24T09:43:49Z</time></trkpt><trkpt lat="43.71233395097144" lon="10.40795627515789"><ele>7.0</ele><time>2026-03-24T09:43:50Z</time></trkpt><trkpt lat="43.71243181905148" lon="10.407948229460226"><ele>7.0</ele><time>2026-03-24T09:43:51Z</time></trkpt><trkpt lat="43.712518929366766" lon="10.40793543946542"><ele>7.0</ele><time>2026-03-24T09:43:52Z</time></trkpt><trkpt lat="43.71259557937339" lon="10.407924785285818"><ele>7.000000000000001</ele><time>2026-03-24T09:43:53Z</time></trkpt><trkpt lat="43.71267551536293" lon="10.407898014308802"><ele>7.0</ele><time>2026-03-24T09:43:54Z</time></trkpt><trkpt lat="43.712753926111496" lon="10.4078846432548"><ele>7.0</ele><time>2026-03-24T09:43:55Z</time></trkpt><trkpt lat="43.71282101276625" lon="10.407868852687933"><ele>7.0</ele><time>2026-03-24T09:43:56Z</time></trkpt><trkpt lat="43.71294805661411" lon="10.40784798235294"><ele>7.0</ele><time>2026-03-24T09:43:58Z</time></trkpt><trkpt lat="43.71305984176378" lon="10.407803552312227"><ele>7.0</ele><time>2026-03-24T09:44:00Z</time></trkpt><trkpt lat="43.7131422615975" lon="10.407648340298744"><ele>7.0</ele><time>2026-03-24T09:44:02Z</time></trkpt><trkpt lat="43.713171291911365" lon="10.407531366749518"><ele>6.999999999999999</ele><time>2026-03-24T09:44:03Z</time></trkpt><trkpt lat="43.7131985325681" lon="10.407395537071489"><ele>6.999999999999999</ele><time>2026-03-24T09:44:04Z</time></trkpt><trkpt lat="43.71323365653928" lon="10.40725745567785"><ele>7.0</ele><time>2026-03-24T09:44:05Z</time></trkpt><trkpt lat="43.71328002095003" lon="10.407117829382605"><ele>7.0</ele><time>2026-03-24T09:44:06Z</time></trkpt><trkpt lat="43.71333008947014" lon="10.406967922189217"><ele>6.5</ele><time>2026-03-24T09:44:07Z</time></trkpt><trkpt lat="43.71337800190967" lon="10.406831192932243"><ele>6.0</ele><time>2026-03-24T09:44:08Z</time></trkpt><trkpt lat="43.713429002516904" lon="10.406686517712659"><ele>5.5</ele><time>2026-03-24T09:44:09Z</time></trkpt><trkpt lat="43.71347736677099" lon="10.406546354917342"><ele>5.0</ele><time>2026-03-24T09:44:10Z</time></trkpt><trkpt lat="43.71352521715762" lon="10.406402380278422"><ele>5.0</ele><time>2026-03-24T09:44:11Z</time></trkpt><trkpt lat="43.71357414143857" lon="10.406261358578242"><ele>5.0</ele><time>2026-03-24T09:44:12Z</time></trkpt><trkpt lat="43.713627480658616" lon="10.406120153373367"><ele>5.0</ele><time>2026-03-24T09:44:13Z</time></trkpt><trkpt lat="43.71368346787949" lon="10.405979075634486"><ele>5.0</ele><time>2026-03-24T09:44:14Z</time></trkpt><trkpt lat="43.71373235034518" lon="10.40585205658478"><ele>5.0</ele><time>2026-03-24T09:44:15Z</time></trkpt><trkpt lat="43.71378202064985" lon="10.405736761106585"><ele>5.0</ele><time>2026-03-24T09:44:16Z</time></trkpt><trkpt lat="43.71382669216566" lon="10.405635188927825"><ele>5.0</ele><time>2026-03-24T09:44:17Z</time></trkpt><trkpt lat="43.713878900462454" lon="10.405522499062444"><ele>5.0</ele><time>2026-03-24T09:44:18Z</time></trkpt><trkpt lat="43.713925009031854" lon="10.40540964765567"><ele>5.0</ele><time>2026-03-24T09:44:19Z</time></trkpt><trkpt lat="43.713971599830025" lon="10.40531047863828"><ele>5.0</ele><time>2026-03-24T09:44:20Z</time></trkpt><trkpt lat="43.71401299254365" lon="10.40522925775619"><ele>5.0</ele><time>2026-03-24T09:44:21Z</time></trkpt><trkpt lat="43.714053597322135" lon="10.405128656189778"><ele>5.0</ele><time>2026-03-24T09:44:22Z</time></trkpt><trkpt lat="43.7140992480461" lon="10.405028753602805"><ele>5.0</ele><time>2026-03-24T09:44:23Z</time></trkpt><trkpt lat="43.71414157454899" lon="10.40492548022481"><ele>5.0</ele><time>2026-03-24T09:44:23.999Z</time></trkpt><trkpt lat="43.714188425274955" lon="10.40481759836081"><ele>5.0</ele><time>2026-03-24T09:44:24.999Z</time></trkpt><trkpt lat="43.71424084504375" lon="10.404718451816223"><ele>5.0</ele><time>2026-03-24T09:44:25.999Z</time></trkpt><trkpt lat="43.7142865954336" lon="10.404639912220915"><ele>5.0</ele><time>2026-03-24T09:44:26.999Z</time></trkpt><trkpt lat="43.7143302695688" lon="10.404526824029592"><ele>5.5</ele><time>2026-03-24T09:44:27.999Z</time></trkpt><trkpt lat="43.714376296464636" lon="10.40442787668359"><ele>6.0</ele><time>2026-03-24T09:44:28.999Z</time></trkpt><trkpt lat="43.71442420108068" lon="10.404316457039315"><ele>6.5</ele><time>2026-03-24T09:44:29.999Z</time></trkpt><trkpt lat="43.71447414960431" lon="10.404214629311102"><ele>7.0</ele><time>2026-03-24T09:44:30.999Z</time></trkpt><trkpt lat="43.714524732182596" lon="10.404113611787277"><ele>7.499999999999999</ele><time>2026-03-24T09:44:31.999Z</time></trkpt><trkpt lat="43.71457512025113" lon="10.4040088246541"><ele>8.0</ele><time>2026-03-24T09:44:32.999Z</time></trkpt><trkpt lat="43.71463087681157" lon="10.403901946424448"><ele>8.200000000000001</ele><time>2026-03-24T09:44:33.999Z</time></trkpt><trkpt lat="43.71467941287088" lon="10.40380246383457"><ele>8.4</ele><time>2026-03-24T09:44:34.999Z</time></trkpt><trkpt lat="43.714726897175176" lon="10.403685017364333"><ele>8.600000000000001</ele><time>2026-03-24T09:44:35.999Z</time></trkpt><trkpt lat="43.71477546455904" lon="10.403579281746202"><ele>8.8</ele><time>2026-03-24T09:44:36.999Z</time></trkpt><trkpt lat="43.71482194150591" lon="10.403477207532788"><ele>9.0</ele><time>2026-03-24T09:44:37.999Z</time></trkpt><trkpt lat="43.71488047096088" lon="10.403373041489099"><ele>9.0</ele><time>2026-03-24T09:44:38.999Z</time></trkpt><trkpt lat="43.71492505499968" lon="10.403273282314272"><ele>9.0</ele><time>2026-03-24T09:44:39.999Z</time></trkpt><trkpt lat="43.71497386642572" lon="10.403165593441942"><ele>9.0</ele><time>2026-03-24T09:44:40.999Z</time></trkpt><trkpt lat="43.71502058478843" lon="10.403057049324815"><ele>9.0</ele><time>2026-03-24T09:44:41.999Z</time></trkpt><trkpt lat="43.715066676073484" lon="10.402966575064546"><ele>9.0</ele><time>2026-03-24T09:44:42.999Z</time></trkpt><trkpt lat="43.7151132442354" lon="10.402854270320887"><ele>9.0</ele><time>2026-03-24T09:44:43.999Z</time></trkpt><trkpt lat="43.715153918344086" lon="10.402753377674536"><ele>9.166666666666666</ele><time>2026-03-24T09:44:44.999Z</time></trkpt><trkpt lat="43.71519342683925" lon="10.402656983372673"><ele>9.333333333333334</ele><time>2026-03-24T09:44:45.999Z</time></trkpt><trkpt lat="43.71523498999076" lon="10.402552895019676"><ele>9.5</ele><time>2026-03-24T09:44:46.999Z</time></trkpt><trkpt lat="43.71527537376411" lon="10.402464666447443"><ele>9.666666666666668</ele><time>2026-03-24T09:44:48Z</time></trkpt><trkpt lat="43.71531543957436" lon="10.40236274801384"><ele>9.833333333333334</ele><time>2026-03-24T09:44:49Z</time></trkpt><trkpt lat="43.715348810317984" lon="10.402275099743994"><ele>10.0</ele><time>2026-03-24T09:44:50Z</time></trkpt><trkpt lat="43.71537699573338" lon="10.402187733348928"><ele>10.2</ele><time>2026-03-24T09:44:51Z</time></trkpt><trkpt lat="43.715414418779865" lon="10.402090365624009"><ele>10.4</ele><time>2026-03-24T09:45:08Z</time></trkpt><trkpt lat="43.71545245898989" lon="10.401965845434047"><ele>10.600000000000001</ele><time>2026-03-24T09:45:11Z</time></trkpt><trkpt lat="43.71548728057529" lon="10.401849701774053"><ele>10.8</ele><time>2026-03-24T09:45:13Z</time></trkpt><trkpt lat="43.71554200211103" lon="10.401752388493136"><ele>11.0</ele><time>2026-03-24T09:45:15Z</time></trkpt><trkpt lat="43.715664824343634" lon="10.401769753392427"><ele>11.0</ele><time>2026-03-24T09:45:17Z</time></trkpt><trkpt lat="43.71573622619393" lon="10.40181973265587"><ele>11.0</ele><time>2026-03-24T09:45:18Z</time></trkpt><trkpt lat="43.715804210856504" lon="10.401874202379314"><ele>11.0</ele><time>2026-03-24T09:45:19Z</time></trkpt><trkpt lat="43.71588174025295" lon="10.40192881444251"><ele>11.0</ele><time>2026-03-24T09:45:20Z</time></trkpt><trkpt lat="43.71595808262504" lon="10.401971710406515"><ele>11.0</ele><time>2026-03-24T09:45:21Z</time></trkpt><trkpt lat="43.71601674733219" lon="10.402008729693227"><ele>11.0</ele><time>2026-03-24T09:45:22Z</time></trkpt><trkpt lat="43.71610980361743" lon="10.4020840369031"><ele>11.166666666666666</ele><time>2026-03-24T09:45:24Z</time></trkpt><trkpt lat="43.71617093850415" lon="10.402130743916706"><ele>11.333333333333332</ele><time>2026-03-24T09:45:26Z</time></trkpt><trkpt lat="43.71622529083789" lon="10.402182071862882"><ele>11.5</ele><time>2026-03-24T09:45:30Z</time></trkpt><trkpt lat="43.71623230273007" lon="10.402284697622315"><ele>11.666666666666666</ele><time>2026-03-24T09:45:34Z</time></trkpt><trkpt lat="43.716180057846046" lon="10.402400873170764"><ele>11.833333333333334</ele><time>2026-03-24T09:45:36Z</time></trkpt><trkpt lat="43.716161676269174" lon="10.40258337071666"><ele>12.0</ele><time>2026-03-24T09:45:38Z</time></trkpt><trkpt lat="43.716147045507405" lon="10.40268920771694"><ele>12.0</ele><time>2026-03-24T09:45:39Z</time></trkpt><trkpt lat="43.71611850425177" lon="10.402799225323935"><ele>12.0</ele><time>2026-03-24T09:45:40Z</time></trkpt><trkpt lat="43.71608976022191" lon="10.402893307197866"><ele>12.0</ele><time>2026-03-24T09:45:41Z</time></trkpt><trkpt lat="43.71606176085589" lon="10.402982330638302"><ele>12.0</ele><time>2026-03-24T09:45:42Z</time></trkpt><trkpt lat="43.716019151009895" lon="10.403141151452655"><ele>12.0</ele><time>2026-03-24T09:45:44Z</time></trkpt><trkpt lat="43.71599466061475" lon="10.403229984770523"><ele>12.0</ele><time>2026-03-24T09:45:45Z</time></trkpt><trkpt lat="43.7159662316484" lon="10.403326785317914"><ele>11.8</ele><time>2026-03-24T09:45:46Z</time></trkpt><trkpt lat="43.71593032180182" lon="10.403432275021341"><ele>11.6</ele><time>2026-03-24T09:45:47Z</time></trkpt><trkpt lat="43.71588540050268" lon="10.403561397028776"><ele>11.4</ele><time>2026-03-24T09:45:48Z</time></trkpt><trkpt lat="43.71584290355452" lon="10.403704692857916"><ele>11.200000000000001</ele><time>2026-03-24T09:45:49Z</time></trkpt><trkpt lat="43.7158002856425" lon="10.403845438961628"><ele>11.0</ele><time>2026-03-24T09:45:50Z</time></trkpt><trkpt lat="43.71576366592632" lon="10.403968818768801"><ele>11.0</ele><time>2026-03-24T09:45:51Z</time></trkpt><trkpt lat="43.71572908751872" lon="10.40410485887709"><ele>11.0</ele><time>2026-03-24T09:45:52Z</time></trkpt><trkpt lat="43.715690682296966" lon="10.40425068556591"><ele>11.0</ele><time>2026-03-24T09:45:53Z</time></trkpt><trkpt lat="43.71564607119579" lon="10.404395770894615"><ele>11.0</ele><time>2026-03-24T09:45:54Z</time></trkpt><trkpt lat="43.71559580752644" lon="10.404545919103546"><ele>10.5</ele><time>2026-03-24T09:45:55Z</time></trkpt><trkpt lat="43.71554978095494" lon="10.404702528821433"><ele>10.0</ele><time>2026-03-24T09:45:56Z</time></trkpt><trkpt lat="43.71550217052769" lon="10.404861606116851"><ele>9.5</ele><time>2026-03-24T09:45:57Z</time></trkpt><trkpt lat="43.71545020967046" lon="10.405008215559048"><ele>9.0</ele><time>2026-03-24T09:45:58Z</time></trkpt><trkpt lat="43.71539066742641" lon="10.405157687228511"><ele>9.0</ele><time>2026-03-24T09:45:59Z</time></trkpt><trkpt lat="43.71532546179264" lon="10.405309071905094"><ele>9.0</ele><time>2026-03-24T09:46:00Z</time></trkpt><trkpt lat="43.7152616051857" lon="10.40544785698566"><ele>9.0</ele><time>2026-03-24T09:46:01Z</time></trkpt><trkpt lat="43.715200452597905" lon="10.405584354316131"><ele>9.0</ele><time>2026-03-24T09:46:02Z</time></trkpt><trkpt lat="43.71514550002366" lon="10.40571578549397"><ele>8.8</ele><time>2026-03-24T09:46:03Z</time></trkpt><trkpt lat="43.71509264553397" lon="10.405833675796432"><ele>8.600000000000001</ele><time>2026-03-24T09:46:04Z</time></trkpt><trkpt lat="43.71503479731115" lon="10.405956393265122"><ele>8.4</ele><time>2026-03-24T09:46:05Z</time></trkpt><trkpt lat="43.71498145794844" lon="10.406084968449672"><ele>8.200000000000001</ele><time>2026-03-24T09:46:06Z</time></trkpt><trkpt lat="43.71492998801868" lon="10.406211272923773"><ele>8.0</ele><time>2026-03-24T09:46:07Z</time></trkpt><trkpt lat="43.71487763012064" lon="10.406328915932459"><ele>8.0</ele><time>2026-03-24T09:46:08Z</time></trkpt><trkpt lat="43.71482688333867" lon="10.406446955240849"><ele>8.0</ele><time>2026-03-24T09:46:09Z</time></trkpt><trkpt lat="43.71477419834672" lon="10.406557971977913"><ele>8.0</ele><time>2026-03-24T09:46:10Z</time></trkpt><trkpt lat="43.71472417931798" lon="10.406667359513992"><ele>8.0</ele><time>2026-03-24T09:46:11Z</time></trkpt><trkpt lat="43.714672827248826" lon="10.406777662635719"><ele>8.0</ele><time>2026-03-24T09:46:12Z</time></trkpt><trkpt lat="43.714628765064894" lon="10.40687558673237"><ele>8.0</ele><time>2026-03-24T09:46:13Z</time></trkpt><trkpt lat="43.71458922232502" lon="10.406976728682189"><ele>8.0</ele><time>2026-03-24T09:46:14Z</time></trkpt><trkpt lat="43.7145470214696" lon="10.40708268539547"><ele>8.0</ele><time>2026-03-24T09:46:15Z</time></trkpt><trkpt lat="43.71450213774958" lon="10.407185280092223"><ele>8.0</ele><time>2026-03-24T09:46:16Z</time></trkpt><trkpt lat="43.71444912930834" lon="10.407289197522752"><ele>8.0</ele><time>2026-03-24T09:46:17Z</time></trkpt><trkpt lat="43.714396296266045" lon="10.40740726398971"><ele>8.4</ele><time>2026-03-24T09:46:18Z</time></trkpt><trkpt lat="43.71434471638431" lon="10.407512538302857"><ele>8.8</ele><time>2026-03-24T09:46:19Z</time></trkpt><trkpt lat="43.71429075177198" lon="10.407628402365404"><ele>9.2</ele><time>2026-03-24T09:46:20Z</time></trkpt><trkpt lat="43.714235895285064" lon="10.407747960734861"><ele>9.6</ele><time>2026-03-24T09:46:21Z</time></trkpt><trkpt lat="43.71418397460518" lon="10.407866683661963"><ele>10.0</ele><time>2026-03-24T09:46:22Z</time></trkpt><trkpt lat="43.71413073243968" lon="10.40797951194941"><ele>9.833333333333334</ele><time>2026-03-24T09:46:23Z</time></trkpt><trkpt lat="43.714082350194836" lon="10.40808939074554"><ele>9.666666666666668</ele><time>2026-03-24T09:46:24Z</time></trkpt><trkpt lat="43.71403813276236" lon="10.408193554350547"><ele>9.5</ele><time>2026-03-24T09:46:25Z</time></trkpt><trkpt lat="43.71400140679843" lon="10.408272838072754"><ele>9.333333333333334</ele><time>2026-03-24T09:46:26Z</time></trkpt><trkpt lat="43.71393588236429" lon="10.408398546778411"><ele>9.166666666666666</ele><time>2026-03-24T09:46:28Z</time></trkpt><trkpt lat="43.713895210690104" lon="10.408494874858127"><ele>9.0</ele><time>2026-03-24T09:46:29.999Z</time></trkpt><trkpt lat="43.71380726975568" lon="10.408393233223192"><ele>9.0</ele><time>2026-03-24T09:46:30.999Z</time></trkpt><trkpt lat="43.71368753876791" lon="10.4082975966445"><ele>9.0</ele><time>2026-03-24T09:46:32.999Z</time></trkpt><trkpt lat="43.71360515634795" lon="10.408231617699272"><ele>9.0</ele><time>2026-03-24T09:46:33.999Z</time></trkpt><trkpt lat="43.71351924209045" lon="10.408156472112653"><ele>9.0</ele><time>2026-03-24T09:46:34.999Z</time></trkpt><trkpt lat="43.713445688373625" lon="10.408096393013398"><ele>9.0</ele><time>2026-03-24T09:46:35.999Z</time></trkpt><trkpt lat="43.71339268998279" lon="10.408030843613764"><ele>8.6</ele><time>2026-03-24T09:46:36.999Z</time></trkpt><trkpt lat="43.71327690371277" lon="10.407954837459885"><ele>8.2</ele><time>2026-03-24T09:46:38.999Z</time></trkpt><trkpt lat="43.71319749844175" lon="10.407878993691467"><ele>7.799999999999999</ele><time>2026-03-24T09:46:40.999Z</time></trkpt><trkpt lat="43.71312375847654" lon="10.40781327923418"><ele>7.3999999999999995</ele><time>2026-03-24T09:46:43.999Z</time></trkpt><trkpt lat="43.71311617379075" lon="10.407659273705185"><ele>7.0</ele><time>2026-03-24T09:46:45.999Z</time></trkpt><trkpt lat="43.71314281013151" lon="10.40756436169927"><ele>7.000000000000001</ele><time>2026-03-24T09:46:46.999Z</time></trkpt><trkpt lat="43.713167880967845" lon="10.407468611104653"><ele>7.0</ele><time>2026-03-24T09:46:48Z</time></trkpt><trkpt lat="43.71319902392418" lon="10.407365275061036"><ele>7.0</ele><time>2026-03-24T09:46:49Z</time></trkpt><trkpt lat="43.71323332452878" lon="10.407263288368254"><ele>7.0</ele><time>2026-03-24T09:46:50Z</time></trkpt><trkpt lat="43.713269161084405" lon="10.407159283625905"><ele>7.000000000000001</ele><time>2026-03-24T09:46:51Z</time></trkpt><trkpt lat="43.71330203282609" lon="10.407057716627977"><ele>7.0</ele><time>2026-03-24T09:46:52Z</time></trkpt><trkpt lat="43.71333289351573" lon="10.406959900214794"><ele>6.666666666666667</ele><time>2026-03-24T09:46:53Z</time></trkpt><trkpt lat="43.71336353416159" lon="10.406869002781804"><ele>6.333333333333334</ele><time>2026-03-24T09:46:54Z</time></trkpt><trkpt lat="43.71339607649552" lon="10.406772796327719"><ele>6.0</ele><time>2026-03-24T09:46:55Z</time></trkpt><trkpt lat="43.71342840880945" lon="10.406671873995704"><ele>5.666666666666667</ele><time>2026-03-24T09:46:56Z</time></trkpt><trkpt lat="43.71345834880425" lon="10.406576383538905"><ele>5.333333333333334</ele><time>2026-03-24T09:46:57Z</time></trkpt><trkpt lat="43.713494535385884" lon="10.406481048194713"><ele>5.0</ele><time>2026-03-24T09:46:58Z</time></trkpt><trkpt lat="43.71352959794026" lon="10.406384516185046"><ele>5.0</ele><time>2026-03-24T09:46:59Z</time></trkpt><trkpt lat="43.71356377138523" lon="10.406304759526087"><ele>5.0</ele><time>2026-03-24T09:47:00Z</time></trkpt><trkpt lat="43.713601868753" lon="10.406212287356563"><ele>5.0</ele><time>2026-03-24T09:47:01Z</time></trkpt><trkpt lat="43.71363907314168" lon="10.406113793425382"><ele>5.0</ele><time>2026-03-24T09:47:02Z</time></trkpt><trkpt lat="43.71367576708428" lon="10.406018318876209"><ele>5.0</ele><time>2026-03-24T09:47:03Z</time></trkpt><trkpt lat="43.71371942702959" lon="10.405914024460085"><ele>5.0</ele><time>2026-03-24T09:47:04Z</time></trkpt><trkpt lat="43.71376417662866" lon="10.405809159623045"><ele>5.0</ele><time>2026-03-24T09:47:05Z</time></trkpt><trkpt lat="43.713808869762104" lon="10.405706005858757"><ele>5.0</ele><time>2026-03-24T09:47:06Z</time></trkpt><trkpt lat="43.71385533270263" lon="10.405601098266873"><ele>5.0</ele><time>2026-03-24T09:47:07Z</time></trkpt><trkpt lat="43.71390264060976" lon="10.405496636360123"><ele>5.0</ele><time>2026-03-24T09:47:08Z</time></trkpt><trkpt lat="43.71394875029036" lon="10.405390808221398"><ele>5.0</ele><time>2026-03-24T09:47:09Z</time></trkpt><trkpt lat="43.71399750321478" lon="10.405273124655174"><ele>5.0</ele><time>2026-03-24T09:47:10Z</time></trkpt><trkpt lat="43.71404725267278" lon="10.405154047015206"><ele>5.0</ele><time>2026-03-24T09:47:11Z</time></trkpt><trkpt lat="43.714098227391446" lon="10.40503942997757"><ele>5.0</ele><time>2026-03-24T09:47:12Z</time></trkpt><trkpt lat="43.71415470452446" lon="10.404912842927168"><ele>5.0</ele><time>2026-03-24T09:47:13Z</time></trkpt><trkpt lat="43.714210409313594" lon="10.404789259439045"><ele>5.0</ele><time>2026-03-24T09:47:14Z</time></trkpt><trkpt lat="43.71426820193326" lon="10.404674724025876"><ele>5.6</ele><time>2026-03-24T09:47:15Z</time></trkpt><trkpt lat="43.7143280769285" lon="10.404558456634721"><ele>6.2</ele><time>2026-03-24T09:47:16Z</time></trkpt><trkpt lat="43.71438904342407" lon="10.404431764782924"><ele>6.800000000000001</ele><time>2026-03-24T09:47:17Z</time></trkpt><trkpt lat="43.71444152067549" lon="10.404305150756633"><ele>7.4</ele><time>2026-03-24T09:47:18Z</time></trkpt><trkpt lat="43.71449276328391" lon="10.40418413177687"><ele>8.0</ele><time>2026-03-24T09:47:19Z</time></trkpt><trkpt lat="43.71454653183258" lon="10.404074026717126"><ele>8.0</ele><time>2026-03-24T09:47:20Z</time></trkpt><trkpt lat="43.71460225518594" lon="10.403954840116949"><ele>8.0</ele><time>2026-03-24T09:47:21Z</time></trkpt><trkpt lat="43.714652190603985" lon="10.403851832838761"><ele>8.0</ele><time>2026-03-24T09:47:22Z</time></trkpt><trkpt lat="43.71470503287924" lon="10.403741718552675"><ele>8.0</ele><time>2026-03-24T09:47:23Z</time></trkpt><trkpt lat="43.714752541935844" lon="10.40364435712645"><ele>8.0</ele><time>2026-03-24T09:47:24Z</time></trkpt><trkpt lat="43.71480023188236" lon="10.403546609737576"><ele>8.166666666666666</ele><time>2026-03-24T09:47:25Z</time></trkpt><trkpt lat="43.714849430646886" lon="10.403448628972965"><ele>8.333333333333332</ele><time>2026-03-24T09:47:26Z</time></trkpt><trkpt lat="43.71489939240493" lon="10.403347511933429"><ele>8.5</ele><time>2026-03-24T09:47:27Z</time></trkpt><trkpt lat="43.71494726921523" lon="10.403235978128828"><ele>8.666666666666666</ele><time>2026-03-24T09:47:28Z</time></trkpt><trkpt lat="43.714983963698835" lon="10.403134206652814"><ele>8.833333333333334</ele><time>2026-03-24T09:47:29Z</time></trkpt><trkpt lat="43.715023202467485" lon="10.403060815806993"><ele>9.0</ele><time>2026-03-24T09:47:30Z</time></trkpt><trkpt lat="43.71506380913213" lon="10.402978450373869"><ele>9.2</ele><time>2026-03-24T09:47:31Z</time></trkpt><trkpt lat="43.715101266146675" lon="10.402895472386211"><ele>9.4</ele><time>2026-03-24T09:47:32Z</time></trkpt><trkpt lat="43.71515964475764" lon="10.402740346305945"><ele>9.6</ele><time>2026-03-24T09:47:34Z</time></trkpt><trkpt lat="43.71521343294034" lon="10.402606144265366"><ele>9.8</ele><time>2026-03-24T09:47:36Z</time></trkpt><trkpt lat="43.715274414269004" lon="10.402465130925794"><ele>10.0</ele><time>2026-03-24T09:47:38Z</time></trkpt><trkpt lat="43.71532420783031" lon="10.402336581328816"><ele>10.2</ele><time>2026-03-24T09:47:40Z</time></trkpt><trkpt lat="43.7153839645302" lon="10.402186458111931"><ele>10.4</ele><time>2026-03-24T09:47:42Z</time></trkpt><trkpt lat="43.7154225241003" lon="10.40204902557029"><ele>10.600000000000001</ele><time>2026-03-24T09:47:44Z</time></trkpt><trkpt lat="43.715456991390035" lon="10.401928369745818"><ele>10.8</ele><time>2026-03-24T09:47:46Z</time></trkpt><trkpt lat="43.71550548928205" lon="10.401832120398048"><ele>11.0</ele><time>2026-03-24T09:48:18Z</time></trkpt><trkpt lat="43.71554262564354" lon="10.401711480162014"><ele>11.0</ele><time>2026-03-24T09:48:20Z</time></trkpt><trkpt lat="43.71565643071748" lon="10.40176956320978"><ele>11.0</ele><time>2026-03-24T09:48:21Z</time></trkpt><trkpt lat="43.71572387935864" lon="10.401799802418923"><ele>11.0</ele><time>2026-03-24T09:48:22Z</time></trkpt><trkpt lat="43.71579405761586" lon="10.401868084815373"><ele>11.0</ele><time>2026-03-24T09:48:23Z</time></trkpt><trkpt lat="43.71586849551588" lon="10.401930048912813"><ele>11.0</ele><time>2026-03-24T09:48:24Z</time></trkpt><trkpt lat="43.71593524382657" lon="10.401971743123994"><ele>11.0</ele><time>2026-03-24T09:48:25Z</time></trkpt><trkpt lat="43.71600150780193" lon="10.402006626909344"><ele>11.200000000000001</ele><time>2026-03-24T09:48:26Z</time></trkpt><trkpt lat="43.716109853376295" lon="10.40208004145652"><ele>11.4</ele><time>2026-03-24T09:48:28Z</time></trkpt><trkpt lat="43.71620019011233" lon="10.402150963309737"><ele>11.6</ele><time>2026-03-24T09:48:30Z</time></trkpt><trkpt lat="43.71626050907832" lon="10.402183429203623"><ele>11.8</ele><time>2026-03-24T09:48:32Z</time></trkpt><trkpt lat="43.71625085267551" lon="10.402289851283616"><ele>12.0</ele><time>2026-03-24T09:48:33Z</time></trkpt><trkpt lat="43.716223034925655" lon="10.402463499682474"><ele>12.0</ele><time>2026-03-24T09:48:35Z</time></trkpt><trkpt lat="43.71618703886317" lon="10.402566002213657"><ele>12.0</ele><time>2026-03-24T09:48:36Z</time></trkpt><trkpt lat="43.71614647270324" lon="10.402679849410802"><ele>12.0</ele><time>2026-03-24T09:48:37Z</time></trkpt><trkpt lat="43.7161096212355" lon="10.402807598733547"><ele>12.0</ele><time>2026-03-24T09:48:38Z</time></trkpt><trkpt lat="43.716074389993665" lon="10.40294650012779"><ele>12.0</ele><time>2026-03-24T09:48:39Z</time></trkpt><trkpt lat="43.716032307827355" lon="10.403091225158864"><ele>11.833333333333334</ele><time>2026-03-24T09:48:40Z</time></trkpt><trkpt lat="43.71599208135009" lon="10.40322082168178"><ele>11.666666666666666</ele><time>2026-03-24T09:48:41Z</time></trkpt><trkpt lat="43.71595762832641" lon="10.403333138583376"><ele>11.5</ele><time>2026-03-24T09:48:42Z</time></trkpt><trkpt lat="43.71592277491948" lon="10.403448651925956"><ele>11.333333333333332</ele><time>2026-03-24T09:48:43Z</time></trkpt><trkpt lat="43.715886736232" lon="10.403547143645861"><ele>11.166666666666666</ele><time>2026-03-24T09:48:44Z</time></trkpt><trkpt lat="43.71585859808244" lon="10.403640285518726"><ele>11.0</ele><time>2026-03-24T09:48:45Z</time></trkpt><trkpt lat="43.715837754122475" lon="10.403764138180808"><ele>11.0</ele><time>2026-03-24T09:48:47Z</time></trkpt><trkpt lat="43.71581669813514" lon="10.403870344617493"><ele>11.0</ele><time>2026-03-24T09:50:46Z</time></trkpt></trkseg></trk></gpx>